<?xml version='1.0' encoding='UTF-8'?><gpx version="1.1" creator="JPX - https://github.com/jenetics/jpx" xmlns="http://www.topografix.com/GPX/1/1"><trk><trkseg><trkpt lat="44.0829555" lon="7.7994493"><ele>892.0</ele><time>2026-05-02T14:16:24.043Z</time></trkpt><trkpt lat="44.0828512" lon="7.7994436"><ele>892.0</ele><time>2026-05-02T14:16:26.043Z</time></trkpt><trkpt lat="44.0827008" lon="7.7994747"><ele>892.0</ele><time>2026-05-02T14:16:28.043Z</time></trkpt><trkpt lat="44.0826003" lon="7.7994912"><ele>892.0</ele><time>2026-05-02T14:16:29.043Z</time></trkpt><trkpt lat="44.082488" lon="7.7995015"><ele>893.5</ele><time>2026-05-02T14:16:30.043Z</time></trkpt><trkpt lat="44.0823645" lon="7.7995131"><ele>895.0</ele><time>2026-05-02T14:16:31.043Z</time></trkpt><trkpt lat="44.0822309" lon="7.7995067"><ele>896.5</ele><time>2026-05-02T14:16:32.044Z</time></trkpt><trkpt lat="44.0820977" lon="7.7994657"><ele>898.0</ele><time>2026-05-02T14:16:33.043Z</time></trkpt><trkpt lat="44.0819742" lon="7.7994335"><ele>898.0</ele><time>2026-05-02T14:16:34.043Z</time></trkpt><trkpt lat="44.0818246" lon="7.7994003"><ele>898.0</ele><time>2026-05-02T14:16:35.044Z</time></trkpt><trkpt lat="44.0816851" lon="7.7994014"><ele>898.0</ele><time>2026-05-02T14:16:36.044Z</time></trkpt><trkpt lat="44.0815564" lon="7.7994564"><ele>898.0</ele><time>2026-05-02T14:16:37.043Z</time></trkpt><trkpt lat="44.0814328" lon="7.7995443"><ele>899.0</ele><time>2026-05-02T14:16:38.043Z</time></trkpt><trkpt lat="44.0813223" lon="7.7996499"><ele>900.0</ele><time>2026-05-02T14:16:39.043Z</time></trkpt><trkpt lat="44.0812169" lon="7.7997498"><ele>901.0</ele><time>2026-05-02T14:16:40.043Z</time></trkpt><trkpt lat="44.081122" lon="7.7998333"><ele>902.0</ele><time>2026-05-02T14:16:41.043Z</time></trkpt><trkpt lat="44.0810329" lon="7.7999053"><ele>902.0</ele><time>2026-05-02T14:16:42.044Z</time></trkpt><trkpt lat="44.080962" lon="7.7998355"><ele>902.0</ele><time>2026-05-02T14:16:43.043Z</time></trkpt><trkpt lat="44.0808946" lon="7.7998114"><ele>902.0</ele><time>2026-05-02T14:16:44.043Z</time></trkpt><trkpt lat="44.0809441" lon="7.7996865"><ele>902.0</ele><time>2026-05-02T14:16:45.044Z</time></trkpt><trkpt lat="44.0810368" lon="7.7995502"><ele>902.0</ele><time>2026-05-02T14:16:47.043Z</time></trkpt><trkpt lat="44.0811017" lon="7.7994794"><ele>902.0000000000001</ele><time>2026-05-02T14:16:48.043Z</time></trkpt><trkpt lat="44.0811652" lon="7.7994181"><ele>902.0</ele><time>2026-05-02T14:16:49.044Z</time></trkpt><trkpt lat="44.081222" lon="7.7993711"><ele>902.0</ele><time>2026-05-02T14:16:50.043Z</time></trkpt><trkpt lat="44.0812616" lon="7.7992808"><ele>902.0</ele><time>2026-05-02T14:17:01.043Z</time></trkpt><trkpt lat="44.0813565" lon="7.7991786"><ele>902.0000000000001</ele><time>2026-05-02T14:17:03.043Z</time></trkpt><trkpt lat="44.0814318" lon="7.7991171"><ele>902.0</ele><time>2026-05-02T14:17:04.043Z</time></trkpt><trkpt lat="44.0815092" lon="7.7990538"><ele>904.2</ele><time>2026-05-02T14:17:05.044Z</time></trkpt><trkpt lat="44.081597" lon="7.798979"><ele>906.4000000000001</ele><time>2026-05-02T14:17:06.043Z</time></trkpt><trkpt lat="44.0816817" lon="7.7989003"><ele>908.5999999999999</ele><time>2026-05-02T14:17:07.044Z</time></trkpt><trkpt lat="44.0817679" lon="7.7988162"><ele>910.8</ele><time>2026-05-02T14:17:08.044Z</time></trkpt><trkpt lat="44.0818695" lon="7.7987113"><ele>913.0</ele><time>2026-05-02T14:17:09.043Z</time></trkpt><trkpt lat="44.0819743" lon="7.7986141"><ele>913.25</ele><time>2026-05-02T14:17:10.043Z</time></trkpt><trkpt lat="44.0820799" lon="7.7985156"><ele>913.5</ele><time>2026-05-02T14:17:11.043Z</time></trkpt><trkpt lat="44.0822022" lon="7.7984"><ele>913.75</ele><time>2026-05-02T14:17:12.043Z</time></trkpt><trkpt lat="44.0823173" lon="7.798289"><ele>914.0</ele><time>2026-05-02T14:17:13.044Z</time></trkpt><trkpt lat="44.0824374" lon="7.7981598"><ele>919.3333333333334</ele><time>2026-05-02T14:17:14.043Z</time></trkpt><trkpt lat="44.0825595" lon="7.7980444"><ele>924.6666666666667</ele><time>2026-05-02T14:17:15.043Z</time></trkpt><trkpt lat="44.0826735" lon="7.7979076"><ele>930.0</ele><time>2026-05-02T14:17:16.043Z</time></trkpt><trkpt lat="44.0827896" lon="7.7977706"><ele>933.5</ele><time>2026-05-02T14:17:17.044Z</time></trkpt><trkpt lat="44.0829096" lon="7.7976598"><ele>937.0</ele><time>2026-05-02T14:17:18.043Z</time></trkpt><trkpt lat="44.0830155" lon="7.7975964"><ele>940.5</ele><time>2026-05-02T14:17:19.043Z</time></trkpt><trkpt lat="44.0831305" lon="7.7975747"><ele>944.0</ele><time>2026-05-02T14:17:20.043Z</time></trkpt><trkpt lat="44.0832423" lon="7.7975831"><ele>943.4000000000001</ele><time>2026-05-02T14:17:21.043Z</time></trkpt><trkpt lat="44.0833374" lon="7.7975909"><ele>942.8000000000001</ele><time>2026-05-02T14:17:22.044Z</time></trkpt><trkpt lat="44.0834203" lon="7.7975789"><ele>942.1999999999999</ele><time>2026-05-02T14:17:23.044Z</time></trkpt><trkpt lat="44.0834769" lon="7.7975005"><ele>941.5999999999999</ele><time>2026-05-02T14:17:24.044Z</time></trkpt><trkpt lat="44.0835044" lon="7.7974147"><ele>941.0</ele><time>2026-05-02T14:17:25.043Z</time></trkpt><trkpt lat="44.0833869" lon="7.7972768"><ele>941.0</ele><time>2026-05-02T14:17:27.043Z</time></trkpt><trkpt lat="44.083298" lon="7.7972439"><ele>941.0</ele><time>2026-05-02T14:17:28.043Z</time></trkpt><trkpt lat="44.0831855" lon="7.7972165"><ele>941.0</ele><time>2026-05-02T14:17:29.043Z</time></trkpt><trkpt lat="44.0830642" lon="7.7971845"><ele>941.0</ele><time>2026-05-02T14:17:30.043Z</time></trkpt><trkpt lat="44.0829399" lon="7.7971819"><ele>941.75</ele><time>2026-05-02T14:17:31.043Z</time></trkpt><trkpt lat="44.0828179" lon="7.7972076"><ele>942.5</ele><time>2026-05-02T14:17:32.044Z</time></trkpt><trkpt lat="44.0826859" lon="7.7973092"><ele>943.25</ele><time>2026-05-02T14:17:33.043Z</time></trkpt><trkpt lat="44.0825659" lon="7.797376"><ele>944.0</ele><time>2026-05-02T14:17:34.043Z</time></trkpt><trkpt lat="44.0824388" lon="7.7974474"><ele>942.75</ele><time>2026-05-02T14:17:35.043Z</time></trkpt><trkpt lat="44.0822994" lon="7.7973342"><ele>941.5</ele><time>2026-05-02T14:17:36.043Z</time></trkpt><trkpt lat="44.0821755" lon="7.7972542"><ele>940.25</ele><time>2026-05-02T14:17:37.043Z</time></trkpt><trkpt lat="44.0820692" lon="7.7971224"><ele>939.0</ele><time>2026-05-02T14:17:38.043Z</time></trkpt><trkpt lat="44.0819709" lon="7.7969687"><ele>943.0</ele><time>2026-05-02T14:17:39.043Z</time></trkpt><trkpt lat="44.0818724" lon="7.7968069"><ele>947.0</ele><time>2026-05-02T14:17:40.043Z</time></trkpt><trkpt lat="44.081762" lon="7.7966346"><ele>951.0</ele><time>2026-05-02T14:17:41.043Z</time></trkpt><trkpt lat="44.0816473" lon="7.7964423"><ele>951.3333333333333</ele><time>2026-05-02T14:17:42.044Z</time></trkpt><trkpt lat="44.0815274" lon="7.796241"><ele>951.6666666666666</ele><time>2026-05-02T14:17:43.043Z</time></trkpt><trkpt lat="44.0814214" lon="7.7960527"><ele>952.0</ele><time>2026-05-02T14:17:44.044Z</time></trkpt><trkpt lat="44.0813168" lon="7.7958987"><ele>957.0</ele><time>2026-05-02T14:17:45.045Z</time></trkpt><trkpt lat="44.0812094" lon="7.7957416"><ele>962.0</ele><time>2026-05-02T14:17:46.044Z</time></trkpt><trkpt lat="44.0810772" lon="7.7957367"><ele>967.0</ele><time>2026-05-02T14:17:47.043Z</time></trkpt><trkpt lat="44.0809673" lon="7.7956711"><ele>972.0</ele><time>2026-05-02T14:17:48.044Z</time></trkpt><trkpt lat="44.0808582" lon="7.7957317"><ele>976.3333333333333</ele><time>2026-05-02T14:17:49.043Z</time></trkpt><trkpt lat="44.0806948" lon="7.7958841"><ele>980.6666666666666</ele><time>2026-05-02T14:17:50.043Z</time></trkpt><trkpt lat="44.0805525" lon="7.7959509"><ele>985.0</ele><time>2026-05-02T14:17:51.043Z</time></trkpt><trkpt lat="44.080412" lon="7.7960558"><ele>985.0</ele><time>2026-05-02T14:17:52.043Z</time></trkpt><trkpt lat="44.0803034" lon="7.7961984"><ele>985.0</ele><time>2026-05-02T14:17:53.044Z</time></trkpt><trkpt lat="44.0802085" lon="7.7963467"><ele>985.0</ele><time>2026-05-02T14:17:54.043Z</time></trkpt><trkpt lat="44.0801196" lon="7.7965893"><ele>985.0</ele><time>2026-05-02T14:17:55.043Z</time></trkpt><trkpt lat="44.0800218" lon="7.796806"><ele>985.0</ele><time>2026-05-02T14:17:56.043Z</time></trkpt><trkpt lat="44.0799177" lon="7.7970042"><ele>985.0</ele><time>2026-05-02T14:17:57.043Z</time></trkpt><trkpt lat="44.0798234" lon="7.7971662"><ele>983.75</ele><time>2026-05-02T14:17:58.044Z</time></trkpt><trkpt lat="44.0797249" lon="7.7972859"><ele>982.5</ele><time>2026-05-02T14:17:59.044Z</time></trkpt><trkpt lat="44.0796043" lon="7.7973215"><ele>981.25</ele><time>2026-05-02T14:18:00.044Z</time></trkpt><trkpt lat="44.0794827" lon="7.797328"><ele>980.0</ele><time>2026-05-02T14:18:01.043Z</time></trkpt><trkpt lat="44.0793563" lon="7.7972993"><ele>980.0</ele><time>2026-05-02T14:18:02.043Z</time></trkpt><trkpt lat="44.0792162" lon="7.7972492"><ele>980.0</ele><time>2026-05-02T14:18:03.044Z</time></trkpt><trkpt lat="44.07908" lon="7.7971728"><ele>980.0</ele><time>2026-05-02T14:18:04.044Z</time></trkpt><trkpt lat="44.0789531" lon="7.7970578"><ele>980.0</ele><time>2026-05-02T14:18:05.043Z</time></trkpt><trkpt lat="44.0788479" lon="7.7969066"><ele>984.0</ele><time>2026-05-02T14:18:06.043Z</time></trkpt><trkpt lat="44.0787571" lon="7.7967224"><ele>988.0</ele><time>2026-05-02T14:18:07.043Z</time></trkpt><trkpt lat="44.078648" lon="7.7965451"><ele>992.0</ele><time>2026-05-02T14:18:08.044Z</time></trkpt><trkpt lat="44.0785267" lon="7.7964169"><ele>992.0</ele><time>2026-05-02T14:18:09.043Z</time></trkpt><trkpt lat="44.0783943" lon="7.796347"><ele>992.0</ele><time>2026-05-02T14:18:10.044Z</time></trkpt><trkpt lat="44.0782482" lon="7.7963267"><ele>992.0</ele><time>2026-05-02T14:18:11.044Z</time></trkpt><trkpt lat="44.0780958" lon="7.7963353"><ele>992.0</ele><time>2026-05-02T14:18:12.043Z</time></trkpt><trkpt lat="44.0779637" lon="7.7963276"><ele>993.5</ele><time>2026-05-02T14:18:13.043Z</time></trkpt><trkpt lat="44.0778504" lon="7.796298"><ele>995.0</ele><time>2026-05-02T14:18:14.043Z</time></trkpt><trkpt lat="44.0777416" lon="7.7962763"><ele>996.5</ele><time>2026-05-02T14:18:15.043Z</time></trkpt><trkpt lat="44.0776775" lon="7.7962095"><ele>998.0</ele><time>2026-05-02T14:18:16.043Z</time></trkpt><trkpt lat="44.0777577" lon="7.7960214"><ele>999.8</ele><time>2026-05-02T14:18:17.044Z</time></trkpt><trkpt lat="44.0777998" lon="7.7959264"><ele>1001.5999999999999</ele><time>2026-05-02T14:18:18.043Z</time></trkpt><trkpt lat="44.0778981" lon="7.7958797"><ele>1003.4000000000001</ele><time>2026-05-02T14:18:19.044Z</time></trkpt><trkpt lat="44.0780101" lon="7.7958751"><ele>1005.2</ele><time>2026-05-02T14:18:20.043Z</time></trkpt><trkpt lat="44.0781441" lon="7.7958752"><ele>1007.0</ele><time>2026-05-02T14:18:21.043Z</time></trkpt><trkpt lat="44.0782913" lon="7.7958771"><ele>1007.0</ele><time>2026-05-02T14:18:22.044Z</time></trkpt><trkpt lat="44.0784388" lon="7.7958816"><ele>1007.0</ele><time>2026-05-02T14:18:23.043Z</time></trkpt><trkpt lat="44.0785864" lon="7.7958904"><ele>1007.0</ele><time>2026-05-02T14:18:24.043Z</time></trkpt><trkpt lat="44.0787409" lon="7.795919"><ele>1007.0</ele><time>2026-05-02T14:18:25.044Z</time></trkpt><trkpt lat="44.0788935" lon="7.7959818"><ele>1007.0</ele><time>2026-05-02T14:18:26.043Z</time></trkpt><trkpt lat="44.0790292" lon="7.7960756"><ele>1007.0</ele><time>2026-05-02T14:18:27.043Z</time></trkpt><trkpt lat="44.0791436" lon="7.7961837"><ele>1007.0</ele><time>2026-05-02T14:18:28.043Z</time></trkpt><trkpt lat="44.0792617" lon="7.7962744"><ele>1004.75</ele><time>2026-05-02T14:18:29.043Z</time></trkpt><trkpt lat="44.0793712" lon="7.7963517"><ele>1002.5</ele><time>2026-05-02T14:18:30.044Z</time></trkpt><trkpt lat="44.0794513" lon="7.7963737"><ele>1000.25</ele><time>2026-05-02T14:18:31.043Z</time></trkpt><trkpt lat="44.0795453" lon="7.7962209"><ele>998.0</ele><time>2026-05-02T14:18:33.044Z</time></trkpt><trkpt lat="44.0793373" lon="7.7960408"><ele>1000.25</ele><time>2026-05-02T14:18:34.043Z</time></trkpt><trkpt lat="44.0792626" lon="7.7959623"><ele>1002.5</ele><time>2026-05-02T14:18:35.043Z</time></trkpt><trkpt lat="44.079158" lon="7.7958641"><ele>1004.75</ele><time>2026-05-02T14:18:36.044Z</time></trkpt><trkpt lat="44.0790464" lon="7.7957613"><ele>1007.0</ele><time>2026-05-02T14:18:37.043Z</time></trkpt><trkpt lat="44.0789211" lon="7.7956519"><ele>1007.0</ele><time>2026-05-02T14:18:38.043Z</time></trkpt><trkpt lat="44.0787999" lon="7.795549"><ele>1007.0</ele><time>2026-05-02T14:18:39.044Z</time></trkpt><trkpt lat="44.0786853" lon="7.7954032"><ele>1007.0</ele><time>2026-05-02T14:18:40.043Z</time></trkpt><trkpt lat="44.0785794" lon="7.795245"><ele>1013.0</ele><time>2026-05-02T14:18:41.043Z</time></trkpt><trkpt lat="44.0784756" lon="7.7950533"><ele>1019.0</ele><time>2026-05-02T14:18:42.043Z</time></trkpt><trkpt lat="44.0783689" lon="7.7948581"><ele>1025.0</ele><time>2026-05-02T14:18:43.043Z</time></trkpt><trkpt lat="44.0782616" lon="7.7946494"><ele>1025.0</ele><time>2026-05-02T14:18:44.044Z</time></trkpt><trkpt lat="44.0781483" lon="7.7944577"><ele>1025.0</ele><time>2026-05-02T14:18:45.043Z</time></trkpt><trkpt lat="44.0780252" lon="7.794297"><ele>1025.0</ele><time>2026-05-02T14:18:46.044Z</time></trkpt><trkpt lat="44.0778899" lon="7.7941818"><ele>1028.6666666666667</ele><time>2026-05-02T14:18:47.043Z</time></trkpt><trkpt lat="44.077758" lon="7.7940581"><ele>1032.3333333333333</ele><time>2026-05-02T14:18:48.043Z</time></trkpt><trkpt lat="44.0775935" lon="7.7941204"><ele>1036.0</ele><time>2026-05-02T14:18:49.043Z</time></trkpt><trkpt lat="44.0774469" lon="7.794128"><ele>1036.6666666666665</ele><time>2026-05-02T14:18:50.044Z</time></trkpt><trkpt lat="44.0772876" lon="7.7942522"><ele>1037.3333333333333</ele><time>2026-05-02T14:18:51.043Z</time></trkpt><trkpt lat="44.0771313" lon="7.7943136"><ele>1038.0</ele><time>2026-05-02T14:18:52.043Z</time></trkpt><trkpt lat="44.0769685" lon="7.7943704"><ele>1038.0</ele><time>2026-05-02T14:18:53.043Z</time></trkpt><trkpt lat="44.0768001" lon="7.794405"><ele>1038.0</ele><time>2026-05-02T14:18:54.043Z</time></trkpt><trkpt lat="44.0766302" lon="7.7944545"><ele>1038.0</ele><time>2026-05-02T14:18:55.043Z</time></trkpt><trkpt lat="44.0765038" lon="7.7945438"><ele>1042.25</ele><time>2026-05-02T14:18:56.044Z</time></trkpt><trkpt lat="44.0763577" lon="7.7946273"><ele>1046.5</ele><time>2026-05-02T14:18:57.043Z</time></trkpt><trkpt lat="44.0762533" lon="7.7947432"><ele>1050.75</ele><time>2026-05-02T14:18:58.044Z</time></trkpt><trkpt lat="44.0761896" lon="7.7948709"><ele>1055.0</ele><time>2026-05-02T14:18:59.043Z</time></trkpt><trkpt lat="44.0761549" lon="7.7949551"><ele>1055.0</ele><time>2026-05-02T14:19:00.043Z</time></trkpt><trkpt lat="44.0760819" lon="7.7950335"><ele>1055.0</ele><time>2026-05-02T14:19:01.043Z</time></trkpt><trkpt lat="44.0760292" lon="7.7949233"><ele>1055.0</ele><time>2026-05-02T14:19:02.043Z</time></trkpt><trkpt lat="44.0760051" lon="7.7948418"><ele>1055.0</ele><time>2026-05-02T14:19:03.043Z</time></trkpt><trkpt lat="44.0760133" lon="7.7947246"><ele>1055.0</ele><time>2026-05-02T14:19:04.044Z</time></trkpt><trkpt lat="44.0760313" lon="7.7945923"><ele>1055.0</ele><time>2026-05-02T14:19:05.043Z</time></trkpt><trkpt lat="44.0760542" lon="7.7944369"><ele>1057.25</ele><time>2026-05-02T14:19:06.043Z</time></trkpt><trkpt lat="44.0760987" lon="7.7942582"><ele>1059.5</ele><time>2026-05-02T14:19:07.043Z</time></trkpt><trkpt lat="44.0761803" lon="7.7941011"><ele>1061.75</ele><time>2026-05-02T14:19:08.043Z</time></trkpt><trkpt lat="44.0762871" lon="7.7939445"><ele>1064.0</ele><time>2026-05-02T14:19:09.044Z</time></trkpt><trkpt lat="44.0764054" lon="7.793787"><ele>1064.0</ele><time>2026-05-02T14:19:10.043Z</time></trkpt><trkpt lat="44.0765179" lon="7.7936356"><ele>1064.0</ele><time>2026-05-02T14:19:11.043Z</time></trkpt><trkpt lat="44.0766401" lon="7.7934655"><ele>1064.0</ele><time>2026-05-02T14:19:12.043Z</time></trkpt><trkpt lat="44.0767655" lon="7.7933267"><ele>1063.3333333333335</ele><time>2026-05-02T14:19:13.043Z</time></trkpt><trkpt lat="44.076911" lon="7.7931823"><ele>1062.6666666666667</ele><time>2026-05-02T14:19:14.043Z</time></trkpt><trkpt lat="44.0770831" lon="7.7931266"><ele>1062.0</ele><time>2026-05-02T14:19:15.043Z</time></trkpt><trkpt lat="44.0772588" lon="7.7931246"><ele>1062.0</ele><time>2026-05-02T14:19:16.044Z</time></trkpt><trkpt lat="44.0774316" lon="7.7931094"><ele>1062.0</ele><time>2026-05-02T14:19:17.043Z</time></trkpt><trkpt lat="44.0776054" lon="7.7930456"><ele>1062.0</ele><time>2026-05-02T14:19:18.043Z</time></trkpt><trkpt lat="44.0777568" lon="7.7929418"><ele>1061.3333333333333</ele><time>2026-05-02T14:19:19.043Z</time></trkpt><trkpt lat="44.0779098" lon="7.7928274"><ele>1060.6666666666665</ele><time>2026-05-02T14:19:20.043Z</time></trkpt><trkpt lat="44.0780551" lon="7.7927067"><ele>1060.0</ele><time>2026-05-02T14:19:21.043Z</time></trkpt><trkpt lat="44.0782263" lon="7.7926376"><ele>1060.0</ele><time>2026-05-02T14:19:22.044Z</time></trkpt><trkpt lat="44.0783924" lon="7.7926351"><ele>1060.0</ele><time>2026-05-02T14:19:23.043Z</time></trkpt><trkpt lat="44.0785659" lon="7.792643"><ele>1060.0</ele><time>2026-05-02T14:19:24.043Z</time></trkpt><trkpt lat="44.0787387" lon="7.7926748"><ele>1060.0</ele><time>2026-05-02T14:19:25.043Z</time></trkpt><trkpt lat="44.0789098" lon="7.7927481"><ele>1060.0</ele><time>2026-05-02T14:19:26.043Z</time></trkpt><trkpt lat="44.0790813" lon="7.7928299"><ele>1060.0</ele><time>2026-05-02T14:19:27.044Z</time></trkpt><trkpt lat="44.0792514" lon="7.7929283"><ele>1064.3333333333333</ele><time>2026-05-02T14:19:28.043Z</time></trkpt><trkpt lat="44.0794082" lon="7.7930098"><ele>1068.6666666666667</ele><time>2026-05-02T14:19:29.044Z</time></trkpt><trkpt lat="44.0795604" lon="7.7930792"><ele>1073.0</ele><time>2026-05-02T14:19:30.043Z</time></trkpt><trkpt lat="44.0797072" lon="7.7931411"><ele>1091.0</ele><time>2026-05-02T14:19:31.043Z</time></trkpt><trkpt lat="44.0799928" lon="7.7926242"><ele>1091.0</ele><time>2026-05-02T14:19:34.043Z</time></trkpt><trkpt lat="44.0800782" lon="7.7924278"><ele>1091.0</ele><time>2026-05-02T14:19:35.043Z</time></trkpt><trkpt lat="44.0801631" lon="7.7922394"><ele>1091.0</ele><time>2026-05-02T14:19:36.043Z</time></trkpt><trkpt lat="44.0802345" lon="7.7920766"><ele>1091.0</ele><time>2026-05-02T14:19:37.044Z</time></trkpt><trkpt lat="44.0802881" lon="7.7919422"><ele>1091.0</ele><time>2026-05-02T14:19:38.043Z</time></trkpt><trkpt lat="44.0802838" lon="7.7918369"><ele>1091.0</ele><time>2026-05-02T14:19:39.043Z</time></trkpt><trkpt lat="44.0802802" lon="7.7917281"><ele>1091.0</ele><time>2026-05-02T14:19:40.043Z</time></trkpt><trkpt lat="44.0801351" lon="7.7917766"><ele>1091.0</ele><time>2026-05-02T14:19:41.043Z</time></trkpt><trkpt lat="44.0800624" lon="7.7918077"><ele>1091.0</ele><time>2026-05-02T14:19:42.044Z</time></trkpt><trkpt lat="44.0799865" lon="7.7918577"><ele>1091.0</ele><time>2026-05-02T14:19:43.043Z</time></trkpt><trkpt lat="44.0798851" lon="7.7919975"><ele>1091.0</ele><time>2026-05-02T14:19:44.043Z</time></trkpt><trkpt lat="44.0797617" lon="7.7920541"><ele>1091.0</ele><time>2026-05-02T14:19:45.043Z</time></trkpt><trkpt lat="44.079649" lon="7.7921203"><ele>1091.3333333333335</ele><time>2026-05-02T14:19:46.044Z</time></trkpt><trkpt lat="44.0795137" lon="7.7921228"><ele>1091.6666666666667</ele><time>2026-05-02T14:19:47.044Z</time></trkpt><trkpt lat="44.0793348" lon="7.7920679"><ele>1092.0</ele><time>2026-05-02T14:19:48.043Z</time></trkpt><trkpt lat="44.0791647" lon="7.7920017"><ele>1098.6666666666667</ele><time>2026-05-02T14:19:49.043Z</time></trkpt><trkpt lat="44.0790017" lon="7.7918374"><ele>1105.3333333333335</ele><time>2026-05-02T14:19:50.043Z</time></trkpt><trkpt lat="44.0788297" lon="7.7917496"><ele>1112.0</ele><time>2026-05-02T14:19:51.044Z</time></trkpt><trkpt lat="44.0786564" lon="7.7916408"><ele>1112.0</ele><time>2026-05-02T14:19:52.043Z</time></trkpt><trkpt lat="44.0784669" lon="7.7915461"><ele>1112.0</ele><time>2026-05-02T14:19:53.043Z</time></trkpt><trkpt lat="44.0782864" lon="7.7914743"><ele>1112.0</ele><time>2026-05-02T14:19:54.044Z</time></trkpt><trkpt lat="44.0781062" lon="7.7914092"><ele>1112.6666666666667</ele><time>2026-05-02T14:19:55.043Z</time></trkpt><trkpt lat="44.0779141" lon="7.7914943"><ele>1113.3333333333333</ele><time>2026-05-02T14:19:56.043Z</time></trkpt><trkpt lat="44.0777508" lon="7.7914903"><ele>1114.0</ele><time>2026-05-02T14:19:57.043Z</time></trkpt><trkpt lat="44.0776018" lon="7.7914856"><ele>1114.0</ele><time>2026-05-02T14:19:58.043Z</time></trkpt><trkpt lat="44.0774789" lon="7.7914809"><ele>1114.0</ele><time>2026-05-02T14:19:59.043Z</time></trkpt><trkpt lat="44.0773834" lon="7.7914454"><ele>1114.0</ele><time>2026-05-02T14:20:00.043Z</time></trkpt><trkpt lat="44.077339" lon="7.7913691"><ele>1114.0</ele><time>2026-05-02T14:20:01.044Z</time></trkpt><trkpt lat="44.0773849" lon="7.7912194"><ele>1114.0</ele><time>2026-05-02T14:20:03.044Z</time></trkpt><trkpt lat="44.0774623" lon="7.7911921"><ele>1114.0</ele><time>2026-05-02T14:20:04.043Z</time></trkpt><trkpt lat="44.0775556" lon="7.7912032"><ele>1114.0</ele><time>2026-05-02T14:20:05.043Z</time></trkpt><trkpt lat="44.0776619" lon="7.791217"><ele>1114.0</ele><time>2026-05-02T14:20:06.043Z</time></trkpt><trkpt lat="44.07779" lon="7.791229"><ele>1114.0</ele><time>2026-05-02T14:20:07.043Z</time></trkpt><trkpt lat="44.0779283" lon="7.7912281"><ele>1114.0</ele><time>2026-05-02T14:20:08.043Z</time></trkpt><trkpt lat="44.0780659" lon="7.7912231"><ele>1114.0</ele><time>2026-05-02T14:20:09.043Z</time></trkpt><trkpt lat="44.0782457" lon="7.7911086"><ele>1114.0</ele><time>2026-05-02T14:20:10.044Z</time></trkpt><trkpt lat="44.0784094" lon="7.7910427"><ele>1122.0</ele><time>2026-05-02T14:20:11.043Z</time></trkpt><trkpt lat="44.0785842" lon="7.7909584"><ele>1130.0</ele><time>2026-05-02T14:20:12.043Z</time></trkpt><trkpt lat="44.0787588" lon="7.790879"><ele>1138.0</ele><time>2026-05-02T14:20:13.043Z</time></trkpt><trkpt lat="44.0789392" lon="7.7907738"><ele>1135.6666666666665</ele><time>2026-05-02T14:20:14.044Z</time></trkpt><trkpt lat="44.0791075" lon="7.7906572"><ele>1133.3333333333333</ele><time>2026-05-02T14:20:15.043Z</time></trkpt><trkpt lat="44.079236" lon="7.7904689"><ele>1131.0</ele><time>2026-05-02T14:20:16.043Z</time></trkpt><trkpt lat="44.0793249" lon="7.7902712"><ele>1135.0</ele><time>2026-05-02T14:20:17.043Z</time></trkpt><trkpt lat="44.0793936" lon="7.7899961"><ele>1139.0</ele><time>2026-05-02T14:20:18.043Z</time></trkpt><trkpt lat="44.0795186" lon="7.7898807"><ele>1143.0</ele><time>2026-05-02T14:20:19.043Z</time></trkpt><trkpt lat="44.079625" lon="7.7897854"><ele>1143.0</ele><time>2026-05-02T14:20:20.043Z</time></trkpt><trkpt lat="44.0796935" lon="7.7896874"><ele>1143.0</ele><time>2026-05-02T14:20:21.043Z</time></trkpt><trkpt lat="44.0797123" lon="7.7895857"><ele>1143.0</ele><time>2026-05-02T14:20:22.043Z</time></trkpt><trkpt lat="44.079731" lon="7.7894956"><ele>1143.0</ele><time>2026-05-02T14:20:23.044Z</time></trkpt><trkpt lat="44.0797237" lon="7.7893972"><ele>1143.0</ele><time>2026-05-02T14:20:24.043Z</time></trkpt><trkpt lat="44.0796574" lon="7.7893029"><ele>1143.0</ele><time>2026-05-02T14:20:25.044Z</time></trkpt><trkpt lat="44.0795467" lon="7.7892571"><ele>1143.0</ele><time>2026-05-02T14:20:26.044Z</time></trkpt><trkpt lat="44.079451" lon="7.7893854"><ele>1143.0</ele><time>2026-05-02T14:20:27.043Z</time></trkpt><trkpt lat="44.0793386" lon="7.7894998"><ele>1143.0</ele><time>2026-05-02T14:20:28.043Z</time></trkpt><trkpt lat="44.0791907" lon="7.7897803"><ele>1145.0</ele><time>2026-05-02T14:20:29.043Z</time></trkpt><trkpt lat="44.0790698" lon="7.7899104"><ele>1147.0</ele><time>2026-05-02T14:20:30.044Z</time></trkpt><trkpt lat="44.078928" lon="7.7899608"><ele>1149.0</ele><time>2026-05-02T14:20:31.044Z</time></trkpt><trkpt lat="44.0787796" lon="7.7899941"><ele>1151.0</ele><time>2026-05-02T14:20:32.043Z</time></trkpt><trkpt lat="44.078623" lon="7.789981"><ele>1151.0</ele><time>2026-05-02T14:20:33.043Z</time></trkpt><trkpt lat="44.0784582" lon="7.7899654"><ele>1151.0</ele><time>2026-05-02T14:20:34.044Z</time></trkpt><trkpt lat="44.0782831" lon="7.7899503"><ele>1151.0</ele><time>2026-05-02T14:20:35.043Z</time></trkpt><trkpt lat="44.0781013" lon="7.789937"><ele>1152.0</ele><time>2026-05-02T14:20:36.043Z</time></trkpt><trkpt lat="44.0779283" lon="7.7899185"><ele>1153.0</ele><time>2026-05-02T14:20:37.043Z</time></trkpt><trkpt lat="44.0777467" lon="7.7899079"><ele>1154.0</ele><time>2026-05-02T14:20:38.044Z</time></trkpt><trkpt lat="44.0775692" lon="7.7899042"><ele>1154.0</ele><time>2026-05-02T14:20:39.043Z</time></trkpt><trkpt lat="44.0773961" lon="7.7898775"><ele>1154.0</ele><time>2026-05-02T14:20:40.044Z</time></trkpt><trkpt lat="44.0772271" lon="7.789838"><ele>1154.0</ele><time>2026-05-02T14:20:41.043Z</time></trkpt><trkpt lat="44.0770658" lon="7.7897827"><ele>1154.0</ele><time>2026-05-02T14:20:42.043Z</time></trkpt><trkpt lat="44.0769094" lon="7.7897243"><ele>1154.0</ele><time>2026-05-02T14:20:43.043Z</time></trkpt><trkpt lat="44.0767673" lon="7.7896638"><ele>1154.0</ele><time>2026-05-02T14:20:44.044Z</time></trkpt><trkpt lat="44.0766535" lon="7.7896136"><ele>1154.0</ele><time>2026-05-02T14:20:45.043Z</time></trkpt><trkpt lat="44.0765812" lon="7.7895673"><ele>1155.1666666666667</ele><time>2026-05-02T14:20:46.043Z</time></trkpt><trkpt lat="44.0765422" lon="7.7894954"><ele>1156.3333333333335</ele><time>2026-05-02T14:20:47.044Z</time></trkpt><trkpt lat="44.076546" lon="7.7893968"><ele>1157.5</ele><time>2026-05-02T14:20:48.043Z</time></trkpt><trkpt lat="44.0765937" lon="7.7893098"><ele>1158.6666666666667</ele><time>2026-05-02T14:20:49.044Z</time></trkpt><trkpt lat="44.07667" lon="7.789269"><ele>1159.8333333333333</ele><time>2026-05-02T14:20:50.043Z</time></trkpt><trkpt lat="44.076763" lon="7.7892779"><ele>1161.0</ele><time>2026-05-02T14:20:51.043Z</time></trkpt><trkpt lat="44.0768643" lon="7.7893068"><ele>1163.2</ele><time>2026-05-02T14:20:52.044Z</time></trkpt><trkpt lat="44.0769638" lon="7.7893291"><ele>1165.3999999999999</ele><time>2026-05-02T14:20:53.044Z</time></trkpt><trkpt lat="44.0770665" lon="7.7893112"><ele>1167.6</ele><time>2026-05-02T14:20:54.043Z</time></trkpt><trkpt lat="44.0771743" lon="7.789247"><ele>1169.8</ele><time>2026-05-02T14:20:55.044Z</time></trkpt><trkpt lat="44.0772711" lon="7.7891661"><ele>1172.0</ele><time>2026-05-02T14:20:56.044Z</time></trkpt><trkpt lat="44.0773644" lon="7.7890782"><ele>1170.5</ele><time>2026-05-02T14:20:57.043Z</time></trkpt><trkpt lat="44.0774553" lon="7.7889878"><ele>1169.0</ele><time>2026-05-02T14:20:58.043Z</time></trkpt><trkpt lat="44.0775424" lon="7.7888976"><ele>1167.5</ele><time>2026-05-02T14:20:59.043Z</time></trkpt><trkpt lat="44.0776197" lon="7.7887754"><ele>1166.0</ele><time>2026-05-02T14:21:00.043Z</time></trkpt><trkpt lat="44.0776552" lon="7.7886131"><ele>1168.0</ele><time>2026-05-02T14:21:01.043Z</time></trkpt><trkpt lat="44.0776666" lon="7.7884332"><ele>1170.0</ele><time>2026-05-02T14:21:02.043Z</time></trkpt><trkpt lat="44.0776699" lon="7.7882486"><ele>1172.0</ele><time>2026-05-02T14:21:03.043Z</time></trkpt><trkpt lat="44.0776559" lon="7.788066"><ele>1174.0</ele><time>2026-05-02T14:21:04.043Z</time></trkpt><trkpt lat="44.0776226" lon="7.7878959"><ele>1174.0</ele><time>2026-05-02T14:21:05.044Z</time></trkpt><trkpt lat="44.0775883" lon="7.7877315"><ele>1174.0</ele><time>2026-05-02T14:21:06.043Z</time></trkpt><trkpt lat="44.0775773" lon="7.7875795"><ele>1174.0</ele><time>2026-05-02T14:21:07.043Z</time></trkpt><trkpt lat="44.0776082" lon="7.7874313"><ele>1174.0</ele><time>2026-05-02T14:21:08.043Z</time></trkpt><trkpt lat="44.0776751" lon="7.7872813"><ele>1176.6666666666665</ele><time>2026-05-02T14:21:09.044Z</time></trkpt><trkpt lat="44.0777745" lon="7.787147"><ele>1179.3333333333333</ele><time>2026-05-02T14:21:10.043Z</time></trkpt><trkpt lat="44.0778988" lon="7.7870247"><ele>1182.0</ele><time>2026-05-02T14:21:11.044Z</time></trkpt><trkpt lat="44.0780231" lon="7.7868866"><ele>1181.3333333333333</ele><time>2026-05-02T14:21:12.043Z</time></trkpt><trkpt lat="44.0781536" lon="7.7867377"><ele>1180.6666666666665</ele><time>2026-05-02T14:21:13.043Z</time></trkpt><trkpt lat="44.0782931" lon="7.786585"><ele>1180.0</ele><time>2026-05-02T14:21:14.043Z</time></trkpt><trkpt lat="44.0784352" lon="7.7864185"><ele>1180.0</ele><time>2026-05-02T14:21:15.043Z</time></trkpt><trkpt lat="44.0785818" lon="7.7862428"><ele>1180.0</ele><time>2026-05-02T14:21:16.043Z</time></trkpt><trkpt lat="44.0787283" lon="7.786072"><ele>1180.0</ele><time>2026-05-02T14:21:17.044Z</time></trkpt><trkpt lat="44.0788705" lon="7.7858942"><ele>1181.0</ele><time>2026-05-02T14:21:18.043Z</time></trkpt><trkpt lat="44.0789973" lon="7.7856927"><ele>1182.0</ele><time>2026-05-02T14:21:19.043Z</time></trkpt><trkpt lat="44.0790899" lon="7.785472"><ele>1183.0</ele><time>2026-05-02T14:21:20.043Z</time></trkpt><trkpt lat="44.079167" lon="7.7852513"><ele>1190.0</ele><time>2026-05-02T14:21:21.043Z</time></trkpt><trkpt lat="44.0792481" lon="7.7850827"><ele>1197.0</ele><time>2026-05-02T14:21:22.043Z</time></trkpt><trkpt lat="44.0793334" lon="7.7849344"><ele>1204.0</ele><time>2026-05-02T14:21:23.043Z</time></trkpt><trkpt lat="44.0794385" lon="7.7848113"><ele>1211.0</ele><time>2026-05-02T14:21:24.044Z</time></trkpt><trkpt lat="44.0796035" lon="7.7848531"><ele>1211.0</ele><time>2026-05-02T14:21:25.043Z</time></trkpt><trkpt lat="44.0797533" lon="7.7849275"><ele>1211.0</ele><time>2026-05-02T14:21:26.044Z</time></trkpt><trkpt lat="44.0799076" lon="7.7850308"><ele>1211.0</ele><time>2026-05-02T14:21:27.043Z</time></trkpt><trkpt lat="44.0800635" lon="7.785111"><ele>1210.0</ele><time>2026-05-02T14:21:28.043Z</time></trkpt><trkpt lat="44.0802068" lon="7.7851509"><ele>1209.0</ele><time>2026-05-02T14:21:29.043Z</time></trkpt><trkpt lat="44.0803414" lon="7.7851693"><ele>1208.0</ele><time>2026-05-02T14:21:30.043Z</time></trkpt><trkpt lat="44.0804647" lon="7.7851883"><ele>1207.0</ele><time>2026-05-02T14:21:31.044Z</time></trkpt><trkpt lat="44.0805761" lon="7.7851625"><ele>1207.0</ele><time>2026-05-02T14:21:32.043Z</time></trkpt><trkpt lat="44.0806334" lon="7.7849278"><ele>1207.0</ele><time>2026-05-02T14:21:33.043Z</time></trkpt><trkpt lat="44.0807163" lon="7.7847686"><ele>1207.0</ele><time>2026-05-02T14:21:34.043Z</time></trkpt><trkpt lat="44.0808118" lon="7.7846726"><ele>1207.0</ele><time>2026-05-02T14:21:35.043Z</time></trkpt><trkpt lat="44.0809199" lon="7.7846598"><ele>1205.25</ele><time>2026-05-02T14:21:36.043Z</time></trkpt><trkpt lat="44.0810159" lon="7.7846285"><ele>1203.5</ele><time>2026-05-02T14:21:37.043Z</time></trkpt><trkpt lat="44.0810984" lon="7.7845487"><ele>1201.75</ele><time>2026-05-02T14:21:38.044Z</time></trkpt><trkpt lat="44.0811659" lon="7.7844052"><ele>1200.0</ele><time>2026-05-02T14:21:39.043Z</time></trkpt><trkpt lat="44.0812468" lon="7.78426"><ele>1205.75</ele><time>2026-05-02T14:21:40.043Z</time></trkpt><trkpt lat="44.0813516" lon="7.7841427"><ele>1211.5</ele><time>2026-05-02T14:21:41.044Z</time></trkpt><trkpt lat="44.0814662" lon="7.7840357"><ele>1217.25</ele><time>2026-05-02T14:21:42.044Z</time></trkpt><trkpt lat="44.0815847" lon="7.783924"><ele>1223.0</ele><time>2026-05-02T14:21:43.043Z</time></trkpt><trkpt lat="44.0817094" lon="7.7838227"><ele>1223.0</ele><time>2026-05-02T14:21:44.044Z</time></trkpt><trkpt lat="44.0818337" lon="7.7837653"><ele>1223.0</ele><time>2026-05-02T14:21:45.043Z</time></trkpt><trkpt lat="44.0819376" lon="7.7837829"><ele>1223.0</ele><time>2026-05-02T14:21:46.043Z</time></trkpt><trkpt lat="44.0820041" lon="7.7838664"><ele>1223.0</ele><time>2026-05-02T14:21:47.043Z</time></trkpt><trkpt lat="44.0820455" lon="7.7839757"><ele>1223.0</ele><time>2026-05-02T14:21:48.044Z</time></trkpt><trkpt lat="44.0820914" lon="7.7840802"><ele>1223.0</ele><time>2026-05-02T14:21:49.043Z</time></trkpt><trkpt lat="44.0821445" lon="7.7841415"><ele>1223.0</ele><time>2026-05-02T14:21:50.043Z</time></trkpt><trkpt lat="44.0822003" lon="7.7841948"><ele>1223.0</ele><time>2026-05-02T14:21:51.043Z</time></trkpt><trkpt lat="44.0822664" lon="7.784189"><ele>1223.0</ele><time>2026-05-02T14:21:52.044Z</time></trkpt><trkpt lat="44.0823009" lon="7.7840222"><ele>1223.0</ele><time>2026-05-02T14:21:53.043Z</time></trkpt><trkpt lat="44.0823507" lon="7.7838613"><ele>1223.0</ele><time>2026-05-02T14:21:54.043Z</time></trkpt><trkpt lat="44.0824273" lon="7.783722"><ele>1223.0</ele><time>2026-05-02T14:21:55.043Z</time></trkpt><trkpt lat="44.0825412" lon="7.7836245"><ele>1223.0</ele><time>2026-05-02T14:21:56.044Z</time></trkpt><trkpt lat="44.0826722" lon="7.7835573"><ele>1223.0</ele><time>2026-05-02T14:21:57.043Z</time></trkpt><trkpt lat="44.0827957" lon="7.7834833"><ele>1230.0</ele><time>2026-05-02T14:21:58.043Z</time></trkpt><trkpt lat="44.0828987" lon="7.7833541"><ele>1237.0</ele><time>2026-05-02T14:21:59.044Z</time></trkpt><trkpt lat="44.0829806" lon="7.7831758"><ele>1244.0</ele><time>2026-05-02T14:22:00.043Z</time></trkpt><trkpt lat="44.0830405" lon="7.7829749"><ele>1251.0</ele><time>2026-05-02T14:22:01.043Z</time></trkpt><trkpt lat="44.0830901" lon="7.7827678"><ele>1252.0</ele><time>2026-05-02T14:22:02.044Z</time></trkpt><trkpt lat="44.0831416" lon="7.7825704"><ele>1253.0</ele><time>2026-05-02T14:22:03.043Z</time></trkpt><trkpt lat="44.0832084" lon="7.7824135"><ele>1254.0</ele><time>2026-05-02T14:22:04.044Z</time></trkpt><trkpt lat="44.083303" lon="7.782324"><ele>1255.0</ele><time>2026-05-02T14:22:05.043Z</time></trkpt><trkpt lat="44.0834238" lon="7.7822793"><ele>1255.0</ele><time>2026-05-02T14:22:06.044Z</time></trkpt><trkpt lat="44.0835504" lon="7.7822466"><ele>1255.0</ele><time>2026-05-02T14:22:07.043Z</time></trkpt><trkpt lat="44.0836721" lon="7.7822292"><ele>1255.0</ele><time>2026-05-02T14:22:08.043Z</time></trkpt><trkpt lat="44.0837718" lon="7.7822739"><ele>1255.0</ele><time>2026-05-02T14:22:09.043Z</time></trkpt><trkpt lat="44.0838312" lon="7.7823839"><ele>1255.0</ele><time>2026-05-02T14:22:10.043Z</time></trkpt><trkpt lat="44.083858" lon="7.7825262"><ele>1255.0</ele><time>2026-05-02T14:22:11.044Z</time></trkpt><trkpt lat="44.0838892" lon="7.7826744"><ele>1255.0</ele><time>2026-05-02T14:22:12.043Z</time></trkpt><trkpt lat="44.0839643" lon="7.7828167"><ele>1255.0</ele><time>2026-05-02T14:22:13.044Z</time></trkpt><trkpt lat="44.0840631" lon="7.7829635"><ele>1254.75</ele><time>2026-05-02T14:22:14.043Z</time></trkpt><trkpt lat="44.0841606" lon="7.783115"><ele>1254.5</ele><time>2026-05-02T14:22:15.043Z</time></trkpt><trkpt lat="44.0842509" lon="7.7832672"><ele>1254.25</ele><time>2026-05-02T14:22:16.044Z</time></trkpt><trkpt lat="44.0843363" lon="7.7834411"><ele>1254.0</ele><time>2026-05-02T14:22:17.043Z</time></trkpt><trkpt lat="44.0843964" lon="7.7836405"><ele>1249.75</ele><time>2026-05-02T14:22:18.043Z</time></trkpt><trkpt lat="44.0844326" lon="7.7838419"><ele>1245.5</ele><time>2026-05-02T14:22:19.044Z</time></trkpt><trkpt lat="44.0844785" lon="7.7840209"><ele>1241.25</ele><time>2026-05-02T14:22:20.043Z</time></trkpt><trkpt lat="44.0845418" lon="7.7841684"><ele>1237.0</ele><time>2026-05-02T14:22:21.043Z</time></trkpt><trkpt lat="44.0846198" lon="7.7842621"><ele>1237.0</ele><time>2026-05-02T14:22:22.043Z</time></trkpt><trkpt lat="44.0847041" lon="7.7843354"><ele>1237.0</ele><time>2026-05-02T14:22:23.043Z</time></trkpt><trkpt lat="44.0847756" lon="7.7843611"><ele>1237.0</ele><time>2026-05-02T14:22:24.043Z</time></trkpt><trkpt lat="44.0848592" lon="7.7844072"><ele>1237.0</ele><time>2026-05-02T14:22:26.043Z</time></trkpt><trkpt lat="44.0849032" lon="7.7844739"><ele>1237.0</ele><time>2026-05-02T14:22:30.043Z</time></trkpt><trkpt lat="44.0848847" lon="7.7843897"><ele>1237.0</ele><time>2026-05-02T14:23:30.043Z</time></trkpt><trkpt lat="44.0849502" lon="7.7843168"><ele>1237.0</ele><time>2026-05-02T14:39:17.043Z</time></trkpt><trkpt lat="44.0849028" lon="7.7842498"><ele>1237.0</ele><time>2026-05-02T14:39:20.042Z</time></trkpt><trkpt lat="44.0848296" lon="7.7842284"><ele>1237.0</ele><time>2026-05-02T14:39:23.042Z</time></trkpt><trkpt lat="44.084767" lon="7.7841906"><ele>1237.0</ele><time>2026-05-02T14:39:26.042Z</time></trkpt><trkpt lat="44.0846948" lon="7.7841739"><ele>1237.0</ele><time>2026-05-02T14:39:46.042Z</time></trkpt><trkpt lat="44.0846377" lon="7.7841199"><ele>1237.0</ele><time>2026-05-02T14:39:47.043Z</time></trkpt><trkpt lat="44.0845942" lon="7.7840458"><ele>1237.0</ele><time>2026-05-02T14:39:48.042Z</time></trkpt><trkpt lat="44.084558" lon="7.7839477"><ele>1237.0</ele><time>2026-05-02T14:39:49.043Z</time></trkpt><trkpt lat="44.0845298" lon="7.7838426"><ele>1237.0</ele><time>2026-05-02T14:39:50.042Z</time></trkpt><trkpt lat="44.0845115" lon="7.7837246"><ele>1237.0</ele><time>2026-05-02T14:39:51.043Z</time></trkpt><trkpt lat="44.0844866" lon="7.7835955"><ele>1237.0</ele><time>2026-05-02T14:39:52.043Z</time></trkpt><trkpt lat="44.0844563" lon="7.7834546"><ele>1237.0</ele><time>2026-05-02T14:39:53.042Z</time></trkpt><trkpt lat="44.0844184" lon="7.7832906"><ele>1241.25</ele><time>2026-05-02T14:39:54.044Z</time></trkpt><trkpt lat="44.0843777" lon="7.7831285"><ele>1245.5</ele><time>2026-05-02T14:39:55.042Z</time></trkpt><trkpt lat="44.0843269" lon="7.7829804"><ele>1249.75</ele><time>2026-05-02T14:39:56.042Z</time></trkpt><trkpt lat="44.0842787" lon="7.7828322"><ele>1254.0</ele><time>2026-05-02T14:39:57.042Z</time></trkpt><trkpt lat="44.0842303" lon="7.7826992"><ele>1259.2</ele><time>2026-05-02T14:39:58.044Z</time></trkpt><trkpt lat="44.0841932" lon="7.7825746"><ele>1264.4</ele><time>2026-05-02T14:39:59.042Z</time></trkpt><trkpt lat="44.0841639" lon="7.7824511"><ele>1269.6</ele><time>2026-05-02T14:40:00.042Z</time></trkpt><trkpt lat="44.0841541" lon="7.7823168"><ele>1274.8</ele><time>2026-05-02T14:40:01.043Z</time></trkpt><trkpt lat="44.0841382" lon="7.7821732"><ele>1280.0</ele><time>2026-05-02T14:40:02.042Z</time></trkpt><trkpt lat="44.0841039" lon="7.7820297"><ele>1280.8</ele><time>2026-05-02T14:40:03.043Z</time></trkpt><trkpt lat="44.0840669" lon="7.7818848"><ele>1281.6</ele><time>2026-05-02T14:40:04.042Z</time></trkpt><trkpt lat="44.0840432" lon="7.7817606"><ele>1282.4</ele><time>2026-05-02T14:40:05.043Z</time></trkpt><trkpt lat="44.0840083" lon="7.7816553"><ele>1283.2</ele><time>2026-05-02T14:40:06.042Z</time></trkpt><trkpt lat="44.0839554" lon="7.7815895"><ele>1284.0</ele><time>2026-05-02T14:40:07.042Z</time></trkpt><trkpt lat="44.0837738" lon="7.7816195"><ele>1283.9999999999998</ele><time>2026-05-02T14:40:11.042Z</time></trkpt><trkpt lat="44.0837115" lon="7.7815833"><ele>1284.0</ele><time>2026-05-02T14:40:24.043Z</time></trkpt><trkpt lat="44.0836524" lon="7.7816249"><ele>1284.0</ele><time>2026-05-02T14:40:29.042Z</time></trkpt><trkpt lat="44.0835672" lon="7.7816407"><ele>1284.0</ele><time>2026-05-02T14:40:31.042Z</time></trkpt><trkpt lat="44.0835045" lon="7.7815876"><ele>1284.0</ele><time>2026-05-02T14:40:32.043Z</time></trkpt><trkpt lat="44.0834663" lon="7.7814971"><ele>1283.9999999999998</ele><time>2026-05-02T14:40:33.043Z</time></trkpt><trkpt lat="44.0834334" lon="7.7814083"><ele>1284.0</ele><time>2026-05-02T14:40:34.042Z</time></trkpt><trkpt lat="44.0833728" lon="7.7813405"><ele>1284.0</ele><time>2026-05-02T14:40:35.043Z</time></trkpt><trkpt lat="44.0832848" lon="7.7813049"><ele>1284.0</ele><time>2026-05-02T14:40:36.042Z</time></trkpt><trkpt lat="44.083196" lon="7.7812899"><ele>1284.0</ele><time>2026-05-02T14:40:37.042Z</time></trkpt><trkpt lat="44.083113" lon="7.7812891"><ele>1284.0</ele><time>2026-05-02T14:40:38.042Z</time></trkpt><trkpt lat="44.0830397" lon="7.7813042"><ele>1284.0</ele><time>2026-05-02T14:40:39.042Z</time></trkpt><trkpt lat="44.0829762" lon="7.7813323"><ele>1284.0</ele><time>2026-05-02T14:40:40.042Z</time></trkpt><trkpt lat="44.0829058" lon="7.7813742"><ele>1291.25</ele><time>2026-05-02T14:40:41.042Z</time></trkpt><trkpt lat="44.0828263" lon="7.7814977"><ele>1298.5</ele><time>2026-05-02T14:40:42.042Z</time></trkpt><trkpt lat="44.0827441" lon="7.7816073"><ele>1305.75</ele><time>2026-05-02T14:40:43.043Z</time></trkpt><trkpt lat="44.082653" lon="7.7817058"><ele>1313.0</ele><time>2026-05-02T14:40:44.042Z</time></trkpt><trkpt lat="44.0825691" lon="7.7818052"><ele>1310.3333333333335</ele><time>2026-05-02T14:40:45.042Z</time></trkpt><trkpt lat="44.0825027" lon="7.7819069"><ele>1307.6666666666667</ele><time>2026-05-02T14:40:46.042Z</time></trkpt><trkpt lat="44.0824437" lon="7.7819876"><ele>1305.0</ele><time>2026-05-02T14:40:47.042Z</time></trkpt><trkpt lat="44.0823833" lon="7.7820227"><ele>1302.3333333333333</ele><time>2026-05-02T14:40:48.042Z</time></trkpt><trkpt lat="44.0823202" lon="7.7820446"><ele>1299.6666666666665</ele><time>2026-05-02T14:40:49.042Z</time></trkpt><trkpt lat="44.0822378" lon="7.7820543"><ele>1297.0</ele><time>2026-05-02T14:40:50.042Z</time></trkpt><trkpt lat="44.0821444" lon="7.7820622"><ele>1297.0</ele><time>2026-05-02T14:40:51.042Z</time></trkpt><trkpt lat="44.0820439" lon="7.782081"><ele>1297.0</ele><time>2026-05-02T14:40:52.042Z</time></trkpt><trkpt lat="44.0819425" lon="7.7821068"><ele>1297.0</ele><time>2026-05-02T14:40:53.042Z</time></trkpt><trkpt lat="44.0818416" lon="7.7821328"><ele>1297.0</ele><time>2026-05-02T14:40:54.042Z</time></trkpt><trkpt lat="44.0817424" lon="7.7821533"><ele>1297.0</ele><time>2026-05-02T14:40:55.042Z</time></trkpt><trkpt lat="44.0816392" lon="7.7821678"><ele>1297.0</ele><time>2026-05-02T14:40:56.042Z</time></trkpt><trkpt lat="44.0815434" lon="7.7821903"><ele>1297.0</ele><time>2026-05-02T14:40:57.042Z</time></trkpt><trkpt lat="44.0814644" lon="7.7822216"><ele>1297.0</ele><time>2026-05-02T14:40:58.042Z</time></trkpt><trkpt lat="44.0813878" lon="7.7822609"><ele>1297.0</ele><time>2026-05-02T14:40:59.042Z</time></trkpt><trkpt lat="44.0813089" lon="7.7823024"><ele>1297.0</ele><time>2026-05-02T14:41:00.043Z</time></trkpt><trkpt lat="44.0812228" lon="7.7823515"><ele>1297.0</ele><time>2026-05-02T14:41:01.042Z</time></trkpt><trkpt lat="44.0811416" lon="7.7823835"><ele>1297.0</ele><time>2026-05-02T14:41:02.042Z</time></trkpt><trkpt lat="44.0810687" lon="7.7823708"><ele>1297.0</ele><time>2026-05-02T14:41:03.043Z</time></trkpt><trkpt lat="44.0809934" lon="7.782339"><ele>1297.0</ele><time>2026-05-02T14:41:04.042Z</time></trkpt><trkpt lat="44.0809586" lon="7.7822536"><ele>1297.0</ele><time>2026-05-02T14:41:05.043Z</time></trkpt><trkpt lat="44.0809473" lon="7.7821338"><ele>1297.0</ele><time>2026-05-02T14:41:06.042Z</time></trkpt><trkpt lat="44.0809391" lon="7.7820064"><ele>1297.0</ele><time>2026-05-02T14:41:07.043Z</time></trkpt><trkpt lat="44.0809332" lon="7.7818844"><ele>1301.0</ele><time>2026-05-02T14:41:08.042Z</time></trkpt><trkpt lat="44.0808949" lon="7.7817733"><ele>1305.0</ele><time>2026-05-02T14:41:09.042Z</time></trkpt><trkpt lat="44.0808258" lon="7.7816699"><ele>1309.0</ele><time>2026-05-02T14:41:10.042Z</time></trkpt><trkpt lat="44.0807403" lon="7.7815777"><ele>1313.0</ele><time>2026-05-02T14:41:11.042Z</time></trkpt><trkpt lat="44.0806355" lon="7.7814981"><ele>1317.0</ele><time>2026-05-02T14:41:12.043Z</time></trkpt><trkpt lat="44.0805229" lon="7.7814255"><ele>1317.0</ele><time>2026-05-02T14:41:13.042Z</time></trkpt><trkpt lat="44.0804068" lon="7.781359"><ele>1317.0</ele><time>2026-05-02T14:41:14.042Z</time></trkpt><trkpt lat="44.0802859" lon="7.7813007"><ele>1317.0</ele><time>2026-05-02T14:41:15.042Z</time></trkpt><trkpt lat="44.0801499" lon="7.7812625"><ele>1317.0</ele><time>2026-05-02T14:41:16.042Z</time></trkpt><trkpt lat="44.080022" lon="7.7812932"><ele>1316.25</ele><time>2026-05-02T14:41:17.043Z</time></trkpt><trkpt lat="44.0799061" lon="7.7813042"><ele>1315.5</ele><time>2026-05-02T14:41:18.043Z</time></trkpt><trkpt lat="44.0797906" lon="7.7812861"><ele>1314.75</ele><time>2026-05-02T14:41:19.042Z</time></trkpt><trkpt lat="44.079675" lon="7.7812556"><ele>1314.0</ele><time>2026-05-02T14:41:20.042Z</time></trkpt><trkpt lat="44.0795652" lon="7.7812207"><ele>1314.0</ele><time>2026-05-02T14:41:21.043Z</time></trkpt><trkpt lat="44.0794632" lon="7.7811905"><ele>1314.0</ele><time>2026-05-02T14:41:22.043Z</time></trkpt><trkpt lat="44.0793557" lon="7.7811814"><ele>1314.0</ele><time>2026-05-02T14:41:23.042Z</time></trkpt><trkpt lat="44.0792489" lon="7.781194"><ele>1314.0</ele><time>2026-05-02T14:41:24.042Z</time></trkpt><trkpt lat="44.0791546" lon="7.7811928"><ele>1314.0</ele><time>2026-05-02T14:41:25.043Z</time></trkpt><trkpt lat="44.0790762" lon="7.7811562"><ele>1314.8000000000002</ele><time>2026-05-02T14:41:26.042Z</time></trkpt><trkpt lat="44.0790056" lon="7.781083"><ele>1315.6000000000001</ele><time>2026-05-02T14:41:27.042Z</time></trkpt><trkpt lat="44.0789343" lon="7.7809951"><ele>1316.4</ele><time>2026-05-02T14:41:28.042Z</time></trkpt><trkpt lat="44.0788504" lon="7.7809133"><ele>1317.2</ele><time>2026-05-02T14:41:29.042Z</time></trkpt><trkpt lat="44.0787613" lon="7.7808337"><ele>1318.0</ele><time>2026-05-02T14:41:30.042Z</time></trkpt><trkpt lat="44.0786628" lon="7.7807547"><ele>1328.5</ele><time>2026-05-02T14:41:31.042Z</time></trkpt><trkpt lat="44.0785385" lon="7.7807479"><ele>1339.0</ele><time>2026-05-02T14:41:32.043Z</time></trkpt><trkpt lat="44.0784228" lon="7.7807246"><ele>1349.5</ele><time>2026-05-02T14:41:33.042Z</time></trkpt><trkpt lat="44.0782983" lon="7.7807395"><ele>1360.0</ele><time>2026-05-02T14:41:34.042Z</time></trkpt><trkpt lat="44.0781786" lon="7.7807467"><ele>1364.0</ele><time>2026-05-02T14:41:35.043Z</time></trkpt><trkpt lat="44.0780736" lon="7.7807584"><ele>1368.0</ele><time>2026-05-02T14:41:36.042Z</time></trkpt><trkpt lat="44.0779816" lon="7.7808017"><ele>1372.0</ele><time>2026-05-02T14:41:37.042Z</time></trkpt><trkpt lat="44.0778965" lon="7.7808684"><ele>1376.0</ele><time>2026-05-02T14:41:38.043Z</time></trkpt><trkpt lat="44.0778062" lon="7.7809312"><ele>1380.0</ele><time>2026-05-02T14:41:39.042Z</time></trkpt><trkpt lat="44.0777033" lon="7.7809962"><ele>1378.4</ele><time>2026-05-02T14:41:40.042Z</time></trkpt><trkpt lat="44.077606" lon="7.781056"><ele>1376.8</ele><time>2026-05-02T14:41:41.043Z</time></trkpt><trkpt lat="44.0775076" lon="7.781127"><ele>1375.1999999999998</ele><time>2026-05-02T14:41:42.043Z</time></trkpt><trkpt lat="44.077423" lon="7.7811997"><ele>1373.6</ele><time>2026-05-02T14:41:43.042Z</time></trkpt><trkpt lat="44.0773473" lon="7.781282"><ele>1372.0</ele><time>2026-05-02T14:41:44.042Z</time></trkpt><trkpt lat="44.0772779" lon="7.7813705"><ele>1372.0</ele><time>2026-05-02T14:41:45.042Z</time></trkpt><trkpt lat="44.0772279" lon="7.7814945"><ele>1372.0</ele><time>2026-05-02T14:41:46.042Z</time></trkpt><trkpt lat="44.0771801" lon="7.7815919"><ele>1372.0</ele><time>2026-05-02T14:41:47.042Z</time></trkpt><trkpt lat="44.0771249" lon="7.7816564"><ele>1372.0</ele><time>2026-05-02T14:41:48.043Z</time></trkpt><trkpt lat="44.0770609" lon="7.7817084"><ele>1372.0</ele><time>2026-05-02T14:41:49.042Z</time></trkpt><trkpt lat="44.0769883" lon="7.7817523"><ele>1372.0</ele><time>2026-05-02T14:41:50.042Z</time></trkpt><trkpt lat="44.0768768" lon="7.7817288"><ele>1372.0</ele><time>2026-05-02T14:41:51.042Z</time></trkpt><trkpt lat="44.0767607" lon="7.7817075"><ele>1372.0</ele><time>2026-05-02T14:41:52.042Z</time></trkpt><trkpt lat="44.0766513" lon="7.7817404"><ele>1372.0</ele><time>2026-05-02T14:41:53.042Z</time></trkpt><trkpt lat="44.0765463" lon="7.7818201"><ele>1372.0</ele><time>2026-05-02T14:41:54.043Z</time></trkpt><trkpt lat="44.0764533" lon="7.7819178"><ele>1370.6</ele><time>2026-05-02T14:41:55.042Z</time></trkpt><trkpt lat="44.0763632" lon="7.7820194"><ele>1369.1999999999998</ele><time>2026-05-02T14:41:56.042Z</time></trkpt><trkpt lat="44.0762951" lon="7.7821243"><ele>1367.8</ele><time>2026-05-02T14:41:57.042Z</time></trkpt><trkpt lat="44.0762184" lon="7.7821852"><ele>1366.4</ele><time>2026-05-02T14:41:58.043Z</time></trkpt><trkpt lat="44.0761238" lon="7.7822263"><ele>1365.0</ele><time>2026-05-02T14:41:59.042Z</time></trkpt><trkpt lat="44.0760149" lon="7.782269"><ele>1365.0</ele><time>2026-05-02T14:42:00.042Z</time></trkpt><trkpt lat="44.075898" lon="7.7822938"><ele>1365.0</ele><time>2026-05-02T14:42:01.042Z</time></trkpt><trkpt lat="44.0757746" lon="7.7823035"><ele>1365.0</ele><time>2026-05-02T14:42:02.042Z</time></trkpt><trkpt lat="44.0756398" lon="7.7823132"><ele>1365.0</ele><time>2026-05-02T14:42:03.043Z</time></trkpt><trkpt lat="44.075511" lon="7.7823348"><ele>1372.25</ele><time>2026-05-02T14:42:04.042Z</time></trkpt><trkpt lat="44.0753865" lon="7.7823609"><ele>1379.5</ele><time>2026-05-02T14:42:05.042Z</time></trkpt><trkpt lat="44.0752849" lon="7.7824228"><ele>1386.75</ele><time>2026-05-02T14:42:06.042Z</time></trkpt><trkpt lat="44.0751985" lon="7.7825134"><ele>1394.0</ele><time>2026-05-02T14:42:07.042Z</time></trkpt><trkpt lat="44.0751117" lon="7.7826147"><ele>1398.75</ele><time>2026-05-02T14:42:08.042Z</time></trkpt><trkpt lat="44.0750277" lon="7.7827265"><ele>1403.5</ele><time>2026-05-02T14:42:09.042Z</time></trkpt><trkpt lat="44.074949" lon="7.7828529"><ele>1408.25</ele><time>2026-05-02T14:42:10.042Z</time></trkpt><trkpt lat="44.0748834" lon="7.7829889"><ele>1413.0</ele><time>2026-05-02T14:42:11.043Z</time></trkpt><trkpt lat="44.0748424" lon="7.783139"><ele>1413.0</ele><time>2026-05-02T14:42:12.042Z</time></trkpt><trkpt lat="44.0748073" lon="7.7832917"><ele>1413.0</ele><time>2026-05-02T14:42:13.042Z</time></trkpt><trkpt lat="44.0747643" lon="7.7834585"><ele>1413.0</ele><time>2026-05-02T14:42:14.042Z</time></trkpt><trkpt lat="44.0747138" lon="7.783617"><ele>1413.0</ele><time>2026-05-02T14:42:15.042Z</time></trkpt><trkpt lat="44.0746597" lon="7.7837602"><ele>1407.1666666666667</ele><time>2026-05-02T14:42:16.043Z</time></trkpt><trkpt lat="44.0745901" lon="7.7838781"><ele>1401.3333333333333</ele><time>2026-05-02T14:42:17.042Z</time></trkpt><trkpt lat="44.0745231" lon="7.7839811"><ele>1395.5</ele><time>2026-05-02T14:42:18.043Z</time></trkpt><trkpt lat="44.0744654" lon="7.7840582"><ele>1389.6666666666665</ele><time>2026-05-02T14:42:19.042Z</time></trkpt><trkpt lat="44.0744108" lon="7.7841112"><ele>1383.8333333333333</ele><time>2026-05-02T14:42:20.043Z</time></trkpt><trkpt lat="44.0743541" lon="7.7841495"><ele>1378.0</ele><time>2026-05-02T14:42:21.042Z</time></trkpt><trkpt lat="44.0742903" lon="7.784112"><ele>1378.0</ele><time>2026-05-02T14:42:22.042Z</time></trkpt><trkpt lat="44.0742329" lon="7.7840574"><ele>1378.0</ele><time>2026-05-02T14:42:23.042Z</time></trkpt><trkpt lat="44.0741755" lon="7.7839857"><ele>1378.0</ele><time>2026-05-02T14:42:24.042Z</time></trkpt><trkpt lat="44.0740988" lon="7.783904"><ele>1378.0</ele><time>2026-05-02T14:42:25.044Z</time></trkpt><trkpt lat="44.0740119" lon="7.7838089"><ele>1378.0</ele><time>2026-05-02T14:42:26.042Z</time></trkpt><trkpt lat="44.0739062" lon="7.7836992"><ele>1380.75</ele><time>2026-05-02T14:42:27.043Z</time></trkpt><trkpt lat="44.0738041" lon="7.7835774"><ele>1383.5</ele><time>2026-05-02T14:42:28.042Z</time></trkpt><trkpt lat="44.0737101" lon="7.7834526"><ele>1386.25</ele><time>2026-05-02T14:42:29.042Z</time></trkpt><trkpt lat="44.0736304" lon="7.7833286"><ele>1389.0</ele><time>2026-05-02T14:42:30.042Z</time></trkpt><trkpt lat="44.0735543" lon="7.7832115"><ele>1389.0</ele><time>2026-05-02T14:42:31.043Z</time></trkpt><trkpt lat="44.07348" lon="7.7830961"><ele>1389.0</ele><time>2026-05-02T14:42:32.042Z</time></trkpt><trkpt lat="44.0733987" lon="7.7829945"><ele>1389.0</ele><time>2026-05-02T14:42:33.042Z</time></trkpt><trkpt lat="44.0733347" lon="7.7829023"><ele>1389.0</ele><time>2026-05-02T14:42:34.043Z</time></trkpt><trkpt lat="44.0732831" lon="7.7827932"><ele>1389.0</ele><time>2026-05-02T14:42:35.042Z</time></trkpt><trkpt lat="44.0732348" lon="7.7826691"><ele>1382.75</ele><time>2026-05-02T14:42:36.042Z</time></trkpt><trkpt lat="44.0731836" lon="7.7825334"><ele>1376.5</ele><time>2026-05-02T14:42:37.042Z</time></trkpt><trkpt lat="44.073134" lon="7.7823899"><ele>1370.25</ele><time>2026-05-02T14:42:38.042Z</time></trkpt><trkpt lat="44.073091" lon="7.7822324"><ele>1364.0</ele><time>2026-05-02T14:42:39.043Z</time></trkpt><trkpt lat="44.0730526" lon="7.7820649"><ele>1364.0</ele><time>2026-05-02T14:42:40.042Z</time></trkpt><trkpt lat="44.0730175" lon="7.781894"><ele>1364.0</ele><time>2026-05-02T14:42:41.043Z</time></trkpt><trkpt lat="44.0730096" lon="7.7817099"><ele>1364.0</ele><time>2026-05-02T14:42:42.043Z</time></trkpt><trkpt lat="44.0730046" lon="7.7815213"><ele>1364.0</ele><time>2026-05-02T14:42:43.042Z</time></trkpt><trkpt lat="44.0730064" lon="7.7813342"><ele>1368.75</ele><time>2026-05-02T14:42:44.042Z</time></trkpt><trkpt lat="44.0730037" lon="7.7811605"><ele>1373.5</ele><time>2026-05-02T14:42:45.043Z</time></trkpt><trkpt lat="44.0729973" lon="7.7809991"><ele>1378.25</ele><time>2026-05-02T14:42:46.043Z</time></trkpt><trkpt lat="44.0729743" lon="7.7808571"><ele>1383.0</ele><time>2026-05-02T14:42:47.042Z</time></trkpt><trkpt lat="44.0729236" lon="7.7807187"><ele>1390.25</ele><time>2026-05-02T14:42:48.043Z</time></trkpt><trkpt lat="44.0728516" lon="7.7805707"><ele>1397.5</ele><time>2026-05-02T14:42:49.042Z</time></trkpt><trkpt lat="44.0727728" lon="7.7804197"><ele>1404.75</ele><time>2026-05-02T14:42:50.042Z</time></trkpt><trkpt lat="44.0727222" lon="7.7802767"><ele>1412.0</ele><time>2026-05-02T14:42:51.042Z</time></trkpt><trkpt lat="44.072687" lon="7.7801539"><ele>1408.8</ele><time>2026-05-02T14:42:52.043Z</time></trkpt><trkpt lat="44.0726563" lon="7.7800419"><ele>1405.6</ele><time>2026-05-02T14:42:53.042Z</time></trkpt><trkpt lat="44.0725531" lon="7.7799815"><ele>1402.3999999999999</ele><time>2026-05-02T14:42:55.042Z</time></trkpt><trkpt lat="44.0724036" lon="7.7799166"><ele>1399.1999999999998</ele><time>2026-05-02T14:42:57.042Z</time></trkpt><trkpt lat="44.072324" lon="7.7798797"><ele>1396.0</ele><time>2026-05-02T14:42:58.042Z</time></trkpt><trkpt lat="44.0722567" lon="7.7798266"><ele>1396.0</ele><time>2026-05-02T14:42:59.042Z</time></trkpt><trkpt lat="44.0722104" lon="7.7797492"><ele>1396.0</ele><time>2026-05-02T14:43:00.042Z</time></trkpt><trkpt lat="44.0721773" lon="7.7796457"><ele>1396.0</ele><time>2026-05-02T14:43:01.042Z</time></trkpt><trkpt lat="44.0721332" lon="7.7795531"><ele>1396.0</ele><time>2026-05-02T14:43:02.042Z</time></trkpt><trkpt lat="44.0720734" lon="7.77948"><ele>1396.0</ele><time>2026-05-02T14:43:03.043Z</time></trkpt><trkpt lat="44.0719791" lon="7.7794109"><ele>1396.0</ele><time>2026-05-02T14:43:04.042Z</time></trkpt><trkpt lat="44.0718756" lon="7.7793432"><ele>1402.75</ele><time>2026-05-02T14:43:05.042Z</time></trkpt><trkpt lat="44.0717731" lon="7.7792665"><ele>1409.5</ele><time>2026-05-02T14:43:06.043Z</time></trkpt><trkpt lat="44.0716717" lon="7.7791883"><ele>1416.25</ele><time>2026-05-02T14:43:07.042Z</time></trkpt><trkpt lat="44.0715881" lon="7.7790743"><ele>1423.0</ele><time>2026-05-02T14:43:08.042Z</time></trkpt><trkpt lat="44.0715086" lon="7.778963"><ele>1423.0</ele><time>2026-05-02T14:43:09.042Z</time></trkpt><trkpt lat="44.0714306" lon="7.7788614"><ele>1423.0</ele><time>2026-05-02T14:43:10.043Z</time></trkpt><trkpt lat="44.071369" lon="7.7788187"><ele>1423.0</ele><time>2026-05-02T14:43:11.042Z</time></trkpt><trkpt lat="44.0713125" lon="7.7787687"><ele>1423.0</ele><time>2026-05-02T14:43:12.042Z</time></trkpt><trkpt lat="44.0712607" lon="7.7787105"><ele>1423.0</ele><time>2026-05-02T14:43:13.042Z</time></trkpt><trkpt lat="44.071228" lon="7.7786052"><ele>1423.0</ele><time>2026-05-02T14:43:14.042Z</time></trkpt><trkpt lat="44.0711872" lon="7.7784917"><ele>1434.4</ele><time>2026-05-02T14:43:15.042Z</time></trkpt><trkpt lat="44.0711351" lon="7.7783903"><ele>1445.8000000000002</ele><time>2026-05-02T14:43:16.042Z</time></trkpt><trkpt lat="44.0710792" lon="7.7783152"><ele>1457.2</ele><time>2026-05-02T14:43:17.042Z</time></trkpt><trkpt lat="44.070973" lon="7.7782657"><ele>1468.6</ele><time>2026-05-02T14:43:19.042Z</time></trkpt><trkpt lat="44.0708441" lon="7.7783022"><ele>1480.0</ele><time>2026-05-02T14:43:21.042Z</time></trkpt><trkpt lat="44.0707647" lon="7.7783223"><ele>1480.3333333333333</ele><time>2026-05-02T14:43:22.042Z</time></trkpt><trkpt lat="44.0706808" lon="7.7783478"><ele>1480.6666666666665</ele><time>2026-05-02T14:43:23.042Z</time></trkpt><trkpt lat="44.0705997" lon="7.7783855"><ele>1481.0</ele><time>2026-05-02T14:43:24.042Z</time></trkpt><trkpt lat="44.0705253" lon="7.7784398"><ele>1481.3333333333333</ele><time>2026-05-02T14:43:25.042Z</time></trkpt><trkpt lat="44.0704528" lon="7.7785049"><ele>1481.6666666666667</ele><time>2026-05-02T14:43:26.042Z</time></trkpt><trkpt lat="44.0703788" lon="7.7785721"><ele>1482.0</ele><time>2026-05-02T14:43:27.042Z</time></trkpt><trkpt lat="44.0702936" lon="7.7786267"><ele>1475.8</ele><time>2026-05-02T14:43:28.042Z</time></trkpt><trkpt lat="44.0701912" lon="7.7786719"><ele>1469.6</ele><time>2026-05-02T14:43:29.042Z</time></trkpt><trkpt lat="44.0700911" lon="7.7787065"><ele>1463.3999999999999</ele><time>2026-05-02T14:43:30.042Z</time></trkpt><trkpt lat="44.0699976" lon="7.7787292"><ele>1457.1999999999998</ele><time>2026-05-02T14:43:31.043Z</time></trkpt><trkpt lat="44.0699174" lon="7.7787289"><ele>1451.0</ele><time>2026-05-02T14:43:32.042Z</time></trkpt><trkpt lat="44.0698521" lon="7.7786899"><ele>1451.0</ele><time>2026-05-02T14:43:33.042Z</time></trkpt><trkpt lat="44.0697885" lon="7.7786217"><ele>1451.0</ele><time>2026-05-02T14:43:34.042Z</time></trkpt><trkpt lat="44.069738" lon="7.7785392"><ele>1451.0</ele><time>2026-05-02T14:43:35.042Z</time></trkpt><trkpt lat="44.069681" lon="7.7784463"><ele>1451.0</ele><time>2026-05-02T14:43:36.043Z</time></trkpt><trkpt lat="44.0696187" lon="7.7783504"><ele>1451.0</ele><time>2026-05-02T14:43:37.042Z</time></trkpt><trkpt lat="44.0695602" lon="7.7782862"><ele>1451.0</ele><time>2026-05-02T14:43:38.042Z</time></trkpt><trkpt lat="44.0694697" lon="7.7782251"><ele>1458.1999999999998</ele><time>2026-05-02T14:43:40.042Z</time></trkpt><trkpt lat="44.0693764" lon="7.7782516"><ele>1465.3999999999999</ele><time>2026-05-02T14:43:43.043Z</time></trkpt><trkpt lat="44.0693144" lon="7.7783121"><ele>1472.6</ele><time>2026-05-02T14:43:45.042Z</time></trkpt><trkpt lat="44.0692541" lon="7.7784138"><ele>1479.8</ele><time>2026-05-02T14:43:47.042Z</time></trkpt><trkpt lat="44.0690999" lon="7.7784891"><ele>1487.0</ele><time>2026-05-02T14:43:49.944Z</time></trkpt><trkpt lat="44.0689793" lon="7.7785058"><ele>1486.1999999999998</ele><time>2026-05-02T14:43:51.042Z</time></trkpt><trkpt lat="44.0688824" lon="7.7785041"><ele>1485.4</ele><time>2026-05-02T14:43:52.042Z</time></trkpt><trkpt lat="44.0687649" lon="7.7785261"><ele>1484.6</ele><time>2026-05-02T14:43:53.042Z</time></trkpt><trkpt lat="44.0686881" lon="7.7785545"><ele>1483.8000000000002</ele><time>2026-05-02T14:43:54.042Z</time></trkpt><trkpt lat="44.0685905" lon="7.7786246"><ele>1483.0</ele><time>2026-05-02T14:43:56.042Z</time></trkpt><trkpt lat="44.0685159" lon="7.7787263"><ele>1483.0</ele><time>2026-05-02T14:43:58.042Z</time></trkpt><trkpt lat="44.068451" lon="7.778899"><ele>1483.0</ele><time>2026-05-02T14:44:00.042Z</time></trkpt><trkpt lat="44.0683936" lon="7.7790069"><ele>1483.0</ele><time>2026-05-02T14:44:01.042Z</time></trkpt><trkpt lat="44.0683229" lon="7.7791025"><ele>1483.0</ele><time>2026-05-02T14:44:02.043Z</time></trkpt><trkpt lat="44.0682538" lon="7.7791929"><ele>1483.0</ele><time>2026-05-02T14:44:03.043Z</time></trkpt><trkpt lat="44.0681733" lon="7.7792719"><ele>1488.4</ele><time>2026-05-02T14:44:04.043Z</time></trkpt><trkpt lat="44.068082" lon="7.779342"><ele>1493.8000000000002</ele><time>2026-05-02T14:44:05.042Z</time></trkpt><trkpt lat="44.0679861" lon="7.7793931"><ele>1499.2</ele><time>2026-05-02T14:44:06.043Z</time></trkpt><trkpt lat="44.0678863" lon="7.7794416"><ele>1504.6</ele><time>2026-05-02T14:44:07.042Z</time></trkpt><trkpt lat="44.0678046" lon="7.7794976"><ele>1510.0</ele><time>2026-05-02T14:44:08.042Z</time></trkpt><trkpt lat="44.0677356" lon="7.7795745"><ele>1510.0</ele><time>2026-05-02T14:44:09.042Z</time></trkpt><trkpt lat="44.0676763" lon="7.7796693"><ele>1510.0</ele><time>2026-05-02T14:44:10.042Z</time></trkpt><trkpt lat="44.0676205" lon="7.7797832"><ele>1510.0</ele><time>2026-05-02T14:44:11.042Z</time></trkpt><trkpt lat="44.0675849" lon="7.7798948"><ele>1510.0</ele><time>2026-05-02T14:44:12.043Z</time></trkpt><trkpt lat="44.0675726" lon="7.7800042"><ele>1510.0</ele><time>2026-05-02T14:44:13.042Z</time></trkpt><trkpt lat="44.0675797" lon="7.7801224"><ele>1510.0</ele><time>2026-05-02T14:44:14.043Z</time></trkpt><trkpt lat="44.0676011" lon="7.7802442"><ele>1509.5</ele><time>2026-05-02T14:44:15.042Z</time></trkpt><trkpt lat="44.0676263" lon="7.7803577"><ele>1509.0</ele><time>2026-05-02T14:44:16.043Z</time></trkpt><trkpt lat="44.0676239" lon="7.7804743"><ele>1508.5</ele><time>2026-05-02T14:44:17.043Z</time></trkpt><trkpt lat="44.0676164" lon="7.7805875"><ele>1508.0</ele><time>2026-05-02T14:44:18.043Z</time></trkpt><trkpt lat="44.0676098" lon="7.7807034"><ele>1507.5</ele><time>2026-05-02T14:44:19.042Z</time></trkpt><trkpt lat="44.0676012" lon="7.7808326"><ele>1507.0</ele><time>2026-05-02T14:44:20.043Z</time></trkpt><trkpt lat="44.0675896" lon="7.7809708"><ele>1504.0</ele><time>2026-05-02T14:44:21.043Z</time></trkpt><trkpt lat="44.0675737" lon="7.7811063"><ele>1501.0</ele><time>2026-05-02T14:44:22.042Z</time></trkpt><trkpt lat="44.0675151" lon="7.7812078"><ele>1498.0</ele><time>2026-05-02T14:44:23.043Z</time></trkpt><trkpt lat="44.0674449" lon="7.7813079"><ele>1495.0</ele><time>2026-05-02T14:44:24.042Z</time></trkpt><trkpt lat="44.0673539" lon="7.7813699"><ele>1492.0</ele><time>2026-05-02T14:44:25.043Z</time></trkpt><trkpt lat="44.0672611" lon="7.7814267"><ele>1501.5</ele><time>2026-05-02T14:44:26.042Z</time></trkpt><trkpt lat="44.067164" lon="7.7814854"><ele>1511.0</ele><time>2026-05-02T14:44:27.043Z</time></trkpt><trkpt lat="44.0670651" lon="7.7815603"><ele>1520.5</ele><time>2026-05-02T14:44:28.042Z</time></trkpt><trkpt lat="44.0669679" lon="7.781639"><ele>1530.0</ele><time>2026-05-02T14:44:29.042Z</time></trkpt><trkpt lat="44.0668608" lon="7.7817343"><ele>1530.0</ele><time>2026-05-02T14:44:30.042Z</time></trkpt><trkpt lat="44.0667552" lon="7.7818264"><ele>1530.0</ele><time>2026-05-02T14:44:31.042Z</time></trkpt><trkpt lat="44.0666599" lon="7.7819299"><ele>1530.0</ele><time>2026-05-02T14:44:32.042Z</time></trkpt><trkpt lat="44.0665703" lon="7.7820307"><ele>1530.0</ele><time>2026-05-02T14:44:33.042Z</time></trkpt><trkpt lat="44.0664794" lon="7.7821069"><ele>1532.6</ele><time>2026-05-02T14:44:34.043Z</time></trkpt><trkpt lat="44.0663917" lon="7.782194"><ele>1535.2</ele><time>2026-05-02T14:44:35.043Z</time></trkpt><trkpt lat="44.0663246" lon="7.7823021"><ele>1537.8000000000002</ele><time>2026-05-02T14:44:36.042Z</time></trkpt><trkpt lat="44.0662773" lon="7.7824092"><ele>1540.4</ele><time>2026-05-02T14:44:37.042Z</time></trkpt><trkpt lat="44.0662193" lon="7.7825414"><ele>1543.0</ele><time>2026-05-02T14:44:38.043Z</time></trkpt><trkpt lat="44.06615" lon="7.7826706"><ele>1536.2</ele><time>2026-05-02T14:44:39.042Z</time></trkpt><trkpt lat="44.0660771" lon="7.782802"><ele>1529.4</ele><time>2026-05-02T14:44:40.043Z</time></trkpt><trkpt lat="44.0659965" lon="7.7829256"><ele>1522.6000000000001</ele><time>2026-05-02T14:44:41.042Z</time></trkpt><trkpt lat="44.0659384" lon="7.783004"><ele>1515.8000000000002</ele><time>2026-05-02T14:44:42.042Z</time></trkpt><trkpt lat="44.065881" lon="7.783063"><ele>1509.0</ele><time>2026-05-02T14:44:43.043Z</time></trkpt><trkpt lat="44.0658149" lon="7.7831161"><ele>1505.3333333333333</ele><time>2026-05-02T14:44:44.042Z</time></trkpt><trkpt lat="44.065741" lon="7.7831363"><ele>1501.6666666666667</ele><time>2026-05-02T14:44:45.042Z</time></trkpt><trkpt lat="44.0656614" lon="7.783124"><ele>1498.0</ele><time>2026-05-02T14:44:46.042Z</time></trkpt><trkpt lat="44.0655751" lon="7.7830786"><ele>1494.3333333333335</ele><time>2026-05-02T14:44:47.042Z</time></trkpt><trkpt lat="44.065493" lon="7.7830119"><ele>1490.6666666666667</ele><time>2026-05-02T14:44:48.043Z</time></trkpt><trkpt lat="44.065428" lon="7.7829193"><ele>1487.0</ele><time>2026-05-02T14:44:49.042Z</time></trkpt><trkpt lat="44.0653697" lon="7.7828167"><ele>1487.0</ele><time>2026-05-02T14:44:50.043Z</time></trkpt><trkpt lat="44.0653092" lon="7.7827219"><ele>1487.0</ele><time>2026-05-02T14:44:51.042Z</time></trkpt><trkpt lat="44.0652634" lon="7.7826163"><ele>1487.0</ele><time>2026-05-02T14:44:52.042Z</time></trkpt><trkpt lat="44.065225" lon="7.7825089"><ele>1487.0</ele><time>2026-05-02T14:44:53.043Z</time></trkpt><trkpt lat="44.0652036" lon="7.7823829"><ele>1487.0</ele><time>2026-05-02T14:44:54.043Z</time></trkpt><trkpt lat="44.0651864" lon="7.7822387"><ele>1496.75</ele><time>2026-05-02T14:44:55.042Z</time></trkpt><trkpt lat="44.0651742" lon="7.7820859"><ele>1506.5</ele><time>2026-05-02T14:44:56.043Z</time></trkpt><trkpt lat="44.0651559" lon="7.7819279"><ele>1516.25</ele><time>2026-05-02T14:44:57.043Z</time></trkpt><trkpt lat="44.0651345" lon="7.7817655"><ele>1526.0</ele><time>2026-05-02T14:44:58.042Z</time></trkpt><trkpt lat="44.0651123" lon="7.7816195"><ele>1528.6</ele><time>2026-05-02T14:44:59.042Z</time></trkpt><trkpt lat="44.0650842" lon="7.7814965"><ele>1531.1999999999998</ele><time>2026-05-02T14:45:00.042Z</time></trkpt><trkpt lat="44.0650432" lon="7.7813896"><ele>1533.8000000000002</ele><time>2026-05-02T14:45:01.043Z</time></trkpt><trkpt lat="44.064987" lon="7.781312"><ele>1536.4</ele><time>2026-05-02T14:45:02.043Z</time></trkpt><trkpt lat="44.0649085" lon="7.781248"><ele>1539.0</ele><time>2026-05-02T14:45:03.042Z</time></trkpt><trkpt lat="44.0648128" lon="7.7812007"><ele>1540.5</ele><time>2026-05-02T14:45:04.043Z</time></trkpt><trkpt lat="44.0646959" lon="7.7811614"><ele>1542.0</ele><time>2026-05-02T14:45:05.043Z</time></trkpt><trkpt lat="44.0645827" lon="7.7811251"><ele>1543.5</ele><time>2026-05-02T14:45:06.042Z</time></trkpt><trkpt lat="44.0644783" lon="7.7810563"><ele>1545.0</ele><time>2026-05-02T14:45:07.042Z</time></trkpt><trkpt lat="44.0643747" lon="7.780981"><ele>1545.0</ele><time>2026-05-02T14:45:08.043Z</time></trkpt><trkpt lat="44.0642724" lon="7.7808732"><ele>1545.0</ele><time>2026-05-02T14:45:09.043Z</time></trkpt><trkpt lat="44.0641682" lon="7.7807521"><ele>1545.0</ele><time>2026-05-02T14:45:10.042Z</time></trkpt><trkpt lat="44.064065" lon="7.7806357"><ele>1545.0</ele><time>2026-05-02T14:45:11.042Z</time></trkpt><trkpt lat="44.0639556" lon="7.780519"><ele>1540.5</ele><time>2026-05-02T14:45:12.042Z</time></trkpt><trkpt lat="44.0638386" lon="7.7804227"><ele>1536.0</ele><time>2026-05-02T14:45:13.042Z</time></trkpt><trkpt lat="44.063714" lon="7.7803366"><ele>1531.5</ele><time>2026-05-02T14:45:14.042Z</time></trkpt><trkpt lat="44.0635853" lon="7.7802628"><ele>1527.0</ele><time>2026-05-02T14:45:15.042Z</time></trkpt><trkpt lat="44.0634531" lon="7.7801875"><ele>1536.5</ele><time>2026-05-02T14:45:16.042Z</time></trkpt><trkpt lat="44.0633323" lon="7.7801346"><ele>1546.0</ele><time>2026-05-02T14:45:17.042Z</time></trkpt><trkpt lat="44.0632135" lon="7.780119"><ele>1555.5</ele><time>2026-05-02T14:45:18.042Z</time></trkpt><trkpt lat="44.063102" lon="7.7801021"><ele>1565.0</ele><time>2026-05-02T14:45:19.042Z</time></trkpt><trkpt lat="44.0629869" lon="7.7800753"><ele>1565.5</ele><time>2026-05-02T14:45:20.043Z</time></trkpt><trkpt lat="44.0628718" lon="7.7800689"><ele>1566.0</ele><time>2026-05-02T14:45:21.042Z</time></trkpt><trkpt lat="44.0627546" lon="7.7800768"><ele>1566.5</ele><time>2026-05-02T14:45:22.042Z</time></trkpt><trkpt lat="44.0626408" lon="7.7800941"><ele>1567.0</ele><time>2026-05-02T14:45:23.042Z</time></trkpt><trkpt lat="44.0625228" lon="7.7801102"><ele>1568.5</ele><time>2026-05-02T14:45:24.043Z</time></trkpt><trkpt lat="44.0624061" lon="7.7801333"><ele>1570.0</ele><time>2026-05-02T14:45:25.042Z</time></trkpt><trkpt lat="44.0622852" lon="7.7801704"><ele>1571.5</ele><time>2026-05-02T14:45:26.042Z</time></trkpt><trkpt lat="44.0621637" lon="7.7801966"><ele>1573.0</ele><time>2026-05-02T14:45:27.043Z</time></trkpt><trkpt lat="44.062043" lon="7.7802312"><ele>1566.0</ele><time>2026-05-02T14:45:28.042Z</time></trkpt><trkpt lat="44.0619204" lon="7.7802667"><ele>1559.0</ele><time>2026-05-02T14:45:29.042Z</time></trkpt><trkpt lat="44.061798" lon="7.7802793"><ele>1552.0</ele><time>2026-05-02T14:45:30.042Z</time></trkpt><trkpt lat="44.0616814" lon="7.7802819"><ele>1545.0</ele><time>2026-05-02T14:45:31.043Z</time></trkpt><trkpt lat="44.0615632" lon="7.7802883"><ele>1544.4</ele><time>2026-05-02T14:45:32.042Z</time></trkpt><trkpt lat="44.0614656" lon="7.7802908"><ele>1543.8</ele><time>2026-05-02T14:45:33.043Z</time></trkpt><trkpt lat="44.0613768" lon="7.7802844"><ele>1543.1999999999998</ele><time>2026-05-02T14:45:34.043Z</time></trkpt><trkpt lat="44.0613041" lon="7.7802858"><ele>1542.6</ele><time>2026-05-02T14:45:35.042Z</time></trkpt><trkpt lat="44.0612029" lon="7.780237"><ele>1542.0</ele><time>2026-05-02T14:45:37.042Z</time></trkpt><trkpt lat="44.0611273" lon="7.780109"><ele>1543.5</ele><time>2026-05-02T14:45:39.042Z</time></trkpt><trkpt lat="44.0611053" lon="7.7800036"><ele>1545.0</ele><time>2026-05-02T14:45:40.042Z</time></trkpt><trkpt lat="44.0611103" lon="7.7798086"><ele>1546.5</ele><time>2026-05-02T14:45:41.042Z</time></trkpt><trkpt lat="44.0611211" lon="7.7795736"><ele>1548.0</ele><time>2026-05-02T14:45:42.042Z</time></trkpt><trkpt lat="44.0611296" lon="7.7793541"><ele>1549.75</ele><time>2026-05-02T14:45:43.042Z</time></trkpt><trkpt lat="44.0611349" lon="7.7791554"><ele>1551.5</ele><time>2026-05-02T14:45:44.042Z</time></trkpt><trkpt lat="44.0611352" lon="7.7789619"><ele>1553.25</ele><time>2026-05-02T14:45:45.043Z</time></trkpt><trkpt lat="44.061133" lon="7.7787545"><ele>1555.0</ele><time>2026-05-02T14:45:46.042Z</time></trkpt><trkpt lat="44.061133" lon="7.7785401"><ele>1556.25</ele><time>2026-05-02T14:45:47.042Z</time></trkpt><trkpt lat="44.0611362" lon="7.7783467"><ele>1557.5</ele><time>2026-05-02T14:45:48.043Z</time></trkpt><trkpt lat="44.0611393" lon="7.778168"><ele>1558.75</ele><time>2026-05-02T14:45:49.042Z</time></trkpt><trkpt lat="44.0611447" lon="7.7780111"><ele>1560.0</ele><time>2026-05-02T14:45:50.042Z</time></trkpt><trkpt lat="44.0611509" lon="7.7778746"><ele>1560.0</ele><time>2026-05-02T14:45:51.042Z</time></trkpt><trkpt lat="44.0611544" lon="7.7777673"><ele>1560.0</ele><time>2026-05-02T14:45:52.042Z</time></trkpt><trkpt lat="44.0611406" lon="7.7776782"><ele>1560.0</ele><time>2026-05-02T14:45:53.043Z</time></trkpt><trkpt lat="44.0611066" lon="7.7775793"><ele>1560.0</ele><time>2026-05-02T14:45:54.042Z</time></trkpt><trkpt lat="44.0610584" lon="7.777477"><ele>1560.0</ele><time>2026-05-02T14:45:55.042Z</time></trkpt><trkpt lat="44.061001" lon="7.7773714"><ele>1560.0</ele><time>2026-05-02T14:45:56.042Z</time></trkpt><trkpt lat="44.0609375" lon="7.7772526"><ele>1558.2</ele><time>2026-05-02T14:45:57.042Z</time></trkpt><trkpt lat="44.060877" lon="7.777124"><ele>1556.4</ele><time>2026-05-02T14:45:58.042Z</time></trkpt><trkpt lat="44.0608261" lon="7.7770123"><ele>1554.6</ele><time>2026-05-02T14:45:59.042Z</time></trkpt><trkpt lat="44.0607784" lon="7.7769045"><ele>1552.8</ele><time>2026-05-02T14:46:00.042Z</time></trkpt><trkpt lat="44.0607242" lon="7.7767863"><ele>1551.0</ele><time>2026-05-02T14:46:01.042Z</time></trkpt><trkpt lat="44.0606668" lon="7.776674"><ele>1551.0</ele><time>2026-05-02T14:46:02.042Z</time></trkpt><trkpt lat="44.0606177" lon="7.7765494"><ele>1551.0</ele><time>2026-05-02T14:46:03.043Z</time></trkpt><trkpt lat="44.06058" lon="7.7764155"><ele>1551.0</ele><time>2026-05-02T14:46:04.042Z</time></trkpt><trkpt lat="44.0605505" lon="7.7762801"><ele>1551.0</ele><time>2026-05-02T14:46:05.042Z</time></trkpt><trkpt lat="44.0605302" lon="7.7761564"><ele>1551.0</ele><time>2026-05-02T14:46:06.042Z</time></trkpt><trkpt lat="44.0605153" lon="7.7760357"><ele>1553.0</ele><time>2026-05-02T14:46:07.042Z</time></trkpt><trkpt lat="44.0605003" lon="7.7759125"><ele>1555.0</ele><time>2026-05-02T14:46:08.042Z</time></trkpt><trkpt lat="44.0604935" lon="7.7757794"><ele>1557.0</ele><time>2026-05-02T14:46:09.042Z</time></trkpt><trkpt lat="44.0605034" lon="7.7756407"><ele>1559.0</ele><time>2026-05-02T14:46:10.042Z</time></trkpt><trkpt lat="44.0605288" lon="7.7755042"><ele>1561.0</ele><time>2026-05-02T14:46:11.043Z</time></trkpt><trkpt lat="44.0605656" lon="7.775371"><ele>1561.0</ele><time>2026-05-02T14:46:12.042Z</time></trkpt><trkpt lat="44.0606081" lon="7.775234"><ele>1561.0</ele><time>2026-05-02T14:46:13.043Z</time></trkpt><trkpt lat="44.0606552" lon="7.7750963"><ele>1561.0</ele><time>2026-05-02T14:46:14.042Z</time></trkpt><trkpt lat="44.0607045" lon="7.7749715"><ele>1561.0</ele><time>2026-05-02T14:46:15.042Z</time></trkpt><trkpt lat="44.0607459" lon="7.7748584"><ele>1561.0</ele><time>2026-05-02T14:46:16.042Z</time></trkpt><trkpt lat="44.0607696" lon="7.774761"><ele>1565.0</ele><time>2026-05-02T14:46:17.042Z</time></trkpt><trkpt lat="44.0607716" lon="7.774609"><ele>1569.0</ele><time>2026-05-02T14:46:19.043Z</time></trkpt><trkpt lat="44.0606954" lon="7.7745232"><ele>1573.0</ele><time>2026-05-02T14:46:21.043Z</time></trkpt><trkpt lat="44.06057" lon="7.7745617"><ele>1577.0</ele><time>2026-05-02T14:46:23.043Z</time></trkpt><trkpt lat="44.0604936" lon="7.774567"><ele>1581.0</ele><time>2026-05-02T14:46:24.043Z</time></trkpt><trkpt lat="44.0603984" lon="7.7745496"><ele>1581.0</ele><time>2026-05-02T14:46:25.042Z</time></trkpt><trkpt lat="44.0602826" lon="7.7745138"><ele>1581.0</ele><time>2026-05-02T14:46:26.043Z</time></trkpt><trkpt lat="44.0601654" lon="7.7744765"><ele>1581.0</ele><time>2026-05-02T14:46:27.043Z</time></trkpt><trkpt lat="44.0600695" lon="7.7744446"><ele>1581.0</ele><time>2026-05-02T14:46:28.042Z</time></trkpt><trkpt lat="44.0600002" lon="7.7744055"><ele>1581.0</ele><time>2026-05-02T14:46:29.042Z</time></trkpt><trkpt lat="44.0599276" lon="7.7742684"><ele>1583.0</ele><time>2026-05-02T14:46:31.043Z</time></trkpt><trkpt lat="44.0599069" lon="7.7741493"><ele>1585.0</ele><time>2026-05-02T14:46:32.042Z</time></trkpt><trkpt lat="44.0598804" lon="7.773999"><ele>1587.0</ele><time>2026-05-02T14:46:33.042Z</time></trkpt><trkpt lat="44.0598421" lon="7.7738309"><ele>1589.0</ele><time>2026-05-02T14:46:34.042Z</time></trkpt><trkpt lat="44.0597867" lon="7.7736529"><ele>1593.25</ele><time>2026-05-02T14:46:35.042Z</time></trkpt><trkpt lat="44.0597132" lon="7.7734711"><ele>1597.5</ele><time>2026-05-02T14:46:36.042Z</time></trkpt><trkpt lat="44.0596438" lon="7.7733038"><ele>1601.75</ele><time>2026-05-02T14:46:37.042Z</time></trkpt><trkpt lat="44.0595902" lon="7.7731652"><ele>1606.0</ele><time>2026-05-02T14:46:38.042Z</time></trkpt><trkpt lat="44.059535" lon="7.7730547"><ele>1606.0000000000002</ele><time>2026-05-02T14:46:39.043Z</time></trkpt><trkpt lat="44.0594709" lon="7.7729694"><ele>1606.0</ele><time>2026-05-02T14:46:40.042Z</time></trkpt><trkpt lat="44.0593934" lon="7.7728974"><ele>1606.0</ele><time>2026-05-02T14:46:41.043Z</time></trkpt><trkpt lat="44.0593205" lon="7.7728254"><ele>1606.0</ele><time>2026-05-02T14:46:42.043Z</time></trkpt><trkpt lat="44.0592502" lon="7.7727591"><ele>1606.0000000000002</ele><time>2026-05-02T14:46:43.042Z</time></trkpt><trkpt lat="44.0591877" lon="7.7727166"><ele>1606.0</ele><time>2026-05-02T14:46:44.042Z</time></trkpt><trkpt lat="44.0591007" lon="7.772753"><ele>1609.6</ele><time>2026-05-02T14:46:46.043Z</time></trkpt><trkpt lat="44.059063" lon="7.7728267"><ele>1613.1999999999998</ele><time>2026-05-02T14:46:47.042Z</time></trkpt><trkpt lat="44.059032" lon="7.7729323"><ele>1616.8000000000002</ele><time>2026-05-02T14:46:48.042Z</time></trkpt><trkpt lat="44.0590097" lon="7.7730767"><ele>1620.4</ele><time>2026-05-02T14:46:49.042Z</time></trkpt><trkpt lat="44.058995" lon="7.7732485"><ele>1624.0</ele><time>2026-05-02T14:46:50.042Z</time></trkpt><trkpt lat="44.0589758" lon="7.7733722"><ele>1624.0</ele><time>2026-05-02T14:46:51.043Z</time></trkpt><trkpt lat="44.0589057" lon="7.7734555"><ele>1624.0</ele><time>2026-05-02T14:46:53.043Z</time></trkpt><trkpt lat="44.0587942" lon="7.77342"><ele>1624.0</ele><time>2026-05-02T14:46:55.042Z</time></trkpt><trkpt lat="44.0587154" lon="7.7733625"><ele>1624.0</ele><time>2026-05-02T14:46:56.042Z</time></trkpt><trkpt lat="44.0586265" lon="7.7732787"><ele>1624.0</ele><time>2026-05-02T14:46:57.043Z</time></trkpt><trkpt lat="44.0585369" lon="7.7731981"><ele>1624.0</ele><time>2026-05-02T14:46:58.042Z</time></trkpt><trkpt lat="44.0584599" lon="7.7731374"><ele>1624.0</ele><time>2026-05-02T14:46:59.042Z</time></trkpt><trkpt lat="44.0583566" lon="7.7730947"><ele>1624.0</ele><time>2026-05-02T14:47:01.043Z</time></trkpt><trkpt lat="44.0582842" lon="7.7731876"><ele>1624.0</ele><time>2026-05-02T14:47:03.043Z</time></trkpt><trkpt lat="44.0582764" lon="7.7733064"><ele>1624.0</ele><time>2026-05-02T14:47:04.043Z</time></trkpt><trkpt lat="44.0583221" lon="7.7734876"><ele>1623.8000000000002</ele><time>2026-05-02T14:47:05.042Z</time></trkpt><trkpt lat="44.058345" lon="7.7736336"><ele>1623.6000000000001</ele><time>2026-05-02T14:47:06.042Z</time></trkpt><trkpt lat="44.0583368" lon="7.7737295"><ele>1623.4</ele><time>2026-05-02T14:47:07.042Z</time></trkpt><trkpt lat="44.0582609" lon="7.7738084"><ele>1623.2</ele><time>2026-05-02T14:47:09.042Z</time></trkpt><trkpt lat="44.0581409" lon="7.7737764"><ele>1623.0</ele><time>2026-05-02T14:47:11.042Z</time></trkpt><trkpt lat="44.0580583" lon="7.7737326"><ele>1623.0</ele><time>2026-05-02T14:47:12.042Z</time></trkpt><trkpt lat="44.0579623" lon="7.7736825"><ele>1623.0</ele><time>2026-05-02T14:47:13.042Z</time></trkpt><trkpt lat="44.0578631" lon="7.7736441"><ele>1623.0</ele><time>2026-05-02T14:47:14.042Z</time></trkpt><trkpt lat="44.0577702" lon="7.7736266"><ele>1623.0</ele><time>2026-05-02T14:47:15.042Z</time></trkpt><trkpt lat="44.0576794" lon="7.7736353"><ele>1623.0</ele><time>2026-05-02T14:47:16.043Z</time></trkpt><trkpt lat="44.0575895" lon="7.773674"><ele>1623.0</ele><time>2026-05-02T14:47:17.042Z</time></trkpt><trkpt lat="44.0575009" lon="7.7737338"><ele>1623.0</ele><time>2026-05-02T14:47:18.043Z</time></trkpt><trkpt lat="44.0574257" lon="7.7738099"><ele>1623.0</ele><time>2026-05-02T14:47:19.043Z</time></trkpt><trkpt lat="44.0573639" lon="7.7739167"><ele>1623.0</ele><time>2026-05-02T14:47:20.042Z</time></trkpt><trkpt lat="44.0573095" lon="7.7740231"><ele>1623.0</ele><time>2026-05-02T14:47:21.042Z</time></trkpt><trkpt lat="44.0572494" lon="7.7740898"><ele>1626.5</ele><time>2026-05-02T14:47:22.042Z</time></trkpt><trkpt lat="44.0571848" lon="7.7741448"><ele>1630.0</ele><time>2026-05-02T14:47:23.042Z</time></trkpt><trkpt lat="44.0571152" lon="7.7741836"><ele>1633.5</ele><time>2026-05-02T14:47:24.042Z</time></trkpt><trkpt lat="44.0570355" lon="7.774195"><ele>1637.0</ele><time>2026-05-02T14:47:25.043Z</time></trkpt><trkpt lat="44.0569459" lon="7.7741898"><ele>1640.5</ele><time>2026-05-02T14:47:26.042Z</time></trkpt><trkpt lat="44.0568549" lon="7.7741915"><ele>1644.0</ele><time>2026-05-02T14:47:27.043Z</time></trkpt><trkpt lat="44.0567714" lon="7.7742337"><ele>1644.0</ele><time>2026-05-02T14:47:28.042Z</time></trkpt><trkpt lat="44.0566872" lon="7.7743164"><ele>1644.0</ele><time>2026-05-02T14:47:29.042Z</time></trkpt><trkpt lat="44.0565947" lon="7.7743941"><ele>1644.0</ele><time>2026-05-02T14:47:30.042Z</time></trkpt><trkpt lat="44.0564887" lon="7.7744593"><ele>1644.0</ele><time>2026-05-02T14:47:31.042Z</time></trkpt><trkpt lat="44.0563807" lon="7.7745344"><ele>1644.0</ele><time>2026-05-02T14:47:32.042Z</time></trkpt><trkpt lat="44.0562758" lon="7.7746297"><ele>1645.0</ele><time>2026-05-02T14:47:33.042Z</time></trkpt><trkpt lat="44.0561749" lon="7.7747438"><ele>1646.0</ele><time>2026-05-02T14:47:34.042Z</time></trkpt><trkpt lat="44.0560752" lon="7.7748587"><ele>1647.0</ele><time>2026-05-02T14:47:35.042Z</time></trkpt><trkpt lat="44.0559748" lon="7.774958"><ele>1648.0</ele><time>2026-05-02T14:47:36.042Z</time></trkpt><trkpt lat="44.0558785" lon="7.7750465"><ele>1648.0000000000002</ele><time>2026-05-02T14:47:37.043Z</time></trkpt><trkpt lat="44.0557963" lon="7.7751194"><ele>1648.0</ele><time>2026-05-02T14:47:38.042Z</time></trkpt><trkpt lat="44.0557252" lon="7.7751826"><ele>1648.0</ele><time>2026-05-02T14:47:39.042Z</time></trkpt><trkpt lat="44.0556609" lon="7.7752372"><ele>1648.0</ele><time>2026-05-02T14:47:40.043Z</time></trkpt><trkpt lat="44.0555986" lon="7.7752573"><ele>1648.0000000000002</ele><time>2026-05-02T14:47:41.042Z</time></trkpt><trkpt lat="44.0555292" lon="7.7752454"><ele>1648.0</ele><time>2026-05-02T14:47:42.043Z</time></trkpt><trkpt lat="44.0554507" lon="7.7752154"><ele>1648.8000000000002</ele><time>2026-05-02T14:47:43.043Z</time></trkpt><trkpt lat="44.0553666" lon="7.7751656"><ele>1649.6</ele><time>2026-05-02T14:47:44.042Z</time></trkpt><trkpt lat="44.0552836" lon="7.7751"><ele>1650.4</ele><time>2026-05-02T14:47:45.043Z</time></trkpt><trkpt lat="44.0552036" lon="7.775025"><ele>1651.1999999999998</ele><time>2026-05-02T14:47:46.042Z</time></trkpt><trkpt lat="44.0551219" lon="7.7749323"><ele>1652.0</ele><time>2026-05-02T14:47:47.042Z</time></trkpt><trkpt lat="44.0550442" lon="7.7748386"><ele>1652.0</ele><time>2026-05-02T14:47:48.043Z</time></trkpt><trkpt lat="44.0549707" lon="7.7747618"><ele>1652.0</ele><time>2026-05-02T14:47:49.042Z</time></trkpt><trkpt lat="44.0549019" lon="7.7747069"><ele>1652.0</ele><time>2026-05-02T14:47:50.042Z</time></trkpt><trkpt lat="44.0548138" lon="7.7746619"><ele>1652.0</ele><time>2026-05-02T14:47:51.042Z</time></trkpt><trkpt lat="44.0547201" lon="7.7746202"><ele>1652.0</ele><time>2026-05-02T14:47:52.042Z</time></trkpt><trkpt lat="44.0546264" lon="7.7745601"><ele>1650.1666666666665</ele><time>2026-05-02T14:47:53.043Z</time></trkpt><trkpt lat="44.0545297" lon="7.7744948"><ele>1648.3333333333333</ele><time>2026-05-02T14:47:54.042Z</time></trkpt><trkpt lat="44.0544464" lon="7.774452"><ele>1646.5</ele><time>2026-05-02T14:47:55.042Z</time></trkpt><trkpt lat="44.0543725" lon="7.7744132"><ele>1644.6666666666665</ele><time>2026-05-02T14:47:56.042Z</time></trkpt><trkpt lat="44.0542976" lon="7.7743992"><ele>1642.8333333333333</ele><time>2026-05-02T14:47:57.043Z</time></trkpt><trkpt lat="44.0542217" lon="7.7743674"><ele>1641.0</ele><time>2026-05-02T14:47:58.042Z</time></trkpt><trkpt lat="44.0541532" lon="7.7743242"><ele>1647.8333333333333</ele><time>2026-05-02T14:47:59.043Z</time></trkpt><trkpt lat="44.0540872" lon="7.7742567"><ele>1654.6666666666665</ele><time>2026-05-02T14:48:00.042Z</time></trkpt><trkpt lat="44.054028" lon="7.7741694"><ele>1661.5</ele><time>2026-05-02T14:48:01.043Z</time></trkpt><trkpt lat="44.0539697" lon="7.7740816"><ele>1668.3333333333333</ele><time>2026-05-02T14:48:02.042Z</time></trkpt><trkpt lat="44.0539124" lon="7.7739863"><ele>1675.1666666666665</ele><time>2026-05-02T14:48:03.042Z</time></trkpt><trkpt lat="44.0538589" lon="7.7738989"><ele>1682.0</ele><time>2026-05-02T14:48:04.042Z</time></trkpt><trkpt lat="44.0538076" lon="7.7738279"><ele>1682.0</ele><time>2026-05-02T14:48:05.042Z</time></trkpt><trkpt lat="44.0537014" lon="7.7737732"><ele>1682.0</ele><time>2026-05-02T14:48:07.042Z</time></trkpt><trkpt lat="44.0535575" lon="7.7738942"><ele>1682.0</ele><time>2026-05-02T14:48:09.042Z</time></trkpt><trkpt lat="44.0534915" lon="7.7739549"><ele>1682.0</ele><time>2026-05-02T14:48:10.042Z</time></trkpt><trkpt lat="44.0534296" lon="7.774028"><ele>1682.0</ele><time>2026-05-02T14:48:11.042Z</time></trkpt><trkpt lat="44.0533906" lon="7.7741338"><ele>1681.9999999999998</ele><time>2026-05-02T14:48:12.044Z</time></trkpt><trkpt lat="44.0533498" lon="7.7742091"><ele>1682.0</ele><time>2026-05-02T14:48:13.043Z</time></trkpt><trkpt lat="44.0533024" lon="7.7743068"><ele>1682.0</ele><time>2026-05-02T14:48:14.042Z</time></trkpt><trkpt lat="44.0532744" lon="7.7743952"><ele>1682.0</ele><time>2026-05-02T14:48:15.042Z</time></trkpt><trkpt lat="44.0532315" lon="7.7744981"><ele>1681.9999999999998</ele><time>2026-05-02T14:48:16.042Z</time></trkpt><trkpt lat="44.0531918" lon="7.7745864"><ele>1682.0</ele><time>2026-05-02T14:48:17.042Z</time></trkpt><trkpt lat="44.0531502" lon="7.7746874"><ele>1684.6666666666665</ele><time>2026-05-02T14:48:18.042Z</time></trkpt><trkpt lat="44.0530992" lon="7.7747742"><ele>1687.3333333333333</ele><time>2026-05-02T14:48:19.042Z</time></trkpt><trkpt lat="44.053046" lon="7.7748651"><ele>1690.0</ele><time>2026-05-02T14:48:20.042Z</time></trkpt><trkpt lat="44.0529863" lon="7.7749552"><ele>1692.6666666666665</ele><time>2026-05-02T14:48:21.043Z</time></trkpt><trkpt lat="44.0529121" lon="7.775022"><ele>1695.3333333333333</ele><time>2026-05-02T14:48:22.042Z</time></trkpt><trkpt lat="44.0528386" lon="7.7750763"><ele>1698.0</ele><time>2026-05-02T14:48:23.042Z</time></trkpt><trkpt lat="44.0527676" lon="7.775134"><ele>1698.0</ele><time>2026-05-02T14:48:24.042Z</time></trkpt><trkpt lat="44.0527017" lon="7.7751716"><ele>1698.0</ele><time>2026-05-02T14:48:25.042Z</time></trkpt><trkpt lat="44.0525932" lon="7.7752317"><ele>1698.0</ele><time>2026-05-02T14:48:27.042Z</time></trkpt><trkpt lat="44.0525186" lon="7.77526"><ele>1698.0</ele><time>2026-05-02T14:48:28.042Z</time></trkpt><trkpt lat="44.0524479" lon="7.7753111"><ele>1698.0</ele><time>2026-05-02T14:48:29.042Z</time></trkpt><trkpt lat="44.0523958" lon="7.7753716"><ele>1698.0</ele><time>2026-05-02T14:48:30.043Z</time></trkpt><trkpt lat="44.0523095" lon="7.7755012"><ele>1701.1666666666667</ele><time>2026-05-02T14:48:32.042Z</time></trkpt><trkpt lat="44.0523304" lon="7.7756382"><ele>1704.3333333333335</ele><time>2026-05-02T14:48:33.042Z</time></trkpt><trkpt lat="44.0523166" lon="7.7757463"><ele>1707.5</ele><time>2026-05-02T14:48:34.042Z</time></trkpt><trkpt lat="44.0523018" lon="7.7758352"><ele>1710.6666666666667</ele><time>2026-05-02T14:48:35.042Z</time></trkpt><trkpt lat="44.0522896" lon="7.7759498"><ele>1713.8333333333335</ele><time>2026-05-02T14:48:36.042Z</time></trkpt><trkpt lat="44.052278" lon="7.7760783"><ele>1717.0</ele><time>2026-05-02T14:48:37.042Z</time></trkpt><trkpt lat="44.0522811" lon="7.7762026"><ele>1717.0000000000002</ele><time>2026-05-02T14:48:38.042Z</time></trkpt><trkpt lat="44.0522671" lon="7.7763246"><ele>1717.0</ele><time>2026-05-02T14:48:39.042Z</time></trkpt><trkpt lat="44.0522593" lon="7.776435"><ele>1717.0</ele><time>2026-05-02T14:48:40.042Z</time></trkpt><trkpt lat="44.0522456" lon="7.7765442"><ele>1717.0</ele><time>2026-05-02T14:48:41.042Z</time></trkpt><trkpt lat="44.052221" lon="7.7766653"><ele>1717.0000000000002</ele><time>2026-05-02T14:48:42.043Z</time></trkpt><trkpt lat="44.0521969" lon="7.7767745"><ele>1717.0</ele><time>2026-05-02T14:48:43.043Z</time></trkpt><trkpt lat="44.0521711" lon="7.7768995"><ele>1715.1999999999998</ele><time>2026-05-02T14:48:44.042Z</time></trkpt><trkpt lat="44.0521349" lon="7.7770191"><ele>1713.3999999999999</ele><time>2026-05-02T14:48:45.042Z</time></trkpt><trkpt lat="44.0520924" lon="7.7771498"><ele>1711.6000000000001</ele><time>2026-05-02T14:48:46.042Z</time></trkpt><trkpt lat="44.052036" lon="7.7772681"><ele>1709.8000000000002</ele><time>2026-05-02T14:48:47.043Z</time></trkpt><trkpt lat="44.0519577" lon="7.7773868"><ele>1708.0</ele><time>2026-05-02T14:48:48.042Z</time></trkpt><trkpt lat="44.05188" lon="7.7775046"><ele>1708.0000000000002</ele><time>2026-05-02T14:48:49.042Z</time></trkpt><trkpt lat="44.0518126" lon="7.7776039"><ele>1708.0</ele><time>2026-05-02T14:48:50.042Z</time></trkpt><trkpt lat="44.0517697" lon="7.777697"><ele>1708.0</ele><time>2026-05-02T14:48:51.042Z</time></trkpt><trkpt lat="44.0517202" lon="7.7777855"><ele>1708.0</ele><time>2026-05-02T14:48:52.043Z</time></trkpt><trkpt lat="44.0516596" lon="7.7778823"><ele>1708.0000000000002</ele><time>2026-05-02T14:48:53.043Z</time></trkpt><trkpt lat="44.0515955" lon="7.7779695"><ele>1708.0</ele><time>2026-05-02T14:48:54.043Z</time></trkpt><trkpt lat="44.0515235" lon="7.7780367"><ele>1707.6000000000001</ele><time>2026-05-02T14:48:55.043Z</time></trkpt><trkpt lat="44.051441" lon="7.7780805"><ele>1707.2000000000003</ele><time>2026-05-02T14:48:56.042Z</time></trkpt><trkpt lat="44.0513523" lon="7.7781069"><ele>1706.8</ele><time>2026-05-02T14:48:57.043Z</time></trkpt><trkpt lat="44.0512558" lon="7.7781136"><ele>1706.4</ele><time>2026-05-02T14:48:58.043Z</time></trkpt><trkpt lat="44.0511606" lon="7.7781137"><ele>1706.0</ele><time>2026-05-02T14:48:59.043Z</time></trkpt><trkpt lat="44.0510695" lon="7.7781301"><ele>1705.9999999999998</ele><time>2026-05-02T14:49:00.042Z</time></trkpt><trkpt lat="44.0509823" lon="7.7781688"><ele>1706.0</ele><time>2026-05-02T14:49:01.042Z</time></trkpt><trkpt lat="44.050896" lon="7.7782117"><ele>1706.0</ele><time>2026-05-02T14:49:02.042Z</time></trkpt><trkpt lat="44.0508078" lon="7.7782376"><ele>1706.0</ele><time>2026-05-02T14:49:03.042Z</time></trkpt><trkpt lat="44.0507213" lon="7.7782485"><ele>1705.9999999999998</ele><time>2026-05-02T14:49:04.042Z</time></trkpt><trkpt lat="44.050637" lon="7.7782272"><ele>1706.0</ele><time>2026-05-02T14:49:05.042Z</time></trkpt><trkpt lat="44.0505552" lon="7.778187"><ele>1705.8</ele><time>2026-05-02T14:49:06.042Z</time></trkpt><trkpt lat="44.050474" lon="7.7781258"><ele>1705.6</ele><time>2026-05-02T14:49:07.042Z</time></trkpt><trkpt lat="44.0503887" lon="7.7780569"><ele>1705.4</ele><time>2026-05-02T14:49:08.042Z</time></trkpt><trkpt lat="44.0502991" lon="7.7779948"><ele>1705.2</ele><time>2026-05-02T14:49:09.042Z</time></trkpt><trkpt lat="44.0502015" lon="7.777946"><ele>1705.0</ele><time>2026-05-02T14:49:10.042Z</time></trkpt><trkpt lat="44.050109" lon="7.7778976"><ele>1705.0</ele><time>2026-05-02T14:49:11.042Z</time></trkpt><trkpt lat="44.0500136" lon="7.7778402"><ele>1705.0</ele><time>2026-05-02T14:49:12.042Z</time></trkpt><trkpt lat="44.0499199" lon="7.7777753"><ele>1705.0</ele><time>2026-05-02T14:49:13.042Z</time></trkpt><trkpt lat="44.0498419" lon="7.7777051"><ele>1705.0</ele><time>2026-05-02T14:49:14.042Z</time></trkpt><trkpt lat="44.0497698" lon="7.777622"><ele>1705.0</ele><time>2026-05-02T14:49:15.042Z</time></trkpt><trkpt lat="44.0496988" lon="7.7775275"><ele>1707.8333333333335</ele><time>2026-05-02T14:49:16.043Z</time></trkpt><trkpt lat="44.0496339" lon="7.7774524"><ele>1710.6666666666667</ele><time>2026-05-02T14:49:17.042Z</time></trkpt><trkpt lat="44.0495598" lon="7.7774012"><ele>1713.5</ele><time>2026-05-02T14:49:18.042Z</time></trkpt><trkpt lat="44.0494777" lon="7.7773688"><ele>1716.3333333333335</ele><time>2026-05-02T14:49:19.042Z</time></trkpt><trkpt lat="44.049403" lon="7.7773346"><ele>1719.1666666666667</ele><time>2026-05-02T14:49:20.042Z</time></trkpt><trkpt lat="44.0493401" lon="7.7772856"><ele>1722.0</ele><time>2026-05-02T14:49:21.042Z</time></trkpt><trkpt lat="44.0492768" lon="7.7772212"><ele>1722.0</ele><time>2026-05-02T14:49:22.042Z</time></trkpt><trkpt lat="44.0492076" lon="7.7771666"><ele>1722.0</ele><time>2026-05-02T14:49:23.042Z</time></trkpt><trkpt lat="44.0491348" lon="7.7771537"><ele>1722.0</ele><time>2026-05-02T14:49:24.042Z</time></trkpt><trkpt lat="44.049064" lon="7.7771749"><ele>1722.0</ele><time>2026-05-02T14:49:25.043Z</time></trkpt><trkpt lat="44.0489938" lon="7.7771937"><ele>1722.0</ele><time>2026-05-02T14:49:26.042Z</time></trkpt><trkpt lat="44.0489156" lon="7.7771887"><ele>1722.0</ele><time>2026-05-02T14:49:27.042Z</time></trkpt><trkpt lat="44.0488336" lon="7.7771682"><ele>1720.5</ele><time>2026-05-02T14:49:28.042Z</time></trkpt><trkpt lat="44.0487515" lon="7.7771281"><ele>1719.0</ele><time>2026-05-02T14:49:29.042Z</time></trkpt><trkpt lat="44.048673" lon="7.777073"><ele>1717.5</ele><time>2026-05-02T14:49:30.043Z</time></trkpt><trkpt lat="44.0485979" lon="7.7770108"><ele>1716.0</ele><time>2026-05-02T14:49:31.042Z</time></trkpt><trkpt lat="44.0485225" lon="7.7769458"><ele>1714.5</ele><time>2026-05-02T14:49:32.042Z</time></trkpt><trkpt lat="44.0484417" lon="7.7768819"><ele>1713.0</ele><time>2026-05-02T14:49:33.042Z</time></trkpt><trkpt lat="44.0483577" lon="7.7768233"><ele>1714.1666666666667</ele><time>2026-05-02T14:49:34.043Z</time></trkpt><trkpt lat="44.0482826" lon="7.7767655"><ele>1715.3333333333335</ele><time>2026-05-02T14:49:35.042Z</time></trkpt><trkpt lat="44.0482126" lon="7.7766989"><ele>1716.5</ele><time>2026-05-02T14:49:36.043Z</time></trkpt><trkpt lat="44.0481481" lon="7.7766157"><ele>1717.6666666666667</ele><time>2026-05-02T14:49:37.042Z</time></trkpt><trkpt lat="44.0480918" lon="7.7765168"><ele>1718.8333333333335</ele><time>2026-05-02T14:49:38.043Z</time></trkpt><trkpt lat="44.0480411" lon="7.7764068"><ele>1720.0</ele><time>2026-05-02T14:49:39.043Z</time></trkpt><trkpt lat="44.0479926" lon="7.7762926"><ele>1720.0</ele><time>2026-05-02T14:49:40.042Z</time></trkpt><trkpt lat="44.0479318" lon="7.7761868"><ele>1720.0</ele><time>2026-05-02T14:49:41.043Z</time></trkpt><trkpt lat="44.047863" lon="7.7760969"><ele>1720.0</ele><time>2026-05-02T14:49:42.042Z</time></trkpt><trkpt lat="44.0477976" lon="7.776006"><ele>1720.0</ele><time>2026-05-02T14:49:43.042Z</time></trkpt><trkpt lat="44.0477429" lon="7.7759024"><ele>1720.0</ele><time>2026-05-02T14:49:44.042Z</time></trkpt><trkpt lat="44.0477018" lon="7.7757839"><ele>1724.6</ele><time>2026-05-02T14:49:45.042Z</time></trkpt><trkpt lat="44.0476783" lon="7.7756527"><ele>1729.2</ele><time>2026-05-02T14:49:46.042Z</time></trkpt><trkpt lat="44.0476673" lon="7.7755166"><ele>1733.8000000000002</ele><time>2026-05-02T14:49:47.042Z</time></trkpt><trkpt lat="44.0476442" lon="7.775401"><ele>1738.4</ele><time>2026-05-02T14:49:48.043Z</time></trkpt><trkpt lat="44.0475973" lon="7.7752967"><ele>1743.0</ele><time>2026-05-02T14:49:49.042Z</time></trkpt><trkpt lat="44.0475334" lon="7.7751974"><ele>1746.6666666666667</ele><time>2026-05-02T14:49:50.042Z</time></trkpt><trkpt lat="44.0474702" lon="7.7751029"><ele>1750.3333333333335</ele><time>2026-05-02T14:49:51.042Z</time></trkpt><trkpt lat="44.0474073" lon="7.7750245"><ele>1754.0</ele><time>2026-05-02T14:49:52.042Z</time></trkpt><trkpt lat="44.0473365" lon="7.7749796"><ele>1757.6666666666667</ele><time>2026-05-02T14:49:53.042Z</time></trkpt><trkpt lat="44.0472516" lon="7.7749693"><ele>1761.3333333333335</ele><time>2026-05-02T14:49:54.042Z</time></trkpt><trkpt lat="44.0471625" lon="7.774964"><ele>1765.0</ele><time>2026-05-02T14:49:55.043Z</time></trkpt><trkpt lat="44.0470702" lon="7.7749715"><ele>1765.2</ele><time>2026-05-02T14:49:56.042Z</time></trkpt><trkpt lat="44.0469739" lon="7.7749899"><ele>1765.4</ele><time>2026-05-02T14:49:57.042Z</time></trkpt><trkpt lat="44.0468787" lon="7.7750109"><ele>1765.6</ele><time>2026-05-02T14:49:58.043Z</time></trkpt><trkpt lat="44.046786" lon="7.7750429"><ele>1765.8</ele><time>2026-05-02T14:49:59.042Z</time></trkpt><trkpt lat="44.0466992" lon="7.7750639"><ele>1766.0</ele><time>2026-05-02T14:50:00.042Z</time></trkpt><trkpt lat="44.0466057" lon="7.7750684"><ele>1767.8</ele><time>2026-05-02T14:50:01.042Z</time></trkpt><trkpt lat="44.046507" lon="7.7750657"><ele>1769.6</ele><time>2026-05-02T14:50:02.042Z</time></trkpt><trkpt lat="44.0464075" lon="7.7750589"><ele>1771.4</ele><time>2026-05-02T14:50:03.043Z</time></trkpt><trkpt lat="44.0463054" lon="7.7750523"><ele>1773.2</ele><time>2026-05-02T14:50:04.043Z</time></trkpt><trkpt lat="44.0462028" lon="7.7750416"><ele>1775.0</ele><time>2026-05-02T14:50:05.042Z</time></trkpt><trkpt lat="44.0461087" lon="7.775039"><ele>1774.9999999999998</ele><time>2026-05-02T14:50:06.042Z</time></trkpt><trkpt lat="44.0460291" lon="7.7750588"><ele>1775.0</ele><time>2026-05-02T14:50:07.042Z</time></trkpt><trkpt lat="44.0459542" lon="7.7751088"><ele>1775.0</ele><time>2026-05-02T14:50:08.043Z</time></trkpt><trkpt lat="44.045884" lon="7.7751679"><ele>1775.0</ele><time>2026-05-02T14:50:09.042Z</time></trkpt><trkpt lat="44.0458194" lon="7.7752326"><ele>1774.9999999999998</ele><time>2026-05-02T14:50:10.043Z</time></trkpt><trkpt lat="44.0457645" lon="7.7752901"><ele>1775.0</ele><time>2026-05-02T14:50:11.043Z</time></trkpt><trkpt lat="44.0456849" lon="7.7753593"><ele>1775.8333333333333</ele><time>2026-05-02T14:50:13.042Z</time></trkpt><trkpt lat="44.0456261" lon="7.775399"><ele>1776.6666666666665</ele><time>2026-05-02T14:50:16.042Z</time></trkpt><trkpt lat="44.0455633" lon="7.7753561"><ele>1777.5</ele><time>2026-05-02T14:50:18.042Z</time></trkpt><trkpt lat="44.0454714" lon="7.7752297"><ele>1778.3333333333335</ele><time>2026-05-02T14:50:20.042Z</time></trkpt><trkpt lat="44.0454205" lon="7.7751626"><ele>1779.1666666666667</ele><time>2026-05-02T14:50:21.043Z</time></trkpt><trkpt lat="44.045369" lon="7.7750955"><ele>1780.0</ele><time>2026-05-02T14:50:22.042Z</time></trkpt><trkpt lat="44.04532" lon="7.7750298"><ele>1776.0000000000002</ele><time>2026-05-02T14:50:23.042Z</time></trkpt><trkpt lat="44.0452796" lon="7.7749523"><ele>1772.0</ele><time>2026-05-02T14:50:24.042Z</time></trkpt><trkpt lat="44.0452547" lon="7.7748642"><ele>1768.0</ele><time>2026-05-02T14:50:28.043Z</time></trkpt><trkpt lat="44.0452884" lon="7.7747379"><ele>1764.0</ele><time>2026-05-02T14:50:55.042Z</time></trkpt><trkpt lat="44.045333" lon="7.7745796"><ele>1760.0000000000002</ele><time>2026-05-02T14:50:57.042Z</time></trkpt><trkpt lat="44.045364" lon="7.7744861"><ele>1756.0</ele><time>2026-05-02T14:50:58.043Z</time></trkpt><trkpt lat="44.0453968" lon="7.7743932"><ele>1750.3333333333335</ele><time>2026-05-02T14:50:59.042Z</time></trkpt><trkpt lat="44.0454331" lon="7.7743074"><ele>1744.6666666666667</ele><time>2026-05-02T14:51:00.043Z</time></trkpt><trkpt lat="44.0454712" lon="7.7742329"><ele>1739.0</ele><time>2026-05-02T14:51:01.042Z</time></trkpt><trkpt lat="44.0455138" lon="7.774165"><ele>1733.3333333333335</ele><time>2026-05-02T14:51:02.042Z</time></trkpt><trkpt lat="44.0455994" lon="7.7740373"><ele>1727.6666666666667</ele><time>2026-05-02T14:51:04.042Z</time></trkpt><trkpt lat="44.0456761" lon="7.7739136"><ele>1722.0</ele><time>2026-05-02T14:51:06.042Z</time></trkpt><trkpt lat="44.0457239" lon="7.7738423"><ele>1722.0</ele><time>2026-05-02T14:51:07.042Z</time></trkpt><trkpt lat="44.0457695" lon="7.7737525"><ele>1722.0</ele><time>2026-05-02T14:51:08.042Z</time></trkpt><trkpt lat="44.0458154" lon="7.7736772"><ele>1722.0</ele><time>2026-05-02T14:51:09.042Z</time></trkpt><trkpt lat="44.0458494" lon="7.7735959"><ele>1722.0</ele><time>2026-05-02T14:51:10.043Z</time></trkpt><trkpt lat="44.0458779" lon="7.7735135"><ele>1722.0</ele><time>2026-05-02T14:51:11.042Z</time></trkpt><trkpt lat="44.0459043" lon="7.7734209"><ele>1722.0</ele><time>2026-05-02T14:51:12.042Z</time></trkpt><trkpt lat="44.045924" lon="7.7733232"><ele>1722.0</ele><time>2026-05-02T14:51:13.042Z</time></trkpt><trkpt lat="44.0459351" lon="7.7732117"><ele>1725.1666666666667</ele><time>2026-05-02T14:51:14.042Z</time></trkpt><trkpt lat="44.0459413" lon="7.7731047"><ele>1728.3333333333335</ele><time>2026-05-02T14:51:15.043Z</time></trkpt><trkpt lat="44.0459486" lon="7.7729899"><ele>1731.5</ele><time>2026-05-02T14:51:16.042Z</time></trkpt><trkpt lat="44.0459586" lon="7.7728655"><ele>1734.6666666666667</ele><time>2026-05-02T14:51:17.042Z</time></trkpt><trkpt lat="44.0459794" lon="7.7727518"><ele>1737.8333333333335</ele><time>2026-05-02T14:51:18.042Z</time></trkpt><trkpt lat="44.0460036" lon="7.7726436"><ele>1741.0</ele><time>2026-05-02T14:51:19.042Z</time></trkpt><trkpt lat="44.0460252" lon="7.7725329"><ele>1741.0000000000002</ele><time>2026-05-02T14:51:20.043Z</time></trkpt><trkpt lat="44.0460476" lon="7.7724315"><ele>1741.0</ele><time>2026-05-02T14:51:21.042Z</time></trkpt><trkpt lat="44.046067" lon="7.7723223"><ele>1741.0</ele><time>2026-05-02T14:51:22.043Z</time></trkpt><trkpt lat="44.0460909" lon="7.7722155"><ele>1741.0</ele><time>2026-05-02T14:51:23.042Z</time></trkpt><trkpt lat="44.0461036" lon="7.772099"><ele>1741.0000000000002</ele><time>2026-05-02T14:51:24.043Z</time></trkpt><trkpt lat="44.0461017" lon="7.7719833"><ele>1741.0</ele><time>2026-05-02T14:51:25.042Z</time></trkpt><trkpt lat="44.0460864" lon="7.7718677"><ele>1739.8333333333335</ele><time>2026-05-02T14:51:26.043Z</time></trkpt><trkpt lat="44.0460575" lon="7.7717533"><ele>1738.6666666666667</ele><time>2026-05-02T14:51:27.042Z</time></trkpt><trkpt lat="44.0460219" lon="7.7716357"><ele>1737.5</ele><time>2026-05-02T14:51:28.042Z</time></trkpt><trkpt lat="44.0459832" lon="7.7715359"><ele>1736.3333333333335</ele><time>2026-05-02T14:51:29.043Z</time></trkpt><trkpt lat="44.045946" lon="7.7714358"><ele>1735.1666666666667</ele><time>2026-05-02T14:51:30.042Z</time></trkpt><trkpt lat="44.0459098" lon="7.7713402"><ele>1734.0</ele><time>2026-05-02T14:51:31.042Z</time></trkpt><trkpt lat="44.0458923" lon="7.7712536"><ele>1734.0</ele><time>2026-05-02T14:51:32.042Z</time></trkpt><trkpt lat="44.045888" lon="7.7711601"><ele>1734.0</ele><time>2026-05-02T14:51:33.042Z</time></trkpt><trkpt lat="44.045898" lon="7.7710698"><ele>1734.0</ele><time>2026-05-02T14:51:34.042Z</time></trkpt><trkpt lat="44.0459299" lon="7.7709716"><ele>1734.0</ele><time>2026-05-02T14:51:35.043Z</time></trkpt><trkpt lat="44.0459719" lon="7.7708729"><ele>1734.0</ele><time>2026-05-02T14:51:36.042Z</time></trkpt><trkpt lat="44.0460129" lon="7.7707685"><ele>1734.0</ele><time>2026-05-02T14:51:37.042Z</time></trkpt><trkpt lat="44.0460172" lon="7.7706677"><ele>1733.8333333333333</ele><time>2026-05-02T14:51:38.042Z</time></trkpt><trkpt lat="44.0460275" lon="7.7705547"><ele>1733.6666666666665</ele><time>2026-05-02T14:51:39.042Z</time></trkpt><trkpt lat="44.0460301" lon="7.7704365"><ele>1733.5</ele><time>2026-05-02T14:51:40.043Z</time></trkpt><trkpt lat="44.0460426" lon="7.7703327"><ele>1733.3333333333333</ele><time>2026-05-02T14:51:41.042Z</time></trkpt><trkpt lat="44.0460605" lon="7.770216"><ele>1733.1666666666665</ele><time>2026-05-02T14:51:42.043Z</time></trkpt><trkpt lat="44.0460784" lon="7.7700872"><ele>1733.0</ele><time>2026-05-02T14:51:43.042Z</time></trkpt><trkpt lat="44.0461036" lon="7.7699656"><ele>1730.4999999999998</ele><time>2026-05-02T14:51:44.043Z</time></trkpt><trkpt lat="44.0461308" lon="7.7698518"><ele>1728.0</ele><time>2026-05-02T14:51:45.043Z</time></trkpt><trkpt lat="44.0461482" lon="7.7697446"><ele>1725.5</ele><time>2026-05-02T14:51:46.043Z</time></trkpt><trkpt lat="44.0461628" lon="7.7696424"><ele>1723.0</ele><time>2026-05-02T14:51:47.043Z</time></trkpt><trkpt lat="44.0461799" lon="7.7695533"><ele>1720.4999999999998</ele><time>2026-05-02T14:51:48.043Z</time></trkpt><trkpt lat="44.0462229" lon="7.7694148"><ele>1718.0</ele><time>2026-05-02T14:51:50.043Z</time></trkpt><trkpt lat="44.0462976" lon="7.7693298"><ele>1720.3333333333333</ele><time>2026-05-02T14:51:52.043Z</time></trkpt><trkpt lat="44.0464345" lon="7.7692821"><ele>1722.6666666666665</ele><time>2026-05-02T14:51:54.043Z</time></trkpt><trkpt lat="44.0465005" lon="7.7692588"><ele>1725.0</ele><time>2026-05-02T14:51:55.044Z</time></trkpt><trkpt lat="44.0465695" lon="7.7692403"><ele>1727.3333333333335</ele><time>2026-05-02T14:51:56.043Z</time></trkpt><trkpt lat="44.0466381" lon="7.7692179"><ele>1729.6666666666667</ele><time>2026-05-02T14:51:57.043Z</time></trkpt><trkpt lat="44.0467061" lon="7.7691977"><ele>1732.0</ele><time>2026-05-02T14:51:58.044Z</time></trkpt><trkpt lat="44.0468249" lon="7.7690802"><ele>1732.0</ele><time>2026-05-02T14:52:00.043Z</time></trkpt><trkpt lat="44.0468547" lon="7.7689841"><ele>1731.9999999999998</ele><time>2026-05-02T14:52:01.043Z</time></trkpt><trkpt lat="44.046889" lon="7.7689033"><ele>1731.9999999999998</ele><time>2026-05-02T14:52:02.043Z</time></trkpt><trkpt lat="44.0469097" lon="7.768813"><ele>1732.0</ele><time>2026-05-02T14:52:03.044Z</time></trkpt><trkpt lat="44.0469416" lon="7.7686546"><ele>1732.0</ele><time>2026-05-02T14:52:05.043Z</time></trkpt><trkpt lat="44.047034" lon="7.7685423"><ele>1722.8333333333335</ele><time>2026-05-02T14:52:07.044Z</time></trkpt><trkpt lat="44.0471029" lon="7.7684989"><ele>1713.6666666666667</ele><time>2026-05-02T14:52:08.044Z</time></trkpt><trkpt lat="44.0471782" lon="7.7684558"><ele>1704.5</ele><time>2026-05-02T14:52:09.044Z</time></trkpt><trkpt lat="44.0472442" lon="7.768413"><ele>1695.3333333333335</ele><time>2026-05-02T14:52:10.043Z</time></trkpt><trkpt lat="44.0473034" lon="7.7683743"><ele>1686.1666666666667</ele><time>2026-05-02T14:52:11.044Z</time></trkpt><trkpt lat="44.047358" lon="7.7683257"><ele>1677.0</ele><time>2026-05-02T14:52:12.044Z</time></trkpt><trkpt lat="44.0474084" lon="7.7681531"><ele>1677.0</ele><time>2026-05-02T14:52:14.043Z</time></trkpt><trkpt lat="44.0474396" lon="7.7680516"><ele>1677.0</ele><time>2026-05-02T14:52:15.044Z</time></trkpt><trkpt lat="44.04746" lon="7.7679525"><ele>1677.0</ele><time>2026-05-02T14:52:16.043Z</time></trkpt><trkpt lat="44.0474985" lon="7.7678538"><ele>1677.0</ele><time>2026-05-02T14:52:17.043Z</time></trkpt><trkpt lat="44.0475442" lon="7.7677687"><ele>1677.0</ele><time>2026-05-02T14:52:18.043Z</time></trkpt><trkpt lat="44.0475962" lon="7.7677015"><ele>1677.0</ele><time>2026-05-02T14:52:19.043Z</time></trkpt><trkpt lat="44.0476367" lon="7.7676227"><ele>1683.0</ele><time>2026-05-02T14:52:20.043Z</time></trkpt><trkpt lat="44.0476765" lon="7.7674456"><ele>1689.0</ele><time>2026-05-02T14:52:22.043Z</time></trkpt><trkpt lat="44.0476782" lon="7.7673485"><ele>1694.9999999999998</ele><time>2026-05-02T14:52:23.044Z</time></trkpt><trkpt lat="44.0476698" lon="7.7671487"><ele>1701.0</ele><time>2026-05-02T14:52:25.043Z</time></trkpt><trkpt lat="44.0476664" lon="7.7670474"><ele>1707.0</ele><time>2026-05-02T14:52:26.044Z</time></trkpt><trkpt lat="44.0476533" lon="7.7669285"><ele>1705.142857142857</ele><time>2026-05-02T14:52:27.043Z</time></trkpt><trkpt lat="44.0476477" lon="7.7668254"><ele>1703.2857142857142</ele><time>2026-05-02T14:52:28.043Z</time></trkpt><trkpt lat="44.0476405" lon="7.766723"><ele>1701.4285714285716</ele><time>2026-05-02T14:52:29.043Z</time></trkpt><trkpt lat="44.0476316" lon="7.7666269"><ele>1699.5714285714284</ele><time>2026-05-02T14:52:30.043Z</time></trkpt><trkpt lat="44.04762" lon="7.7665324"><ele>1697.7142857142858</ele><time>2026-05-02T14:52:31.043Z</time></trkpt><trkpt lat="44.0476306" lon="7.7664427"><ele>1695.857142857143</ele><time>2026-05-02T14:52:32.044Z</time></trkpt><trkpt lat="44.0476611" lon="7.7663587"><ele>1694.0</ele><time>2026-05-02T14:52:33.043Z</time></trkpt><trkpt lat="44.0476973" lon="7.7662838"><ele>1693.9999999999998</ele><time>2026-05-02T14:52:34.043Z</time></trkpt><trkpt lat="44.0477522" lon="7.7661931"><ele>1694.0</ele><time>2026-05-02T14:52:35.043Z</time></trkpt><trkpt lat="44.0478003" lon="7.7660956"><ele>1694.0</ele><time>2026-05-02T14:52:36.043Z</time></trkpt><trkpt lat="44.0478464" lon="7.7659966"><ele>1694.0</ele><time>2026-05-02T14:52:37.044Z</time></trkpt><trkpt lat="44.0478888" lon="7.7659044"><ele>1693.9999999999998</ele><time>2026-05-02T14:52:38.043Z</time></trkpt><trkpt lat="44.0479249" lon="7.7658048"><ele>1694.0</ele><time>2026-05-02T14:52:39.043Z</time></trkpt><trkpt lat="44.0479338" lon="7.7657068"><ele>1690.9999999999998</ele><time>2026-05-02T14:52:40.043Z</time></trkpt><trkpt lat="44.0479402" lon="7.7656054"><ele>1688.0</ele><time>2026-05-02T14:52:41.044Z</time></trkpt><trkpt lat="44.0479614" lon="7.7655029"><ele>1685.0</ele><time>2026-05-02T14:52:42.043Z</time></trkpt><trkpt lat="44.0480476" lon="7.7653652"><ele>1682.0</ele><time>2026-05-02T14:52:44.044Z</time></trkpt><trkpt lat="44.0481004" lon="7.7652861"><ele>1678.9999999999998</ele><time>2026-05-02T14:52:45.043Z</time></trkpt><trkpt lat="44.0481433" lon="7.7652156"><ele>1676.0</ele><time>2026-05-02T14:52:46.044Z</time></trkpt><trkpt lat="44.0481875" lon="7.765153"><ele>1670.4</ele><time>2026-05-02T14:52:47.043Z</time></trkpt><trkpt lat="44.0482065" lon="7.7649929"><ele>1664.8</ele><time>2026-05-02T14:52:49.044Z</time></trkpt><trkpt lat="44.04821" lon="7.7648265"><ele>1659.2</ele><time>2026-05-02T14:52:51.043Z</time></trkpt><trkpt lat="44.0482253" lon="7.7647365"><ele>1653.6000000000001</ele><time>2026-05-02T14:52:52.043Z</time></trkpt><trkpt lat="44.0482591" lon="7.7646424"><ele>1648.0</ele><time>2026-05-02T14:52:53.043Z</time></trkpt><trkpt lat="44.0483073" lon="7.764554"><ele>1654.8333333333335</ele><time>2026-05-02T14:52:54.043Z</time></trkpt><trkpt lat="44.0483552" lon="7.7644678"><ele>1661.6666666666667</ele><time>2026-05-02T14:52:55.043Z</time></trkpt><trkpt lat="44.0484045" lon="7.7643758"><ele>1668.5</ele><time>2026-05-02T14:52:56.044Z</time></trkpt><trkpt lat="44.0484477" lon="7.764289"><ele>1675.3333333333335</ele><time>2026-05-02T14:52:57.043Z</time></trkpt><trkpt lat="44.0485022" lon="7.7642121"><ele>1682.1666666666667</ele><time>2026-05-02T14:52:58.043Z</time></trkpt><trkpt lat="44.0485442" lon="7.7640628"><ele>1689.0</ele><time>2026-05-02T14:53:00.043Z</time></trkpt><trkpt lat="44.0485383" lon="7.7639665"><ele>1689.0</ele><time>2026-05-02T14:53:01.044Z</time></trkpt><trkpt lat="44.0484711" lon="7.7638219"><ele>1689.0</ele><time>2026-05-02T14:53:03.043Z</time></trkpt><trkpt lat="44.048378" lon="7.7636856"><ele>1689.0</ele><time>2026-05-02T14:53:05.043Z</time></trkpt><trkpt lat="44.0483236" lon="7.7635976"><ele>1689.0</ele><time>2026-05-02T14:53:06.043Z</time></trkpt><trkpt lat="44.0482703" lon="7.7635129"><ele>1689.0</ele><time>2026-05-02T14:53:07.044Z</time></trkpt><trkpt lat="44.0482125" lon="7.7634338"><ele>1678.5</ele><time>2026-05-02T14:53:08.043Z</time></trkpt><trkpt lat="44.0481561" lon="7.7633536"><ele>1668.0</ele><time>2026-05-02T14:53:09.043Z</time></trkpt><trkpt lat="44.0481044" lon="7.7632651"><ele>1657.5</ele><time>2026-05-02T14:53:10.043Z</time></trkpt><trkpt lat="44.0480402" lon="7.7631925"><ele>1647.0</ele><time>2026-05-02T14:53:11.043Z</time></trkpt><trkpt lat="44.0479787" lon="7.7631391"><ele>1636.5</ele><time>2026-05-02T14:53:12.044Z</time></trkpt><trkpt lat="44.0479084" lon="7.7630942"><ele>1626.0</ele><time>2026-05-02T14:53:13.043Z</time></trkpt><trkpt lat="44.0478433" lon="7.7630524"><ele>1626.0</ele><time>2026-05-02T14:53:14.044Z</time></trkpt><trkpt lat="44.0477441" lon="7.7629494"><ele>1626.0</ele><time>2026-05-02T14:53:16.043Z</time></trkpt><trkpt lat="44.0477104" lon="7.762865"><ele>1626.0</ele><time>2026-05-02T14:53:17.043Z</time></trkpt><trkpt lat="44.0476771" lon="7.7627136"><ele>1626.0</ele><time>2026-05-02T14:53:19.044Z</time></trkpt><trkpt lat="44.0477087" lon="7.7625667"><ele>1626.0</ele><time>2026-05-02T14:53:21.043Z</time></trkpt><trkpt lat="44.0477696" lon="7.7624501"><ele>1626.142857142857</ele><time>2026-05-02T14:53:23.043Z</time></trkpt><trkpt lat="44.0478163" lon="7.7623892"><ele>1626.2857142857142</ele><time>2026-05-02T14:53:24.043Z</time></trkpt><trkpt lat="44.0478725" lon="7.7623324"><ele>1626.4285714285713</ele><time>2026-05-02T14:53:25.043Z</time></trkpt><trkpt lat="44.0479387" lon="7.7622726"><ele>1626.5714285714284</ele><time>2026-05-02T14:53:26.043Z</time></trkpt><trkpt lat="44.0479941" lon="7.7622034"><ele>1626.7142857142858</ele><time>2026-05-02T14:53:27.044Z</time></trkpt><trkpt lat="44.0480462" lon="7.7621255"><ele>1626.8571428571427</ele><time>2026-05-02T14:53:28.043Z</time></trkpt><trkpt lat="44.048095" lon="7.7620383"><ele>1627.0</ele><time>2026-05-02T14:53:29.044Z</time></trkpt><trkpt lat="44.0481434" lon="7.7619424"><ele>1623.3333333333335</ele><time>2026-05-02T14:53:30.043Z</time></trkpt><trkpt lat="44.0481926" lon="7.7618429"><ele>1619.6666666666667</ele><time>2026-05-02T14:53:31.043Z</time></trkpt><trkpt lat="44.0482351" lon="7.7617449"><ele>1616.0</ele><time>2026-05-02T14:53:32.044Z</time></trkpt><trkpt lat="44.048284" lon="7.7616426"><ele>1612.3333333333335</ele><time>2026-05-02T14:53:33.043Z</time></trkpt><trkpt lat="44.0483305" lon="7.7615455"><ele>1608.6666666666667</ele><time>2026-05-02T14:53:34.043Z</time></trkpt><trkpt lat="44.04837" lon="7.7614516"><ele>1605.0</ele><time>2026-05-02T14:53:35.043Z</time></trkpt><trkpt lat="44.0484027" lon="7.7613578"><ele>1609.142857142857</ele><time>2026-05-02T14:53:36.043Z</time></trkpt><trkpt lat="44.048435" lon="7.7612601"><ele>1613.2857142857142</ele><time>2026-05-02T14:53:37.043Z</time></trkpt><trkpt lat="44.0484628" lon="7.7611747"><ele>1617.4285714285713</ele><time>2026-05-02T14:53:38.043Z</time></trkpt><trkpt lat="44.0485078" lon="7.7611016"><ele>1621.5714285714284</ele><time>2026-05-02T14:53:39.043Z</time></trkpt><trkpt lat="44.0485623" lon="7.7610338"><ele>1625.7142857142858</ele><time>2026-05-02T14:53:40.043Z</time></trkpt><trkpt lat="44.0486146" lon="7.7609688"><ele>1629.8571428571427</ele><time>2026-05-02T14:53:41.044Z</time></trkpt><trkpt lat="44.0486708" lon="7.7609018"><ele>1634.0</ele><time>2026-05-02T14:53:42.043Z</time></trkpt><trkpt lat="44.0487341" lon="7.7608139"><ele>1633.9999999999998</ele><time>2026-05-02T14:53:43.044Z</time></trkpt><trkpt lat="44.0487649" lon="7.7607179"><ele>1634.0</ele><time>2026-05-02T14:53:44.044Z</time></trkpt><trkpt lat="44.0488036" lon="7.7605946"><ele>1634.0</ele><time>2026-05-02T14:53:45.043Z</time></trkpt><trkpt lat="44.0488431" lon="7.7604984"><ele>1634.0</ele><time>2026-05-02T14:53:46.044Z</time></trkpt><trkpt lat="44.0488822" lon="7.7603927"><ele>1633.9999999999998</ele><time>2026-05-02T14:53:47.043Z</time></trkpt><trkpt lat="44.0489148" lon="7.760303"><ele>1634.0</ele><time>2026-05-02T14:53:48.043Z</time></trkpt><trkpt lat="44.048941" lon="7.7601908"><ele>1629.9999999999998</ele><time>2026-05-02T14:53:49.043Z</time></trkpt><trkpt lat="44.0489606" lon="7.7600967"><ele>1626.0</ele><time>2026-05-02T14:53:50.043Z</time></trkpt><trkpt lat="44.0489512" lon="7.7599799"><ele>1622.0</ele><time>2026-05-02T14:53:51.044Z</time></trkpt><trkpt lat="44.0489501" lon="7.7598777"><ele>1618.0</ele><time>2026-05-02T14:53:52.043Z</time></trkpt><trkpt lat="44.0489542" lon="7.7597829"><ele>1614.0</ele><time>2026-05-02T14:53:53.043Z</time></trkpt><trkpt lat="44.0489577" lon="7.7596829"><ele>1609.9999999999998</ele><time>2026-05-02T14:53:54.043Z</time></trkpt><trkpt lat="44.0489699" lon="7.7595858"><ele>1606.0</ele><time>2026-05-02T14:53:55.043Z</time></trkpt><trkpt lat="44.0490031" lon="7.7594943"><ele>1606.0000000000002</ele><time>2026-05-02T14:53:56.043Z</time></trkpt><trkpt lat="44.0490511" lon="7.759405"><ele>1606.0</ele><time>2026-05-02T14:53:57.043Z</time></trkpt><trkpt lat="44.0490975" lon="7.7593034"><ele>1606.0</ele><time>2026-05-02T14:53:58.044Z</time></trkpt><trkpt lat="44.0491453" lon="7.7591933"><ele>1606.0</ele><time>2026-05-02T14:53:59.043Z</time></trkpt><trkpt lat="44.0491915" lon="7.7590787"><ele>1606.0000000000002</ele><time>2026-05-02T14:54:00.043Z</time></trkpt><trkpt lat="44.0492264" lon="7.7589607"><ele>1606.0</ele><time>2026-05-02T14:54:01.044Z</time></trkpt><trkpt lat="44.0492556" lon="7.7588315"><ele>1609.3333333333335</ele><time>2026-05-02T14:54:02.043Z</time></trkpt><trkpt lat="44.0492962" lon="7.758718"><ele>1612.6666666666667</ele><time>2026-05-02T14:54:03.043Z</time></trkpt><trkpt lat="44.0493403" lon="7.7586164"><ele>1616.0</ele><time>2026-05-02T14:54:04.043Z</time></trkpt><trkpt lat="44.0493798" lon="7.758512"><ele>1619.3333333333335</ele><time>2026-05-02T14:54:05.044Z</time></trkpt><trkpt lat="44.0494089" lon="7.7584001"><ele>1622.6666666666667</ele><time>2026-05-02T14:54:06.044Z</time></trkpt><trkpt lat="44.0494369" lon="7.7582772"><ele>1626.0</ele><time>2026-05-02T14:54:07.043Z</time></trkpt><trkpt lat="44.049456" lon="7.7581578"><ele>1626.0</ele><time>2026-05-02T14:54:08.043Z</time></trkpt><trkpt lat="44.0494745" lon="7.7580314"><ele>1626.0</ele><time>2026-05-02T14:54:09.043Z</time></trkpt><trkpt lat="44.0494856" lon="7.7579109"><ele>1626.0</ele><time>2026-05-02T14:54:10.043Z</time></trkpt><trkpt lat="44.0494845" lon="7.7578006"><ele>1626.0</ele><time>2026-05-02T14:54:11.043Z</time></trkpt><trkpt lat="44.0494715" lon="7.7576754"><ele>1626.0</ele><time>2026-05-02T14:54:12.043Z</time></trkpt><trkpt lat="44.0494471" lon="7.7575527"><ele>1626.0</ele><time>2026-05-02T14:54:13.043Z</time></trkpt><trkpt lat="44.0494232" lon="7.7574372"><ele>1626.1666666666667</ele><time>2026-05-02T14:54:14.044Z</time></trkpt><trkpt lat="44.0494013" lon="7.7573272"><ele>1626.3333333333335</ele><time>2026-05-02T14:54:15.043Z</time></trkpt><trkpt lat="44.0493793" lon="7.7572192"><ele>1626.5</ele><time>2026-05-02T14:54:16.043Z</time></trkpt><trkpt lat="44.0493592" lon="7.7571079"><ele>1626.6666666666667</ele><time>2026-05-02T14:54:17.043Z</time></trkpt><trkpt lat="44.049342" lon="7.7569924"><ele>1626.8333333333335</ele><time>2026-05-02T14:54:18.044Z</time></trkpt><trkpt lat="44.0493374" lon="7.7568911"><ele>1627.0</ele><time>2026-05-02T14:54:19.043Z</time></trkpt><trkpt lat="44.0493284" lon="7.7567646"><ele>1627.0000000000002</ele><time>2026-05-02T14:54:20.043Z</time></trkpt><trkpt lat="44.0493165" lon="7.7566491"><ele>1627.0</ele><time>2026-05-02T14:54:21.043Z</time></trkpt><trkpt lat="44.0493052" lon="7.756533"><ele>1627.0</ele><time>2026-05-02T14:54:22.043Z</time></trkpt><trkpt lat="44.0492967" lon="7.7564015"><ele>1627.0</ele><time>2026-05-02T14:54:23.044Z</time></trkpt><trkpt lat="44.0492822" lon="7.7562737"><ele>1627.0000000000002</ele><time>2026-05-02T14:54:24.043Z</time></trkpt><trkpt lat="44.0492643" lon="7.7561543"><ele>1627.0</ele><time>2026-05-02T14:54:25.044Z</time></trkpt><trkpt lat="44.0492435" lon="7.7560398"><ele>1627.6</ele><time>2026-05-02T14:54:26.044Z</time></trkpt><trkpt lat="44.0492032" lon="7.7559312"><ele>1628.1999999999998</ele><time>2026-05-02T14:54:27.043Z</time></trkpt><trkpt lat="44.0491517" lon="7.7558261"><ele>1628.8</ele><time>2026-05-02T14:54:28.043Z</time></trkpt><trkpt lat="44.0490907" lon="7.7557117"><ele>1629.4</ele><time>2026-05-02T14:54:29.044Z</time></trkpt><trkpt lat="44.0490411" lon="7.7555985"><ele>1630.0</ele><time>2026-05-02T14:54:30.043Z</time></trkpt><trkpt lat="44.0489934" lon="7.7554916"><ele>1625.8</ele><time>2026-05-02T14:54:31.043Z</time></trkpt><trkpt lat="44.0489486" lon="7.7553891"><ele>1621.6</ele><time>2026-05-02T14:54:32.043Z</time></trkpt><trkpt lat="44.0488925" lon="7.7552799"><ele>1617.4</ele><time>2026-05-02T14:54:33.043Z</time></trkpt><trkpt lat="44.0488346" lon="7.7551741"><ele>1613.2</ele><time>2026-05-02T14:54:34.043Z</time></trkpt><trkpt lat="44.0487783" lon="7.7550736"><ele>1609.0</ele><time>2026-05-02T14:54:35.044Z</time></trkpt><trkpt lat="44.0487236" lon="7.754975"><ele>1609.0000000000002</ele><time>2026-05-02T14:54:36.043Z</time></trkpt><trkpt lat="44.0486736" lon="7.7548765"><ele>1609.0</ele><time>2026-05-02T14:54:37.044Z</time></trkpt><trkpt lat="44.0486252" lon="7.754788"><ele>1609.0</ele><time>2026-05-02T14:54:38.043Z</time></trkpt><trkpt lat="44.0485744" lon="7.7547018"><ele>1609.0</ele><time>2026-05-02T14:54:39.043Z</time></trkpt><trkpt lat="44.0485247" lon="7.7546092"><ele>1609.0000000000002</ele><time>2026-05-02T14:54:40.043Z</time></trkpt><trkpt lat="44.0484788" lon="7.7545212"><ele>1609.0</ele><time>2026-05-02T14:54:41.044Z</time></trkpt><trkpt lat="44.0484294" lon="7.7544392"><ele>1609.0</ele><time>2026-05-02T14:54:42.044Z</time></trkpt><trkpt lat="44.0483702" lon="7.7543771"><ele>1609.0</ele><time>2026-05-02T14:54:43.043Z</time></trkpt><trkpt lat="44.0483136" lon="7.7543118"><ele>1609.0</ele><time>2026-05-02T14:54:44.044Z</time></trkpt><trkpt lat="44.0481762" lon="7.7542634"><ele>1609.0</ele><time>2026-05-02T14:54:46.043Z</time></trkpt><trkpt lat="44.0480964" lon="7.7542559"><ele>1609.0</ele><time>2026-05-02T14:54:47.044Z</time></trkpt><trkpt lat="44.0480143" lon="7.7542657"><ele>1610.6</ele><time>2026-05-02T14:54:48.044Z</time></trkpt><trkpt lat="44.0479298" lon="7.7542855"><ele>1612.2</ele><time>2026-05-02T14:54:49.043Z</time></trkpt><trkpt lat="44.0478391" lon="7.7542972"><ele>1613.8</ele><time>2026-05-02T14:54:50.043Z</time></trkpt><trkpt lat="44.0477476" lon="7.7543019"><ele>1615.3999999999999</ele><time>2026-05-02T14:54:51.043Z</time></trkpt><trkpt lat="44.0476516" lon="7.7543107"><ele>1617.0</ele><time>2026-05-02T14:54:52.043Z</time></trkpt><trkpt lat="44.0475608" lon="7.7543093"><ele>1617.0</ele><time>2026-05-02T14:54:53.043Z</time></trkpt><trkpt lat="44.0474651" lon="7.7543097"><ele>1617.0</ele><time>2026-05-02T14:54:54.043Z</time></trkpt><trkpt lat="44.0473691" lon="7.7543164"><ele>1617.0</ele><time>2026-05-02T14:54:55.044Z</time></trkpt><trkpt lat="44.0472717" lon="7.7543147"><ele>1617.0</ele><time>2026-05-02T14:54:56.043Z</time></trkpt><trkpt lat="44.0471792" lon="7.7543142"><ele>1617.0</ele><time>2026-05-02T14:54:57.043Z</time></trkpt><trkpt lat="44.0470844" lon="7.7543175"><ele>1616.1666666666667</ele><time>2026-05-02T14:54:58.043Z</time></trkpt><trkpt lat="44.0469972" lon="7.7543311"><ele>1615.3333333333335</ele><time>2026-05-02T14:54:59.043Z</time></trkpt><trkpt lat="44.0469033" lon="7.754364"><ele>1614.5</ele><time>2026-05-02T14:55:00.044Z</time></trkpt><trkpt lat="44.0468148" lon="7.7543865"><ele>1613.6666666666667</ele><time>2026-05-02T14:55:01.043Z</time></trkpt><trkpt lat="44.0467286" lon="7.7544028"><ele>1612.8333333333335</ele><time>2026-05-02T14:55:02.043Z</time></trkpt><trkpt lat="44.046651" lon="7.7544058"><ele>1612.0</ele><time>2026-05-02T14:55:03.043Z</time></trkpt><trkpt lat="44.0465803" lon="7.754392"><ele>1609.0000000000002</ele><time>2026-05-02T14:55:04.043Z</time></trkpt><trkpt lat="44.0465135" lon="7.7543446"><ele>1606.0</ele><time>2026-05-02T14:55:05.043Z</time></trkpt><trkpt lat="44.0464463" lon="7.7543056"><ele>1603.0</ele><time>2026-05-02T14:55:06.043Z</time></trkpt><trkpt lat="44.0463319" lon="7.7542473"><ele>1600.0</ele><time>2026-05-02T14:55:08.043Z</time></trkpt><trkpt lat="44.0462648" lon="7.7542642"><ele>1597.0000000000002</ele><time>2026-05-02T14:55:09.043Z</time></trkpt><trkpt lat="44.0461996" lon="7.7543002"><ele>1594.0</ele><time>2026-05-02T14:55:10.044Z</time></trkpt><trkpt lat="44.0461356" lon="7.7543443"><ele>1589.0</ele><time>2026-05-02T14:55:11.043Z</time></trkpt><trkpt lat="44.046069" lon="7.7543892"><ele>1584.0</ele><time>2026-05-02T14:55:12.044Z</time></trkpt><trkpt lat="44.0459995" lon="7.754427"><ele>1579.0</ele><time>2026-05-02T14:55:13.044Z</time></trkpt><trkpt lat="44.0459331" lon="7.7544494"><ele>1574.0</ele><time>2026-05-02T14:55:14.043Z</time></trkpt><trkpt lat="44.045862" lon="7.7544533"><ele>1569.0</ele><time>2026-05-02T14:55:15.043Z</time></trkpt><trkpt lat="44.0457869" lon="7.7544304"><ele>1564.0</ele><time>2026-05-02T14:55:16.043Z</time></trkpt><trkpt lat="44.0457099" lon="7.7543982"><ele>1559.0</ele><time>2026-05-02T14:55:17.043Z</time></trkpt><trkpt lat="44.0456389" lon="7.754354"><ele>1557.2857142857142</ele><time>2026-05-02T14:55:18.043Z</time></trkpt><trkpt lat="44.0455723" lon="7.7543101"><ele>1555.5714285714287</ele><time>2026-05-02T14:55:19.043Z</time></trkpt><trkpt lat="44.0455192" lon="7.7542524"><ele>1553.857142857143</ele><time>2026-05-02T14:55:20.044Z</time></trkpt><trkpt lat="44.045475" lon="7.7541792"><ele>1552.142857142857</ele><time>2026-05-02T14:55:21.043Z</time></trkpt><trkpt lat="44.0454336" lon="7.7540992"><ele>1550.4285714285716</ele><time>2026-05-02T14:55:22.043Z</time></trkpt><trkpt lat="44.0453932" lon="7.7540218"><ele>1548.7142857142858</ele><time>2026-05-02T14:55:23.043Z</time></trkpt><trkpt lat="44.0453613" lon="7.7539435"><ele>1547.0</ele><time>2026-05-02T14:55:24.044Z</time></trkpt><trkpt lat="44.0453581" lon="7.7538084"><ele>1546.9999999999998</ele><time>2026-05-02T14:55:26.043Z</time></trkpt><trkpt lat="44.0454264" lon="7.7536588"><ele>1547.0</ele><time>2026-05-02T14:55:28.043Z</time></trkpt><trkpt lat="44.0454798" lon="7.7535964"><ele>1547.0</ele><time>2026-05-02T14:55:29.043Z</time></trkpt><trkpt lat="44.0455405" lon="7.7535428"><ele>1547.0</ele><time>2026-05-02T14:55:30.044Z</time></trkpt><trkpt lat="44.045591" lon="7.7534714"><ele>1546.9999999999998</ele><time>2026-05-02T14:55:31.043Z</time></trkpt><trkpt lat="44.0456361" lon="7.7533856"><ele>1547.0</ele><time>2026-05-02T14:55:32.044Z</time></trkpt><trkpt lat="44.0456613" lon="7.7532699"><ele>1543.8333333333333</ele><time>2026-05-02T14:55:33.043Z</time></trkpt><trkpt lat="44.0456787" lon="7.7531523"><ele>1540.6666666666665</ele><time>2026-05-02T14:55:34.043Z</time></trkpt><trkpt lat="44.0456831" lon="7.7530448"><ele>1537.5</ele><time>2026-05-02T14:55:35.043Z</time></trkpt><trkpt lat="44.0456624" lon="7.7529273"><ele>1534.3333333333333</ele><time>2026-05-02T14:55:36.043Z</time></trkpt><trkpt lat="44.0456708" lon="7.7528098"><ele>1531.1666666666665</ele><time>2026-05-02T14:55:37.043Z</time></trkpt><trkpt lat="44.045682" lon="7.7527092"><ele>1528.0</ele><time>2026-05-02T14:55:38.043Z</time></trkpt><trkpt lat="44.0456871" lon="7.7526158"><ele>1527.142857142857</ele><time>2026-05-02T14:55:39.043Z</time></trkpt><trkpt lat="44.0456745" lon="7.7525189"><ele>1526.2857142857142</ele><time>2026-05-02T14:55:40.043Z</time></trkpt><trkpt lat="44.0456518" lon="7.7524322"><ele>1525.4285714285713</ele><time>2026-05-02T14:55:41.044Z</time></trkpt><trkpt lat="44.0456212" lon="7.7523548"><ele>1524.5714285714284</ele><time>2026-05-02T14:55:42.043Z</time></trkpt><trkpt lat="44.0455549" lon="7.7522861"><ele>1523.7142857142858</ele><time>2026-05-02T14:55:43.044Z</time></trkpt><trkpt lat="44.0455115" lon="7.7522112"><ele>1522.8571428571427</ele><time>2026-05-02T14:55:44.043Z</time></trkpt><trkpt lat="44.0454867" lon="7.7521163"><ele>1522.0</ele><time>2026-05-02T14:55:45.043Z</time></trkpt><trkpt lat="44.0454641" lon="7.7520218"><ele>1522.0</ele><time>2026-05-02T14:55:46.043Z</time></trkpt><trkpt lat="44.0454294" lon="7.751922"><ele>1522.0</ele><time>2026-05-02T14:55:47.043Z</time></trkpt><trkpt lat="44.0453847" lon="7.7518393"><ele>1522.0</ele><time>2026-05-02T14:55:48.043Z</time></trkpt><trkpt lat="44.0453359" lon="7.7517474"><ele>1522.0</ele><time>2026-05-02T14:55:49.044Z</time></trkpt><trkpt lat="44.0452961" lon="7.751645"><ele>1522.0</ele><time>2026-05-02T14:55:50.043Z</time></trkpt><trkpt lat="44.0452636" lon="7.7515412"><ele>1522.0</ele><time>2026-05-02T14:55:51.043Z</time></trkpt><trkpt lat="44.0452434" lon="7.7514518"><ele>1524.5</ele><time>2026-05-02T14:55:52.043Z</time></trkpt><trkpt lat="44.0452331" lon="7.7513481"><ele>1527.0</ele><time>2026-05-02T14:55:53.044Z</time></trkpt><trkpt lat="44.0452317" lon="7.7512348"><ele>1529.5</ele><time>2026-05-02T14:55:54.044Z</time></trkpt><trkpt lat="44.0452354" lon="7.7511191"><ele>1532.0</ele><time>2026-05-02T14:55:55.043Z</time></trkpt><trkpt lat="44.0452487" lon="7.750993"><ele>1534.5000000000002</ele><time>2026-05-02T14:55:56.044Z</time></trkpt><trkpt lat="44.0452654" lon="7.7508729"><ele>1537.0</ele><time>2026-05-02T14:55:57.043Z</time></trkpt><trkpt lat="44.0452822" lon="7.7507595"><ele>1540.3999999999999</ele><time>2026-05-02T14:55:58.044Z</time></trkpt><trkpt lat="44.0453064" lon="7.7506579"><ele>1543.8</ele><time>2026-05-02T14:55:59.043Z</time></trkpt><trkpt lat="44.0453321" lon="7.7505601"><ele>1547.2</ele><time>2026-05-02T14:56:00.043Z</time></trkpt><trkpt lat="44.0453541" lon="7.7504639"><ele>1550.6</ele><time>2026-05-02T14:56:01.044Z</time></trkpt><trkpt lat="44.0453739" lon="7.7502794"><ele>1554.0</ele><time>2026-05-02T14:56:03.043Z</time></trkpt><trkpt lat="44.0453353" lon="7.7501335"><ele>1556.0</ele><time>2026-05-02T14:56:05.044Z</time></trkpt><trkpt lat="44.0452235" lon="7.7500789"><ele>1558.0</ele><time>2026-05-02T14:56:07.043Z</time></trkpt><trkpt lat="44.0451612" lon="7.7500564"><ele>1560.0</ele><time>2026-05-02T14:56:08.043Z</time></trkpt><trkpt lat="44.0450812" lon="7.7500473"><ele>1562.0</ele><time>2026-05-02T14:56:09.043Z</time></trkpt><trkpt lat="44.0450042" lon="7.7500358"><ele>1564.0</ele><time>2026-05-02T14:56:10.043Z</time></trkpt><trkpt lat="44.0449323" lon="7.7500278"><ele>1566.0</ele><time>2026-05-02T14:56:11.044Z</time></trkpt><trkpt lat="44.0448622" lon="7.7500162"><ele>1557.5</ele><time>2026-05-02T14:56:12.043Z</time></trkpt><trkpt lat="44.0447952" lon="7.7499871"><ele>1549.0</ele><time>2026-05-02T14:56:13.043Z</time></trkpt><trkpt lat="44.0447372" lon="7.74995"><ele>1540.5</ele><time>2026-05-02T14:56:14.044Z</time></trkpt><trkpt lat="44.0446783" lon="7.7498839"><ele>1532.0</ele><time>2026-05-02T14:56:15.043Z</time></trkpt><trkpt lat="44.0446299" lon="7.7498035"><ele>1523.5</ele><time>2026-05-02T14:56:16.044Z</time></trkpt><trkpt lat="44.0445843" lon="7.749713"><ele>1515.0</ele><time>2026-05-02T14:56:17.044Z</time></trkpt><trkpt lat="44.0445256" lon="7.7496147"><ele>1515.0</ele><time>2026-05-02T14:56:18.043Z</time></trkpt><trkpt lat="44.0444598" lon="7.7495062"><ele>1515.0</ele><time>2026-05-02T14:56:19.044Z</time></trkpt><trkpt lat="44.0443859" lon="7.7494051"><ele>1515.0</ele><time>2026-05-02T14:56:20.043Z</time></trkpt><trkpt lat="44.0443192" lon="7.7493127"><ele>1515.0</ele><time>2026-05-02T14:56:21.043Z</time></trkpt><trkpt lat="44.0442598" lon="7.7492195"><ele>1515.0</ele><time>2026-05-02T14:56:22.043Z</time></trkpt><trkpt lat="44.0441972" lon="7.7491321"><ele>1514.5</ele><time>2026-05-02T14:56:23.043Z</time></trkpt><trkpt lat="44.0441301" lon="7.7490442"><ele>1514.0</ele><time>2026-05-02T14:56:24.043Z</time></trkpt><trkpt lat="44.0440607" lon="7.7489627"><ele>1513.5</ele><time>2026-05-02T14:56:25.043Z</time></trkpt><trkpt lat="44.0439909" lon="7.7489012"><ele>1513.0</ele><time>2026-05-02T14:56:26.043Z</time></trkpt><trkpt lat="44.0439171" lon="7.7488545"><ele>1512.5</ele><time>2026-05-02T14:56:27.043Z</time></trkpt><trkpt lat="44.0438332" lon="7.7488201"><ele>1512.0</ele><time>2026-05-02T14:56:28.043Z</time></trkpt><trkpt lat="44.0437456" lon="7.7487907"><ele>1512.0</ele><time>2026-05-02T14:56:29.045Z</time></trkpt><trkpt lat="44.0436589" lon="7.7487598"><ele>1512.0</ele><time>2026-05-02T14:56:30.044Z</time></trkpt><trkpt lat="44.0435727" lon="7.748738"><ele>1512.0</ele><time>2026-05-02T14:56:31.043Z</time></trkpt><trkpt lat="44.0434936" lon="7.7487211"><ele>1512.0</ele><time>2026-05-02T14:56:32.043Z</time></trkpt><trkpt lat="44.043419" lon="7.7487106"><ele>1512.0</ele><time>2026-05-02T14:56:33.043Z</time></trkpt><trkpt lat="44.0433524" lon="7.7486796"><ele>1512.0</ele><time>2026-05-02T14:56:34.043Z</time></trkpt><trkpt lat="44.043257" lon="7.748565"><ele>1505.0</ele><time>2026-05-02T14:56:36.044Z</time></trkpt><trkpt lat="44.0432233" lon="7.7484711"><ele>1498.0</ele><time>2026-05-02T14:56:37.043Z</time></trkpt><trkpt lat="44.043199" lon="7.7483601"><ele>1491.0</ele><time>2026-05-02T14:56:38.043Z</time></trkpt><trkpt lat="44.0431716" lon="7.7482492"><ele>1484.0</ele><time>2026-05-02T14:56:39.043Z</time></trkpt><trkpt lat="44.0431548" lon="7.748118"><ele>1477.0</ele><time>2026-05-02T14:56:40.043Z</time></trkpt><trkpt lat="44.0431372" lon="7.7480068"><ele>1470.0</ele><time>2026-05-02T14:56:41.043Z</time></trkpt><trkpt lat="44.0431191" lon="7.7479001"><ele>1470.0</ele><time>2026-05-02T14:56:42.044Z</time></trkpt><trkpt lat="44.0430903" lon="7.7477971"><ele>1470.0</ele><time>2026-05-02T14:56:43.043Z</time></trkpt><trkpt lat="44.0430763" lon="7.7476855"><ele>1470.0</ele><time>2026-05-02T14:56:44.043Z</time></trkpt><trkpt lat="44.0430659" lon="7.7475816"><ele>1470.0</ele><time>2026-05-02T14:56:45.043Z</time></trkpt><trkpt lat="44.0430424" lon="7.7474855"><ele>1470.0</ele><time>2026-05-02T14:56:46.044Z</time></trkpt><trkpt lat="44.0430073" lon="7.7473893"><ele>1470.0</ele><time>2026-05-02T14:56:47.043Z</time></trkpt><trkpt lat="44.0429449" lon="7.7473011"><ele>1474.1666666666667</ele><time>2026-05-02T14:56:48.043Z</time></trkpt><trkpt lat="44.0428833" lon="7.7472209"><ele>1478.3333333333333</ele><time>2026-05-02T14:56:49.043Z</time></trkpt><trkpt lat="44.0428148" lon="7.7471311"><ele>1482.5</ele><time>2026-05-02T14:56:50.043Z</time></trkpt><trkpt lat="44.0427519" lon="7.7470522"><ele>1486.6666666666665</ele><time>2026-05-02T14:56:51.044Z</time></trkpt><trkpt lat="44.0426874" lon="7.7469927"><ele>1490.8333333333333</ele><time>2026-05-02T14:56:52.043Z</time></trkpt><trkpt lat="44.0426233" lon="7.7469393"><ele>1495.0</ele><time>2026-05-02T14:56:53.043Z</time></trkpt><trkpt lat="44.0425435" lon="7.7468187"><ele>1497.0</ele><time>2026-05-02T14:56:55.043Z</time></trkpt><trkpt lat="44.0425229" lon="7.7467279"><ele>1499.0</ele><time>2026-05-02T14:56:56.043Z</time></trkpt><trkpt lat="44.0425211" lon="7.7466271"><ele>1501.0</ele><time>2026-05-02T14:56:57.043Z</time></trkpt><trkpt lat="44.042532" lon="7.7465145"><ele>1503.0</ele><time>2026-05-02T14:56:58.044Z</time></trkpt><trkpt lat="44.0425455" lon="7.746401"><ele>1505.0</ele><time>2026-05-02T14:56:59.043Z</time></trkpt><trkpt lat="44.0425562" lon="7.7462904"><ele>1507.0</ele><time>2026-05-02T14:57:00.043Z</time></trkpt><trkpt lat="44.0425577" lon="7.7461895"><ele>1507.0</ele><time>2026-05-02T14:57:01.043Z</time></trkpt><trkpt lat="44.0425187" lon="7.746078"><ele>1507.0</ele><time>2026-05-02T14:57:02.044Z</time></trkpt><trkpt lat="44.0424827" lon="7.7459692"><ele>1507.0</ele><time>2026-05-02T14:57:03.044Z</time></trkpt><trkpt lat="44.0424509" lon="7.7458605"><ele>1507.0</ele><time>2026-05-02T14:57:04.043Z</time></trkpt><trkpt lat="44.0424169" lon="7.7457587"><ele>1507.0</ele><time>2026-05-02T14:57:05.044Z</time></trkpt><trkpt lat="44.0423751" lon="7.7456615"><ele>1507.0</ele><time>2026-05-02T14:57:06.044Z</time></trkpt><trkpt lat="44.0423296" lon="7.7455748"><ele>1501.5</ele><time>2026-05-02T14:57:07.043Z</time></trkpt><trkpt lat="44.0422798" lon="7.7454913"><ele>1496.0</ele><time>2026-05-02T14:57:08.044Z</time></trkpt><trkpt lat="44.0422182" lon="7.7454044"><ele>1490.5</ele><time>2026-05-02T14:57:09.043Z</time></trkpt><trkpt lat="44.0421655" lon="7.7453184"><ele>1485.0</ele><time>2026-05-02T14:57:10.043Z</time></trkpt><trkpt lat="44.0421161" lon="7.7452314"><ele>1479.5</ele><time>2026-05-02T14:57:11.043Z</time></trkpt><trkpt lat="44.0420663" lon="7.7451477"><ele>1474.0</ele><time>2026-05-02T14:57:12.044Z</time></trkpt><trkpt lat="44.0420144" lon="7.7450681"><ele>1474.0</ele><time>2026-05-02T14:57:13.044Z</time></trkpt><trkpt lat="44.0419824" lon="7.7449896"><ele>1474.0</ele><time>2026-05-02T14:57:14.043Z</time></trkpt><trkpt lat="44.0419718" lon="7.7448326"><ele>1474.0</ele><time>2026-05-02T14:57:16.043Z</time></trkpt><trkpt lat="44.0420568" lon="7.7447181"><ele>1474.0</ele><time>2026-05-02T14:57:18.043Z</time></trkpt><trkpt lat="44.0421213" lon="7.7446911"><ele>1474.0</ele><time>2026-05-02T14:57:19.043Z</time></trkpt><trkpt lat="44.0421958" lon="7.7446734"><ele>1474.0</ele><time>2026-05-02T14:57:20.043Z</time></trkpt><trkpt lat="44.0422787" lon="7.7446555"><ele>1474.0</ele><time>2026-05-02T14:57:21.043Z</time></trkpt><trkpt lat="44.0423653" lon="7.7446361"><ele>1474.0</ele><time>2026-05-02T14:57:22.043Z</time></trkpt><trkpt lat="44.0424523" lon="7.7446216"><ele>1474.0</ele><time>2026-05-02T14:57:23.043Z</time></trkpt><trkpt lat="44.0425397" lon="7.7446063"><ele>1474.0</ele><time>2026-05-02T14:57:24.043Z</time></trkpt><trkpt lat="44.0426239" lon="7.7445945"><ele>1474.0</ele><time>2026-05-02T14:57:25.043Z</time></trkpt><trkpt lat="44.0427044" lon="7.7445845"><ele>1474.0</ele><time>2026-05-02T14:57:26.044Z</time></trkpt><trkpt lat="44.0427797" lon="7.7445646"><ele>1478.0000000000002</ele><time>2026-05-02T14:57:27.043Z</time></trkpt><trkpt lat="44.0428588" lon="7.7445479"><ele>1482.0</ele><time>2026-05-02T14:57:28.044Z</time></trkpt><trkpt lat="44.0429359" lon="7.744532"><ele>1486.0</ele><time>2026-05-02T14:57:29.043Z</time></trkpt><trkpt lat="44.04301" lon="7.7445042"><ele>1490.0</ele><time>2026-05-02T14:57:30.043Z</time></trkpt><trkpt lat="44.0430729" lon="7.7444865"><ele>1494.0</ele><time>2026-05-02T14:57:31.044Z</time></trkpt><trkpt lat="44.0431392" lon="7.7444633"><ele>1498.0000000000002</ele><time>2026-05-02T14:57:32.043Z</time></trkpt><trkpt lat="44.0432049" lon="7.744428"><ele>1502.0</ele><time>2026-05-02T14:57:33.043Z</time></trkpt><trkpt lat="44.0432697" lon="7.7443857"><ele>1500.1666666666667</ele><time>2026-05-02T14:57:34.043Z</time></trkpt><trkpt lat="44.0433214" lon="7.7443212"><ele>1498.3333333333335</ele><time>2026-05-02T14:57:35.044Z</time></trkpt><trkpt lat="44.0433865" lon="7.7441842"><ele>1496.5</ele><time>2026-05-02T14:57:37.043Z</time></trkpt><trkpt lat="44.0434019" lon="7.7440837"><ele>1494.6666666666667</ele><time>2026-05-02T14:57:38.043Z</time></trkpt><trkpt lat="44.0434075" lon="7.7439858"><ele>1492.8333333333333</ele><time>2026-05-02T14:57:39.043Z</time></trkpt><trkpt lat="44.0433978" lon="7.7438706"><ele>1491.0</ele><time>2026-05-02T14:57:40.043Z</time></trkpt><trkpt lat="44.04339" lon="7.7437738"><ele>1491.0</ele><time>2026-05-02T14:57:41.044Z</time></trkpt><trkpt lat="44.0433798" lon="7.7436604"><ele>1491.0</ele><time>2026-05-02T14:57:42.043Z</time></trkpt><trkpt lat="44.043377" lon="7.7435513"><ele>1491.0</ele><time>2026-05-02T14:57:43.043Z</time></trkpt><trkpt lat="44.0433636" lon="7.74345"><ele>1491.0</ele><time>2026-05-02T14:57:44.044Z</time></trkpt><trkpt lat="44.0433478" lon="7.7433529"><ele>1491.0</ele><time>2026-05-02T14:57:45.043Z</time></trkpt><trkpt lat="44.0433226" lon="7.7432668"><ele>1491.0</ele><time>2026-05-02T14:57:46.043Z</time></trkpt><trkpt lat="44.0432915" lon="7.7431652"><ele>1482.8333333333333</ele><time>2026-05-02T14:57:47.044Z</time></trkpt><trkpt lat="44.0432565" lon="7.7430621"><ele>1474.6666666666667</ele><time>2026-05-02T14:57:48.043Z</time></trkpt><trkpt lat="44.0432398" lon="7.7429717"><ele>1466.5</ele><time>2026-05-02T14:57:49.043Z</time></trkpt><trkpt lat="44.0432332" lon="7.7428701"><ele>1458.3333333333335</ele><time>2026-05-02T14:57:50.043Z</time></trkpt><trkpt lat="44.0432388" lon="7.7427634"><ele>1450.1666666666667</ele><time>2026-05-02T14:57:51.044Z</time></trkpt><trkpt lat="44.0432318" lon="7.7426442"><ele>1442.0</ele><time>2026-05-02T14:57:52.043Z</time></trkpt><trkpt lat="44.0432133" lon="7.7425286"><ele>1438.5</ele><time>2026-05-02T14:57:53.044Z</time></trkpt><trkpt lat="44.0431962" lon="7.74242"><ele>1435.0</ele><time>2026-05-02T14:57:54.043Z</time></trkpt><trkpt lat="44.0431877" lon="7.7423036"><ele>1431.5</ele><time>2026-05-02T14:57:55.044Z</time></trkpt><trkpt lat="44.0431773" lon="7.7421924"><ele>1428.0</ele><time>2026-05-02T14:57:56.044Z</time></trkpt><trkpt lat="44.0431774" lon="7.7420866"><ele>1424.5</ele><time>2026-05-02T14:57:57.044Z</time></trkpt><trkpt lat="44.0431724" lon="7.7419679"><ele>1421.0</ele><time>2026-05-02T14:57:58.043Z</time></trkpt><trkpt lat="44.0431768" lon="7.7418692"><ele>1419.3333333333335</ele><time>2026-05-02T14:57:59.043Z</time></trkpt><trkpt lat="44.0431852" lon="7.7417578"><ele>1417.6666666666667</ele><time>2026-05-02T14:58:00.043Z</time></trkpt><trkpt lat="44.0431975" lon="7.7416487"><ele>1416.0</ele><time>2026-05-02T14:58:01.044Z</time></trkpt><trkpt lat="44.0432161" lon="7.7415458"><ele>1414.3333333333333</ele><time>2026-05-02T14:58:02.043Z</time></trkpt><trkpt lat="44.043242" lon="7.7414455"><ele>1412.6666666666665</ele><time>2026-05-02T14:58:03.043Z</time></trkpt><trkpt lat="44.0432799" lon="7.7413475"><ele>1411.0</ele><time>2026-05-02T14:58:04.044Z</time></trkpt><trkpt lat="44.0433149" lon="7.7412529"><ele>1416.8333333333333</ele><time>2026-05-02T14:58:05.044Z</time></trkpt><trkpt lat="44.0433765" lon="7.7411549"><ele>1422.6666666666665</ele><time>2026-05-02T14:58:06.043Z</time></trkpt><trkpt lat="44.0434243" lon="7.741058"><ele>1428.5</ele><time>2026-05-02T14:58:07.043Z</time></trkpt><trkpt lat="44.0434774" lon="7.7409729"><ele>1434.3333333333333</ele><time>2026-05-02T14:58:08.044Z</time></trkpt><trkpt lat="44.0435378" lon="7.7408896"><ele>1440.1666666666667</ele><time>2026-05-02T14:58:09.043Z</time></trkpt><trkpt lat="44.0435963" lon="7.7408046"><ele>1446.0</ele><time>2026-05-02T14:58:10.044Z</time></trkpt><trkpt lat="44.043661" lon="7.7407209"><ele>1446.0</ele><time>2026-05-02T14:58:11.043Z</time></trkpt><trkpt lat="44.0437265" lon="7.740642"><ele>1446.0</ele><time>2026-05-02T14:58:12.043Z</time></trkpt><trkpt lat="44.0438038" lon="7.740572"><ele>1446.0</ele><time>2026-05-02T14:58:13.044Z</time></trkpt><trkpt lat="44.0438812" lon="7.7405148"><ele>1446.0</ele><time>2026-05-02T14:58:14.043Z</time></trkpt><trkpt lat="44.0439559" lon="7.7404671"><ele>1446.0</ele><time>2026-05-02T14:58:15.043Z</time></trkpt><trkpt lat="44.0440298" lon="7.7404454"><ele>1446.0</ele><time>2026-05-02T14:58:16.043Z</time></trkpt><trkpt lat="44.0441105" lon="7.7404148"><ele>1449.6666666666667</ele><time>2026-05-02T14:58:17.043Z</time></trkpt><trkpt lat="44.0441939" lon="7.740397"><ele>1453.3333333333333</ele><time>2026-05-02T14:58:18.043Z</time></trkpt><trkpt lat="44.044279" lon="7.7403798"><ele>1457.0</ele><time>2026-05-02T14:58:19.043Z</time></trkpt><trkpt lat="44.0443668" lon="7.7403693"><ele>1460.6666666666665</ele><time>2026-05-02T14:58:20.043Z</time></trkpt><trkpt lat="44.0444555" lon="7.7403652"><ele>1464.3333333333333</ele><time>2026-05-02T14:58:21.043Z</time></trkpt><trkpt lat="44.0445401" lon="7.7403547"><ele>1468.0</ele><time>2026-05-02T14:58:22.043Z</time></trkpt><trkpt lat="44.0446159" lon="7.7403421"><ele>1468.0</ele><time>2026-05-02T14:58:23.043Z</time></trkpt><trkpt lat="44.044686" lon="7.7403139"><ele>1468.0</ele><time>2026-05-02T14:58:24.043Z</time></trkpt><trkpt lat="44.0447492" lon="7.7402702"><ele>1468.0</ele><time>2026-05-02T14:58:25.043Z</time></trkpt><trkpt lat="44.0448138" lon="7.7401214"><ele>1468.0</ele><time>2026-05-02T14:58:27.044Z</time></trkpt><trkpt lat="44.0448142" lon="7.7400121"><ele>1468.0</ele><time>2026-05-02T14:58:28.043Z</time></trkpt><trkpt lat="44.0447932" lon="7.7398911"><ele>1468.0</ele><time>2026-05-02T14:58:29.043Z</time></trkpt><trkpt lat="44.0447644" lon="7.7397663"><ele>1460.0</ele><time>2026-05-02T14:58:30.043Z</time></trkpt><trkpt lat="44.044732" lon="7.7396354"><ele>1452.0</ele><time>2026-05-02T14:58:31.043Z</time></trkpt><trkpt lat="44.0446898" lon="7.7395126"><ele>1444.0</ele><time>2026-05-02T14:58:32.043Z</time></trkpt><trkpt lat="44.0446607" lon="7.7393849"><ele>1436.0</ele><time>2026-05-02T14:58:33.043Z</time></trkpt><trkpt lat="44.0446347" lon="7.7392522"><ele>1428.0</ele><time>2026-05-02T14:58:34.044Z</time></trkpt><trkpt lat="44.0446102" lon="7.7391179"><ele>1426.8000000000002</ele><time>2026-05-02T14:58:35.044Z</time></trkpt><trkpt lat="44.0445907" lon="7.7389839"><ele>1425.6</ele><time>2026-05-02T14:58:36.044Z</time></trkpt><trkpt lat="44.0445708" lon="7.738851"><ele>1424.4</ele><time>2026-05-02T14:58:37.044Z</time></trkpt><trkpt lat="44.0445523" lon="7.7387254"><ele>1423.1999999999998</ele><time>2026-05-02T14:58:38.044Z</time></trkpt><trkpt lat="44.0445287" lon="7.7386198"><ele>1422.0</ele><time>2026-05-02T14:58:39.043Z</time></trkpt><trkpt lat="44.0444929" lon="7.7385155"><ele>1426.1999999999998</ele><time>2026-05-02T14:58:40.043Z</time></trkpt><trkpt lat="44.0444334" lon="7.7384188"><ele>1430.4</ele><time>2026-05-02T14:58:41.043Z</time></trkpt><trkpt lat="44.044365" lon="7.7383158"><ele>1434.6</ele><time>2026-05-02T14:58:42.044Z</time></trkpt><trkpt lat="44.0442871" lon="7.73822"><ele>1438.8000000000002</ele><time>2026-05-02T14:58:43.043Z</time></trkpt><trkpt lat="44.0442252" lon="7.7381328"><ele>1443.0</ele><time>2026-05-02T14:58:44.043Z</time></trkpt><trkpt lat="44.0441605" lon="7.7380335"><ele>1441.6000000000001</ele><time>2026-05-02T14:58:45.043Z</time></trkpt><trkpt lat="44.0441017" lon="7.7379445"><ele>1440.2</ele><time>2026-05-02T14:58:46.044Z</time></trkpt><trkpt lat="44.0440356" lon="7.7378376"><ele>1438.8</ele><time>2026-05-02T14:58:47.044Z</time></trkpt><trkpt lat="44.0439732" lon="7.7377197"><ele>1437.4</ele><time>2026-05-02T14:58:48.043Z</time></trkpt><trkpt lat="44.0439075" lon="7.7376056"><ele>1436.0</ele><time>2026-05-02T14:58:49.043Z</time></trkpt><trkpt lat="44.0438268" lon="7.7374903"><ele>1436.0</ele><time>2026-05-02T14:58:50.043Z</time></trkpt><trkpt lat="44.0437416" lon="7.7373712"><ele>1436.0</ele><time>2026-05-02T14:58:51.043Z</time></trkpt><trkpt lat="44.0436564" lon="7.7372427"><ele>1436.0</ele><time>2026-05-02T14:58:52.043Z</time></trkpt><trkpt lat="44.0435476" lon="7.73712"><ele>1436.0</ele><time>2026-05-02T14:58:53.043Z</time></trkpt><trkpt lat="44.0434536" lon="7.737014"><ele>1436.0</ele><time>2026-05-02T14:58:54.043Z</time></trkpt><trkpt lat="44.0433645" lon="7.7369157"><ele>1436.0</ele><time>2026-05-02T14:58:55.044Z</time></trkpt><trkpt lat="44.0432877" lon="7.7368211"><ele>1436.0</ele><time>2026-05-02T14:58:56.044Z</time></trkpt><trkpt lat="44.0432415" lon="7.7367231"><ele>1436.0</ele><time>2026-05-02T14:58:57.043Z</time></trkpt><trkpt lat="44.0431872" lon="7.7366103"><ele>1436.0</ele><time>2026-05-02T14:58:58.043Z</time></trkpt><trkpt lat="44.0431313" lon="7.736478"><ele>1432.75</ele><time>2026-05-02T14:58:59.043Z</time></trkpt><trkpt lat="44.0430776" lon="7.7363441"><ele>1429.5</ele><time>2026-05-02T14:59:00.043Z</time></trkpt><trkpt lat="44.0430305" lon="7.7362083"><ele>1426.25</ele><time>2026-05-02T14:59:01.043Z</time></trkpt><trkpt lat="44.0429762" lon="7.736071"><ele>1423.0</ele><time>2026-05-02T14:59:02.043Z</time></trkpt><trkpt lat="44.0429161" lon="7.735925"><ele>1423.0</ele><time>2026-05-02T14:59:03.043Z</time></trkpt><trkpt lat="44.0428753" lon="7.7357996"><ele>1423.0</ele><time>2026-05-02T14:59:04.044Z</time></trkpt><trkpt lat="44.0428381" lon="7.7356956"><ele>1423.0</ele><time>2026-05-02T14:59:05.043Z</time></trkpt><trkpt lat="44.0428176" lon="7.7355972"><ele>1423.0</ele><time>2026-05-02T14:59:06.043Z</time></trkpt><trkpt lat="44.0428199" lon="7.7354935"><ele>1423.0</ele><time>2026-05-02T14:59:07.043Z</time></trkpt><trkpt lat="44.0428448" lon="7.7353837"><ele>1423.0</ele><time>2026-05-02T14:59:08.043Z</time></trkpt><trkpt lat="44.0429035" lon="7.7352885"><ele>1422.8000000000002</ele><time>2026-05-02T14:59:09.044Z</time></trkpt><trkpt lat="44.0429563" lon="7.7351866"><ele>1422.6</ele><time>2026-05-02T14:59:10.043Z</time></trkpt><trkpt lat="44.0430385" lon="7.7350943"><ele>1422.4</ele><time>2026-05-02T14:59:11.043Z</time></trkpt><trkpt lat="44.0431037" lon="7.7349946"><ele>1422.1999999999998</ele><time>2026-05-02T14:59:12.043Z</time></trkpt><trkpt lat="44.0431469" lon="7.7348484"><ele>1422.0</ele><time>2026-05-02T14:59:13.044Z</time></trkpt><trkpt lat="44.0431638" lon="7.7347312"><ele>1422.0</ele><time>2026-05-02T14:59:14.043Z</time></trkpt><trkpt lat="44.0431494" lon="7.7345937"><ele>1422.0</ele><time>2026-05-02T14:59:15.043Z</time></trkpt><trkpt lat="44.0431253" lon="7.7344408"><ele>1422.0</ele><time>2026-05-02T14:59:16.043Z</time></trkpt><trkpt lat="44.0431028" lon="7.734293"><ele>1422.0</ele><time>2026-05-02T14:59:17.044Z</time></trkpt><trkpt lat="44.0430747" lon="7.7341516"><ele>1422.0</ele><time>2026-05-02T14:59:18.044Z</time></trkpt><trkpt lat="44.0430425" lon="7.7340006"><ele>1422.1999999999998</ele><time>2026-05-02T14:59:19.044Z</time></trkpt><trkpt lat="44.0430129" lon="7.7338491"><ele>1422.4</ele><time>2026-05-02T14:59:20.043Z</time></trkpt><trkpt lat="44.0429748" lon="7.7336923"><ele>1422.6</ele><time>2026-05-02T14:59:21.044Z</time></trkpt><trkpt lat="44.0429426" lon="7.7335583"><ele>1422.8000000000002</ele><time>2026-05-02T14:59:22.043Z</time></trkpt><trkpt lat="44.0429068" lon="7.7334403"><ele>1423.0</ele><time>2026-05-02T14:59:23.044Z</time></trkpt><trkpt lat="44.0428861" lon="7.7333428"><ele>1426.1666666666665</ele><time>2026-05-02T14:59:24.043Z</time></trkpt><trkpt lat="44.0429034" lon="7.733196"><ele>1429.3333333333333</ele><time>2026-05-02T14:59:26.043Z</time></trkpt><trkpt lat="44.0429907" lon="7.7331358"><ele>1432.5</ele><time>2026-05-02T14:59:28.043Z</time></trkpt><trkpt lat="44.0430579" lon="7.733134"><ele>1435.6666666666667</ele><time>2026-05-02T14:59:29.044Z</time></trkpt><trkpt lat="44.0431319" lon="7.7331668"><ele>1438.8333333333335</ele><time>2026-05-02T14:59:30.044Z</time></trkpt><trkpt lat="44.0432071" lon="7.733202"><ele>1442.0</ele><time>2026-05-02T14:59:31.044Z</time></trkpt><trkpt lat="44.0432882" lon="7.7332254"><ele>1447.0</ele><time>2026-05-02T14:59:32.044Z</time></trkpt><trkpt lat="44.0433899" lon="7.7332291"><ele>1452.0</ele><time>2026-05-02T14:59:33.043Z</time></trkpt><trkpt lat="44.0434829" lon="7.7332369"><ele>1457.0</ele><time>2026-05-02T14:59:34.043Z</time></trkpt><trkpt lat="44.043584" lon="7.7332369"><ele>1462.0</ele><time>2026-05-02T14:59:35.043Z</time></trkpt><trkpt lat="44.0436917" lon="7.7332304"><ele>1467.0</ele><time>2026-05-02T14:59:36.044Z</time></trkpt><trkpt lat="44.0437834" lon="7.733247"><ele>1467.0</ele><time>2026-05-02T14:59:37.044Z</time></trkpt><trkpt lat="44.0438788" lon="7.733248"><ele>1467.0</ele><time>2026-05-02T14:59:38.045Z</time></trkpt><trkpt lat="44.043968" lon="7.7332526"><ele>1467.0</ele><time>2026-05-02T14:59:39.043Z</time></trkpt><trkpt lat="44.0440375" lon="7.7332154"><ele>1467.0</ele><time>2026-05-02T14:59:40.044Z</time></trkpt><trkpt lat="44.0441049" lon="7.7331321"><ele>1467.0</ele><time>2026-05-02T14:59:41.043Z</time></trkpt><trkpt lat="44.0441867" lon="7.7330625"><ele>1467.0</ele><time>2026-05-02T14:59:42.043Z</time></trkpt><trkpt lat="44.0442441" lon="7.732986"><ele>1470.1999999999998</ele><time>2026-05-02T14:59:43.043Z</time></trkpt><trkpt lat="44.0443314" lon="7.7328866"><ele>1473.4</ele><time>2026-05-02T14:59:44.043Z</time></trkpt><trkpt lat="44.044409" lon="7.7327909"><ele>1476.6</ele><time>2026-05-02T14:59:45.043Z</time></trkpt><trkpt lat="44.0444828" lon="7.7327102"><ele>1479.8000000000002</ele><time>2026-05-02T14:59:46.043Z</time></trkpt><trkpt lat="44.0445474" lon="7.7326494"><ele>1483.0</ele><time>2026-05-02T14:59:47.044Z</time></trkpt><trkpt lat="44.0446072" lon="7.7325819"><ele>1479.1666666666665</ele><time>2026-05-02T14:59:48.044Z</time></trkpt><trkpt lat="44.0446734" lon="7.7325489"><ele>1475.3333333333333</ele><time>2026-05-02T14:59:49.044Z</time></trkpt><trkpt lat="44.0447501" lon="7.7325122"><ele>1471.5</ele><time>2026-05-02T14:59:50.044Z</time></trkpt><trkpt lat="44.0448272" lon="7.7325445"><ele>1467.6666666666667</ele><time>2026-05-02T14:59:51.043Z</time></trkpt><trkpt lat="44.0449085" lon="7.7325655"><ele>1463.8333333333335</ele><time>2026-05-02T14:59:52.043Z</time></trkpt><trkpt lat="44.0449903" lon="7.7326012"><ele>1460.0</ele><time>2026-05-02T14:59:53.043Z</time></trkpt><trkpt lat="44.0450815" lon="7.73264"><ele>1460.0</ele><time>2026-05-02T14:59:54.043Z</time></trkpt><trkpt lat="44.0451654" lon="7.7326783"><ele>1460.0</ele><time>2026-05-02T14:59:55.043Z</time></trkpt><trkpt lat="44.0452527" lon="7.7327251"><ele>1460.0</ele><time>2026-05-02T14:59:56.044Z</time></trkpt><trkpt lat="44.0453351" lon="7.7327676"><ele>1460.0</ele><time>2026-05-02T14:59:57.044Z</time></trkpt><trkpt lat="44.0454284" lon="7.732808"><ele>1460.0</ele><time>2026-05-02T14:59:58.043Z</time></trkpt><trkpt lat="44.0455215" lon="7.7328434"><ele>1464.8</ele><time>2026-05-02T14:59:59.043Z</time></trkpt><trkpt lat="44.0456182" lon="7.7328784"><ele>1469.6</ele><time>2026-05-02T15:00:00.044Z</time></trkpt><trkpt lat="44.0457182" lon="7.7329084"><ele>1474.4</ele><time>2026-05-02T15:00:01.043Z</time></trkpt><trkpt lat="44.0458206" lon="7.7329537"><ele>1479.2</ele><time>2026-05-02T15:00:02.043Z</time></trkpt><trkpt lat="44.0459173" lon="7.7329991"><ele>1484.0</ele><time>2026-05-02T15:00:03.043Z</time></trkpt><trkpt lat="44.0460077" lon="7.7330495"><ele>1484.0</ele><time>2026-05-02T15:00:04.043Z</time></trkpt><trkpt lat="44.0461005" lon="7.7330944"><ele>1484.0</ele><time>2026-05-02T15:00:05.043Z</time></trkpt><trkpt lat="44.046184" lon="7.7331583"><ele>1484.0</ele><time>2026-05-02T15:00:06.044Z</time></trkpt><trkpt lat="44.0462714" lon="7.7332191"><ele>1484.0</ele><time>2026-05-02T15:00:07.043Z</time></trkpt><trkpt lat="44.0463579" lon="7.7332909"><ele>1484.0</ele><time>2026-05-02T15:00:08.043Z</time></trkpt><trkpt lat="44.0464384" lon="7.7333478"><ele>1484.0</ele><time>2026-05-02T15:00:09.043Z</time></trkpt><trkpt lat="44.0465292" lon="7.7334131"><ele>1484.0</ele><time>2026-05-02T15:00:10.043Z</time></trkpt><trkpt lat="44.0466124" lon="7.7334633"><ele>1484.0</ele><time>2026-05-02T15:00:11.043Z</time></trkpt><trkpt lat="44.0467174" lon="7.7335412"><ele>1484.0</ele><time>2026-05-02T15:00:12.044Z</time></trkpt><trkpt lat="44.0467877" lon="7.733548"><ele>1484.0</ele><time>2026-05-02T15:00:13.043Z</time></trkpt><trkpt lat="44.0468801" lon="7.7335234"><ele>1480.0</ele><time>2026-05-02T15:00:14.043Z</time></trkpt><trkpt lat="44.0469505" lon="7.7335104"><ele>1476.0</ele><time>2026-05-02T15:00:15.044Z</time></trkpt><trkpt lat="44.0470601" lon="7.7334378"><ele>1472.0</ele><time>2026-05-02T15:00:17.043Z</time></trkpt><trkpt lat="44.0471185" lon="7.7333432"><ele>1468.0</ele><time>2026-05-02T15:00:18.044Z</time></trkpt><trkpt lat="44.0471719" lon="7.7332512"><ele>1464.0</ele><time>2026-05-02T15:00:19.043Z</time></trkpt><trkpt lat="44.0472303" lon="7.733167"><ele>1464.0</ele><time>2026-05-02T15:00:20.043Z</time></trkpt><trkpt lat="44.047296" lon="7.7330961"><ele>1464.0</ele><time>2026-05-02T15:00:21.043Z</time></trkpt><trkpt lat="44.0473555" lon="7.7330225"><ele>1464.0</ele><time>2026-05-02T15:00:22.043Z</time></trkpt><trkpt lat="44.0474399" lon="7.7329613"><ele>1464.0</ele><time>2026-05-02T15:00:23.043Z</time></trkpt><trkpt lat="44.0475184" lon="7.7329326"><ele>1464.0</ele><time>2026-05-02T15:00:24.043Z</time></trkpt><trkpt lat="44.0476056" lon="7.7328921"><ele>1464.0</ele><time>2026-05-02T15:00:25.043Z</time></trkpt><trkpt lat="44.0476945" lon="7.73287"><ele>1466.6</ele><time>2026-05-02T15:00:26.043Z</time></trkpt><trkpt lat="44.0477802" lon="7.7328621"><ele>1469.2</ele><time>2026-05-02T15:00:27.043Z</time></trkpt><trkpt lat="44.0478478" lon="7.7328361"><ele>1471.8</ele><time>2026-05-02T15:00:28.043Z</time></trkpt><trkpt lat="44.0479529" lon="7.7327681"><ele>1474.3999999999999</ele><time>2026-05-02T15:00:30.043Z</time></trkpt><trkpt lat="44.0480199" lon="7.7326365"><ele>1477.0</ele><time>2026-05-02T15:00:31.043Z</time></trkpt><trkpt lat="44.0480376" lon="7.732492"><ele>1476.0</ele><time>2026-05-02T15:00:32.043Z</time></trkpt><trkpt lat="44.0480696" lon="7.732404"><ele>1475.0</ele><time>2026-05-02T15:00:33.043Z</time></trkpt><trkpt lat="44.0481161" lon="7.7323232"><ele>1474.0</ele><time>2026-05-02T15:00:34.043Z</time></trkpt><trkpt lat="44.04817" lon="7.7322596"><ele>1473.0</ele><time>2026-05-02T15:00:35.043Z</time></trkpt><trkpt lat="44.0482371" lon="7.7322217"><ele>1472.0</ele><time>2026-05-02T15:00:36.043Z</time></trkpt><trkpt lat="44.0483226" lon="7.7322037"><ele>1471.0</ele><time>2026-05-02T15:00:37.043Z</time></trkpt><trkpt lat="44.0483821" lon="7.7321582"><ele>1470.0</ele><time>2026-05-02T15:00:38.043Z</time></trkpt><trkpt lat="44.0484398" lon="7.7320635"><ele>1470.0</ele><time>2026-05-02T15:00:39.043Z</time></trkpt><trkpt lat="44.0485006" lon="7.731995"><ele>1470.0</ele><time>2026-05-02T15:00:40.043Z</time></trkpt><trkpt lat="44.0485567" lon="7.7319295"><ele>1470.0</ele><time>2026-05-02T15:00:41.043Z</time></trkpt><trkpt lat="44.0486686" lon="7.7317066"><ele>1470.0</ele><time>2026-05-02T15:00:44.044Z</time></trkpt><trkpt lat="44.0486812" lon="7.7316007"><ele>1470.0</ele><time>2026-05-02T15:00:45.043Z</time></trkpt><trkpt lat="44.0485975" lon="7.7315004"><ele>1467.5</ele><time>2026-05-02T15:00:46.044Z</time></trkpt><trkpt lat="44.0485722" lon="7.7313902"><ele>1465.0</ele><time>2026-05-02T15:00:47.043Z</time></trkpt><trkpt lat="44.0485503" lon="7.7312727"><ele>1462.5</ele><time>2026-05-02T15:00:48.043Z</time></trkpt><trkpt lat="44.0485216" lon="7.7311548"><ele>1460.0</ele><time>2026-05-02T15:00:49.043Z</time></trkpt><trkpt lat="44.0484785" lon="7.7310468"><ele>1457.5</ele><time>2026-05-02T15:00:50.044Z</time></trkpt><trkpt lat="44.0484305" lon="7.7309386"><ele>1455.0</ele><time>2026-05-02T15:00:51.043Z</time></trkpt><trkpt lat="44.0483784" lon="7.7308378"><ele>1455.0</ele><time>2026-05-02T15:00:52.043Z</time></trkpt><trkpt lat="44.0483241" lon="7.7307408"><ele>1455.0</ele><time>2026-05-02T15:00:53.043Z</time></trkpt><trkpt lat="44.0482489" lon="7.7306459"><ele>1455.0</ele><time>2026-05-02T15:00:54.043Z</time></trkpt><trkpt lat="44.0481901" lon="7.7305608"><ele>1455.0</ele><time>2026-05-02T15:00:55.043Z</time></trkpt><trkpt lat="44.0481423" lon="7.7304743"><ele>1455.0</ele><time>2026-05-02T15:00:56.043Z</time></trkpt><trkpt lat="44.0481303" lon="7.730332"><ele>1445.8333333333333</ele><time>2026-05-02T15:00:58.044Z</time></trkpt><trkpt lat="44.0481315" lon="7.7302404"><ele>1436.6666666666667</ele><time>2026-05-02T15:00:59.044Z</time></trkpt><trkpt lat="44.0481514" lon="7.7301222"><ele>1427.5</ele><time>2026-05-02T15:01:00.044Z</time></trkpt><trkpt lat="44.0481545" lon="7.7299907"><ele>1418.3333333333335</ele><time>2026-05-02T15:01:01.043Z</time></trkpt><trkpt lat="44.0481568" lon="7.7298505"><ele>1409.1666666666667</ele><time>2026-05-02T15:01:02.043Z</time></trkpt><trkpt lat="44.0481693" lon="7.7297123"><ele>1400.0</ele><time>2026-05-02T15:01:03.043Z</time></trkpt><trkpt lat="44.048185" lon="7.7295798"><ele>1400.0</ele><time>2026-05-02T15:01:04.043Z</time></trkpt><trkpt lat="44.0481971" lon="7.7294475"><ele>1400.0</ele><time>2026-05-02T15:01:05.043Z</time></trkpt><trkpt lat="44.0482127" lon="7.7293385"><ele>1400.0</ele><time>2026-05-02T15:01:06.043Z</time></trkpt><trkpt lat="44.0482377" lon="7.7292469"><ele>1400.0</ele><time>2026-05-02T15:01:07.043Z</time></trkpt><trkpt lat="44.0483121" lon="7.7291149"><ele>1400.0</ele><time>2026-05-02T15:01:09.044Z</time></trkpt><trkpt lat="44.0484241" lon="7.7290908"><ele>1407.5</ele><time>2026-05-02T15:01:11.043Z</time></trkpt><trkpt lat="44.0484903" lon="7.7290862"><ele>1415.0</ele><time>2026-05-02T15:01:12.044Z</time></trkpt><trkpt lat="44.0485522" lon="7.7291426"><ele>1422.5</ele><time>2026-05-02T15:01:13.043Z</time></trkpt><trkpt lat="44.0486305" lon="7.7292032"><ele>1430.0</ele><time>2026-05-02T15:01:14.043Z</time></trkpt><trkpt lat="44.0487551" lon="7.7292574"><ele>1437.5</ele><time>2026-05-02T15:01:15.043Z</time></trkpt><trkpt lat="44.0488179" lon="7.7292944"><ele>1445.0</ele><time>2026-05-02T15:01:16.043Z</time></trkpt><trkpt lat="44.0488834" lon="7.7293074"><ele>1445.0</ele><time>2026-05-02T15:01:17.043Z</time></trkpt><trkpt lat="44.0489662" lon="7.7293226"><ele>1445.0</ele><time>2026-05-02T15:01:18.044Z</time></trkpt><trkpt lat="44.0490669" lon="7.7292274"><ele>1445.0</ele><time>2026-05-02T15:01:20.043Z</time></trkpt><trkpt lat="44.0491445" lon="7.7291879"><ele>1445.0</ele><time>2026-05-02T15:01:21.043Z</time></trkpt><trkpt lat="44.0492829" lon="7.7291887"><ele>1445.0</ele><time>2026-05-02T15:01:23.043Z</time></trkpt><trkpt lat="44.0493478" lon="7.7291904"><ele>1448.3333333333335</ele><time>2026-05-02T15:01:24.044Z</time></trkpt><trkpt lat="44.049408" lon="7.729224"><ele>1451.6666666666667</ele><time>2026-05-02T15:01:25.043Z</time></trkpt><trkpt lat="44.0494788" lon="7.7292806"><ele>1455.0</ele><time>2026-05-02T15:01:26.043Z</time></trkpt><trkpt lat="44.0495217" lon="7.7293797"><ele>1458.3333333333333</ele><time>2026-05-02T15:01:27.043Z</time></trkpt><trkpt lat="44.0496016" lon="7.7294248"><ele>1461.6666666666665</ele><time>2026-05-02T15:01:28.044Z</time></trkpt><trkpt lat="44.0496771" lon="7.7294576"><ele>1465.0</ele><time>2026-05-02T15:01:29.043Z</time></trkpt><trkpt lat="44.0497553" lon="7.7294953"><ele>1473.0</ele><time>2026-05-02T15:01:30.043Z</time></trkpt><trkpt lat="44.0498424" lon="7.7295051"><ele>1481.0</ele><time>2026-05-02T15:01:31.043Z</time></trkpt><trkpt lat="44.0499788" lon="7.7295133"><ele>1489.0</ele><time>2026-05-02T15:01:32.043Z</time></trkpt><trkpt lat="44.0500708" lon="7.7295191"><ele>1497.0</ele><time>2026-05-02T15:01:33.044Z</time></trkpt><trkpt lat="44.0502144" lon="7.7295041"><ele>1499.0</ele><time>2026-05-02T15:01:34.044Z</time></trkpt><trkpt lat="44.0503369" lon="7.7294987"><ele>1501.0</ele><time>2026-05-02T15:01:35.044Z</time></trkpt><trkpt lat="44.050431" lon="7.7295105"><ele>1503.0</ele><time>2026-05-02T15:01:36.044Z</time></trkpt><trkpt lat="44.0505273" lon="7.729552"><ele>1505.0</ele><time>2026-05-02T15:01:37.044Z</time></trkpt><trkpt lat="44.0506148" lon="7.7295257"><ele>1507.0</ele><time>2026-05-02T15:01:38.043Z</time></trkpt><trkpt lat="44.0506667" lon="7.7294588"><ele>1507.0</ele><time>2026-05-02T15:01:39.043Z</time></trkpt><trkpt lat="44.0507448" lon="7.7294307"><ele>1507.0</ele><time>2026-05-02T15:01:40.043Z</time></trkpt><trkpt lat="44.0508544" lon="7.7294231"><ele>1507.0</ele><time>2026-05-02T15:01:41.044Z</time></trkpt><trkpt lat="44.0509303" lon="7.7293797"><ele>1507.0</ele><time>2026-05-02T15:01:42.044Z</time></trkpt><trkpt lat="44.0510283" lon="7.7293198"><ele>1507.0</ele><time>2026-05-02T15:01:43.043Z</time></trkpt><trkpt lat="44.0511127" lon="7.7292874"><ele>1498.6</ele><time>2026-05-02T15:01:44.044Z</time></trkpt><trkpt lat="44.0512061" lon="7.72929"><ele>1490.1999999999998</ele><time>2026-05-02T15:01:45.043Z</time></trkpt><trkpt lat="44.0513415" lon="7.7292756"><ele>1481.8</ele><time>2026-05-02T15:01:46.043Z</time></trkpt><trkpt lat="44.0514156" lon="7.7292448"><ele>1473.4</ele><time>2026-05-02T15:01:47.043Z</time></trkpt><trkpt lat="44.0515122" lon="7.7292553"><ele>1465.0</ele><time>2026-05-02T15:01:48.043Z</time></trkpt><trkpt lat="44.0515929" lon="7.729233"><ele>1468.3333333333333</ele><time>2026-05-02T15:01:49.043Z</time></trkpt><trkpt lat="44.0516828" lon="7.7291969"><ele>1471.6666666666665</ele><time>2026-05-02T15:01:50.043Z</time></trkpt><trkpt lat="44.0517425" lon="7.7291233"><ele>1475.0</ele><time>2026-05-02T15:01:51.043Z</time></trkpt><trkpt lat="44.0517676" lon="7.7290313"><ele>1478.3333333333333</ele><time>2026-05-02T15:01:52.043Z</time></trkpt><trkpt lat="44.0518282" lon="7.7289741"><ele>1481.6666666666667</ele><time>2026-05-02T15:01:53.043Z</time></trkpt><trkpt lat="44.0518878" lon="7.7289449"><ele>1485.0</ele><time>2026-05-02T15:01:54.044Z</time></trkpt><trkpt lat="44.0519566" lon="7.7289258"><ele>1485.0</ele><time>2026-05-02T15:01:55.043Z</time></trkpt><trkpt lat="44.0520295" lon="7.7288981"><ele>1485.0</ele><time>2026-05-02T15:01:56.043Z</time></trkpt><trkpt lat="44.0521012" lon="7.72886"><ele>1485.0</ele><time>2026-05-02T15:01:57.043Z</time></trkpt><trkpt lat="44.0521673" lon="7.7288222"><ele>1485.0</ele><time>2026-05-02T15:01:58.043Z</time></trkpt><trkpt lat="44.052267" lon="7.7287324"><ele>1485.0</ele><time>2026-05-02T15:02:00.043Z</time></trkpt><trkpt lat="44.052256" lon="7.7286028"><ele>1485.0</ele><time>2026-05-02T15:02:01.043Z</time></trkpt><trkpt lat="44.0522424" lon="7.7284928"><ele>1479.8</ele><time>2026-05-02T15:02:02.043Z</time></trkpt><trkpt lat="44.0522462" lon="7.7283389"><ele>1474.6</ele><time>2026-05-02T15:02:04.043Z</time></trkpt><trkpt lat="44.0522235" lon="7.728244"><ele>1469.4</ele><time>2026-05-02T15:02:05.043Z</time></trkpt><trkpt lat="44.0521105" lon="7.728105"><ele>1464.2</ele><time>2026-05-02T15:02:07.044Z</time></trkpt><trkpt lat="44.0520701" lon="7.7280075"><ele>1459.0</ele><time>2026-05-02T15:02:08.043Z</time></trkpt><trkpt lat="44.0520436" lon="7.7279061"><ele>1459.0</ele><time>2026-05-02T15:02:09.044Z</time></trkpt><trkpt lat="44.0520291" lon="7.7277962"><ele>1459.0</ele><time>2026-05-02T15:02:10.043Z</time></trkpt><trkpt lat="44.0520307" lon="7.7276847"><ele>1459.0</ele><time>2026-05-02T15:02:11.044Z</time></trkpt><trkpt lat="44.0520294" lon="7.7275627"><ele>1459.0</ele><time>2026-05-02T15:02:12.044Z</time></trkpt><trkpt lat="44.0520315" lon="7.7274466"><ele>1459.0</ele><time>2026-05-02T15:02:13.043Z</time></trkpt><trkpt lat="44.052031" lon="7.7273242"><ele>1459.0</ele><time>2026-05-02T15:02:14.043Z</time></trkpt><trkpt lat="44.0520376" lon="7.7272055"><ele>1458.3333333333333</ele><time>2026-05-02T15:02:15.043Z</time></trkpt><trkpt lat="44.052063" lon="7.7271133"><ele>1457.6666666666665</ele><time>2026-05-02T15:02:16.044Z</time></trkpt><trkpt lat="44.0520963" lon="7.7270229"><ele>1457.0</ele><time>2026-05-02T15:02:17.043Z</time></trkpt><trkpt lat="44.0521475" lon="7.7269392"><ele>1456.3333333333333</ele><time>2026-05-02T15:02:18.043Z</time></trkpt><trkpt lat="44.0522106" lon="7.7268705"><ele>1455.6666666666667</ele><time>2026-05-02T15:02:19.044Z</time></trkpt><trkpt lat="44.0522681" lon="7.7267932"><ele>1455.0</ele><time>2026-05-02T15:02:20.043Z</time></trkpt><trkpt lat="44.0523365" lon="7.7267321"><ele>1454.0</ele><time>2026-05-02T15:02:21.044Z</time></trkpt><trkpt lat="44.0524079" lon="7.7266671"><ele>1453.0</ele><time>2026-05-02T15:02:22.043Z</time></trkpt><trkpt lat="44.05247" lon="7.7265809"><ele>1452.0</ele><time>2026-05-02T15:02:23.043Z</time></trkpt><trkpt lat="44.0525289" lon="7.726512"><ele>1451.0</ele><time>2026-05-02T15:02:24.043Z</time></trkpt><trkpt lat="44.0526008" lon="7.7264896"><ele>1450.0</ele><time>2026-05-02T15:02:25.043Z</time></trkpt><trkpt lat="44.0526678" lon="7.7264634"><ele>1449.0</ele><time>2026-05-02T15:02:26.043Z</time></trkpt><trkpt lat="44.05275" lon="7.7264271"><ele>1456.1666666666667</ele><time>2026-05-02T15:02:27.044Z</time></trkpt><trkpt lat="44.0528265" lon="7.7264096"><ele>1463.3333333333333</ele><time>2026-05-02T15:02:28.043Z</time></trkpt><trkpt lat="44.0529205" lon="7.7263796"><ele>1470.5</ele><time>2026-05-02T15:02:29.044Z</time></trkpt><trkpt lat="44.053003" lon="7.7263764"><ele>1477.6666666666665</ele><time>2026-05-02T15:02:30.044Z</time></trkpt><trkpt lat="44.0530699" lon="7.7263414"><ele>1484.8333333333333</ele><time>2026-05-02T15:02:31.043Z</time></trkpt><trkpt lat="44.0531626" lon="7.7263109"><ele>1492.0</ele><time>2026-05-02T15:02:32.043Z</time></trkpt><trkpt lat="44.0532446" lon="7.7262811"><ele>1495.4285714285716</ele><time>2026-05-02T15:02:33.044Z</time></trkpt><trkpt lat="44.0533158" lon="7.7262405"><ele>1498.857142857143</ele><time>2026-05-02T15:02:34.044Z</time></trkpt><trkpt lat="44.0533904" lon="7.7262125"><ele>1502.2857142857142</ele><time>2026-05-02T15:02:35.043Z</time></trkpt><trkpt lat="44.0534633" lon="7.7262072"><ele>1505.7142857142858</ele><time>2026-05-02T15:02:36.044Z</time></trkpt><trkpt lat="44.0535265" lon="7.7261957"><ele>1509.142857142857</ele><time>2026-05-02T15:02:37.043Z</time></trkpt><trkpt lat="44.0535886" lon="7.7261792"><ele>1512.5714285714287</ele><time>2026-05-02T15:02:38.044Z</time></trkpt><trkpt lat="44.0536728" lon="7.7261706"><ele>1516.0</ele><time>2026-05-02T15:02:40.043Z</time></trkpt><trkpt lat="44.0537354" lon="7.7261951"><ele>1516.0</ele><time>2026-05-02T15:02:42.043Z</time></trkpt><trkpt lat="44.0538125" lon="7.7262024"><ele>1516.0</ele><time>2026-05-02T15:02:45.043Z</time></trkpt><trkpt lat="44.0538918" lon="7.7262006"><ele>1516.0</ele><time>2026-05-02T15:02:47.043Z</time></trkpt><trkpt lat="44.0539549" lon="7.7261475"><ele>1516.0</ele><time>2026-05-02T15:02:49.044Z</time></trkpt><trkpt lat="44.0540022" lon="7.7260678"><ele>1516.0</ele><time>2026-05-02T15:02:51.044Z</time></trkpt><trkpt lat="44.0540376" lon="7.7259807"><ele>1516.0</ele><time>2026-05-02T15:02:53.043Z</time></trkpt><trkpt lat="44.0540219" lon="7.7258395"><ele>1510.5</ele><time>2026-05-02T15:02:55.044Z</time></trkpt><trkpt lat="44.0540084" lon="7.7256931"><ele>1505.0</ele><time>2026-05-02T15:02:57.043Z</time></trkpt><trkpt lat="44.0539829" lon="7.725529"><ele>1499.5</ele><time>2026-05-02T15:02:59.044Z</time></trkpt><trkpt lat="44.0539669" lon="7.7254412"><ele>1494.0</ele><time>2026-05-02T15:03:00.043Z</time></trkpt><trkpt lat="44.0539466" lon="7.7253513"><ele>1488.5</ele><time>2026-05-02T15:03:01.043Z</time></trkpt><trkpt lat="44.0539246" lon="7.7252495"><ele>1483.0</ele><time>2026-05-02T15:03:02.044Z</time></trkpt><trkpt lat="44.053891" lon="7.7251391"><ele>1480.6666666666665</ele><time>2026-05-02T15:03:03.043Z</time></trkpt><trkpt lat="44.053868" lon="7.7250249"><ele>1478.3333333333333</ele><time>2026-05-02T15:03:04.044Z</time></trkpt><trkpt lat="44.0538451" lon="7.724908"><ele>1476.0</ele><time>2026-05-02T15:03:05.043Z</time></trkpt><trkpt lat="44.0538253" lon="7.7248013"><ele>1473.6666666666667</ele><time>2026-05-02T15:03:06.043Z</time></trkpt><trkpt lat="44.053811" lon="7.7246845"><ele>1471.3333333333335</ele><time>2026-05-02T15:03:07.043Z</time></trkpt><trkpt lat="44.0537973" lon="7.7245695"><ele>1469.0</ele><time>2026-05-02T15:03:08.043Z</time></trkpt><trkpt lat="44.0537899" lon="7.724458"><ele>1470.3333333333335</ele><time>2026-05-02T15:03:09.044Z</time></trkpt><trkpt lat="44.0537864" lon="7.7243434"><ele>1471.6666666666667</ele><time>2026-05-02T15:03:10.043Z</time></trkpt><trkpt lat="44.0537888" lon="7.7242331"><ele>1473.0</ele><time>2026-05-02T15:03:11.043Z</time></trkpt><trkpt lat="44.0537959" lon="7.724127"><ele>1474.3333333333333</ele><time>2026-05-02T15:03:12.043Z</time></trkpt><trkpt lat="44.0538262" lon="7.7240211"><ele>1475.6666666666665</ele><time>2026-05-02T15:03:13.043Z</time></trkpt><trkpt lat="44.0538502" lon="7.7239357"><ele>1477.0</ele><time>2026-05-02T15:03:14.043Z</time></trkpt><trkpt lat="44.0538786" lon="7.7238338"><ele>1477.0</ele><time>2026-05-02T15:03:15.043Z</time></trkpt><trkpt lat="44.0539186" lon="7.7237345"><ele>1477.0</ele><time>2026-05-02T15:03:16.043Z</time></trkpt><trkpt lat="44.0539546" lon="7.7236463"><ele>1477.0</ele><time>2026-05-02T15:03:17.043Z</time></trkpt><trkpt lat="44.0539883" lon="7.723552"><ele>1477.0</ele><time>2026-05-02T15:03:18.043Z</time></trkpt><trkpt lat="44.0540334" lon="7.7234004"><ele>1477.0</ele><time>2026-05-02T15:03:20.043Z</time></trkpt><trkpt lat="44.0540262" lon="7.7232496"><ele>1478.1666666666665</ele><time>2026-05-02T15:03:22.044Z</time></trkpt><trkpt lat="44.0539683" lon="7.7231711"><ele>1479.3333333333333</ele><time>2026-05-02T15:03:23.043Z</time></trkpt><trkpt lat="44.053913" lon="7.7231014"><ele>1480.5</ele><time>2026-05-02T15:03:24.043Z</time></trkpt><trkpt lat="44.0538558" lon="7.7230374"><ele>1481.6666666666667</ele><time>2026-05-02T15:03:25.044Z</time></trkpt><trkpt lat="44.053794" lon="7.7229627"><ele>1482.8333333333335</ele><time>2026-05-02T15:03:26.043Z</time></trkpt><trkpt lat="44.0537393" lon="7.7228869"><ele>1484.0</ele><time>2026-05-02T15:03:27.043Z</time></trkpt><trkpt lat="44.0536888" lon="7.7227996"><ele>1487.6</ele><time>2026-05-02T15:03:28.043Z</time></trkpt><trkpt lat="44.0536482" lon="7.7226943"><ele>1491.2</ele><time>2026-05-02T15:03:29.043Z</time></trkpt><trkpt lat="44.0536062" lon="7.7225798"><ele>1494.8</ele><time>2026-05-02T15:03:30.043Z</time></trkpt><trkpt lat="44.0535715" lon="7.7224639"><ele>1498.3999999999999</ele><time>2026-05-02T15:03:31.043Z</time></trkpt><trkpt lat="44.0535333" lon="7.7223494"><ele>1502.0</ele><time>2026-05-02T15:03:32.044Z</time></trkpt><trkpt lat="44.0534971" lon="7.7222338"><ele>1502.0</ele><time>2026-05-02T15:03:33.043Z</time></trkpt><trkpt lat="44.0534622" lon="7.7221276"><ele>1502.0</ele><time>2026-05-02T15:03:34.043Z</time></trkpt><trkpt lat="44.0534195" lon="7.7220324"><ele>1502.0</ele><time>2026-05-02T15:03:35.043Z</time></trkpt><trkpt lat="44.053376" lon="7.7219337"><ele>1502.0</ele><time>2026-05-02T15:03:36.043Z</time></trkpt><trkpt lat="44.0533414" lon="7.7218538"><ele>1502.0</ele><time>2026-05-02T15:03:37.043Z</time></trkpt><trkpt lat="44.0533204" lon="7.7216964"><ele>1502.0</ele><time>2026-05-02T15:03:39.043Z</time></trkpt><trkpt lat="44.053386" lon="7.7215681"><ele>1504.0</ele><time>2026-05-02T15:03:41.043Z</time></trkpt><trkpt lat="44.0534415" lon="7.7215185"><ele>1506.0</ele><time>2026-05-02T15:03:42.043Z</time></trkpt><trkpt lat="44.0535068" lon="7.7214708"><ele>1508.0</ele><time>2026-05-02T15:03:43.043Z</time></trkpt><trkpt lat="44.0535825" lon="7.7214246"><ele>1510.0</ele><time>2026-05-02T15:03:44.044Z</time></trkpt><trkpt lat="44.0536548" lon="7.7213711"><ele>1512.0</ele><time>2026-05-02T15:03:45.044Z</time></trkpt><trkpt lat="44.0537265" lon="7.7213207"><ele>1514.0</ele><time>2026-05-02T15:03:46.043Z</time></trkpt><trkpt lat="44.0538049" lon="7.7212627"><ele>1514.0</ele><time>2026-05-02T15:03:47.043Z</time></trkpt><trkpt lat="44.0538665" lon="7.7212026"><ele>1514.0</ele><time>2026-05-02T15:03:48.043Z</time></trkpt><trkpt lat="44.0539385" lon="7.7211296"><ele>1514.0</ele><time>2026-05-02T15:03:49.044Z</time></trkpt><trkpt lat="44.0540099" lon="7.721068"><ele>1514.0</ele><time>2026-05-02T15:03:50.043Z</time></trkpt><trkpt lat="44.0540784" lon="7.7209893"><ele>1514.0</ele><time>2026-05-02T15:03:51.044Z</time></trkpt><trkpt lat="44.054143" lon="7.7209143"><ele>1514.0</ele><time>2026-05-02T15:03:52.043Z</time></trkpt><trkpt lat="44.0542085" lon="7.7208363"><ele>1515.3333333333335</ele><time>2026-05-02T15:03:53.043Z</time></trkpt><trkpt lat="44.0542762" lon="7.7207741"><ele>1516.6666666666667</ele><time>2026-05-02T15:03:54.043Z</time></trkpt><trkpt lat="44.0543516" lon="7.720711"><ele>1518.0</ele><time>2026-05-02T15:03:55.043Z</time></trkpt><trkpt lat="44.0544297" lon="7.7206533"><ele>1519.3333333333333</ele><time>2026-05-02T15:03:56.043Z</time></trkpt><trkpt lat="44.0545192" lon="7.7206105"><ele>1520.6666666666665</ele><time>2026-05-02T15:03:57.044Z</time></trkpt><trkpt lat="44.0545889" lon="7.7205702"><ele>1522.0</ele><time>2026-05-02T15:03:58.043Z</time></trkpt><trkpt lat="44.0546435" lon="7.7205185"><ele>1522.0</ele><time>2026-05-02T15:03:59.043Z</time></trkpt><trkpt lat="44.0546912" lon="7.7204589"><ele>1522.0</ele><time>2026-05-02T15:04:00.043Z</time></trkpt><trkpt lat="44.0546782" lon="7.7203098"><ele>1522.0</ele><time>2026-05-02T15:04:02.043Z</time></trkpt><trkpt lat="44.0546796" lon="7.7202154"><ele>1522.0</ele><time>2026-05-02T15:04:03.043Z</time></trkpt><trkpt lat="44.0546643" lon="7.7201041"><ele>1522.0</ele><time>2026-05-02T15:04:04.043Z</time></trkpt><trkpt lat="44.0546362" lon="7.719982"><ele>1522.0</ele><time>2026-05-02T15:04:05.043Z</time></trkpt><trkpt lat="44.0546117" lon="7.7198584"><ele>1520.1999999999998</ele><time>2026-05-02T15:04:06.043Z</time></trkpt><trkpt lat="44.0545806" lon="7.7197263"><ele>1518.4</ele><time>2026-05-02T15:04:07.043Z</time></trkpt><trkpt lat="44.0545555" lon="7.7196009"><ele>1516.6</ele><time>2026-05-02T15:04:08.043Z</time></trkpt><trkpt lat="44.0545302" lon="7.7194709"><ele>1514.8000000000002</ele><time>2026-05-02T15:04:09.043Z</time></trkpt><trkpt lat="44.054506" lon="7.7193396"><ele>1513.0</ele><time>2026-05-02T15:04:10.043Z</time></trkpt><trkpt lat="44.0544895" lon="7.71921"><ele>1513.0</ele><time>2026-05-02T15:04:11.043Z</time></trkpt><trkpt lat="44.0544798" lon="7.7190782"><ele>1513.0</ele><time>2026-05-02T15:04:12.044Z</time></trkpt><trkpt lat="44.0544734" lon="7.718954"><ele>1513.0</ele><time>2026-05-02T15:04:13.043Z</time></trkpt><trkpt lat="44.0544707" lon="7.7188276"><ele>1513.0</ele><time>2026-05-02T15:04:14.044Z</time></trkpt><trkpt lat="44.0544727" lon="7.71872"><ele>1513.0</ele><time>2026-05-02T15:04:15.044Z</time></trkpt><trkpt lat="44.0544794" lon="7.71863"><ele>1513.0</ele><time>2026-05-02T15:04:16.044Z</time></trkpt><trkpt lat="44.0545257" lon="7.7185087"><ele>1509.75</ele><time>2026-05-02T15:04:18.043Z</time></trkpt><trkpt lat="44.0546239" lon="7.7184278"><ele>1506.5</ele><time>2026-05-02T15:04:20.044Z</time></trkpt><trkpt lat="44.0547388" lon="7.7183957"><ele>1503.25</ele><time>2026-05-02T15:04:22.043Z</time></trkpt><trkpt lat="44.0548572" lon="7.7183746"><ele>1500.0</ele><time>2026-05-02T15:04:24.043Z</time></trkpt><trkpt lat="44.0535397" lon="7.7153041"><ele>1499.5</ele><time>2026-05-02T15:05:13.043Z</time></trkpt><trkpt lat="44.0534726" lon="7.7154529"><ele>1499.0</ele><time>2026-05-02T15:05:14.043Z</time></trkpt><trkpt lat="44.0533819" lon="7.7154639"><ele>1498.5</ele><time>2026-05-02T15:05:16.043Z</time></trkpt><trkpt lat="44.0533156" lon="7.715457"><ele>1498.0</ele><time>2026-05-02T15:07:28.044Z</time></trkpt><trkpt lat="44.0533468" lon="7.715373"><ele>1497.5</ele><time>2026-05-02T15:08:21.044Z</time></trkpt><trkpt lat="44.0532807" lon="7.7153895"><ele>1497.0</ele><time>2026-05-02T15:14:21.044Z</time></trkpt><trkpt lat="44.0532227" lon="7.7153292"><ele>1497.0</ele><time>2026-05-02T15:14:22.044Z</time></trkpt><trkpt lat="44.0531517" lon="7.7152574"><ele>1497.0</ele><time>2026-05-02T15:14:23.043Z</time></trkpt><trkpt lat="44.0530508" lon="7.7151649"><ele>1497.0</ele><time>2026-05-02T15:14:24.043Z</time></trkpt><trkpt lat="44.0529476" lon="7.7150952"><ele>1497.0</ele><time>2026-05-02T15:14:25.043Z</time></trkpt><trkpt lat="44.0528557" lon="7.7150415"><ele>1497.0</ele><time>2026-05-02T15:14:26.043Z</time></trkpt><trkpt lat="44.0527643" lon="7.7149899"><ele>1496.8</ele><time>2026-05-02T15:14:27.043Z</time></trkpt><trkpt lat="44.0526719" lon="7.7149342"><ele>1496.6</ele><time>2026-05-02T15:14:28.043Z</time></trkpt><trkpt lat="44.052589" lon="7.7148849"><ele>1496.3999999999999</ele><time>2026-05-02T15:14:29.043Z</time></trkpt><trkpt lat="44.052501" lon="7.7148436"><ele>1496.1999999999998</ele><time>2026-05-02T15:14:30.044Z</time></trkpt><trkpt lat="44.0524183" lon="7.7147989"><ele>1496.0</ele><time>2026-05-02T15:14:31.043Z</time></trkpt><trkpt lat="44.0523279" lon="7.7147542"><ele>1496.0</ele><time>2026-05-02T15:14:32.044Z</time></trkpt><trkpt lat="44.0522546" lon="7.7147026"><ele>1496.0</ele><time>2026-05-02T15:14:33.044Z</time></trkpt><trkpt lat="44.0521896" lon="7.7146446"><ele>1496.0</ele><time>2026-05-02T15:14:34.043Z</time></trkpt><trkpt lat="44.0521239" lon="7.7145832"><ele>1496.0</ele><time>2026-05-02T15:14:35.043Z</time></trkpt><trkpt lat="44.0520559" lon="7.7145057"><ele>1496.0</ele><time>2026-05-02T15:14:36.043Z</time></trkpt><trkpt lat="44.0519902" lon="7.7144402"><ele>1496.0</ele><time>2026-05-02T15:14:37.044Z</time></trkpt><trkpt lat="44.0519273" lon="7.71437"><ele>1501.5</ele><time>2026-05-02T15:14:38.043Z</time></trkpt><trkpt lat="44.0518575" lon="7.7143135"><ele>1507.0</ele><time>2026-05-02T15:14:39.044Z</time></trkpt><trkpt lat="44.0517917" lon="7.7142535"><ele>1512.5</ele><time>2026-05-02T15:14:40.044Z</time></trkpt><trkpt lat="44.0517358" lon="7.7141837"><ele>1518.0</ele><time>2026-05-02T15:14:41.043Z</time></trkpt><trkpt lat="44.051677" lon="7.7140575"><ele>1523.5</ele><time>2026-05-02T15:14:43.044Z</time></trkpt><trkpt lat="44.0516887" lon="7.7139174"><ele>1529.0</ele><time>2026-05-02T15:14:45.043Z</time></trkpt><trkpt lat="44.0517901" lon="7.7137748"><ele>1529.0</ele><time>2026-05-02T15:14:47.043Z</time></trkpt><trkpt lat="44.0518779" lon="7.7136797"><ele>1529.0</ele><time>2026-05-02T15:14:48.043Z</time></trkpt><trkpt lat="44.0519885" lon="7.7135742"><ele>1529.0</ele><time>2026-05-02T15:14:49.044Z</time></trkpt><trkpt lat="44.0521064" lon="7.7134591"><ele>1529.0</ele><time>2026-05-02T15:14:50.043Z</time></trkpt><trkpt lat="44.0522124" lon="7.7133558"><ele>1526.5</ele><time>2026-05-02T15:14:51.043Z</time></trkpt><trkpt lat="44.0522892" lon="7.7132671"><ele>1524.0</ele><time>2026-05-02T15:14:52.043Z</time></trkpt><trkpt lat="44.0523566" lon="7.7131992"><ele>1521.5</ele><time>2026-05-02T15:14:53.044Z</time></trkpt><trkpt lat="44.0524068" lon="7.7131372"><ele>1519.0</ele><time>2026-05-02T15:14:54.043Z</time></trkpt><trkpt lat="44.0524385" lon="7.7129783"><ele>1516.5</ele><time>2026-05-02T15:14:56.043Z</time></trkpt><trkpt lat="44.0524358" lon="7.7128737"><ele>1514.0</ele><time>2026-05-02T15:14:57.044Z</time></trkpt><trkpt lat="44.0524266" lon="7.7127602"><ele>1510.5</ele><time>2026-05-02T15:14:58.043Z</time></trkpt><trkpt lat="44.0524311" lon="7.7126513"><ele>1507.0</ele><time>2026-05-02T15:14:59.043Z</time></trkpt><trkpt lat="44.0524484" lon="7.7125477"><ele>1503.5</ele><time>2026-05-02T15:15:00.044Z</time></trkpt><trkpt lat="44.0525138" lon="7.7124318"><ele>1500.0</ele><time>2026-05-02T15:15:02.044Z</time></trkpt><trkpt lat="44.052598" lon="7.7123225"><ele>1496.5</ele><time>2026-05-02T15:15:04.043Z</time></trkpt><trkpt lat="44.0526475" lon="7.712259"><ele>1493.0</ele><time>2026-05-02T15:15:05.043Z</time></trkpt><trkpt lat="44.0526868" lon="7.7121861"><ele>1499.6000000000001</ele><time>2026-05-02T15:15:06.043Z</time></trkpt><trkpt lat="44.0527437" lon="7.7120345"><ele>1506.2</ele><time>2026-05-02T15:15:08.043Z</time></trkpt><trkpt lat="44.052747" lon="7.7119419"><ele>1512.8</ele><time>2026-05-02T15:15:09.043Z</time></trkpt><trkpt lat="44.0527324" lon="7.7118497"><ele>1519.4</ele><time>2026-05-02T15:15:10.043Z</time></trkpt><trkpt lat="44.0527151" lon="7.7117515"><ele>1526.0</ele><time>2026-05-02T15:15:11.044Z</time></trkpt><trkpt lat="44.0527157" lon="7.7115829"><ele>1526.0</ele><time>2026-05-02T15:15:13.043Z</time></trkpt><trkpt lat="44.0527826" lon="7.7114682"><ele>1526.0</ele><time>2026-05-02T15:15:15.043Z</time></trkpt><trkpt lat="44.0528312" lon="7.7113917"><ele>1526.0</ele><time>2026-05-02T15:15:16.044Z</time></trkpt><trkpt lat="44.0528622" lon="7.7113093"><ele>1526.0</ele><time>2026-05-02T15:15:17.043Z</time></trkpt><trkpt lat="44.0528652" lon="7.7111429"><ele>1526.0</ele><time>2026-05-02T15:15:19.043Z</time></trkpt><trkpt lat="44.0528363" lon="7.7110406"><ele>1526.0</ele><time>2026-05-02T15:15:20.043Z</time></trkpt><trkpt lat="44.0528227" lon="7.7109301"><ele>1526.0</ele><time>2026-05-02T15:15:21.043Z</time></trkpt><trkpt lat="44.0528171" lon="7.7108152"><ele>1526.0</ele><time>2026-05-02T15:15:22.044Z</time></trkpt><trkpt lat="44.0527972" lon="7.7107065"><ele>1526.0</ele><time>2026-05-02T15:15:23.043Z</time></trkpt><trkpt lat="44.052794" lon="7.7106058"><ele>1526.0</ele><time>2026-05-02T15:15:24.043Z</time></trkpt><trkpt lat="44.0528094" lon="7.7105165"><ele>1526.0</ele><time>2026-05-02T15:15:25.043Z</time></trkpt><trkpt lat="44.0528387" lon="7.7104201"><ele>1526.0</ele><time>2026-05-02T15:15:26.043Z</time></trkpt><trkpt lat="44.0528688" lon="7.7103161"><ele>1526.0</ele><time>2026-05-02T15:15:27.044Z</time></trkpt><trkpt lat="44.0528893" lon="7.7101974"><ele>1526.0</ele><time>2026-05-02T15:15:28.043Z</time></trkpt><trkpt lat="44.0529056" lon="7.710075"><ele>1526.0</ele><time>2026-05-02T15:15:29.043Z</time></trkpt><trkpt lat="44.0529081" lon="7.7099448"><ele>1526.0</ele><time>2026-05-02T15:15:30.044Z</time></trkpt><trkpt lat="44.0529086" lon="7.7098194"><ele>1526.0</ele><time>2026-05-02T15:15:31.044Z</time></trkpt><trkpt lat="44.0528977" lon="7.7096949"><ele>1526.0</ele><time>2026-05-02T15:15:32.043Z</time></trkpt><trkpt lat="44.0528879" lon="7.7095639"><ele>1526.0</ele><time>2026-05-02T15:15:33.043Z</time></trkpt><trkpt lat="44.0528709" lon="7.709438"><ele>1526.0</ele><time>2026-05-02T15:15:34.044Z</time></trkpt><trkpt lat="44.0528632" lon="7.7093353"><ele>1526.0</ele><time>2026-05-02T15:15:35.043Z</time></trkpt><trkpt lat="44.0528586" lon="7.7092397"><ele>1526.0</ele><time>2026-05-02T15:15:36.043Z</time></trkpt><trkpt lat="44.0529154" lon="7.7090924"><ele>1524.8333333333335</ele><time>2026-05-02T15:15:38.043Z</time></trkpt><trkpt lat="44.0529597" lon="7.7090278"><ele>1523.6666666666667</ele><time>2026-05-02T15:15:39.044Z</time></trkpt><trkpt lat="44.0529966" lon="7.7088741"><ele>1522.5</ele><time>2026-05-02T15:15:41.043Z</time></trkpt><trkpt lat="44.0529876" lon="7.7087867"><ele>1521.3333333333333</ele><time>2026-05-02T15:15:42.043Z</time></trkpt><trkpt lat="44.0529922" lon="7.7086948"><ele>1520.1666666666665</ele><time>2026-05-02T15:15:43.043Z</time></trkpt><trkpt lat="44.0530044" lon="7.7085908"><ele>1519.0</ele><time>2026-05-02T15:15:44.043Z</time></trkpt><trkpt lat="44.0530296" lon="7.7084808"><ele>1517.4285714285713</ele><time>2026-05-02T15:15:45.043Z</time></trkpt><trkpt lat="44.0530499" lon="7.7083702"><ele>1515.857142857143</ele><time>2026-05-02T15:15:46.043Z</time></trkpt><trkpt lat="44.0530628" lon="7.7082672"><ele>1514.2857142857142</ele><time>2026-05-02T15:15:47.044Z</time></trkpt><trkpt lat="44.0530824" lon="7.7081735"><ele>1512.7142857142858</ele><time>2026-05-02T15:15:48.044Z</time></trkpt><trkpt lat="44.0531176" lon="7.7080843"><ele>1511.142857142857</ele><time>2026-05-02T15:15:49.043Z</time></trkpt><trkpt lat="44.053164" lon="7.7080096"><ele>1509.5714285714284</ele><time>2026-05-02T15:15:50.043Z</time></trkpt><trkpt lat="44.0532075" lon="7.7079374"><ele>1508.0</ele><time>2026-05-02T15:15:51.043Z</time></trkpt><trkpt lat="44.0532465" lon="7.7078605"><ele>1508.0</ele><time>2026-05-02T15:15:52.044Z</time></trkpt><trkpt lat="44.0531966" lon="7.7077483"><ele>1508.0</ele><time>2026-05-02T15:15:54.043Z</time></trkpt><trkpt lat="44.0530976" lon="7.7076327"><ele>1508.0</ele><time>2026-05-02T15:15:56.044Z</time></trkpt><trkpt lat="44.0530347" lon="7.7075823"><ele>1508.0</ele><time>2026-05-02T15:15:57.043Z</time></trkpt><trkpt lat="44.0529642" lon="7.7075321"><ele>1508.0</ele><time>2026-05-02T15:15:58.044Z</time></trkpt><trkpt lat="44.0528856" lon="7.7074718"><ele>1512.8333333333335</ele><time>2026-05-02T15:15:59.044Z</time></trkpt><trkpt lat="44.0528258" lon="7.707424"><ele>1517.6666666666667</ele><time>2026-05-02T15:16:00.044Z</time></trkpt><trkpt lat="44.0527603" lon="7.7073635"><ele>1522.5</ele><time>2026-05-02T15:16:01.044Z</time></trkpt><trkpt lat="44.0527027" lon="7.7072828"><ele>1527.3333333333335</ele><time>2026-05-02T15:16:02.044Z</time></trkpt><trkpt lat="44.0526459" lon="7.7071862"><ele>1532.1666666666667</ele><time>2026-05-02T15:16:03.044Z</time></trkpt><trkpt lat="44.0525859" lon="7.7071146"><ele>1537.0</ele><time>2026-05-02T15:16:04.044Z</time></trkpt><trkpt lat="44.052546" lon="7.7070359"><ele>1537.0000000000002</ele><time>2026-05-02T15:16:05.043Z</time></trkpt><trkpt lat="44.0524734" lon="7.7069885"><ele>1537.0</ele><time>2026-05-02T15:16:06.044Z</time></trkpt><trkpt lat="44.0524138" lon="7.7069181"><ele>1537.0</ele><time>2026-05-02T15:16:07.043Z</time></trkpt><trkpt lat="44.0523548" lon="7.7068587"><ele>1537.0</ele><time>2026-05-02T15:16:08.043Z</time></trkpt><trkpt lat="44.0522825" lon="7.7067859"><ele>1537.0000000000002</ele><time>2026-05-02T15:16:09.043Z</time></trkpt><trkpt lat="44.0521987" lon="7.7067146"><ele>1537.0</ele><time>2026-05-02T15:16:10.043Z</time></trkpt><trkpt lat="44.0521215" lon="7.706645"><ele>1537.8333333333335</ele><time>2026-05-02T15:16:11.043Z</time></trkpt><trkpt lat="44.0520502" lon="7.7065822"><ele>1538.6666666666667</ele><time>2026-05-02T15:16:12.043Z</time></trkpt><trkpt lat="44.051973" lon="7.7065286"><ele>1539.5</ele><time>2026-05-02T15:16:13.043Z</time></trkpt><trkpt lat="44.051903" lon="7.7064813"><ele>1540.3333333333335</ele><time>2026-05-02T15:16:14.043Z</time></trkpt><trkpt lat="44.0518408" lon="7.7064053"><ele>1541.1666666666667</ele><time>2026-05-02T15:16:15.043Z</time></trkpt><trkpt lat="44.0517973" lon="7.7063396"><ele>1542.0</ele><time>2026-05-02T15:16:16.043Z</time></trkpt><trkpt lat="44.0517502" lon="7.7062732"><ele>1542.0</ele><time>2026-05-02T15:16:17.044Z</time></trkpt><trkpt lat="44.0516757" lon="7.7062132"><ele>1542.0</ele><time>2026-05-02T15:16:19.044Z</time></trkpt><trkpt lat="44.051614" lon="7.7061111"><ele>1542.0</ele><time>2026-05-02T15:16:21.043Z</time></trkpt><trkpt lat="44.0515787" lon="7.7059809"><ele>1542.0</ele><time>2026-05-02T15:16:23.043Z</time></trkpt><trkpt lat="44.0515532" lon="7.7058992"><ele>1542.0</ele><time>2026-05-02T15:16:24.044Z</time></trkpt><trkpt lat="44.0515384" lon="7.7058134"><ele>1542.0</ele><time>2026-05-02T15:16:25.043Z</time></trkpt><trkpt lat="44.0515208" lon="7.7056231"><ele>1540.0</ele><time>2026-05-02T15:16:27.044Z</time></trkpt><trkpt lat="44.051512" lon="7.7055343"><ele>1538.0</ele><time>2026-05-02T15:16:28.043Z</time></trkpt><trkpt lat="44.051506" lon="7.7054444"><ele>1536.0</ele><time>2026-05-02T15:16:29.045Z</time></trkpt><trkpt lat="44.0515123" lon="7.7053537"><ele>1534.0</ele><time>2026-05-02T15:16:30.043Z</time></trkpt><trkpt lat="44.0515093" lon="7.7052624"><ele>1532.0</ele><time>2026-05-02T15:16:31.043Z</time></trkpt><trkpt lat="44.0514575" lon="7.7051294"><ele>1530.0</ele><time>2026-05-02T15:16:33.043Z</time></trkpt><trkpt lat="44.0513465" lon="7.7050631"><ele>1534.2857142857144</ele><time>2026-05-02T15:16:35.044Z</time></trkpt><trkpt lat="44.0512757" lon="7.7050351"><ele>1538.5714285714287</ele><time>2026-05-02T15:16:36.043Z</time></trkpt><trkpt lat="44.0512059" lon="7.7049976"><ele>1542.857142857143</ele><time>2026-05-02T15:16:37.043Z</time></trkpt><trkpt lat="44.051143" lon="7.704949"><ele>1547.1428571428573</ele><time>2026-05-02T15:16:38.043Z</time></trkpt><trkpt lat="44.0510767" lon="7.7049059"><ele>1551.4285714285713</ele><time>2026-05-02T15:16:39.044Z</time></trkpt><trkpt lat="44.0510071" lon="7.7048595"><ele>1555.7142857142858</ele><time>2026-05-02T15:16:40.043Z</time></trkpt><trkpt lat="44.0509385" lon="7.7048443"><ele>1560.0</ele><time>2026-05-02T15:16:41.043Z</time></trkpt><trkpt lat="44.0508621" lon="7.7048128"><ele>1560.0</ele><time>2026-05-02T15:16:42.043Z</time></trkpt><trkpt lat="44.0508037" lon="7.7047655"><ele>1560.0</ele><time>2026-05-02T15:16:43.043Z</time></trkpt><trkpt lat="44.0507472" lon="7.704716"><ele>1560.0</ele><time>2026-05-02T15:16:44.043Z</time></trkpt><trkpt lat="44.0506805" lon="7.7046736"><ele>1560.0</ele><time>2026-05-02T15:16:45.043Z</time></trkpt><trkpt lat="44.0506167" lon="7.7046439"><ele>1560.0</ele><time>2026-05-02T15:16:46.043Z</time></trkpt><trkpt lat="44.0505371" lon="7.7046622"><ele>1560.0</ele><time>2026-05-02T15:16:47.043Z</time></trkpt><trkpt lat="44.0504628" lon="7.7046473"><ele>1560.0</ele><time>2026-05-02T15:16:48.044Z</time></trkpt><trkpt lat="44.0504047" lon="7.7045989"><ele>1561.5</ele><time>2026-05-02T15:16:49.043Z</time></trkpt><trkpt lat="44.0503592" lon="7.7045266"><ele>1563.0</ele><time>2026-05-02T15:16:50.043Z</time></trkpt><trkpt lat="44.0503343" lon="7.7044348"><ele>1564.5</ele><time>2026-05-02T15:16:51.043Z</time></trkpt><trkpt lat="44.0503102" lon="7.7043421"><ele>1566.0</ele><time>2026-05-02T15:16:52.043Z</time></trkpt><trkpt lat="44.0502851" lon="7.7042294"><ele>1567.5</ele><time>2026-05-02T15:16:53.043Z</time></trkpt><trkpt lat="44.0502641" lon="7.704127"><ele>1569.0</ele><time>2026-05-02T15:16:54.043Z</time></trkpt><trkpt lat="44.0502248" lon="7.7040015"><ele>1569.0</ele><time>2026-05-02T15:16:55.043Z</time></trkpt><trkpt lat="44.0501897" lon="7.7038886"><ele>1569.0</ele><time>2026-05-02T15:16:56.043Z</time></trkpt><trkpt lat="44.0501194" lon="7.7038158"><ele>1569.0</ele><time>2026-05-02T15:16:57.044Z</time></trkpt><trkpt lat="44.0500525" lon="7.7037536"><ele>1569.0</ele><time>2026-05-02T15:16:58.043Z</time></trkpt><trkpt lat="44.049969" lon="7.7036917"><ele>1569.0</ele><time>2026-05-02T15:16:59.043Z</time></trkpt><trkpt lat="44.0498706" lon="7.7036411"><ele>1571.5</ele><time>2026-05-02T15:17:00.043Z</time></trkpt><trkpt lat="44.049768" lon="7.7035864"><ele>1574.0</ele><time>2026-05-02T15:17:01.043Z</time></trkpt><trkpt lat="44.0496452" lon="7.7035235"><ele>1576.5</ele><time>2026-05-02T15:17:02.043Z</time></trkpt><trkpt lat="44.0495456" lon="7.703419"><ele>1579.0</ele><time>2026-05-02T15:17:03.043Z</time></trkpt><trkpt lat="44.0494396" lon="7.7033362"><ele>1579.0</ele><time>2026-05-02T15:17:04.043Z</time></trkpt><trkpt lat="44.0493583" lon="7.703272"><ele>1579.0</ele><time>2026-05-02T15:17:05.043Z</time></trkpt><trkpt lat="44.0492708" lon="7.7032087"><ele>1579.0</ele><time>2026-05-02T15:17:06.044Z</time></trkpt><trkpt lat="44.0491988" lon="7.7031717"><ele>1579.0</ele><time>2026-05-02T15:17:07.044Z</time></trkpt><trkpt lat="44.0491046" lon="7.7031056"><ele>1579.0</ele><time>2026-05-02T15:17:08.043Z</time></trkpt><trkpt lat="44.0490153" lon="7.7030425"><ele>1580.0000000000002</ele><time>2026-05-02T15:17:09.043Z</time></trkpt><trkpt lat="44.0489242" lon="7.7029798"><ele>1581.0</ele><time>2026-05-02T15:17:10.043Z</time></trkpt><trkpt lat="44.0488416" lon="7.7029376"><ele>1582.0</ele><time>2026-05-02T15:17:11.044Z</time></trkpt><trkpt lat="44.0487548" lon="7.7029063"><ele>1583.0</ele><time>2026-05-02T15:17:12.044Z</time></trkpt><trkpt lat="44.0486766" lon="7.7028969"><ele>1584.0000000000002</ele><time>2026-05-02T15:17:13.043Z</time></trkpt><trkpt lat="44.0486043" lon="7.702892"><ele>1585.0</ele><time>2026-05-02T15:17:14.043Z</time></trkpt><trkpt lat="44.048544" lon="7.7029185"><ele>1585.0</ele><time>2026-05-02T15:17:15.043Z</time></trkpt><trkpt lat="44.0484644" lon="7.7029621"><ele>1585.0</ele><time>2026-05-02T15:17:16.043Z</time></trkpt><trkpt lat="44.0484007" lon="7.7030415"><ele>1585.0</ele><time>2026-05-02T15:17:17.044Z</time></trkpt><trkpt lat="44.0483178" lon="7.7030963"><ele>1585.0</ele><time>2026-05-02T15:17:18.044Z</time></trkpt><trkpt lat="44.048234" lon="7.7031425"><ele>1585.0</ele><time>2026-05-02T15:17:19.043Z</time></trkpt><trkpt lat="44.0481427" lon="7.7031886"><ele>1588.4</ele><time>2026-05-02T15:17:20.043Z</time></trkpt><trkpt lat="44.0480462" lon="7.7032507"><ele>1591.8</ele><time>2026-05-02T15:17:21.043Z</time></trkpt><trkpt lat="44.0479577" lon="7.7033105"><ele>1595.1999999999998</ele><time>2026-05-02T15:17:22.043Z</time></trkpt><trkpt lat="44.0478778" lon="7.7033593"><ele>1598.6</ele><time>2026-05-02T15:17:23.043Z</time></trkpt><trkpt lat="44.0477945" lon="7.7033887"><ele>1602.0</ele><time>2026-05-02T15:17:24.043Z</time></trkpt><trkpt lat="44.047704" lon="7.7034001"><ele>1602.0</ele><time>2026-05-02T15:17:25.043Z</time></trkpt><trkpt lat="44.0476133" lon="7.7033971"><ele>1602.0</ele><time>2026-05-02T15:17:26.043Z</time></trkpt><trkpt lat="44.0475259" lon="7.703384"><ele>1602.0</ele><time>2026-05-02T15:17:27.043Z</time></trkpt><trkpt lat="44.0474413" lon="7.7033903"><ele>1602.0</ele><time>2026-05-02T15:17:28.043Z</time></trkpt><trkpt lat="44.0473569" lon="7.7034082"><ele>1602.0</ele><time>2026-05-02T15:17:29.043Z</time></trkpt><trkpt lat="44.0472786" lon="7.703434"><ele>1602.0</ele><time>2026-05-02T15:17:30.043Z</time></trkpt><trkpt lat="44.0471995" lon="7.7034559"><ele>1603.6</ele><time>2026-05-02T15:17:31.043Z</time></trkpt><trkpt lat="44.0471102" lon="7.7034731"><ele>1605.1999999999998</ele><time>2026-05-02T15:17:32.044Z</time></trkpt><trkpt lat="44.0470181" lon="7.7034808"><ele>1606.8</ele><time>2026-05-02T15:17:33.044Z</time></trkpt><trkpt lat="44.0469145" lon="7.7034694"><ele>1608.4</ele><time>2026-05-02T15:17:34.043Z</time></trkpt><trkpt lat="44.046808" lon="7.7034282"><ele>1610.0</ele><time>2026-05-02T15:17:35.043Z</time></trkpt><trkpt lat="44.0467061" lon="7.7033655"><ele>1612.2</ele><time>2026-05-02T15:17:36.043Z</time></trkpt><trkpt lat="44.0466127" lon="7.703307"><ele>1614.4</ele><time>2026-05-02T15:17:37.043Z</time></trkpt><trkpt lat="44.0465232" lon="7.7032658"><ele>1616.6</ele><time>2026-05-02T15:17:38.043Z</time></trkpt><trkpt lat="44.0464344" lon="7.7032293"><ele>1618.8</ele><time>2026-05-02T15:17:39.043Z</time></trkpt><trkpt lat="44.0463398" lon="7.7031972"><ele>1621.0</ele><time>2026-05-02T15:17:40.043Z</time></trkpt><trkpt lat="44.0462418" lon="7.7031767"><ele>1621.0000000000002</ele><time>2026-05-02T15:17:41.043Z</time></trkpt><trkpt lat="44.0461535" lon="7.7031956"><ele>1621.0</ele><time>2026-05-02T15:17:42.044Z</time></trkpt><trkpt lat="44.0460722" lon="7.7032418"><ele>1621.0</ele><time>2026-05-02T15:17:43.043Z</time></trkpt><trkpt lat="44.0460018" lon="7.7032861"><ele>1621.0</ele><time>2026-05-02T15:17:44.043Z</time></trkpt><trkpt lat="44.0459136" lon="7.7033637"><ele>1621.0000000000002</ele><time>2026-05-02T15:17:46.043Z</time></trkpt><trkpt lat="44.0458354" lon="7.7033398"><ele>1621.0</ele><time>2026-05-02T15:17:49.043Z</time></trkpt><trkpt lat="44.0458804" lon="7.7032388"><ele>1621.0</ele><time>2026-05-02T15:17:52.043Z</time></trkpt><trkpt lat="44.0460043" lon="7.7032126"><ele>1621.0</ele><time>2026-05-02T15:17:56.043Z</time></trkpt><trkpt lat="44.0460617" lon="7.7031761"><ele>1621.0</ele><time>2026-05-02T15:17:57.043Z</time></trkpt><trkpt lat="44.0461561" lon="7.7030904"><ele>1621.0</ele><time>2026-05-02T15:17:59.043Z</time></trkpt><trkpt lat="44.0462548" lon="7.7030349"><ele>1621.0</ele><time>2026-05-02T15:18:01.043Z</time></trkpt><trkpt lat="44.0463396" lon="7.7029452"><ele>1621.0000000000002</ele><time>2026-05-02T15:18:03.044Z</time></trkpt><trkpt lat="44.0464534" lon="7.7028865"><ele>1621.0</ele><time>2026-05-02T15:18:07.044Z</time></trkpt><trkpt lat="44.046526" lon="7.7028671"><ele>1621.0</ele><time>2026-05-02T15:18:08.044Z</time></trkpt><trkpt lat="44.0466012" lon="7.7028351"><ele>1621.0</ele><time>2026-05-02T15:18:09.044Z</time></trkpt><trkpt lat="44.0466723" lon="7.7028012"><ele>1621.0000000000002</ele><time>2026-05-02T15:18:10.044Z</time></trkpt><trkpt lat="44.0467401" lon="7.7027686"><ele>1621.0</ele><time>2026-05-02T15:18:11.044Z</time></trkpt><trkpt lat="44.0468076" lon="7.7027555"><ele>1616.6666666666667</ele><time>2026-05-02T15:18:12.044Z</time></trkpt><trkpt lat="44.0471092" lon="7.7026876"><ele>1612.3333333333335</ele><time>2026-05-02T15:18:17.044Z</time></trkpt><trkpt lat="44.047184" lon="7.7026673"><ele>1608.0</ele><time>2026-05-02T15:18:18.044Z</time></trkpt><trkpt lat="44.047255" lon="7.7026619"><ele>1608.0</ele><time>2026-05-02T15:18:19.044Z</time></trkpt><trkpt lat="44.0473254" lon="7.702649"><ele>1608.0</ele><time>2026-05-02T15:18:20.044Z</time></trkpt><trkpt lat="44.0474096" lon="7.70265"><ele>1608.0</ele><time>2026-05-02T15:18:21.045Z</time></trkpt><trkpt lat="44.047505" lon="7.7026508"><ele>1608.0</ele><time>2026-05-02T15:18:22.045Z</time></trkpt><trkpt lat="44.047616" lon="7.7026693"><ele>1608.0</ele><time>2026-05-02T15:18:23.044Z</time></trkpt><trkpt lat="44.0477019" lon="7.7026854"><ele>1608.0</ele><time>2026-05-02T15:18:24.044Z</time></trkpt><trkpt lat="44.0477988" lon="7.7027207"><ele>1606.6666666666667</ele><time>2026-05-02T15:18:25.045Z</time></trkpt><trkpt lat="44.0478805" lon="7.7027305"><ele>1605.3333333333335</ele><time>2026-05-02T15:18:26.044Z</time></trkpt><trkpt lat="44.047966" lon="7.7027408"><ele>1604.0</ele><time>2026-05-02T15:18:27.044Z</time></trkpt><trkpt lat="44.0480461" lon="7.702741"><ele>1602.6666666666667</ele><time>2026-05-02T15:18:28.044Z</time></trkpt><trkpt lat="44.0481269" lon="7.7027391"><ele>1601.3333333333335</ele><time>2026-05-02T15:18:29.044Z</time></trkpt><trkpt lat="44.0482043" lon="7.7027198"><ele>1600.0</ele><time>2026-05-02T15:18:30.044Z</time></trkpt><trkpt lat="44.0482936" lon="7.7027091"><ele>1597.8</ele><time>2026-05-02T15:18:31.044Z</time></trkpt><trkpt lat="44.04837" lon="7.7026758"><ele>1595.6</ele><time>2026-05-02T15:18:32.045Z</time></trkpt><trkpt lat="44.0484498" lon="7.7026401"><ele>1593.4</ele><time>2026-05-02T15:18:33.044Z</time></trkpt><trkpt lat="44.0485463" lon="7.7025703"><ele>1591.2</ele><time>2026-05-02T15:18:35.044Z</time></trkpt><trkpt lat="44.0486508" lon="7.7024808"><ele>1589.0</ele><time>2026-05-02T15:18:37.045Z</time></trkpt><trkpt lat="44.0487144" lon="7.7024213"><ele>1588.9999999999998</ele><time>2026-05-02T15:18:38.044Z</time></trkpt><trkpt lat="44.0487871" lon="7.7023639"><ele>1589.0</ele><time>2026-05-02T15:18:39.045Z</time></trkpt><trkpt lat="44.0488635" lon="7.7023476"><ele>1589.0</ele><time>2026-05-02T15:18:40.044Z</time></trkpt><trkpt lat="44.0489447" lon="7.7023417"><ele>1589.0</ele><time>2026-05-02T15:18:41.044Z</time></trkpt><trkpt lat="44.0490236" lon="7.7023537"><ele>1588.9999999999998</ele><time>2026-05-02T15:18:42.044Z</time></trkpt><trkpt lat="44.0490938" lon="7.7023809"><ele>1589.0</ele><time>2026-05-02T15:18:43.044Z</time></trkpt><trkpt lat="44.0491697" lon="7.7024101"><ele>1590.2</ele><time>2026-05-02T15:18:44.045Z</time></trkpt><trkpt lat="44.0492401" lon="7.7024534"><ele>1591.4</ele><time>2026-05-02T15:18:45.045Z</time></trkpt><trkpt lat="44.0493191" lon="7.7025011"><ele>1592.6</ele><time>2026-05-02T15:18:46.044Z</time></trkpt><trkpt lat="44.0494068" lon="7.7025574"><ele>1593.8</ele><time>2026-05-02T15:18:47.044Z</time></trkpt><trkpt lat="44.0495329" lon="7.7026372"><ele>1595.0</ele><time>2026-05-02T15:18:48.045Z</time></trkpt><trkpt lat="44.0496533" lon="7.7027022"><ele>1595.6</ele><time>2026-05-02T15:18:49.044Z</time></trkpt><trkpt lat="44.049743" lon="7.7027659"><ele>1596.2</ele><time>2026-05-02T15:18:50.045Z</time></trkpt><trkpt lat="44.0498381" lon="7.7028337"><ele>1596.8000000000002</ele><time>2026-05-02T15:18:51.044Z</time></trkpt><trkpt lat="44.0499154" lon="7.702884"><ele>1597.4</ele><time>2026-05-02T15:18:52.044Z</time></trkpt><trkpt lat="44.0499894" lon="7.7029449"><ele>1598.0</ele><time>2026-05-02T15:18:53.044Z</time></trkpt><trkpt lat="44.0500748" lon="7.7029793"><ele>1598.0</ele><time>2026-05-02T15:18:54.045Z</time></trkpt><trkpt lat="44.0501657" lon="7.7029896"><ele>1598.0</ele><time>2026-05-02T15:18:55.044Z</time></trkpt><trkpt lat="44.0502575" lon="7.7030038"><ele>1598.0</ele><time>2026-05-02T15:18:56.044Z</time></trkpt><trkpt lat="44.0503519" lon="7.7030066"><ele>1598.0</ele><time>2026-05-02T15:18:57.044Z</time></trkpt><trkpt lat="44.0504355" lon="7.7029978"><ele>1598.0</ele><time>2026-05-02T15:18:58.044Z</time></trkpt><trkpt lat="44.0505346" lon="7.702961"><ele>1598.0</ele><time>2026-05-02T15:18:59.045Z</time></trkpt><trkpt lat="44.0506211" lon="7.7029271"><ele>1598.0</ele><time>2026-05-02T15:19:00.044Z</time></trkpt><trkpt lat="44.0507419" lon="7.7029054"><ele>1598.0</ele><time>2026-05-02T15:19:01.044Z</time></trkpt><trkpt lat="44.0508454" lon="7.7028736"><ele>1598.0</ele><time>2026-05-02T15:19:02.045Z</time></trkpt><trkpt lat="44.0509485" lon="7.7028277"><ele>1598.0</ele><time>2026-05-02T15:19:03.044Z</time></trkpt><trkpt lat="44.0510525" lon="7.7027777"><ele>1599.9999999999998</ele><time>2026-05-02T15:19:04.044Z</time></trkpt><trkpt lat="44.0511405" lon="7.702728"><ele>1602.0</ele><time>2026-05-02T15:19:05.044Z</time></trkpt><trkpt lat="44.0512148" lon="7.7026797"><ele>1604.0</ele><time>2026-05-02T15:19:06.044Z</time></trkpt><trkpt lat="44.051277" lon="7.7026401"><ele>1606.0</ele><time>2026-05-02T15:19:07.044Z</time></trkpt><trkpt lat="44.0513368" lon="7.7025899"><ele>1607.9999999999998</ele><time>2026-05-02T15:19:08.044Z</time></trkpt><trkpt lat="44.0513916" lon="7.7025317"><ele>1610.0</ele><time>2026-05-02T15:19:09.044Z</time></trkpt><trkpt lat="44.0514519" lon="7.7024573"><ele>1609.9999999999998</ele><time>2026-05-02T15:19:10.045Z</time></trkpt><trkpt lat="44.0515144" lon="7.7023972"><ele>1610.0</ele><time>2026-05-02T15:19:11.044Z</time></trkpt><trkpt lat="44.0515764" lon="7.7022952"><ele>1610.0</ele><time>2026-05-02T15:19:12.044Z</time></trkpt><trkpt lat="44.0516347" lon="7.702195"><ele>1610.0</ele><time>2026-05-02T15:19:13.044Z</time></trkpt><trkpt lat="44.0516765" lon="7.7020838"><ele>1609.9999999999998</ele><time>2026-05-02T15:19:14.044Z</time></trkpt><trkpt lat="44.0517468" lon="7.7020011"><ele>1610.0</ele><time>2026-05-02T15:19:16.044Z</time></trkpt><trkpt lat="44.051785" lon="7.7021118"><ele>1609.9999999999998</ele><time>2026-05-02T15:19:19.045Z</time></trkpt><trkpt lat="44.0517125" lon="7.7021836"><ele>1610.0</ele><time>2026-05-02T15:19:21.045Z</time></trkpt><trkpt lat="44.0516412" lon="7.7022702"><ele>1610.0</ele><time>2026-05-02T15:19:23.044Z</time></trkpt><trkpt lat="44.0516107" lon="7.7023497"><ele>1610.0</ele><time>2026-05-02T15:19:24.045Z</time></trkpt><trkpt lat="44.0515814" lon="7.702435"><ele>1609.9999999999998</ele><time>2026-05-02T15:19:25.045Z</time></trkpt><trkpt lat="44.0515476" lon="7.7025172"><ele>1610.0</ele><time>2026-05-02T15:19:26.044Z</time></trkpt><trkpt lat="44.0515152" lon="7.7026037"><ele>1609.9999999999998</ele><time>2026-05-02T15:19:27.045Z</time></trkpt><trkpt lat="44.0514739" lon="7.7026875"><ele>1610.0</ele><time>2026-05-02T15:19:28.044Z</time></trkpt><trkpt lat="44.05143" lon="7.7027664"><ele>1610.0</ele><time>2026-05-02T15:19:29.045Z</time></trkpt><trkpt lat="44.051376" lon="7.7028407"><ele>1610.0</ele><time>2026-05-02T15:19:30.045Z</time></trkpt><trkpt lat="44.051311" lon="7.7029147"><ele>1609.9999999999998</ele><time>2026-05-02T15:19:31.044Z</time></trkpt><trkpt lat="44.0512467" lon="7.7029914"><ele>1610.0</ele><time>2026-05-02T15:19:32.045Z</time></trkpt><trkpt lat="44.0511842" lon="7.7030644"><ele>1612.6666666666665</ele><time>2026-05-02T15:19:33.045Z</time></trkpt><trkpt lat="44.0511312" lon="7.7031319"><ele>1615.3333333333333</ele><time>2026-05-02T15:19:34.044Z</time></trkpt><trkpt lat="44.0510821" lon="7.7032006"><ele>1618.0</ele><time>2026-05-02T15:19:35.045Z</time></trkpt><trkpt lat="44.0511591" lon="7.7032099"><ele>1620.6666666666665</ele><time>2026-05-02T15:19:40.044Z</time></trkpt><trkpt lat="44.0512034" lon="7.7031296"><ele>1623.3333333333333</ele><time>2026-05-02T15:19:41.044Z</time></trkpt><trkpt lat="44.0512606" lon="7.7030617"><ele>1626.0</ele><time>2026-05-02T15:19:42.044Z</time></trkpt><trkpt lat="44.0513353" lon="7.7030084"><ele>1626.0</ele><time>2026-05-02T15:19:43.044Z</time></trkpt><trkpt lat="44.0514224" lon="7.7029516"><ele>1626.0</ele><time>2026-05-02T15:19:44.045Z</time></trkpt><trkpt lat="44.0515054" lon="7.7028899"><ele>1626.0</ele><time>2026-05-02T15:19:45.044Z</time></trkpt><trkpt lat="44.0515691" lon="7.7028377"><ele>1626.0</ele><time>2026-05-02T15:19:46.044Z</time></trkpt><trkpt lat="44.051627" lon="7.7027873"><ele>1626.0</ele><time>2026-05-02T15:19:47.044Z</time></trkpt><trkpt lat="44.0517242" lon="7.7027768"><ele>1626.0</ele><time>2026-05-02T15:19:49.045Z</time></trkpt><trkpt lat="44.0517807" lon="7.7028829"><ele>1629.6666666666667</ele><time>2026-05-02T15:19:51.045Z</time></trkpt><trkpt lat="44.0518008" lon="7.7029686"><ele>1633.3333333333335</ele><time>2026-05-02T15:19:52.044Z</time></trkpt><trkpt lat="44.0518245" lon="7.7030601"><ele>1637.0</ele><time>2026-05-02T15:19:53.044Z</time></trkpt><trkpt lat="44.0518568" lon="7.7031633"><ele>1640.6666666666667</ele><time>2026-05-02T15:19:54.045Z</time></trkpt><trkpt lat="44.0518954" lon="7.7032658"><ele>1644.3333333333335</ele><time>2026-05-02T15:19:55.044Z</time></trkpt><trkpt lat="44.0519363" lon="7.7033622"><ele>1648.0</ele><time>2026-05-02T15:19:56.045Z</time></trkpt><trkpt lat="44.0519848" lon="7.7034576"><ele>1648.0000000000002</ele><time>2026-05-02T15:19:57.044Z</time></trkpt><trkpt lat="44.0520391" lon="7.7035531"><ele>1648.0</ele><time>2026-05-02T15:19:58.045Z</time></trkpt><trkpt lat="44.0520891" lon="7.703637"><ele>1648.0</ele><time>2026-05-02T15:19:59.044Z</time></trkpt><trkpt lat="44.0521508" lon="7.7036958"><ele>1648.0</ele><time>2026-05-02T15:20:00.044Z</time></trkpt><trkpt lat="44.0522113" lon="7.703745"><ele>1648.0000000000002</ele><time>2026-05-02T15:20:01.045Z</time></trkpt><trkpt lat="44.0522757" lon="7.7037872"><ele>1648.0</ele><time>2026-05-02T15:20:02.044Z</time></trkpt><trkpt lat="44.0523835" lon="7.7038214"><ele>1649.0</ele><time>2026-05-02T15:20:04.044Z</time></trkpt><trkpt lat="44.0525017" lon="7.7038497"><ele>1650.0</ele><time>2026-05-02T15:20:06.045Z</time></trkpt><trkpt lat="44.0526152" lon="7.703912"><ele>1651.0</ele><time>2026-05-02T15:20:08.044Z</time></trkpt><trkpt lat="44.0526678" lon="7.7039609"><ele>1652.0</ele><time>2026-05-02T15:20:09.044Z</time></trkpt><trkpt lat="44.0527187" lon="7.7040135"><ele>1653.0</ele><time>2026-05-02T15:20:10.045Z</time></trkpt><trkpt lat="44.0528336" lon="7.7041159"><ele>1653.0</ele><time>2026-05-02T15:20:12.044Z</time></trkpt><trkpt lat="44.0529008" lon="7.7041871"><ele>1653.0</ele><time>2026-05-02T15:20:13.045Z</time></trkpt><trkpt lat="44.052958" lon="7.7042537"><ele>1653.0</ele><time>2026-05-02T15:20:14.045Z</time></trkpt><trkpt lat="44.0530213" lon="7.7043144"><ele>1653.0</ele><time>2026-05-02T15:20:15.044Z</time></trkpt><trkpt lat="44.0530834" lon="7.7043709"><ele>1653.0</ele><time>2026-05-02T15:20:16.044Z</time></trkpt><trkpt lat="44.0531495" lon="7.7044218"><ele>1653.0</ele><time>2026-05-02T15:20:17.044Z</time></trkpt><trkpt lat="44.0532114" lon="7.7044688"><ele>1651.3333333333333</ele><time>2026-05-02T15:20:18.044Z</time></trkpt><trkpt lat="44.0532845" lon="7.7044932"><ele>1649.6666666666665</ele><time>2026-05-02T15:20:19.045Z</time></trkpt><trkpt lat="44.0533572" lon="7.704519"><ele>1648.0</ele><time>2026-05-02T15:20:20.045Z</time></trkpt><trkpt lat="44.0534226" lon="7.7045387"><ele>1646.3333333333333</ele><time>2026-05-02T15:20:21.044Z</time></trkpt><trkpt lat="44.0535465" lon="7.7045575"><ele>1644.6666666666665</ele><time>2026-05-02T15:20:23.044Z</time></trkpt><trkpt lat="44.0536147" lon="7.7045553"><ele>1643.0</ele><time>2026-05-02T15:20:24.044Z</time></trkpt><trkpt lat="44.0537286" lon="7.7045393"><ele>1647.4</ele><time>2026-05-02T15:20:26.044Z</time></trkpt><trkpt lat="44.0538397" lon="7.7045144"><ele>1651.8000000000002</ele><time>2026-05-02T15:20:28.044Z</time></trkpt><trkpt lat="44.0539501" lon="7.704496"><ele>1656.2</ele><time>2026-05-02T15:20:30.045Z</time></trkpt><trkpt lat="44.0540182" lon="7.7044876"><ele>1660.6</ele><time>2026-05-02T15:20:31.045Z</time></trkpt><trkpt lat="44.054085" lon="7.70447"><ele>1665.0</ele><time>2026-05-02T15:20:32.044Z</time></trkpt><trkpt lat="44.0541847" lon="7.7044236"><ele>1666.6</ele><time>2026-05-02T15:20:34.044Z</time></trkpt><trkpt lat="44.0542678" lon="7.7042778"><ele>1668.2</ele><time>2026-05-02T15:20:36.045Z</time></trkpt><trkpt lat="44.0543052" lon="7.7041964"><ele>1669.8000000000002</ele><time>2026-05-02T15:20:37.044Z</time></trkpt><trkpt lat="44.0543385" lon="7.7041134"><ele>1671.4</ele><time>2026-05-02T15:20:38.044Z</time></trkpt><trkpt lat="44.0544084" lon="7.7039609"><ele>1673.0</ele><time>2026-05-02T15:20:40.044Z</time></trkpt><trkpt lat="44.0544756" lon="7.7038114"><ele>1664.0</ele><time>2026-05-02T15:20:42.044Z</time></trkpt><trkpt lat="44.054625" lon="7.7035517"><ele>1655.0</ele><time>2026-05-02T15:20:46.044Z</time></trkpt><trkpt lat="44.0547116" lon="7.703446"><ele>1646.0</ele><time>2026-05-02T15:20:48.044Z</time></trkpt><trkpt lat="44.0548039" lon="7.7033439"><ele>1646.0</ele><time>2026-05-02T15:20:50.045Z</time></trkpt><trkpt lat="44.0549154" lon="7.7033198"><ele>1646.0</ele><time>2026-05-02T15:20:52.044Z</time></trkpt><trkpt lat="44.0550179" lon="7.7033942"><ele>1646.0</ele><time>2026-05-02T15:20:54.044Z</time></trkpt><trkpt lat="44.0551075" lon="7.7035027"><ele>1646.0</ele><time>2026-05-02T15:20:56.044Z</time></trkpt><trkpt lat="44.0551429" lon="7.7035791"><ele>1646.0</ele><time>2026-05-02T15:20:57.045Z</time></trkpt><trkpt lat="44.0551749" lon="7.7036685"><ele>1653.4285714285716</ele><time>2026-05-02T15:20:58.044Z</time></trkpt><trkpt lat="44.0552058" lon="7.7037578"><ele>1660.857142857143</ele><time>2026-05-02T15:20:59.044Z</time></trkpt><trkpt lat="44.0552376" lon="7.7038573"><ele>1668.2857142857142</ele><time>2026-05-02T15:21:00.044Z</time></trkpt><trkpt lat="44.055277" lon="7.7039463"><ele>1675.7142857142858</ele><time>2026-05-02T15:21:01.044Z</time></trkpt><trkpt lat="44.0553106" lon="7.7040244"><ele>1683.142857142857</ele><time>2026-05-02T15:21:02.044Z</time></trkpt><trkpt lat="44.055354" lon="7.7040982"><ele>1690.5714285714287</ele><time>2026-05-02T15:21:03.044Z</time></trkpt><trkpt lat="44.055399" lon="7.7041874"><ele>1698.0</ele><time>2026-05-02T15:21:04.045Z</time></trkpt><trkpt lat="44.0554323" lon="7.7042747"><ele>1698.0</ele><time>2026-05-02T15:21:05.044Z</time></trkpt><trkpt lat="44.0554679" lon="7.704349"><ele>1698.0</ele><time>2026-05-02T15:21:06.044Z</time></trkpt><trkpt lat="44.0555493" lon="7.7044859"><ele>1698.0</ele><time>2026-05-02T15:21:08.045Z</time></trkpt><trkpt lat="44.0556357" lon="7.7046016"><ele>1698.0</ele><time>2026-05-02T15:21:10.044Z</time></trkpt><trkpt lat="44.0556888" lon="7.7046684"><ele>1698.0</ele><time>2026-05-02T15:21:11.045Z</time></trkpt><trkpt lat="44.0557478" lon="7.7047395"><ele>1699.6666666666667</ele><time>2026-05-02T15:21:12.044Z</time></trkpt><trkpt lat="44.0558116" lon="7.7048235"><ele>1701.3333333333335</ele><time>2026-05-02T15:21:13.045Z</time></trkpt><trkpt lat="44.0558706" lon="7.7049066"><ele>1703.0</ele><time>2026-05-02T15:21:14.044Z</time></trkpt><trkpt lat="44.0559339" lon="7.7049859"><ele>1704.6666666666667</ele><time>2026-05-02T15:21:15.045Z</time></trkpt><trkpt lat="44.0559912" lon="7.7050425"><ele>1706.3333333333335</ele><time>2026-05-02T15:21:16.045Z</time></trkpt><trkpt lat="44.0560481" lon="7.7050857"><ele>1708.0</ele><time>2026-05-02T15:21:17.044Z</time></trkpt><trkpt lat="44.0561074" lon="7.7051306"><ele>1708.0000000000002</ele><time>2026-05-02T15:21:18.044Z</time></trkpt><trkpt lat="44.0561783" lon="7.7051746"><ele>1708.0</ele><time>2026-05-02T15:21:19.044Z</time></trkpt><trkpt lat="44.0562416" lon="7.7052185"><ele>1708.0</ele><time>2026-05-02T15:21:20.045Z</time></trkpt><trkpt lat="44.0563129" lon="7.7052759"><ele>1708.0</ele><time>2026-05-02T15:21:21.044Z</time></trkpt><trkpt lat="44.0563743" lon="7.7053242"><ele>1708.0000000000002</ele><time>2026-05-02T15:21:22.045Z</time></trkpt><trkpt lat="44.0564894" lon="7.7054034"><ele>1708.0</ele><time>2026-05-02T15:21:24.044Z</time></trkpt><trkpt lat="44.0566108" lon="7.7053937"><ele>1706.0</ele><time>2026-05-02T15:21:26.045Z</time></trkpt><trkpt lat="44.0566758" lon="7.7053681"><ele>1704.0000000000002</ele><time>2026-05-02T15:21:27.044Z</time></trkpt><trkpt lat="44.0567426" lon="7.7053011"><ele>1702.0</ele><time>2026-05-02T15:21:28.044Z</time></trkpt><trkpt lat="44.0568264" lon="7.7051965"><ele>1700.0</ele><time>2026-05-02T15:21:29.045Z</time></trkpt><trkpt lat="44.0569057" lon="7.7051053"><ele>1698.0</ele><time>2026-05-02T15:21:30.044Z</time></trkpt><trkpt lat="44.0569848" lon="7.7050263"><ele>1698.0</ele><time>2026-05-02T15:21:31.045Z</time></trkpt><trkpt lat="44.0570638" lon="7.7049599"><ele>1698.0</ele><time>2026-05-02T15:21:32.044Z</time></trkpt><trkpt lat="44.0571422" lon="7.7049329"><ele>1698.0</ele><time>2026-05-02T15:21:33.044Z</time></trkpt><trkpt lat="44.0572211" lon="7.7049029"><ele>1698.0</ele><time>2026-05-02T15:21:34.045Z</time></trkpt><trkpt lat="44.0573045" lon="7.7048895"><ele>1698.0</ele><time>2026-05-02T15:21:35.044Z</time></trkpt><trkpt lat="44.0573837" lon="7.7048905"><ele>1698.0</ele><time>2026-05-02T15:21:36.044Z</time></trkpt><trkpt lat="44.0574602" lon="7.7048969"><ele>1700.1666666666667</ele><time>2026-05-02T15:21:37.045Z</time></trkpt><trkpt lat="44.0575328" lon="7.7048973"><ele>1702.3333333333335</ele><time>2026-05-02T15:21:38.044Z</time></trkpt><trkpt lat="44.0576153" lon="7.7048914"><ele>1704.5</ele><time>2026-05-02T15:21:39.044Z</time></trkpt><trkpt lat="44.0576951" lon="7.7048909"><ele>1706.6666666666667</ele><time>2026-05-02T15:21:40.045Z</time></trkpt><trkpt lat="44.0577757" lon="7.7048904"><ele>1708.8333333333335</ele><time>2026-05-02T15:21:41.045Z</time></trkpt><trkpt lat="44.0578639" lon="7.7048991"><ele>1711.0</ele><time>2026-05-02T15:21:42.044Z</time></trkpt><trkpt lat="44.057958" lon="7.7049173"><ele>1711.0000000000002</ele><time>2026-05-02T15:21:43.044Z</time></trkpt><trkpt lat="44.0580478" lon="7.704944"><ele>1711.0</ele><time>2026-05-02T15:21:44.044Z</time></trkpt><trkpt lat="44.0581361" lon="7.7049648"><ele>1711.0</ele><time>2026-05-02T15:21:45.044Z</time></trkpt><trkpt lat="44.05822" lon="7.704959"><ele>1711.0</ele><time>2026-05-02T15:21:46.044Z</time></trkpt><trkpt lat="44.0582924" lon="7.7049426"><ele>1711.0000000000002</ele><time>2026-05-02T15:21:47.044Z</time></trkpt><trkpt lat="44.0583699" lon="7.7049355"><ele>1711.0</ele><time>2026-05-02T15:21:48.044Z</time></trkpt><trkpt lat="44.058448" lon="7.70493"><ele>1713.1999999999998</ele><time>2026-05-02T15:21:49.044Z</time></trkpt><trkpt lat="44.0585198" lon="7.7049271"><ele>1715.3999999999999</ele><time>2026-05-02T15:21:50.044Z</time></trkpt><trkpt lat="44.0586266" lon="7.7049179"><ele>1717.6</ele><time>2026-05-02T15:21:52.045Z</time></trkpt><trkpt lat="44.0587146" lon="7.7048316"><ele>1719.8</ele><time>2026-05-02T15:21:54.044Z</time></trkpt><trkpt lat="44.0588041" lon="7.7047286"><ele>1722.0</ele><time>2026-05-02T15:21:56.044Z</time></trkpt><trkpt lat="44.0588908" lon="7.704615"><ele>1722.0</ele><time>2026-05-02T15:21:58.044Z</time></trkpt><trkpt lat="44.0589402" lon="7.7045586"><ele>1721.9999999999998</ele><time>2026-05-02T15:21:59.045Z</time></trkpt><trkpt lat="44.0590171" lon="7.7044623"><ele>1721.9999999999998</ele><time>2026-05-02T15:22:01.044Z</time></trkpt><trkpt lat="44.0590576" lon="7.7043099"><ele>1722.0</ele><time>2026-05-02T15:22:03.044Z</time></trkpt><trkpt lat="44.0590619" lon="7.7041945"><ele>1722.0</ele><time>2026-05-02T15:22:04.044Z</time></trkpt><trkpt lat="44.0590614" lon="7.7040731"><ele>1719.8333333333333</ele><time>2026-05-02T15:22:05.044Z</time></trkpt><trkpt lat="44.0590614" lon="7.7039529"><ele>1717.6666666666665</ele><time>2026-05-02T15:22:06.044Z</time></trkpt><trkpt lat="44.0590663" lon="7.703831"><ele>1715.5</ele><time>2026-05-02T15:22:07.045Z</time></trkpt><trkpt lat="44.0590852" lon="7.7037165"><ele>1713.3333333333333</ele><time>2026-05-02T15:22:08.044Z</time></trkpt><trkpt lat="44.0591089" lon="7.7036031"><ele>1711.1666666666665</ele><time>2026-05-02T15:22:09.045Z</time></trkpt><trkpt lat="44.0591313" lon="7.7034853"><ele>1709.0</ele><time>2026-05-02T15:22:10.044Z</time></trkpt><trkpt lat="44.0591526" lon="7.7033575"><ele>1708.9999999999998</ele><time>2026-05-02T15:22:11.044Z</time></trkpt><trkpt lat="44.0591662" lon="7.7032483"><ele>1709.0</ele><time>2026-05-02T15:22:12.044Z</time></trkpt><trkpt lat="44.0591963" lon="7.7031204"><ele>1709.0</ele><time>2026-05-02T15:22:14.044Z</time></trkpt><trkpt lat="44.0592879" lon="7.7031424"><ele>1709.0</ele><time>2026-05-02T15:22:16.044Z</time></trkpt><trkpt lat="44.0593387" lon="7.703212"><ele>1708.9999999999998</ele><time>2026-05-02T15:22:17.044Z</time></trkpt><trkpt lat="44.0593917" lon="7.7032926"><ele>1709.0</ele><time>2026-05-02T15:22:18.044Z</time></trkpt><trkpt lat="44.0594466" lon="7.7033731"><ele>1708.9999999999998</ele><time>2026-05-02T15:22:19.044Z</time></trkpt><trkpt lat="44.0595109" lon="7.7034294"><ele>1709.0</ele><time>2026-05-02T15:22:20.045Z</time></trkpt><trkpt lat="44.0595794" lon="7.7034649"><ele>1709.0</ele><time>2026-05-02T15:22:21.044Z</time></trkpt><trkpt lat="44.0596503" lon="7.7035004"><ele>1709.0</ele><time>2026-05-02T15:22:22.044Z</time></trkpt><trkpt lat="44.0597382" lon="7.7035293"><ele>1708.9999999999998</ele><time>2026-05-02T15:22:23.044Z</time></trkpt><trkpt lat="44.0598326" lon="7.7035583"><ele>1709.0</ele><time>2026-05-02T15:22:24.045Z</time></trkpt><trkpt lat="44.0599325" lon="7.7035851"><ele>1716.3333333333333</ele><time>2026-05-02T15:22:25.044Z</time></trkpt><trkpt lat="44.0600245" lon="7.7036134"><ele>1723.6666666666665</ele><time>2026-05-02T15:22:26.044Z</time></trkpt><trkpt lat="44.0601072" lon="7.7036472"><ele>1731.0</ele><time>2026-05-02T15:22:27.044Z</time></trkpt><trkpt lat="44.0601842" lon="7.7036729"><ele>1738.3333333333335</ele><time>2026-05-02T15:22:28.044Z</time></trkpt><trkpt lat="44.0602526" lon="7.7036881"><ele>1745.6666666666667</ele><time>2026-05-02T15:22:29.045Z</time></trkpt><trkpt lat="44.0603177" lon="7.7036888"><ele>1753.0</ele><time>2026-05-02T15:22:30.044Z</time></trkpt><trkpt lat="44.0603834" lon="7.7036675"><ele>1753.0000000000002</ele><time>2026-05-02T15:22:31.044Z</time></trkpt><trkpt lat="44.0604407" lon="7.7036268"><ele>1753.0</ele><time>2026-05-02T15:22:32.045Z</time></trkpt><trkpt lat="44.0604919" lon="7.7035714"><ele>1753.0</ele><time>2026-05-02T15:22:33.044Z</time></trkpt><trkpt lat="44.0606008" lon="7.7035135"><ele>1753.0</ele><time>2026-05-02T15:22:35.044Z</time></trkpt><trkpt lat="44.0606746" lon="7.7035191"><ele>1753.0000000000002</ele><time>2026-05-02T15:22:36.045Z</time></trkpt><trkpt lat="44.0607453" lon="7.7035439"><ele>1753.0</ele><time>2026-05-02T15:22:37.044Z</time></trkpt><trkpt lat="44.0607967" lon="7.7035996"><ele>1750.8333333333335</ele><time>2026-05-02T15:22:38.044Z</time></trkpt><trkpt lat="44.0608449" lon="7.7037163"><ele>1748.6666666666667</ele><time>2026-05-02T15:22:40.044Z</time></trkpt><trkpt lat="44.0608719" lon="7.7038329"><ele>1746.5</ele><time>2026-05-02T15:22:42.045Z</time></trkpt><trkpt lat="44.0609068" lon="7.7039171"><ele>1744.3333333333335</ele><time>2026-05-02T15:22:44.044Z</time></trkpt><trkpt lat="44.0609701" lon="7.7039678"><ele>1742.1666666666667</ele><time>2026-05-02T15:23:02.044Z</time></trkpt><trkpt lat="44.0610401" lon="7.7040228"><ele>1740.0</ele><time>2026-05-02T15:23:06.044Z</time></trkpt><trkpt lat="44.0611111" lon="7.7040337"><ele>1740.0</ele><time>2026-05-02T15:23:10.044Z</time></trkpt><trkpt lat="44.0611744" lon="7.7040269"><ele>1740.0</ele><time>2026-05-02T15:23:14.044Z</time></trkpt><trkpt lat="44.0612536" lon="7.7040631"><ele>1740.0</ele><time>2026-05-02T15:23:27.044Z</time></trkpt><trkpt lat="44.0613257" lon="7.7041244"><ele>1740.0</ele><time>2026-05-02T15:23:30.044Z</time></trkpt><trkpt lat="44.0613857" lon="7.7041885"><ele>1740.0</ele><time>2026-05-02T15:24:03.044Z</time></trkpt><trkpt lat="44.0614521" lon="7.7042256"><ele>1740.0</ele><time>2026-05-02T15:24:06.044Z</time></trkpt><trkpt lat="44.0615253" lon="7.7042234"><ele>1740.0000000000002</ele><time>2026-05-02T15:24:09.044Z</time></trkpt><trkpt lat="44.0616071" lon="7.7041834"><ele>1740.0</ele><time>2026-05-02T15:24:12.044Z</time></trkpt><trkpt lat="44.0616679" lon="7.7041395"><ele>1740.0</ele><time>2026-05-02T15:24:26.044Z</time></trkpt><trkpt lat="44.061737" lon="7.7041535"><ele>1740.0</ele><time>2026-05-02T15:24:45.045Z</time></trkpt><trkpt lat="44.0618052" lon="7.704166"><ele>1740.0</ele><time>2026-05-02T15:24:48.044Z</time></trkpt><trkpt lat="44.0618758" lon="7.7042097"><ele>1740.0000000000002</ele><time>2026-05-02T15:24:55.044Z</time></trkpt><trkpt lat="44.0619364" lon="7.7042535"><ele>1740.0</ele><time>2026-05-02T15:24:57.044Z</time></trkpt><trkpt lat="44.0619939" lon="7.704306"><ele>1738.6666666666667</ele><time>2026-05-02T15:24:59.044Z</time></trkpt><trkpt lat="44.062056" lon="7.7043548"><ele>1737.3333333333335</ele><time>2026-05-02T15:25:01.045Z</time></trkpt><trkpt lat="44.0621299" lon="7.7043602"><ele>1736.0</ele><time>2026-05-02T15:25:03.045Z</time></trkpt><trkpt lat="44.0622072" lon="7.7043254"><ele>1734.6666666666667</ele><time>2026-05-02T15:25:05.044Z</time></trkpt><trkpt lat="44.0622765" lon="7.7043102"><ele>1733.3333333333335</ele><time>2026-05-02T15:25:12.044Z</time></trkpt><trkpt lat="44.0623995" lon="7.704343"><ele>1732.0</ele><time>2026-05-02T15:25:15.044Z</time></trkpt><trkpt lat="44.0624798" lon="7.7043744"><ele>1730.6666666666667</ele><time>2026-05-02T15:25:17.044Z</time></trkpt><trkpt lat="44.062577" lon="7.7043599"><ele>1729.3333333333335</ele><time>2026-05-02T15:25:23.044Z</time></trkpt><trkpt lat="44.0626698" lon="7.7043819"><ele>1728.0</ele><time>2026-05-02T15:25:25.044Z</time></trkpt><trkpt lat="44.0627509" lon="7.7043833"><ele>1726.6666666666665</ele><time>2026-05-02T15:25:26.045Z</time></trkpt><trkpt lat="44.0628327" lon="7.7043935"><ele>1725.3333333333333</ele><time>2026-05-02T15:25:27.044Z</time></trkpt><trkpt lat="44.0628973" lon="7.7044044"><ele>1724.0</ele><time>2026-05-02T15:25:28.044Z</time></trkpt><trkpt lat="44.0629805" lon="7.7044461"><ele>1733.9999999999998</ele><time>2026-05-02T15:25:30.044Z</time></trkpt><trkpt lat="44.0630407" lon="7.7045208"><ele>1744.0</ele><time>2026-05-02T15:25:32.044Z</time></trkpt><trkpt lat="44.0630948" lon="7.7046131"><ele>1754.0</ele><time>2026-05-02T15:25:34.044Z</time></trkpt><trkpt lat="44.0631362" lon="7.7047074"><ele>1764.0</ele><time>2026-05-02T15:25:36.045Z</time></trkpt><trkpt lat="44.0631375" lon="7.7045868"><ele>1773.9999999999998</ele><time>2026-05-02T15:34:12.043Z</time></trkpt><trkpt lat="44.0630598" lon="7.7045447"><ele>1784.0</ele><time>2026-05-02T15:34:29.043Z</time></trkpt><trkpt lat="44.0630107" lon="7.7044477"><ele>1773.9999999999998</ele><time>2026-05-02T15:34:31.043Z</time></trkpt><trkpt lat="44.0629529" lon="7.7043777"><ele>1764.0</ele><time>2026-05-02T15:34:33.043Z</time></trkpt><trkpt lat="44.0628616" lon="7.7043524"><ele>1754.0</ele><time>2026-05-02T15:34:36.043Z</time></trkpt><trkpt lat="44.0627679" lon="7.7043463"><ele>1744.0</ele><time>2026-05-02T15:34:38.043Z</time></trkpt><trkpt lat="44.0626809" lon="7.7043412"><ele>1733.9999999999998</ele><time>2026-05-02T15:34:40.044Z</time></trkpt><trkpt lat="44.0625964" lon="7.7043339"><ele>1724.0</ele><time>2026-05-02T15:34:42.043Z</time></trkpt><trkpt lat="44.062529" lon="7.7043433"><ele>1723.9999999999998</ele><time>2026-05-02T15:34:45.044Z</time></trkpt><trkpt lat="44.0624498" lon="7.7043445"><ele>1724.0</ele><time>2026-05-02T15:34:50.043Z</time></trkpt><trkpt lat="44.0623259" lon="7.7043164"><ele>1724.0</ele><time>2026-05-02T15:34:52.043Z</time></trkpt><trkpt lat="44.0622401" lon="7.7043162"><ele>1724.0</ele><time>2026-05-02T15:34:54.043Z</time></trkpt><trkpt lat="44.0621788" lon="7.7043411"><ele>1723.9999999999998</ele><time>2026-05-02T15:34:56.043Z</time></trkpt><trkpt lat="44.0620905" lon="7.7043298"><ele>1724.0</ele><time>2026-05-02T15:34:59.043Z</time></trkpt><trkpt lat="44.0620194" lon="7.7042907"><ele>1725.3333333333333</ele><time>2026-05-02T15:35:03.044Z</time></trkpt><trkpt lat="44.0619687" lon="7.7042378"><ele>1726.6666666666665</ele><time>2026-05-02T15:35:07.043Z</time></trkpt><trkpt lat="44.0619027" lon="7.7041977"><ele>1728.0</ele><time>2026-05-02T15:41:08.043Z</time></trkpt><trkpt lat="44.0618501" lon="7.7041489"><ele>1729.3333333333335</ele><time>2026-05-02T15:41:13.043Z</time></trkpt><trkpt lat="44.0617788" lon="7.7041164"><ele>1730.6666666666667</ele><time>2026-05-02T15:41:16.044Z</time></trkpt><trkpt lat="44.0616918" lon="7.7040856"><ele>1732.0</ele><time>2026-05-02T15:41:19.044Z</time></trkpt><trkpt lat="44.0616042" lon="7.7041104"><ele>1733.142857142857</ele><time>2026-05-02T15:41:22.044Z</time></trkpt><trkpt lat="44.0615323" lon="7.7041575"><ele>1734.2857142857142</ele><time>2026-05-02T15:41:24.043Z</time></trkpt><trkpt lat="44.0614678" lon="7.7042018"><ele>1735.4285714285716</ele><time>2026-05-02T15:41:26.044Z</time></trkpt><trkpt lat="44.0614188" lon="7.7042606"><ele>1736.5714285714284</ele><time>2026-05-02T15:41:29.043Z</time></trkpt><trkpt lat="44.0613599" lon="7.7042176"><ele>1737.7142857142858</ele><time>2026-05-02T15:41:38.043Z</time></trkpt><trkpt lat="44.0613167" lon="7.7041406"><ele>1738.857142857143</ele><time>2026-05-02T15:41:43.995Z</time></trkpt><trkpt lat="44.061255" lon="7.7040581"><ele>1740.0</ele><time>2026-05-02T15:41:48.043Z</time></trkpt><trkpt lat="44.0611831" lon="7.7040186"><ele>1740.0</ele><time>2026-05-02T15:41:51.043Z</time></trkpt><trkpt lat="44.061094" lon="7.7039981"><ele>1740.0</ele><time>2026-05-02T15:41:53.044Z</time></trkpt><trkpt lat="44.0610045" lon="7.7039823"><ele>1740.0</ele><time>2026-05-02T15:41:55.043Z</time></trkpt><trkpt lat="44.0609162" lon="7.703927"><ele>1740.0</ele><time>2026-05-02T15:41:57.044Z</time></trkpt><trkpt lat="44.060855" lon="7.7038327"><ele>1740.0</ele><time>2026-05-02T15:41:59.043Z</time></trkpt><trkpt lat="44.0608158" lon="7.7037026"><ele>1742.1666666666667</ele><time>2026-05-02T15:42:01.043Z</time></trkpt><trkpt lat="44.0607651" lon="7.7035807"><ele>1744.3333333333335</ele><time>2026-05-02T15:42:03.044Z</time></trkpt><trkpt lat="44.0606581" lon="7.7034918"><ele>1746.5</ele><time>2026-05-02T15:42:05.044Z</time></trkpt><trkpt lat="44.0605869" lon="7.7034747"><ele>1748.6666666666667</ele><time>2026-05-02T15:42:06.044Z</time></trkpt><trkpt lat="44.060513" lon="7.7034954"><ele>1750.8333333333335</ele><time>2026-05-02T15:42:07.043Z</time></trkpt><trkpt lat="44.0604487" lon="7.7035386"><ele>1753.0</ele><time>2026-05-02T15:42:08.043Z</time></trkpt><trkpt lat="44.0603862" lon="7.7035834"><ele>1753.0000000000002</ele><time>2026-05-02T15:42:09.044Z</time></trkpt><trkpt lat="44.0602882" lon="7.7036231"><ele>1753.0</ele><time>2026-05-02T15:42:11.043Z</time></trkpt><trkpt lat="44.0602207" lon="7.7036189"><ele>1753.0</ele><time>2026-05-02T15:42:12.043Z</time></trkpt><trkpt lat="44.0601574" lon="7.7036015"><ele>1753.0</ele><time>2026-05-02T15:42:13.044Z</time></trkpt><trkpt lat="44.0600875" lon="7.70358"><ele>1753.0000000000002</ele><time>2026-05-02T15:42:14.043Z</time></trkpt><trkpt lat="44.060008" lon="7.7035537"><ele>1753.0</ele><time>2026-05-02T15:42:15.043Z</time></trkpt><trkpt lat="44.0599313" lon="7.7035269"><ele>1745.6666666666667</ele><time>2026-05-02T15:42:16.044Z</time></trkpt><trkpt lat="44.0598583" lon="7.7035012"><ele>1738.3333333333335</ele><time>2026-05-02T15:42:17.043Z</time></trkpt><trkpt lat="44.0597817" lon="7.7034741"><ele>1731.0</ele><time>2026-05-02T15:42:18.043Z</time></trkpt><trkpt lat="44.0597023" lon="7.7034659"><ele>1723.6666666666665</ele><time>2026-05-02T15:42:19.044Z</time></trkpt><trkpt lat="44.0596229" lon="7.7034474"><ele>1716.3333333333333</ele><time>2026-05-02T15:42:20.044Z</time></trkpt><trkpt lat="44.0595359" lon="7.7034148"><ele>1709.0</ele><time>2026-05-02T15:42:21.043Z</time></trkpt><trkpt lat="44.0594115" lon="7.7033286"><ele>1709.0</ele><time>2026-05-02T15:42:23.044Z</time></trkpt><trkpt lat="44.0593385" lon="7.7032591"><ele>1709.0</ele><time>2026-05-02T15:42:24.044Z</time></trkpt><trkpt lat="44.059261" lon="7.7031405"><ele>1709.0</ele><time>2026-05-02T15:42:26.044Z</time></trkpt><trkpt lat="44.0591818" lon="7.7031247"><ele>1709.0</ele><time>2026-05-02T15:42:28.044Z</time></trkpt><trkpt lat="44.0591416" lon="7.7032705"><ele>1709.0</ele><time>2026-05-02T15:42:30.043Z</time></trkpt><trkpt lat="44.0591223" lon="7.7033723"><ele>1706.1666666666665</ele><time>2026-05-02T15:42:31.043Z</time></trkpt><trkpt lat="44.0590903" lon="7.7034787"><ele>1703.3333333333333</ele><time>2026-05-02T15:42:32.044Z</time></trkpt><trkpt lat="44.0590747" lon="7.7035762"><ele>1700.5</ele><time>2026-05-02T15:42:33.043Z</time></trkpt><trkpt lat="44.0590581" lon="7.7037034"><ele>1697.6666666666665</ele><time>2026-05-02T15:42:34.043Z</time></trkpt><trkpt lat="44.0590363" lon="7.7038181"><ele>1694.8333333333333</ele><time>2026-05-02T15:42:35.043Z</time></trkpt><trkpt lat="44.0590287" lon="7.7039403"><ele>1692.0</ele><time>2026-05-02T15:42:36.043Z</time></trkpt><trkpt lat="44.0590295" lon="7.7040595"><ele>1692.0</ele><time>2026-05-02T15:42:37.043Z</time></trkpt><trkpt lat="44.0590342" lon="7.7041525"><ele>1692.0</ele><time>2026-05-02T15:42:38.043Z</time></trkpt><trkpt lat="44.0590293" lon="7.7042519"><ele>1692.0</ele><time>2026-05-02T15:42:39.044Z</time></trkpt><trkpt lat="44.0590161" lon="7.7043574"><ele>1692.0</ele><time>2026-05-02T15:42:40.043Z</time></trkpt><trkpt lat="44.0589686" lon="7.7044945"><ele>1692.0</ele><time>2026-05-02T15:42:42.044Z</time></trkpt><trkpt lat="44.0589063" lon="7.70452"><ele>1692.0</ele><time>2026-05-02T15:42:43.043Z</time></trkpt><trkpt lat="44.0588203" lon="7.7046043"><ele>1698.0</ele><time>2026-05-02T15:42:45.044Z</time></trkpt><trkpt lat="44.0587365" lon="7.7046967"><ele>1704.0</ele><time>2026-05-02T15:42:47.043Z</time></trkpt><trkpt lat="44.0586585" lon="7.704779"><ele>1709.9999999999998</ele><time>2026-05-02T15:42:49.043Z</time></trkpt><trkpt lat="44.0585611" lon="7.7048398"><ele>1716.0</ele><time>2026-05-02T15:42:51.043Z</time></trkpt><trkpt lat="44.0584613" lon="7.7048717"><ele>1722.0</ele><time>2026-05-02T15:42:53.044Z</time></trkpt><trkpt lat="44.0583929" lon="7.704878"><ele>1722.0</ele><time>2026-05-02T15:42:54.045Z</time></trkpt><trkpt lat="44.0583281" lon="7.704896"><ele>1722.0</ele><time>2026-05-02T15:42:55.043Z</time></trkpt><trkpt lat="44.0582566" lon="7.7049109"><ele>1722.0</ele><time>2026-05-02T15:42:56.043Z</time></trkpt><trkpt lat="44.0581806" lon="7.7049116"><ele>1722.0</ele><time>2026-05-02T15:42:57.043Z</time></trkpt><trkpt lat="44.0581107" lon="7.7049149"><ele>1722.0</ele><time>2026-05-02T15:42:58.043Z</time></trkpt><trkpt lat="44.058034" lon="7.7048986"><ele>1722.0</ele><time>2026-05-02T15:42:59.044Z</time></trkpt><trkpt lat="44.0579527" lon="7.7048747"><ele>1722.0</ele><time>2026-05-02T15:43:00.043Z</time></trkpt><trkpt lat="44.057866" lon="7.7048615"><ele>1720.1666666666667</ele><time>2026-05-02T15:43:01.043Z</time></trkpt><trkpt lat="44.0577829" lon="7.7048697"><ele>1718.3333333333335</ele><time>2026-05-02T15:43:02.044Z</time></trkpt><trkpt lat="44.0577048" lon="7.7048651"><ele>1716.5</ele><time>2026-05-02T15:43:03.043Z</time></trkpt><trkpt lat="44.0576274" lon="7.7048746"><ele>1714.6666666666667</ele><time>2026-05-02T15:43:04.044Z</time></trkpt><trkpt lat="44.0575505" lon="7.7048747"><ele>1712.8333333333335</ele><time>2026-05-02T15:43:05.043Z</time></trkpt><trkpt lat="44.057484" lon="7.7048828"><ele>1711.0</ele><time>2026-05-02T15:43:06.043Z</time></trkpt><trkpt lat="44.0574068" lon="7.7048925"><ele>1708.8333333333335</ele><time>2026-05-02T15:43:07.044Z</time></trkpt><trkpt lat="44.0573345" lon="7.7048802"><ele>1706.6666666666667</ele><time>2026-05-02T15:43:08.043Z</time></trkpt><trkpt lat="44.0572233" lon="7.7048755"><ele>1704.5</ele><time>2026-05-02T15:43:10.044Z</time></trkpt><trkpt lat="44.0571504" lon="7.7049457"><ele>1702.3333333333335</ele><time>2026-05-02T15:43:55.612Z</time></trkpt><trkpt lat="44.0570865" lon="7.7049808"><ele>1700.1666666666667</ele><time>2026-05-02T15:43:59.044Z</time></trkpt><trkpt lat="44.0570233" lon="7.7050041"><ele>1698.0</ele><time>2026-05-02T15:44:02.045Z</time></trkpt><trkpt lat="44.0568761" lon="7.7051203"><ele>1698.0</ele><time>2026-05-02T15:44:11.045Z</time></trkpt><trkpt lat="44.0568199" lon="7.7051807"><ele>1698.0</ele><time>2026-05-02T15:44:22.044Z</time></trkpt><trkpt lat="44.0567659" lon="7.7052556"><ele>1698.0</ele><time>2026-05-02T15:44:26.045Z</time></trkpt><trkpt lat="44.0566893" lon="7.7053487"><ele>1698.0</ele><time>2026-05-02T15:44:29.044Z</time></trkpt><trkpt lat="44.0566054" lon="7.7053776"><ele>1698.0</ele><time>2026-05-02T15:44:31.045Z</time></trkpt><trkpt lat="44.0565278" lon="7.705362"><ele>1698.0</ele><time>2026-05-02T15:44:33.044Z</time></trkpt><trkpt lat="44.0564544" lon="7.7053047"><ele>1699.6666666666667</ele><time>2026-05-02T15:44:35.044Z</time></trkpt><trkpt lat="44.0563888" lon="7.7052494"><ele>1701.3333333333335</ele><time>2026-05-02T15:44:36.044Z</time></trkpt><trkpt lat="44.0563387" lon="7.705191"><ele>1703.0</ele><time>2026-05-02T15:44:37.044Z</time></trkpt><trkpt lat="44.0562438" lon="7.705138"><ele>1704.6666666666667</ele><time>2026-05-02T15:44:39.044Z</time></trkpt><trkpt lat="44.0561683" lon="7.7050804"><ele>1706.3333333333335</ele><time>2026-05-02T15:44:41.044Z</time></trkpt><trkpt lat="44.0560845" lon="7.7050255"><ele>1708.0</ele><time>2026-05-02T15:44:43.046Z</time></trkpt><trkpt lat="44.0560054" lon="7.7049516"><ele>1708.0</ele><time>2026-05-02T15:44:45.044Z</time></trkpt><trkpt lat="44.0559229" lon="7.7048716"><ele>1708.0000000000002</ele><time>2026-05-02T15:44:47.044Z</time></trkpt><trkpt lat="44.055857" lon="7.7047803"><ele>1708.0000000000002</ele><time>2026-05-02T15:44:49.044Z</time></trkpt><trkpt lat="44.0557895" lon="7.7046983"><ele>1708.0</ele><time>2026-05-02T15:44:51.044Z</time></trkpt><trkpt lat="44.0557043" lon="7.7046298"><ele>1708.0</ele><time>2026-05-02T15:44:53.044Z</time></trkpt><trkpt lat="44.0556269" lon="7.7045745"><ele>1709.5000000000002</ele><time>2026-05-02T15:44:55.044Z</time></trkpt><trkpt lat="44.0555478" lon="7.7044912"><ele>1711.0</ele><time>2026-05-02T15:44:57.044Z</time></trkpt><trkpt lat="44.0554908" lon="7.7043997"><ele>1712.5</ele><time>2026-05-02T15:44:59.044Z</time></trkpt><trkpt lat="44.05545" lon="7.7043026"><ele>1714.0</ele><time>2026-05-02T15:45:01.044Z</time></trkpt><trkpt lat="44.0554071" lon="7.7042064"><ele>1715.5000000000002</ele><time>2026-05-02T15:45:03.044Z</time></trkpt><trkpt lat="44.0553893" lon="7.7041047"><ele>1717.0</ele><time>2026-05-02T15:45:08.981Z</time></trkpt><trkpt lat="44.0553237" lon="7.7040296"><ele>1713.8333333333335</ele><time>2026-05-02T15:45:46.044Z</time></trkpt><trkpt lat="44.0552902" lon="7.703953"><ele>1710.6666666666667</ele><time>2026-05-02T15:45:47.043Z</time></trkpt><trkpt lat="44.0552284" lon="7.7038163"><ele>1707.5</ele><time>2026-05-02T15:45:49.043Z</time></trkpt><trkpt lat="44.0551988" lon="7.703725"><ele>1704.3333333333335</ele><time>2026-05-02T15:45:50.043Z</time></trkpt><trkpt lat="44.05517" lon="7.7036466"><ele>1701.1666666666667</ele><time>2026-05-02T15:45:51.043Z</time></trkpt><trkpt lat="44.0550917" lon="7.7035082"><ele>1698.0</ele><time>2026-05-02T15:45:53.043Z</time></trkpt><trkpt lat="44.0550478" lon="7.7034257"><ele>1693.4</ele><time>2026-05-02T15:45:54.043Z</time></trkpt><trkpt lat="44.0549631" lon="7.703357"><ele>1688.8000000000002</ele><time>2026-05-02T15:45:56.043Z</time></trkpt><trkpt lat="44.0548683" lon="7.7033185"><ele>1684.2</ele><time>2026-05-02T15:45:58.044Z</time></trkpt><trkpt lat="44.0547903" lon="7.7033523"><ele>1679.6</ele><time>2026-05-02T15:46:00.043Z</time></trkpt><trkpt lat="44.0547034" lon="7.7034481"><ele>1675.0</ele><time>2026-05-02T15:46:02.043Z</time></trkpt><trkpt lat="44.0546504" lon="7.7035051"><ele>1674.6666666666667</ele><time>2026-05-02T15:46:03.043Z</time></trkpt><trkpt lat="44.0546002" lon="7.7035604"><ele>1674.3333333333335</ele><time>2026-05-02T15:46:04.043Z</time></trkpt><trkpt lat="44.0545143" lon="7.7037075"><ele>1674.0</ele><time>2026-05-02T15:46:06.043Z</time></trkpt><trkpt lat="44.0544622" lon="7.7037921"><ele>1673.6666666666665</ele><time>2026-05-02T15:46:07.044Z</time></trkpt><trkpt lat="44.0544201" lon="7.703863"><ele>1673.3333333333333</ele><time>2026-05-02T15:46:08.043Z</time></trkpt><trkpt lat="44.054383" lon="7.7039368"><ele>1673.0</ele><time>2026-05-02T15:46:09.043Z</time></trkpt><trkpt lat="44.0543334" lon="7.7040127"><ele>1672.9999999999998</ele><time>2026-05-02T15:46:10.043Z</time></trkpt><trkpt lat="44.0542819" lon="7.7040988"><ele>1673.0</ele><time>2026-05-02T15:46:11.043Z</time></trkpt><trkpt lat="44.0541921" lon="7.7042357"><ele>1673.0</ele><time>2026-05-02T15:46:13.043Z</time></trkpt><trkpt lat="44.0541388" lon="7.7042971"><ele>1673.0</ele><time>2026-05-02T15:46:14.043Z</time></trkpt><trkpt lat="44.0540707" lon="7.7043358"><ele>1672.9999999999998</ele><time>2026-05-02T15:46:15.044Z</time></trkpt><trkpt lat="44.0540103" lon="7.7043645"><ele>1673.0</ele><time>2026-05-02T15:46:16.044Z</time></trkpt><trkpt lat="44.0539474" lon="7.7043821"><ele>1671.4</ele><time>2026-05-02T15:46:17.043Z</time></trkpt><trkpt lat="44.0538812" lon="7.7044022"><ele>1669.8000000000002</ele><time>2026-05-02T15:46:18.043Z</time></trkpt><trkpt lat="44.0537671" lon="7.7044364"><ele>1668.2</ele><time>2026-05-02T15:46:20.043Z</time></trkpt><trkpt lat="44.0536506" lon="7.7044778"><ele>1666.6</ele><time>2026-05-02T15:46:22.043Z</time></trkpt><trkpt lat="44.0535823" lon="7.704501"><ele>1665.0</ele><time>2026-05-02T15:46:23.044Z</time></trkpt><trkpt lat="44.0535052" lon="7.7045132"><ele>1665.0</ele><time>2026-05-02T15:46:24.043Z</time></trkpt><trkpt lat="44.0533957" lon="7.7045006"><ele>1665.0</ele><time>2026-05-02T15:46:26.043Z</time></trkpt><trkpt lat="44.0532805" lon="7.7044503"><ele>1665.0</ele><time>2026-05-02T15:46:28.044Z</time></trkpt><trkpt lat="44.0532182" lon="7.7044133"><ele>1665.0</ele><time>2026-05-02T15:46:29.043Z</time></trkpt><trkpt lat="44.0531574" lon="7.7043728"><ele>1665.0</ele><time>2026-05-02T15:46:30.043Z</time></trkpt><trkpt lat="44.0530427" lon="7.7043184"><ele>1663.0</ele><time>2026-05-02T15:46:32.043Z</time></trkpt><trkpt lat="44.0529739" lon="7.7042147"><ele>1661.0</ele><time>2026-05-02T15:46:33.043Z</time></trkpt><trkpt lat="44.0529085" lon="7.7041588"><ele>1659.0</ele><time>2026-05-02T15:46:34.043Z</time></trkpt><trkpt lat="44.0528315" lon="7.704098"><ele>1657.0</ele><time>2026-05-02T15:46:35.043Z</time></trkpt><trkpt lat="44.052765" lon="7.7040362"><ele>1655.0</ele><time>2026-05-02T15:46:36.043Z</time></trkpt><trkpt lat="44.0526899" lon="7.7039798"><ele>1653.0</ele><time>2026-05-02T15:46:37.044Z</time></trkpt><trkpt lat="44.0526229" lon="7.7039297"><ele>1653.0</ele><time>2026-05-02T15:46:38.044Z</time></trkpt><trkpt lat="44.0525628" lon="7.7038714"><ele>1653.0</ele><time>2026-05-02T15:46:39.043Z</time></trkpt><trkpt lat="44.0524474" lon="7.7038104"><ele>1653.0</ele><time>2026-05-02T15:46:41.044Z</time></trkpt><trkpt lat="44.0523749" lon="7.7037659"><ele>1653.0</ele><time>2026-05-02T15:46:42.043Z</time></trkpt><trkpt lat="44.052309" lon="7.70374"><ele>1653.0</ele><time>2026-05-02T15:46:43.043Z</time></trkpt><trkpt lat="44.052174" lon="7.7036819"><ele>1652.0</ele><time>2026-05-02T15:46:45.043Z</time></trkpt><trkpt lat="44.052072" lon="7.7035657"><ele>1651.0</ele><time>2026-05-02T15:46:47.043Z</time></trkpt><trkpt lat="44.0520132" lon="7.7034887"><ele>1650.0</ele><time>2026-05-02T15:46:48.043Z</time></trkpt><trkpt lat="44.0519624" lon="7.7033726"><ele>1649.0</ele><time>2026-05-02T15:46:49.043Z</time></trkpt><trkpt lat="44.0519151" lon="7.7032758"><ele>1648.0</ele><time>2026-05-02T15:46:50.043Z</time></trkpt><trkpt lat="44.0518862" lon="7.7031569"><ele>1648.0</ele><time>2026-05-02T15:46:51.043Z</time></trkpt><trkpt lat="44.0518522" lon="7.7030598"><ele>1648.0</ele><time>2026-05-02T15:46:52.043Z</time></trkpt><trkpt lat="44.0518118" lon="7.7029657"><ele>1648.0</ele><time>2026-05-02T15:46:53.043Z</time></trkpt><trkpt lat="44.051787" lon="7.7028769"><ele>1648.0</ele><time>2026-05-02T15:46:54.043Z</time></trkpt><trkpt lat="44.051712" lon="7.7027627"><ele>1648.0</ele><time>2026-05-02T15:46:56.043Z</time></trkpt><trkpt lat="44.0515993" lon="7.7028143"><ele>1644.8571428571427</ele><time>2026-05-02T15:46:58.044Z</time></trkpt><trkpt lat="44.051543" lon="7.7028598"><ele>1641.7142857142858</ele><time>2026-05-02T15:46:59.043Z</time></trkpt><trkpt lat="44.0514865" lon="7.7029256"><ele>1638.5714285714284</ele><time>2026-05-02T15:47:00.043Z</time></trkpt><trkpt lat="44.0514163" lon="7.7029693"><ele>1635.4285714285713</ele><time>2026-05-02T15:47:01.043Z</time></trkpt><trkpt lat="44.0513421" lon="7.7030226"><ele>1632.2857142857142</ele><time>2026-05-02T15:47:02.043Z</time></trkpt><trkpt lat="44.0512798" lon="7.7030764"><ele>1629.142857142857</ele><time>2026-05-02T15:47:03.043Z</time></trkpt><trkpt lat="44.0512232" lon="7.7031251"><ele>1626.0</ele><time>2026-05-02T15:47:04.043Z</time></trkpt><trkpt lat="44.0511666" lon="7.7031918"><ele>1626.0</ele><time>2026-05-02T15:47:05.043Z</time></trkpt><trkpt lat="44.0510948" lon="7.7033157"><ele>1626.0</ele><time>2026-05-02T15:47:07.043Z</time></trkpt><trkpt lat="44.0510631" lon="7.7032318"><ele>1626.0</ele><time>2026-05-02T15:47:10.043Z</time></trkpt><trkpt lat="44.0511368" lon="7.7031475"><ele>1626.0</ele><time>2026-05-02T15:47:12.044Z</time></trkpt><trkpt lat="44.0511876" lon="7.7030701"><ele>1626.0</ele><time>2026-05-02T15:47:13.043Z</time></trkpt><trkpt lat="44.0512545" lon="7.7029909"><ele>1626.0</ele><time>2026-05-02T15:47:14.043Z</time></trkpt><trkpt lat="44.0512977" lon="7.7029125"><ele>1626.0</ele><time>2026-05-02T15:47:15.043Z</time></trkpt><trkpt lat="44.0513523" lon="7.7028388"><ele>1626.0</ele><time>2026-05-02T15:47:16.043Z</time></trkpt><trkpt lat="44.0514128" lon="7.702743"><ele>1626.0</ele><time>2026-05-02T15:47:17.043Z</time></trkpt><trkpt lat="44.0514717" lon="7.7026506"><ele>1626.0</ele><time>2026-05-02T15:47:18.043Z</time></trkpt><trkpt lat="44.051524" lon="7.702546"><ele>1626.0</ele><time>2026-05-02T15:47:19.043Z</time></trkpt><trkpt lat="44.0515631" lon="7.7024345"><ele>1626.0</ele><time>2026-05-02T15:47:20.043Z</time></trkpt><trkpt lat="44.0515928" lon="7.7023196"><ele>1627.2857142857144</ele><time>2026-05-02T15:47:21.044Z</time></trkpt><trkpt lat="44.0516313" lon="7.702223"><ele>1628.5714285714284</ele><time>2026-05-02T15:47:22.044Z</time></trkpt><trkpt lat="44.0516739" lon="7.7021374"><ele>1629.857142857143</ele><time>2026-05-02T15:47:23.043Z</time></trkpt><trkpt lat="44.0517142" lon="7.7020676"><ele>1631.1428571428573</ele><time>2026-05-02T15:47:24.043Z</time></trkpt><trkpt lat="44.0517439" lon="7.7019782"><ele>1632.4285714285716</ele><time>2026-05-02T15:47:26.043Z</time></trkpt><trkpt lat="44.051676" lon="7.7020178"><ele>1633.7142857142858</ele><time>2026-05-02T15:47:29.044Z</time></trkpt><trkpt lat="44.051636" lon="7.7021128"><ele>1635.0</ele><time>2026-05-02T15:47:30.043Z</time></trkpt><trkpt lat="44.05159" lon="7.7021928"><ele>1630.8333333333333</ele><time>2026-05-02T15:47:31.043Z</time></trkpt><trkpt lat="44.0515377" lon="7.7023127"><ele>1626.6666666666665</ele><time>2026-05-02T15:47:32.043Z</time></trkpt><trkpt lat="44.0514601" lon="7.7024018"><ele>1622.5</ele><time>2026-05-02T15:47:33.043Z</time></trkpt><trkpt lat="44.0513974" lon="7.7024669"><ele>1618.3333333333333</ele><time>2026-05-02T15:47:34.044Z</time></trkpt><trkpt lat="44.051335" lon="7.7025233"><ele>1614.1666666666665</ele><time>2026-05-02T15:47:35.043Z</time></trkpt><trkpt lat="44.0512665" lon="7.702574"><ele>1610.0</ele><time>2026-05-02T15:47:36.043Z</time></trkpt><trkpt lat="44.0511959" lon="7.7026389"><ele>1610.0</ele><time>2026-05-02T15:47:37.043Z</time></trkpt><trkpt lat="44.0511264" lon="7.7026821"><ele>1610.0</ele><time>2026-05-02T15:47:38.043Z</time></trkpt><trkpt lat="44.0510481" lon="7.7027461"><ele>1610.0</ele><time>2026-05-02T15:47:39.043Z</time></trkpt><trkpt lat="44.0509604" lon="7.7027712"><ele>1610.0</ele><time>2026-05-02T15:47:40.044Z</time></trkpt><trkpt lat="44.0508607" lon="7.7028114"><ele>1610.0</ele><time>2026-05-02T15:47:41.044Z</time></trkpt><trkpt lat="44.0507556" lon="7.7028431"><ele>1607.9999999999998</ele><time>2026-05-02T15:47:42.043Z</time></trkpt><trkpt lat="44.0506647" lon="7.7028719"><ele>1606.0</ele><time>2026-05-02T15:47:43.043Z</time></trkpt><trkpt lat="44.0505846" lon="7.7029124"><ele>1604.0</ele><time>2026-05-02T15:47:44.043Z</time></trkpt><trkpt lat="44.0505132" lon="7.7029546"><ele>1602.0</ele><time>2026-05-02T15:47:45.043Z</time></trkpt><trkpt lat="44.0504472" lon="7.7029875"><ele>1599.9999999999998</ele><time>2026-05-02T15:47:46.044Z</time></trkpt><trkpt lat="44.0503639" lon="7.7029884"><ele>1598.0</ele><time>2026-05-02T15:47:47.044Z</time></trkpt><trkpt lat="44.0502831" lon="7.7029904"><ele>1597.9999999999998</ele><time>2026-05-02T15:47:48.043Z</time></trkpt><trkpt lat="44.0502084" lon="7.7029836"><ele>1598.0</ele><time>2026-05-02T15:47:49.044Z</time></trkpt><trkpt lat="44.0501378" lon="7.7029858"><ele>1598.0</ele><time>2026-05-02T15:47:50.043Z</time></trkpt><trkpt lat="44.0500633" lon="7.7029608"><ele>1598.0</ele><time>2026-05-02T15:47:51.043Z</time></trkpt><trkpt lat="44.0499777" lon="7.7029056"><ele>1597.9999999999998</ele><time>2026-05-02T15:47:52.043Z</time></trkpt><trkpt lat="44.0498879" lon="7.7028655"><ele>1598.0</ele><time>2026-05-02T15:47:53.043Z</time></trkpt><trkpt lat="44.0498058" lon="7.7028085"><ele>1597.4</ele><time>2026-05-02T15:47:54.043Z</time></trkpt><trkpt lat="44.0497211" lon="7.7027531"><ele>1596.8000000000002</ele><time>2026-05-02T15:47:55.043Z</time></trkpt><trkpt lat="44.0496184" lon="7.7027038"><ele>1596.2</ele><time>2026-05-02T15:47:56.043Z</time></trkpt><trkpt lat="44.0495381" lon="7.7026579"><ele>1595.6</ele><time>2026-05-02T15:47:57.043Z</time></trkpt><trkpt lat="44.0494605" lon="7.702615"><ele>1595.0</ele><time>2026-05-02T15:47:58.043Z</time></trkpt><trkpt lat="44.0493855" lon="7.7025702"><ele>1594.9999999999998</ele><time>2026-05-02T15:47:59.043Z</time></trkpt><trkpt lat="44.0493205" lon="7.7025306"><ele>1595.0</ele><time>2026-05-02T15:48:00.043Z</time></trkpt><trkpt lat="44.0492531" lon="7.7024773"><ele>1595.0</ele><time>2026-05-02T15:48:01.043Z</time></trkpt><trkpt lat="44.04917" lon="7.7024464"><ele>1595.0</ele><time>2026-05-02T15:48:02.043Z</time></trkpt><trkpt lat="44.0490884" lon="7.702407"><ele>1594.9999999999998</ele><time>2026-05-02T15:48:03.043Z</time></trkpt><trkpt lat="44.0489922" lon="7.7024019"><ele>1595.0</ele><time>2026-05-02T15:48:04.043Z</time></trkpt><trkpt lat="44.0489178" lon="7.7023821"><ele>1593.9999999999998</ele><time>2026-05-02T15:48:05.043Z</time></trkpt><trkpt lat="44.0488453" lon="7.7023881"><ele>1593.0</ele><time>2026-05-02T15:48:06.043Z</time></trkpt><trkpt lat="44.0487651" lon="7.7024038"><ele>1592.0</ele><time>2026-05-02T15:48:07.043Z</time></trkpt><trkpt lat="44.0487025" lon="7.702477"><ele>1591.0</ele><time>2026-05-02T15:48:08.044Z</time></trkpt><trkpt lat="44.0486086" lon="7.7025856"><ele>1589.9999999999998</ele><time>2026-05-02T15:48:10.043Z</time></trkpt><trkpt lat="44.0485462" lon="7.7026269"><ele>1589.0</ele><time>2026-05-02T15:48:11.044Z</time></trkpt><trkpt lat="44.0484729" lon="7.7026702"><ele>1588.9999999999998</ele><time>2026-05-02T15:48:12.043Z</time></trkpt><trkpt lat="44.0483992" lon="7.7026858"><ele>1589.0</ele><time>2026-05-02T15:48:13.043Z</time></trkpt><trkpt lat="44.0483176" lon="7.7027253"><ele>1589.0</ele><time>2026-05-02T15:48:14.044Z</time></trkpt><trkpt lat="44.0482374" lon="7.7027475"><ele>1589.0</ele><time>2026-05-02T15:48:15.043Z</time></trkpt><trkpt lat="44.0481516" lon="7.7027573"><ele>1588.9999999999998</ele><time>2026-05-02T15:48:16.043Z</time></trkpt><trkpt lat="44.0480788" lon="7.7027695"><ele>1589.0</ele><time>2026-05-02T15:48:17.044Z</time></trkpt><trkpt lat="44.047995" lon="7.7027712"><ele>1590.8333333333333</ele><time>2026-05-02T15:48:18.043Z</time></trkpt><trkpt lat="44.0479305" lon="7.7027645"><ele>1592.6666666666665</ele><time>2026-05-02T15:48:19.043Z</time></trkpt><trkpt lat="44.0478608" lon="7.7027797"><ele>1594.5</ele><time>2026-05-02T15:48:20.043Z</time></trkpt><trkpt lat="44.0477794" lon="7.7027888"><ele>1596.3333333333335</ele><time>2026-05-02T15:48:21.043Z</time></trkpt><trkpt lat="44.0476755" lon="7.7027843"><ele>1598.1666666666667</ele><time>2026-05-02T15:48:22.044Z</time></trkpt><trkpt lat="44.0475941" lon="7.7027528"><ele>1600.0</ele><time>2026-05-02T15:48:23.043Z</time></trkpt><trkpt lat="44.0475122" lon="7.7027275"><ele>1601.3333333333335</ele><time>2026-05-02T15:48:24.043Z</time></trkpt><trkpt lat="44.0474247" lon="7.7027132"><ele>1602.6666666666667</ele><time>2026-05-02T15:48:25.043Z</time></trkpt><trkpt lat="44.0473233" lon="7.7027207"><ele>1604.0</ele><time>2026-05-02T15:48:26.043Z</time></trkpt><trkpt lat="44.0472437" lon="7.702752"><ele>1605.3333333333335</ele><time>2026-05-02T15:48:27.043Z</time></trkpt><trkpt lat="44.0471593" lon="7.7027384"><ele>1606.6666666666667</ele><time>2026-05-02T15:48:28.043Z</time></trkpt><trkpt lat="44.0470843" lon="7.7027617"><ele>1608.0</ele><time>2026-05-02T15:48:29.044Z</time></trkpt><trkpt lat="44.0470162" lon="7.7027661"><ele>1608.3333333333333</ele><time>2026-05-02T15:48:30.043Z</time></trkpt><trkpt lat="44.0469405" lon="7.7027938"><ele>1608.6666666666665</ele><time>2026-05-02T15:48:31.043Z</time></trkpt><trkpt lat="44.0468554" lon="7.702807"><ele>1609.0</ele><time>2026-05-02T15:48:32.044Z</time></trkpt><trkpt lat="44.0467727" lon="7.7028108"><ele>1609.3333333333333</ele><time>2026-05-02T15:48:33.043Z</time></trkpt><trkpt lat="44.046674" lon="7.702832"><ele>1609.6666666666665</ele><time>2026-05-02T15:48:34.044Z</time></trkpt><trkpt lat="44.0465914" lon="7.7028397"><ele>1610.0</ele><time>2026-05-02T15:48:35.043Z</time></trkpt><trkpt lat="44.0465114" lon="7.7028698"><ele>1611.8333333333333</ele><time>2026-05-02T15:48:36.043Z</time></trkpt><trkpt lat="44.0464316" lon="7.7028982"><ele>1613.6666666666665</ele><time>2026-05-02T15:48:37.043Z</time></trkpt><trkpt lat="44.0463631" lon="7.7029194"><ele>1615.5</ele><time>2026-05-02T15:48:40.043Z</time></trkpt><trkpt lat="44.0463375" lon="7.7030089"><ele>1617.3333333333335</ele><time>2026-05-02T15:48:42.044Z</time></trkpt><trkpt lat="44.0462725" lon="7.7030932"><ele>1619.1666666666667</ele><time>2026-05-02T15:48:44.043Z</time></trkpt><trkpt lat="44.0461632" lon="7.7031318"><ele>1621.0</ele><time>2026-05-02T15:48:46.043Z</time></trkpt><trkpt lat="44.0460631" lon="7.7031902"><ele>1621.0</ele><time>2026-05-02T15:48:48.043Z</time></trkpt><trkpt lat="44.0459519" lon="7.7032456"><ele>1621.0</ele><time>2026-05-02T15:48:50.043Z</time></trkpt><trkpt lat="44.0458702" lon="7.7033161"><ele>1621.0</ele><time>2026-05-02T15:48:52.044Z</time></trkpt><trkpt lat="44.0459056" lon="7.7034026"><ele>1621.0</ele><time>2026-05-02T15:48:56.043Z</time></trkpt><trkpt lat="44.0459599" lon="7.703355"><ele>1621.0</ele><time>2026-05-02T15:48:58.043Z</time></trkpt><trkpt lat="44.0460791" lon="7.7032802"><ele>1621.0000000000002</ele><time>2026-05-02T15:49:00.044Z</time></trkpt><trkpt lat="44.0461495" lon="7.7032524"><ele>1621.0</ele><time>2026-05-02T15:49:01.043Z</time></trkpt><trkpt lat="44.0462203" lon="7.7032392"><ele>1621.0</ele><time>2026-05-02T15:49:02.044Z</time></trkpt><trkpt lat="44.0462899" lon="7.7032342"><ele>1621.0</ele><time>2026-05-02T15:49:03.044Z</time></trkpt><trkpt lat="44.0463657" lon="7.7032501"><ele>1621.0000000000002</ele><time>2026-05-02T15:49:04.044Z</time></trkpt><trkpt lat="44.0464439" lon="7.7032924"><ele>1621.0</ele><time>2026-05-02T15:49:05.044Z</time></trkpt><trkpt lat="44.0465251" lon="7.7033388"><ele>1621.0000000000002</ele><time>2026-05-02T15:49:06.044Z</time></trkpt><trkpt lat="44.0466009" lon="7.7033735"><ele>1621.0</ele><time>2026-05-02T15:49:07.044Z</time></trkpt><trkpt lat="44.0466719" lon="7.703403"><ele>1621.0</ele><time>2026-05-02T15:49:08.044Z</time></trkpt><trkpt lat="44.0467378" lon="7.7034348"><ele>1621.0</ele><time>2026-05-02T15:49:09.044Z</time></trkpt><trkpt lat="44.0468086" lon="7.7034738"><ele>1621.0000000000002</ele><time>2026-05-02T15:49:10.044Z</time></trkpt><trkpt lat="44.0468859" lon="7.7035142"><ele>1621.0</ele><time>2026-05-02T15:49:11.045Z</time></trkpt><trkpt lat="44.0469692" lon="7.7035476"><ele>1618.8</ele><time>2026-05-02T15:49:12.044Z</time></trkpt><trkpt lat="44.0470559" lon="7.7035761"><ele>1616.6</ele><time>2026-05-02T15:49:13.045Z</time></trkpt><trkpt lat="44.0471554" lon="7.7035768"><ele>1614.4</ele><time>2026-05-02T15:49:14.044Z</time></trkpt><trkpt lat="44.0472593" lon="7.7035626"><ele>1612.2</ele><time>2026-05-02T15:49:15.045Z</time></trkpt><trkpt lat="44.0473553" lon="7.7035346"><ele>1610.0</ele><time>2026-05-02T15:49:16.045Z</time></trkpt><trkpt lat="44.047437" lon="7.7035135"><ele>1608.6666666666665</ele><time>2026-05-02T15:49:17.044Z</time></trkpt><trkpt lat="44.0475183" lon="7.7034965"><ele>1607.3333333333333</ele><time>2026-05-02T15:49:18.045Z</time></trkpt><trkpt lat="44.0475951" lon="7.7034774"><ele>1606.0</ele><time>2026-05-02T15:49:19.045Z</time></trkpt><trkpt lat="44.0476666" lon="7.7034567"><ele>1604.6666666666665</ele><time>2026-05-02T15:49:20.045Z</time></trkpt><trkpt lat="44.0477449" lon="7.7034485"><ele>1603.3333333333333</ele><time>2026-05-02T15:49:21.045Z</time></trkpt><trkpt lat="44.047817" lon="7.7034298"><ele>1602.0</ele><time>2026-05-02T15:49:22.044Z</time></trkpt><trkpt lat="44.0478862" lon="7.7034017"><ele>1602.0</ele><time>2026-05-02T15:49:23.044Z</time></trkpt><trkpt lat="44.0479588" lon="7.7033667"><ele>1602.0</ele><time>2026-05-02T15:49:24.044Z</time></trkpt><trkpt lat="44.0480422" lon="7.7033035"><ele>1602.0</ele><time>2026-05-02T15:49:25.044Z</time></trkpt><trkpt lat="44.0481306" lon="7.7032423"><ele>1602.0</ele><time>2026-05-02T15:49:26.044Z</time></trkpt><trkpt lat="44.0482131" lon="7.7031851"><ele>1602.0</ele><time>2026-05-02T15:49:27.044Z</time></trkpt><trkpt lat="44.0482964" lon="7.7031327"><ele>1599.1666666666667</ele><time>2026-05-02T15:49:28.044Z</time></trkpt><trkpt lat="44.04837" lon="7.7030817"><ele>1596.3333333333335</ele><time>2026-05-02T15:49:29.044Z</time></trkpt><trkpt lat="44.0484454" lon="7.7030241"><ele>1593.5</ele><time>2026-05-02T15:49:30.045Z</time></trkpt><trkpt lat="44.0485131" lon="7.702965"><ele>1590.6666666666667</ele><time>2026-05-02T15:49:31.045Z</time></trkpt><trkpt lat="44.0485749" lon="7.7029289"><ele>1587.8333333333335</ele><time>2026-05-02T15:49:32.044Z</time></trkpt><trkpt lat="44.0486419" lon="7.7029044"><ele>1585.0</ele><time>2026-05-02T15:49:33.044Z</time></trkpt><trkpt lat="44.0487131" lon="7.702899"><ele>1585.0000000000002</ele><time>2026-05-02T15:49:34.044Z</time></trkpt><trkpt lat="44.0487762" lon="7.7029172"><ele>1585.0</ele><time>2026-05-02T15:49:35.044Z</time></trkpt><trkpt lat="44.0488415" lon="7.7029525"><ele>1585.0</ele><time>2026-05-02T15:49:36.044Z</time></trkpt><trkpt lat="44.0489114" lon="7.7029967"><ele>1585.0</ele><time>2026-05-02T15:49:37.044Z</time></trkpt><trkpt lat="44.04899" lon="7.7030623"><ele>1585.0000000000002</ele><time>2026-05-02T15:49:38.044Z</time></trkpt><trkpt lat="44.0490673" lon="7.7031269"><ele>1585.0</ele><time>2026-05-02T15:49:39.044Z</time></trkpt><trkpt lat="44.0491514" lon="7.7031846"><ele>1583.8</ele><time>2026-05-02T15:49:40.045Z</time></trkpt><trkpt lat="44.0492431" lon="7.7032511"><ele>1582.6</ele><time>2026-05-02T15:49:41.044Z</time></trkpt><trkpt lat="44.0493369" lon="7.7032998"><ele>1581.4</ele><time>2026-05-02T15:49:42.044Z</time></trkpt><trkpt lat="44.0494154" lon="7.7033814"><ele>1580.2</ele><time>2026-05-02T15:49:43.044Z</time></trkpt><trkpt lat="44.0495088" lon="7.7034628"><ele>1579.0</ele><time>2026-05-02T15:49:44.044Z</time></trkpt><trkpt lat="44.0495972" lon="7.7035362"><ele>1577.0</ele><time>2026-05-02T15:49:45.044Z</time></trkpt><trkpt lat="44.0496899" lon="7.7036037"><ele>1575.0</ele><time>2026-05-02T15:49:46.044Z</time></trkpt><trkpt lat="44.0497836" lon="7.7036453"><ele>1573.0</ele><time>2026-05-02T15:49:47.044Z</time></trkpt><trkpt lat="44.0498671" lon="7.7036874"><ele>1571.0</ele><time>2026-05-02T15:49:48.044Z</time></trkpt><trkpt lat="44.0499524" lon="7.7037036"><ele>1569.0</ele><time>2026-05-02T15:49:49.044Z</time></trkpt><trkpt lat="44.0500198" lon="7.7037519"><ele>1569.0</ele><time>2026-05-02T15:49:50.044Z</time></trkpt><trkpt lat="44.0500751" lon="7.7038131"><ele>1569.0</ele><time>2026-05-02T15:49:51.045Z</time></trkpt><trkpt lat="44.05015" lon="7.703892"><ele>1569.0</ele><time>2026-05-02T15:49:52.044Z</time></trkpt><trkpt lat="44.0501924" lon="7.7039676"><ele>1569.0</ele><time>2026-05-02T15:49:53.045Z</time></trkpt><trkpt lat="44.0502252" lon="7.7040711"><ele>1569.0</ele><time>2026-05-02T15:49:54.045Z</time></trkpt><trkpt lat="44.0502527" lon="7.704181"><ele>1569.0</ele><time>2026-05-02T15:49:55.044Z</time></trkpt><trkpt lat="44.0502714" lon="7.7042881"><ele>1569.0</ele><time>2026-05-02T15:49:56.045Z</time></trkpt><trkpt lat="44.0502945" lon="7.7043772"><ele>1569.0</ele><time>2026-05-02T15:49:57.044Z</time></trkpt><trkpt lat="44.0503169" lon="7.7044806"><ele>1569.0</ele><time>2026-05-02T15:49:58.044Z</time></trkpt><trkpt lat="44.0503528" lon="7.7045673"><ele>1569.0</ele><time>2026-05-02T15:49:59.044Z</time></trkpt><trkpt lat="44.0503908" lon="7.7046489"><ele>1569.0</ele><time>2026-05-02T15:50:00.044Z</time></trkpt><trkpt lat="44.0504682" lon="7.7046459"><ele>1569.0</ele><time>2026-05-02T15:50:01.044Z</time></trkpt><trkpt lat="44.0505971" lon="7.7046752"><ele>1567.5</ele><time>2026-05-02T15:50:03.045Z</time></trkpt><trkpt lat="44.0506668" lon="7.7047106"><ele>1566.0</ele><time>2026-05-02T15:50:04.044Z</time></trkpt><trkpt lat="44.0507334" lon="7.7047595"><ele>1564.5</ele><time>2026-05-02T15:50:05.044Z</time></trkpt><trkpt lat="44.0508061" lon="7.7047994"><ele>1563.0</ele><time>2026-05-02T15:50:06.044Z</time></trkpt><trkpt lat="44.0508942" lon="7.7048011"><ele>1561.5</ele><time>2026-05-02T15:50:07.044Z</time></trkpt><trkpt lat="44.0509729" lon="7.7048408"><ele>1560.0</ele><time>2026-05-02T15:50:08.044Z</time></trkpt><trkpt lat="44.0510546" lon="7.7048931"><ele>1560.0</ele><time>2026-05-02T15:50:09.044Z</time></trkpt><trkpt lat="44.0511165" lon="7.704948"><ele>1560.0</ele><time>2026-05-02T15:50:10.044Z</time></trkpt><trkpt lat="44.0511892" lon="7.7050021"><ele>1560.0</ele><time>2026-05-02T15:50:11.044Z</time></trkpt><trkpt lat="44.0512554" lon="7.7050308"><ele>1560.0</ele><time>2026-05-02T15:50:12.044Z</time></trkpt><trkpt lat="44.0513343" lon="7.7050359"><ele>1560.0</ele><time>2026-05-02T15:50:13.044Z</time></trkpt><trkpt lat="44.0514422" lon="7.7051209"><ele>1560.0</ele><time>2026-05-02T15:50:15.045Z</time></trkpt><trkpt lat="44.0514445" lon="7.7052207"><ele>1555.0</ele><time>2026-05-02T15:50:16.044Z</time></trkpt><trkpt lat="44.0514934" lon="7.705299"><ele>1550.0</ele><time>2026-05-02T15:50:17.045Z</time></trkpt><trkpt lat="44.0514619" lon="7.705399"><ele>1545.0</ele><time>2026-05-02T15:50:18.045Z</time></trkpt><trkpt lat="44.0514612" lon="7.7055036"><ele>1540.0</ele><time>2026-05-02T15:50:19.044Z</time></trkpt><trkpt lat="44.0514595" lon="7.705605"><ele>1535.0</ele><time>2026-05-02T15:50:20.044Z</time></trkpt><trkpt lat="44.0514621" lon="7.7057131"><ele>1530.0</ele><time>2026-05-02T15:50:21.044Z</time></trkpt><trkpt lat="44.0514952" lon="7.7058201"><ele>1530.0</ele><time>2026-05-02T15:50:22.045Z</time></trkpt><trkpt lat="44.0514996" lon="7.7059348"><ele>1530.0</ele><time>2026-05-02T15:50:23.044Z</time></trkpt><trkpt lat="44.0515184" lon="7.7060337"><ele>1530.0</ele><time>2026-05-02T15:50:24.044Z</time></trkpt><trkpt lat="44.0515511" lon="7.7061353"><ele>1530.0</ele><time>2026-05-02T15:50:25.044Z</time></trkpt><trkpt lat="44.0515935" lon="7.7062134"><ele>1530.0</ele><time>2026-05-02T15:50:26.044Z</time></trkpt><trkpt lat="44.051677" lon="7.7062874"><ele>1530.0</ele><time>2026-05-02T15:50:27.045Z</time></trkpt><trkpt lat="44.0517281" lon="7.7063733"><ele>1532.4</ele><time>2026-05-02T15:50:28.044Z</time></trkpt><trkpt lat="44.0518084" lon="7.7064494"><ele>1534.8</ele><time>2026-05-02T15:50:29.044Z</time></trkpt><trkpt lat="44.0518892" lon="7.7065295"><ele>1537.1999999999998</ele><time>2026-05-02T15:50:30.044Z</time></trkpt><trkpt lat="44.0519809" lon="7.7065979"><ele>1539.6</ele><time>2026-05-02T15:50:31.044Z</time></trkpt><trkpt lat="44.0520529" lon="7.7066773"><ele>1542.0</ele><time>2026-05-02T15:50:32.044Z</time></trkpt><trkpt lat="44.0521395" lon="7.7067532"><ele>1542.0</ele><time>2026-05-02T15:50:33.044Z</time></trkpt><trkpt lat="44.0522242" lon="7.7068299"><ele>1542.0</ele><time>2026-05-02T15:50:34.045Z</time></trkpt><trkpt lat="44.0523098" lon="7.706893"><ele>1542.0</ele><time>2026-05-02T15:50:35.044Z</time></trkpt><trkpt lat="44.0523899" lon="7.70696"><ele>1542.0</ele><time>2026-05-02T15:50:36.044Z</time></trkpt><trkpt lat="44.0524601" lon="7.7070435"><ele>1542.0</ele><time>2026-05-02T15:50:37.044Z</time></trkpt><trkpt lat="44.0525348" lon="7.7071128"><ele>1541.0</ele><time>2026-05-02T15:50:38.045Z</time></trkpt><trkpt lat="44.0525806" lon="7.7071885"><ele>1540.0</ele><time>2026-05-02T15:50:39.044Z</time></trkpt><trkpt lat="44.0526679" lon="7.7072856"><ele>1539.0</ele><time>2026-05-02T15:50:40.044Z</time></trkpt><trkpt lat="44.0527534" lon="7.7073745"><ele>1538.0</ele><time>2026-05-02T15:50:41.045Z</time></trkpt><trkpt lat="44.0528313" lon="7.7074426"><ele>1537.0</ele><time>2026-05-02T15:50:42.044Z</time></trkpt><trkpt lat="44.0529253" lon="7.707489"><ele>1537.0</ele><time>2026-05-02T15:50:43.044Z</time></trkpt><trkpt lat="44.0530169" lon="7.707556"><ele>1537.0</ele><time>2026-05-02T15:50:44.044Z</time></trkpt><trkpt lat="44.053085" lon="7.707616"><ele>1537.0</ele><time>2026-05-02T15:50:45.044Z</time></trkpt><trkpt lat="44.0531394" lon="7.7076788"><ele>1537.0</ele><time>2026-05-02T15:50:46.044Z</time></trkpt><trkpt lat="44.053181" lon="7.7078187"><ele>1537.0</ele><time>2026-05-02T15:50:48.044Z</time></trkpt><trkpt lat="44.0531314" lon="7.7079568"><ele>1534.0000000000002</ele><time>2026-05-02T15:50:50.044Z</time></trkpt><trkpt lat="44.0530885" lon="7.7080255"><ele>1531.0</ele><time>2026-05-02T15:50:51.044Z</time></trkpt><trkpt lat="44.0530483" lon="7.7081164"><ele>1528.0</ele><time>2026-05-02T15:50:52.044Z</time></trkpt><trkpt lat="44.0530296" lon="7.7082359"><ele>1525.0</ele><time>2026-05-02T15:50:53.045Z</time></trkpt><trkpt lat="44.0530338" lon="7.7083813"><ele>1522.0</ele><time>2026-05-02T15:50:54.044Z</time></trkpt><trkpt lat="44.0530031" lon="7.7085022"><ele>1519.0</ele><time>2026-05-02T15:50:55.044Z</time></trkpt><trkpt lat="44.0529785" lon="7.7085969"><ele>1519.0</ele><time>2026-05-02T15:50:56.045Z</time></trkpt><trkpt lat="44.0529575" lon="7.7086927"><ele>1519.0</ele><time>2026-05-02T15:50:57.044Z</time></trkpt><trkpt lat="44.0529782" lon="7.7088006"><ele>1519.0</ele><time>2026-05-02T15:50:58.044Z</time></trkpt><trkpt lat="44.0529943" lon="7.7088869"><ele>1519.0</ele><time>2026-05-02T15:50:59.044Z</time></trkpt><trkpt lat="44.0529557" lon="7.7090434"><ele>1519.0</ele><time>2026-05-02T15:51:01.044Z</time></trkpt><trkpt lat="44.0528844" lon="7.7091709"><ele>1519.0</ele><time>2026-05-02T15:51:03.044Z</time></trkpt><trkpt lat="44.0528559" lon="7.709358"><ele>1519.0</ele><time>2026-05-02T15:51:05.044Z</time></trkpt><trkpt lat="44.0528653" lon="7.7094577"><ele>1519.0</ele><time>2026-05-02T15:51:06.044Z</time></trkpt><trkpt lat="44.0528835" lon="7.7095896"><ele>1519.0</ele><time>2026-05-02T15:51:07.044Z</time></trkpt><trkpt lat="44.0528921" lon="7.7097352"><ele>1519.0</ele><time>2026-05-02T15:51:08.045Z</time></trkpt><trkpt lat="44.0529053" lon="7.7098715"><ele>1520.4</ele><time>2026-05-02T15:51:09.044Z</time></trkpt><trkpt lat="44.052896" lon="7.7100126"><ele>1521.8000000000002</ele><time>2026-05-02T15:51:10.044Z</time></trkpt><trkpt lat="44.0528761" lon="7.7101635"><ele>1523.1999999999998</ele><time>2026-05-02T15:51:11.045Z</time></trkpt><trkpt lat="44.0528621" lon="7.710297"><ele>1524.6</ele><time>2026-05-02T15:51:12.044Z</time></trkpt><trkpt lat="44.052832" lon="7.7104322"><ele>1526.0</ele><time>2026-05-02T15:51:13.044Z</time></trkpt><trkpt lat="44.0528014" lon="7.710525"><ele>1526.0</ele><time>2026-05-02T15:51:14.044Z</time></trkpt><trkpt lat="44.0527929" lon="7.7106241"><ele>1526.0</ele><time>2026-05-02T15:51:15.044Z</time></trkpt><trkpt lat="44.0528137" lon="7.7107404"><ele>1526.0</ele><time>2026-05-02T15:51:16.045Z</time></trkpt><trkpt lat="44.05282" lon="7.7108789"><ele>1526.0</ele><time>2026-05-02T15:51:17.044Z</time></trkpt><trkpt lat="44.0528378" lon="7.7110066"><ele>1526.0</ele><time>2026-05-02T15:51:18.045Z</time></trkpt><trkpt lat="44.0528588" lon="7.7111328"><ele>1526.0</ele><time>2026-05-02T15:51:19.044Z</time></trkpt><trkpt lat="44.0528581" lon="7.711313"><ele>1526.0</ele><time>2026-05-02T15:51:21.046Z</time></trkpt><trkpt lat="44.0528315" lon="7.711394"><ele>1526.0</ele><time>2026-05-02T15:51:22.044Z</time></trkpt><trkpt lat="44.0527954" lon="7.7114702"><ele>1526.0</ele><time>2026-05-02T15:51:23.045Z</time></trkpt><trkpt lat="44.0527272" lon="7.7116024"><ele>1526.0</ele><time>2026-05-02T15:51:25.044Z</time></trkpt><trkpt lat="44.052739" lon="7.7117632"><ele>1526.0</ele><time>2026-05-02T15:51:27.044Z</time></trkpt><trkpt lat="44.052732" lon="7.7118716"><ele>1526.0</ele><time>2026-05-02T15:51:28.044Z</time></trkpt><trkpt lat="44.0527416" lon="7.7119748"><ele>1528.3333333333335</ele><time>2026-05-02T15:51:29.045Z</time></trkpt><trkpt lat="44.0527158" lon="7.7120715"><ele>1530.6666666666667</ele><time>2026-05-02T15:51:30.044Z</time></trkpt><trkpt lat="44.0526837" lon="7.7121714"><ele>1533.0</ele><time>2026-05-02T15:51:31.045Z</time></trkpt><trkpt lat="44.0526363" lon="7.7122685"><ele>1535.3333333333335</ele><time>2026-05-02T15:51:32.044Z</time></trkpt><trkpt lat="44.0525691" lon="7.7123524"><ele>1537.6666666666667</ele><time>2026-05-02T15:51:33.044Z</time></trkpt><trkpt lat="44.0525138" lon="7.7124132"><ele>1540.0</ele><time>2026-05-02T15:51:34.045Z</time></trkpt><trkpt lat="44.0524604" lon="7.7124826"><ele>1542.8333333333335</ele><time>2026-05-02T15:51:35.044Z</time></trkpt><trkpt lat="44.052452" lon="7.7125949"><ele>1545.6666666666667</ele><time>2026-05-02T15:51:36.045Z</time></trkpt><trkpt lat="44.0524458" lon="7.7127155"><ele>1548.5</ele><time>2026-05-02T15:51:37.045Z</time></trkpt><trkpt lat="44.0524565" lon="7.7128239"><ele>1551.3333333333335</ele><time>2026-05-02T15:51:38.044Z</time></trkpt><trkpt lat="44.0524595" lon="7.7129256"><ele>1554.1666666666667</ele><time>2026-05-02T15:51:39.044Z</time></trkpt><trkpt lat="44.0524575" lon="7.7130238"><ele>1557.0</ele><time>2026-05-02T15:51:40.044Z</time></trkpt><trkpt lat="44.0524604" lon="7.7131248"><ele>1548.3999999999999</ele><time>2026-05-02T15:51:41.045Z</time></trkpt><trkpt lat="44.0524054" lon="7.713194"><ele>1539.8</ele><time>2026-05-02T15:51:42.044Z</time></trkpt><trkpt lat="44.0522975" lon="7.7133248"><ele>1531.2</ele><time>2026-05-02T15:51:44.044Z</time></trkpt><trkpt lat="44.0522233" lon="7.7133886"><ele>1522.6</ele><time>2026-05-02T15:51:45.045Z</time></trkpt><trkpt lat="44.052147" lon="7.713453"><ele>1514.0</ele><time>2026-05-02T15:51:46.044Z</time></trkpt><trkpt lat="44.0520696" lon="7.7135258"><ele>1517.0</ele><time>2026-05-02T15:51:47.044Z</time></trkpt><trkpt lat="44.051992" lon="7.7135932"><ele>1520.0</ele><time>2026-05-02T15:51:48.044Z</time></trkpt><trkpt lat="44.0519211" lon="7.7136755"><ele>1523.0</ele><time>2026-05-02T15:51:49.045Z</time></trkpt><trkpt lat="44.051844" lon="7.7137635"><ele>1526.0</ele><time>2026-05-02T15:51:50.044Z</time></trkpt><trkpt lat="44.0517729" lon="7.7138461"><ele>1529.0</ele><time>2026-05-02T15:51:51.044Z</time></trkpt><trkpt lat="44.0517231" lon="7.7139216"><ele>1529.0</ele><time>2026-05-02T15:51:52.044Z</time></trkpt><trkpt lat="44.0517021" lon="7.7140128"><ele>1529.0</ele><time>2026-05-02T15:51:53.044Z</time></trkpt><trkpt lat="44.0517" lon="7.7141481"><ele>1529.0</ele><time>2026-05-02T15:51:55.045Z</time></trkpt><trkpt lat="44.0517427" lon="7.7142301"><ele>1529.0</ele><time>2026-05-02T15:51:56.044Z</time></trkpt><trkpt lat="44.0518209" lon="7.7142861"><ele>1529.0</ele><time>2026-05-02T15:51:57.044Z</time></trkpt><trkpt lat="44.0518907" lon="7.7143313"><ele>1529.0</ele><time>2026-05-02T15:51:58.044Z</time></trkpt><trkpt lat="44.0519698" lon="7.7143859"><ele>1522.4</ele><time>2026-05-02T15:51:59.044Z</time></trkpt><trkpt lat="44.0520456" lon="7.7144382"><ele>1515.8000000000002</ele><time>2026-05-02T15:52:00.044Z</time></trkpt><trkpt lat="44.0521217" lon="7.7145543"><ele>1509.1999999999998</ele><time>2026-05-02T15:52:01.044Z</time></trkpt><trkpt lat="44.0521845" lon="7.7146161"><ele>1502.6</ele><time>2026-05-02T15:52:02.045Z</time></trkpt><trkpt lat="44.0522685" lon="7.7146814"><ele>1496.0</ele><time>2026-05-02T15:52:03.044Z</time></trkpt><trkpt lat="44.0523575" lon="7.7147358"><ele>1508.0</ele><time>2026-05-02T15:52:04.044Z</time></trkpt><trkpt lat="44.0524751" lon="7.7147941"><ele>1520.0</ele><time>2026-05-02T15:52:05.044Z</time></trkpt><trkpt lat="44.0525862" lon="7.7148609"><ele>1532.0</ele><time>2026-05-02T15:52:06.044Z</time></trkpt><trkpt lat="44.0526875" lon="7.7149269"><ele>1544.0</ele><time>2026-05-02T15:52:07.044Z</time></trkpt><trkpt lat="44.0528057" lon="7.714988"><ele>1544.0</ele><time>2026-05-02T15:52:08.044Z</time></trkpt><trkpt lat="44.0528992" lon="7.7150514"><ele>1544.0</ele><time>2026-05-02T15:52:09.044Z</time></trkpt><trkpt lat="44.0529935" lon="7.7151163"><ele>1544.0</ele><time>2026-05-02T15:52:10.045Z</time></trkpt><trkpt lat="44.0530663" lon="7.7151829"><ele>1544.0</ele><time>2026-05-02T15:52:11.045Z</time></trkpt><trkpt lat="44.053149" lon="7.7152422"><ele>1544.0</ele><time>2026-05-02T15:52:12.045Z</time></trkpt><trkpt lat="44.0532241" lon="7.7153219"><ele>1541.857142857143</ele><time>2026-05-02T15:52:13.044Z</time></trkpt><trkpt lat="44.0532924" lon="7.715369"><ele>1539.7142857142858</ele><time>2026-05-02T15:52:14.044Z</time></trkpt><trkpt lat="44.0533645" lon="7.715391"><ele>1537.5714285714284</ele><time>2026-05-02T15:52:15.044Z</time></trkpt><trkpt lat="44.053445" lon="7.7153829"><ele>1535.4285714285716</ele><time>2026-05-02T15:52:16.045Z</time></trkpt><trkpt lat="44.0535116" lon="7.7153858"><ele>1533.2857142857142</ele><time>2026-05-02T15:52:17.045Z</time></trkpt><trkpt lat="44.0535862" lon="7.7153855"><ele>1531.142857142857</ele><time>2026-05-02T15:52:18.044Z</time></trkpt><trkpt lat="44.05366" lon="7.7153856"><ele>1529.0</ele><time>2026-05-02T15:52:19.044Z</time></trkpt><trkpt lat="44.0544969" lon="7.7187169"><ele>1525.8000000000002</ele><time>2026-05-02T15:53:14.044Z</time></trkpt><trkpt lat="44.0545204" lon="7.7189312"><ele>1522.6000000000001</ele><time>2026-05-02T15:53:16.045Z</time></trkpt><trkpt lat="44.054518" lon="7.7190495"><ele>1519.4</ele><time>2026-05-02T15:53:17.044Z</time></trkpt><trkpt lat="44.0544871" lon="7.7191631"><ele>1516.2</ele><time>2026-05-02T15:53:18.044Z</time></trkpt><trkpt lat="44.0545162" lon="7.7193032"><ele>1513.0</ele><time>2026-05-02T15:53:19.044Z</time></trkpt><trkpt lat="44.054551" lon="7.7194723"><ele>1510.6000000000001</ele><time>2026-05-02T15:53:20.044Z</time></trkpt><trkpt lat="44.0545895" lon="7.7195906"><ele>1508.2</ele><time>2026-05-02T15:53:21.044Z</time></trkpt><trkpt lat="44.054614" lon="7.7197365"><ele>1505.8</ele><time>2026-05-02T15:53:22.044Z</time></trkpt><trkpt lat="44.0546555" lon="7.719851"><ele>1503.4</ele><time>2026-05-02T15:53:23.044Z</time></trkpt><trkpt lat="44.054678" lon="7.7199637"><ele>1501.0</ele><time>2026-05-02T15:53:24.044Z</time></trkpt><trkpt lat="44.0546915" lon="7.7200818"><ele>1501.0</ele><time>2026-05-02T15:53:25.044Z</time></trkpt><trkpt lat="44.0547098" lon="7.7201818"><ele>1501.0</ele><time>2026-05-02T15:53:26.044Z</time></trkpt><trkpt lat="44.0547122" lon="7.7202842"><ele>1501.0</ele><time>2026-05-02T15:53:27.044Z</time></trkpt><trkpt lat="44.0546884" lon="7.7203906"><ele>1501.0</ele><time>2026-05-02T15:53:28.044Z</time></trkpt><trkpt lat="44.0546633" lon="7.72048"><ele>1501.0</ele><time>2026-05-02T15:53:29.045Z</time></trkpt><trkpt lat="44.0545685" lon="7.720573"><ele>1501.0</ele><time>2026-05-02T15:53:31.044Z</time></trkpt><trkpt lat="44.0545125" lon="7.7206153"><ele>1498.6666666666665</ele><time>2026-05-02T15:53:32.044Z</time></trkpt><trkpt lat="44.0544434" lon="7.7206536"><ele>1496.3333333333333</ele><time>2026-05-02T15:53:33.045Z</time></trkpt><trkpt lat="44.0543751" lon="7.7207058"><ele>1494.0</ele><time>2026-05-02T15:53:34.044Z</time></trkpt><trkpt lat="44.0543108" lon="7.7207711"><ele>1491.6666666666667</ele><time>2026-05-02T15:53:35.044Z</time></trkpt><trkpt lat="44.0542435" lon="7.7208549"><ele>1489.3333333333335</ele><time>2026-05-02T15:53:36.044Z</time></trkpt><trkpt lat="44.0541738" lon="7.7209314"><ele>1487.0</ele><time>2026-05-02T15:53:37.045Z</time></trkpt><trkpt lat="44.0540926" lon="7.7210339"><ele>1492.3999999999999</ele><time>2026-05-02T15:53:38.044Z</time></trkpt><trkpt lat="44.0540057" lon="7.7211118"><ele>1497.8</ele><time>2026-05-02T15:53:39.045Z</time></trkpt><trkpt lat="44.0539279" lon="7.7211879"><ele>1503.2</ele><time>2026-05-02T15:53:40.044Z</time></trkpt><trkpt lat="44.0538508" lon="7.7212639"><ele>1508.6</ele><time>2026-05-02T15:53:41.044Z</time></trkpt><trkpt lat="44.0537727" lon="7.7213268"><ele>1514.0</ele><time>2026-05-02T15:53:42.044Z</time></trkpt><trkpt lat="44.0536845" lon="7.7213917"><ele>1514.0</ele><time>2026-05-02T15:53:43.044Z</time></trkpt><trkpt lat="44.0535965" lon="7.7214576"><ele>1514.0</ele><time>2026-05-02T15:53:44.045Z</time></trkpt><trkpt lat="44.0535224" lon="7.7215113"><ele>1514.0</ele><time>2026-05-02T15:53:45.044Z</time></trkpt><trkpt lat="44.0534452" lon="7.7215728"><ele>1514.0</ele><time>2026-05-02T15:53:46.044Z</time></trkpt><trkpt lat="44.0533828" lon="7.7216308"><ele>1514.0</ele><time>2026-05-02T15:53:47.044Z</time></trkpt><trkpt lat="44.0533414" lon="7.7217666"><ele>1511.6</ele><time>2026-05-02T15:53:49.045Z</time></trkpt><trkpt lat="44.0533993" lon="7.7219504"><ele>1509.2</ele><time>2026-05-02T15:53:51.044Z</time></trkpt><trkpt lat="44.053433" lon="7.7220524"><ele>1506.8</ele><time>2026-05-02T15:53:52.044Z</time></trkpt><trkpt lat="44.053494" lon="7.7221862"><ele>1504.3999999999999</ele><time>2026-05-02T15:53:53.044Z</time></trkpt><trkpt lat="44.0535425" lon="7.7223191"><ele>1502.0</ele><time>2026-05-02T15:53:54.044Z</time></trkpt><trkpt lat="44.0535895" lon="7.7224484"><ele>1502.0</ele><time>2026-05-02T15:53:55.044Z</time></trkpt><trkpt lat="44.0536325" lon="7.7225667"><ele>1502.0</ele><time>2026-05-02T15:53:56.044Z</time></trkpt><trkpt lat="44.0536924" lon="7.7227292"><ele>1502.0</ele><time>2026-05-02T15:53:57.044Z</time></trkpt><trkpt lat="44.0537348" lon="7.7228162"><ele>1502.0</ele><time>2026-05-02T15:53:58.044Z</time></trkpt><trkpt lat="44.0537892" lon="7.7229034"><ele>1502.0</ele><time>2026-05-02T15:53:59.044Z</time></trkpt><trkpt lat="44.0538602" lon="7.7229962"><ele>1499.0</ele><time>2026-05-02T15:54:00.044Z</time></trkpt><trkpt lat="44.0539321" lon="7.723076"><ele>1496.0</ele><time>2026-05-02T15:54:01.044Z</time></trkpt><trkpt lat="44.0539896" lon="7.7231508"><ele>1493.0</ele><time>2026-05-02T15:54:02.044Z</time></trkpt><trkpt lat="44.0540275" lon="7.7232234"><ele>1490.0</ele><time>2026-05-02T15:54:03.045Z</time></trkpt><trkpt lat="44.0540437" lon="7.7233821"><ele>1487.0</ele><time>2026-05-02T15:54:05.044Z</time></trkpt><trkpt lat="44.0540331" lon="7.7234698"><ele>1484.0</ele><time>2026-05-02T15:54:06.044Z</time></trkpt><trkpt lat="44.0540054" lon="7.7235554"><ele>1482.8333333333335</ele><time>2026-05-02T15:54:07.044Z</time></trkpt><trkpt lat="44.0539658" lon="7.7236595"><ele>1481.6666666666667</ele><time>2026-05-02T15:54:08.044Z</time></trkpt><trkpt lat="44.0539292" lon="7.7237779"><ele>1480.5</ele><time>2026-05-02T15:54:09.044Z</time></trkpt><trkpt lat="44.0538957" lon="7.7238866"><ele>1479.3333333333333</ele><time>2026-05-02T15:54:10.044Z</time></trkpt><trkpt lat="44.0538571" lon="7.723982"><ele>1478.1666666666665</ele><time>2026-05-02T15:54:11.044Z</time></trkpt><trkpt lat="44.0538328" lon="7.7240954"><ele>1477.0</ele><time>2026-05-02T15:54:12.044Z</time></trkpt><trkpt lat="44.0538197" lon="7.7242335"><ele>1477.0</ele><time>2026-05-02T15:54:13.044Z</time></trkpt><trkpt lat="44.0538204" lon="7.7243636"><ele>1477.0</ele><time>2026-05-02T15:54:14.046Z</time></trkpt><trkpt lat="44.0538227" lon="7.7245033"><ele>1477.0</ele><time>2026-05-02T15:54:15.044Z</time></trkpt><trkpt lat="44.0538181" lon="7.7246537"><ele>1477.0</ele><time>2026-05-02T15:54:16.044Z</time></trkpt><trkpt lat="44.0538227" lon="7.724774"><ele>1477.0</ele><time>2026-05-02T15:54:17.045Z</time></trkpt><trkpt lat="44.0538738" lon="7.7251148"><ele>1478.1999999999998</ele><time>2026-05-02T15:54:19.968Z</time></trkpt><trkpt lat="44.0539109" lon="7.7253042"><ele>1479.4</ele><time>2026-05-02T15:54:21.045Z</time></trkpt><trkpt lat="44.0539488" lon="7.7254475"><ele>1480.6</ele><time>2026-05-02T15:54:22.044Z</time></trkpt><trkpt lat="44.0539798" lon="7.7255691"><ele>1481.8000000000002</ele><time>2026-05-02T15:54:23.044Z</time></trkpt><trkpt lat="44.0540075" lon="7.7256637"><ele>1483.0</ele><time>2026-05-02T15:54:24.045Z</time></trkpt><trkpt lat="44.0540439" lon="7.7258567"><ele>1483.0</ele><time>2026-05-02T15:54:26.044Z</time></trkpt><trkpt lat="44.0540446" lon="7.7259628"><ele>1483.0</ele><time>2026-05-02T15:54:27.044Z</time></trkpt><trkpt lat="44.053982" lon="7.7260578"><ele>1483.0</ele><time>2026-05-02T15:54:30.045Z</time></trkpt><trkpt lat="44.0539086" lon="7.7261159"><ele>1483.0</ele><time>2026-05-02T15:54:32.044Z</time></trkpt><trkpt lat="44.053816" lon="7.7261542"><ele>1483.0</ele><time>2026-05-02T15:54:34.044Z</time></trkpt><trkpt lat="44.0537216" lon="7.7261525"><ele>1483.0</ele><time>2026-05-02T15:54:36.044Z</time></trkpt><trkpt lat="44.0535805" lon="7.7261272"><ele>1484.8000000000002</ele><time>2026-05-02T15:54:38.044Z</time></trkpt><trkpt lat="44.0535061" lon="7.7261488"><ele>1486.6</ele><time>2026-05-02T15:54:39.044Z</time></trkpt><trkpt lat="44.0534155" lon="7.7261713"><ele>1488.4</ele><time>2026-05-02T15:54:40.045Z</time></trkpt><trkpt lat="44.0533224" lon="7.726203"><ele>1490.1999999999998</ele><time>2026-05-02T15:54:41.044Z</time></trkpt><trkpt lat="44.053223" lon="7.7262376"><ele>1492.0</ele><time>2026-05-02T15:54:42.044Z</time></trkpt><trkpt lat="44.0531206" lon="7.7262715"><ele>1492.0</ele><time>2026-05-02T15:54:43.045Z</time></trkpt><trkpt lat="44.0530213" lon="7.726288"><ele>1492.0</ele><time>2026-05-02T15:54:44.044Z</time></trkpt><trkpt lat="44.0529448" lon="7.7263156"><ele>1492.0</ele><time>2026-05-02T15:54:45.044Z</time></trkpt><trkpt lat="44.052854" lon="7.7263455"><ele>1492.0</ele><time>2026-05-02T15:54:46.044Z</time></trkpt><trkpt lat="44.0527769" lon="7.7263625"><ele>1492.0</ele><time>2026-05-02T15:54:47.044Z</time></trkpt><trkpt lat="44.0526878" lon="7.7263734"><ele>1492.0</ele><time>2026-05-02T15:54:48.044Z</time></trkpt><trkpt lat="44.0526128" lon="7.7263959"><ele>1492.0</ele><time>2026-05-02T15:54:49.044Z</time></trkpt><trkpt lat="44.0525497" lon="7.7264348"><ele>1492.0</ele><time>2026-05-02T15:54:50.044Z</time></trkpt><trkpt lat="44.052484" lon="7.7265086"><ele>1492.0</ele><time>2026-05-02T15:54:51.044Z</time></trkpt><trkpt lat="44.052423" lon="7.7266003"><ele>1492.0</ele><time>2026-05-02T15:54:52.044Z</time></trkpt><trkpt lat="44.0523694" lon="7.7266832"><ele>1492.0</ele><time>2026-05-02T15:54:53.045Z</time></trkpt><trkpt lat="44.0522842" lon="7.7267615"><ele>1492.0</ele><time>2026-05-02T15:54:54.044Z</time></trkpt><trkpt lat="44.0522041" lon="7.7268193"><ele>1485.8333333333333</ele><time>2026-05-02T15:54:55.044Z</time></trkpt><trkpt lat="44.0521344" lon="7.7269037"><ele>1479.6666666666665</ele><time>2026-05-02T15:54:56.044Z</time></trkpt><trkpt lat="44.0520892" lon="7.7269768"><ele>1473.5</ele><time>2026-05-02T15:54:57.044Z</time></trkpt><trkpt lat="44.0520542" lon="7.7270593"><ele>1467.3333333333333</ele><time>2026-05-02T15:54:58.044Z</time></trkpt><trkpt lat="44.0520099" lon="7.7272247"><ele>1461.1666666666667</ele><time>2026-05-02T15:55:00.045Z</time></trkpt><trkpt lat="44.0520005" lon="7.7273252"><ele>1455.0</ele><time>2026-05-02T15:55:01.044Z</time></trkpt><trkpt lat="44.0520024" lon="7.7274433"><ele>1455.0</ele><time>2026-05-02T15:55:02.045Z</time></trkpt><trkpt lat="44.0519961" lon="7.7275563"><ele>1455.0</ele><time>2026-05-02T15:55:03.044Z</time></trkpt><trkpt lat="44.0520054" lon="7.7276707"><ele>1455.0</ele><time>2026-05-02T15:55:04.044Z</time></trkpt><trkpt lat="44.0520251" lon="7.7277737"><ele>1455.0</ele><time>2026-05-02T15:55:05.044Z</time></trkpt><trkpt lat="44.0520564" lon="7.7279021"><ele>1455.0</ele><time>2026-05-02T15:55:06.045Z</time></trkpt><trkpt lat="44.0520897" lon="7.7280002"><ele>1455.0</ele><time>2026-05-02T15:55:07.045Z</time></trkpt><trkpt lat="44.0521351" lon="7.728088"><ele>1455.8</ele><time>2026-05-02T15:55:08.044Z</time></trkpt><trkpt lat="44.0521702" lon="7.7281701"><ele>1456.6</ele><time>2026-05-02T15:55:09.045Z</time></trkpt><trkpt lat="44.0521918" lon="7.7283276"><ele>1457.4</ele><time>2026-05-02T15:55:11.044Z</time></trkpt><trkpt lat="44.0522098" lon="7.7284182"><ele>1458.2</ele><time>2026-05-02T15:55:12.045Z</time></trkpt><trkpt lat="44.0522356" lon="7.7285679"><ele>1459.0</ele><time>2026-05-02T15:55:14.044Z</time></trkpt><trkpt lat="44.0521667" lon="7.7286875"><ele>1463.3333333333333</ele><time>2026-05-02T15:55:16.044Z</time></trkpt><trkpt lat="44.0520617" lon="7.7287644"><ele>1467.6666666666665</ele><time>2026-05-02T15:55:18.046Z</time></trkpt><trkpt lat="44.05197" lon="7.7288071"><ele>1472.0</ele><time>2026-05-02T15:55:19.045Z</time></trkpt><trkpt lat="44.0518962" lon="7.7288373"><ele>1476.3333333333333</ele><time>2026-05-02T15:55:20.045Z</time></trkpt><trkpt lat="44.0518231" lon="7.7288639"><ele>1480.6666666666667</ele><time>2026-05-02T15:55:21.044Z</time></trkpt><trkpt lat="44.051756" lon="7.7289049"><ele>1485.0</ele><time>2026-05-02T15:55:22.044Z</time></trkpt><trkpt lat="44.0516812" lon="7.7289672"><ele>1485.0</ele><time>2026-05-02T15:55:23.044Z</time></trkpt><trkpt lat="44.0516367" lon="7.7290451"><ele>1485.0</ele><time>2026-05-02T15:55:24.045Z</time></trkpt><trkpt lat="44.051576" lon="7.7291138"><ele>1485.0</ele><time>2026-05-02T15:55:25.044Z</time></trkpt><trkpt lat="44.051505" lon="7.7291463"><ele>1485.0</ele><time>2026-05-02T15:55:26.044Z</time></trkpt><trkpt lat="44.0514259" lon="7.7291737"><ele>1485.0</ele><time>2026-05-02T15:55:27.044Z</time></trkpt><trkpt lat="44.0513399" lon="7.7291753"><ele>1485.0</ele><time>2026-05-02T15:55:28.044Z</time></trkpt><trkpt lat="44.0512575" lon="7.7291824"><ele>1481.0</ele><time>2026-05-02T15:55:29.044Z</time></trkpt><trkpt lat="44.0511644" lon="7.729186"><ele>1477.0</ele><time>2026-05-02T15:55:30.044Z</time></trkpt><trkpt lat="44.0510721" lon="7.7291848"><ele>1473.0</ele><time>2026-05-02T15:55:31.044Z</time></trkpt><trkpt lat="44.0509691" lon="7.7292142"><ele>1469.0</ele><time>2026-05-02T15:55:32.044Z</time></trkpt><trkpt lat="44.0508852" lon="7.7292469"><ele>1465.0</ele><time>2026-05-02T15:55:33.044Z</time></trkpt><trkpt lat="44.0507992" lon="7.7292813"><ele>1464.0</ele><time>2026-05-02T15:55:34.044Z</time></trkpt><trkpt lat="44.0506971" lon="7.7293139"><ele>1463.0</ele><time>2026-05-02T15:55:35.044Z</time></trkpt><trkpt lat="44.0506426" lon="7.7293671"><ele>1462.0</ele><time>2026-05-02T15:55:36.044Z</time></trkpt><trkpt lat="44.0505787" lon="7.7294127"><ele>1461.0</ele><time>2026-05-02T15:55:37.044Z</time></trkpt><trkpt lat="44.0504921" lon="7.7294554"><ele>1460.0</ele><time>2026-05-02T15:55:38.044Z</time></trkpt><trkpt lat="44.0503742" lon="7.7294351"><ele>1469.25</ele><time>2026-05-02T15:55:39.044Z</time></trkpt><trkpt lat="44.0502892" lon="7.729449"><ele>1478.5</ele><time>2026-05-02T15:55:40.044Z</time></trkpt><trkpt lat="44.0501729" lon="7.729446"><ele>1487.75</ele><time>2026-05-02T15:55:41.044Z</time></trkpt><trkpt lat="44.0500371" lon="7.7294412"><ele>1497.0</ele><time>2026-05-02T15:55:42.044Z</time></trkpt><trkpt lat="44.0499211" lon="7.7294262"><ele>1497.0</ele><time>2026-05-02T15:55:43.045Z</time></trkpt><trkpt lat="44.0498284" lon="7.7294367"><ele>1497.0</ele><time>2026-05-02T15:55:44.044Z</time></trkpt><trkpt lat="44.0497328" lon="7.729447"><ele>1497.0</ele><time>2026-05-02T15:55:45.044Z</time></trkpt><trkpt lat="44.0496268" lon="7.7294412"><ele>1497.0</ele><time>2026-05-02T15:55:46.044Z</time></trkpt><trkpt lat="44.0495463" lon="7.7293907"><ele>1497.0</ele><time>2026-05-02T15:55:47.044Z</time></trkpt><trkpt lat="44.0494589" lon="7.7293272"><ele>1491.6666666666667</ele><time>2026-05-02T15:55:48.044Z</time></trkpt><trkpt lat="44.0493985" lon="7.7292516"><ele>1486.3333333333333</ele><time>2026-05-02T15:55:49.044Z</time></trkpt><trkpt lat="44.0493375" lon="7.7291919"><ele>1481.0</ele><time>2026-05-02T15:55:50.045Z</time></trkpt><trkpt lat="44.0492722" lon="7.7291379"><ele>1475.6666666666665</ele><time>2026-05-02T15:55:51.044Z</time></trkpt><trkpt lat="44.0492111" lon="7.729108"><ele>1470.3333333333333</ele><time>2026-05-02T15:55:52.045Z</time></trkpt><trkpt lat="44.0491097" lon="7.7291002"><ele>1465.0</ele><time>2026-05-02T15:55:54.044Z</time></trkpt><trkpt lat="44.0490366" lon="7.7291287"><ele>1461.6666666666665</ele><time>2026-05-02T15:55:55.046Z</time></trkpt><trkpt lat="44.0489475" lon="7.729195"><ele>1458.3333333333333</ele><time>2026-05-02T15:55:56.045Z</time></trkpt><trkpt lat="44.0488867" lon="7.7292471"><ele>1455.0</ele><time>2026-05-02T15:55:57.046Z</time></trkpt><trkpt lat="44.0488129" lon="7.7292556"><ele>1451.6666666666667</ele><time>2026-05-02T15:55:58.045Z</time></trkpt><trkpt lat="44.0487202" lon="7.729246"><ele>1448.3333333333335</ele><time>2026-05-02T15:56:00.046Z</time></trkpt><trkpt lat="44.0486572" lon="7.7292156"><ele>1445.0</ele><time>2026-05-02T15:56:01.046Z</time></trkpt><trkpt lat="44.0485944" lon="7.7291999"><ele>1445.0</ele><time>2026-05-02T15:56:02.045Z</time></trkpt><trkpt lat="44.0485277" lon="7.7291609"><ele>1445.0</ele><time>2026-05-02T15:56:03.046Z</time></trkpt><trkpt lat="44.0484195" lon="7.7290698"><ele>1445.0</ele><time>2026-05-02T15:56:05.045Z</time></trkpt><trkpt lat="44.0483245" lon="7.7290519"><ele>1445.0</ele><time>2026-05-02T15:56:07.045Z</time></trkpt><trkpt lat="44.0482428" lon="7.7291695"><ele>1445.0</ele><time>2026-05-02T15:56:09.045Z</time></trkpt><trkpt lat="44.0482055" lon="7.7292508"><ele>1436.0</ele><time>2026-05-02T15:56:10.045Z</time></trkpt><trkpt lat="44.0482073" lon="7.7293983"><ele>1427.0</ele><time>2026-05-02T15:56:11.045Z</time></trkpt><trkpt lat="44.0481879" lon="7.7295358"><ele>1418.0</ele><time>2026-05-02T15:56:12.045Z</time></trkpt><trkpt lat="44.0481784" lon="7.7296844"><ele>1409.0</ele><time>2026-05-02T15:56:13.045Z</time></trkpt><trkpt lat="44.0481711" lon="7.7298288"><ele>1400.0</ele><time>2026-05-02T15:56:14.045Z</time></trkpt><trkpt lat="44.0481702" lon="7.7299662"><ele>1400.0</ele><time>2026-05-02T15:56:15.045Z</time></trkpt><trkpt lat="44.0481667" lon="7.7300973"><ele>1400.0</ele><time>2026-05-02T15:56:16.045Z</time></trkpt><trkpt lat="44.0481522" lon="7.7302123"><ele>1400.0</ele><time>2026-05-02T15:56:17.046Z</time></trkpt><trkpt lat="44.0481013" lon="7.7303023"><ele>1400.0</ele><time>2026-05-02T15:56:18.046Z</time></trkpt><trkpt lat="44.048121" lon="7.7303996"><ele>1400.0</ele><time>2026-05-02T15:56:19.045Z</time></trkpt><trkpt lat="44.0481537" lon="7.7304789"><ele>1400.0</ele><time>2026-05-02T15:56:20.045Z</time></trkpt><trkpt lat="44.0481902" lon="7.7305609"><ele>1399.8</ele><time>2026-05-02T15:56:21.045Z</time></trkpt><trkpt lat="44.0482681" lon="7.7306449"><ele>1399.6</ele><time>2026-05-02T15:56:22.045Z</time></trkpt><trkpt lat="44.0483267" lon="7.7307479"><ele>1399.4</ele><time>2026-05-02T15:56:23.045Z</time></trkpt><trkpt lat="44.0483876" lon="7.7308487"><ele>1399.2</ele><time>2026-05-02T15:56:24.045Z</time></trkpt><trkpt lat="44.0484515" lon="7.7309459"><ele>1399.0</ele><time>2026-05-02T15:56:25.045Z</time></trkpt><trkpt lat="44.048505" lon="7.731051"><ele>1406.5</ele><time>2026-05-02T15:56:26.045Z</time></trkpt><trkpt lat="44.0485582" lon="7.7311664"><ele>1414.0</ele><time>2026-05-02T15:56:27.045Z</time></trkpt><trkpt lat="44.0485876" lon="7.7312816"><ele>1421.5</ele><time>2026-05-02T15:56:28.045Z</time></trkpt><trkpt lat="44.0485892" lon="7.7314068"><ele>1429.0</ele><time>2026-05-02T15:56:29.045Z</time></trkpt><trkpt lat="44.0486223" lon="7.7314872"><ele>1436.5</ele><time>2026-05-02T15:56:30.045Z</time></trkpt><trkpt lat="44.0486509" lon="7.7316091"><ele>1444.0</ele><time>2026-05-02T15:56:31.046Z</time></trkpt><trkpt lat="44.0486397" lon="7.7317079"><ele>1444.0</ele><time>2026-05-02T15:56:32.046Z</time></trkpt><trkpt lat="44.0486113" lon="7.7317867"><ele>1444.0</ele><time>2026-05-02T15:56:33.045Z</time></trkpt><trkpt lat="44.0485297" lon="7.7319191"><ele>1444.0</ele><time>2026-05-02T15:56:35.046Z</time></trkpt><trkpt lat="44.0484756" lon="7.7319965"><ele>1444.0</ele><time>2026-05-02T15:56:36.045Z</time></trkpt><trkpt lat="44.0484157" lon="7.7320895"><ele>1444.0</ele><time>2026-05-02T15:56:37.046Z</time></trkpt><trkpt lat="44.048359" lon="7.7321547"><ele>1444.0</ele><time>2026-05-02T15:56:38.045Z</time></trkpt><trkpt lat="44.0482848" lon="7.7322163"><ele>1443.3333333333333</ele><time>2026-05-02T15:56:39.045Z</time></trkpt><trkpt lat="44.0481639" lon="7.7322689"><ele>1442.6666666666665</ele><time>2026-05-02T15:56:41.045Z</time></trkpt><trkpt lat="44.0481113" lon="7.732319"><ele>1442.0</ele><time>2026-05-02T15:56:42.045Z</time></trkpt><trkpt lat="44.048066" lon="7.7323834"><ele>1441.3333333333333</ele><time>2026-05-02T15:56:43.045Z</time></trkpt><trkpt lat="44.0480297" lon="7.732476"><ele>1440.6666666666667</ele><time>2026-05-02T15:56:44.046Z</time></trkpt><trkpt lat="44.0479987" lon="7.7325589"><ele>1440.0</ele><time>2026-05-02T15:56:45.045Z</time></trkpt><trkpt lat="44.0479787" lon="7.7326609"><ele>1446.1666666666667</ele><time>2026-05-02T15:56:46.045Z</time></trkpt><trkpt lat="44.0479558" lon="7.7327471"><ele>1452.3333333333333</ele><time>2026-05-02T15:56:47.045Z</time></trkpt><trkpt lat="44.0479111" lon="7.7328145"><ele>1458.5</ele><time>2026-05-02T15:56:48.046Z</time></trkpt><trkpt lat="44.0478233" lon="7.7328064"><ele>1464.6666666666665</ele><time>2026-05-02T15:56:49.045Z</time></trkpt><trkpt lat="44.0477489" lon="7.7328101"><ele>1470.8333333333333</ele><time>2026-05-02T15:56:50.045Z</time></trkpt><trkpt lat="44.0476649" lon="7.7328208"><ele>1477.0</ele><time>2026-05-02T15:56:51.045Z</time></trkpt><trkpt lat="44.0475757" lon="7.7328459"><ele>1477.0</ele><time>2026-05-02T15:56:52.046Z</time></trkpt><trkpt lat="44.0474871" lon="7.7328969"><ele>1477.0</ele><time>2026-05-02T15:56:53.046Z</time></trkpt><trkpt lat="44.0474" lon="7.7329641"><ele>1477.0</ele><time>2026-05-02T15:56:54.046Z</time></trkpt><trkpt lat="44.0473231" lon="7.7330419"><ele>1477.0</ele><time>2026-05-02T15:56:55.045Z</time></trkpt><trkpt lat="44.047257" lon="7.7331258"><ele>1477.0</ele><time>2026-05-02T15:56:56.046Z</time></trkpt><trkpt lat="44.047184" lon="7.7332114"><ele>1474.8333333333333</ele><time>2026-05-02T15:56:57.045Z</time></trkpt><trkpt lat="44.0471309" lon="7.7332847"><ele>1472.6666666666665</ele><time>2026-05-02T15:56:58.046Z</time></trkpt><trkpt lat="44.0470639" lon="7.7333587"><ele>1470.5</ele><time>2026-05-02T15:56:59.045Z</time></trkpt><trkpt lat="44.0469938" lon="7.7333959"><ele>1468.3333333333333</ele><time>2026-05-02T15:57:00.045Z</time></trkpt><trkpt lat="44.0469213" lon="7.7334081"><ele>1466.1666666666667</ele><time>2026-05-02T15:57:01.045Z</time></trkpt><trkpt lat="44.0468518" lon="7.7334211"><ele>1464.0</ele><time>2026-05-02T15:57:02.045Z</time></trkpt><trkpt lat="44.0467439" lon="7.7334391"><ele>1464.0</ele><time>2026-05-02T15:57:03.045Z</time></trkpt><trkpt lat="44.0466627" lon="7.7334643"><ele>1464.0</ele><time>2026-05-02T15:57:04.045Z</time></trkpt><trkpt lat="44.0465883" lon="7.7334817"><ele>1464.0</ele><time>2026-05-02T15:57:05.045Z</time></trkpt><trkpt lat="44.0464925" lon="7.7333792"><ele>1464.0</ele><time>2026-05-02T15:57:06.045Z</time></trkpt><trkpt lat="44.0463816" lon="7.7333065"><ele>1464.0</ele><time>2026-05-02T15:57:07.045Z</time></trkpt><trkpt lat="44.0462686" lon="7.7332347"><ele>1468.0</ele><time>2026-05-02T15:57:08.045Z</time></trkpt><trkpt lat="44.0461737" lon="7.7331695"><ele>1472.0</ele><time>2026-05-02T15:57:09.046Z</time></trkpt><trkpt lat="44.0460679" lon="7.7331044"><ele>1476.0</ele><time>2026-05-02T15:57:10.046Z</time></trkpt><trkpt lat="44.0459641" lon="7.7330535"><ele>1480.0</ele><time>2026-05-02T15:57:11.045Z</time></trkpt><trkpt lat="44.0458701" lon="7.7330038"><ele>1484.0</ele><time>2026-05-02T15:57:12.045Z</time></trkpt><trkpt lat="44.0457636" lon="7.7329515"><ele>1486.6</ele><time>2026-05-02T15:57:13.045Z</time></trkpt><trkpt lat="44.0456574" lon="7.732912"><ele>1489.2</ele><time>2026-05-02T15:57:14.046Z</time></trkpt><trkpt lat="44.045557" lon="7.7328788"><ele>1491.8</ele><time>2026-05-02T15:57:15.046Z</time></trkpt><trkpt lat="44.0454556" lon="7.7328595"><ele>1494.3999999999999</ele><time>2026-05-02T15:57:16.045Z</time></trkpt><trkpt lat="44.0453483" lon="7.7328141"><ele>1497.0</ele><time>2026-05-02T15:57:17.045Z</time></trkpt><trkpt lat="44.0452412" lon="7.7327739"><ele>1497.0</ele><time>2026-05-02T15:57:18.046Z</time></trkpt><trkpt lat="44.0451488" lon="7.7327368"><ele>1497.0</ele><time>2026-05-02T15:57:19.045Z</time></trkpt><trkpt lat="44.0450625" lon="7.7327021"><ele>1497.0</ele><time>2026-05-02T15:57:20.045Z</time></trkpt><trkpt lat="44.0449621" lon="7.732661"><ele>1497.0</ele><time>2026-05-02T15:57:21.046Z</time></trkpt><trkpt lat="44.0448997" lon="7.7326015"><ele>1497.0</ele><time>2026-05-02T15:57:22.046Z</time></trkpt><trkpt lat="44.0448289" lon="7.7325711"><ele>1497.0</ele><time>2026-05-02T15:57:23.045Z</time></trkpt><trkpt lat="44.0447486" lon="7.7325554"><ele>1494.1999999999998</ele><time>2026-05-02T15:57:24.045Z</time></trkpt><trkpt lat="44.0446711" lon="7.7325346"><ele>1491.4</ele><time>2026-05-02T15:57:25.045Z</time></trkpt><trkpt lat="44.0445989" lon="7.7325154"><ele>1488.6</ele><time>2026-05-02T15:57:26.045Z</time></trkpt><trkpt lat="44.0445259" lon="7.7326583"><ele>1485.8000000000002</ele><time>2026-05-02T15:57:27.046Z</time></trkpt><trkpt lat="44.0444341" lon="7.7327573"><ele>1483.0</ele><time>2026-05-02T15:57:28.045Z</time></trkpt><trkpt lat="44.0443434" lon="7.7328761"><ele>1483.0</ele><time>2026-05-02T15:57:29.045Z</time></trkpt><trkpt lat="44.0442351" lon="7.732978"><ele>1483.0</ele><time>2026-05-02T15:57:30.045Z</time></trkpt><trkpt lat="44.0439769" lon="7.7332101"><ele>1483.0</ele><time>2026-05-02T15:57:33.964Z</time></trkpt><trkpt lat="44.0438514" lon="7.7332431"><ele>1479.8000000000002</ele><time>2026-05-02T15:57:35.044Z</time></trkpt><trkpt lat="44.0437489" lon="7.7332344"><ele>1476.6</ele><time>2026-05-02T15:57:36.045Z</time></trkpt><trkpt lat="44.0436585" lon="7.7332277"><ele>1473.4</ele><time>2026-05-02T15:57:37.045Z</time></trkpt><trkpt lat="44.0435591" lon="7.7332265"><ele>1470.1999999999998</ele><time>2026-05-02T15:57:38.044Z</time></trkpt><trkpt lat="44.0434596" lon="7.7332226"><ele>1467.0</ele><time>2026-05-02T15:57:39.045Z</time></trkpt><trkpt lat="44.0433627" lon="7.7332177"><ele>1462.8333333333333</ele><time>2026-05-02T15:57:40.045Z</time></trkpt><trkpt lat="44.0432844" lon="7.7332024"><ele>1458.6666666666667</ele><time>2026-05-02T15:57:41.045Z</time></trkpt><trkpt lat="44.043197" lon="7.7331771"><ele>1454.5</ele><time>2026-05-02T15:57:42.044Z</time></trkpt><trkpt lat="44.0431176" lon="7.7331646"><ele>1450.3333333333335</ele><time>2026-05-02T15:57:43.045Z</time></trkpt><trkpt lat="44.0430509" lon="7.7331458"><ele>1446.1666666666667</ele><time>2026-05-02T15:57:44.044Z</time></trkpt><trkpt lat="44.0429814" lon="7.7331104"><ele>1442.0</ele><time>2026-05-02T15:57:45.044Z</time></trkpt><trkpt lat="44.0429017" lon="7.7331501"><ele>1442.0</ele><time>2026-05-02T15:57:47.045Z</time></trkpt><trkpt lat="44.0428868" lon="7.7333043"><ele>1442.0</ele><time>2026-05-02T15:57:49.044Z</time></trkpt><trkpt lat="44.0429244" lon="7.7334036"><ele>1442.0</ele><time>2026-05-02T15:57:50.044Z</time></trkpt><trkpt lat="44.0429453" lon="7.7335041"><ele>1442.0</ele><time>2026-05-02T15:57:51.044Z</time></trkpt><trkpt lat="44.0429731" lon="7.7335923"><ele>1442.0</ele><time>2026-05-02T15:57:52.044Z</time></trkpt><trkpt lat="44.0430016" lon="7.7337104"><ele>1442.0</ele><time>2026-05-02T15:57:53.044Z</time></trkpt><trkpt lat="44.0430324" lon="7.7338651"><ele>1438.1999999999998</ele><time>2026-05-02T15:57:54.045Z</time></trkpt><trkpt lat="44.0430671" lon="7.7340052"><ele>1434.4</ele><time>2026-05-02T15:57:55.045Z</time></trkpt><trkpt lat="44.0430821" lon="7.7341494"><ele>1430.6</ele><time>2026-05-02T15:57:56.044Z</time></trkpt><trkpt lat="44.0431181" lon="7.7342862"><ele>1426.8000000000002</ele><time>2026-05-02T15:57:57.044Z</time></trkpt><trkpt lat="44.0431299" lon="7.7344162"><ele>1423.0</ele><time>2026-05-02T15:57:58.045Z</time></trkpt><trkpt lat="44.0431482" lon="7.7345339"><ele>1422.8333333333333</ele><time>2026-05-02T15:57:59.045Z</time></trkpt><trkpt lat="44.0431521" lon="7.7346601"><ele>1422.6666666666665</ele><time>2026-05-02T15:58:00.044Z</time></trkpt><trkpt lat="44.0431452" lon="7.7347734"><ele>1422.5</ele><time>2026-05-02T15:58:01.045Z</time></trkpt><trkpt lat="44.0431253" lon="7.7348846"><ele>1422.3333333333333</ele><time>2026-05-02T15:58:02.044Z</time></trkpt><trkpt lat="44.043086" lon="7.7349759"><ele>1422.1666666666667</ele><time>2026-05-02T15:58:03.044Z</time></trkpt><trkpt lat="44.0430337" lon="7.7350777"><ele>1422.0</ele><time>2026-05-02T15:58:04.044Z</time></trkpt><trkpt lat="44.0429701" lon="7.7351554"><ele>1422.1666666666667</ele><time>2026-05-02T15:58:05.044Z</time></trkpt><trkpt lat="44.0429147" lon="7.7352275"><ele>1422.3333333333333</ele><time>2026-05-02T15:58:06.045Z</time></trkpt><trkpt lat="44.0428557" lon="7.7352871"><ele>1422.5</ele><time>2026-05-02T15:58:07.045Z</time></trkpt><trkpt lat="44.0428276" lon="7.7353937"><ele>1422.6666666666665</ele><time>2026-05-02T15:58:08.044Z</time></trkpt><trkpt lat="44.0428064" lon="7.7354915"><ele>1422.8333333333333</ele><time>2026-05-02T15:58:09.044Z</time></trkpt><trkpt lat="44.042797" lon="7.7355916"><ele>1423.0</ele><time>2026-05-02T15:58:10.045Z</time></trkpt><trkpt lat="44.0427965" lon="7.735703"><ele>1423.0</ele><time>2026-05-02T15:58:11.044Z</time></trkpt><trkpt lat="44.0428554" lon="7.7358206"><ele>1423.0</ele><time>2026-05-02T15:58:12.045Z</time></trkpt><trkpt lat="44.0429099" lon="7.7359593"><ele>1423.0</ele><time>2026-05-02T15:58:13.044Z</time></trkpt><trkpt lat="44.042971" lon="7.7361082"><ele>1423.0</ele><time>2026-05-02T15:58:14.045Z</time></trkpt><trkpt lat="44.0430216" lon="7.736252"><ele>1421.0</ele><time>2026-05-02T15:58:15.044Z</time></trkpt><trkpt lat="44.0430639" lon="7.7363914"><ele>1419.0</ele><time>2026-05-02T15:58:16.044Z</time></trkpt><trkpt lat="44.0431123" lon="7.7365196"><ele>1417.0</ele><time>2026-05-02T15:58:17.044Z</time></trkpt><trkpt lat="44.0431639" lon="7.7366377"><ele>1415.0</ele><time>2026-05-02T15:58:18.044Z</time></trkpt><trkpt lat="44.043229" lon="7.7367622"><ele>1413.0</ele><time>2026-05-02T15:58:19.044Z</time></trkpt><trkpt lat="44.0432766" lon="7.7368558"><ele>1417.6000000000001</ele><time>2026-05-02T15:58:20.044Z</time></trkpt><trkpt lat="44.0433487" lon="7.7369493"><ele>1422.2</ele><time>2026-05-02T15:58:21.044Z</time></trkpt><trkpt lat="44.0434313" lon="7.7370469"><ele>1426.8</ele><time>2026-05-02T15:58:22.044Z</time></trkpt><trkpt lat="44.0435193" lon="7.7371316"><ele>1431.4</ele><time>2026-05-02T15:58:23.044Z</time></trkpt><trkpt lat="44.0436039" lon="7.737216"><ele>1436.0</ele><time>2026-05-02T15:58:24.044Z</time></trkpt><trkpt lat="44.0437034" lon="7.7373117"><ele>1436.0</ele><time>2026-05-02T15:58:25.044Z</time></trkpt><trkpt lat="44.043785" lon="7.737408"><ele>1436.0</ele><time>2026-05-02T15:58:26.044Z</time></trkpt><trkpt lat="44.0438573" lon="7.7375166"><ele>1436.0</ele><time>2026-05-02T15:58:27.044Z</time></trkpt><trkpt lat="44.0439314" lon="7.7376209"><ele>1436.0</ele><time>2026-05-02T15:58:28.044Z</time></trkpt><trkpt lat="44.0439925" lon="7.7377371"><ele>1436.0</ele><time>2026-05-02T15:58:29.044Z</time></trkpt><trkpt lat="44.0440531" lon="7.737844"><ele>1437.4</ele><time>2026-05-02T15:58:30.044Z</time></trkpt><trkpt lat="44.0441013" lon="7.7379462"><ele>1438.8</ele><time>2026-05-02T15:58:31.044Z</time></trkpt><trkpt lat="44.0441656" lon="7.7380488"><ele>1440.2</ele><time>2026-05-02T15:58:32.044Z</time></trkpt><trkpt lat="44.0442567" lon="7.7381497"><ele>1441.6000000000001</ele><time>2026-05-02T15:58:33.044Z</time></trkpt><trkpt lat="44.0443232" lon="7.7382583"><ele>1443.0</ele><time>2026-05-02T15:58:34.044Z</time></trkpt><trkpt lat="44.0444041" lon="7.7383731"><ele>1443.0</ele><time>2026-05-02T15:58:35.044Z</time></trkpt><trkpt lat="44.0444647" lon="7.7384739"><ele>1443.0</ele><time>2026-05-02T15:58:36.044Z</time></trkpt><trkpt lat="44.0445191" lon="7.7385984"><ele>1443.0</ele><time>2026-05-02T15:58:37.044Z</time></trkpt><trkpt lat="44.0445567" lon="7.7387294"><ele>1443.0</ele><time>2026-05-02T15:58:38.044Z</time></trkpt><trkpt lat="44.0445753" lon="7.7388685"><ele>1443.0</ele><time>2026-05-02T15:58:39.044Z</time></trkpt><trkpt lat="44.0446007" lon="7.7390198"><ele>1439.25</ele><time>2026-05-02T15:58:40.044Z</time></trkpt><trkpt lat="44.0446275" lon="7.7391743"><ele>1435.5</ele><time>2026-05-02T15:58:41.044Z</time></trkpt><trkpt lat="44.0446576" lon="7.7393278"><ele>1431.75</ele><time>2026-05-02T15:58:42.044Z</time></trkpt><trkpt lat="44.044692" lon="7.7394784"><ele>1428.0</ele><time>2026-05-02T15:58:43.045Z</time></trkpt><trkpt lat="44.0447238" lon="7.7396279"><ele>1428.0</ele><time>2026-05-02T15:58:44.044Z</time></trkpt><trkpt lat="44.0447617" lon="7.7397559"><ele>1428.0</ele><time>2026-05-02T15:58:45.044Z</time></trkpt><trkpt lat="44.0447995" lon="7.7399019"><ele>1428.0</ele><time>2026-05-02T15:58:46.044Z</time></trkpt><trkpt lat="44.0448057" lon="7.7400185"><ele>1428.0</ele><time>2026-05-02T15:58:47.045Z</time></trkpt><trkpt lat="44.0448063" lon="7.7401251"><ele>1428.0</ele><time>2026-05-02T15:58:48.044Z</time></trkpt><trkpt lat="44.0447667" lon="7.7402191"><ele>1434.6666666666667</ele><time>2026-05-02T15:58:49.044Z</time></trkpt><trkpt lat="44.0447118" lon="7.7402676"><ele>1441.3333333333333</ele><time>2026-05-02T15:58:50.044Z</time></trkpt><trkpt lat="44.0446538" lon="7.7403027"><ele>1448.0</ele><time>2026-05-02T15:58:51.044Z</time></trkpt><trkpt lat="44.0445839" lon="7.7403397"><ele>1454.6666666666665</ele><time>2026-05-02T15:58:52.044Z</time></trkpt><trkpt lat="44.0444687" lon="7.7403542"><ele>1461.3333333333333</ele><time>2026-05-02T15:58:53.045Z</time></trkpt><trkpt lat="44.0443538" lon="7.7403614"><ele>1468.0</ele><time>2026-05-02T15:58:54.045Z</time></trkpt><trkpt lat="44.0442479" lon="7.7403995"><ele>1468.0</ele><time>2026-05-02T15:58:55.045Z</time></trkpt><trkpt lat="44.0441452" lon="7.7404177"><ele>1468.0</ele><time>2026-05-02T15:58:56.045Z</time></trkpt><trkpt lat="44.0440494" lon="7.7404424"><ele>1468.0</ele><time>2026-05-02T15:58:57.044Z</time></trkpt><trkpt lat="44.0439684" lon="7.7404605"><ele>1468.0</ele><time>2026-05-02T15:58:58.044Z</time></trkpt><trkpt lat="44.0438947" lon="7.7405046"><ele>1468.0</ele><time>2026-05-02T15:58:59.044Z</time></trkpt><trkpt lat="44.0438085" lon="7.7405746"><ele>1463.6000000000001</ele><time>2026-05-02T15:59:00.044Z</time></trkpt><trkpt lat="44.0437308" lon="7.7406065"><ele>1459.2</ele><time>2026-05-02T15:59:01.044Z</time></trkpt><trkpt lat="44.0436611" lon="7.740716"><ele>1454.8</ele><time>2026-05-02T15:59:02.044Z</time></trkpt><trkpt lat="44.0435843" lon="7.7408195"><ele>1450.4</ele><time>2026-05-02T15:59:03.045Z</time></trkpt><trkpt lat="44.0435052" lon="7.7409183"><ele>1446.0</ele><time>2026-05-02T15:59:04.044Z</time></trkpt><trkpt lat="44.0434618" lon="7.7410173"><ele>1449.1666666666667</ele><time>2026-05-02T15:59:05.044Z</time></trkpt><trkpt lat="44.043418" lon="7.741114"><ele>1452.3333333333333</ele><time>2026-05-02T15:59:06.044Z</time></trkpt><trkpt lat="44.0433617" lon="7.7412061"><ele>1455.5</ele><time>2026-05-02T15:59:07.044Z</time></trkpt><trkpt lat="44.0432921" lon="7.7413195"><ele>1458.6666666666665</ele><time>2026-05-02T15:59:08.045Z</time></trkpt><trkpt lat="44.0432798" lon="7.74144"><ele>1461.8333333333333</ele><time>2026-05-02T15:59:09.044Z</time></trkpt><trkpt lat="44.0432569" lon="7.7415531"><ele>1465.0</ele><time>2026-05-02T15:59:10.045Z</time></trkpt><trkpt lat="44.0432431" lon="7.7416664"><ele>1456.2</ele><time>2026-05-02T15:59:11.045Z</time></trkpt><trkpt lat="44.0432542" lon="7.7417801"><ele>1447.4</ele><time>2026-05-02T15:59:12.045Z</time></trkpt><trkpt lat="44.0432546" lon="7.7419057"><ele>1438.6</ele><time>2026-05-02T15:59:13.044Z</time></trkpt><trkpt lat="44.0432464" lon="7.7420351"><ele>1429.8</ele><time>2026-05-02T15:59:14.044Z</time></trkpt><trkpt lat="44.0432411" lon="7.7421717"><ele>1421.0</ele><time>2026-05-02T15:59:15.045Z</time></trkpt><trkpt lat="44.0432434" lon="7.7422999"><ele>1421.0</ele><time>2026-05-02T15:59:16.044Z</time></trkpt><trkpt lat="44.0432629" lon="7.7424267"><ele>1421.0</ele><time>2026-05-02T15:59:17.044Z</time></trkpt><trkpt lat="44.043275" lon="7.7425563"><ele>1421.0</ele><time>2026-05-02T15:59:18.045Z</time></trkpt><trkpt lat="44.0432768" lon="7.7426589"><ele>1421.0</ele><time>2026-05-02T15:59:19.045Z</time></trkpt><trkpt lat="44.0432535" lon="7.7427713"><ele>1421.0</ele><time>2026-05-02T15:59:20.044Z</time></trkpt><trkpt lat="44.0432507" lon="7.742897"><ele>1421.0</ele><time>2026-05-02T15:59:21.045Z</time></trkpt><trkpt lat="44.043236" lon="7.7430183"><ele>1425.1999999999998</ele><time>2026-05-02T15:59:22.045Z</time></trkpt><trkpt lat="44.0432952" lon="7.7431195"><ele>1429.3999999999999</ele><time>2026-05-02T15:59:23.044Z</time></trkpt><trkpt lat="44.0433391" lon="7.7432364"><ele>1433.6</ele><time>2026-05-02T15:59:24.044Z</time></trkpt><trkpt lat="44.0433678" lon="7.7433519"><ele>1437.8</ele><time>2026-05-02T15:59:25.044Z</time></trkpt><trkpt lat="44.0433992" lon="7.7434672"><ele>1442.0</ele><time>2026-05-02T15:59:26.045Z</time></trkpt><trkpt lat="44.0434153" lon="7.7436165"><ele>1451.8</ele><time>2026-05-02T15:59:27.044Z</time></trkpt><trkpt lat="44.0434229" lon="7.7437608"><ele>1461.6</ele><time>2026-05-02T15:59:28.044Z</time></trkpt><trkpt lat="44.0434386" lon="7.743905"><ele>1471.3999999999999</ele><time>2026-05-02T15:59:29.044Z</time></trkpt><trkpt lat="44.0434314" lon="7.744018"><ele>1481.1999999999998</ele><time>2026-05-02T15:59:30.045Z</time></trkpt><trkpt lat="44.0434358" lon="7.744136"><ele>1491.0</ele><time>2026-05-02T15:59:31.045Z</time></trkpt><trkpt lat="44.0433726" lon="7.7442965"><ele>1491.0</ele><time>2026-05-02T15:59:33.044Z</time></trkpt><trkpt lat="44.0433128" lon="7.7443552"><ele>1491.0</ele><time>2026-05-02T15:59:34.044Z</time></trkpt><trkpt lat="44.0432555" lon="7.7444014"><ele>1491.0</ele><time>2026-05-02T15:59:35.044Z</time></trkpt><trkpt lat="44.04317" lon="7.7444722"><ele>1491.0</ele><time>2026-05-02T15:59:37.044Z</time></trkpt><trkpt lat="44.0430512" lon="7.7445047"><ele>1491.0</ele><time>2026-05-02T15:59:39.045Z</time></trkpt><trkpt lat="44.0429751" lon="7.7445097"><ele>1491.0</ele><time>2026-05-02T15:59:40.045Z</time></trkpt><trkpt lat="44.0428705" lon="7.7445374"><ele>1493.75</ele><time>2026-05-02T15:59:41.045Z</time></trkpt><trkpt lat="44.0427287" lon="7.744576"><ele>1496.5</ele><time>2026-05-02T15:59:42.045Z</time></trkpt><trkpt lat="44.0426057" lon="7.7445866"><ele>1499.25</ele><time>2026-05-02T15:59:43.044Z</time></trkpt><trkpt lat="44.0424855" lon="7.7445926"><ele>1502.0</ele><time>2026-05-02T15:59:44.044Z</time></trkpt><trkpt lat="44.0423533" lon="7.7446233"><ele>1496.3999999999999</ele><time>2026-05-02T15:59:45.045Z</time></trkpt><trkpt lat="44.0422469" lon="7.7446345"><ele>1490.8</ele><time>2026-05-02T15:59:46.045Z</time></trkpt><trkpt lat="44.0421618" lon="7.7446405"><ele>1485.2</ele><time>2026-05-02T15:59:47.045Z</time></trkpt><trkpt lat="44.0420953" lon="7.744681"><ele>1479.6</ele><time>2026-05-02T15:59:48.044Z</time></trkpt><trkpt lat="44.0420047" lon="7.7447868"><ele>1474.0</ele><time>2026-05-02T15:59:50.045Z</time></trkpt><trkpt lat="44.0419782" lon="7.7448932"><ele>1474.0</ele><time>2026-05-02T15:59:52.044Z</time></trkpt><trkpt lat="44.0420271" lon="7.74501"><ele>1474.0</ele><time>2026-05-02T15:59:54.044Z</time></trkpt><trkpt lat="44.0420917" lon="7.7451296"><ele>1474.0</ele><time>2026-05-02T15:59:56.044Z</time></trkpt><trkpt lat="44.0421351" lon="7.7452054"><ele>1474.0</ele><time>2026-05-02T15:59:57.045Z</time></trkpt><trkpt lat="44.042223" lon="7.7453633"><ele>1474.0</ele><time>2026-05-02T15:59:59.044Z</time></trkpt><trkpt lat="44.042274" lon="7.7454464"><ele>1471.0</ele><time>2026-05-02T16:00:00.044Z</time></trkpt><trkpt lat="44.0423316" lon="7.7455312"><ele>1468.0</ele><time>2026-05-02T16:00:01.044Z</time></trkpt><trkpt lat="44.0423879" lon="7.7456169"><ele>1465.0</ele><time>2026-05-02T16:00:02.044Z</time></trkpt><trkpt lat="44.0424338" lon="7.7457021"><ele>1462.0</ele><time>2026-05-02T16:00:03.044Z</time></trkpt><trkpt lat="44.0424543" lon="7.7458015"><ele>1459.0</ele><time>2026-05-02T16:00:04.044Z</time></trkpt><trkpt lat="44.0424832" lon="7.7458999"><ele>1456.0</ele><time>2026-05-02T16:00:05.044Z</time></trkpt><trkpt lat="44.0425164" lon="7.7459936"><ele>1464.5</ele><time>2026-05-02T16:00:06.045Z</time></trkpt><trkpt lat="44.0425356" lon="7.7460903"><ele>1473.0</ele><time>2026-05-02T16:00:07.044Z</time></trkpt><trkpt lat="44.0425484" lon="7.7461844"><ele>1481.5</ele><time>2026-05-02T16:00:08.045Z</time></trkpt><trkpt lat="44.0425473" lon="7.7463839"><ele>1490.0</ele><time>2026-05-02T16:00:10.044Z</time></trkpt><trkpt lat="44.0425358" lon="7.7464853"><ele>1498.5</ele><time>2026-05-02T16:00:11.044Z</time></trkpt><trkpt lat="44.0425352" lon="7.7465767"><ele>1507.0</ele><time>2026-05-02T16:00:12.045Z</time></trkpt><trkpt lat="44.0425276" lon="7.7466849"><ele>1507.0</ele><time>2026-05-02T16:00:13.044Z</time></trkpt><trkpt lat="44.042519" lon="7.746775"><ele>1507.0</ele><time>2026-05-02T16:00:14.044Z</time></trkpt><trkpt lat="44.0425295" lon="7.7468839"><ele>1507.0</ele><time>2026-05-02T16:00:15.044Z</time></trkpt><trkpt lat="44.0426378" lon="7.7468817"><ele>1507.0</ele><time>2026-05-02T16:00:16.044Z</time></trkpt><trkpt lat="44.0427043" lon="7.7469347"><ele>1507.0</ele><time>2026-05-02T16:00:17.045Z</time></trkpt><trkpt lat="44.0427709" lon="7.7469848"><ele>1507.0</ele><time>2026-05-02T16:00:18.045Z</time></trkpt><trkpt lat="44.042823" lon="7.7470604"><ele>1505.0</ele><time>2026-05-02T16:00:19.044Z</time></trkpt><trkpt lat="44.0428867" lon="7.7471317"><ele>1503.0</ele><time>2026-05-02T16:00:20.044Z</time></trkpt><trkpt lat="44.0429394" lon="7.7472288"><ele>1501.0</ele><time>2026-05-02T16:00:21.044Z</time></trkpt><trkpt lat="44.0429986" lon="7.7473249"><ele>1499.0</ele><time>2026-05-02T16:00:22.044Z</time></trkpt><trkpt lat="44.043062" lon="7.7474077"><ele>1497.0</ele><time>2026-05-02T16:00:23.044Z</time></trkpt><trkpt lat="44.043082" lon="7.7475284"><ele>1495.0</ele><time>2026-05-02T16:00:24.044Z</time></trkpt><trkpt lat="44.0431142" lon="7.7476285"><ele>1490.8333333333333</ele><time>2026-05-02T16:00:25.044Z</time></trkpt><trkpt lat="44.0431337" lon="7.7477457"><ele>1486.6666666666665</ele><time>2026-05-02T16:00:26.045Z</time></trkpt><trkpt lat="44.0431592" lon="7.7478805"><ele>1482.5</ele><time>2026-05-02T16:00:27.044Z</time></trkpt><trkpt lat="44.0431796" lon="7.7480007"><ele>1478.3333333333333</ele><time>2026-05-02T16:00:28.044Z</time></trkpt><trkpt lat="44.0431884" lon="7.7481093"><ele>1474.1666666666667</ele><time>2026-05-02T16:00:29.044Z</time></trkpt><trkpt lat="44.0432076" lon="7.7482216"><ele>1470.0</ele><time>2026-05-02T16:00:30.044Z</time></trkpt><trkpt lat="44.043214" lon="7.7483212"><ele>1470.0</ele><time>2026-05-02T16:00:31.044Z</time></trkpt><trkpt lat="44.0432336" lon="7.7484124"><ele>1470.0</ele><time>2026-05-02T16:00:32.045Z</time></trkpt><trkpt lat="44.0432657" lon="7.7484986"><ele>1470.0</ele><time>2026-05-02T16:00:33.045Z</time></trkpt><trkpt lat="44.0433113" lon="7.7485922"><ele>1470.0</ele><time>2026-05-02T16:00:35.044Z</time></trkpt><trkpt lat="44.0434078" lon="7.7486265"><ele>1470.0</ele><time>2026-05-02T16:00:37.044Z</time></trkpt><trkpt lat="44.0434797" lon="7.7486597"><ele>1470.0</ele><time>2026-05-02T16:00:38.044Z</time></trkpt><trkpt lat="44.0435551" lon="7.748671"><ele>1477.0</ele><time>2026-05-02T16:00:39.045Z</time></trkpt><trkpt lat="44.0436219" lon="7.7487022"><ele>1484.0</ele><time>2026-05-02T16:00:40.044Z</time></trkpt><trkpt lat="44.0436932" lon="7.7487319"><ele>1491.0</ele><time>2026-05-02T16:00:41.044Z</time></trkpt><trkpt lat="44.0437599" lon="7.7487646"><ele>1498.0</ele><time>2026-05-02T16:00:42.045Z</time></trkpt><trkpt lat="44.0438527" lon="7.7488024"><ele>1505.0</ele><time>2026-05-02T16:00:43.045Z</time></trkpt><trkpt lat="44.0439418" lon="7.7488438"><ele>1512.0</ele><time>2026-05-02T16:00:44.045Z</time></trkpt><trkpt lat="44.044008" lon="7.7488921"><ele>1512.0</ele><time>2026-05-02T16:00:45.045Z</time></trkpt><trkpt lat="44.0440716" lon="7.748968"><ele>1512.0</ele><time>2026-05-02T16:00:46.045Z</time></trkpt><trkpt lat="44.0441489" lon="7.749058"><ele>1512.0</ele><time>2026-05-02T16:00:47.046Z</time></trkpt><trkpt lat="44.0442283" lon="7.7491577"><ele>1512.0</ele><time>2026-05-02T16:00:48.045Z</time></trkpt><trkpt lat="44.0443156" lon="7.7492591"><ele>1512.0</ele><time>2026-05-02T16:00:49.045Z</time></trkpt><trkpt lat="44.0443975" lon="7.7493706"><ele>1512.6</ele><time>2026-05-02T16:00:50.045Z</time></trkpt><trkpt lat="44.0444798" lon="7.7494824"><ele>1513.1999999999998</ele><time>2026-05-02T16:00:51.045Z</time></trkpt><trkpt lat="44.0445462" lon="7.7495897"><ele>1513.8</ele><time>2026-05-02T16:00:52.045Z</time></trkpt><trkpt lat="44.0445967" lon="7.7496917"><ele>1514.4</ele><time>2026-05-02T16:00:53.046Z</time></trkpt><trkpt lat="44.0446493" lon="7.7497795"><ele>1515.0</ele><time>2026-05-02T16:00:54.045Z</time></trkpt><trkpt lat="44.0447082" lon="7.7498618"><ele>1515.0</ele><time>2026-05-02T16:00:55.045Z</time></trkpt><trkpt lat="44.0447805" lon="7.7499233"><ele>1515.0</ele><time>2026-05-02T16:00:56.046Z</time></trkpt><trkpt lat="44.0449603" lon="7.7499843"><ele>1515.0</ele><time>2026-05-02T16:00:58.045Z</time></trkpt><trkpt lat="44.0450563" lon="7.7499857"><ele>1515.0</ele><time>2026-05-02T16:00:59.046Z</time></trkpt><trkpt lat="44.0451494" lon="7.7500287"><ele>1522.8</ele><time>2026-05-02T16:01:00.045Z</time></trkpt><trkpt lat="44.0452148" lon="7.7500578"><ele>1530.6</ele><time>2026-05-02T16:01:01.045Z</time></trkpt><trkpt lat="44.0452731" lon="7.7500954"><ele>1538.4</ele><time>2026-05-02T16:01:02.045Z</time></trkpt><trkpt lat="44.0453552" lon="7.7501888"><ele>1546.2</ele><time>2026-05-02T16:01:04.046Z</time></trkpt><trkpt lat="44.0453921" lon="7.750337"><ele>1554.0</ele><time>2026-05-02T16:01:06.045Z</time></trkpt><trkpt lat="44.045352" lon="7.7505389"><ele>1554.0</ele><time>2026-05-02T16:01:08.045Z</time></trkpt><trkpt lat="44.0453219" lon="7.7506419"><ele>1554.0</ele><time>2026-05-02T16:01:09.045Z</time></trkpt><trkpt lat="44.0453008" lon="7.7507657"><ele>1554.0</ele><time>2026-05-02T16:01:10.045Z</time></trkpt><trkpt lat="44.0452861" lon="7.7508975"><ele>1554.0</ele><time>2026-05-02T16:01:11.045Z</time></trkpt><trkpt lat="44.0452664" lon="7.7510332"><ele>1554.0</ele><time>2026-05-02T16:01:12.045Z</time></trkpt><trkpt lat="44.0452487" lon="7.7511674"><ele>1551.1666666666667</ele><time>2026-05-02T16:01:13.045Z</time></trkpt><trkpt lat="44.0452405" lon="7.7512851"><ele>1548.3333333333335</ele><time>2026-05-02T16:01:14.046Z</time></trkpt><trkpt lat="44.0452341" lon="7.7513885"><ele>1545.5</ele><time>2026-05-02T16:01:15.045Z</time></trkpt><trkpt lat="44.0452343" lon="7.7514973"><ele>1542.6666666666667</ele><time>2026-05-02T16:01:16.045Z</time></trkpt><trkpt lat="44.0452986" lon="7.7516309"><ele>1539.8333333333335</ele><time>2026-05-02T16:01:17.045Z</time></trkpt><trkpt lat="44.0453377" lon="7.7517355"><ele>1537.0</ele><time>2026-05-02T16:01:18.046Z</time></trkpt><trkpt lat="44.0454021" lon="7.7518225"><ele>1534.5000000000002</ele><time>2026-05-02T16:01:19.045Z</time></trkpt><trkpt lat="44.0454496" lon="7.7519234"><ele>1532.0</ele><time>2026-05-02T16:01:20.045Z</time></trkpt><trkpt lat="44.0454907" lon="7.7520319"><ele>1529.5</ele><time>2026-05-02T16:01:21.046Z</time></trkpt><trkpt lat="44.0455188" lon="7.7521284"><ele>1527.0</ele><time>2026-05-02T16:01:22.046Z</time></trkpt><trkpt lat="44.0455654" lon="7.7522042"><ele>1524.5</ele><time>2026-05-02T16:01:23.046Z</time></trkpt><trkpt lat="44.0456148" lon="7.7522784"><ele>1522.0</ele><time>2026-05-02T16:01:24.045Z</time></trkpt><trkpt lat="44.04567" lon="7.7523615"><ele>1522.0</ele><time>2026-05-02T16:01:25.045Z</time></trkpt><trkpt lat="44.0457112" lon="7.7524544"><ele>1522.0</ele><time>2026-05-02T16:01:26.046Z</time></trkpt><trkpt lat="44.0457302" lon="7.7525664"><ele>1522.0</ele><time>2026-05-02T16:01:27.045Z</time></trkpt><trkpt lat="44.0456965" lon="7.7526788"><ele>1522.0</ele><time>2026-05-02T16:01:28.045Z</time></trkpt><trkpt lat="44.0456941" lon="7.7527977"><ele>1522.0</ele><time>2026-05-02T16:01:29.045Z</time></trkpt><trkpt lat="44.0456965" lon="7.7528975"><ele>1522.0</ele><time>2026-05-02T16:01:30.045Z</time></trkpt><trkpt lat="44.0456832" lon="7.7530065"><ele>1523.0</ele><time>2026-05-02T16:01:31.047Z</time></trkpt><trkpt lat="44.0457083" lon="7.7531343"><ele>1524.0</ele><time>2026-05-02T16:01:32.046Z</time></trkpt><trkpt lat="44.0456846" lon="7.75323"><ele>1525.0</ele><time>2026-05-02T16:01:33.045Z</time></trkpt><trkpt lat="44.0456592" lon="7.753342"><ele>1526.0</ele><time>2026-05-02T16:01:34.045Z</time></trkpt><trkpt lat="44.0456365" lon="7.7534436"><ele>1527.0</ele><time>2026-05-02T16:01:35.045Z</time></trkpt><trkpt lat="44.0455528" lon="7.7535298"><ele>1528.0</ele><time>2026-05-02T16:01:36.045Z</time></trkpt><trkpt lat="44.0454934" lon="7.7535892"><ele>1531.1666666666665</ele><time>2026-05-02T16:01:37.046Z</time></trkpt><trkpt lat="44.0454423" lon="7.7536492"><ele>1534.3333333333333</ele><time>2026-05-02T16:01:38.046Z</time></trkpt><trkpt lat="44.0453908" lon="7.7537127"><ele>1537.5</ele><time>2026-05-02T16:01:39.046Z</time></trkpt><trkpt lat="44.0453398" lon="7.7538393"><ele>1540.6666666666665</ele><time>2026-05-02T16:01:41.045Z</time></trkpt><trkpt lat="44.0453536" lon="7.7539309"><ele>1543.8333333333333</ele><time>2026-05-02T16:06:56.045Z</time></trkpt><trkpt lat="44.0454296" lon="7.7540784"><ele>1547.0</ele><time>2026-05-02T16:06:58.045Z</time></trkpt><trkpt lat="44.0454798" lon="7.7541781"><ele>1547.0</ele><time>2026-05-02T16:06:59.045Z</time></trkpt><trkpt lat="44.0455667" lon="7.7542902"><ele>1547.0</ele><time>2026-05-02T16:07:01.045Z</time></trkpt><trkpt lat="44.0456256" lon="7.754338"><ele>1547.0</ele><time>2026-05-02T16:07:02.045Z</time></trkpt><trkpt lat="44.045753" lon="7.7544096"><ele>1547.0</ele><time>2026-05-02T16:07:04.045Z</time></trkpt><trkpt lat="44.0458277" lon="7.7544371"><ele>1547.0</ele><time>2026-05-02T16:07:05.045Z</time></trkpt><trkpt lat="44.0459024" lon="7.7544356"><ele>1548.9999999999998</ele><time>2026-05-02T16:07:06.046Z</time></trkpt><trkpt lat="44.0459702" lon="7.754436"><ele>1551.0</ele><time>2026-05-02T16:07:07.045Z</time></trkpt><trkpt lat="44.0460486" lon="7.7543801"><ele>1553.0</ele><time>2026-05-02T16:07:08.045Z</time></trkpt><trkpt lat="44.0461234" lon="7.754333"><ele>1555.0</ele><time>2026-05-02T16:07:09.045Z</time></trkpt><trkpt lat="44.0462112" lon="7.754287"><ele>1556.9999999999998</ele><time>2026-05-02T16:07:10.046Z</time></trkpt><trkpt lat="44.046276" lon="7.7542504"><ele>1559.0</ele><time>2026-05-02T16:07:11.045Z</time></trkpt><trkpt lat="44.046341" lon="7.7542449"><ele>1558.9999999999998</ele><time>2026-05-02T16:07:12.045Z</time></trkpt><trkpt lat="44.0464483" lon="7.7542994"><ele>1559.0</ele><time>2026-05-02T16:07:14.045Z</time></trkpt><trkpt lat="44.0465086" lon="7.7543447"><ele>1559.0</ele><time>2026-05-02T16:07:15.046Z</time></trkpt><trkpt lat="44.0465639" lon="7.7543928"><ele>1559.0</ele><time>2026-05-02T16:07:16.045Z</time></trkpt><trkpt lat="44.0466341" lon="7.7544174"><ele>1558.9999999999998</ele><time>2026-05-02T16:07:17.045Z</time></trkpt><trkpt lat="44.0467096" lon="7.7543982"><ele>1559.0</ele><time>2026-05-02T16:07:18.046Z</time></trkpt><trkpt lat="44.0468047" lon="7.7543812"><ele>1569.6</ele><time>2026-05-02T16:07:19.045Z</time></trkpt><trkpt lat="44.0468986" lon="7.7543626"><ele>1580.2</ele><time>2026-05-02T16:07:20.045Z</time></trkpt><trkpt lat="44.0469882" lon="7.7543459"><ele>1590.8</ele><time>2026-05-02T16:07:21.046Z</time></trkpt><trkpt lat="44.0470803" lon="7.75432"><ele>1601.3999999999999</ele><time>2026-05-02T16:07:22.046Z</time></trkpt><trkpt lat="44.0471682" lon="7.7543186"><ele>1612.0</ele><time>2026-05-02T16:07:23.046Z</time></trkpt><trkpt lat="44.0472622" lon="7.7543222"><ele>1612.0</ele><time>2026-05-02T16:07:24.045Z</time></trkpt><trkpt lat="44.0473581" lon="7.7543216"><ele>1612.0</ele><time>2026-05-02T16:07:25.045Z</time></trkpt><trkpt lat="44.0474519" lon="7.7543152"><ele>1612.0</ele><time>2026-05-02T16:07:26.045Z</time></trkpt><trkpt lat="44.047542" lon="7.7543119"><ele>1612.0</ele><time>2026-05-02T16:07:27.046Z</time></trkpt><trkpt lat="44.0476393" lon="7.7543059"><ele>1612.0</ele><time>2026-05-02T16:07:28.045Z</time></trkpt><trkpt lat="44.0477256" lon="7.7542962"><ele>1613.0</ele><time>2026-05-02T16:07:29.045Z</time></trkpt><trkpt lat="44.0478198" lon="7.7542912"><ele>1614.0</ele><time>2026-05-02T16:07:30.045Z</time></trkpt><trkpt lat="44.0479168" lon="7.754281"><ele>1615.0</ele><time>2026-05-02T16:07:31.045Z</time></trkpt><trkpt lat="44.0480144" lon="7.754259"><ele>1616.0</ele><time>2026-05-02T16:07:32.046Z</time></trkpt><trkpt lat="44.0481058" lon="7.7542463"><ele>1617.0</ele><time>2026-05-02T16:07:33.045Z</time></trkpt><trkpt lat="44.0481772" lon="7.7542634"><ele>1617.0</ele><time>2026-05-02T16:07:34.045Z</time></trkpt><trkpt lat="44.0482493" lon="7.7542899"><ele>1617.0</ele><time>2026-05-02T16:07:35.046Z</time></trkpt><trkpt lat="44.0483171" lon="7.7543244"><ele>1617.0</ele><time>2026-05-02T16:07:36.046Z</time></trkpt><trkpt lat="44.048387" lon="7.7543661"><ele>1617.0</ele><time>2026-05-02T16:07:37.045Z</time></trkpt><trkpt lat="44.0484368" lon="7.754421"><ele>1617.0</ele><time>2026-05-02T16:07:38.045Z</time></trkpt><trkpt lat="44.0484881" lon="7.7544955"><ele>1617.0</ele><time>2026-05-02T16:07:39.046Z</time></trkpt><trkpt lat="44.0485369" lon="7.7545804"><ele>1617.0</ele><time>2026-05-02T16:07:40.045Z</time></trkpt><trkpt lat="44.0485798" lon="7.754668"><ele>1615.3999999999999</ele><time>2026-05-02T16:07:41.045Z</time></trkpt><trkpt lat="44.0486295" lon="7.7547595"><ele>1613.8</ele><time>2026-05-02T16:07:42.045Z</time></trkpt><trkpt lat="44.0486883" lon="7.7548749"><ele>1612.2</ele><time>2026-05-02T16:07:43.045Z</time></trkpt><trkpt lat="44.0487436" lon="7.7549754"><ele>1610.6</ele><time>2026-05-02T16:07:44.046Z</time></trkpt><trkpt lat="44.0487992" lon="7.7550851"><ele>1609.0</ele><time>2026-05-02T16:07:45.046Z</time></trkpt><trkpt lat="44.0488639" lon="7.755223"><ele>1607.6</ele><time>2026-05-02T16:07:46.045Z</time></trkpt><trkpt lat="44.0489277" lon="7.7553633"><ele>1606.2</ele><time>2026-05-02T16:07:47.045Z</time></trkpt><trkpt lat="44.0489934" lon="7.7554968"><ele>1604.8</ele><time>2026-05-02T16:07:48.045Z</time></trkpt><trkpt lat="44.049039" lon="7.755611"><ele>1603.3999999999999</ele><time>2026-05-02T16:07:49.046Z</time></trkpt><trkpt lat="44.0490948" lon="7.7557276"><ele>1602.0</ele><time>2026-05-02T16:07:50.045Z</time></trkpt><trkpt lat="44.0491498" lon="7.7558369"><ele>1607.0</ele><time>2026-05-02T16:07:51.045Z</time></trkpt><trkpt lat="44.0492151" lon="7.7559513"><ele>1612.0</ele><time>2026-05-02T16:07:52.045Z</time></trkpt><trkpt lat="44.0492777" lon="7.756061"><ele>1617.0</ele><time>2026-05-02T16:07:53.045Z</time></trkpt><trkpt lat="44.0492988" lon="7.7561736"><ele>1622.0</ele><time>2026-05-02T16:07:54.046Z</time></trkpt><trkpt lat="44.049304" lon="7.7562957"><ele>1627.0</ele><time>2026-05-02T16:07:55.045Z</time></trkpt><trkpt lat="44.0493124" lon="7.7564258"><ele>1627.0</ele><time>2026-05-02T16:07:56.046Z</time></trkpt><trkpt lat="44.0493204" lon="7.7565402"><ele>1627.0</ele><time>2026-05-02T16:07:57.045Z</time></trkpt><trkpt lat="44.0493344" lon="7.7566634"><ele>1627.0</ele><time>2026-05-02T16:07:58.045Z</time></trkpt><trkpt lat="44.049344" lon="7.7567877"><ele>1627.0</ele><time>2026-05-02T16:07:59.045Z</time></trkpt><trkpt lat="44.0493632" lon="7.7569366"><ele>1627.0</ele><time>2026-05-02T16:08:00.046Z</time></trkpt><trkpt lat="44.0493843" lon="7.7570805"><ele>1627.1999999999998</ele><time>2026-05-02T16:08:01.045Z</time></trkpt><trkpt lat="44.0493995" lon="7.7572166"><ele>1627.4</ele><time>2026-05-02T16:08:02.045Z</time></trkpt><trkpt lat="44.049419" lon="7.7573549"><ele>1627.6</ele><time>2026-05-02T16:08:03.045Z</time></trkpt><trkpt lat="44.0494569" lon="7.7574945"><ele>1627.8000000000002</ele><time>2026-05-02T16:08:04.046Z</time></trkpt><trkpt lat="44.04949" lon="7.757643"><ele>1628.0</ele><time>2026-05-02T16:08:05.045Z</time></trkpt><trkpt lat="44.0494969" lon="7.7577737"><ele>1627.6000000000001</ele><time>2026-05-02T16:08:06.046Z</time></trkpt><trkpt lat="44.0495006" lon="7.7578983"><ele>1627.2</ele><time>2026-05-02T16:08:07.045Z</time></trkpt><trkpt lat="44.0494864" lon="7.7580201"><ele>1626.8</ele><time>2026-05-02T16:08:08.045Z</time></trkpt><trkpt lat="44.0494761" lon="7.7581448"><ele>1626.4</ele><time>2026-05-02T16:08:09.046Z</time></trkpt><trkpt lat="44.0494471" lon="7.7582714"><ele>1626.0</ele><time>2026-05-02T16:08:10.046Z</time></trkpt><trkpt lat="44.0494232" lon="7.7583982"><ele>1626.0</ele><time>2026-05-02T16:08:11.046Z</time></trkpt><trkpt lat="44.0493854" lon="7.7585209"><ele>1626.0</ele><time>2026-05-02T16:08:12.045Z</time></trkpt><trkpt lat="44.0493485" lon="7.7586485"><ele>1626.0</ele><time>2026-05-02T16:08:13.045Z</time></trkpt><trkpt lat="44.0492707" lon="7.7588682"><ele>1626.0</ele><time>2026-05-02T16:08:15.045Z</time></trkpt><trkpt lat="44.0492415" lon="7.7589857"><ele>1622.6666666666667</ele><time>2026-05-02T16:08:16.046Z</time></trkpt><trkpt lat="44.0492203" lon="7.7591165"><ele>1619.3333333333335</ele><time>2026-05-02T16:08:17.045Z</time></trkpt><trkpt lat="44.0491796" lon="7.7592334"><ele>1616.0</ele><time>2026-05-02T16:08:18.045Z</time></trkpt><trkpt lat="44.0491394" lon="7.7593343"><ele>1612.6666666666667</ele><time>2026-05-02T16:08:19.045Z</time></trkpt><trkpt lat="44.0490917" lon="7.759423"><ele>1609.3333333333335</ele><time>2026-05-02T16:08:20.045Z</time></trkpt><trkpt lat="44.0490472" lon="7.759501"><ele>1606.0</ele><time>2026-05-02T16:08:21.045Z</time></trkpt><trkpt lat="44.0490122" lon="7.7595768"><ele>1606.0000000000002</ele><time>2026-05-02T16:08:22.046Z</time></trkpt><trkpt lat="44.0489795" lon="7.7597403"><ele>1606.0</ele><time>2026-05-02T16:08:24.045Z</time></trkpt><trkpt lat="44.0489649" lon="7.7598324"><ele>1606.0</ele><time>2026-05-02T16:08:25.045Z</time></trkpt><trkpt lat="44.0489588" lon="7.7599622"><ele>1606.0</ele><time>2026-05-02T16:08:26.046Z</time></trkpt><trkpt lat="44.0489703" lon="7.760073"><ele>1606.0000000000002</ele><time>2026-05-02T16:08:27.045Z</time></trkpt><trkpt lat="44.0489618" lon="7.7601778"><ele>1606.0</ele><time>2026-05-02T16:08:28.045Z</time></trkpt><trkpt lat="44.0489349" lon="7.7602899"><ele>1610.6666666666667</ele><time>2026-05-02T16:08:29.045Z</time></trkpt><trkpt lat="44.0489025" lon="7.7603779"><ele>1615.3333333333335</ele><time>2026-05-02T16:08:30.045Z</time></trkpt><trkpt lat="44.0488717" lon="7.7604858"><ele>1620.0</ele><time>2026-05-02T16:08:31.046Z</time></trkpt><trkpt lat="44.0488362" lon="7.7606013"><ele>1624.6666666666665</ele><time>2026-05-02T16:08:32.045Z</time></trkpt><trkpt lat="44.0487946" lon="7.7607099"><ele>1629.3333333333333</ele><time>2026-05-02T16:08:33.046Z</time></trkpt><trkpt lat="44.0487445" lon="7.7608249"><ele>1634.0</ele><time>2026-05-02T16:08:34.045Z</time></trkpt><trkpt lat="44.0486934" lon="7.7608973"><ele>1633.9999999999998</ele><time>2026-05-02T16:08:35.045Z</time></trkpt><trkpt lat="44.0486302" lon="7.7609592"><ele>1634.0</ele><time>2026-05-02T16:08:36.046Z</time></trkpt><trkpt lat="44.0485655" lon="7.7610184"><ele>1634.0</ele><time>2026-05-02T16:08:37.045Z</time></trkpt><trkpt lat="44.0485103" lon="7.7610928"><ele>1634.0</ele><time>2026-05-02T16:08:38.045Z</time></trkpt><trkpt lat="44.0484653" lon="7.7611648"><ele>1633.9999999999998</ele><time>2026-05-02T16:08:39.046Z</time></trkpt><trkpt lat="44.0484482" lon="7.7613062"><ele>1634.0</ele><time>2026-05-02T16:08:40.045Z</time></trkpt><trkpt lat="44.0484118" lon="7.7614221"><ele>1632.6</ele><time>2026-05-02T16:08:41.045Z</time></trkpt><trkpt lat="44.048365" lon="7.7615405"><ele>1631.2</ele><time>2026-05-02T16:08:42.046Z</time></trkpt><trkpt lat="44.0483206" lon="7.7616537"><ele>1629.8</ele><time>2026-05-02T16:08:43.045Z</time></trkpt><trkpt lat="44.048259" lon="7.7617821"><ele>1628.3999999999999</ele><time>2026-05-02T16:08:44.045Z</time></trkpt><trkpt lat="44.0481994" lon="7.7619155"><ele>1627.0</ele><time>2026-05-02T16:08:45.046Z</time></trkpt><trkpt lat="44.0481199" lon="7.76205"><ele>1627.0</ele><time>2026-05-02T16:08:46.045Z</time></trkpt><trkpt lat="44.0480473" lon="7.7621688"><ele>1627.0</ele><time>2026-05-02T16:08:47.045Z</time></trkpt><trkpt lat="44.0479806" lon="7.7622598"><ele>1627.0</ele><time>2026-05-02T16:08:48.045Z</time></trkpt><trkpt lat="44.0479034" lon="7.7623435"><ele>1627.0</ele><time>2026-05-02T16:08:49.045Z</time></trkpt><trkpt lat="44.0478361" lon="7.762405"><ele>1627.0</ele><time>2026-05-02T16:08:50.045Z</time></trkpt><trkpt lat="44.0477863" lon="7.7624659"><ele>1627.0000000000002</ele><time>2026-05-02T16:08:51.045Z</time></trkpt><trkpt lat="44.0477455" lon="7.7625355"><ele>1627.0</ele><time>2026-05-02T16:08:52.045Z</time></trkpt><trkpt lat="44.0476892" lon="7.7626702"><ele>1627.0</ele><time>2026-05-02T16:08:54.045Z</time></trkpt><trkpt lat="44.0477273" lon="7.7628218"><ele>1627.0</ele><time>2026-05-02T16:08:56.046Z</time></trkpt><trkpt lat="44.0477468" lon="7.7629074"><ele>1627.0000000000002</ele><time>2026-05-02T16:08:57.045Z</time></trkpt><trkpt lat="44.0477703" lon="7.7629907"><ele>1627.0</ele><time>2026-05-02T16:08:58.045Z</time></trkpt><trkpt lat="44.0478522" lon="7.7630341"><ele>1626.8333333333335</ele><time>2026-05-02T16:08:59.045Z</time></trkpt><trkpt lat="44.0479118" lon="7.763076"><ele>1626.6666666666667</ele><time>2026-05-02T16:09:00.045Z</time></trkpt><trkpt lat="44.0479922" lon="7.76313"><ele>1626.5</ele><time>2026-05-02T16:09:01.046Z</time></trkpt><trkpt lat="44.0480645" lon="7.7631793"><ele>1626.3333333333335</ele><time>2026-05-02T16:09:02.045Z</time></trkpt><trkpt lat="44.0481292" lon="7.7632354"><ele>1626.1666666666667</ele><time>2026-05-02T16:09:03.046Z</time></trkpt><trkpt lat="44.0481968" lon="7.7632838"><ele>1626.0</ele><time>2026-05-02T16:09:04.046Z</time></trkpt><trkpt lat="44.0482802" lon="7.7634671"><ele>1638.6</ele><time>2026-05-02T16:09:06.045Z</time></trkpt><trkpt lat="44.0483849" lon="7.7636206"><ele>1651.1999999999998</ele><time>2026-05-02T16:09:08.045Z</time></trkpt><trkpt lat="44.0484228" lon="7.7637184"><ele>1663.8000000000002</ele><time>2026-05-02T16:09:09.046Z</time></trkpt><trkpt lat="44.0484835" lon="7.763801"><ele>1676.4</ele><time>2026-05-02T16:09:10.045Z</time></trkpt><trkpt lat="44.0485627" lon="7.7639189"><ele>1689.0</ele><time>2026-05-02T16:09:12.046Z</time></trkpt><trkpt lat="44.0485683" lon="7.7640901"><ele>1689.0</ele><time>2026-05-02T16:09:14.045Z</time></trkpt><trkpt lat="44.0485285" lon="7.7641792"><ele>1689.0</ele><time>2026-05-02T16:09:15.045Z</time></trkpt><trkpt lat="44.0484953" lon="7.7642688"><ele>1689.0</ele><time>2026-05-02T16:09:16.045Z</time></trkpt><trkpt lat="44.0484489" lon="7.7643628"><ele>1689.0</ele><time>2026-05-02T16:09:17.045Z</time></trkpt><trkpt lat="44.0483942" lon="7.7644477"><ele>1689.0</ele><time>2026-05-02T16:09:18.045Z</time></trkpt><trkpt lat="44.0483397" lon="7.7645213"><ele>1689.0</ele><time>2026-05-02T16:09:19.045Z</time></trkpt><trkpt lat="44.0482923" lon="7.7646011"><ele>1687.142857142857</ele><time>2026-05-02T16:09:20.045Z</time></trkpt><trkpt lat="44.0482546" lon="7.7646856"><ele>1685.2857142857142</ele><time>2026-05-02T16:09:21.045Z</time></trkpt><trkpt lat="44.0482302" lon="7.764777"><ele>1683.4285714285713</ele><time>2026-05-02T16:09:22.045Z</time></trkpt><trkpt lat="44.048215" lon="7.7648722"><ele>1681.5714285714284</ele><time>2026-05-02T16:09:23.045Z</time></trkpt><trkpt lat="44.0482175" lon="7.7649642"><ele>1679.7142857142858</ele><time>2026-05-02T16:09:24.045Z</time></trkpt><trkpt lat="44.0482277" lon="7.765052"><ele>1677.8571428571427</ele><time>2026-05-02T16:09:25.046Z</time></trkpt><trkpt lat="44.048197" lon="7.7651931"><ele>1676.0</ele><time>2026-05-02T16:09:27.046Z</time></trkpt><trkpt lat="44.0481099" lon="7.7653122"><ele>1675.9999999999998</ele><time>2026-05-02T16:09:29.045Z</time></trkpt><trkpt lat="44.0480501" lon="7.7653767"><ele>1676.0</ele><time>2026-05-02T16:09:30.045Z</time></trkpt><trkpt lat="44.0480002" lon="7.7654539"><ele>1676.0</ele><time>2026-05-02T16:09:31.045Z</time></trkpt><trkpt lat="44.0479624" lon="7.7655353"><ele>1676.0</ele><time>2026-05-02T16:09:32.045Z</time></trkpt><trkpt lat="44.0479499" lon="7.7656268"><ele>1676.0</ele><time>2026-05-02T16:09:33.045Z</time></trkpt><trkpt lat="44.047962" lon="7.7657306"><ele>1675.9999999999998</ele><time>2026-05-02T16:09:34.045Z</time></trkpt><trkpt lat="44.047961" lon="7.7658312"><ele>1676.0</ele><time>2026-05-02T16:09:35.046Z</time></trkpt><trkpt lat="44.0479385" lon="7.7659244"><ele>1675.9999999999998</ele><time>2026-05-02T16:09:36.045Z</time></trkpt><trkpt lat="44.0478972" lon="7.766018"><ele>1676.0</ele><time>2026-05-02T16:09:37.046Z</time></trkpt><trkpt lat="44.047842" lon="7.7660961"><ele>1676.0</ele><time>2026-05-02T16:09:38.046Z</time></trkpt><trkpt lat="44.0477901" lon="7.7661671"><ele>1676.0</ele><time>2026-05-02T16:09:39.045Z</time></trkpt><trkpt lat="44.04774" lon="7.7662481"><ele>1675.9999999999998</ele><time>2026-05-02T16:09:40.045Z</time></trkpt><trkpt lat="44.047694" lon="7.7663297"><ele>1676.0</ele><time>2026-05-02T16:09:41.046Z</time></trkpt><trkpt lat="44.0476425" lon="7.7664703"><ele>1679.6</ele><time>2026-05-02T16:09:43.045Z</time></trkpt><trkpt lat="44.047651" lon="7.766649"><ele>1683.1999999999998</ele><time>2026-05-02T16:09:45.046Z</time></trkpt><trkpt lat="44.0476601" lon="7.7667777"><ele>1686.8000000000002</ele><time>2026-05-02T16:09:46.045Z</time></trkpt><trkpt lat="44.0476693" lon="7.7669127"><ele>1690.4</ele><time>2026-05-02T16:09:47.045Z</time></trkpt><trkpt lat="44.0476843" lon="7.7670417"><ele>1694.0</ele><time>2026-05-02T16:09:48.045Z</time></trkpt><trkpt lat="44.0476969" lon="7.7671624"><ele>1696.1666666666665</ele><time>2026-05-02T16:09:49.045Z</time></trkpt><trkpt lat="44.0477033" lon="7.7672782"><ele>1698.3333333333333</ele><time>2026-05-02T16:09:50.045Z</time></trkpt><trkpt lat="44.0477108" lon="7.767389"><ele>1700.5</ele><time>2026-05-02T16:09:51.045Z</time></trkpt><trkpt lat="44.0477071" lon="7.7675052"><ele>1702.6666666666665</ele><time>2026-05-02T16:09:52.046Z</time></trkpt><trkpt lat="44.047678" lon="7.7676036"><ele>1704.8333333333333</ele><time>2026-05-02T16:09:53.046Z</time></trkpt><trkpt lat="44.0476391" lon="7.7676861"><ele>1707.0</ele><time>2026-05-02T16:09:54.045Z</time></trkpt><trkpt lat="44.047588" lon="7.7677502"><ele>1709.857142857143</ele><time>2026-05-02T16:09:55.045Z</time></trkpt><trkpt lat="44.047538" lon="7.7678174"><ele>1712.7142857142858</ele><time>2026-05-02T16:09:56.045Z</time></trkpt><trkpt lat="44.0474997" lon="7.7678871"><ele>1715.5714285714284</ele><time>2026-05-02T16:09:57.046Z</time></trkpt><trkpt lat="44.0474685" lon="7.7679686"><ele>1718.4285714285716</ele><time>2026-05-02T16:09:58.046Z</time></trkpt><trkpt lat="44.0474443" lon="7.7680696"><ele>1721.2857142857144</ele><time>2026-05-02T16:09:59.046Z</time></trkpt><trkpt lat="44.0474192" lon="7.7681687"><ele>1724.142857142857</ele><time>2026-05-02T16:10:00.045Z</time></trkpt><trkpt lat="44.0473921" lon="7.7682659"><ele>1727.0</ele><time>2026-05-02T16:10:01.045Z</time></trkpt><trkpt lat="44.0473493" lon="7.7683357"><ele>1727.8333333333333</ele><time>2026-05-02T16:10:02.045Z</time></trkpt><trkpt lat="44.0472941" lon="7.7683841"><ele>1728.6666666666665</ele><time>2026-05-02T16:10:03.045Z</time></trkpt><trkpt lat="44.0472303" lon="7.7684275"><ele>1729.5</ele><time>2026-05-02T16:10:04.045Z</time></trkpt><trkpt lat="44.0471586" lon="7.7684606"><ele>1730.3333333333335</ele><time>2026-05-02T16:10:05.045Z</time></trkpt><trkpt lat="44.0470848" lon="7.7684931"><ele>1731.1666666666667</ele><time>2026-05-02T16:10:06.045Z</time></trkpt><trkpt lat="44.0470212" lon="7.7685313"><ele>1732.0</ele><time>2026-05-02T16:10:07.045Z</time></trkpt><trkpt lat="44.0469379" lon="7.7686469"><ele>1732.0000000000002</ele><time>2026-05-02T16:10:09.045Z</time></trkpt><trkpt lat="44.0469041" lon="7.7688372"><ele>1732.0</ele><time>2026-05-02T16:10:11.045Z</time></trkpt><trkpt lat="44.0468739" lon="7.768942"><ele>1732.0</ele><time>2026-05-02T16:10:12.045Z</time></trkpt><trkpt lat="44.0468366" lon="7.7690278"><ele>1732.0</ele><time>2026-05-02T16:10:13.045Z</time></trkpt><trkpt lat="44.0467911" lon="7.7690967"><ele>1732.0000000000002</ele><time>2026-05-02T16:10:14.046Z</time></trkpt><trkpt lat="44.0467402" lon="7.7691595"><ele>1732.0</ele><time>2026-05-02T16:10:15.046Z</time></trkpt><trkpt lat="44.0466774" lon="7.7692132"><ele>1729.6666666666667</ele><time>2026-05-02T16:10:16.045Z</time></trkpt><trkpt lat="44.0466048" lon="7.7692368"><ele>1727.3333333333335</ele><time>2026-05-02T16:10:17.045Z</time></trkpt><trkpt lat="44.0465243" lon="7.7692563"><ele>1725.0</ele><time>2026-05-02T16:10:18.045Z</time></trkpt><trkpt lat="44.0464403" lon="7.7692746"><ele>1722.6666666666665</ele><time>2026-05-02T16:10:19.045Z</time></trkpt><trkpt lat="44.0463639" lon="7.7692967"><ele>1720.3333333333333</ele><time>2026-05-02T16:10:20.045Z</time></trkpt><trkpt lat="44.0462923" lon="7.7693177"><ele>1718.0</ele><time>2026-05-02T16:10:21.045Z</time></trkpt><trkpt lat="44.0462032" lon="7.7694253"><ele>1718.0</ele><time>2026-05-02T16:10:23.045Z</time></trkpt><trkpt lat="44.0461672" lon="7.7696025"><ele>1718.0000000000002</ele><time>2026-05-02T16:10:25.045Z</time></trkpt><trkpt lat="44.0461596" lon="7.7697131"><ele>1718.0000000000002</ele><time>2026-05-02T16:10:26.045Z</time></trkpt><trkpt lat="44.0461473" lon="7.7698366"><ele>1718.0</ele><time>2026-05-02T16:10:27.046Z</time></trkpt><trkpt lat="44.0461195" lon="7.7699501"><ele>1718.0</ele><time>2026-05-02T16:10:28.046Z</time></trkpt><trkpt lat="44.0460896" lon="7.770061"><ele>1718.0</ele><time>2026-05-02T16:10:29.045Z</time></trkpt><trkpt lat="44.0460695" lon="7.7701768"><ele>1718.0000000000002</ele><time>2026-05-02T16:10:30.046Z</time></trkpt><trkpt lat="44.046048" lon="7.7703056"><ele>1718.0000000000002</ele><time>2026-05-02T16:10:31.045Z</time></trkpt><trkpt lat="44.0460324" lon="7.7704157"><ele>1718.0</ele><time>2026-05-02T16:10:32.045Z</time></trkpt><trkpt lat="44.0460353" lon="7.7705437"><ele>1718.0</ele><time>2026-05-02T16:10:33.045Z</time></trkpt><trkpt lat="44.0460285" lon="7.7706894"><ele>1720.4999999999998</ele><time>2026-05-02T16:10:34.045Z</time></trkpt><trkpt lat="44.0459988" lon="7.7708093"><ele>1723.0</ele><time>2026-05-02T16:10:35.045Z</time></trkpt><trkpt lat="44.0459686" lon="7.7709107"><ele>1725.5</ele><time>2026-05-02T16:10:36.046Z</time></trkpt><trkpt lat="44.0459342" lon="7.7709993"><ele>1728.0</ele><time>2026-05-02T16:10:37.045Z</time></trkpt><trkpt lat="44.0459112" lon="7.7710967"><ele>1730.4999999999998</ele><time>2026-05-02T16:10:38.045Z</time></trkpt><trkpt lat="44.0459131" lon="7.7712771"><ele>1733.0</ele><time>2026-05-02T16:10:40.045Z</time></trkpt><trkpt lat="44.0459318" lon="7.7713717"><ele>1733.2</ele><time>2026-05-02T16:10:41.045Z</time></trkpt><trkpt lat="44.0459887" lon="7.7714817"><ele>1733.4</ele><time>2026-05-02T16:10:42.045Z</time></trkpt><trkpt lat="44.0460302" lon="7.7716139"><ele>1733.6000000000001</ele><time>2026-05-02T16:10:43.046Z</time></trkpt><trkpt lat="44.0460718" lon="7.7717218"><ele>1733.8000000000002</ele><time>2026-05-02T16:10:44.045Z</time></trkpt><trkpt lat="44.0461103" lon="7.771839"><ele>1734.0</ele><time>2026-05-02T16:10:45.046Z</time></trkpt><trkpt lat="44.0461211" lon="7.771949"><ele>1735.4</ele><time>2026-05-02T16:10:46.045Z</time></trkpt><trkpt lat="44.0461297" lon="7.7720695"><ele>1736.8000000000002</ele><time>2026-05-02T16:10:47.045Z</time></trkpt><trkpt lat="44.0461268" lon="7.7721844"><ele>1738.1999999999998</ele><time>2026-05-02T16:10:48.046Z</time></trkpt><trkpt lat="44.0461022" lon="7.7723148"><ele>1739.6</ele><time>2026-05-02T16:10:49.045Z</time></trkpt><trkpt lat="44.0460805" lon="7.7724444"><ele>1741.0</ele><time>2026-05-02T16:10:50.045Z</time></trkpt><trkpt lat="44.0460435" lon="7.7725742"><ele>1744.4</ele><time>2026-05-02T16:10:51.045Z</time></trkpt><trkpt lat="44.0460098" lon="7.7727182"><ele>1747.8</ele><time>2026-05-02T16:10:52.046Z</time></trkpt><trkpt lat="44.0459838" lon="7.7728469"><ele>1751.2000000000003</ele><time>2026-05-02T16:10:53.045Z</time></trkpt><trkpt lat="44.045978" lon="7.7729996"><ele>1754.6000000000001</ele><time>2026-05-02T16:10:54.046Z</time></trkpt><trkpt lat="44.0459617" lon="7.7731402"><ele>1758.0</ele><time>2026-05-02T16:10:55.045Z</time></trkpt><trkpt lat="44.0459535" lon="7.7733004"><ele>1758.0</ele><time>2026-05-02T16:10:56.045Z</time></trkpt><trkpt lat="44.0459236" lon="7.7734297"><ele>1758.0000000000002</ele><time>2026-05-02T16:10:57.046Z</time></trkpt><trkpt lat="44.0458978" lon="7.773543"><ele>1758.0000000000002</ele><time>2026-05-02T16:10:58.046Z</time></trkpt><trkpt lat="44.0458451" lon="7.7736616"><ele>1758.0</ele><time>2026-05-02T16:10:59.045Z</time></trkpt><trkpt lat="44.0457954" lon="7.773787"><ele>1758.0</ele><time>2026-05-02T16:11:00.045Z</time></trkpt><trkpt lat="44.0457293" lon="7.7739055"><ele>1757.6000000000001</ele><time>2026-05-02T16:11:01.045Z</time></trkpt><trkpt lat="44.045655" lon="7.7740241"><ele>1757.2000000000003</ele><time>2026-05-02T16:11:02.046Z</time></trkpt><trkpt lat="44.0455826" lon="7.7741374"><ele>1756.8</ele><time>2026-05-02T16:11:03.045Z</time></trkpt><trkpt lat="44.0455227" lon="7.774225"><ele>1756.4</ele><time>2026-05-02T16:11:04.046Z</time></trkpt><trkpt lat="44.0454719" lon="7.7743125"><ele>1756.0</ele><time>2026-05-02T16:11:05.045Z</time></trkpt><trkpt lat="44.0454269" lon="7.7744341"><ele>1756.0000000000002</ele><time>2026-05-02T16:11:06.045Z</time></trkpt><trkpt lat="44.0453797" lon="7.7745754"><ele>1756.0</ele><time>2026-05-02T16:11:07.045Z</time></trkpt><trkpt lat="44.0453369" lon="7.7747051"><ele>1756.0</ele><time>2026-05-02T16:11:08.045Z</time></trkpt><trkpt lat="44.0453041" lon="7.7748135"><ele>1756.0</ele><time>2026-05-02T16:11:09.045Z</time></trkpt><trkpt lat="44.0452816" lon="7.7749178"><ele>1756.0000000000002</ele><time>2026-05-02T16:11:10.046Z</time></trkpt><trkpt lat="44.0452852" lon="7.7750098"><ele>1756.0</ele><time>2026-05-02T16:11:11.046Z</time></trkpt><trkpt lat="44.0453366" lon="7.7751626"><ele>1760.8</ele><time>2026-05-02T16:11:13.045Z</time></trkpt><trkpt lat="44.045396" lon="7.7753068"><ele>1765.6</ele><time>2026-05-02T16:11:15.045Z</time></trkpt><trkpt lat="44.0454527" lon="7.7753506"><ele>1770.4</ele><time>2026-05-02T16:11:16.046Z</time></trkpt><trkpt lat="44.0455642" lon="7.7754176"><ele>1775.2</ele><time>2026-05-02T16:11:18.045Z</time></trkpt><trkpt lat="44.0456402" lon="7.7754095"><ele>1780.0</ele><time>2026-05-02T16:11:43.045Z</time></trkpt><trkpt lat="44.0457159" lon="7.7753405"><ele>1779.0</ele><time>2026-05-02T16:11:44.045Z</time></trkpt><trkpt lat="44.0458043" lon="7.7752529"><ele>1778.0</ele><time>2026-05-02T16:11:45.045Z</time></trkpt><trkpt lat="44.0459001" lon="7.7751563"><ele>1777.0</ele><time>2026-05-02T16:11:46.045Z</time></trkpt><trkpt lat="44.0459898" lon="7.7750814"><ele>1776.0</ele><time>2026-05-02T16:11:47.046Z</time></trkpt><trkpt lat="44.0460762" lon="7.7750349"><ele>1775.0</ele><time>2026-05-02T16:11:48.045Z</time></trkpt><trkpt lat="44.0461634" lon="7.7749982"><ele>1774.9999999999998</ele><time>2026-05-02T16:11:49.045Z</time></trkpt><trkpt lat="44.0462416" lon="7.7750121"><ele>1775.0</ele><time>2026-05-02T16:11:50.045Z</time></trkpt><trkpt lat="44.046318" lon="7.7750263"><ele>1775.0</ele><time>2026-05-02T16:11:51.045Z</time></trkpt><trkpt lat="44.0463963" lon="7.7750432"><ele>1775.0</ele><time>2026-05-02T16:11:52.045Z</time></trkpt><trkpt lat="44.0464752" lon="7.7750559"><ele>1774.9999999999998</ele><time>2026-05-02T16:11:53.045Z</time></trkpt><trkpt lat="44.0465549" lon="7.7750668"><ele>1775.0</ele><time>2026-05-02T16:11:54.045Z</time></trkpt><trkpt lat="44.0466392" lon="7.7750621"><ele>1773.2</ele><time>2026-05-02T16:11:55.045Z</time></trkpt><trkpt lat="44.0467336" lon="7.7750476"><ele>1771.4</ele><time>2026-05-02T16:11:56.045Z</time></trkpt><trkpt lat="44.0468379" lon="7.7750301"><ele>1769.6</ele><time>2026-05-02T16:11:57.045Z</time></trkpt><trkpt lat="44.0469364" lon="7.775012"><ele>1767.8</ele><time>2026-05-02T16:11:58.045Z</time></trkpt><trkpt lat="44.0470281" lon="7.7749936"><ele>1766.0</ele><time>2026-05-02T16:11:59.046Z</time></trkpt><trkpt lat="44.0471191" lon="7.7749779"><ele>1765.9999999999998</ele><time>2026-05-02T16:12:00.046Z</time></trkpt><trkpt lat="44.0472089" lon="7.7749729"><ele>1766.0</ele><time>2026-05-02T16:12:01.045Z</time></trkpt><trkpt lat="44.0472849" lon="7.7749813"><ele>1766.0</ele><time>2026-05-02T16:12:02.045Z</time></trkpt><trkpt lat="44.0473537" lon="7.775"><ele>1766.0</ele><time>2026-05-02T16:12:03.045Z</time></trkpt><trkpt lat="44.047419" lon="7.7750354"><ele>1765.9999999999998</ele><time>2026-05-02T16:12:04.045Z</time></trkpt><trkpt lat="44.0474791" lon="7.7750974"><ele>1766.0</ele><time>2026-05-02T16:12:05.045Z</time></trkpt><trkpt lat="44.04752" lon="7.7751884"><ele>1762.1666666666665</ele><time>2026-05-02T16:12:06.045Z</time></trkpt><trkpt lat="44.0475655" lon="7.7752922"><ele>1758.3333333333333</ele><time>2026-05-02T16:12:07.045Z</time></trkpt><trkpt lat="44.0476167" lon="7.7753914"><ele>1754.5</ele><time>2026-05-02T16:12:08.045Z</time></trkpt><trkpt lat="44.0476619" lon="7.7754826"><ele>1750.6666666666665</ele><time>2026-05-02T16:12:09.045Z</time></trkpt><trkpt lat="44.0476948" lon="7.7755742"><ele>1746.8333333333333</ele><time>2026-05-02T16:12:10.045Z</time></trkpt><trkpt lat="44.0477119" lon="7.7757166"><ele>1743.0</ele><time>2026-05-02T16:12:12.046Z</time></trkpt><trkpt lat="44.0477412" lon="7.775895"><ele>1743.0</ele><time>2026-05-02T16:12:14.045Z</time></trkpt><trkpt lat="44.0477795" lon="7.7759896"><ele>1743.0</ele><time>2026-05-02T16:12:15.045Z</time></trkpt><trkpt lat="44.047833" lon="7.7760821"><ele>1743.0</ele><time>2026-05-02T16:12:17.045Z</time></trkpt><trkpt lat="44.0479073" lon="7.7761784"><ele>1743.0</ele><time>2026-05-02T16:12:19.045Z</time></trkpt><trkpt lat="44.0479576" lon="7.7762575"><ele>1743.0</ele><time>2026-05-02T16:12:20.046Z</time></trkpt><trkpt lat="44.0480098" lon="7.7763386"><ele>1743.0</ele><time>2026-05-02T16:12:22.045Z</time></trkpt><trkpt lat="44.0480547" lon="7.7764398"><ele>1743.0</ele><time>2026-05-02T16:12:24.045Z</time></trkpt><trkpt lat="44.0481169" lon="7.7765843"><ele>1743.0</ele><time>2026-05-02T16:12:26.045Z</time></trkpt><trkpt lat="44.0481691" lon="7.7766643"><ele>1743.0</ele><time>2026-05-02T16:12:27.045Z</time></trkpt><trkpt lat="44.0482329" lon="7.7767389"><ele>1743.0</ele><time>2026-05-02T16:12:28.045Z</time></trkpt><trkpt lat="44.0483034" lon="7.7767977"><ele>1743.0</ele><time>2026-05-02T16:12:29.045Z</time></trkpt><trkpt lat="44.0483754" lon="7.7768472"><ele>1743.0</ele><time>2026-05-02T16:12:30.045Z</time></trkpt><trkpt lat="44.0484375" lon="7.7768801"><ele>1738.0</ele><time>2026-05-02T16:12:31.045Z</time></trkpt><trkpt lat="44.0485176" lon="7.7769392"><ele>1733.0</ele><time>2026-05-02T16:12:33.045Z</time></trkpt><trkpt lat="44.0485965" lon="7.7769965"><ele>1728.0</ele><time>2026-05-02T16:12:35.045Z</time></trkpt><trkpt lat="44.0486542" lon="7.777045"><ele>1723.0</ele><time>2026-05-02T16:12:36.046Z</time></trkpt><trkpt lat="44.048722" lon="7.7771006"><ele>1718.0</ele><time>2026-05-02T16:12:37.045Z</time></trkpt><trkpt lat="44.0487846" lon="7.7771418"><ele>1713.0</ele><time>2026-05-02T16:12:38.045Z</time></trkpt><trkpt lat="44.0488498" lon="7.7771765"><ele>1713.0</ele><time>2026-05-02T16:12:39.046Z</time></trkpt><trkpt lat="44.0489207" lon="7.7772092"><ele>1713.0</ele><time>2026-05-02T16:12:40.045Z</time></trkpt><trkpt lat="44.0489934" lon="7.7772205"><ele>1713.0</ele><time>2026-05-02T16:12:41.045Z</time></trkpt><trkpt lat="44.049066" lon="7.7772142"><ele>1713.0</ele><time>2026-05-02T16:12:42.045Z</time></trkpt><trkpt lat="44.0491436" lon="7.7772026"><ele>1713.0</ele><time>2026-05-02T16:12:43.045Z</time></trkpt><trkpt lat="44.0492099" lon="7.7771944"><ele>1713.0</ele><time>2026-05-02T16:12:44.045Z</time></trkpt><trkpt lat="44.0493093" lon="7.7772308"><ele>1714.2857142857142</ele><time>2026-05-02T16:12:46.045Z</time></trkpt><trkpt lat="44.0493676" lon="7.777283"><ele>1715.5714285714287</ele><time>2026-05-02T16:12:47.045Z</time></trkpt><trkpt lat="44.0494325" lon="7.7773375"><ele>1716.857142857143</ele><time>2026-05-02T16:12:48.046Z</time></trkpt><trkpt lat="44.0494973" lon="7.7773806"><ele>1718.142857142857</ele><time>2026-05-02T16:12:49.045Z</time></trkpt><trkpt lat="44.0495613" lon="7.7774129"><ele>1719.4285714285716</ele><time>2026-05-02T16:12:50.045Z</time></trkpt><trkpt lat="44.0496302" lon="7.7774456"><ele>1720.7142857142858</ele><time>2026-05-02T16:12:51.045Z</time></trkpt><trkpt lat="44.0496952" lon="7.7774947"><ele>1722.0</ele><time>2026-05-02T16:12:52.046Z</time></trkpt><trkpt lat="44.0497567" lon="7.7775494"><ele>1722.0</ele><time>2026-05-02T16:12:53.045Z</time></trkpt><trkpt lat="44.0498154" lon="7.7776089"><ele>1722.0</ele><time>2026-05-02T16:12:54.045Z</time></trkpt><trkpt lat="44.0498713" lon="7.7776816"><ele>1722.0</ele><time>2026-05-02T16:12:55.045Z</time></trkpt><trkpt lat="44.0499446" lon="7.7777551"><ele>1722.0</ele><time>2026-05-02T16:12:56.046Z</time></trkpt><trkpt lat="44.0500151" lon="7.7778146"><ele>1722.0</ele><time>2026-05-02T16:12:57.045Z</time></trkpt><trkpt lat="44.0500773" lon="7.7778644"><ele>1722.0</ele><time>2026-05-02T16:12:58.045Z</time></trkpt><trkpt lat="44.050141" lon="7.7779125"><ele>1719.1666666666667</ele><time>2026-05-02T16:12:59.045Z</time></trkpt><trkpt lat="44.0502393" lon="7.7779611"><ele>1716.3333333333335</ele><time>2026-05-02T16:13:01.046Z</time></trkpt><trkpt lat="44.0503085" lon="7.7779949"><ele>1713.5</ele><time>2026-05-02T16:13:02.046Z</time></trkpt><trkpt lat="44.050369" lon="7.778029"><ele>1710.6666666666667</ele><time>2026-05-02T16:13:03.045Z</time></trkpt><trkpt lat="44.0504329" lon="7.7780736"><ele>1707.8333333333335</ele><time>2026-05-02T16:13:05.045Z</time></trkpt><trkpt lat="44.0505412" lon="7.7781636"><ele>1705.0</ele><time>2026-05-02T16:13:07.045Z</time></trkpt><trkpt lat="44.0506007" lon="7.7782042"><ele>1705.0000000000002</ele><time>2026-05-02T16:13:08.045Z</time></trkpt><trkpt lat="44.0506637" lon="7.778241"><ele>1705.0</ele><time>2026-05-02T16:13:09.045Z</time></trkpt><trkpt lat="44.0507316" lon="7.7782531"><ele>1705.0</ele><time>2026-05-02T16:13:10.045Z</time></trkpt><trkpt lat="44.0508165" lon="7.7782441"><ele>1705.0</ele><time>2026-05-02T16:13:11.045Z</time></trkpt><trkpt lat="44.0508956" lon="7.7782151"><ele>1705.0000000000002</ele><time>2026-05-02T16:13:12.046Z</time></trkpt><trkpt lat="44.050984" lon="7.7781767"><ele>1705.0</ele><time>2026-05-02T16:13:13.045Z</time></trkpt><trkpt lat="44.0510659" lon="7.778141"><ele>1705.1666666666667</ele><time>2026-05-02T16:13:14.045Z</time></trkpt><trkpt lat="44.0511398" lon="7.77813"><ele>1705.3333333333335</ele><time>2026-05-02T16:13:15.045Z</time></trkpt><trkpt lat="44.0512205" lon="7.7781199"><ele>1705.5</ele><time>2026-05-02T16:13:16.046Z</time></trkpt><trkpt lat="44.0512942" lon="7.7781229"><ele>1705.6666666666665</ele><time>2026-05-02T16:13:17.046Z</time></trkpt><trkpt lat="44.0513712" lon="7.7781261"><ele>1705.8333333333333</ele><time>2026-05-02T16:13:18.045Z</time></trkpt><trkpt lat="44.0514451" lon="7.7781115"><ele>1706.0</ele><time>2026-05-02T16:13:19.045Z</time></trkpt><trkpt lat="44.0515178" lon="7.7780655"><ele>1705.9999999999998</ele><time>2026-05-02T16:13:20.045Z</time></trkpt><trkpt lat="44.0515885" lon="7.7779954"><ele>1706.0</ele><time>2026-05-02T16:13:21.046Z</time></trkpt><trkpt lat="44.0516531" lon="7.7779082"><ele>1706.0</ele><time>2026-05-02T16:13:22.045Z</time></trkpt><trkpt lat="44.0517072" lon="7.7778045"><ele>1706.0</ele><time>2026-05-02T16:13:23.045Z</time></trkpt><trkpt lat="44.0517582" lon="7.7777008"><ele>1705.9999999999998</ele><time>2026-05-02T16:13:24.045Z</time></trkpt><trkpt lat="44.0518129" lon="7.7776036"><ele>1706.0</ele><time>2026-05-02T16:13:25.046Z</time></trkpt><trkpt lat="44.0518688" lon="7.7775188"><ele>1706.3333333333333</ele><time>2026-05-02T16:13:26.045Z</time></trkpt><trkpt lat="44.0519259" lon="7.7774296"><ele>1706.6666666666665</ele><time>2026-05-02T16:13:27.045Z</time></trkpt><trkpt lat="44.0519881" lon="7.7773483"><ele>1707.0</ele><time>2026-05-02T16:13:28.045Z</time></trkpt><trkpt lat="44.0520445" lon="7.7772523"><ele>1707.3333333333335</ele><time>2026-05-02T16:13:29.045Z</time></trkpt><trkpt lat="44.052102" lon="7.7771537"><ele>1707.6666666666667</ele><time>2026-05-02T16:13:30.045Z</time></trkpt><trkpt lat="44.0521394" lon="7.7770424"><ele>1708.0</ele><time>2026-05-02T16:13:31.046Z</time></trkpt><trkpt lat="44.0521716" lon="7.7769337"><ele>1709.5000000000002</ele><time>2026-05-02T16:13:32.046Z</time></trkpt><trkpt lat="44.0522052" lon="7.7768107"><ele>1711.0</ele><time>2026-05-02T16:13:33.045Z</time></trkpt><trkpt lat="44.0522366" lon="7.7766987"><ele>1712.5</ele><time>2026-05-02T16:13:34.045Z</time></trkpt><trkpt lat="44.0522558" lon="7.7765774"><ele>1714.0</ele><time>2026-05-02T16:13:35.045Z</time></trkpt><trkpt lat="44.0522717" lon="7.7764494"><ele>1715.5000000000002</ele><time>2026-05-02T16:13:36.045Z</time></trkpt><trkpt lat="44.0522802" lon="7.7763338"><ele>1717.0</ele><time>2026-05-02T16:13:37.045Z</time></trkpt><trkpt lat="44.0522855" lon="7.7762249"><ele>1717.0000000000002</ele><time>2026-05-02T16:13:38.046Z</time></trkpt><trkpt lat="44.0522972" lon="7.7761138"><ele>1717.0</ele><time>2026-05-02T16:13:39.045Z</time></trkpt><trkpt lat="44.0523069" lon="7.7759784"><ele>1717.0</ele><time>2026-05-02T16:13:40.045Z</time></trkpt><trkpt lat="44.0523095" lon="7.775878"><ele>1717.0</ele><time>2026-05-02T16:13:41.046Z</time></trkpt><trkpt lat="44.0523146" lon="7.7757483"><ele>1717.0000000000002</ele><time>2026-05-02T16:13:42.045Z</time></trkpt><trkpt lat="44.0523435" lon="7.7756621"><ele>1717.0</ele><time>2026-05-02T16:13:43.045Z</time></trkpt><trkpt lat="44.0523507" lon="7.7755596"><ele>1719.1666666666667</ele><time>2026-05-02T16:13:44.045Z</time></trkpt><trkpt lat="44.0523797" lon="7.7754632"><ele>1721.3333333333335</ele><time>2026-05-02T16:13:45.045Z</time></trkpt><trkpt lat="44.0524306" lon="7.7753686"><ele>1723.5</ele><time>2026-05-02T16:13:46.045Z</time></trkpt><trkpt lat="44.0524818" lon="7.7752885"><ele>1725.6666666666665</ele><time>2026-05-02T16:13:47.046Z</time></trkpt><trkpt lat="44.052539" lon="7.7752311"><ele>1727.8333333333333</ele><time>2026-05-02T16:13:48.045Z</time></trkpt><trkpt lat="44.0526297" lon="7.7752045"><ele>1730.0</ele><time>2026-05-02T16:13:49.045Z</time></trkpt><trkpt lat="44.052694" lon="7.7751767"><ele>1724.6666666666665</ele><time>2026-05-02T16:13:50.045Z</time></trkpt><trkpt lat="44.0527649" lon="7.7751516"><ele>1719.3333333333333</ele><time>2026-05-02T16:13:51.045Z</time></trkpt><trkpt lat="44.0528379" lon="7.7751176"><ele>1714.0</ele><time>2026-05-02T16:13:52.045Z</time></trkpt><trkpt lat="44.0529133" lon="7.7750673"><ele>1708.6666666666665</ele><time>2026-05-02T16:13:53.046Z</time></trkpt><trkpt lat="44.0529933" lon="7.77499"><ele>1703.3333333333333</ele><time>2026-05-02T16:13:54.045Z</time></trkpt><trkpt lat="44.0530561" lon="7.7749089"><ele>1698.0</ele><time>2026-05-02T16:13:55.046Z</time></trkpt><trkpt lat="44.0531067" lon="7.7748176"><ele>1698.0</ele><time>2026-05-02T16:13:56.045Z</time></trkpt><trkpt lat="44.0531668" lon="7.774703"><ele>1698.0</ele><time>2026-05-02T16:13:57.045Z</time></trkpt><trkpt lat="44.0532093" lon="7.7745914"><ele>1698.0</ele><time>2026-05-02T16:13:58.046Z</time></trkpt><trkpt lat="44.0532542" lon="7.7744877"><ele>1698.0</ele><time>2026-05-02T16:13:59.045Z</time></trkpt><trkpt lat="44.0532965" lon="7.7743992"><ele>1698.0</ele><time>2026-05-02T16:14:00.046Z</time></trkpt><trkpt lat="44.0533218" lon="7.7743165"><ele>1698.0</ele><time>2026-05-02T16:14:01.045Z</time></trkpt><trkpt lat="44.0533582" lon="7.774221"><ele>1695.3333333333333</ele><time>2026-05-02T16:14:02.045Z</time></trkpt><trkpt lat="44.0534132" lon="7.7740869"><ele>1692.6666666666665</ele><time>2026-05-02T16:14:04.045Z</time></trkpt><trkpt lat="44.0535008" lon="7.7740039"><ele>1690.0</ele><time>2026-05-02T16:14:06.045Z</time></trkpt><trkpt lat="44.0535602" lon="7.7739293"><ele>1687.3333333333333</ele><time>2026-05-02T16:14:07.045Z</time></trkpt><trkpt lat="44.0536087" lon="7.7738718"><ele>1684.6666666666665</ele><time>2026-05-02T16:14:08.046Z</time></trkpt><trkpt lat="44.0536895" lon="7.7738443"><ele>1682.0</ele><time>2026-05-02T16:14:10.045Z</time></trkpt><trkpt lat="44.0538063" lon="7.773858"><ele>1682.0</ele><time>2026-05-02T16:14:12.046Z</time></trkpt><trkpt lat="44.053856" lon="7.7739224"><ele>1682.0</ele><time>2026-05-02T16:14:13.045Z</time></trkpt><trkpt lat="44.0539116" lon="7.7740244"><ele>1682.0</ele><time>2026-05-02T16:14:14.045Z</time></trkpt><trkpt lat="44.0539951" lon="7.7741542"><ele>1682.0</ele><time>2026-05-02T16:14:16.045Z</time></trkpt><trkpt lat="44.0540702" lon="7.7743084"><ele>1682.0</ele><time>2026-05-02T16:14:18.046Z</time></trkpt><trkpt lat="44.0541535" lon="7.7743972"><ele>1675.1666666666665</ele><time>2026-05-02T16:14:20.045Z</time></trkpt><trkpt lat="44.0542239" lon="7.7744238"><ele>1668.3333333333333</ele><time>2026-05-02T16:14:21.046Z</time></trkpt><trkpt lat="44.054307" lon="7.7744336"><ele>1661.5</ele><time>2026-05-02T16:14:22.045Z</time></trkpt><trkpt lat="44.0543841" lon="7.7744496"><ele>1654.6666666666665</ele><time>2026-05-02T16:14:23.046Z</time></trkpt><trkpt lat="44.0544506" lon="7.7744779"><ele>1647.8333333333333</ele><time>2026-05-02T16:14:24.045Z</time></trkpt><trkpt lat="44.0545644" lon="7.7745503"><ele>1641.0</ele><time>2026-05-02T16:14:26.045Z</time></trkpt><trkpt lat="44.0546495" lon="7.7746125"><ele>1641.0</ele><time>2026-05-02T16:14:27.045Z</time></trkpt><trkpt lat="44.0547414" lon="7.7746509"><ele>1641.0</ele><time>2026-05-02T16:14:28.045Z</time></trkpt><trkpt lat="44.0548245" lon="7.7746902"><ele>1641.0</ele><time>2026-05-02T16:14:29.045Z</time></trkpt><trkpt lat="44.0549097" lon="7.7747393"><ele>1641.0</ele><time>2026-05-02T16:14:30.046Z</time></trkpt><trkpt lat="44.0549854" lon="7.7747961"><ele>1641.0</ele><time>2026-05-02T16:14:31.046Z</time></trkpt><trkpt lat="44.0550622" lon="7.7748479"><ele>1641.0</ele><time>2026-05-02T16:14:32.045Z</time></trkpt><trkpt lat="44.0551265" lon="7.7749024"><ele>1642.8333333333333</ele><time>2026-05-02T16:14:33.045Z</time></trkpt><trkpt lat="44.0551751" lon="7.775"><ele>1644.6666666666665</ele><time>2026-05-02T16:14:34.045Z</time></trkpt><trkpt lat="44.0552479" lon="7.7750789"><ele>1646.5</ele><time>2026-05-02T16:14:35.045Z</time></trkpt><trkpt lat="44.0553157" lon="7.7751395"><ele>1648.3333333333333</ele><time>2026-05-02T16:14:36.046Z</time></trkpt><trkpt lat="44.0553879" lon="7.7751928"><ele>1650.1666666666665</ele><time>2026-05-02T16:14:37.046Z</time></trkpt><trkpt lat="44.0554478" lon="7.7752307"><ele>1652.0</ele><time>2026-05-02T16:14:38.046Z</time></trkpt><trkpt lat="44.0555119" lon="7.7752549"><ele>1652.0</ele><time>2026-05-02T16:14:39.047Z</time></trkpt><trkpt lat="44.0556371" lon="7.7752723"><ele>1652.0</ele><time>2026-05-02T16:14:41.045Z</time></trkpt><trkpt lat="44.0557108" lon="7.7752214"><ele>1652.0</ele><time>2026-05-02T16:14:42.045Z</time></trkpt><trkpt lat="44.0557854" lon="7.7751675"><ele>1652.0</ele><time>2026-05-02T16:14:43.045Z</time></trkpt><trkpt lat="44.0558596" lon="7.7750856"><ele>1652.0</ele><time>2026-05-02T16:14:44.045Z</time></trkpt><trkpt lat="44.055934" lon="7.7750181"><ele>1651.1999999999998</ele><time>2026-05-02T16:14:45.045Z</time></trkpt><trkpt lat="44.0560003" lon="7.7749471"><ele>1650.4</ele><time>2026-05-02T16:14:46.045Z</time></trkpt><trkpt lat="44.0560537" lon="7.7748678"><ele>1649.6</ele><time>2026-05-02T16:14:47.045Z</time></trkpt><trkpt lat="44.0561143" lon="7.7748058"><ele>1648.8000000000002</ele><time>2026-05-02T16:14:48.045Z</time></trkpt><trkpt lat="44.0562155" lon="7.7747064"><ele>1648.0</ele><time>2026-05-02T16:14:49.045Z</time></trkpt><trkpt lat="44.0562886" lon="7.7746358"><ele>1648.0</ele><time>2026-05-02T16:14:50.046Z</time></trkpt><trkpt lat="44.0563711" lon="7.7745403"><ele>1648.0</ele><time>2026-05-02T16:14:51.045Z</time></trkpt><trkpt lat="44.0564606" lon="7.7744729"><ele>1648.0</ele><time>2026-05-02T16:14:52.045Z</time></trkpt><trkpt lat="44.0565526" lon="7.7744203"><ele>1648.0</ele><time>2026-05-02T16:14:53.045Z</time></trkpt><trkpt lat="44.0566482" lon="7.774364"><ele>1648.0</ele><time>2026-05-02T16:14:54.045Z</time></trkpt><trkpt lat="44.0567333" lon="7.7742986"><ele>1647.3333333333335</ele><time>2026-05-02T16:14:55.045Z</time></trkpt><trkpt lat="44.0568042" lon="7.774258"><ele>1646.6666666666667</ele><time>2026-05-02T16:14:56.045Z</time></trkpt><trkpt lat="44.0568814" lon="7.7742097"><ele>1646.0</ele><time>2026-05-02T16:14:57.046Z</time></trkpt><trkpt lat="44.0569564" lon="7.7741928"><ele>1645.3333333333335</ele><time>2026-05-02T16:14:58.045Z</time></trkpt><trkpt lat="44.0570269" lon="7.7741963"><ele>1644.6666666666667</ele><time>2026-05-02T16:14:59.045Z</time></trkpt><trkpt lat="44.0571045" lon="7.7741824"><ele>1644.0</ele><time>2026-05-02T16:15:00.045Z</time></trkpt><trkpt lat="44.0571809" lon="7.7741711"><ele>1644.0</ele><time>2026-05-02T16:15:01.046Z</time></trkpt><trkpt lat="44.0572417" lon="7.7741163"><ele>1644.0</ele><time>2026-05-02T16:15:02.046Z</time></trkpt><trkpt lat="44.0573077" lon="7.774061"><ele>1644.0</ele><time>2026-05-02T16:15:03.045Z</time></trkpt><trkpt lat="44.0573523" lon="7.7739742"><ele>1644.0</ele><time>2026-05-02T16:15:04.045Z</time></trkpt><trkpt lat="44.0574107" lon="7.7738935"><ele>1644.0</ele><time>2026-05-02T16:15:05.046Z</time></trkpt><trkpt lat="44.0574642" lon="7.7738133"><ele>1644.0</ele><time>2026-05-02T16:15:06.045Z</time></trkpt><trkpt lat="44.0575301" lon="7.7737513"><ele>1640.5</ele><time>2026-05-02T16:15:07.045Z</time></trkpt><trkpt lat="44.0575993" lon="7.7736942"><ele>1637.0</ele><time>2026-05-02T16:15:08.045Z</time></trkpt><trkpt lat="44.0576756" lon="7.7736581"><ele>1633.5</ele><time>2026-05-02T16:15:09.045Z</time></trkpt><trkpt lat="44.0577543" lon="7.7736489"><ele>1630.0</ele><time>2026-05-02T16:15:10.046Z</time></trkpt><trkpt lat="44.0578442" lon="7.7736616"><ele>1626.5</ele><time>2026-05-02T16:15:11.045Z</time></trkpt><trkpt lat="44.0579312" lon="7.7736996"><ele>1623.0</ele><time>2026-05-02T16:15:12.045Z</time></trkpt><trkpt lat="44.0580145" lon="7.7737398"><ele>1623.0</ele><time>2026-05-02T16:15:13.045Z</time></trkpt><trkpt lat="44.0580913" lon="7.7737786"><ele>1623.0</ele><time>2026-05-02T16:15:14.046Z</time></trkpt><trkpt lat="44.0581529" lon="7.7738143"><ele>1623.0</ele><time>2026-05-02T16:15:15.045Z</time></trkpt><trkpt lat="44.0582785" lon="7.773824"><ele>1623.0</ele><time>2026-05-02T16:15:17.045Z</time></trkpt><trkpt lat="44.058347" lon="7.7737492"><ele>1623.0</ele><time>2026-05-02T16:15:19.045Z</time></trkpt><trkpt lat="44.0583608" lon="7.7736604"><ele>1623.0</ele><time>2026-05-02T16:15:20.046Z</time></trkpt><trkpt lat="44.0583505" lon="7.7735531"><ele>1623.1666666666667</ele><time>2026-05-02T16:15:21.045Z</time></trkpt><trkpt lat="44.0583403" lon="7.7734427"><ele>1623.3333333333335</ele><time>2026-05-02T16:15:22.045Z</time></trkpt><trkpt lat="44.0583298" lon="7.77335"><ele>1623.5</ele><time>2026-05-02T16:15:23.045Z</time></trkpt><trkpt lat="44.0583383" lon="7.7731936"><ele>1623.6666666666667</ele><time>2026-05-02T16:15:25.045Z</time></trkpt><trkpt lat="44.0584022" lon="7.7731775"><ele>1623.8333333333335</ele><time>2026-05-02T16:15:26.045Z</time></trkpt><trkpt lat="44.0585146" lon="7.773213"><ele>1624.0</ele><time>2026-05-02T16:15:28.046Z</time></trkpt><trkpt lat="44.0585672" lon="7.7732751"><ele>1624.0000000000002</ele><time>2026-05-02T16:15:29.045Z</time></trkpt><trkpt lat="44.0586361" lon="7.7733298"><ele>1624.0</ele><time>2026-05-02T16:15:30.045Z</time></trkpt><trkpt lat="44.0587085" lon="7.7733917"><ele>1624.0</ele><time>2026-05-02T16:15:31.045Z</time></trkpt><trkpt lat="44.0587818" lon="7.773446"><ele>1624.0</ele><time>2026-05-02T16:15:32.045Z</time></trkpt><trkpt lat="44.0588483" lon="7.7734674"><ele>1624.0000000000002</ele><time>2026-05-02T16:15:33.045Z</time></trkpt><trkpt lat="44.0589123" lon="7.773472"><ele>1624.0</ele><time>2026-05-02T16:15:34.045Z</time></trkpt><trkpt lat="44.0589956" lon="7.7734014"><ele>1624.0</ele><time>2026-05-02T16:15:36.045Z</time></trkpt><trkpt lat="44.0590139" lon="7.7732228"><ele>1624.0</ele><time>2026-05-02T16:15:38.045Z</time></trkpt><trkpt lat="44.059018" lon="7.7731018"><ele>1624.0</ele><time>2026-05-02T16:15:39.045Z</time></trkpt><trkpt lat="44.0590348" lon="7.7729811"><ele>1624.0</ele><time>2026-05-02T16:15:40.046Z</time></trkpt><trkpt lat="44.0590653" lon="7.7728799"><ele>1624.0</ele><time>2026-05-02T16:15:41.046Z</time></trkpt><trkpt lat="44.0591073" lon="7.7728045"><ele>1620.4</ele><time>2026-05-02T16:15:42.045Z</time></trkpt><trkpt lat="44.0592049" lon="7.772754"><ele>1616.8000000000002</ele><time>2026-05-02T16:15:44.045Z</time></trkpt><trkpt lat="44.0593026" lon="7.7727978"><ele>1613.1999999999998</ele><time>2026-05-02T16:15:46.045Z</time></trkpt><trkpt lat="44.0593662" lon="7.7728717"><ele>1609.6</ele><time>2026-05-02T16:15:47.045Z</time></trkpt><trkpt lat="44.0594364" lon="7.7729622"><ele>1606.0</ele><time>2026-05-02T16:15:48.045Z</time></trkpt><trkpt lat="44.0595057" lon="7.7730438"><ele>1606.0</ele><time>2026-05-02T16:15:49.046Z</time></trkpt><trkpt lat="44.0595681" lon="7.7731383"><ele>1606.0</ele><time>2026-05-02T16:15:50.045Z</time></trkpt><trkpt lat="44.0596224" lon="7.7732533"><ele>1606.0</ele><time>2026-05-02T16:15:51.045Z</time></trkpt><trkpt lat="44.0596696" lon="7.7733725"><ele>1606.0</ele><time>2026-05-02T16:15:52.045Z</time></trkpt><trkpt lat="44.0597144" lon="7.7734823"><ele>1606.0</ele><time>2026-05-02T16:15:53.045Z</time></trkpt><trkpt lat="44.0597624" lon="7.7735984"><ele>1602.6</ele><time>2026-05-02T16:15:54.045Z</time></trkpt><trkpt lat="44.0598107" lon="7.7737276"><ele>1599.1999999999998</ele><time>2026-05-02T16:15:55.045Z</time></trkpt><trkpt lat="44.0598513" lon="7.7738567"><ele>1595.8000000000002</ele><time>2026-05-02T16:15:56.045Z</time></trkpt><trkpt lat="44.0598866" lon="7.7739764"><ele>1592.4</ele><time>2026-05-02T16:15:57.045Z</time></trkpt><trkpt lat="44.0599116" lon="7.7740968"><ele>1589.0</ele><time>2026-05-02T16:15:58.045Z</time></trkpt><trkpt lat="44.0599353" lon="7.7742177"><ele>1587.4</ele><time>2026-05-02T16:15:59.045Z</time></trkpt><trkpt lat="44.0599547" lon="7.7743284"><ele>1585.8000000000002</ele><time>2026-05-02T16:16:00.046Z</time></trkpt><trkpt lat="44.0600225" lon="7.7744691"><ele>1584.1999999999998</ele><time>2026-05-02T16:16:02.045Z</time></trkpt><trkpt lat="44.0600919" lon="7.774503"><ele>1582.6</ele><time>2026-05-02T16:16:03.045Z</time></trkpt><trkpt lat="44.0601749" lon="7.774522"><ele>1581.0</ele><time>2026-05-02T16:16:04.045Z</time></trkpt><trkpt lat="44.0602673" lon="7.7745374"><ele>1581.0</ele><time>2026-05-02T16:16:05.045Z</time></trkpt><trkpt lat="44.0603585" lon="7.774559"><ele>1581.0</ele><time>2026-05-02T16:16:06.046Z</time></trkpt><trkpt lat="44.0604334" lon="7.7745747"><ele>1581.0</ele><time>2026-05-02T16:16:07.046Z</time></trkpt><trkpt lat="44.0605068" lon="7.774588"><ele>1581.0</ele><time>2026-05-02T16:16:08.046Z</time></trkpt><trkpt lat="44.060578" lon="7.7745956"><ele>1581.0</ele><time>2026-05-02T16:16:09.046Z</time></trkpt><trkpt lat="44.0606882" lon="7.7745555"><ele>1581.0</ele><time>2026-05-02T16:16:11.046Z</time></trkpt><trkpt lat="44.0607678" lon="7.7745827"><ele>1581.0</ele><time>2026-05-02T16:16:13.045Z</time></trkpt><trkpt lat="44.0607803" lon="7.7747259"><ele>1581.0</ele><time>2026-05-02T16:16:15.045Z</time></trkpt><trkpt lat="44.0607631" lon="7.7748208"><ele>1581.0</ele><time>2026-05-02T16:16:16.045Z</time></trkpt><trkpt lat="44.0607334" lon="7.7749275"><ele>1581.0</ele><time>2026-05-02T16:16:17.045Z</time></trkpt><trkpt lat="44.0606961" lon="7.7750303"><ele>1581.0</ele><time>2026-05-02T16:16:18.045Z</time></trkpt><trkpt lat="44.0606535" lon="7.7751284"><ele>1581.0</ele><time>2026-05-02T16:16:19.045Z</time></trkpt><trkpt lat="44.0606123" lon="7.7752213"><ele>1577.6666666666667</ele><time>2026-05-02T16:16:20.045Z</time></trkpt><trkpt lat="44.06058" lon="7.7753114"><ele>1574.3333333333335</ele><time>2026-05-02T16:16:21.045Z</time></trkpt><trkpt lat="44.0605547" lon="7.7753927"><ele>1571.0</ele><time>2026-05-02T16:16:22.045Z</time></trkpt><trkpt lat="44.0605279" lon="7.7754826"><ele>1567.6666666666667</ele><time>2026-05-02T16:16:23.045Z</time></trkpt><trkpt lat="44.0605079" lon="7.7755932"><ele>1564.3333333333335</ele><time>2026-05-02T16:16:24.045Z</time></trkpt><trkpt lat="44.0604963" lon="7.7757135"><ele>1561.0</ele><time>2026-05-02T16:16:25.045Z</time></trkpt><trkpt lat="44.0604954" lon="7.7758267"><ele>1561.0000000000002</ele><time>2026-05-02T16:16:26.045Z</time></trkpt><trkpt lat="44.0605019" lon="7.7759341"><ele>1561.0</ele><time>2026-05-02T16:16:27.045Z</time></trkpt><trkpt lat="44.0605137" lon="7.7760398"><ele>1561.0</ele><time>2026-05-02T16:16:28.045Z</time></trkpt><trkpt lat="44.060531" lon="7.7761414"><ele>1561.0</ele><time>2026-05-02T16:16:29.045Z</time></trkpt><trkpt lat="44.0605549" lon="7.7762485"><ele>1561.0000000000002</ele><time>2026-05-02T16:16:30.045Z</time></trkpt><trkpt lat="44.0605832" lon="7.776376"><ele>1561.0</ele><time>2026-05-02T16:16:31.046Z</time></trkpt><trkpt lat="44.0606172" lon="7.7765127"><ele>1559.0</ele><time>2026-05-02T16:16:32.046Z</time></trkpt><trkpt lat="44.0606556" lon="7.7766517"><ele>1557.0</ele><time>2026-05-02T16:16:33.045Z</time></trkpt><trkpt lat="44.0607025" lon="7.7767765"><ele>1555.0</ele><time>2026-05-02T16:16:34.046Z</time></trkpt><trkpt lat="44.0607533" lon="7.7768907"><ele>1553.0</ele><time>2026-05-02T16:16:35.045Z</time></trkpt><trkpt lat="44.0608046" lon="7.7769973"><ele>1551.0</ele><time>2026-05-02T16:16:36.045Z</time></trkpt><trkpt lat="44.0608555" lon="7.7770986"><ele>1552.5</ele><time>2026-05-02T16:16:37.045Z</time></trkpt><trkpt lat="44.0609036" lon="7.7771919"><ele>1554.0</ele><time>2026-05-02T16:16:38.045Z</time></trkpt><trkpt lat="44.060951" lon="7.7772785"><ele>1555.5</ele><time>2026-05-02T16:16:39.046Z</time></trkpt><trkpt lat="44.0610065" lon="7.777375"><ele>1557.0</ele><time>2026-05-02T16:16:40.046Z</time></trkpt><trkpt lat="44.061066" lon="7.7774816"><ele>1558.5</ele><time>2026-05-02T16:16:41.045Z</time></trkpt><trkpt lat="44.0611102" lon="7.7775851"><ele>1560.0</ele><time>2026-05-02T16:16:42.045Z</time></trkpt><trkpt lat="44.0611403" lon="7.777692"><ele>1560.0</ele><time>2026-05-02T16:16:43.045Z</time></trkpt><trkpt lat="44.0611562" lon="7.7777986"><ele>1560.0</ele><time>2026-05-02T16:16:44.045Z</time></trkpt><trkpt lat="44.0611491" lon="7.7779055"><ele>1560.0</ele><time>2026-05-02T16:16:45.045Z</time></trkpt><trkpt lat="44.0611428" lon="7.7780218"><ele>1560.0</ele><time>2026-05-02T16:16:46.045Z</time></trkpt><trkpt lat="44.0611424" lon="7.7781529"><ele>1560.0</ele><time>2026-05-02T16:16:47.046Z</time></trkpt><trkpt lat="44.0611465" lon="7.7782878"><ele>1560.0</ele><time>2026-05-02T16:16:48.045Z</time></trkpt><trkpt lat="44.061149" lon="7.7784177"><ele>1559.0</ele><time>2026-05-02T16:16:49.045Z</time></trkpt><trkpt lat="44.0611445" lon="7.778548"><ele>1558.0</ele><time>2026-05-02T16:16:50.045Z</time></trkpt><trkpt lat="44.061145" lon="7.7786827"><ele>1557.0</ele><time>2026-05-02T16:16:51.046Z</time></trkpt><trkpt lat="44.0611449" lon="7.7788241"><ele>1556.0</ele><time>2026-05-02T16:16:52.045Z</time></trkpt><trkpt lat="44.0611493" lon="7.7789789"><ele>1555.0</ele><time>2026-05-02T16:16:53.045Z</time></trkpt><trkpt lat="44.0611501" lon="7.7791239"><ele>1555.0</ele><time>2026-05-02T16:16:54.046Z</time></trkpt><trkpt lat="44.0611501" lon="7.7792533"><ele>1555.0</ele><time>2026-05-02T16:16:55.046Z</time></trkpt><trkpt lat="44.0611493" lon="7.7793818"><ele>1555.0</ele><time>2026-05-02T16:16:56.045Z</time></trkpt><trkpt lat="44.0611462" lon="7.7795256"><ele>1555.0</ele><time>2026-05-02T16:16:57.045Z</time></trkpt><trkpt lat="44.0611447" lon="7.7796618"><ele>1555.0</ele><time>2026-05-02T16:16:58.045Z</time></trkpt><trkpt lat="44.0611503" lon="7.7797954"><ele>1553.6</ele><time>2026-05-02T16:16:59.046Z</time></trkpt><trkpt lat="44.0611548" lon="7.7799221"><ele>1552.2</ele><time>2026-05-02T16:17:00.045Z</time></trkpt><trkpt lat="44.061156" lon="7.7800354"><ele>1550.8000000000002</ele><time>2026-05-02T16:17:01.045Z</time></trkpt><trkpt lat="44.0611571" lon="7.7801305"><ele>1549.4</ele><time>2026-05-02T16:17:02.045Z</time></trkpt><trkpt lat="44.0611862" lon="7.7802796"><ele>1548.0</ele><time>2026-05-02T16:17:04.045Z</time></trkpt><trkpt lat="44.0612997" lon="7.7803523"><ele>1547.5</ele><time>2026-05-02T16:17:06.045Z</time></trkpt><trkpt lat="44.0613811" lon="7.7803527"><ele>1547.0</ele><time>2026-05-02T16:17:07.045Z</time></trkpt><trkpt lat="44.0614594" lon="7.7803455"><ele>1546.5</ele><time>2026-05-02T16:17:08.045Z</time></trkpt><trkpt lat="44.0615476" lon="7.7803306"><ele>1546.0</ele><time>2026-05-02T16:17:09.045Z</time></trkpt><trkpt lat="44.0616402" lon="7.7803251"><ele>1545.5</ele><time>2026-05-02T16:17:10.045Z</time></trkpt><trkpt lat="44.0617329" lon="7.7803253"><ele>1545.0</ele><time>2026-05-02T16:17:11.045Z</time></trkpt><trkpt lat="44.0618296" lon="7.7803249"><ele>1545.0</ele><time>2026-05-02T16:17:12.045Z</time></trkpt><trkpt lat="44.061928" lon="7.7803166"><ele>1545.0</ele><time>2026-05-02T16:17:13.045Z</time></trkpt><trkpt lat="44.0620317" lon="7.7803013"><ele>1545.0</ele><time>2026-05-02T16:17:14.045Z</time></trkpt><trkpt lat="44.0621391" lon="7.7802757"><ele>1545.0</ele><time>2026-05-02T16:17:15.045Z</time></trkpt><trkpt lat="44.062242" lon="7.780252"><ele>1545.0</ele><time>2026-05-02T16:17:16.045Z</time></trkpt><trkpt lat="44.0623401" lon="7.780228"><ele>1545.0</ele><time>2026-05-02T16:17:17.045Z</time></trkpt><trkpt lat="44.0624354" lon="7.7801974"><ele>1545.0</ele><time>2026-05-02T16:17:18.046Z</time></trkpt><trkpt lat="44.0625237" lon="7.7801754"><ele>1545.0</ele><time>2026-05-02T16:17:19.047Z</time></trkpt><trkpt lat="44.0626115" lon="7.780146"><ele>1545.0</ele><time>2026-05-02T16:17:20.046Z</time></trkpt><trkpt lat="44.0626948" lon="7.7801229"><ele>1545.0</ele><time>2026-05-02T16:17:21.046Z</time></trkpt><trkpt lat="44.0627912" lon="7.7801056"><ele>1549.0</ele><time>2026-05-02T16:17:22.046Z</time></trkpt><trkpt lat="44.0628903" lon="7.7800851"><ele>1553.0</ele><time>2026-05-02T16:17:23.046Z</time></trkpt><trkpt lat="44.0629972" lon="7.7800826"><ele>1557.0</ele><time>2026-05-02T16:17:24.047Z</time></trkpt><trkpt lat="44.0631016" lon="7.7801067"><ele>1561.0</ele><time>2026-05-02T16:17:25.046Z</time></trkpt><trkpt lat="44.0632083" lon="7.7801446"><ele>1565.0</ele><time>2026-05-02T16:17:26.047Z</time></trkpt><trkpt lat="44.063312" lon="7.7801797"><ele>1557.4</ele><time>2026-05-02T16:17:27.046Z</time></trkpt><trkpt lat="44.0634103" lon="7.7802"><ele>1549.8</ele><time>2026-05-02T16:17:28.046Z</time></trkpt><trkpt lat="44.0635061" lon="7.7802328"><ele>1542.1999999999998</ele><time>2026-05-02T16:17:29.046Z</time></trkpt><trkpt lat="44.0635925" lon="7.7802814"><ele>1534.6</ele><time>2026-05-02T16:17:30.046Z</time></trkpt><trkpt lat="44.0636916" lon="7.7803308"><ele>1527.0</ele><time>2026-05-02T16:17:31.046Z</time></trkpt><trkpt lat="44.0637915" lon="7.780405"><ele>1527.0</ele><time>2026-05-02T16:17:32.046Z</time></trkpt><trkpt lat="44.0638897" lon="7.7804865"><ele>1527.0</ele><time>2026-05-02T16:17:33.046Z</time></trkpt><trkpt lat="44.0639813" lon="7.780581"><ele>1527.0</ele><time>2026-05-02T16:17:34.047Z</time></trkpt><trkpt lat="44.0640607" lon="7.7806852"><ele>1527.0</ele><time>2026-05-02T16:17:35.047Z</time></trkpt><trkpt lat="44.0641396" lon="7.7807811"><ele>1527.0</ele><time>2026-05-02T16:17:36.046Z</time></trkpt><trkpt lat="44.064224" lon="7.7808845"><ele>1524.1999999999998</ele><time>2026-05-02T16:17:37.047Z</time></trkpt><trkpt lat="44.0642979" lon="7.7809573"><ele>1521.4</ele><time>2026-05-02T16:17:38.046Z</time></trkpt><trkpt lat="44.0643766" lon="7.7810278"><ele>1518.6</ele><time>2026-05-02T16:17:39.046Z</time></trkpt><trkpt lat="44.064463" lon="7.7810895"><ele>1515.8000000000002</ele><time>2026-05-02T16:17:40.046Z</time></trkpt><trkpt lat="44.0645568" lon="7.7811557"><ele>1513.0</ele><time>2026-05-02T16:17:41.046Z</time></trkpt><trkpt lat="44.0646513" lon="7.7812208"><ele>1513.0</ele><time>2026-05-02T16:17:42.047Z</time></trkpt><trkpt lat="44.0647458" lon="7.781267"><ele>1513.0</ele><time>2026-05-02T16:17:43.046Z</time></trkpt><trkpt lat="44.0648349" lon="7.7813039"><ele>1513.0</ele><time>2026-05-02T16:17:44.046Z</time></trkpt><trkpt lat="44.0649163" lon="7.781336"><ele>1513.0</ele><time>2026-05-02T16:17:45.046Z</time></trkpt><trkpt lat="44.0649967" lon="7.7813696"><ele>1513.0</ele><time>2026-05-02T16:17:46.047Z</time></trkpt><trkpt lat="44.0650483" lon="7.781429"><ele>1513.0</ele><time>2026-05-02T16:17:47.046Z</time></trkpt><trkpt lat="44.0650851" lon="7.7815036"><ele>1515.6000000000001</ele><time>2026-05-02T16:17:48.047Z</time></trkpt><trkpt lat="44.0651043" lon="7.7816147"><ele>1518.2</ele><time>2026-05-02T16:17:49.046Z</time></trkpt><trkpt lat="44.0651232" lon="7.7817436"><ele>1520.8</ele><time>2026-05-02T16:17:50.046Z</time></trkpt><trkpt lat="44.0651379" lon="7.7818856"><ele>1523.4</ele><time>2026-05-02T16:17:51.047Z</time></trkpt><trkpt lat="44.0651546" lon="7.7820302"><ele>1526.0</ele><time>2026-05-02T16:17:52.046Z</time></trkpt><trkpt lat="44.0651718" lon="7.7821714"><ele>1526.0</ele><time>2026-05-02T16:17:53.046Z</time></trkpt><trkpt lat="44.0651813" lon="7.7822962"><ele>1526.0</ele><time>2026-05-02T16:17:54.047Z</time></trkpt><trkpt lat="44.065191" lon="7.7824147"><ele>1526.0</ele><time>2026-05-02T16:17:55.046Z</time></trkpt><trkpt lat="44.0652011" lon="7.7825335"><ele>1526.0</ele><time>2026-05-02T16:17:56.048Z</time></trkpt><trkpt lat="44.0652228" lon="7.7826361"><ele>1526.0</ele><time>2026-05-02T16:17:57.046Z</time></trkpt><trkpt lat="44.0652583" lon="7.7827441"><ele>1526.0</ele><time>2026-05-02T16:17:58.047Z</time></trkpt><trkpt lat="44.0653034" lon="7.7828423"><ele>1519.5</ele><time>2026-05-02T16:17:59.046Z</time></trkpt><trkpt lat="44.0653678" lon="7.7829221"><ele>1513.0</ele><time>2026-05-02T16:18:00.046Z</time></trkpt><trkpt lat="44.065427" lon="7.7830006"><ele>1506.5</ele><time>2026-05-02T16:18:01.047Z</time></trkpt><trkpt lat="44.065496" lon="7.7830735"><ele>1500.0</ele><time>2026-05-02T16:18:02.046Z</time></trkpt><trkpt lat="44.0655722" lon="7.7831303"><ele>1493.5</ele><time>2026-05-02T16:18:03.046Z</time></trkpt><trkpt lat="44.0656503" lon="7.7831706"><ele>1487.0</ele><time>2026-05-02T16:18:04.046Z</time></trkpt><trkpt lat="44.0657178" lon="7.7832045"><ele>1490.6666666666667</ele><time>2026-05-02T16:18:05.046Z</time></trkpt><trkpt lat="44.065789" lon="7.7831897"><ele>1494.3333333333335</ele><time>2026-05-02T16:18:06.046Z</time></trkpt><trkpt lat="44.0658558" lon="7.7831562"><ele>1498.0</ele><time>2026-05-02T16:18:07.046Z</time></trkpt><trkpt lat="44.0659163" lon="7.7830946"><ele>1501.6666666666667</ele><time>2026-05-02T16:18:08.046Z</time></trkpt><trkpt lat="44.0659796" lon="7.7830051"><ele>1505.3333333333333</ele><time>2026-05-02T16:18:09.046Z</time></trkpt><trkpt lat="44.0660475" lon="7.7829063"><ele>1509.0</ele><time>2026-05-02T16:18:10.046Z</time></trkpt><trkpt lat="44.0661221" lon="7.7828033"><ele>1509.0</ele><time>2026-05-02T16:18:11.047Z</time></trkpt><trkpt lat="44.0662001" lon="7.7827022"><ele>1509.0</ele><time>2026-05-02T16:18:12.047Z</time></trkpt><trkpt lat="44.066274" lon="7.7825999"><ele>1509.0</ele><time>2026-05-02T16:18:13.047Z</time></trkpt><trkpt lat="44.0663366" lon="7.7825015"><ele>1509.0</ele><time>2026-05-02T16:18:14.047Z</time></trkpt><trkpt lat="44.0663963" lon="7.7824112"><ele>1509.0</ele><time>2026-05-02T16:18:15.047Z</time></trkpt><trkpt lat="44.0664415" lon="7.7823128"><ele>1507.0</ele><time>2026-05-02T16:18:16.047Z</time></trkpt><trkpt lat="44.0664996" lon="7.7822224"><ele>1505.0</ele><time>2026-05-02T16:18:17.046Z</time></trkpt><trkpt lat="44.0665575" lon="7.7821299"><ele>1503.0</ele><time>2026-05-02T16:18:18.046Z</time></trkpt><trkpt lat="44.0666326" lon="7.7820448"><ele>1501.0</ele><time>2026-05-02T16:18:19.046Z</time></trkpt><trkpt lat="44.0667277" lon="7.7819701"><ele>1499.0</ele><time>2026-05-02T16:18:20.047Z</time></trkpt><trkpt lat="44.0668006" lon="7.7818991"><ele>1504.1666666666667</ele><time>2026-05-02T16:18:21.046Z</time></trkpt><trkpt lat="44.066859" lon="7.7818338"><ele>1509.3333333333335</ele><time>2026-05-02T16:18:22.046Z</time></trkpt><trkpt lat="44.0669233" lon="7.781779"><ele>1514.5</ele><time>2026-05-02T16:18:23.047Z</time></trkpt><trkpt lat="44.066987" lon="7.7817274"><ele>1519.6666666666667</ele><time>2026-05-02T16:18:24.046Z</time></trkpt><trkpt lat="44.0670527" lon="7.7816789"><ele>1524.8333333333333</ele><time>2026-05-02T16:18:25.046Z</time></trkpt><trkpt lat="44.0671686" lon="7.781585"><ele>1530.0</ele><time>2026-05-02T16:18:27.046Z</time></trkpt><trkpt lat="44.0672344" lon="7.7815348"><ele>1530.0000000000002</ele><time>2026-05-02T16:18:28.047Z</time></trkpt><trkpt lat="44.067296" lon="7.7814905"><ele>1530.0</ele><time>2026-05-02T16:18:29.046Z</time></trkpt><trkpt lat="44.0673566" lon="7.7814487"><ele>1530.0</ele><time>2026-05-02T16:18:30.047Z</time></trkpt><trkpt lat="44.0674251" lon="7.7813954"><ele>1530.0</ele><time>2026-05-02T16:18:31.047Z</time></trkpt><trkpt lat="44.0674842" lon="7.7813412"><ele>1530.0</ele><time>2026-05-02T16:18:32.047Z</time></trkpt><trkpt lat="44.0675487" lon="7.7812672"><ele>1530.0000000000002</ele><time>2026-05-02T16:18:33.046Z</time></trkpt><trkpt lat="44.0675843" lon="7.7811802"><ele>1530.0</ele><time>2026-05-02T16:18:34.047Z</time></trkpt><trkpt lat="44.0676099" lon="7.7810719"><ele>1526.1666666666667</ele><time>2026-05-02T16:18:35.046Z</time></trkpt><trkpt lat="44.0676256" lon="7.7809561"><ele>1522.3333333333333</ele><time>2026-05-02T16:18:36.046Z</time></trkpt><trkpt lat="44.067626" lon="7.7808354"><ele>1518.5</ele><time>2026-05-02T16:18:37.046Z</time></trkpt><trkpt lat="44.0676289" lon="7.7807145"><ele>1514.6666666666665</ele><time>2026-05-02T16:18:38.047Z</time></trkpt><trkpt lat="44.0676427" lon="7.7806049"><ele>1510.8333333333333</ele><time>2026-05-02T16:18:39.046Z</time></trkpt><trkpt lat="44.0676533" lon="7.7805011"><ele>1507.0</ele><time>2026-05-02T16:18:40.047Z</time></trkpt><trkpt lat="44.0676509" lon="7.7803882"><ele>1507.0</ele><time>2026-05-02T16:18:41.046Z</time></trkpt><trkpt lat="44.0676449" lon="7.7802747"><ele>1507.0</ele><time>2026-05-02T16:18:42.047Z</time></trkpt><trkpt lat="44.0676328" lon="7.7801695"><ele>1507.0</ele><time>2026-05-02T16:18:43.046Z</time></trkpt><trkpt lat="44.0676412" lon="7.7800703"><ele>1507.0</ele><time>2026-05-02T16:18:44.046Z</time></trkpt><trkpt lat="44.0676446" lon="7.7799705"><ele>1507.0</ele><time>2026-05-02T16:18:45.046Z</time></trkpt><trkpt lat="44.0676497" lon="7.7798645"><ele>1507.0</ele><time>2026-05-02T16:18:46.046Z</time></trkpt><trkpt lat="44.0676838" lon="7.7797629"><ele>1507.5</ele><time>2026-05-02T16:18:47.047Z</time></trkpt><trkpt lat="44.0677376" lon="7.7796651"><ele>1508.0</ele><time>2026-05-02T16:18:48.046Z</time></trkpt><trkpt lat="44.0677917" lon="7.7795782"><ele>1508.5</ele><time>2026-05-02T16:18:49.046Z</time></trkpt><trkpt lat="44.0678557" lon="7.779515"><ele>1509.0</ele><time>2026-05-02T16:18:50.047Z</time></trkpt><trkpt lat="44.0679252" lon="7.7794606"><ele>1509.5</ele><time>2026-05-02T16:18:51.046Z</time></trkpt><trkpt lat="44.0679891" lon="7.7794276"><ele>1510.0</ele><time>2026-05-02T16:18:52.046Z</time></trkpt><trkpt lat="44.0680542" lon="7.7793921"><ele>1512.4</ele><time>2026-05-02T16:18:53.047Z</time></trkpt><trkpt lat="44.0681334" lon="7.7793427"><ele>1514.8</ele><time>2026-05-02T16:18:54.046Z</time></trkpt><trkpt lat="44.0682013" lon="7.7792957"><ele>1517.1999999999998</ele><time>2026-05-02T16:18:55.046Z</time></trkpt><trkpt lat="44.0682565" lon="7.7792335"><ele>1519.6</ele><time>2026-05-02T16:18:56.046Z</time></trkpt><trkpt lat="44.0683716" lon="7.7790992"><ele>1522.0</ele><time>2026-05-02T16:18:58.047Z</time></trkpt><trkpt lat="44.0684403" lon="7.7790284"><ele>1514.1999999999998</ele><time>2026-05-02T16:18:59.047Z</time></trkpt><trkpt lat="44.0684806" lon="7.7789246"><ele>1506.4</ele><time>2026-05-02T16:19:00.046Z</time></trkpt><trkpt lat="44.0685285" lon="7.7787898"><ele>1498.6</ele><time>2026-05-02T16:19:02.046Z</time></trkpt><trkpt lat="44.0685909" lon="7.7786785"><ele>1490.8000000000002</ele><time>2026-05-02T16:19:04.046Z</time></trkpt><trkpt lat="44.0687239" lon="7.7786302"><ele>1483.0</ele><time>2026-05-02T16:19:06.046Z</time></trkpt><trkpt lat="44.0687977" lon="7.7786247"><ele>1483.0</ele><time>2026-05-02T16:19:07.047Z</time></trkpt><trkpt lat="44.0688864" lon="7.7786127"><ele>1483.0</ele><time>2026-05-02T16:19:08.047Z</time></trkpt><trkpt lat="44.0689605" lon="7.7786126"><ele>1483.0</ele><time>2026-05-02T16:19:09.047Z</time></trkpt><trkpt lat="44.069031" lon="7.7786118"><ele>1483.0</ele><time>2026-05-02T16:19:10.047Z</time></trkpt><trkpt lat="44.0691046" lon="7.7786201"><ele>1483.0</ele><time>2026-05-02T16:19:11.047Z</time></trkpt><trkpt lat="44.0691717" lon="7.7786025"><ele>1483.0</ele><time>2026-05-02T16:19:12.047Z</time></trkpt><trkpt lat="44.0692564" lon="7.7785045"><ele>1483.6666666666665</ele><time>2026-05-02T16:19:14.046Z</time></trkpt><trkpt lat="44.0693288" lon="7.7784002"><ele>1484.3333333333333</ele><time>2026-05-02T16:19:16.046Z</time></trkpt><trkpt lat="44.0693872" lon="7.7783575"><ele>1485.0</ele><time>2026-05-02T16:19:18.046Z</time></trkpt><trkpt lat="44.0694621" lon="7.7783695"><ele>1485.6666666666667</ele><time>2026-05-02T16:19:20.046Z</time></trkpt><trkpt lat="44.0695329" lon="7.7783743"><ele>1486.3333333333335</ele><time>2026-05-02T16:19:21.046Z</time></trkpt><trkpt lat="44.0695928" lon="7.7784221"><ele>1487.0</ele><time>2026-05-02T16:19:22.046Z</time></trkpt><trkpt lat="44.0696693" lon="7.7784823"><ele>1481.8571428571427</ele><time>2026-05-02T16:19:23.046Z</time></trkpt><trkpt lat="44.0697158" lon="7.7785696"><ele>1476.7142857142858</ele><time>2026-05-02T16:19:24.046Z</time></trkpt><trkpt lat="44.0697814" lon="7.7786386"><ele>1471.5714285714284</ele><time>2026-05-02T16:19:25.046Z</time></trkpt><trkpt lat="44.0698456" lon="7.7787078"><ele>1466.4285714285713</ele><time>2026-05-02T16:19:26.046Z</time></trkpt><trkpt lat="44.0699058" lon="7.7787463"><ele>1461.2857142857142</ele><time>2026-05-02T16:19:27.046Z</time></trkpt><trkpt lat="44.0699677" lon="7.7787722"><ele>1456.142857142857</ele><time>2026-05-02T16:19:28.047Z</time></trkpt><trkpt lat="44.0700392" lon="7.7787952"><ele>1451.0</ele><time>2026-05-02T16:19:29.046Z</time></trkpt><trkpt lat="44.070122" lon="7.7787381"><ele>1448.5</ele><time>2026-05-02T16:19:30.046Z</time></trkpt><trkpt lat="44.0701908" lon="7.7787266"><ele>1446.0</ele><time>2026-05-02T16:19:31.046Z</time></trkpt><trkpt lat="44.0702647" lon="7.7786862"><ele>1443.5</ele><time>2026-05-02T16:19:32.046Z</time></trkpt><trkpt lat="44.0703421" lon="7.7786565"><ele>1441.0</ele><time>2026-05-02T16:19:33.046Z</time></trkpt><trkpt lat="44.0704146" lon="7.7786228"><ele>1438.5</ele><time>2026-05-02T16:19:34.046Z</time></trkpt><trkpt lat="44.070487" lon="7.7785865"><ele>1436.0</ele><time>2026-05-02T16:19:35.046Z</time></trkpt><trkpt lat="44.0705658" lon="7.778543"><ele>1443.3333333333335</ele><time>2026-05-02T16:19:36.047Z</time></trkpt><trkpt lat="44.0706246" lon="7.7784913"><ele>1450.6666666666667</ele><time>2026-05-02T16:19:37.046Z</time></trkpt><trkpt lat="44.0706934" lon="7.778436"><ele>1458.0</ele><time>2026-05-02T16:19:38.046Z</time></trkpt><trkpt lat="44.0707667" lon="7.7784141"><ele>1465.3333333333333</ele><time>2026-05-02T16:19:39.046Z</time></trkpt><trkpt lat="44.0708416" lon="7.7784105"><ele>1472.6666666666665</ele><time>2026-05-02T16:19:40.047Z</time></trkpt><trkpt lat="44.0709149" lon="7.7783984"><ele>1480.0</ele><time>2026-05-02T16:19:41.047Z</time></trkpt><trkpt lat="44.070997" lon="7.7783891"><ele>1480.0</ele><time>2026-05-02T16:19:42.047Z</time></trkpt><trkpt lat="44.071058" lon="7.7784175"><ele>1480.0</ele><time>2026-05-02T16:19:43.047Z</time></trkpt><trkpt lat="44.0711462" lon="7.77851"><ele>1480.0</ele><time>2026-05-02T16:19:45.046Z</time></trkpt><trkpt lat="44.0712376" lon="7.7786569"><ele>1480.0</ele><time>2026-05-02T16:19:47.047Z</time></trkpt><trkpt lat="44.0712694" lon="7.7787559"><ele>1480.0</ele><time>2026-05-02T16:19:48.046Z</time></trkpt><trkpt lat="44.0712878" lon="7.778853"><ele>1473.4</ele><time>2026-05-02T16:19:49.046Z</time></trkpt><trkpt lat="44.071349" lon="7.7789752"><ele>1466.8</ele><time>2026-05-02T16:19:51.046Z</time></trkpt><trkpt lat="44.0714725" lon="7.7790567"><ele>1460.1999999999998</ele><time>2026-05-02T16:19:53.047Z</time></trkpt><trkpt lat="44.0715552" lon="7.7791106"><ele>1453.6</ele><time>2026-05-02T16:19:54.046Z</time></trkpt><trkpt lat="44.0716261" lon="7.7791743"><ele>1447.0</ele><time>2026-05-02T16:19:55.046Z</time></trkpt><trkpt lat="44.0716871" lon="7.7792545"><ele>1447.0</ele><time>2026-05-02T16:19:56.046Z</time></trkpt><trkpt lat="44.0717435" lon="7.7793217"><ele>1447.0</ele><time>2026-05-02T16:19:57.046Z</time></trkpt><trkpt lat="44.0718087" lon="7.7793765"><ele>1447.0</ele><time>2026-05-02T16:19:58.047Z</time></trkpt><trkpt lat="44.0718744" lon="7.7794166"><ele>1447.0</ele><time>2026-05-02T16:19:59.046Z</time></trkpt><trkpt lat="44.071939" lon="7.7794688"><ele>1447.0</ele><time>2026-05-02T16:20:00.046Z</time></trkpt><trkpt lat="44.0720062" lon="7.7795267"><ele>1447.0</ele><time>2026-05-02T16:20:01.046Z</time></trkpt><trkpt lat="44.0720683" lon="7.7795919"><ele>1438.5</ele><time>2026-05-02T16:20:02.047Z</time></trkpt><trkpt lat="44.0721261" lon="7.7796524"><ele>1430.0</ele><time>2026-05-02T16:20:03.046Z</time></trkpt><trkpt lat="44.0721682" lon="7.7797202"><ele>1421.5</ele><time>2026-05-02T16:20:04.046Z</time></trkpt><trkpt lat="44.0721976" lon="7.7797987"><ele>1413.0</ele><time>2026-05-02T16:20:05.047Z</time></trkpt><trkpt lat="44.0722761" lon="7.7799371"><ele>1404.5</ele><time>2026-05-02T16:20:07.047Z</time></trkpt><trkpt lat="44.0723332" lon="7.7800005"><ele>1396.0</ele><time>2026-05-02T16:20:08.047Z</time></trkpt><trkpt lat="44.0724026" lon="7.7800445"><ele>1398.6666666666665</ele><time>2026-05-02T16:20:09.046Z</time></trkpt><trkpt lat="44.072474" lon="7.7800723"><ele>1401.3333333333333</ele><time>2026-05-02T16:20:10.046Z</time></trkpt><trkpt lat="44.0725373" lon="7.7800942"><ele>1404.0</ele><time>2026-05-02T16:20:11.047Z</time></trkpt><trkpt lat="44.0726274" lon="7.7801834"><ele>1406.6666666666667</ele><time>2026-05-02T16:20:13.046Z</time></trkpt><trkpt lat="44.0726953" lon="7.7803145"><ele>1409.3333333333335</ele><time>2026-05-02T16:20:15.046Z</time></trkpt><trkpt lat="44.0727334" lon="7.7804142"><ele>1412.0</ele><time>2026-05-02T16:20:16.047Z</time></trkpt><trkpt lat="44.0727777" lon="7.7805642"><ele>1412.0</ele><time>2026-05-02T16:20:17.046Z</time></trkpt><trkpt lat="44.07283" lon="7.7807046"><ele>1412.0</ele><time>2026-05-02T16:20:18.046Z</time></trkpt><trkpt lat="44.0728743" lon="7.7808303"><ele>1412.0</ele><time>2026-05-02T16:20:19.047Z</time></trkpt><trkpt lat="44.072901" lon="7.7809507"><ele>1412.0</ele><time>2026-05-02T16:20:20.046Z</time></trkpt><trkpt lat="44.0729161" lon="7.7810857"><ele>1412.0</ele><time>2026-05-02T16:20:21.046Z</time></trkpt><trkpt lat="44.0729317" lon="7.7812281"><ele>1406.1999999999998</ele><time>2026-05-02T16:20:22.046Z</time></trkpt><trkpt lat="44.0729349" lon="7.781376"><ele>1400.4</ele><time>2026-05-02T16:20:23.046Z</time></trkpt><trkpt lat="44.072932" lon="7.781513"><ele>1394.6</ele><time>2026-05-02T16:20:24.047Z</time></trkpt><trkpt lat="44.0729289" lon="7.7816537"><ele>1388.8000000000002</ele><time>2026-05-02T16:20:25.046Z</time></trkpt><trkpt lat="44.0729346" lon="7.7817911"><ele>1383.0</ele><time>2026-05-02T16:20:26.046Z</time></trkpt><trkpt lat="44.0729409" lon="7.7819254"><ele>1379.2</ele><time>2026-05-02T16:20:27.046Z</time></trkpt><trkpt lat="44.0729519" lon="7.782057"><ele>1375.4</ele><time>2026-05-02T16:20:28.047Z</time></trkpt><trkpt lat="44.0729628" lon="7.7821919"><ele>1371.6000000000001</ele><time>2026-05-02T16:20:29.046Z</time></trkpt><trkpt lat="44.0730073" lon="7.7823239"><ele>1367.8000000000002</ele><time>2026-05-02T16:20:30.047Z</time></trkpt><trkpt lat="44.0730526" lon="7.7824385"><ele>1364.0</ele><time>2026-05-02T16:20:31.046Z</time></trkpt><trkpt lat="44.0731078" lon="7.7825567"><ele>1364.0</ele><time>2026-05-02T16:20:32.047Z</time></trkpt><trkpt lat="44.0731736" lon="7.7826746"><ele>1364.0</ele><time>2026-05-02T16:20:33.046Z</time></trkpt><trkpt lat="44.0732299" lon="7.7827937"><ele>1364.0</ele><time>2026-05-02T16:20:34.046Z</time></trkpt><trkpt lat="44.0732702" lon="7.7829164"><ele>1364.0</ele><time>2026-05-02T16:20:35.047Z</time></trkpt><trkpt lat="44.0733111" lon="7.7830287"><ele>1364.0</ele><time>2026-05-02T16:20:36.046Z</time></trkpt><trkpt lat="44.0733617" lon="7.7831375"><ele>1360.4</ele><time>2026-05-02T16:20:37.046Z</time></trkpt><trkpt lat="44.0734393" lon="7.7832234"><ele>1356.8000000000002</ele><time>2026-05-02T16:20:38.046Z</time></trkpt><trkpt lat="44.0735318" lon="7.7833125"><ele>1353.1999999999998</ele><time>2026-05-02T16:20:39.046Z</time></trkpt><trkpt lat="44.0736171" lon="7.7834288"><ele>1349.6</ele><time>2026-05-02T16:20:40.047Z</time></trkpt><trkpt lat="44.0736974" lon="7.7835437"><ele>1346.0</ele><time>2026-05-02T16:20:41.046Z</time></trkpt><trkpt lat="44.0737465" lon="7.7836381"><ele>1346.0</ele><time>2026-05-02T16:20:42.046Z</time></trkpt><trkpt lat="44.0737923" lon="7.7837111"><ele>1346.0</ele><time>2026-05-02T16:20:43.046Z</time></trkpt><trkpt lat="44.07389" lon="7.7838161"><ele>1346.0</ele><time>2026-05-02T16:20:45.046Z</time></trkpt><trkpt lat="44.0739684" lon="7.7838861"><ele>1346.0</ele><time>2026-05-02T16:20:46.046Z</time></trkpt><trkpt lat="44.0740526" lon="7.7839624"><ele>1346.0</ele><time>2026-05-02T16:20:47.047Z</time></trkpt><trkpt lat="44.0741092" lon="7.7840134"><ele>1352.4</ele><time>2026-05-02T16:20:48.046Z</time></trkpt><trkpt lat="44.0741981" lon="7.7841138"><ele>1358.8</ele><time>2026-05-02T16:20:50.046Z</time></trkpt><trkpt lat="44.0742627" lon="7.7841691"><ele>1365.2</ele><time>2026-05-02T16:20:51.046Z</time></trkpt><trkpt lat="44.0743319" lon="7.7842215"><ele>1371.6000000000001</ele><time>2026-05-02T16:20:52.046Z</time></trkpt><trkpt lat="44.0744356" lon="7.7841617"><ele>1378.0</ele><time>2026-05-02T16:20:54.046Z</time></trkpt><trkpt lat="44.074501" lon="7.7840949"><ele>1378.0</ele><time>2026-05-02T16:20:55.047Z</time></trkpt><trkpt lat="44.0745677" lon="7.7840391"><ele>1378.0</ele><time>2026-05-02T16:20:56.047Z</time></trkpt><trkpt lat="44.0747497" lon="7.7837141"><ele>1378.0</ele><time>2026-05-02T16:20:59.046Z</time></trkpt><trkpt lat="44.0747843" lon="7.7835556"><ele>1377.1666666666665</ele><time>2026-05-02T16:21:00.046Z</time></trkpt><trkpt lat="44.0748037" lon="7.7834198"><ele>1376.3333333333333</ele><time>2026-05-02T16:21:01.047Z</time></trkpt><trkpt lat="44.0748306" lon="7.783304"><ele>1375.5</ele><time>2026-05-02T16:21:02.046Z</time></trkpt><trkpt lat="44.074854" lon="7.783196"><ele>1374.6666666666667</ele><time>2026-05-02T16:21:03.046Z</time></trkpt><trkpt lat="44.0748748" lon="7.7830889"><ele>1373.8333333333335</ele><time>2026-05-02T16:21:04.046Z</time></trkpt><trkpt lat="44.0749068" lon="7.782987"><ele>1373.0</ele><time>2026-05-02T16:21:05.046Z</time></trkpt><trkpt lat="44.0749564" lon="7.7828944"><ele>1373.0</ele><time>2026-05-02T16:21:06.046Z</time></trkpt><trkpt lat="44.0750291" lon="7.7828143"><ele>1373.0</ele><time>2026-05-02T16:21:07.046Z</time></trkpt><trkpt lat="44.0751087" lon="7.7827282"><ele>1373.0</ele><time>2026-05-02T16:21:08.047Z</time></trkpt><trkpt lat="44.075185" lon="7.7826446"><ele>1373.0</ele><time>2026-05-02T16:21:09.046Z</time></trkpt><trkpt lat="44.0752617" lon="7.7825617"><ele>1373.0</ele><time>2026-05-02T16:21:10.046Z</time></trkpt><trkpt lat="44.0753501" lon="7.7824854"><ele>1371.4</ele><time>2026-05-02T16:21:11.047Z</time></trkpt><trkpt lat="44.0754323" lon="7.7824239"><ele>1369.8000000000002</ele><time>2026-05-02T16:21:12.047Z</time></trkpt><trkpt lat="44.0755334" lon="7.782402"><ele>1368.2</ele><time>2026-05-02T16:21:13.046Z</time></trkpt><trkpt lat="44.0756487" lon="7.7823919"><ele>1366.6</ele><time>2026-05-02T16:21:14.046Z</time></trkpt><trkpt lat="44.0757649" lon="7.7823792"><ele>1365.0</ele><time>2026-05-02T16:21:15.046Z</time></trkpt><trkpt lat="44.0758755" lon="7.7823658"><ele>1365.0</ele><time>2026-05-02T16:21:16.046Z</time></trkpt><trkpt lat="44.0759822" lon="7.7823403"><ele>1365.0</ele><time>2026-05-02T16:21:17.046Z</time></trkpt><trkpt lat="44.0760829" lon="7.7823271"><ele>1365.0</ele><time>2026-05-02T16:21:18.047Z</time></trkpt><trkpt lat="44.0761746" lon="7.7823264"><ele>1365.0</ele><time>2026-05-02T16:21:19.046Z</time></trkpt><trkpt lat="44.0762504" lon="7.7823225"><ele>1365.0</ele><time>2026-05-02T16:21:20.046Z</time></trkpt><trkpt lat="44.0763171" lon="7.7822817"><ele>1365.0</ele><time>2026-05-02T16:21:21.046Z</time></trkpt><trkpt lat="44.0763829" lon="7.7822018"><ele>1365.0</ele><time>2026-05-02T16:21:22.047Z</time></trkpt><trkpt lat="44.0764505" lon="7.782102"><ele>1365.0</ele><time>2026-05-02T16:21:23.046Z</time></trkpt><trkpt lat="44.0765328" lon="7.7820026"><ele>1365.0</ele><time>2026-05-02T16:21:24.046Z</time></trkpt><trkpt lat="44.0766211" lon="7.7819152"><ele>1365.0</ele><time>2026-05-02T16:21:25.046Z</time></trkpt><trkpt lat="44.0767104" lon="7.7818351"><ele>1366.1666666666667</ele><time>2026-05-02T16:21:26.046Z</time></trkpt><trkpt lat="44.0768072" lon="7.7818017"><ele>1367.3333333333333</ele><time>2026-05-02T16:21:27.046Z</time></trkpt><trkpt lat="44.0769057" lon="7.7818022"><ele>1368.5</ele><time>2026-05-02T16:21:28.047Z</time></trkpt><trkpt lat="44.0770009" lon="7.7818202"><ele>1369.6666666666665</ele><time>2026-05-02T16:21:29.047Z</time></trkpt><trkpt lat="44.0770762" lon="7.7818299"><ele>1370.8333333333333</ele><time>2026-05-02T16:21:30.047Z</time></trkpt><trkpt lat="44.0771469" lon="7.7818024"><ele>1372.0</ele><time>2026-05-02T16:21:31.046Z</time></trkpt><trkpt lat="44.0772117" lon="7.781721"><ele>1372.0</ele><time>2026-05-02T16:21:32.046Z</time></trkpt><trkpt lat="44.0772776" lon="7.7816175"><ele>1372.0</ele><time>2026-05-02T16:21:33.046Z</time></trkpt><trkpt lat="44.077334" lon="7.7815009"><ele>1372.0</ele><time>2026-05-02T16:21:34.046Z</time></trkpt><trkpt lat="44.077389" lon="7.7813883"><ele>1372.0</ele><time>2026-05-02T16:21:35.046Z</time></trkpt><trkpt lat="44.0774557" lon="7.7812992"><ele>1372.0</ele><time>2026-05-02T16:21:36.047Z</time></trkpt><trkpt lat="44.0775408" lon="7.7812406"><ele>1373.6</ele><time>2026-05-02T16:21:37.046Z</time></trkpt><trkpt lat="44.0776311" lon="7.781191"><ele>1375.1999999999998</ele><time>2026-05-02T16:21:38.047Z</time></trkpt><trkpt lat="44.0777221" lon="7.7811365"><ele>1376.8</ele><time>2026-05-02T16:21:39.047Z</time></trkpt><trkpt lat="44.0778108" lon="7.7810737"><ele>1378.4</ele><time>2026-05-02T16:21:40.046Z</time></trkpt><trkpt lat="44.0779126" lon="7.7810037"><ele>1380.0</ele><time>2026-05-02T16:21:41.046Z</time></trkpt><trkpt lat="44.078012" lon="7.7809376"><ele>1380.0</ele><time>2026-05-02T16:21:42.046Z</time></trkpt><trkpt lat="44.0781058" lon="7.780893"><ele>1380.0</ele><time>2026-05-02T16:21:43.046Z</time></trkpt><trkpt lat="44.0781982" lon="7.7808702"><ele>1380.0</ele><time>2026-05-02T16:21:44.047Z</time></trkpt><trkpt lat="44.0783016" lon="7.7808664"><ele>1380.0</ele><time>2026-05-02T16:21:45.046Z</time></trkpt><trkpt lat="44.0784097" lon="7.7808699"><ele>1380.0</ele><time>2026-05-02T16:21:46.046Z</time></trkpt><trkpt lat="44.0785094" lon="7.7808636"><ele>1376.0</ele><time>2026-05-02T16:21:47.046Z</time></trkpt><trkpt lat="44.0786116" lon="7.7808559"><ele>1372.0</ele><time>2026-05-02T16:21:48.046Z</time></trkpt><trkpt lat="44.0787196" lon="7.7808752"><ele>1368.0</ele><time>2026-05-02T16:21:49.046Z</time></trkpt><trkpt lat="44.0788284" lon="7.7809092"><ele>1364.0</ele><time>2026-05-02T16:21:50.047Z</time></trkpt><trkpt lat="44.0789155" lon="7.7809947"><ele>1360.0</ele><time>2026-05-02T16:21:51.047Z</time></trkpt><trkpt lat="44.0790028" lon="7.7810716"><ele>1353.0</ele><time>2026-05-02T16:21:52.046Z</time></trkpt><trkpt lat="44.079077" lon="7.7811486"><ele>1346.0</ele><time>2026-05-02T16:21:53.046Z</time></trkpt><trkpt lat="44.0791419" lon="7.781229"><ele>1339.0</ele><time>2026-05-02T16:21:54.046Z</time></trkpt><trkpt lat="44.0792104" lon="7.781303"><ele>1332.0</ele><time>2026-05-02T16:21:55.047Z</time></trkpt><trkpt lat="44.0792944" lon="7.7813156"><ele>1325.0</ele><time>2026-05-02T16:21:56.046Z</time></trkpt><trkpt lat="44.0793879" lon="7.7813032"><ele>1318.0</ele><time>2026-05-02T16:21:57.046Z</time></trkpt><trkpt lat="44.0794896" lon="7.7813027"><ele>1317.8000000000002</ele><time>2026-05-02T16:21:58.046Z</time></trkpt><trkpt lat="44.0795966" lon="7.7813243"><ele>1317.6</ele><time>2026-05-02T16:21:59.046Z</time></trkpt><trkpt lat="44.0796953" lon="7.781353"><ele>1317.4</ele><time>2026-05-02T16:22:00.047Z</time></trkpt><trkpt lat="44.0798021" lon="7.7813864"><ele>1317.1999999999998</ele><time>2026-05-02T16:22:01.047Z</time></trkpt><trkpt lat="44.0799137" lon="7.7814204"><ele>1317.0</ele><time>2026-05-02T16:22:02.046Z</time></trkpt><trkpt lat="44.0800252" lon="7.7814326"><ele>1317.0</ele><time>2026-05-02T16:22:03.046Z</time></trkpt><trkpt lat="44.0801395" lon="7.7814242"><ele>1317.0</ele><time>2026-05-02T16:22:04.046Z</time></trkpt><trkpt lat="44.0802629" lon="7.781419"><ele>1317.0</ele><time>2026-05-02T16:22:05.046Z</time></trkpt><trkpt lat="44.0803868" lon="7.7814493"><ele>1317.0</ele><time>2026-05-02T16:22:06.046Z</time></trkpt><trkpt lat="44.08051" lon="7.781507"><ele>1317.0</ele><time>2026-05-02T16:22:07.047Z</time></trkpt><trkpt lat="44.0806276" lon="7.7815704"><ele>1317.0</ele><time>2026-05-02T16:22:08.046Z</time></trkpt><trkpt lat="44.0807378" lon="7.7816381"><ele>1317.0</ele><time>2026-05-02T16:22:09.046Z</time></trkpt><trkpt lat="44.0808416" lon="7.7817243"><ele>1317.0</ele><time>2026-05-02T16:22:10.046Z</time></trkpt><trkpt lat="44.0809309" lon="7.7818147"><ele>1313.0</ele><time>2026-05-02T16:22:11.047Z</time></trkpt><trkpt lat="44.080967" lon="7.7819488"><ele>1309.0</ele><time>2026-05-02T16:22:12.047Z</time></trkpt><trkpt lat="44.0809715" lon="7.7820983"><ele>1305.0</ele><time>2026-05-02T16:22:13.046Z</time></trkpt><trkpt lat="44.0809751" lon="7.782245"><ele>1301.0</ele><time>2026-05-02T16:22:14.047Z</time></trkpt><trkpt lat="44.0809842" lon="7.7823778"><ele>1297.0</ele><time>2026-05-02T16:22:15.047Z</time></trkpt><trkpt lat="44.0810314" lon="7.7824609"><ele>1297.0</ele><time>2026-05-02T16:22:16.046Z</time></trkpt><trkpt lat="44.0810943" lon="7.7825173"><ele>1297.0</ele><time>2026-05-02T16:22:17.046Z</time></trkpt><trkpt lat="44.0811845" lon="7.7825071"><ele>1297.0</ele><time>2026-05-02T16:22:18.046Z</time></trkpt><trkpt lat="44.0812924" lon="7.7824261"><ele>1297.0</ele><time>2026-05-02T16:22:19.046Z</time></trkpt><trkpt lat="44.0813942" lon="7.7823342"><ele>1297.0</ele><time>2026-05-02T16:22:20.046Z</time></trkpt><trkpt lat="44.081492" lon="7.7822613"><ele>1297.0</ele><time>2026-05-02T16:22:21.046Z</time></trkpt><trkpt lat="44.0815959" lon="7.7822062"><ele>1297.0</ele><time>2026-05-02T16:22:22.046Z</time></trkpt><trkpt lat="44.0817105" lon="7.7821673"><ele>1297.0</ele><time>2026-05-02T16:22:23.046Z</time></trkpt><trkpt lat="44.0818282" lon="7.7821422"><ele>1297.0</ele><time>2026-05-02T16:22:24.046Z</time></trkpt><trkpt lat="44.0819466" lon="7.7821272"><ele>1297.0</ele><time>2026-05-02T16:22:25.046Z</time></trkpt><trkpt lat="44.0820623" lon="7.7821033"><ele>1297.0</ele><time>2026-05-02T16:22:26.046Z</time></trkpt><trkpt lat="44.0821711" lon="7.7820782"><ele>1297.0</ele><time>2026-05-02T16:22:27.046Z</time></trkpt><trkpt lat="44.0822672" lon="7.7820627"><ele>1297.0</ele><time>2026-05-02T16:22:28.046Z</time></trkpt><trkpt lat="44.0823625" lon="7.7820608"><ele>1297.0</ele><time>2026-05-02T16:22:29.046Z</time></trkpt><trkpt lat="44.0824531" lon="7.7820774"><ele>1294.8</ele><time>2026-05-02T16:22:30.046Z</time></trkpt><trkpt lat="44.0825454" lon="7.7820103"><ele>1292.6</ele><time>2026-05-02T16:22:32.046Z</time></trkpt><trkpt lat="44.0825987" lon="7.7819191"><ele>1290.3999999999999</ele><time>2026-05-02T16:22:33.047Z</time></trkpt><trkpt lat="44.0826538" lon="7.7818154"><ele>1288.1999999999998</ele><time>2026-05-02T16:22:34.046Z</time></trkpt><trkpt lat="44.0827173" lon="7.7817307"><ele>1286.0</ele><time>2026-05-02T16:22:35.046Z</time></trkpt><trkpt lat="44.08279" lon="7.7816642"><ele>1290.5</ele><time>2026-05-02T16:22:36.047Z</time></trkpt><trkpt lat="44.0828574" lon="7.7815836"><ele>1295.0</ele><time>2026-05-02T16:22:37.047Z</time></trkpt><trkpt lat="44.0829273" lon="7.7814907"><ele>1299.5</ele><time>2026-05-02T16:22:38.046Z</time></trkpt><trkpt lat="44.0829916" lon="7.7814113"><ele>1304.0</ele><time>2026-05-02T16:22:39.046Z</time></trkpt><trkpt lat="44.0830595" lon="7.7813544"><ele>1308.5</ele><time>2026-05-02T16:22:40.046Z</time></trkpt><trkpt lat="44.0831262" lon="7.7813378"><ele>1313.0</ele><time>2026-05-02T16:22:41.046Z</time></trkpt><trkpt lat="44.0832035" lon="7.7813515"><ele>1308.857142857143</ele><time>2026-05-02T16:22:42.046Z</time></trkpt><trkpt lat="44.0832798" lon="7.7813695"><ele>1304.7142857142858</ele><time>2026-05-02T16:22:43.046Z</time></trkpt><trkpt lat="44.0833469" lon="7.7813941"><ele>1300.5714285714284</ele><time>2026-05-02T16:22:44.046Z</time></trkpt><trkpt lat="44.0834095" lon="7.7814553"><ele>1296.4285714285716</ele><time>2026-05-02T16:22:45.046Z</time></trkpt><trkpt lat="44.0834512" lon="7.7815503"><ele>1292.2857142857142</ele><time>2026-05-02T16:22:46.046Z</time></trkpt><trkpt lat="44.0834798" lon="7.7816497"><ele>1288.142857142857</ele><time>2026-05-02T16:22:47.046Z</time></trkpt><trkpt lat="44.0835297" lon="7.7817067"><ele>1284.0</ele><time>2026-05-02T16:22:48.046Z</time></trkpt><trkpt lat="44.0836381" lon="7.7817047"><ele>1284.0</ele><time>2026-05-02T16:22:50.047Z</time></trkpt><trkpt lat="44.0836946" lon="7.7816438"><ele>1284.0</ele><time>2026-05-02T16:22:52.046Z</time></trkpt><trkpt lat="44.0838903" lon="7.7815935"><ele>1284.0</ele><time>2026-05-02T16:22:59.046Z</time></trkpt><trkpt lat="44.0839592" lon="7.7816531"><ele>1284.0</ele><time>2026-05-02T16:23:00.046Z</time></trkpt><trkpt lat="44.084007" lon="7.7817347"><ele>1284.0</ele><time>2026-05-02T16:23:01.047Z</time></trkpt><trkpt lat="44.0840485" lon="7.7818424"><ele>1283.2</ele><time>2026-05-02T16:23:02.047Z</time></trkpt><trkpt lat="44.0840914" lon="7.7819664"><ele>1282.4</ele><time>2026-05-02T16:23:03.048Z</time></trkpt><trkpt lat="44.0841283" lon="7.7820927"><ele>1281.6</ele><time>2026-05-02T16:23:04.046Z</time></trkpt><trkpt lat="44.0841512" lon="7.7822237"><ele>1280.8</ele><time>2026-05-02T16:23:05.046Z</time></trkpt><trkpt lat="44.0841575" lon="7.7823577"><ele>1280.0</ele><time>2026-05-02T16:23:06.047Z</time></trkpt><trkpt lat="44.0841762" lon="7.782501"><ele>1280.0</ele><time>2026-05-02T16:23:07.046Z</time></trkpt><trkpt lat="44.0842075" lon="7.782657"><ele>1280.0</ele><time>2026-05-02T16:23:08.047Z</time></trkpt><trkpt lat="44.0842838" lon="7.7828361"><ele>1280.0</ele><time>2026-05-02T16:23:09.046Z</time></trkpt><trkpt lat="44.0843633" lon="7.7830175"><ele>1280.0</ele><time>2026-05-02T16:23:10.047Z</time></trkpt><trkpt lat="44.084426" lon="7.7832023"><ele>1273.5</ele><time>2026-05-02T16:23:11.046Z</time></trkpt><trkpt lat="44.0844703" lon="7.7833796"><ele>1267.0</ele><time>2026-05-02T16:23:12.046Z</time></trkpt><trkpt lat="44.0844928" lon="7.7835526"><ele>1260.5</ele><time>2026-05-02T16:23:13.046Z</time></trkpt><trkpt lat="44.0845087" lon="7.7837242"><ele>1254.0</ele><time>2026-05-02T16:23:14.046Z</time></trkpt><trkpt lat="44.0845316" lon="7.7838902"><ele>1251.1666666666667</ele><time>2026-05-02T16:23:15.046Z</time></trkpt><trkpt lat="44.0845573" lon="7.7840292"><ele>1248.3333333333333</ele><time>2026-05-02T16:23:16.047Z</time></trkpt><trkpt lat="44.0846008" lon="7.7841273"><ele>1245.5</ele><time>2026-05-02T16:23:17.046Z</time></trkpt><trkpt lat="44.0846737" lon="7.7841883"><ele>1242.6666666666665</ele><time>2026-05-02T16:23:18.046Z</time></trkpt><trkpt lat="44.0847475" lon="7.7842137"><ele>1239.8333333333333</ele><time>2026-05-02T16:23:19.048Z</time></trkpt><trkpt lat="44.0848103" lon="7.7842324"><ele>1237.0</ele><time>2026-05-02T16:23:21.046Z</time></trkpt><trkpt lat="44.0847701" lon="7.7843285"><ele>1237.0</ele><time>2026-05-02T16:23:24.047Z</time></trkpt><trkpt lat="44.0846435" lon="7.784266"><ele>1237.0</ele><time>2026-05-02T16:23:26.046Z</time></trkpt><trkpt lat="44.0845694" lon="7.7841979"><ele>1237.0</ele><time>2026-05-02T16:23:27.047Z</time></trkpt><trkpt lat="44.0845013" lon="7.7840787"><ele>1237.0</ele><time>2026-05-02T16:23:28.046Z</time></trkpt><trkpt lat="44.0844571" lon="7.7839224"><ele>1237.0</ele><time>2026-05-02T16:23:29.046Z</time></trkpt><trkpt lat="44.0844216" lon="7.7837449"><ele>1237.0</ele><time>2026-05-02T16:23:30.046Z</time></trkpt><trkpt lat="44.0843787" lon="7.7835535"><ele>1237.0</ele><time>2026-05-02T16:23:31.046Z</time></trkpt><trkpt lat="44.0843101" lon="7.7833736"><ele>1237.0</ele><time>2026-05-02T16:23:32.046Z</time></trkpt><trkpt lat="44.0842155" lon="7.7832032"><ele>1234.3333333333333</ele><time>2026-05-02T16:23:33.047Z</time></trkpt><trkpt lat="44.0841057" lon="7.7830347"><ele>1231.6666666666667</ele><time>2026-05-02T16:23:34.046Z</time></trkpt><trkpt lat="44.0840005" lon="7.7828626"><ele>1229.0</ele><time>2026-05-02T16:23:35.046Z</time></trkpt><trkpt lat="44.0839195" lon="7.7826942"><ele>1234.2</ele><time>2026-05-02T16:23:36.046Z</time></trkpt><trkpt lat="44.083864" lon="7.7825328"><ele>1239.4</ele><time>2026-05-02T16:23:37.046Z</time></trkpt><trkpt lat="44.0838323" lon="7.7823851"><ele>1244.6</ele><time>2026-05-02T16:23:38.046Z</time></trkpt><trkpt lat="44.0837931" lon="7.7822707"><ele>1249.8</ele><time>2026-05-02T16:23:39.046Z</time></trkpt><trkpt lat="44.0837245" lon="7.7821844"><ele>1255.0</ele><time>2026-05-02T16:23:40.047Z</time></trkpt><trkpt lat="44.083639" lon="7.7821278"><ele>1255.0</ele><time>2026-05-02T16:23:41.046Z</time></trkpt><trkpt lat="44.0835308" lon="7.7821207"><ele>1255.0</ele><time>2026-05-02T16:23:42.046Z</time></trkpt><trkpt lat="44.0834188" lon="7.782152"><ele>1255.0</ele><time>2026-05-02T16:23:43.046Z</time></trkpt><trkpt lat="44.0832986" lon="7.7823149"><ele>1255.0</ele><time>2026-05-02T16:23:44.047Z</time></trkpt><trkpt lat="44.0831821" lon="7.782491"><ele>1253.6666666666665</ele><time>2026-05-02T16:23:45.046Z</time></trkpt><trkpt lat="44.0830661" lon="7.7826551"><ele>1252.3333333333333</ele><time>2026-05-02T16:23:46.047Z</time></trkpt><trkpt lat="44.0829976" lon="7.7828682"><ele>1251.0</ele><time>2026-05-02T16:23:47.046Z</time></trkpt><trkpt lat="44.0829455" lon="7.7831001"><ele>1251.0</ele><time>2026-05-02T16:23:48.046Z</time></trkpt><trkpt lat="44.0829041" lon="7.7833287"><ele>1251.0</ele><time>2026-05-02T16:23:49.046Z</time></trkpt><trkpt lat="44.082799" lon="7.7834335"><ele>1251.0</ele><time>2026-05-02T16:23:50.046Z</time></trkpt><trkpt lat="44.0826702" lon="7.7835253"><ele>1251.0</ele><time>2026-05-02T16:23:51.047Z</time></trkpt><trkpt lat="44.0825307" lon="7.7836084"><ele>1244.0</ele><time>2026-05-02T16:23:52.047Z</time></trkpt><trkpt lat="44.0824005" lon="7.7837205"><ele>1237.0</ele><time>2026-05-02T16:23:53.046Z</time></trkpt><trkpt lat="44.082297" lon="7.7838634"><ele>1230.0</ele><time>2026-05-02T16:23:54.046Z</time></trkpt><trkpt lat="44.0822798" lon="7.7840068"><ele>1223.0</ele><time>2026-05-02T16:23:55.046Z</time></trkpt><trkpt lat="44.0822272" lon="7.7841021"><ele>1223.0</ele><time>2026-05-02T16:23:56.046Z</time></trkpt><trkpt lat="44.08217" lon="7.7841449"><ele>1223.0</ele><time>2026-05-02T16:23:57.047Z</time></trkpt><trkpt lat="44.0820557" lon="7.7840312"><ele>1223.0</ele><time>2026-05-02T16:23:59.047Z</time></trkpt><trkpt lat="44.0819953" lon="7.7839337"><ele>1223.0</ele><time>2026-05-02T16:24:00.047Z</time></trkpt><trkpt lat="44.0819245" lon="7.7838481"><ele>1223.0</ele><time>2026-05-02T16:24:01.048Z</time></trkpt><trkpt lat="44.0818312" lon="7.7838149"><ele>1223.0</ele><time>2026-05-02T16:24:02.048Z</time></trkpt><trkpt lat="44.0817192" lon="7.7838403"><ele>1223.0</ele><time>2026-05-02T16:24:03.048Z</time></trkpt><trkpt lat="44.0816074" lon="7.7839156"><ele>1223.0</ele><time>2026-05-02T16:24:04.047Z</time></trkpt><trkpt lat="44.0814862" lon="7.7839945"><ele>1223.0</ele><time>2026-05-02T16:24:05.047Z</time></trkpt><trkpt lat="44.0813622" lon="7.7841473"><ele>1224.75</ele><time>2026-05-02T16:24:06.047Z</time></trkpt><trkpt lat="44.0812472" lon="7.7842857"><ele>1226.5</ele><time>2026-05-02T16:24:07.047Z</time></trkpt><trkpt lat="44.0811463" lon="7.784434"><ele>1228.25</ele><time>2026-05-02T16:24:08.047Z</time></trkpt><trkpt lat="44.0810444" lon="7.7845553"><ele>1230.0</ele><time>2026-05-02T16:24:09.047Z</time></trkpt><trkpt lat="44.0809443" lon="7.7846721"><ele>1224.25</ele><time>2026-05-02T16:24:10.048Z</time></trkpt><trkpt lat="44.0808471" lon="7.784754"><ele>1218.5</ele><time>2026-05-02T16:24:11.047Z</time></trkpt><trkpt lat="44.0807299" lon="7.7847372"><ele>1212.75</ele><time>2026-05-02T16:24:12.047Z</time></trkpt><trkpt lat="44.0806498" lon="7.7848304"><ele>1207.0</ele><time>2026-05-02T16:24:13.048Z</time></trkpt><trkpt lat="44.0805648" lon="7.7849747"><ele>1207.0</ele><time>2026-05-02T16:24:14.048Z</time></trkpt><trkpt lat="44.080479" lon="7.7850999"><ele>1207.0</ele><time>2026-05-02T16:24:15.047Z</time></trkpt><trkpt lat="44.0803826" lon="7.785208"><ele>1207.0</ele><time>2026-05-02T16:24:16.047Z</time></trkpt><trkpt lat="44.0802699" lon="7.785286"><ele>1207.0</ele><time>2026-05-02T16:24:17.048Z</time></trkpt><trkpt lat="44.0801501" lon="7.78532"><ele>1208.3333333333333</ele><time>2026-05-02T16:24:18.047Z</time></trkpt><trkpt lat="44.0800117" lon="7.7853265"><ele>1209.6666666666667</ele><time>2026-05-02T16:24:19.047Z</time></trkpt><trkpt lat="44.0798686" lon="7.7851713"><ele>1211.0</ele><time>2026-05-02T16:24:20.048Z</time></trkpt><trkpt lat="44.079734" lon="7.7851471"><ele>1211.0</ele><time>2026-05-02T16:24:21.047Z</time></trkpt><trkpt lat="44.0795892" lon="7.7851112"><ele>1211.0</ele><time>2026-05-02T16:24:22.048Z</time></trkpt><trkpt lat="44.0794524" lon="7.7851353"><ele>1211.0</ele><time>2026-05-02T16:24:23.047Z</time></trkpt><trkpt lat="44.0793254" lon="7.7851656"><ele>1211.0</ele><time>2026-05-02T16:24:24.047Z</time></trkpt><trkpt lat="44.0792134" lon="7.7852227"><ele>1209.6666666666667</ele><time>2026-05-02T16:24:25.048Z</time></trkpt><trkpt lat="44.0791352" lon="7.7854185"><ele>1208.3333333333333</ele><time>2026-05-02T16:24:26.048Z</time></trkpt><trkpt lat="44.0790706" lon="7.7856357"><ele>1207.0</ele><time>2026-05-02T16:24:27.047Z</time></trkpt><trkpt lat="44.0789671" lon="7.7858172"><ele>1207.0</ele><time>2026-05-02T16:24:28.047Z</time></trkpt><trkpt lat="44.0788487" lon="7.7859876"><ele>1207.0</ele><time>2026-05-02T16:24:29.047Z</time></trkpt><trkpt lat="44.0787092" lon="7.7861456"><ele>1207.0</ele><time>2026-05-02T16:24:30.048Z</time></trkpt><trkpt lat="44.0785708" lon="7.7863137"><ele>1203.3333333333333</ele><time>2026-05-02T16:24:31.048Z</time></trkpt><trkpt lat="44.0784242" lon="7.7864771"><ele>1199.6666666666667</ele><time>2026-05-02T16:24:32.047Z</time></trkpt><trkpt lat="44.0782769" lon="7.7866512"><ele>1196.0</ele><time>2026-05-02T16:24:33.047Z</time></trkpt><trkpt lat="44.0781384" lon="7.7868046"><ele>1191.3333333333335</ele><time>2026-05-02T16:24:34.048Z</time></trkpt><trkpt lat="44.0780003" lon="7.7869656"><ele>1186.6666666666667</ele><time>2026-05-02T16:24:35.047Z</time></trkpt><trkpt lat="44.0778653" lon="7.7871253"><ele>1182.0</ele><time>2026-05-02T16:24:36.047Z</time></trkpt><trkpt lat="44.0777381" lon="7.7872633"><ele>1182.0</ele><time>2026-05-02T16:24:37.047Z</time></trkpt><trkpt lat="44.0776614" lon="7.7874136"><ele>1182.0</ele><time>2026-05-02T16:24:38.047Z</time></trkpt><trkpt lat="44.0775722" lon="7.7875719"><ele>1182.0</ele><time>2026-05-02T16:24:39.048Z</time></trkpt><trkpt lat="44.0775144" lon="7.787746"><ele>1182.0</ele><time>2026-05-02T16:24:40.047Z</time></trkpt><trkpt lat="44.0775529" lon="7.7879162"><ele>1180.0</ele><time>2026-05-02T16:24:41.048Z</time></trkpt><trkpt lat="44.0775501" lon="7.7881035"><ele>1178.0</ele><time>2026-05-02T16:24:42.047Z</time></trkpt><trkpt lat="44.0776087" lon="7.7882605"><ele>1176.0</ele><time>2026-05-02T16:24:43.047Z</time></trkpt><trkpt lat="44.0776137" lon="7.7884255"><ele>1174.0</ele><time>2026-05-02T16:24:44.048Z</time></trkpt><trkpt lat="44.0776056" lon="7.7885871"><ele>1173.5</ele><time>2026-05-02T16:24:45.047Z</time></trkpt><trkpt lat="44.0775638" lon="7.7887537"><ele>1173.0</ele><time>2026-05-02T16:24:46.047Z</time></trkpt><trkpt lat="44.0774988" lon="7.788896"><ele>1172.5</ele><time>2026-05-02T16:24:47.047Z</time></trkpt><trkpt lat="44.0774316" lon="7.7890276"><ele>1172.0</ele><time>2026-05-02T16:24:48.047Z</time></trkpt><trkpt lat="44.0773351" lon="7.7891288"><ele>1172.0</ele><time>2026-05-02T16:24:49.047Z</time></trkpt><trkpt lat="44.0772413" lon="7.7892156"><ele>1172.0</ele><time>2026-05-02T16:24:50.048Z</time></trkpt><trkpt lat="44.0771288" lon="7.7892869"><ele>1172.0</ele><time>2026-05-02T16:24:51.047Z</time></trkpt><trkpt lat="44.0770123" lon="7.7893356"><ele>1172.0</ele><time>2026-05-02T16:24:52.047Z</time></trkpt><trkpt lat="44.0768835" lon="7.7893794"><ele>1172.0</ele><time>2026-05-02T16:24:53.047Z</time></trkpt><trkpt lat="44.0767601" lon="7.7893489"><ele>1172.0</ele><time>2026-05-02T16:24:54.047Z</time></trkpt><trkpt lat="44.0766541" lon="7.7893286"><ele>1172.0</ele><time>2026-05-02T16:24:55.047Z</time></trkpt><trkpt lat="44.0765549" lon="7.7893383"><ele>1172.0</ele><time>2026-05-02T16:24:56.048Z</time></trkpt><trkpt lat="44.0764762" lon="7.789403"><ele>1172.0</ele><time>2026-05-02T16:24:57.047Z</time></trkpt><trkpt lat="44.0765422" lon="7.7895683"><ele>1169.25</ele><time>2026-05-02T16:24:58.047Z</time></trkpt><trkpt lat="44.0765914" lon="7.7896816"><ele>1166.5</ele><time>2026-05-02T16:25:00.048Z</time></trkpt><trkpt lat="44.0766355" lon="7.789759"><ele>1163.75</ele><time>2026-05-02T16:25:01.048Z</time></trkpt><trkpt lat="44.076852" lon="7.7897842"><ele>1161.0</ele><time>2026-05-02T16:25:02.047Z</time></trkpt><trkpt lat="44.0769892" lon="7.789855"><ele>1158.6666666666667</ele><time>2026-05-02T16:25:03.048Z</time></trkpt><trkpt lat="44.0771574" lon="7.789901"><ele>1156.3333333333335</ele><time>2026-05-02T16:25:04.047Z</time></trkpt><trkpt lat="44.07732" lon="7.7899426"><ele>1154.0</ele><time>2026-05-02T16:25:05.047Z</time></trkpt><trkpt lat="44.0775692" lon="7.7899662"><ele>1154.0</ele><time>2026-05-02T16:25:06.047Z</time></trkpt><trkpt lat="44.0777994" lon="7.7899889"><ele>1154.0</ele><time>2026-05-02T16:25:07.047Z</time></trkpt><trkpt lat="44.0780116" lon="7.7900161"><ele>1154.0</ele><time>2026-05-02T16:25:08.048Z</time></trkpt><trkpt lat="44.0782252" lon="7.7900542"><ele>1153.0</ele><time>2026-05-02T16:25:09.047Z</time></trkpt><trkpt lat="44.0784234" lon="7.790087"><ele>1152.0</ele><time>2026-05-02T16:25:10.047Z</time></trkpt><trkpt lat="44.0786075" lon="7.7901116"><ele>1151.0</ele><time>2026-05-02T16:25:11.047Z</time></trkpt><trkpt lat="44.0787728" lon="7.7901211"><ele>1151.0</ele><time>2026-05-02T16:25:12.048Z</time></trkpt><trkpt lat="44.0789196" lon="7.7900765"><ele>1151.0</ele><time>2026-05-02T16:25:13.047Z</time></trkpt><trkpt lat="44.0790642" lon="7.7899661"><ele>1151.0</ele><time>2026-05-02T16:25:14.048Z</time></trkpt><trkpt lat="44.079232" lon="7.7898401"><ele>1149.0</ele><time>2026-05-02T16:25:15.048Z</time></trkpt><trkpt lat="44.079336" lon="7.7896726"><ele>1147.0</ele><time>2026-05-02T16:25:16.048Z</time></trkpt><trkpt lat="44.0794352" lon="7.7895781"><ele>1145.0</ele><time>2026-05-02T16:25:17.048Z</time></trkpt><trkpt lat="44.0795386" lon="7.7895162"><ele>1143.0</ele><time>2026-05-02T16:25:18.047Z</time></trkpt><trkpt lat="44.0796309" lon="7.7895034"><ele>1143.0</ele><time>2026-05-02T16:25:19.047Z</time></trkpt><trkpt lat="44.0796886" lon="7.7895642"><ele>1143.0</ele><time>2026-05-02T16:25:20.047Z</time></trkpt><trkpt lat="44.0796994" lon="7.7896637"><ele>1143.0</ele><time>2026-05-02T16:25:21.048Z</time></trkpt><trkpt lat="44.0796555" lon="7.7897602"><ele>1143.0</ele><time>2026-05-02T16:25:22.047Z</time></trkpt><trkpt lat="44.0796136" lon="7.7898692"><ele>1143.0</ele><time>2026-05-02T16:25:23.047Z</time></trkpt><trkpt lat="44.0795113" lon="7.7899518"><ele>1143.0</ele><time>2026-05-02T16:25:24.047Z</time></trkpt><trkpt lat="44.0794129" lon="7.7900631"><ele>1139.0</ele><time>2026-05-02T16:25:25.048Z</time></trkpt><trkpt lat="44.0793516" lon="7.7902685"><ele>1135.0</ele><time>2026-05-02T16:25:26.047Z</time></trkpt><trkpt lat="44.0792446" lon="7.7904441"><ele>1131.0</ele><time>2026-05-02T16:25:27.047Z</time></trkpt><trkpt lat="44.0791357" lon="7.7906077"><ele>1133.3333333333333</ele><time>2026-05-02T16:25:28.047Z</time></trkpt><trkpt lat="44.0789992" lon="7.7907452"><ele>1135.6666666666665</ele><time>2026-05-02T16:25:29.047Z</time></trkpt><trkpt lat="44.0788516" lon="7.7908472"><ele>1138.0</ele><time>2026-05-02T16:25:30.047Z</time></trkpt><trkpt lat="44.0786787" lon="7.7909589"><ele>1130.0</ele><time>2026-05-02T16:25:31.048Z</time></trkpt><trkpt lat="44.0785063" lon="7.7910416"><ele>1122.0</ele><time>2026-05-02T16:25:32.048Z</time></trkpt><trkpt lat="44.0783405" lon="7.7910961"><ele>1114.0</ele><time>2026-05-02T16:25:33.048Z</time></trkpt><trkpt lat="44.0781682" lon="7.7911629"><ele>1114.0</ele><time>2026-05-02T16:25:34.047Z</time></trkpt><trkpt lat="44.077991" lon="7.7912171"><ele>1114.0</ele><time>2026-05-02T16:25:35.047Z</time></trkpt><trkpt lat="44.0778204" lon="7.7912579"><ele>1114.0</ele><time>2026-05-02T16:25:36.047Z</time></trkpt><trkpt lat="44.077673" lon="7.7912"><ele>1114.0</ele><time>2026-05-02T16:25:37.048Z</time></trkpt><trkpt lat="44.0775375" lon="7.7911731"><ele>1114.0</ele><time>2026-05-02T16:25:38.047Z</time></trkpt><trkpt lat="44.0774126" lon="7.7911599"><ele>1114.0</ele><time>2026-05-02T16:25:39.047Z</time></trkpt><trkpt lat="44.0773259" lon="7.791208"><ele>1114.0</ele><time>2026-05-02T16:25:40.048Z</time></trkpt><trkpt lat="44.0773329" lon="7.7913271"><ele>1114.0</ele><time>2026-05-02T16:25:41.048Z</time></trkpt><trkpt lat="44.0773247" lon="7.7914183"><ele>1114.0</ele><time>2026-05-02T16:25:42.047Z</time></trkpt><trkpt lat="44.0773643" lon="7.7914911"><ele>1114.0</ele><time>2026-05-02T16:25:43.047Z</time></trkpt><trkpt lat="44.0774385" lon="7.791523"><ele>1114.0</ele><time>2026-05-02T16:25:44.047Z</time></trkpt><trkpt lat="44.0775239" lon="7.79153"><ele>1114.0</ele><time>2026-05-02T16:25:45.047Z</time></trkpt><trkpt lat="44.077662" lon="7.7915066"><ele>1114.0</ele><time>2026-05-02T16:25:46.047Z</time></trkpt><trkpt lat="44.0778005" lon="7.791498"><ele>1114.0</ele><time>2026-05-02T16:25:47.047Z</time></trkpt><trkpt lat="44.077955" lon="7.7914929"><ele>1114.0</ele><time>2026-05-02T16:25:48.048Z</time></trkpt><trkpt lat="44.0781041" lon="7.7914867"><ele>1114.0</ele><time>2026-05-02T16:25:49.047Z</time></trkpt><trkpt lat="44.0782472" lon="7.7914946"><ele>1114.0</ele><time>2026-05-02T16:25:50.047Z</time></trkpt><trkpt lat="44.0784583" lon="7.7915832"><ele>1113.3333333333333</ele><time>2026-05-02T16:25:51.047Z</time></trkpt><trkpt lat="44.0786478" lon="7.7916615"><ele>1112.6666666666667</ele><time>2026-05-02T16:25:52.047Z</time></trkpt><trkpt lat="44.0788276" lon="7.7917406"><ele>1112.0</ele><time>2026-05-02T16:25:53.047Z</time></trkpt><trkpt lat="44.0789985" lon="7.7918228"><ele>1105.3333333333335</ele><time>2026-05-02T16:25:54.047Z</time></trkpt><trkpt lat="44.0791724" lon="7.7919116"><ele>1098.6666666666667</ele><time>2026-05-02T16:25:55.047Z</time></trkpt><trkpt lat="44.0793302" lon="7.7920076"><ele>1092.0</ele><time>2026-05-02T16:25:56.048Z</time></trkpt><trkpt lat="44.0794805" lon="7.7920896"><ele>1092.0</ele><time>2026-05-02T16:25:57.048Z</time></trkpt><trkpt lat="44.0796195" lon="7.7921432"><ele>1092.0</ele><time>2026-05-02T16:25:58.047Z</time></trkpt><trkpt lat="44.0797687" lon="7.7921751"><ele>1092.0</ele><time>2026-05-02T16:25:59.047Z</time></trkpt><trkpt lat="44.0798975" lon="7.7921414"><ele>1092.0</ele><time>2026-05-02T16:26:00.048Z</time></trkpt><trkpt lat="44.0800503" lon="7.792069"><ele>1091.8</ele><time>2026-05-02T16:26:01.047Z</time></trkpt><trkpt lat="44.0801757" lon="7.7919546"><ele>1091.6</ele><time>2026-05-02T16:26:02.047Z</time></trkpt><trkpt lat="44.0801786" lon="7.7918144"><ele>1091.3999999999999</ele><time>2026-05-02T16:26:03.047Z</time></trkpt><trkpt lat="44.0802795" lon="7.7918711"><ele>1091.2</ele><time>2026-05-02T16:26:05.047Z</time></trkpt><trkpt lat="44.0803338" lon="7.7919317"><ele>1091.0</ele><time>2026-05-02T16:26:06.047Z</time></trkpt><trkpt lat="44.080368" lon="7.7920585"><ele>1091.0</ele><time>2026-05-02T16:26:07.048Z</time></trkpt><trkpt lat="44.0803903" lon="7.7921785"><ele>1091.0</ele><time>2026-05-02T16:26:08.048Z</time></trkpt><trkpt lat="44.0801976" lon="7.7923806"><ele>1091.0</ele><time>2026-05-02T16:26:09.047Z</time></trkpt><trkpt lat="44.0801578" lon="7.7925663"><ele>1086.6666666666667</ele><time>2026-05-02T16:26:10.048Z</time></trkpt><trkpt lat="44.0800503" lon="7.7927431"><ele>1082.3333333333333</ele><time>2026-05-02T16:26:11.047Z</time></trkpt><trkpt lat="44.0799442" lon="7.7928976"><ele>1078.0</ele><time>2026-05-02T16:26:12.047Z</time></trkpt><trkpt lat="44.0798106" lon="7.7930156"><ele>1076.75</ele><time>2026-05-02T16:26:13.047Z</time></trkpt><trkpt lat="44.0796741" lon="7.7931031"><ele>1075.5</ele><time>2026-05-02T16:26:14.047Z</time></trkpt><trkpt lat="44.0795361" lon="7.7930752"><ele>1074.25</ele><time>2026-05-02T16:26:15.047Z</time></trkpt><trkpt lat="44.0794049" lon="7.7929789"><ele>1073.0</ele><time>2026-05-02T16:26:16.047Z</time></trkpt><trkpt lat="44.0792445" lon="7.7928989"><ele>1068.6666666666667</ele><time>2026-05-02T16:26:17.047Z</time></trkpt><trkpt lat="44.0790769" lon="7.7928131"><ele>1064.3333333333333</ele><time>2026-05-02T16:26:18.047Z</time></trkpt><trkpt lat="44.0789033" lon="7.7927276"><ele>1060.0</ele><time>2026-05-02T16:26:19.047Z</time></trkpt><trkpt lat="44.0787324" lon="7.792678"><ele>1069.0</ele><time>2026-05-02T16:26:20.048Z</time></trkpt><trkpt lat="44.0785508" lon="7.7926535"><ele>1078.0</ele><time>2026-05-02T16:26:21.048Z</time></trkpt><trkpt lat="44.0783774" lon="7.792639"><ele>1087.0</ele><time>2026-05-02T16:26:22.047Z</time></trkpt><trkpt lat="44.0782005" lon="7.7926346"><ele>1078.0</ele><time>2026-05-02T16:26:23.048Z</time></trkpt><trkpt lat="44.0780302" lon="7.7926923"><ele>1069.0</ele><time>2026-05-02T16:26:24.047Z</time></trkpt><trkpt lat="44.0779031" lon="7.7929168"><ele>1060.0</ele><time>2026-05-02T16:26:25.048Z</time></trkpt><trkpt lat="44.0777479" lon="7.7930021"><ele>1060.0</ele><time>2026-05-02T16:26:26.047Z</time></trkpt><trkpt lat="44.0775893" lon="7.7930587"><ele>1060.0</ele><time>2026-05-02T16:26:27.047Z</time></trkpt><trkpt lat="44.0774354" lon="7.7931139"><ele>1060.0</ele><time>2026-05-02T16:26:28.047Z</time></trkpt><trkpt lat="44.0772749" lon="7.7931511"><ele>1060.6666666666665</ele><time>2026-05-02T16:26:29.047Z</time></trkpt><trkpt lat="44.0771211" lon="7.793188"><ele>1061.3333333333333</ele><time>2026-05-02T16:26:30.047Z</time></trkpt><trkpt lat="44.0769691" lon="7.7932216"><ele>1062.0</ele><time>2026-05-02T16:26:31.047Z</time></trkpt><trkpt lat="44.0768257" lon="7.793323"><ele>1062.0</ele><time>2026-05-02T16:26:32.048Z</time></trkpt><trkpt lat="44.0766902" lon="7.7934843"><ele>1062.0</ele><time>2026-05-02T16:26:33.047Z</time></trkpt><trkpt lat="44.0765677" lon="7.793623"><ele>1062.0</ele><time>2026-05-02T16:26:34.048Z</time></trkpt><trkpt lat="44.0764566" lon="7.793791"><ele>1062.5</ele><time>2026-05-02T16:26:35.047Z</time></trkpt><trkpt lat="44.0763391" lon="7.7939294"><ele>1063.0</ele><time>2026-05-02T16:26:36.047Z</time></trkpt><trkpt lat="44.0762198" lon="7.7940823"><ele>1063.5</ele><time>2026-05-02T16:26:37.048Z</time></trkpt><trkpt lat="44.0761553" lon="7.7942439"><ele>1064.0</ele><time>2026-05-02T16:26:38.047Z</time></trkpt><trkpt lat="44.0761048" lon="7.7944097"><ele>1062.2</ele><time>2026-05-02T16:26:39.047Z</time></trkpt><trkpt lat="44.0760744" lon="7.7946005"><ele>1060.4</ele><time>2026-05-02T16:26:40.047Z</time></trkpt><trkpt lat="44.076051" lon="7.7947622"><ele>1058.6</ele><time>2026-05-02T16:26:41.048Z</time></trkpt><trkpt lat="44.0760431" lon="7.7948992"><ele>1056.8</ele><time>2026-05-02T16:26:42.047Z</time></trkpt><trkpt lat="44.07606" lon="7.7950147"><ele>1055.0</ele><time>2026-05-02T16:26:43.047Z</time></trkpt><trkpt lat="44.0761385" lon="7.7950382"><ele>1055.0</ele><time>2026-05-02T16:26:44.047Z</time></trkpt><trkpt lat="44.07621" lon="7.7950118"><ele>1055.0</ele><time>2026-05-02T16:26:45.047Z</time></trkpt><trkpt lat="44.0762704" lon="7.7949742"><ele>1055.0</ele><time>2026-05-02T16:26:46.047Z</time></trkpt><trkpt lat="44.0763452" lon="7.7948039"><ele>1055.0</ele><time>2026-05-02T16:26:47.047Z</time></trkpt><trkpt lat="44.0764246" lon="7.7946751"><ele>1055.0</ele><time>2026-05-02T16:26:48.048Z</time></trkpt><trkpt lat="44.0765363" lon="7.7945755"><ele>1049.3333333333335</ele><time>2026-05-02T16:26:49.047Z</time></trkpt><trkpt lat="44.0766416" lon="7.794465"><ele>1043.6666666666667</ele><time>2026-05-02T16:26:50.047Z</time></trkpt><trkpt lat="44.0767603" lon="7.7944075"><ele>1038.0</ele><time>2026-05-02T16:26:51.047Z</time></trkpt><trkpt lat="44.0769634" lon="7.7943823"><ele>1041.0</ele><time>2026-05-02T16:26:52.048Z</time></trkpt><trkpt lat="44.0771217" lon="7.7943305"><ele>1044.0</ele><time>2026-05-02T16:26:53.047Z</time></trkpt><trkpt lat="44.0772853" lon="7.794268"><ele>1047.0</ele><time>2026-05-02T16:26:54.047Z</time></trkpt><trkpt lat="44.077423" lon="7.7942178"><ele>1044.25</ele><time>2026-05-02T16:26:55.048Z</time></trkpt><trkpt lat="44.0775535" lon="7.7941774"><ele>1041.5</ele><time>2026-05-02T16:26:56.048Z</time></trkpt><trkpt lat="44.0776862" lon="7.7941535"><ele>1038.75</ele><time>2026-05-02T16:26:57.047Z</time></trkpt><trkpt lat="44.0778043" lon="7.7941603"><ele>1036.0</ele><time>2026-05-02T16:26:58.047Z</time></trkpt><trkpt lat="44.0779163" lon="7.794209"><ele>1036.0</ele><time>2026-05-02T16:26:59.047Z</time></trkpt><trkpt lat="44.0780269" lon="7.7943021"><ele>1036.0</ele><time>2026-05-02T16:27:00.047Z</time></trkpt><trkpt lat="44.0781281" lon="7.7944438"><ele>1036.0</ele><time>2026-05-02T16:27:01.048Z</time></trkpt><trkpt lat="44.0782268" lon="7.7946109"><ele>1036.0</ele><time>2026-05-02T16:27:02.047Z</time></trkpt><trkpt lat="44.0783224" lon="7.7947986"><ele>1032.6666666666665</ele><time>2026-05-02T16:27:03.048Z</time></trkpt><trkpt lat="44.0784247" lon="7.7949936"><ele>1029.3333333333333</ele><time>2026-05-02T16:27:04.048Z</time></trkpt><trkpt lat="44.0785375" lon="7.7951923"><ele>1026.0</ele><time>2026-05-02T16:27:05.048Z</time></trkpt><trkpt lat="44.0786579" lon="7.79539"><ele>1019.6666666666667</ele><time>2026-05-02T16:27:06.047Z</time></trkpt><trkpt lat="44.0787955" lon="7.7955544"><ele>1013.3333333333334</ele><time>2026-05-02T16:27:07.047Z</time></trkpt><trkpt lat="44.0789339" lon="7.7956943"><ele>1007.0</ele><time>2026-05-02T16:27:08.048Z</time></trkpt><trkpt lat="44.0790759" lon="7.7958109"><ele>1004.75</ele><time>2026-05-02T16:27:09.047Z</time></trkpt><trkpt lat="44.0792066" lon="7.7959167"><ele>1002.5</ele><time>2026-05-02T16:27:10.047Z</time></trkpt><trkpt lat="44.0793337" lon="7.7960064"><ele>1000.25</ele><time>2026-05-02T16:27:11.047Z</time></trkpt><trkpt lat="44.0794184" lon="7.7961315"><ele>998.0</ele><time>2026-05-02T16:27:12.047Z</time></trkpt><trkpt lat="44.0794187" lon="7.7962818"><ele>998.0</ele><time>2026-05-02T16:27:14.047Z</time></trkpt><trkpt lat="44.0794272" lon="7.7963759"><ele>998.0</ele><time>2026-05-02T16:27:15.048Z</time></trkpt><trkpt lat="44.0793466" lon="7.7964101"><ele>998.0</ele><time>2026-05-02T16:27:16.047Z</time></trkpt><trkpt lat="44.0792513" lon="7.7963765"><ele>998.0</ele><time>2026-05-02T16:27:17.047Z</time></trkpt><trkpt lat="44.0790534" lon="7.7961314"><ele>996.0</ele><time>2026-05-02T16:27:18.047Z</time></trkpt><trkpt lat="44.07894" lon="7.7960587"><ele>994.0</ele><time>2026-05-02T16:27:19.048Z</time></trkpt><trkpt lat="44.0787854" lon="7.7959835"><ele>992.0</ele><time>2026-05-02T16:27:20.047Z</time></trkpt><trkpt lat="44.0786188" lon="7.7959446"><ele>997.0</ele><time>2026-05-02T16:27:21.048Z</time></trkpt><trkpt lat="44.0784519" lon="7.7959293"><ele>1002.0</ele><time>2026-05-02T16:27:22.047Z</time></trkpt><trkpt lat="44.0782797" lon="7.7959225"><ele>1007.0</ele><time>2026-05-02T16:27:23.047Z</time></trkpt><trkpt lat="44.0781189" lon="7.7959065"><ele>1008.0</ele><time>2026-05-02T16:27:24.047Z</time></trkpt><trkpt lat="44.0779795" lon="7.7958982"><ele>1009.0</ele><time>2026-05-02T16:27:25.047Z</time></trkpt><trkpt lat="44.0778342" lon="7.795888"><ele>1010.0</ele><time>2026-05-02T16:27:26.047Z</time></trkpt><trkpt lat="44.0777197" lon="7.7959415"><ele>1011.0</ele><time>2026-05-02T16:27:27.047Z</time></trkpt><trkpt lat="44.0776316" lon="7.7960121"><ele>1007.75</ele><time>2026-05-02T16:27:28.048Z</time></trkpt><trkpt lat="44.0775769" lon="7.7961415"><ele>1004.5</ele><time>2026-05-02T16:27:29.047Z</time></trkpt><trkpt lat="44.0778009" lon="7.7962481"><ele>1001.25</ele><time>2026-05-02T16:27:30.048Z</time></trkpt><trkpt lat="44.077814" lon="7.796338"><ele>998.0</ele><time>2026-05-02T16:27:31.047Z</time></trkpt><trkpt lat="44.0779044" lon="7.7963785"><ele>998.0</ele><time>2026-05-02T16:27:32.048Z</time></trkpt><trkpt lat="44.0780092" lon="7.7963967"><ele>998.0</ele><time>2026-05-02T16:27:33.047Z</time></trkpt><trkpt lat="44.0782293" lon="7.7963654"><ele>998.0</ele><time>2026-05-02T16:27:34.047Z</time></trkpt><trkpt lat="44.0783763" lon="7.7963981"><ele>996.5</ele><time>2026-05-02T16:27:35.048Z</time></trkpt><trkpt lat="44.0785102" lon="7.796468"><ele>995.0</ele><time>2026-05-02T16:27:36.047Z</time></trkpt><trkpt lat="44.0786321" lon="7.7965806"><ele>993.5</ele><time>2026-05-02T16:27:37.048Z</time></trkpt><trkpt lat="44.0787519" lon="7.7966828"><ele>992.0</ele><time>2026-05-02T16:27:38.048Z</time></trkpt><trkpt lat="44.0788671" lon="7.7968094"><ele>989.25</ele><time>2026-05-02T16:27:39.048Z</time></trkpt><trkpt lat="44.0789559" lon="7.7969623"><ele>986.5</ele><time>2026-05-02T16:27:40.048Z</time></trkpt><trkpt lat="44.0790717" lon="7.7970862"><ele>983.75</ele><time>2026-05-02T16:27:41.047Z</time></trkpt><trkpt lat="44.0792106" lon="7.7971479"><ele>981.0</ele><time>2026-05-02T16:27:42.047Z</time></trkpt><trkpt lat="44.0793449" lon="7.7972372"><ele>980.75</ele><time>2026-05-02T16:27:43.047Z</time></trkpt><trkpt lat="44.0794821" lon="7.7972985"><ele>980.5</ele><time>2026-05-02T16:27:44.047Z</time></trkpt><trkpt lat="44.0796203" lon="7.7973576"><ele>980.25</ele><time>2026-05-02T16:27:45.047Z</time></trkpt><trkpt lat="44.0797311" lon="7.7972949"><ele>980.0</ele><time>2026-05-02T16:27:46.047Z</time></trkpt><trkpt lat="44.0798587" lon="7.7972768"><ele>981.25</ele><time>2026-05-02T16:27:47.047Z</time></trkpt><trkpt lat="44.0799675" lon="7.7972197"><ele>982.5</ele><time>2026-05-02T16:27:48.047Z</time></trkpt><trkpt lat="44.0800657" lon="7.7970972"><ele>983.75</ele><time>2026-05-02T16:27:49.047Z</time></trkpt><trkpt lat="44.0801663" lon="7.7969101"><ele>985.0</ele><time>2026-05-02T16:27:50.047Z</time></trkpt><trkpt lat="44.0802628" lon="7.7966881"><ele>985.0</ele><time>2026-05-02T16:27:51.047Z</time></trkpt><trkpt lat="44.0803217" lon="7.7964228"><ele>985.0</ele><time>2026-05-02T16:27:52.047Z</time></trkpt><trkpt lat="44.0804008" lon="7.7962424"><ele>985.0</ele><time>2026-05-02T16:27:53.047Z</time></trkpt><trkpt lat="44.0805133" lon="7.7960968"><ele>980.6666666666666</ele><time>2026-05-02T16:27:54.047Z</time></trkpt><trkpt lat="44.0806535" lon="7.7959873"><ele>976.3333333333333</ele><time>2026-05-02T16:27:55.047Z</time></trkpt><trkpt lat="44.0808034" lon="7.795901"><ele>972.0</ele><time>2026-05-02T16:27:56.047Z</time></trkpt><trkpt lat="44.080942" lon="7.7958317"><ele>972.0</ele><time>2026-05-02T16:27:57.048Z</time></trkpt><trkpt lat="44.081075" lon="7.7957889"><ele>972.0</ele><time>2026-05-02T16:27:58.048Z</time></trkpt><trkpt lat="44.0811792" lon="7.7957471"><ele>972.0</ele><time>2026-05-02T16:27:59.047Z</time></trkpt><trkpt lat="44.0812927" lon="7.7958727"><ele>972.0</ele><time>2026-05-02T16:28:00.048Z</time></trkpt><trkpt lat="44.0813928" lon="7.7959371"><ele>965.3333333333333</ele><time>2026-05-02T16:28:01.047Z</time></trkpt><trkpt lat="44.0814764" lon="7.7961432"><ele>958.6666666666666</ele><time>2026-05-02T16:28:02.048Z</time></trkpt><trkpt lat="44.0815748" lon="7.7962994"><ele>952.0</ele><time>2026-05-02T16:28:03.047Z</time></trkpt><trkpt lat="44.081673" lon="7.796466"><ele>951.6666666666666</ele><time>2026-05-02T16:28:04.047Z</time></trkpt><trkpt lat="44.0817814" lon="7.7966587"><ele>951.3333333333333</ele><time>2026-05-02T16:28:05.047Z</time></trkpt><trkpt lat="44.0818916" lon="7.7968525"><ele>951.0</ele><time>2026-05-02T16:28:06.047Z</time></trkpt><trkpt lat="44.0819954" lon="7.7970313"><ele>948.0</ele><time>2026-05-02T16:28:07.047Z</time></trkpt><trkpt lat="44.0820934" lon="7.7971989"><ele>945.0</ele><time>2026-05-02T16:28:08.047Z</time></trkpt><trkpt lat="44.0821981" lon="7.7973286"><ele>942.0</ele><time>2026-05-02T16:28:09.047Z</time></trkpt><trkpt lat="44.0823164" lon="7.7974537"><ele>939.0</ele><time>2026-05-02T16:28:10.047Z</time></trkpt><trkpt lat="44.082429" lon="7.797533"><ele>940.25</ele><time>2026-05-02T16:28:11.047Z</time></trkpt><trkpt lat="44.0825522" lon="7.7975514"><ele>941.5</ele><time>2026-05-02T16:28:12.047Z</time></trkpt><trkpt lat="44.0826781" lon="7.7974801"><ele>942.75</ele><time>2026-05-02T16:28:13.047Z</time></trkpt><trkpt lat="44.0828157" lon="7.7973087"><ele>944.0</ele><time>2026-05-02T16:28:14.047Z</time></trkpt><trkpt lat="44.0829671" lon="7.7972693"><ele>944.0</ele><time>2026-05-02T16:28:15.048Z</time></trkpt><trkpt lat="44.0831085" lon="7.7972095"><ele>944.0</ele><time>2026-05-02T16:28:16.047Z</time></trkpt><trkpt lat="44.0832536" lon="7.7972714"><ele>944.0</ele><time>2026-05-02T16:28:17.048Z</time></trkpt><trkpt lat="44.08336" lon="7.7973008"><ele>944.0</ele><time>2026-05-02T16:28:18.047Z</time></trkpt><trkpt lat="44.0834318" lon="7.7973673"><ele>944.0</ele><time>2026-05-02T16:28:19.047Z</time></trkpt><trkpt lat="44.0834555" lon="7.797461"><ele>944.0000000000001</ele><time>2026-05-02T16:28:20.047Z</time></trkpt><trkpt lat="44.0834849" lon="7.7975508"><ele>944.0000000000001</ele><time>2026-05-02T16:28:21.047Z</time></trkpt><trkpt lat="44.0833529" lon="7.7975664"><ele>944.0</ele><time>2026-05-02T16:28:22.047Z</time></trkpt><trkpt lat="44.0832718" lon="7.7975637"><ele>944.0</ele><time>2026-05-02T16:28:23.047Z</time></trkpt><trkpt lat="44.0831533" lon="7.797551"><ele>944.0</ele><time>2026-05-02T16:28:24.047Z</time></trkpt><trkpt lat="44.08304" lon="7.7975658"><ele>944.0</ele><time>2026-05-02T16:28:25.047Z</time></trkpt><trkpt lat="44.0829132" lon="7.7976632"><ele>944.0</ele><time>2026-05-02T16:28:26.047Z</time></trkpt><trkpt lat="44.0827739" lon="7.7977953"><ele>944.0</ele><time>2026-05-02T16:28:27.047Z</time></trkpt><trkpt lat="44.082629" lon="7.7979474"><ele>939.3333333333334</ele><time>2026-05-02T16:28:28.048Z</time></trkpt><trkpt lat="44.0824791" lon="7.7981118"><ele>934.6666666666667</ele><time>2026-05-02T16:28:29.048Z</time></trkpt><trkpt lat="44.0823199" lon="7.7982643"><ele>930.0</ele><time>2026-05-02T16:28:30.048Z</time></trkpt><trkpt lat="44.0821639" lon="7.7984154"><ele>924.6666666666667</ele><time>2026-05-02T16:28:31.047Z</time></trkpt><trkpt lat="44.0819918" lon="7.7985823"><ele>919.3333333333334</ele><time>2026-05-02T16:28:32.047Z</time></trkpt><trkpt lat="44.0818229" lon="7.7987499"><ele>914.0</ele><time>2026-05-02T16:28:33.047Z</time></trkpt><trkpt lat="44.0816633" lon="7.7989336"><ele>913.6666666666667</ele><time>2026-05-02T16:28:34.047Z</time></trkpt><trkpt lat="44.0815047" lon="7.7990782"><ele>913.3333333333333</ele><time>2026-05-02T16:28:35.048Z</time></trkpt><trkpt lat="44.0813457" lon="7.7992454"><ele>913.0</ele><time>2026-05-02T16:28:36.047Z</time></trkpt><trkpt lat="44.0811933" lon="7.7993976"><ele>910.8</ele><time>2026-05-02T16:28:37.047Z</time></trkpt><trkpt lat="44.081091" lon="7.7994891"><ele>908.5999999999999</ele><time>2026-05-02T16:28:38.047Z</time></trkpt><trkpt lat="44.0809805" lon="7.7995896"><ele>906.4000000000001</ele><time>2026-05-02T16:28:39.048Z</time></trkpt><trkpt lat="44.0809099" lon="7.7997016"><ele>904.2</ele><time>2026-05-02T16:28:40.047Z</time></trkpt><trkpt lat="44.0808525" lon="7.7997902"><ele>902.0</ele><time>2026-05-02T16:28:41.047Z</time></trkpt><trkpt lat="44.0808313" lon="7.7999014"><ele>902.0</ele><time>2026-05-02T16:28:42.047Z</time></trkpt><trkpt lat="44.0808271" lon="7.800029"><ele>902.0</ele><time>2026-05-02T16:28:43.048Z</time></trkpt><trkpt lat="44.0810885" lon="7.7997952"><ele>902.0</ele><time>2026-05-02T16:28:45.047Z</time></trkpt><trkpt lat="44.0811776" lon="7.7997223"><ele>902.0</ele><time>2026-05-02T16:28:46.048Z</time></trkpt><trkpt lat="44.0812841" lon="7.7996011"><ele>902.0</ele><time>2026-05-02T16:28:47.047Z</time></trkpt><trkpt lat="44.0814969" lon="7.7994777"><ele>902.0</ele><time>2026-05-02T16:28:48.047Z</time></trkpt><trkpt lat="44.0816584" lon="7.7994331"><ele>900.6666666666667</ele><time>2026-05-02T16:28:49.047Z</time></trkpt><trkpt lat="44.0818313" lon="7.7994396"><ele>899.3333333333333</ele><time>2026-05-02T16:28:50.048Z</time></trkpt><trkpt lat="44.0820012" lon="7.7994963"><ele>898.0</ele><time>2026-05-02T16:28:51.047Z</time></trkpt><trkpt lat="44.0821819" lon="7.7995443"><ele>898.0</ele><time>2026-05-02T16:28:52.048Z</time></trkpt><trkpt lat="44.0823647" lon="7.7995438"><ele>898.0</ele><time>2026-05-02T16:28:53.047Z</time></trkpt><trkpt lat="44.0825419" lon="7.7995075"><ele>898.0</ele><time>2026-05-02T16:28:54.047Z</time></trkpt><trkpt lat="44.0826925" lon="7.7994713"><ele>896.9999999999999</ele><time>2026-05-02T16:28:55.047Z</time></trkpt><trkpt lat="44.0827831" lon="7.799482"><ele>896.0</ele><time>2026-05-02T16:28:56.047Z</time></trkpt><trkpt lat="44.0828694" lon="7.7995091"><ele>895.0</ele><time>2026-05-02T16:28:57.047Z</time></trkpt><trkpt lat="44.0829369" lon="7.7995671"><ele>894.0</ele><time>2026-05-02T16:28:58.048Z</time></trkpt><trkpt lat="44.0829578" lon="7.7996563"><ele>892.9999999999999</ele><time>2026-05-02T16:28:59.048Z</time></trkpt><trkpt lat="44.0829122" lon="7.7997348"><ele>892.0</ele><time>2026-05-02T16:29:00.047Z</time></trkpt><trkpt lat="44.0828283" lon="7.7997718"><ele>892.0</ele><time>2026-05-02T16:29:01.047Z</time></trkpt><trkpt lat="44.0827167" lon="7.7997823"><ele>892.0</ele><time>2026-05-02T16:29:02.047Z</time></trkpt><trkpt lat="44.0826011" lon="7.7998111"><ele>892.0</ele><time>2026-05-02T16:29:03.047Z</time></trkpt><trkpt lat="44.0824318" lon="7.7998613"><ele>892.0</ele><time>2026-05-02T16:29:04.047Z</time></trkpt><trkpt lat="44.08228" lon="7.7999035"><ele>894.0</ele><time>2026-05-02T16:29:05.047Z</time></trkpt><trkpt lat="44.0821042" lon="7.8000391"><ele>896.0</ele><time>2026-05-02T16:29:06.047Z</time></trkpt><trkpt lat="44.0819438" lon="7.8001141"><ele>898.0</ele><time>2026-05-02T16:29:07.047Z</time></trkpt><trkpt lat="44.0817975" lon="7.8002229"><ele>894.0</ele><time>2026-05-02T16:29:08.047Z</time></trkpt><trkpt lat="44.0816503" lon="7.8003308"><ele>890.0</ele><time>2026-05-02T16:29:09.048Z</time></trkpt><trkpt lat="44.081496" lon="7.8004678"><ele>886.0</ele><time>2026-05-02T16:29:10.048Z</time></trkpt><trkpt lat="44.0813996" lon="7.8006246"><ele>886.0</ele><time>2026-05-02T16:29:11.047Z</time></trkpt><trkpt lat="44.0813181" lon="7.8008051"><ele>886.0</ele><time>2026-05-02T16:29:12.048Z</time></trkpt><trkpt lat="44.0812598" lon="7.8009836"><ele>886.0</ele><time>2026-05-02T16:29:13.047Z</time></trkpt><trkpt lat="44.081185" lon="7.8011644"><ele>886.0</ele><time>2026-05-02T16:29:14.048Z</time></trkpt><trkpt lat="44.0810579" lon="7.8012838"><ele>880.6666666666666</ele><time>2026-05-02T16:29:15.047Z</time></trkpt><trkpt lat="44.0809055" lon="7.8013796"><ele>875.3333333333333</ele><time>2026-05-02T16:29:16.047Z</time></trkpt><trkpt lat="44.0807629" lon="7.801488"><ele>870.0</ele><time>2026-05-02T16:29:17.047Z</time></trkpt><trkpt lat="44.0806133" lon="7.8016369"><ele>870.0</ele><time>2026-05-02T16:29:18.047Z</time></trkpt><trkpt lat="44.080487" lon="7.801771"><ele>870.0</ele><time>2026-05-02T16:29:19.047Z</time></trkpt><trkpt lat="44.0803653" lon="7.8019684"><ele>870.0</ele><time>2026-05-02T16:29:20.048Z</time></trkpt><trkpt lat="44.0802332" lon="7.8021312"><ele>864.25</ele><time>2026-05-02T16:29:21.047Z</time></trkpt><trkpt lat="44.0801048" lon="7.8022619"><ele>858.5</ele><time>2026-05-02T16:29:22.047Z</time></trkpt><trkpt lat="44.0799909" lon="7.8024029"><ele>852.75</ele><time>2026-05-02T16:29:23.048Z</time></trkpt><trkpt lat="44.0798636" lon="7.8024015"><ele>847.0</ele><time>2026-05-02T16:29:24.047Z</time></trkpt><trkpt lat="44.0797683" lon="7.8024107"><ele>847.0</ele><time>2026-05-02T16:29:25.048Z</time></trkpt><trkpt lat="44.0796432" lon="7.8024248"><ele>847.0</ele><time>2026-05-02T16:29:26.047Z</time></trkpt><trkpt lat="44.0795198" lon="7.8024555"><ele>847.0</ele><time>2026-05-02T16:29:27.047Z</time></trkpt><trkpt lat="44.0794176" lon="7.8025485"><ele>847.0</ele><time>2026-05-02T16:29:28.047Z</time></trkpt><trkpt lat="44.0792963" lon="7.8026056"><ele>847.0</ele><time>2026-05-02T16:29:29.048Z</time></trkpt><trkpt lat="44.0791839" lon="7.8025967"><ele>847.0</ele><time>2026-05-02T16:29:30.047Z</time></trkpt><trkpt lat="44.0790735" lon="7.8025519"><ele>847.0</ele><time>2026-05-02T16:29:31.048Z</time></trkpt><trkpt lat="44.078982" lon="7.8025295"><ele>847.0</ele><time>2026-05-02T16:29:32.047Z</time></trkpt><trkpt lat="44.0788942" lon="7.8025131"><ele>847.0</ele><time>2026-05-02T16:29:33.047Z</time></trkpt><trkpt lat="44.0788349" lon="7.8026608"><ele>843.0</ele><time>2026-05-02T16:29:35.047Z</time></trkpt><trkpt lat="44.0788508" lon="7.8027591"><ele>839.0</ele><time>2026-05-02T16:29:36.048Z</time></trkpt><trkpt lat="44.0788864" lon="7.8028468"><ele>835.0</ele><time>2026-05-02T16:29:37.047Z</time></trkpt><trkpt lat="44.0790986" lon="7.8028018"><ele>831.0</ele><time>2026-05-02T16:29:38.047Z</time></trkpt><trkpt lat="44.0792216" lon="7.8027827"><ele>830.0</ele><time>2026-05-02T16:29:39.047Z</time></trkpt><trkpt lat="44.0793548" lon="7.8027425"><ele>829.0</ele><time>2026-05-02T16:29:40.047Z</time></trkpt><trkpt lat="44.0794944" lon="7.8026925"><ele>828.0</ele><time>2026-05-02T16:29:41.047Z</time></trkpt><trkpt lat="44.0796267" lon="7.8026482"><ele>827.0</ele><time>2026-05-02T16:29:42.048Z</time></trkpt><trkpt lat="44.0797556" lon="7.8026355"><ele>827.0000000000001</ele><time>2026-05-02T16:29:43.047Z</time></trkpt><trkpt lat="44.0798553" lon="7.8026532"><ele>827.0</ele><time>2026-05-02T16:29:44.047Z</time></trkpt><trkpt lat="44.0799201" lon="7.8027271"><ele>827.0</ele><time>2026-05-02T16:29:45.047Z</time></trkpt><trkpt lat="44.079931" lon="7.8028176"><ele>827.0</ele><time>2026-05-02T16:29:46.047Z</time></trkpt><trkpt lat="44.0799017" lon="7.8029052"><ele>827.0000000000001</ele><time>2026-05-02T16:29:47.047Z</time></trkpt><trkpt lat="44.0798201" lon="7.8029522"><ele>827.0</ele><time>2026-05-02T16:29:48.047Z</time></trkpt><trkpt lat="44.0797119" lon="7.8029519"><ele>827.0</ele><time>2026-05-02T16:29:49.047Z</time></trkpt><trkpt lat="44.0795908" lon="7.8029597"><ele>827.0</ele><time>2026-05-02T16:29:50.047Z</time></trkpt><trkpt lat="44.0794683" lon="7.8030124"><ele>827.0</ele><time>2026-05-02T16:29:51.048Z</time></trkpt><trkpt lat="44.0793445" lon="7.8030604"><ele>827.0</ele><time>2026-05-02T16:29:52.047Z</time></trkpt><trkpt lat="44.0792221" lon="7.8032112"><ele>828.0</ele><time>2026-05-02T16:29:53.047Z</time></trkpt><trkpt lat="44.0790947" lon="7.8032988"><ele>829.0</ele><time>2026-05-02T16:29:54.048Z</time></trkpt><trkpt lat="44.0789655" lon="7.803372"><ele>830.0</ele><time>2026-05-02T16:29:55.048Z</time></trkpt><trkpt lat="44.0788462" lon="7.8034356"><ele>831.0</ele><time>2026-05-02T16:29:56.047Z</time></trkpt><trkpt lat="44.0787369" lon="7.8034967"><ele>828.0</ele><time>2026-05-02T16:29:57.048Z</time></trkpt><trkpt lat="44.0786521" lon="7.8035474"><ele>825.0</ele><time>2026-05-02T16:29:58.047Z</time></trkpt><trkpt lat="44.0786677" lon="7.8036511"><ele>822.0</ele><time>2026-05-02T16:29:59.047Z</time></trkpt><trkpt lat="44.0786406" lon="7.8037436"><ele>819.0</ele><time>2026-05-02T16:30:00.048Z</time></trkpt><trkpt lat="44.078659" lon="7.803833"><ele>816.0</ele><time>2026-05-02T16:30:01.048Z</time></trkpt><trkpt lat="44.0788691" lon="7.8038713"><ele>816.0</ele><time>2026-05-02T16:30:02.047Z</time></trkpt><trkpt lat="44.0789816" lon="7.803969"><ele>816.0</ele><time>2026-05-02T16:30:03.048Z</time></trkpt><trkpt lat="44.0790753" lon="7.804073"><ele>816.0</ele><time>2026-05-02T16:30:04.048Z</time></trkpt><trkpt lat="44.0791487" lon="7.8041921"><ele>816.0</ele><time>2026-05-02T16:30:05.047Z</time></trkpt><trkpt lat="44.0791685" lon="7.8043229"><ele>813.0</ele><time>2026-05-02T16:30:06.048Z</time></trkpt><trkpt lat="44.0791444" lon="7.8044749"><ele>810.0</ele><time>2026-05-02T16:30:07.047Z</time></trkpt><trkpt lat="44.0790965" lon="7.804605"><ele>807.0</ele><time>2026-05-02T16:30:08.047Z</time></trkpt><trkpt lat="44.0790162" lon="7.8046934"><ele>804.0</ele><time>2026-05-02T16:30:09.047Z</time></trkpt><trkpt lat="44.0789059" lon="7.8047354"><ele>801.0</ele><time>2026-05-02T16:30:10.047Z</time></trkpt><trkpt lat="44.0787825" lon="7.8047239"><ele>801.0</ele><time>2026-05-02T16:30:11.047Z</time></trkpt><trkpt lat="44.0786488" lon="7.8046713"><ele>801.0</ele><time>2026-05-02T16:30:12.047Z</time></trkpt><trkpt lat="44.0785166" lon="7.8046338"><ele>801.0</ele><time>2026-05-02T16:30:13.047Z</time></trkpt><trkpt lat="44.0783743" lon="7.8046134"><ele>801.0</ele><time>2026-05-02T16:30:14.047Z</time></trkpt><trkpt lat="44.0782311" lon="7.8046211"><ele>801.0</ele><time>2026-05-02T16:30:15.049Z</time></trkpt><trkpt lat="44.0780781" lon="7.8046534"><ele>801.0</ele><time>2026-05-02T16:30:16.049Z</time></trkpt><trkpt lat="44.0779573" lon="7.8046902"><ele>801.0</ele><time>2026-05-02T16:30:17.048Z</time></trkpt><trkpt lat="44.0778544" lon="7.8047581"><ele>801.0</ele><time>2026-05-02T16:30:18.048Z</time></trkpt><trkpt lat="44.0777589" lon="7.8048257"><ele>801.0</ele><time>2026-05-02T16:30:19.049Z</time></trkpt><trkpt lat="44.0777708" lon="7.805009"><ele>801.0</ele><time>2026-05-02T16:30:20.049Z</time></trkpt><trkpt lat="44.0777478" lon="7.8051678"><ele>801.0</ele><time>2026-05-02T16:30:21.048Z</time></trkpt><trkpt lat="44.0777129" lon="7.805314"><ele>801.0</ele><time>2026-05-02T16:30:22.048Z</time></trkpt><trkpt lat="44.0776715" lon="7.8054211"><ele>801.0</ele><time>2026-05-02T16:30:23.048Z</time></trkpt><trkpt lat="44.0776157" lon="7.8054738"><ele>798.1999999999999</ele><time>2026-05-02T16:30:24.048Z</time></trkpt><trkpt lat="44.0775548" lon="7.8055126"><ele>795.4</ele><time>2026-05-02T16:30:25.048Z</time></trkpt><trkpt lat="44.0774262" lon="7.8054642"><ele>792.6</ele><time>2026-05-02T16:30:26.048Z</time></trkpt><trkpt lat="44.0773176" lon="7.805455"><ele>789.8</ele><time>2026-05-02T16:30:27.048Z</time></trkpt><trkpt lat="44.0772069" lon="7.8054219"><ele>787.0</ele><time>2026-05-02T16:30:28.048Z</time></trkpt><trkpt lat="44.0770958" lon="7.8053708"><ele>787.0</ele><time>2026-05-02T16:30:29.049Z</time></trkpt><trkpt lat="44.076985" lon="7.8053249"><ele>787.0</ele><time>2026-05-02T16:30:30.048Z</time></trkpt><trkpt lat="44.0768755" lon="7.8052798"><ele>787.0</ele><time>2026-05-02T16:30:31.048Z</time></trkpt><trkpt lat="44.0767963" lon="7.8052378"><ele>787.0</ele><time>2026-05-02T16:30:32.048Z</time></trkpt><trkpt lat="44.0766999" lon="7.80519"><ele>787.0</ele><time>2026-05-02T16:30:33.049Z</time></trkpt><trkpt lat="44.0766178" lon="7.8051008"><ele>786.1666666666666</ele><time>2026-05-02T16:30:34.048Z</time></trkpt><trkpt lat="44.0765469" lon="7.8050106"><ele>785.3333333333333</ele><time>2026-05-02T16:30:35.048Z</time></trkpt><trkpt lat="44.0764834" lon="7.8049366"><ele>784.5</ele><time>2026-05-02T16:30:36.048Z</time></trkpt><trkpt lat="44.0764174" lon="7.8048702"><ele>783.6666666666667</ele><time>2026-05-02T16:30:37.049Z</time></trkpt><trkpt lat="44.0763747" lon="7.8049425"><ele>782.8333333333334</ele><time>2026-05-02T16:30:38.049Z</time></trkpt><trkpt lat="44.0763313" lon="7.8050474"><ele>782.0</ele><time>2026-05-02T16:30:40.048Z</time></trkpt><trkpt lat="44.0764085" lon="7.8052361"><ele>780.2</ele><time>2026-05-02T16:30:41.049Z</time></trkpt><trkpt lat="44.0764448" lon="7.8053701"><ele>778.4000000000001</ele><time>2026-05-02T16:30:42.048Z</time></trkpt><trkpt lat="44.0764719" lon="7.8054787"><ele>776.5999999999999</ele><time>2026-05-02T16:30:43.049Z</time></trkpt><trkpt lat="44.0764226" lon="7.805655"><ele>774.8</ele><time>2026-05-02T16:30:45.048Z</time></trkpt><trkpt lat="44.0763359" lon="7.8056574"><ele>773.0</ele><time>2026-05-02T16:30:47.048Z</time></trkpt><trkpt lat="44.0762792" lon="7.8056137"><ele>773.0</ele><time>2026-05-02T16:30:48.048Z</time></trkpt><trkpt lat="44.0762946" lon="7.8054641"><ele>773.0</ele><time>2026-05-02T16:30:49.049Z</time></trkpt><trkpt lat="44.0762609" lon="7.8053393"><ele>773.0</ele><time>2026-05-02T16:30:50.048Z</time></trkpt><trkpt lat="44.0762388" lon="7.8052051"><ele>773.0</ele><time>2026-05-02T16:30:51.048Z</time></trkpt><trkpt lat="44.0762008" lon="7.8050833"><ele>773.0</ele><time>2026-05-02T16:30:52.048Z</time></trkpt><trkpt lat="44.0761477" lon="7.8049986"><ele>773.0</ele><time>2026-05-02T16:30:53.048Z</time></trkpt><trkpt lat="44.0760811" lon="7.8049802"><ele>773.0</ele><time>2026-05-02T16:30:54.049Z</time></trkpt><trkpt lat="44.0759336" lon="7.8051209"><ele>773.0</ele><time>2026-05-02T16:30:56.049Z</time></trkpt><trkpt lat="44.0758535" lon="7.8051932"><ele>773.0</ele><time>2026-05-02T16:30:57.048Z</time></trkpt><trkpt lat="44.0757548" lon="7.8052529"><ele>773.2</ele><time>2026-05-02T16:30:58.049Z</time></trkpt><trkpt lat="44.0756706" lon="7.8052658"><ele>773.4</ele><time>2026-05-02T16:30:59.049Z</time></trkpt><trkpt lat="44.0755703" lon="7.8052312"><ele>773.6</ele><time>2026-05-02T16:31:00.048Z</time></trkpt><trkpt lat="44.0754807" lon="7.805166"><ele>773.8000000000001</ele><time>2026-05-02T16:31:01.049Z</time></trkpt><trkpt lat="44.0754084" lon="7.8050671"><ele>774.0</ele><time>2026-05-02T16:31:02.048Z</time></trkpt><trkpt lat="44.0753422" lon="7.804965"><ele>774.0</ele><time>2026-05-02T16:31:03.048Z</time></trkpt><trkpt lat="44.0752658" lon="7.8048772"><ele>774.0</ele><time>2026-05-02T16:31:04.048Z</time></trkpt><trkpt lat="44.0751885" lon="7.8048554"><ele>774.0</ele><time>2026-05-02T16:31:05.048Z</time></trkpt><trkpt lat="44.0751217" lon="7.8048271"><ele>774.0</ele><time>2026-05-02T16:31:06.048Z</time></trkpt><trkpt lat="44.0750564" lon="7.8048696"><ele>774.0</ele><time>2026-05-02T16:31:07.049Z</time></trkpt><trkpt lat="44.0749987" lon="7.8049635"><ele>774.0</ele><time>2026-05-02T16:31:08.049Z</time></trkpt><trkpt lat="44.0750736" lon="7.8052452"><ele>770.75</ele><time>2026-05-02T16:31:09.048Z</time></trkpt><trkpt lat="44.0751256" lon="7.8054218"><ele>767.5</ele><time>2026-05-02T16:31:10.048Z</time></trkpt><trkpt lat="44.0751799" lon="7.8055598"><ele>764.25</ele><time>2026-05-02T16:31:11.048Z</time></trkpt><trkpt lat="44.075238" lon="7.8056822"><ele>761.0</ele><time>2026-05-02T16:31:12.049Z</time></trkpt><trkpt lat="44.0753227" lon="7.8057789"><ele>761.0</ele><time>2026-05-02T16:31:13.048Z</time></trkpt><trkpt lat="44.0754921" lon="7.8057503"><ele>761.0</ele><time>2026-05-02T16:31:14.048Z</time></trkpt><trkpt lat="44.0755778" lon="7.805757"><ele>761.0</ele><time>2026-05-02T16:31:15.048Z</time></trkpt><trkpt lat="44.0756349" lon="7.8057103"><ele>761.0</ele><time>2026-05-02T16:31:16.048Z</time></trkpt><trkpt lat="44.0757448" lon="7.8057445"><ele>761.0</ele><time>2026-05-02T16:31:18.048Z</time></trkpt><trkpt lat="44.0756746" lon="7.8058101"><ele>761.0</ele><time>2026-05-02T16:31:19.048Z</time></trkpt><trkpt lat="44.0755425" lon="7.805919"><ele>761.0</ele><time>2026-05-02T16:31:21.048Z</time></trkpt><trkpt lat="44.0754377" lon="7.8060104"><ele>761.0</ele><time>2026-05-02T16:31:22.048Z</time></trkpt><trkpt lat="44.0753325" lon="7.8060974"><ele>761.0</ele><time>2026-05-02T16:31:23.048Z</time></trkpt><trkpt lat="44.0752254" lon="7.806173"><ele>759.5999999999999</ele><time>2026-05-02T16:31:24.048Z</time></trkpt><trkpt lat="44.0751118" lon="7.8062193"><ele>758.2</ele><time>2026-05-02T16:31:25.048Z</time></trkpt><trkpt lat="44.075007" lon="7.8062076"><ele>756.8</ele><time>2026-05-02T16:31:26.048Z</time></trkpt><trkpt lat="44.0749119" lon="7.8061403"><ele>755.4000000000001</ele><time>2026-05-02T16:31:27.048Z</time></trkpt><trkpt lat="44.0748286" lon="7.8060471"><ele>754.0</ele><time>2026-05-02T16:31:28.048Z</time></trkpt><trkpt lat="44.0747404" lon="7.8059755"><ele>754.0</ele><time>2026-05-02T16:31:29.049Z</time></trkpt><trkpt lat="44.0746376" lon="7.805933"><ele>754.0</ele><time>2026-05-02T16:31:30.048Z</time></trkpt><trkpt lat="44.0744531" lon="7.8060121"><ele>754.0</ele><time>2026-05-02T16:31:31.048Z</time></trkpt><trkpt lat="44.0743127" lon="7.8059713"><ele>754.0</ele><time>2026-05-02T16:31:32.048Z</time></trkpt><trkpt lat="44.0741599" lon="7.8059498"><ele>757.6666666666667</ele><time>2026-05-02T16:31:33.049Z</time></trkpt><trkpt lat="44.0740224" lon="7.8059155"><ele>761.3333333333334</ele><time>2026-05-02T16:31:34.048Z</time></trkpt><trkpt lat="44.0738662" lon="7.8059093"><ele>765.0</ele><time>2026-05-02T16:31:35.048Z</time></trkpt><trkpt lat="44.0737044" lon="7.8059174"><ele>765.0</ele><time>2026-05-02T16:31:36.048Z</time></trkpt><trkpt lat="44.0735741" lon="7.8059758"><ele>765.0</ele><time>2026-05-02T16:31:37.048Z</time></trkpt><trkpt lat="44.0734285" lon="7.8060458"><ele>765.0</ele><time>2026-05-02T16:31:38.048Z</time></trkpt><trkpt lat="44.0732978" lon="7.806136"><ele>765.0</ele><time>2026-05-02T16:31:39.048Z</time></trkpt><trkpt lat="44.0731492" lon="7.806311"><ele>757.3333333333334</ele><time>2026-05-02T16:31:40.048Z</time></trkpt><trkpt lat="44.0730851" lon="7.8065107"><ele>749.6666666666667</ele><time>2026-05-02T16:31:41.048Z</time></trkpt><trkpt lat="44.0729748" lon="7.8066554"><ele>742.0</ele><time>2026-05-02T16:31:42.049Z</time></trkpt><trkpt lat="44.072866" lon="7.8067862"><ele>732.6666666666667</ele><time>2026-05-02T16:31:43.048Z</time></trkpt><trkpt lat="44.0727342" lon="7.8069174"><ele>723.3333333333334</ele><time>2026-05-02T16:31:44.048Z</time></trkpt><trkpt lat="44.0726055" lon="7.80702"><ele>714.0</ele><time>2026-05-02T16:31:45.048Z</time></trkpt><trkpt lat="44.0724764" lon="7.8070966"><ele>709.8000000000001</ele><time>2026-05-02T16:31:46.049Z</time></trkpt><trkpt lat="44.072353" lon="7.8071507"><ele>705.6</ele><time>2026-05-02T16:31:47.048Z</time></trkpt><trkpt lat="44.0722541" lon="7.8071471"><ele>701.4</ele><time>2026-05-02T16:31:48.048Z</time></trkpt><trkpt lat="44.0721818" lon="7.8072117"><ele>697.2</ele><time>2026-05-02T16:31:49.049Z</time></trkpt><trkpt lat="44.0721193" lon="7.8072959"><ele>693.0</ele><time>2026-05-02T16:31:50.048Z</time></trkpt><trkpt lat="44.0720655" lon="7.8073645"><ele>693.0</ele><time>2026-05-02T16:31:51.048Z</time></trkpt><trkpt lat="44.0722186" lon="7.8073887"><ele>693.0</ele><time>2026-05-02T16:31:52.049Z</time></trkpt><trkpt lat="44.072331" lon="7.8073373"><ele>693.0</ele><time>2026-05-02T16:31:53.048Z</time></trkpt><trkpt lat="44.0724322" lon="7.8073087"><ele>693.0</ele><time>2026-05-02T16:31:54.049Z</time></trkpt><trkpt lat="44.0725598" lon="7.8072832"><ele>698.25</ele><time>2026-05-02T16:31:55.048Z</time></trkpt><trkpt lat="44.0726908" lon="7.8072781"><ele>703.5</ele><time>2026-05-02T16:31:56.048Z</time></trkpt><trkpt lat="44.0728284" lon="7.8073118"><ele>708.75</ele><time>2026-05-02T16:31:57.049Z</time></trkpt><trkpt lat="44.0729751" lon="7.8073672"><ele>714.0</ele><time>2026-05-02T16:31:58.048Z</time></trkpt><trkpt lat="44.0731231" lon="7.8074269"><ele>714.6666666666666</ele><time>2026-05-02T16:31:59.049Z</time></trkpt><trkpt lat="44.0732831" lon="7.8074774"><ele>715.3333333333333</ele><time>2026-05-02T16:32:00.049Z</time></trkpt><trkpt lat="44.0734343" lon="7.8075346"><ele>716.0</ele><time>2026-05-02T16:32:01.048Z</time></trkpt><trkpt lat="44.0735797" lon="7.8076306"><ele>710.6666666666666</ele><time>2026-05-02T16:32:02.049Z</time></trkpt><trkpt lat="44.0737206" lon="7.807753"><ele>705.3333333333334</ele><time>2026-05-02T16:32:03.049Z</time></trkpt><trkpt lat="44.0738475" lon="7.8078769"><ele>700.0</ele><time>2026-05-02T16:32:04.048Z</time></trkpt><trkpt lat="44.0739723" lon="7.8080093"><ele>700.0</ele><time>2026-05-02T16:32:05.048Z</time></trkpt><trkpt lat="44.0740772" lon="7.8081465"><ele>700.0</ele><time>2026-05-02T16:32:06.048Z</time></trkpt><trkpt lat="44.0741463" lon="7.8082954"><ele>700.0</ele><time>2026-05-02T16:32:07.048Z</time></trkpt><trkpt lat="44.0741836" lon="7.8084601"><ele>700.0</ele><time>2026-05-02T16:32:08.049Z</time></trkpt><trkpt lat="44.0742045" lon="7.8086238"><ele>698.75</ele><time>2026-05-02T16:32:09.049Z</time></trkpt><trkpt lat="44.074249" lon="7.8087722"><ele>697.5</ele><time>2026-05-02T16:32:10.048Z</time></trkpt><trkpt lat="44.0742897" lon="7.8089253"><ele>696.25</ele><time>2026-05-02T16:32:11.048Z</time></trkpt><trkpt lat="44.0743497" lon="7.8090229"><ele>695.0</ele><time>2026-05-02T16:32:12.048Z</time></trkpt><trkpt lat="44.0745734" lon="7.8090316"><ele>695.0</ele><time>2026-05-02T16:32:13.049Z</time></trkpt><trkpt lat="44.0746994" lon="7.8091326"><ele>695.0</ele><time>2026-05-02T16:32:14.048Z</time></trkpt><trkpt lat="44.0748124" lon="7.8092703"><ele>695.0</ele><time>2026-05-02T16:32:15.048Z</time></trkpt><trkpt lat="44.0748993" lon="7.8094237"><ele>695.0</ele><time>2026-05-02T16:32:16.048Z</time></trkpt><trkpt lat="44.0749933" lon="7.8095642"><ele>692.25</ele><time>2026-05-02T16:32:17.049Z</time></trkpt><trkpt lat="44.0751" lon="7.809673"><ele>689.5</ele><time>2026-05-02T16:32:18.048Z</time></trkpt><trkpt lat="44.0752244" lon="7.8097244"><ele>686.75</ele><time>2026-05-02T16:32:19.048Z</time></trkpt><trkpt lat="44.0753588" lon="7.8097272"><ele>684.0</ele><time>2026-05-02T16:32:20.049Z</time></trkpt><trkpt lat="44.07551" lon="7.8097017"><ele>684.0</ele><time>2026-05-02T16:32:21.049Z</time></trkpt><trkpt lat="44.0756643" lon="7.8096549"><ele>684.0</ele><time>2026-05-02T16:32:22.049Z</time></trkpt><trkpt lat="44.0758255" lon="7.8096264"><ele>684.0</ele><time>2026-05-02T16:32:23.049Z</time></trkpt><trkpt lat="44.0759902" lon="7.8096215"><ele>681.6666666666666</ele><time>2026-05-02T16:32:24.048Z</time></trkpt><trkpt lat="44.076153" lon="7.8096356"><ele>679.3333333333333</ele><time>2026-05-02T16:32:25.048Z</time></trkpt><trkpt lat="44.0763258" lon="7.8096708"><ele>677.0</ele><time>2026-05-02T16:32:26.048Z</time></trkpt><trkpt lat="44.0765031" lon="7.8097093"><ele>677.3333333333333</ele><time>2026-05-02T16:32:27.048Z</time></trkpt><trkpt lat="44.0766796" lon="7.8097577"><ele>677.6666666666666</ele><time>2026-05-02T16:32:28.049Z</time></trkpt><trkpt lat="44.0768575" lon="7.8097923"><ele>678.0</ele><time>2026-05-02T16:32:29.048Z</time></trkpt><trkpt lat="44.0770166" lon="7.8098208"><ele>678.0</ele><time>2026-05-02T16:32:30.048Z</time></trkpt><trkpt lat="44.0771735" lon="7.8098394"><ele>678.0</ele><time>2026-05-02T16:32:31.048Z</time></trkpt><trkpt lat="44.0772982" lon="7.8098703"><ele>678.0</ele><time>2026-05-02T16:32:32.048Z</time></trkpt><trkpt lat="44.0774118" lon="7.809926"><ele>678.0</ele><time>2026-05-02T16:32:33.048Z</time></trkpt><trkpt lat="44.0775114" lon="7.8100059"><ele>678.5</ele><time>2026-05-02T16:32:34.048Z</time></trkpt><trkpt lat="44.0776168" lon="7.8100906"><ele>679.0</ele><time>2026-05-02T16:32:35.048Z</time></trkpt><trkpt lat="44.0777318" lon="7.810179"><ele>679.5</ele><time>2026-05-02T16:32:36.049Z</time></trkpt><trkpt lat="44.0778379" lon="7.8102432"><ele>680.0</ele><time>2026-05-02T16:32:37.048Z</time></trkpt><trkpt lat="44.077928" lon="7.8102894"><ele>676.2</ele><time>2026-05-02T16:32:38.048Z</time></trkpt><trkpt lat="44.0779822" lon="7.81036"><ele>672.4</ele><time>2026-05-02T16:32:39.049Z</time></trkpt><trkpt lat="44.0779885" lon="7.8104474"><ele>668.5999999999999</ele><time>2026-05-02T16:32:40.048Z</time></trkpt><trkpt lat="44.0778608" lon="7.810523"><ele>664.8</ele><time>2026-05-02T16:32:42.048Z</time></trkpt><trkpt lat="44.0777501" lon="7.8105164"><ele>661.0</ele><time>2026-05-02T16:32:43.048Z</time></trkpt><trkpt lat="44.0776492" lon="7.8105292"><ele>661.0</ele><time>2026-05-02T16:32:44.049Z</time></trkpt><trkpt lat="44.0775196" lon="7.8105467"><ele>661.0</ele><time>2026-05-02T16:32:45.049Z</time></trkpt><trkpt lat="44.0773611" lon="7.8107179"><ele>661.0</ele><time>2026-05-02T16:32:46.048Z</time></trkpt><trkpt lat="44.0772185" lon="7.8107984"><ele>660.3333333333334</ele><time>2026-05-02T16:32:47.049Z</time></trkpt><trkpt lat="44.0770759" lon="7.8108807"><ele>659.6666666666666</ele><time>2026-05-02T16:32:48.049Z</time></trkpt><trkpt lat="44.0769266" lon="7.8109228"><ele>659.0</ele><time>2026-05-02T16:32:49.048Z</time></trkpt><trkpt lat="44.0767819" lon="7.810917"><ele>659.0</ele><time>2026-05-02T16:32:50.048Z</time></trkpt><trkpt lat="44.0766416" lon="7.8108628"><ele>659.0</ele><time>2026-05-02T16:32:51.048Z</time></trkpt><trkpt lat="44.0765074" lon="7.8107739"><ele>659.0</ele><time>2026-05-02T16:32:52.048Z</time></trkpt><trkpt lat="44.0763673" lon="7.8106825"><ele>659.0</ele><time>2026-05-02T16:32:53.048Z</time></trkpt><trkpt lat="44.0762135" lon="7.8106216"><ele>658.6666666666666</ele><time>2026-05-02T16:32:54.048Z</time></trkpt><trkpt lat="44.0760492" lon="7.8106145"><ele>658.3333333333334</ele><time>2026-05-02T16:32:55.048Z</time></trkpt><trkpt lat="44.0758811" lon="7.8106497"><ele>658.0</ele><time>2026-05-02T16:32:56.048Z</time></trkpt><trkpt lat="44.0757182" lon="7.8107152"><ele>660.0</ele><time>2026-05-02T16:32:57.048Z</time></trkpt><trkpt lat="44.0755539" lon="7.8108032"><ele>662.0</ele><time>2026-05-02T16:32:58.048Z</time></trkpt><trkpt lat="44.0754048" lon="7.8109034"><ele>664.0</ele><time>2026-05-02T16:32:59.049Z</time></trkpt><trkpt lat="44.0752656" lon="7.8110124"><ele>660.25</ele><time>2026-05-02T16:33:00.048Z</time></trkpt><trkpt lat="44.0751392" lon="7.8111024"><ele>656.5</ele><time>2026-05-02T16:33:01.048Z</time></trkpt><trkpt lat="44.0750358" lon="7.811194"><ele>652.75</ele><time>2026-05-02T16:33:02.048Z</time></trkpt><trkpt lat="44.0749428" lon="7.8112893"><ele>649.0</ele><time>2026-05-02T16:33:03.048Z</time></trkpt><trkpt lat="44.0748619" lon="7.8113756"><ele>649.0</ele><time>2026-05-02T16:33:04.048Z</time></trkpt><trkpt lat="44.0748769" lon="7.8114674"><ele>649.0</ele><time>2026-05-02T16:33:05.048Z</time></trkpt><trkpt lat="44.0750332" lon="7.8114673"><ele>649.0</ele><time>2026-05-02T16:33:06.049Z</time></trkpt><trkpt lat="44.0751299" lon="7.8114657"><ele>649.0</ele><time>2026-05-02T16:33:07.048Z</time></trkpt><trkpt lat="44.0753513" lon="7.8113093"><ele>647.0</ele><time>2026-05-02T16:33:08.048Z</time></trkpt><trkpt lat="44.0754502" lon="7.811258"><ele>645.0</ele><time>2026-05-02T16:33:09.048Z</time></trkpt><trkpt lat="44.0755798" lon="7.8112504"><ele>643.0</ele><time>2026-05-02T16:33:10.048Z</time></trkpt><trkpt lat="44.0757144" lon="7.8112887"><ele>641.0</ele><time>2026-05-02T16:33:11.048Z</time></trkpt><trkpt lat="44.0758463" lon="7.8113872"><ele>640.4</ele><time>2026-05-02T16:33:12.049Z</time></trkpt><trkpt lat="44.0759624" lon="7.81149"><ele>639.8</ele><time>2026-05-02T16:33:13.048Z</time></trkpt><trkpt lat="44.0760537" lon="7.8115986"><ele>639.1999999999999</ele><time>2026-05-02T16:33:14.048Z</time></trkpt><trkpt lat="44.0760971" lon="7.8117062"><ele>638.5999999999999</ele><time>2026-05-02T16:33:15.048Z</time></trkpt><trkpt lat="44.0760931" lon="7.8118042"><ele>638.0</ele><time>2026-05-02T16:33:16.049Z</time></trkpt><trkpt lat="44.0760373" lon="7.8118523"><ele>638.0</ele><time>2026-05-02T16:33:17.048Z</time></trkpt><trkpt lat="44.075975" lon="7.8118334"><ele>638.0</ele><time>2026-05-02T16:33:18.049Z</time></trkpt><trkpt lat="44.0759089" lon="7.8117586"><ele>638.0</ele><time>2026-05-02T16:33:19.049Z</time></trkpt><trkpt lat="44.0758287" lon="7.8116966"><ele>638.0</ele><time>2026-05-02T16:33:20.048Z</time></trkpt><trkpt lat="44.0757144" lon="7.811696"><ele>638.0</ele><time>2026-05-02T16:33:21.048Z</time></trkpt><trkpt lat="44.0756167" lon="7.8117247"><ele>638.75</ele><time>2026-05-02T16:33:22.049Z</time></trkpt><trkpt lat="44.0754917" lon="7.8118091"><ele>639.5</ele><time>2026-05-02T16:33:23.048Z</time></trkpt><trkpt lat="44.0753778" lon="7.8119373"><ele>640.25</ele><time>2026-05-02T16:33:24.048Z</time></trkpt><trkpt lat="44.0752925" lon="7.8120996"><ele>641.0</ele><time>2026-05-02T16:33:25.048Z</time></trkpt><trkpt lat="44.0751957" lon="7.8122825"><ele>636.75</ele><time>2026-05-02T16:33:26.048Z</time></trkpt><trkpt lat="44.0750872" lon="7.8124479"><ele>632.5</ele><time>2026-05-02T16:33:27.049Z</time></trkpt><trkpt lat="44.0749729" lon="7.812577"><ele>628.25</ele><time>2026-05-02T16:33:28.048Z</time></trkpt><trkpt lat="44.0748724" lon="7.8126621"><ele>624.0</ele><time>2026-05-02T16:33:29.049Z</time></trkpt><trkpt lat="44.0747708" lon="7.8126826"><ele>624.5</ele><time>2026-05-02T16:33:30.048Z</time></trkpt><trkpt lat="44.0746524" lon="7.8126531"><ele>625.0</ele><time>2026-05-02T16:33:31.049Z</time></trkpt><trkpt lat="44.0745294" lon="7.8125993"><ele>625.5</ele><time>2026-05-02T16:33:32.048Z</time></trkpt><trkpt lat="44.0743966" lon="7.8125664"><ele>626.0</ele><time>2026-05-02T16:33:33.049Z</time></trkpt><trkpt lat="44.0742644" lon="7.812564"><ele>626.0</ele><time>2026-05-02T16:33:34.048Z</time></trkpt><trkpt lat="44.0741249" lon="7.8125646"><ele>626.0</ele><time>2026-05-02T16:33:35.048Z</time></trkpt><trkpt lat="44.0739825" lon="7.8126824"><ele>626.0</ele><time>2026-05-02T16:33:36.048Z</time></trkpt><trkpt lat="44.0738295" lon="7.8127066"><ele>623.0</ele><time>2026-05-02T16:33:37.048Z</time></trkpt><trkpt lat="44.0736724" lon="7.812733"><ele>620.0</ele><time>2026-05-02T16:33:38.048Z</time></trkpt><trkpt lat="44.0735286" lon="7.812753"><ele>617.0</ele><time>2026-05-02T16:33:39.049Z</time></trkpt><trkpt lat="44.0733964" lon="7.8127146"><ele>614.0</ele><time>2026-05-02T16:33:40.048Z</time></trkpt><trkpt lat="44.0732941" lon="7.812649"><ele>613.0</ele><time>2026-05-02T16:33:41.048Z</time></trkpt><trkpt lat="44.073224" lon="7.8125418"><ele>612.0</ele><time>2026-05-02T16:33:42.048Z</time></trkpt><trkpt lat="44.0731617" lon="7.812407"><ele>611.0</ele><time>2026-05-02T16:33:43.048Z</time></trkpt><trkpt lat="44.073089" lon="7.8122801"><ele>610.0</ele><time>2026-05-02T16:33:44.048Z</time></trkpt><trkpt lat="44.0730207" lon="7.8121504"><ele>610.0</ele><time>2026-05-02T16:33:45.048Z</time></trkpt><trkpt lat="44.0729527" lon="7.8120385"><ele>610.0</ele><time>2026-05-02T16:33:46.048Z</time></trkpt><trkpt lat="44.0728491" lon="7.8120175"><ele>610.0</ele><time>2026-05-02T16:33:47.049Z</time></trkpt><trkpt lat="44.072766" lon="7.8119703"><ele>610.0</ele><time>2026-05-02T16:33:48.049Z</time></trkpt><trkpt lat="44.0726854" lon="7.8120229"><ele>610.0</ele><time>2026-05-02T16:33:49.049Z</time></trkpt><trkpt lat="44.0726091" lon="7.8120881"><ele>610.0</ele><time>2026-05-02T16:33:50.048Z</time></trkpt><trkpt lat="44.0725513" lon="7.8122045"><ele>610.0</ele><time>2026-05-02T16:33:51.048Z</time></trkpt><trkpt lat="44.0725039" lon="7.8123591"><ele>610.0</ele><time>2026-05-02T16:33:52.048Z</time></trkpt><trkpt lat="44.0724581" lon="7.8125334"><ele>610.0</ele><time>2026-05-02T16:33:53.049Z</time></trkpt><trkpt lat="44.0724345" lon="7.8127365"><ele>610.6666666666667</ele><time>2026-05-02T16:33:54.049Z</time></trkpt><trkpt lat="44.072432" lon="7.8129536"><ele>611.3333333333334</ele><time>2026-05-02T16:33:55.048Z</time></trkpt><trkpt lat="44.0724468" lon="7.8131771"><ele>612.0</ele><time>2026-05-02T16:33:56.048Z</time></trkpt><trkpt lat="44.0724835" lon="7.8133996"><ele>614.6666666666666</ele><time>2026-05-02T16:33:57.049Z</time></trkpt><trkpt lat="44.0725349" lon="7.8136081"><ele>617.3333333333333</ele><time>2026-05-02T16:33:58.048Z</time></trkpt><trkpt lat="44.0725893" lon="7.813811"><ele>620.0</ele><time>2026-05-02T16:33:59.049Z</time></trkpt><trkpt lat="44.0726363" lon="7.8139902"><ele>620.0</ele><time>2026-05-02T16:34:00.048Z</time></trkpt><trkpt lat="44.0726632" lon="7.8141596"><ele>620.0</ele><time>2026-05-02T16:34:01.048Z</time></trkpt><trkpt lat="44.0726484" lon="7.81434"><ele>620.0</ele><time>2026-05-02T16:34:02.048Z</time></trkpt><trkpt lat="44.0726135" lon="7.8145327"><ele>620.0</ele><time>2026-05-02T16:34:03.048Z</time></trkpt><trkpt lat="44.072585" lon="7.8147168"><ele>620.25</ele><time>2026-05-02T16:34:04.048Z</time></trkpt><trkpt lat="44.0725682" lon="7.8148852"><ele>620.5</ele><time>2026-05-02T16:34:05.048Z</time></trkpt><trkpt lat="44.072586" lon="7.8150376"><ele>620.75</ele><time>2026-05-02T16:34:06.048Z</time></trkpt><trkpt lat="44.0726355" lon="7.8151745"><ele>621.0</ele><time>2026-05-02T16:34:07.048Z</time></trkpt><trkpt lat="44.072707" lon="7.8153039"><ele>619.2</ele><time>2026-05-02T16:34:08.048Z</time></trkpt><trkpt lat="44.0727741" lon="7.8154334"><ele>617.4000000000001</ele><time>2026-05-02T16:34:09.048Z</time></trkpt><trkpt lat="44.0727803" lon="7.8155836"><ele>615.6</ele><time>2026-05-02T16:34:10.048Z</time></trkpt><trkpt lat="44.0727584" lon="7.815733"><ele>613.8000000000001</ele><time>2026-05-02T16:34:11.048Z</time></trkpt><trkpt lat="44.0726941" lon="7.815836"><ele>612.0</ele><time>2026-05-02T16:34:12.049Z</time></trkpt><trkpt lat="44.0725754" lon="7.8158887"><ele>612.0</ele><time>2026-05-02T16:34:13.048Z</time></trkpt><trkpt lat="44.0724549" lon="7.815938"><ele>612.0</ele><time>2026-05-02T16:34:14.048Z</time></trkpt><trkpt lat="44.0723353" lon="7.816044"><ele>612.0</ele><time>2026-05-02T16:34:15.048Z</time></trkpt><trkpt lat="44.0722181" lon="7.8161868"><ele>612.0</ele><time>2026-05-02T16:34:16.048Z</time></trkpt><trkpt lat="44.0721156" lon="7.8163587"><ele>610.25</ele><time>2026-05-02T16:34:17.048Z</time></trkpt><trkpt lat="44.0720347" lon="7.8165446"><ele>608.5</ele><time>2026-05-02T16:34:18.049Z</time></trkpt><trkpt lat="44.0719649" lon="7.8167073"><ele>606.75</ele><time>2026-05-02T16:34:19.048Z</time></trkpt><trkpt lat="44.071886" lon="7.8168211"><ele>605.0</ele><time>2026-05-02T16:34:20.048Z</time></trkpt><trkpt lat="44.0717964" lon="7.8168933"><ele>602.25</ele><time>2026-05-02T16:34:21.049Z</time></trkpt><trkpt lat="44.0716912" lon="7.8169049"><ele>599.5</ele><time>2026-05-02T16:34:22.048Z</time></trkpt><trkpt lat="44.0715608" lon="7.8168223"><ele>596.75</ele><time>2026-05-02T16:34:23.048Z</time></trkpt><trkpt lat="44.0714341" lon="7.8167554"><ele>594.0</ele><time>2026-05-02T16:34:24.048Z</time></trkpt><trkpt lat="44.0713057" lon="7.8166609"><ele>594.0</ele><time>2026-05-02T16:34:25.048Z</time></trkpt><trkpt lat="44.0711864" lon="7.8165476"><ele>594.0</ele><time>2026-05-02T16:34:26.049Z</time></trkpt><trkpt lat="44.0710682" lon="7.8164313"><ele>594.0</ele><time>2026-05-02T16:34:27.048Z</time></trkpt><trkpt lat="44.0709387" lon="7.8163554"><ele>594.0</ele><time>2026-05-02T16:34:28.048Z</time></trkpt><trkpt lat="44.0708156" lon="7.8163225"><ele>598.5</ele><time>2026-05-02T16:34:29.049Z</time></trkpt><trkpt lat="44.0706873" lon="7.8163319"><ele>603.0</ele><time>2026-05-02T16:34:30.049Z</time></trkpt><trkpt lat="44.0705618" lon="7.8164196"><ele>607.5</ele><time>2026-05-02T16:34:31.048Z</time></trkpt><trkpt lat="44.0704527" lon="7.8165393"><ele>612.0</ele><time>2026-05-02T16:34:32.048Z</time></trkpt><trkpt lat="44.0703501" lon="7.816705"><ele>607.6666666666666</ele><time>2026-05-02T16:34:33.048Z</time></trkpt><trkpt lat="44.0702472" lon="7.8169061"><ele>603.3333333333333</ele><time>2026-05-02T16:34:34.048Z</time></trkpt><trkpt lat="44.0701549" lon="7.8171132"><ele>599.0</ele><time>2026-05-02T16:34:35.048Z</time></trkpt><trkpt lat="44.0700779" lon="7.8173173"><ele>599.0</ele><time>2026-05-02T16:34:36.048Z</time></trkpt><trkpt lat="44.0700201" lon="7.817498"><ele>599.0</ele><time>2026-05-02T16:34:37.048Z</time></trkpt><trkpt lat="44.0699856" lon="7.8176907"><ele>599.0</ele><time>2026-05-02T16:34:38.048Z</time></trkpt><trkpt lat="44.0699855" lon="7.8178709"><ele>599.0</ele><time>2026-05-02T16:34:39.049Z</time></trkpt><trkpt lat="44.0699995" lon="7.8180448"><ele>597.25</ele><time>2026-05-02T16:34:40.048Z</time></trkpt><trkpt lat="44.0699941" lon="7.8182203"><ele>595.5</ele><time>2026-05-02T16:34:41.048Z</time></trkpt><trkpt lat="44.0699716" lon="7.8184105"><ele>593.75</ele><time>2026-05-02T16:34:42.049Z</time></trkpt><trkpt lat="44.0699552" lon="7.8186067"><ele>592.0</ele><time>2026-05-02T16:34:43.048Z</time></trkpt><trkpt lat="44.0699457" lon="7.818793"><ele>594.75</ele><time>2026-05-02T16:34:44.048Z</time></trkpt><trkpt lat="44.069939" lon="7.8189639"><ele>597.5</ele><time>2026-05-02T16:34:45.049Z</time></trkpt><trkpt lat="44.0699074" lon="7.8191312"><ele>600.25</ele><time>2026-05-02T16:34:46.048Z</time></trkpt><trkpt lat="44.0698682" lon="7.819299"><ele>603.0</ele><time>2026-05-02T16:34:47.048Z</time></trkpt><trkpt lat="44.0697889" lon="7.8194813"><ele>603.0</ele><time>2026-05-02T16:34:48.048Z</time></trkpt><trkpt lat="44.069728" lon="7.8196628"><ele>603.0</ele><time>2026-05-02T16:34:49.048Z</time></trkpt><trkpt lat="44.0696253" lon="7.8198936"><ele>603.0</ele><time>2026-05-02T16:34:50.048Z</time></trkpt><trkpt lat="44.069537" lon="7.8201055"><ele>593.3333333333334</ele><time>2026-05-02T16:34:51.049Z</time></trkpt><trkpt lat="44.0694322" lon="7.8203193"><ele>583.6666666666667</ele><time>2026-05-02T16:34:52.048Z</time></trkpt><trkpt lat="44.0693102" lon="7.8205267"><ele>574.0</ele><time>2026-05-02T16:34:53.048Z</time></trkpt><trkpt lat="44.0691901" lon="7.8207179"><ele>573.75</ele><time>2026-05-02T16:34:54.048Z</time></trkpt><trkpt lat="44.0690782" lon="7.8208958"><ele>573.5</ele><time>2026-05-02T16:34:55.048Z</time></trkpt><trkpt lat="44.0689724" lon="7.8210447"><ele>573.25</ele><time>2026-05-02T16:34:56.048Z</time></trkpt><trkpt lat="44.0688683" lon="7.8211357"><ele>573.0</ele><time>2026-05-02T16:34:57.048Z</time></trkpt><trkpt lat="44.068757" lon="7.821175"><ele>573.0</ele><time>2026-05-02T16:34:58.048Z</time></trkpt><trkpt lat="44.0686334" lon="7.8212112"><ele>573.0</ele><time>2026-05-02T16:34:59.049Z</time></trkpt><trkpt lat="44.0685113" lon="7.8213002"><ele>573.0</ele><time>2026-05-02T16:35:00.048Z</time></trkpt><trkpt lat="44.0683917" lon="7.8214288"><ele>573.0</ele><time>2026-05-02T16:35:01.048Z</time></trkpt><trkpt lat="44.0682911" lon="7.8215935"><ele>581.3333333333334</ele><time>2026-05-02T16:35:02.048Z</time></trkpt><trkpt lat="44.0682049" lon="7.8217984"><ele>589.6666666666667</ele><time>2026-05-02T16:35:03.049Z</time></trkpt><trkpt lat="44.0681356" lon="7.8220164"><ele>598.0</ele><time>2026-05-02T16:35:04.049Z</time></trkpt><trkpt lat="44.0680942" lon="7.8222627"><ele>598.0</ele><time>2026-05-02T16:35:05.048Z</time></trkpt><trkpt lat="44.0680514" lon="7.8225269"><ele>598.0</ele><time>2026-05-02T16:35:06.048Z</time></trkpt><trkpt lat="44.0680136" lon="7.8227832"><ele>598.0</ele><time>2026-05-02T16:35:07.048Z</time></trkpt><trkpt lat="44.0679831" lon="7.8230355"><ele>592.6666666666667</ele><time>2026-05-02T16:35:08.048Z</time></trkpt><trkpt lat="44.067934" lon="7.8232752"><ele>587.3333333333334</ele><time>2026-05-02T16:35:09.048Z</time></trkpt><trkpt lat="44.0678707" lon="7.8235003"><ele>582.0</ele><time>2026-05-02T16:35:10.05Z</time></trkpt><trkpt lat="44.0677967" lon="7.823716"><ele>577.75</ele><time>2026-05-02T16:35:11.048Z</time></trkpt><trkpt lat="44.0677398" lon="7.823921"><ele>573.5</ele><time>2026-05-02T16:35:12.048Z</time></trkpt><trkpt lat="44.0677043" lon="7.82411"><ele>569.25</ele><time>2026-05-02T16:35:13.048Z</time></trkpt><trkpt lat="44.0677075" lon="7.8242906"><ele>565.0</ele><time>2026-05-02T16:35:14.049Z</time></trkpt><trkpt lat="44.0677122" lon="7.824472"><ele>563.0</ele><time>2026-05-02T16:35:15.049Z</time></trkpt><trkpt lat="44.0677947" lon="7.8246629"><ele>561.0</ele><time>2026-05-02T16:35:16.048Z</time></trkpt><trkpt lat="44.0678231" lon="7.8248465"><ele>559.0</ele><time>2026-05-02T16:35:17.048Z</time></trkpt><trkpt lat="44.0678288" lon="7.825049"><ele>557.0</ele><time>2026-05-02T16:35:18.048Z</time></trkpt><trkpt lat="44.0678214" lon="7.825271"><ele>555.0</ele><time>2026-05-02T16:35:19.048Z</time></trkpt><trkpt lat="44.0678372" lon="7.8254947"><ele>553.0</ele><time>2026-05-02T16:35:20.048Z</time></trkpt><trkpt lat="44.067876" lon="7.8256903"><ele>551.0</ele><time>2026-05-02T16:35:21.049Z</time></trkpt><trkpt lat="44.0679036" lon="7.8258927"><ele>547.25</ele><time>2026-05-02T16:35:22.048Z</time></trkpt><trkpt lat="44.0679043" lon="7.8260878"><ele>543.5</ele><time>2026-05-02T16:35:23.048Z</time></trkpt><trkpt lat="44.0678747" lon="7.8262768"><ele>539.75</ele><time>2026-05-02T16:35:24.049Z</time></trkpt><trkpt lat="44.0677962" lon="7.8264635"><ele>536.0</ele><time>2026-05-02T16:35:25.049Z</time></trkpt><trkpt lat="44.0677081" lon="7.8266443"><ele>534.3333333333333</ele><time>2026-05-02T16:35:26.048Z</time></trkpt><trkpt lat="44.0676144" lon="7.8268251"><ele>532.6666666666666</ele><time>2026-05-02T16:35:27.048Z</time></trkpt><trkpt lat="44.0675379" lon="7.827015"><ele>531.0</ele><time>2026-05-02T16:35:28.049Z</time></trkpt><trkpt lat="44.0674703" lon="7.8272328"><ele>531.0</ele><time>2026-05-02T16:35:29.048Z</time></trkpt><trkpt lat="44.0674779" lon="7.8274391"><ele>531.0</ele><time>2026-05-02T16:35:30.048Z</time></trkpt><trkpt lat="44.0674657" lon="7.8276568"><ele>531.0</ele><time>2026-05-02T16:35:31.048Z</time></trkpt><trkpt lat="44.0675461" lon="7.8278713"><ele>529.0</ele><time>2026-05-02T16:35:32.049Z</time></trkpt><trkpt lat="44.0675967" lon="7.8281028"><ele>527.0</ele><time>2026-05-02T16:35:33.048Z</time></trkpt><trkpt lat="44.0677205" lon="7.8282937"><ele>525.0</ele><time>2026-05-02T16:35:34.048Z</time></trkpt><trkpt lat="44.0677807" lon="7.8285199"><ele>521.6666666666666</ele><time>2026-05-02T16:35:35.049Z</time></trkpt><trkpt lat="44.0678048" lon="7.8287407"><ele>518.3333333333333</ele><time>2026-05-02T16:35:36.048Z</time></trkpt><trkpt lat="44.0677873" lon="7.8289518"><ele>515.0</ele><time>2026-05-02T16:35:37.048Z</time></trkpt><trkpt lat="44.067729" lon="7.8291633"><ele>513.0</ele><time>2026-05-02T16:35:38.049Z</time></trkpt><trkpt lat="44.0676673" lon="7.8293785"><ele>511.0</ele><time>2026-05-02T16:35:39.048Z</time></trkpt><trkpt lat="44.0676127" lon="7.8295942"><ele>509.0</ele><time>2026-05-02T16:35:40.049Z</time></trkpt><trkpt lat="44.0675597" lon="7.8297778"><ele>509.0</ele><time>2026-05-02T16:35:41.049Z</time></trkpt><trkpt lat="44.0674937" lon="7.8299407"><ele>509.0</ele><time>2026-05-02T16:35:42.048Z</time></trkpt><trkpt lat="44.0673989" lon="7.8300741"><ele>509.0</ele><time>2026-05-02T16:35:43.048Z</time></trkpt><trkpt lat="44.067277" lon="7.8301713"><ele>509.0</ele><time>2026-05-02T16:35:44.048Z</time></trkpt><trkpt lat="44.0671353" lon="7.8302605"><ele>506.66666666666663</ele><time>2026-05-02T16:35:45.049Z</time></trkpt><trkpt lat="44.0669984" lon="7.8303718"><ele>504.33333333333337</ele><time>2026-05-02T16:35:46.048Z</time></trkpt><trkpt lat="44.066868" lon="7.8305158"><ele>502.0</ele><time>2026-05-02T16:35:47.048Z</time></trkpt><trkpt lat="44.0667468" lon="7.8306637"><ele>502.0</ele><time>2026-05-02T16:35:48.048Z</time></trkpt><trkpt lat="44.0666319" lon="7.830818"><ele>502.0</ele><time>2026-05-02T16:35:49.049Z</time></trkpt><trkpt lat="44.0665292" lon="7.8309989"><ele>502.0</ele><time>2026-05-02T16:35:50.048Z</time></trkpt><trkpt lat="44.0664517" lon="7.8312006"><ele>503.6666666666667</ele><time>2026-05-02T16:35:51.048Z</time></trkpt><trkpt lat="44.0663858" lon="7.8314221"><ele>505.33333333333337</ele><time>2026-05-02T16:35:52.048Z</time></trkpt><trkpt lat="44.0663194" lon="7.8316519"><ele>507.0</ele><time>2026-05-02T16:35:53.048Z</time></trkpt><trkpt lat="44.0662609" lon="7.8318822"><ele>504.0</ele><time>2026-05-02T16:35:54.048Z</time></trkpt><trkpt lat="44.066211" lon="7.8320764"><ele>501.0</ele><time>2026-05-02T16:35:55.048Z</time></trkpt><trkpt lat="44.0661616" lon="7.8322454"><ele>498.0</ele><time>2026-05-02T16:35:56.048Z</time></trkpt><trkpt lat="44.0660969" lon="7.8323804"><ele>495.0</ele><time>2026-05-02T16:35:57.049Z</time></trkpt><trkpt lat="44.0660105" lon="7.8324636"><ele>495.0</ele><time>2026-05-02T16:35:58.048Z</time></trkpt><trkpt lat="44.065919" lon="7.832543"><ele>495.0</ele><time>2026-05-02T16:35:59.048Z</time></trkpt><trkpt lat="44.0658364" lon="7.8326074"><ele>495.0</ele><time>2026-05-02T16:36:00.049Z</time></trkpt><trkpt lat="44.0658081" lon="7.8327514"><ele>495.0</ele><time>2026-05-02T16:36:01.049Z</time></trkpt><trkpt lat="44.0657776" lon="7.832937"><ele>495.0</ele><time>2026-05-02T16:36:02.048Z</time></trkpt><trkpt lat="44.065753" lon="7.8330897"><ele>495.5</ele><time>2026-05-02T16:36:03.048Z</time></trkpt><trkpt lat="44.065757" lon="7.8332609"><ele>496.0</ele><time>2026-05-02T16:36:04.049Z</time></trkpt><trkpt lat="44.0657678" lon="7.8334322"><ele>496.5</ele><time>2026-05-02T16:36:05.048Z</time></trkpt><trkpt lat="44.065828" lon="7.8336044"><ele>497.0</ele><time>2026-05-02T16:36:06.048Z</time></trkpt><trkpt lat="44.065962" lon="7.8338252"><ele>497.0</ele><time>2026-05-02T16:36:07.048Z</time></trkpt><trkpt lat="44.0660439" lon="7.8340309"><ele>497.0</ele><time>2026-05-02T16:36:08.049Z</time></trkpt><trkpt lat="44.0661238" lon="7.8342525"><ele>497.0</ele><time>2026-05-02T16:36:09.049Z</time></trkpt><trkpt lat="44.0662106" lon="7.8344694"><ele>497.0</ele><time>2026-05-02T16:36:10.048Z</time></trkpt><trkpt lat="44.0662872" lon="7.8346878"><ele>497.0</ele><time>2026-05-02T16:36:11.048Z</time></trkpt><trkpt lat="44.0663561" lon="7.8348838"><ele>497.0</ele><time>2026-05-02T16:36:12.048Z</time></trkpt><trkpt lat="44.066417" lon="7.8350744"><ele>497.3333333333333</ele><time>2026-05-02T16:36:13.048Z</time></trkpt><trkpt lat="44.0664734" lon="7.8352885"><ele>497.66666666666663</ele><time>2026-05-02T16:36:14.048Z</time></trkpt><trkpt lat="44.0664679" lon="7.8354928"><ele>498.0</ele><time>2026-05-02T16:36:15.049Z</time></trkpt><trkpt lat="44.066472" lon="7.8357757"><ele>500.33333333333337</ele><time>2026-05-02T16:36:16.049Z</time></trkpt><trkpt lat="44.0665207" lon="7.8359876"><ele>502.6666666666667</ele><time>2026-05-02T16:36:17.048Z</time></trkpt><trkpt lat="44.0665689" lon="7.8362005"><ele>505.0</ele><time>2026-05-02T16:36:18.049Z</time></trkpt><trkpt lat="44.0665861" lon="7.8364199"><ele>505.0</ele><time>2026-05-02T16:36:19.048Z</time></trkpt><trkpt lat="44.0665926" lon="7.8366411"><ele>505.0</ele><time>2026-05-02T16:36:20.048Z</time></trkpt><trkpt lat="44.066595" lon="7.8368442"><ele>505.0</ele><time>2026-05-02T16:36:21.048Z</time></trkpt><trkpt lat="44.0665728" lon="7.8370786"><ele>506.6666666666667</ele><time>2026-05-02T16:36:22.048Z</time></trkpt><trkpt lat="44.0665624" lon="7.8373215"><ele>508.33333333333337</ele><time>2026-05-02T16:36:23.048Z</time></trkpt><trkpt lat="44.0665785" lon="7.8375868"><ele>510.0</ele><time>2026-05-02T16:36:24.048Z</time></trkpt><trkpt lat="44.0665859" lon="7.8378478"><ele>513.6666666666666</ele><time>2026-05-02T16:36:25.048Z</time></trkpt><trkpt lat="44.0665942" lon="7.8381159"><ele>517.3333333333333</ele><time>2026-05-02T16:36:26.048Z</time></trkpt><trkpt lat="44.0667419" lon="7.8383385"><ele>521.0</ele><time>2026-05-02T16:36:27.049Z</time></trkpt><trkpt lat="44.0668127" lon="7.8385764"><ele>506.0</ele><time>2026-05-02T16:36:28.048Z</time></trkpt><trkpt lat="44.0669617" lon="7.8387813"><ele>491.0</ele><time>2026-05-02T16:36:29.048Z</time></trkpt><trkpt lat="44.0670702" lon="7.8390147"><ele>476.0</ele><time>2026-05-02T16:36:30.048Z</time></trkpt><trkpt lat="44.0671942" lon="7.8392427"><ele>477.66666666666663</ele><time>2026-05-02T16:36:31.048Z</time></trkpt><trkpt lat="44.0672933" lon="7.8394856"><ele>479.33333333333337</ele><time>2026-05-02T16:36:32.049Z</time></trkpt><trkpt lat="44.0674085" lon="7.8397175"><ele>481.0</ele><time>2026-05-02T16:36:33.048Z</time></trkpt><trkpt lat="44.0675009" lon="7.8399477"><ele>474.0</ele><time>2026-05-02T16:36:34.049Z</time></trkpt><trkpt lat="44.0676201" lon="7.8401728"><ele>467.0</ele><time>2026-05-02T16:36:35.048Z</time></trkpt><trkpt lat="44.0677176" lon="7.8403817"><ele>460.0</ele><time>2026-05-02T16:36:36.048Z</time></trkpt><trkpt lat="44.0677797" lon="7.840589"><ele>460.0</ele><time>2026-05-02T16:36:37.048Z</time></trkpt><trkpt lat="44.0678061" lon="7.8407974"><ele>460.0</ele><time>2026-05-02T16:36:38.048Z</time></trkpt><trkpt lat="44.0677623" lon="7.8410223"><ele>460.0</ele><time>2026-05-02T16:36:39.048Z</time></trkpt><trkpt lat="44.0677464" lon="7.8412314"><ele>459.0</ele><time>2026-05-02T16:36:40.048Z</time></trkpt><trkpt lat="44.0676971" lon="7.8414618"><ele>458.0</ele><time>2026-05-02T16:36:41.049Z</time></trkpt><trkpt lat="44.067637" lon="7.8417072"><ele>457.0</ele><time>2026-05-02T16:36:42.048Z</time></trkpt><trkpt lat="44.0676001" lon="7.8419666"><ele>455.6666666666667</ele><time>2026-05-02T16:36:43.048Z</time></trkpt><trkpt lat="44.0675578" lon="7.8422243"><ele>454.33333333333337</ele><time>2026-05-02T16:36:44.048Z</time></trkpt><trkpt lat="44.0675312" lon="7.8424946"><ele>453.0</ele><time>2026-05-02T16:36:45.048Z</time></trkpt><trkpt lat="44.067507" lon="7.8427557"><ele>450.66666666666663</ele><time>2026-05-02T16:36:46.048Z</time></trkpt><trkpt lat="44.0674961" lon="7.8430255"><ele>448.3333333333333</ele><time>2026-05-02T16:36:47.049Z</time></trkpt><trkpt lat="44.067495" lon="7.843238"><ele>446.0</ele><time>2026-05-02T16:36:48.049Z</time></trkpt><trkpt lat="44.0674502" lon="7.8434435"><ele>446.75</ele><time>2026-05-02T16:36:49.048Z</time></trkpt><trkpt lat="44.0674107" lon="7.8436046"><ele>447.5</ele><time>2026-05-02T16:36:50.049Z</time></trkpt><trkpt lat="44.0673454" lon="7.8437744"><ele>448.25</ele><time>2026-05-02T16:36:51.048Z</time></trkpt><trkpt lat="44.0671602" lon="7.8437342"><ele>449.0</ele><time>2026-05-02T16:36:52.048Z</time></trkpt><trkpt lat="44.067024" lon="7.8437869"><ele>449.0</ele><time>2026-05-02T16:36:53.048Z</time></trkpt><trkpt lat="44.0668966" lon="7.8438361"><ele>449.0</ele><time>2026-05-02T16:36:54.048Z</time></trkpt><trkpt lat="44.0667801" lon="7.843912"><ele>449.0</ele><time>2026-05-02T16:36:55.048Z</time></trkpt><trkpt lat="44.0666619" lon="7.8439833"><ele>449.0</ele><time>2026-05-02T16:36:56.048Z</time></trkpt><trkpt lat="44.0666993" lon="7.8441382"><ele>449.0</ele><time>2026-05-02T16:36:57.048Z</time></trkpt><trkpt lat="44.0666482" lon="7.8442539"><ele>449.0</ele><time>2026-05-02T16:36:58.048Z</time></trkpt><trkpt lat="44.0667904" lon="7.8444485"><ele>449.0</ele><time>2026-05-02T16:36:59.048Z</time></trkpt><trkpt lat="44.0668707" lon="7.8446085"><ele>449.0</ele><time>2026-05-02T16:37:00.048Z</time></trkpt><trkpt lat="44.0669247" lon="7.8447767"><ele>448.25</ele><time>2026-05-02T16:37:01.049Z</time></trkpt><trkpt lat="44.0669534" lon="7.8449644"><ele>447.5</ele><time>2026-05-02T16:37:02.048Z</time></trkpt><trkpt lat="44.0669569" lon="7.8451255"><ele>446.75</ele><time>2026-05-02T16:37:03.048Z</time></trkpt><trkpt lat="44.0669606" lon="7.8452928"><ele>446.0</ele><time>2026-05-02T16:37:04.048Z</time></trkpt><trkpt lat="44.0669536" lon="7.8454622"><ele>443.3333333333333</ele><time>2026-05-02T16:37:05.048Z</time></trkpt><trkpt lat="44.0669004" lon="7.8456372"><ele>440.66666666666663</ele><time>2026-05-02T16:37:06.048Z</time></trkpt><trkpt lat="44.0668386" lon="7.8458893"><ele>438.0</ele><time>2026-05-02T16:37:07.049Z</time></trkpt><trkpt lat="44.0668232" lon="7.8461284"><ele>435.33333333333337</ele><time>2026-05-02T16:37:08.049Z</time></trkpt><trkpt lat="44.0667961" lon="7.8463707"><ele>432.6666666666667</ele><time>2026-05-02T16:37:09.049Z</time></trkpt><trkpt lat="44.0667712" lon="7.8465925"><ele>430.0</ele><time>2026-05-02T16:37:10.048Z</time></trkpt><trkpt lat="44.0667486" lon="7.8468169"><ele>428.5</ele><time>2026-05-02T16:37:11.048Z</time></trkpt><trkpt lat="44.0667091" lon="7.847032"><ele>427.0</ele><time>2026-05-02T16:37:12.049Z</time></trkpt><trkpt lat="44.0667171" lon="7.8471957"><ele>425.5</ele><time>2026-05-02T16:37:13.048Z</time></trkpt><trkpt lat="44.0667134" lon="7.8474073"><ele>424.0</ele><time>2026-05-02T16:37:14.049Z</time></trkpt><trkpt lat="44.0668778" lon="7.8475703"><ele>424.5</ele><time>2026-05-02T16:37:15.048Z</time></trkpt><trkpt lat="44.0669475" lon="7.8477568"><ele>425.0</ele><time>2026-05-02T16:37:16.048Z</time></trkpt><trkpt lat="44.0670305" lon="7.8479304"><ele>425.5</ele><time>2026-05-02T16:37:17.048Z</time></trkpt><trkpt lat="44.0670913" lon="7.8480983"><ele>426.0</ele><time>2026-05-02T16:37:18.048Z</time></trkpt><trkpt lat="44.0671195" lon="7.848272"><ele>426.0</ele><time>2026-05-02T16:37:19.049Z</time></trkpt><trkpt lat="44.0671069" lon="7.8484515"><ele>426.0</ele><time>2026-05-02T16:37:20.048Z</time></trkpt><trkpt lat="44.0670921" lon="7.8486401"><ele>426.0</ele><time>2026-05-02T16:37:21.048Z</time></trkpt><trkpt lat="44.0670119" lon="7.848827"><ele>426.0</ele><time>2026-05-02T16:37:22.049Z</time></trkpt><trkpt lat="44.0669426" lon="7.8490281"><ele>424.66666666666663</ele><time>2026-05-02T16:37:23.049Z</time></trkpt><trkpt lat="44.0668867" lon="7.8492449"><ele>423.3333333333333</ele><time>2026-05-02T16:37:24.048Z</time></trkpt><trkpt lat="44.0668256" lon="7.849466"><ele>422.0</ele><time>2026-05-02T16:37:25.048Z</time></trkpt><trkpt lat="44.0667602" lon="7.8496982"><ele>422.0</ele><time>2026-05-02T16:37:26.048Z</time></trkpt><trkpt lat="44.0667014" lon="7.8499331"><ele>422.0</ele><time>2026-05-02T16:37:27.048Z</time></trkpt><trkpt lat="44.0666254" lon="7.8501762"><ele>422.0</ele><time>2026-05-02T16:37:28.048Z</time></trkpt><trkpt lat="44.0665358" lon="7.8504385"><ele>422.0</ele><time>2026-05-02T16:37:29.048Z</time></trkpt><trkpt lat="44.0664769" lon="7.8506654"><ele>422.0</ele><time>2026-05-02T16:37:30.048Z</time></trkpt><trkpt lat="44.0664226" lon="7.8509012"><ele>422.0</ele><time>2026-05-02T16:37:31.048Z</time></trkpt><trkpt lat="44.0663399" lon="7.8511054"><ele>420.0</ele><time>2026-05-02T16:37:32.048Z</time></trkpt><trkpt lat="44.066281" lon="7.85131"><ele>418.0</ele><time>2026-05-02T16:37:33.048Z</time></trkpt><trkpt lat="44.0662358" lon="7.8514929"><ele>416.0</ele><time>2026-05-02T16:37:34.049Z</time></trkpt><trkpt lat="44.0661766" lon="7.8516615"><ele>414.0</ele><time>2026-05-02T16:37:35.048Z</time></trkpt><trkpt lat="44.0661474" lon="7.8518034"><ele>414.0</ele><time>2026-05-02T16:37:36.048Z</time></trkpt><trkpt lat="44.0661558" lon="7.8519335"><ele>414.0</ele><time>2026-05-02T16:37:37.048Z</time></trkpt><trkpt lat="44.066197" lon="7.8520415"><ele>414.0</ele><time>2026-05-02T16:37:38.048Z</time></trkpt><trkpt lat="44.0662708" lon="7.852114"><ele>414.0</ele><time>2026-05-02T16:37:39.048Z</time></trkpt><trkpt lat="44.066364" lon="7.8521498"><ele>414.0</ele><time>2026-05-02T16:37:40.048Z</time></trkpt><trkpt lat="44.066433" lon="7.8522089"><ele>414.0</ele><time>2026-05-02T16:37:41.048Z</time></trkpt><trkpt lat="44.0664993" lon="7.8522765"><ele>414.0</ele><time>2026-05-02T16:37:42.048Z</time></trkpt><trkpt lat="44.0665073" lon="7.8524074"><ele>414.0</ele><time>2026-05-02T16:37:43.048Z</time></trkpt><trkpt lat="44.0665174" lon="7.8525426"><ele>414.0</ele><time>2026-05-02T16:37:44.048Z</time></trkpt><trkpt lat="44.0665224" lon="7.8527063"><ele>414.0</ele><time>2026-05-02T16:37:45.048Z</time></trkpt><trkpt lat="44.0665272" lon="7.8528833"><ele>412.25</ele><time>2026-05-02T16:37:46.048Z</time></trkpt><trkpt lat="44.0665354" lon="7.8530806"><ele>410.5</ele><time>2026-05-02T16:37:47.048Z</time></trkpt><trkpt lat="44.0665352" lon="7.8532827"><ele>408.75</ele><time>2026-05-02T16:37:48.048Z</time></trkpt><trkpt lat="44.0665268" lon="7.8534873"><ele>407.0</ele><time>2026-05-02T16:37:49.048Z</time></trkpt><trkpt lat="44.0665127" lon="7.8537042"><ele>404.3333333333333</ele><time>2026-05-02T16:37:50.048Z</time></trkpt><trkpt lat="44.0664988" lon="7.8539255"><ele>401.66666666666663</ele><time>2026-05-02T16:37:51.048Z</time></trkpt><trkpt lat="44.06647" lon="7.8541488"><ele>399.0</ele><time>2026-05-02T16:37:52.048Z</time></trkpt><trkpt lat="44.0664158" lon="7.8543347"><ele>397.25</ele><time>2026-05-02T16:37:53.048Z</time></trkpt><trkpt lat="44.0663614" lon="7.8545177"><ele>395.5</ele><time>2026-05-02T16:37:54.049Z</time></trkpt><trkpt lat="44.0662389" lon="7.8546548"><ele>393.75</ele><time>2026-05-02T16:37:55.048Z</time></trkpt><trkpt lat="44.0661555" lon="7.8548006"><ele>392.0</ele><time>2026-05-02T16:37:56.048Z</time></trkpt><trkpt lat="44.0660632" lon="7.85495"><ele>392.0</ele><time>2026-05-02T16:37:57.048Z</time></trkpt><trkpt lat="44.0659774" lon="7.8550965"><ele>392.0</ele><time>2026-05-02T16:37:58.048Z</time></trkpt><trkpt lat="44.0658816" lon="7.8552171"><ele>392.0</ele><time>2026-05-02T16:37:59.049Z</time></trkpt><trkpt lat="44.0657796" lon="7.8553249"><ele>392.0</ele><time>2026-05-02T16:38:00.048Z</time></trkpt><trkpt lat="44.065674" lon="7.8554087"><ele>391.5</ele><time>2026-05-02T16:38:01.048Z</time></trkpt><trkpt lat="44.0655576" lon="7.8554717"><ele>391.0</ele><time>2026-05-02T16:38:02.048Z</time></trkpt><trkpt lat="44.0654474" lon="7.8555362"><ele>390.5</ele><time>2026-05-02T16:38:03.048Z</time></trkpt><trkpt lat="44.0653296" lon="7.8555791"><ele>390.0</ele><time>2026-05-02T16:38:04.048Z</time></trkpt><trkpt lat="44.065215" lon="7.8556031"><ele>390.0</ele><time>2026-05-02T16:38:05.048Z</time></trkpt><trkpt lat="44.0651055" lon="7.8556103"><ele>390.0</ele><time>2026-05-02T16:38:06.048Z</time></trkpt><trkpt lat="44.0649968" lon="7.8556458"><ele>390.0</ele><time>2026-05-02T16:38:07.049Z</time></trkpt><trkpt lat="44.0648838" lon="7.8557586"><ele>390.0</ele><time>2026-05-02T16:38:08.049Z</time></trkpt><trkpt lat="44.0647685" lon="7.8558293"><ele>389.5</ele><time>2026-05-02T16:38:09.049Z</time></trkpt><trkpt lat="44.0646446" lon="7.8558748"><ele>389.0</ele><time>2026-05-02T16:38:10.048Z</time></trkpt><trkpt lat="44.0645146" lon="7.8559021"><ele>388.5</ele><time>2026-05-02T16:38:11.048Z</time></trkpt><trkpt lat="44.0643627" lon="7.8559301"><ele>388.0</ele><time>2026-05-02T16:38:12.048Z</time></trkpt><trkpt lat="44.0642149" lon="7.855994"><ele>396.33333333333337</ele><time>2026-05-02T16:38:13.048Z</time></trkpt><trkpt lat="44.0640807" lon="7.856098"><ele>404.66666666666663</ele><time>2026-05-02T16:38:14.048Z</time></trkpt><trkpt lat="44.06395" lon="7.8562365"><ele>413.0</ele><time>2026-05-02T16:38:15.048Z</time></trkpt><trkpt lat="44.0638209" lon="7.8563618"><ele>413.0</ele><time>2026-05-02T16:38:16.048Z</time></trkpt><trkpt lat="44.0636794" lon="7.8564402"><ele>413.0</ele><time>2026-05-02T16:38:17.048Z</time></trkpt><trkpt lat="44.0635428" lon="7.8565085"><ele>413.0</ele><time>2026-05-02T16:38:18.048Z</time></trkpt><trkpt lat="44.0634425" lon="7.8566102"><ele>413.0</ele><time>2026-05-02T16:38:19.048Z</time></trkpt><trkpt lat="44.0633793" lon="7.8567435"><ele>408.0</ele><time>2026-05-02T16:38:20.048Z</time></trkpt><trkpt lat="44.0633596" lon="7.856921"><ele>403.0</ele><time>2026-05-02T16:38:21.048Z</time></trkpt><trkpt lat="44.0633726" lon="7.8571306"><ele>398.0</ele><time>2026-05-02T16:38:22.048Z</time></trkpt><trkpt lat="44.0633674" lon="7.8573566"><ele>393.0</ele><time>2026-05-02T16:38:23.049Z</time></trkpt><trkpt lat="44.0633552" lon="7.8576078"><ele>390.66666666666663</ele><time>2026-05-02T16:38:24.048Z</time></trkpt><trkpt lat="44.0633356" lon="7.8578631"><ele>388.3333333333333</ele><time>2026-05-02T16:38:25.048Z</time></trkpt><trkpt lat="44.0633116" lon="7.8581323"><ele>386.0</ele><time>2026-05-02T16:38:26.048Z</time></trkpt><trkpt lat="44.0632883" lon="7.8584025"><ele>388.3333333333333</ele><time>2026-05-02T16:38:27.049Z</time></trkpt><trkpt lat="44.0632652" lon="7.8586831"><ele>390.66666666666663</ele><time>2026-05-02T16:38:28.049Z</time></trkpt><trkpt lat="44.0632406" lon="7.8589727"><ele>393.0</ele><time>2026-05-02T16:38:29.049Z</time></trkpt><trkpt lat="44.0632135" lon="7.8592542"><ele>389.3333333333333</ele><time>2026-05-02T16:38:30.049Z</time></trkpt><trkpt lat="44.0631871" lon="7.8595129"><ele>385.66666666666663</ele><time>2026-05-02T16:38:31.049Z</time></trkpt><trkpt lat="44.0631781" lon="7.8597515"><ele>382.0</ele><time>2026-05-02T16:38:32.049Z</time></trkpt><trkpt lat="44.0631969" lon="7.859981"><ele>381.40000000000003</ele><time>2026-05-02T16:38:33.049Z</time></trkpt><trkpt lat="44.0632379" lon="7.8601646"><ele>380.8</ele><time>2026-05-02T16:38:34.049Z</time></trkpt><trkpt lat="44.0632613" lon="7.8602822"><ele>380.2</ele><time>2026-05-02T16:38:35.049Z</time></trkpt><trkpt lat="44.0632249" lon="7.8603741"><ele>379.6</ele><time>2026-05-02T16:38:36.049Z</time></trkpt><trkpt lat="44.0631456" lon="7.8604506"><ele>379.0</ele><time>2026-05-02T16:38:37.049Z</time></trkpt><trkpt lat="44.0630416" lon="7.8605212"><ele>379.0</ele><time>2026-05-02T16:38:38.049Z</time></trkpt><trkpt lat="44.0629193" lon="7.8606075"><ele>379.0</ele><time>2026-05-02T16:38:39.049Z</time></trkpt><trkpt lat="44.0627924" lon="7.8607238"><ele>379.0</ele><time>2026-05-02T16:38:40.049Z</time></trkpt><trkpt lat="44.0626493" lon="7.8608632"><ele>378.0</ele><time>2026-05-02T16:38:41.05Z</time></trkpt><trkpt lat="44.0624934" lon="7.8610222"><ele>377.0</ele><time>2026-05-02T16:38:42.049Z</time></trkpt><trkpt lat="44.0623327" lon="7.8611855"><ele>376.0</ele><time>2026-05-02T16:38:43.049Z</time></trkpt><trkpt lat="44.0621714" lon="7.8613396"><ele>376.0</ele><time>2026-05-02T16:38:44.049Z</time></trkpt><trkpt lat="44.0619969" lon="7.8615052"><ele>376.0</ele><time>2026-05-02T16:38:45.049Z</time></trkpt><trkpt lat="44.0618203" lon="7.8617008"><ele>376.0</ele><time>2026-05-02T16:38:46.049Z</time></trkpt><trkpt lat="44.0616596" lon="7.861921"><ele>379.66666666666663</ele><time>2026-05-02T16:38:47.05Z</time></trkpt><trkpt lat="44.0615098" lon="7.8621399"><ele>383.3333333333333</ele><time>2026-05-02T16:38:48.049Z</time></trkpt><trkpt lat="44.0613782" lon="7.8623703"><ele>387.0</ele><time>2026-05-02T16:38:49.049Z</time></trkpt><trkpt lat="44.0612526" lon="7.8626011"><ele>382.6666666666667</ele><time>2026-05-02T16:38:50.05Z</time></trkpt><trkpt lat="44.0611317" lon="7.8628275"><ele>378.33333333333337</ele><time>2026-05-02T16:38:51.049Z</time></trkpt><trkpt lat="44.0610591" lon="7.8630756"><ele>374.0</ele><time>2026-05-02T16:38:52.049Z</time></trkpt><trkpt lat="44.0609983" lon="7.863337"><ele>373.6666666666667</ele><time>2026-05-02T16:38:53.049Z</time></trkpt><trkpt lat="44.0609463" lon="7.8636056"><ele>373.3333333333333</ele><time>2026-05-02T16:38:54.049Z</time></trkpt><trkpt lat="44.0609094" lon="7.8638864"><ele>373.0</ele><time>2026-05-02T16:38:55.049Z</time></trkpt><trkpt lat="44.0608909" lon="7.8641811"><ele>372.3333333333333</ele><time>2026-05-02T16:38:56.049Z</time></trkpt><trkpt lat="44.0608808" lon="7.8644857"><ele>371.6666666666667</ele><time>2026-05-02T16:38:57.05Z</time></trkpt><trkpt lat="44.0608695" lon="7.8647951"><ele>371.0</ele><time>2026-05-02T16:38:58.05Z</time></trkpt><trkpt lat="44.060837" lon="7.8650943"><ele>367.6666666666667</ele><time>2026-05-02T16:38:59.049Z</time></trkpt><trkpt lat="44.0607766" lon="7.8653731"><ele>364.3333333333333</ele><time>2026-05-02T16:39:00.049Z</time></trkpt><trkpt lat="44.0606923" lon="7.8656357"><ele>361.0</ele><time>2026-05-02T16:39:01.05Z</time></trkpt><trkpt lat="44.0605905" lon="7.8658901"><ele>360.3333333333333</ele><time>2026-05-02T16:39:02.049Z</time></trkpt><trkpt lat="44.0604781" lon="7.8661402"><ele>359.6666666666667</ele><time>2026-05-02T16:39:03.05Z</time></trkpt><trkpt lat="44.0603697" lon="7.866381"><ele>359.0</ele><time>2026-05-02T16:39:04.05Z</time></trkpt><trkpt lat="44.060262" lon="7.8666036"><ele>361.33333333333337</ele><time>2026-05-02T16:39:05.05Z</time></trkpt><trkpt lat="44.0601493" lon="7.8668088"><ele>363.6666666666667</ele><time>2026-05-02T16:39:06.05Z</time></trkpt><trkpt lat="44.0600407" lon="7.8669961"><ele>366.0</ele><time>2026-05-02T16:39:07.049Z</time></trkpt><trkpt lat="44.0599549" lon="7.8671983"><ele>362.6666666666667</ele><time>2026-05-02T16:39:08.049Z</time></trkpt><trkpt lat="44.059904" lon="7.8674343"><ele>359.33333333333337</ele><time>2026-05-02T16:39:09.049Z</time></trkpt><trkpt lat="44.0598686" lon="7.8676907"><ele>356.0</ele><time>2026-05-02T16:39:10.049Z</time></trkpt><trkpt lat="44.0598133" lon="7.8679533"><ele>355.33333333333337</ele><time>2026-05-02T16:39:11.049Z</time></trkpt><trkpt lat="44.0597239" lon="7.8682056"><ele>354.6666666666667</ele><time>2026-05-02T16:39:12.05Z</time></trkpt><trkpt lat="44.0596126" lon="7.8684318"><ele>354.0</ele><time>2026-05-02T16:39:13.049Z</time></trkpt><trkpt lat="44.059492" lon="7.8686281"><ele>354.3333333333333</ele><time>2026-05-02T16:39:14.049Z</time></trkpt><trkpt lat="44.0593781" lon="7.8688243"><ele>354.66666666666663</ele><time>2026-05-02T16:39:15.049Z</time></trkpt><trkpt lat="44.0592798" lon="7.8690422"><ele>355.0</ele><time>2026-05-02T16:39:16.05Z</time></trkpt><trkpt lat="44.0592114" lon="7.8692918"><ele>355.0</ele><time>2026-05-02T16:39:17.049Z</time></trkpt><trkpt lat="44.0591674" lon="7.8695679"><ele>355.0</ele><time>2026-05-02T16:39:18.049Z</time></trkpt><trkpt lat="44.0591287" lon="7.8698557"><ele>355.0</ele><time>2026-05-02T16:39:19.049Z</time></trkpt><trkpt lat="44.0590811" lon="7.8701478"><ele>353.0</ele><time>2026-05-02T16:39:20.049Z</time></trkpt><trkpt lat="44.0590157" lon="7.8704357"><ele>351.0</ele><time>2026-05-02T16:39:21.049Z</time></trkpt><trkpt lat="44.0589353" lon="7.870719"><ele>349.0</ele><time>2026-05-02T16:39:22.049Z</time></trkpt><trkpt lat="44.0588451" lon="7.871002"><ele>348.3333333333333</ele><time>2026-05-02T16:39:23.049Z</time></trkpt><trkpt lat="44.0587491" lon="7.8712827"><ele>347.6666666666667</ele><time>2026-05-02T16:39:24.049Z</time></trkpt><trkpt lat="44.0586512" lon="7.8715646"><ele>347.0</ele><time>2026-05-02T16:39:25.049Z</time></trkpt><trkpt lat="44.05856" lon="7.8718446"><ele>348.6666666666667</ele><time>2026-05-02T16:39:26.049Z</time></trkpt><trkpt lat="44.0584783" lon="7.8721204"><ele>350.3333333333333</ele><time>2026-05-02T16:39:27.05Z</time></trkpt><trkpt lat="44.0583943" lon="7.8723915"><ele>352.0</ele><time>2026-05-02T16:39:28.049Z</time></trkpt><trkpt lat="44.0583099" lon="7.8726524"><ele>349.0</ele><time>2026-05-02T16:39:29.049Z</time></trkpt><trkpt lat="44.0582259" lon="7.8728984"><ele>346.0</ele><time>2026-05-02T16:39:30.05Z</time></trkpt><trkpt lat="44.0581484" lon="7.8731267"><ele>343.0</ele><time>2026-05-02T16:39:31.049Z</time></trkpt><trkpt lat="44.0580713" lon="7.873345"><ele>344.66666666666663</ele><time>2026-05-02T16:39:32.049Z</time></trkpt><trkpt lat="44.0579973" lon="7.873554"><ele>346.3333333333333</ele><time>2026-05-02T16:39:33.049Z</time></trkpt><trkpt lat="44.0579403" lon="7.8737611"><ele>348.0</ele><time>2026-05-02T16:39:34.049Z</time></trkpt><trkpt lat="44.0579025" lon="7.8739752"><ele>348.0</ele><time>2026-05-02T16:39:35.049Z</time></trkpt><trkpt lat="44.057876" lon="7.8741981"><ele>348.0</ele><time>2026-05-02T16:39:36.049Z</time></trkpt><trkpt lat="44.0578507" lon="7.8744199"><ele>348.0</ele><time>2026-05-02T16:39:37.05Z</time></trkpt><trkpt lat="44.0578233" lon="7.8746298"><ele>347.25</ele><time>2026-05-02T16:39:38.049Z</time></trkpt><trkpt lat="44.057807" lon="7.8748266"><ele>346.5</ele><time>2026-05-02T16:39:39.049Z</time></trkpt><trkpt lat="44.0578129" lon="7.8750296"><ele>345.75</ele><time>2026-05-02T16:39:40.05Z</time></trkpt><trkpt lat="44.0578256" lon="7.8752415"><ele>345.0</ele><time>2026-05-02T16:39:41.049Z</time></trkpt><trkpt lat="44.0578651" lon="7.8754699"><ele>344.0</ele><time>2026-05-02T16:39:42.049Z</time></trkpt><trkpt lat="44.0579072" lon="7.8757133"><ele>343.0</ele><time>2026-05-02T16:39:43.049Z</time></trkpt><trkpt lat="44.0579421" lon="7.8759636"><ele>342.0</ele><time>2026-05-02T16:39:44.05Z</time></trkpt><trkpt lat="44.0579524" lon="7.8762262"><ele>342.0</ele><time>2026-05-02T16:39:45.05Z</time></trkpt><trkpt lat="44.0579423" lon="7.8764845"><ele>342.0</ele><time>2026-05-02T16:39:46.049Z</time></trkpt><trkpt lat="44.057934" lon="7.8767412"><ele>342.0</ele><time>2026-05-02T16:39:47.05Z</time></trkpt><trkpt lat="44.0579375" lon="7.8769953"><ele>341.6666666666667</ele><time>2026-05-02T16:39:48.049Z</time></trkpt><trkpt lat="44.0579239" lon="7.8772443"><ele>341.33333333333337</ele><time>2026-05-02T16:39:49.05Z</time></trkpt><trkpt lat="44.0578732" lon="7.8774739"><ele>341.0</ele><time>2026-05-02T16:39:50.049Z</time></trkpt><trkpt lat="44.0577931" lon="7.8776816"><ele>341.0</ele><time>2026-05-02T16:39:51.049Z</time></trkpt><trkpt lat="44.0577206" lon="7.877875"><ele>341.0</ele><time>2026-05-02T16:39:52.049Z</time></trkpt><trkpt lat="44.0576628" lon="7.8780656"><ele>341.0</ele><time>2026-05-02T16:39:53.05Z</time></trkpt><trkpt lat="44.0576484" lon="7.8782521"><ele>341.0</ele><time>2026-05-02T16:39:54.049Z</time></trkpt><trkpt lat="44.0576713" lon="7.8784445"><ele>344.25</ele><time>2026-05-02T16:39:55.049Z</time></trkpt><trkpt lat="44.0576915" lon="7.8786303"><ele>347.5</ele><time>2026-05-02T16:39:56.049Z</time></trkpt><trkpt lat="44.0576791" lon="7.8787949"><ele>350.75</ele><time>2026-05-02T16:39:57.049Z</time></trkpt><trkpt lat="44.0576179" lon="7.8789222"><ele>354.0</ele><time>2026-05-02T16:39:58.05Z</time></trkpt><trkpt lat="44.0575397" lon="7.8790253"><ele>354.0</ele><time>2026-05-02T16:39:59.049Z</time></trkpt><trkpt lat="44.0574565" lon="7.8791311"><ele>354.0</ele><time>2026-05-02T16:40:00.05Z</time></trkpt><trkpt lat="44.0573744" lon="7.8792901"><ele>354.0</ele><time>2026-05-02T16:40:01.05Z</time></trkpt><trkpt lat="44.0573091" lon="7.8794866"><ele>354.0</ele><time>2026-05-02T16:40:02.049Z</time></trkpt><trkpt lat="44.0572479" lon="7.8796989"><ele>348.0</ele><time>2026-05-02T16:40:03.05Z</time></trkpt><trkpt lat="44.0571788" lon="7.8799139"><ele>342.0</ele><time>2026-05-02T16:40:04.049Z</time></trkpt><trkpt lat="44.0571059" lon="7.8801315"><ele>336.0</ele><time>2026-05-02T16:40:05.049Z</time></trkpt><trkpt lat="44.0570434" lon="7.8803654"><ele>336.0</ele><time>2026-05-02T16:40:06.049Z</time></trkpt><trkpt lat="44.0569896" lon="7.8806126"><ele>336.0</ele><time>2026-05-02T16:40:07.05Z</time></trkpt><trkpt lat="44.0569277" lon="7.8808657"><ele>336.0</ele><time>2026-05-02T16:40:08.049Z</time></trkpt><trkpt lat="44.0568589" lon="7.8811161"><ele>334.3333333333333</ele><time>2026-05-02T16:40:09.049Z</time></trkpt><trkpt lat="44.0567849" lon="7.8813592"><ele>332.66666666666663</ele><time>2026-05-02T16:40:10.05Z</time></trkpt><trkpt lat="44.0567008" lon="7.8815907"><ele>331.0</ele><time>2026-05-02T16:40:11.049Z</time></trkpt><trkpt lat="44.0566103" lon="7.8818134"><ele>331.0</ele><time>2026-05-02T16:40:12.051Z</time></trkpt><trkpt lat="44.0565207" lon="7.88204"><ele>331.0</ele><time>2026-05-02T16:40:13.049Z</time></trkpt><trkpt lat="44.0564364" lon="7.88227"><ele>331.0</ele><time>2026-05-02T16:40:14.049Z</time></trkpt><trkpt lat="44.0563684" lon="7.882484"><ele>334.25</ele><time>2026-05-02T16:40:15.049Z</time></trkpt><trkpt lat="44.0563002" lon="7.8826636"><ele>337.5</ele><time>2026-05-02T16:40:16.049Z</time></trkpt><trkpt lat="44.0562427" lon="7.8828199"><ele>340.75</ele><time>2026-05-02T16:40:17.049Z</time></trkpt><trkpt lat="44.056212" lon="7.8829692"><ele>344.0</ele><time>2026-05-02T16:40:18.05Z</time></trkpt><trkpt lat="44.0562166" lon="7.8831358"><ele>344.0</ele><time>2026-05-02T16:40:19.05Z</time></trkpt><trkpt lat="44.0562279" lon="7.8833141"><ele>344.0</ele><time>2026-05-02T16:40:20.049Z</time></trkpt><trkpt lat="44.0562257" lon="7.8834981"><ele>344.0</ele><time>2026-05-02T16:40:21.049Z</time></trkpt><trkpt lat="44.0561921" lon="7.8836875"><ele>344.0</ele><time>2026-05-02T16:40:22.049Z</time></trkpt><trkpt lat="44.0561342" lon="7.8838751"><ele>348.0</ele><time>2026-05-02T16:40:23.05Z</time></trkpt><trkpt lat="44.0560701" lon="7.8840605"><ele>352.0</ele><time>2026-05-02T16:40:24.049Z</time></trkpt><trkpt lat="44.0560146" lon="7.8842461"><ele>356.0</ele><time>2026-05-02T16:40:25.049Z</time></trkpt><trkpt lat="44.0559641" lon="7.8844301"><ele>360.0</ele><time>2026-05-02T16:40:26.049Z</time></trkpt><trkpt lat="44.055915" lon="7.8846116"><ele>360.5</ele><time>2026-05-02T16:40:27.049Z</time></trkpt><trkpt lat="44.0558621" lon="7.8847909"><ele>361.0</ele><time>2026-05-02T16:40:28.049Z</time></trkpt><trkpt lat="44.0558088" lon="7.8849714"><ele>361.5</ele><time>2026-05-02T16:40:29.049Z</time></trkpt><trkpt lat="44.0557594" lon="7.8851538"><ele>362.0</ele><time>2026-05-02T16:40:30.05Z</time></trkpt><trkpt lat="44.0557335" lon="7.8853428"><ele>362.0</ele><time>2026-05-02T16:40:31.049Z</time></trkpt><trkpt lat="44.055714" lon="7.885528"><ele>362.0</ele><time>2026-05-02T16:40:32.05Z</time></trkpt><trkpt lat="44.0556823" lon="7.8857012"><ele>362.0</ele><time>2026-05-02T16:40:33.049Z</time></trkpt><trkpt lat="44.0556296" lon="7.8858672"><ele>362.0</ele><time>2026-05-02T16:40:34.049Z</time></trkpt><trkpt lat="44.0555561" lon="7.8860316"><ele>364.5</ele><time>2026-05-02T16:40:35.049Z</time></trkpt><trkpt lat="44.0554783" lon="7.886194"><ele>367.0</ele><time>2026-05-02T16:40:36.049Z</time></trkpt><trkpt lat="44.0554043" lon="7.8863539"><ele>369.5</ele><time>2026-05-02T16:40:37.049Z</time></trkpt><trkpt lat="44.0553521" lon="7.8865115"><ele>372.0</ele><time>2026-05-02T16:40:38.049Z</time></trkpt><trkpt lat="44.0553334" lon="7.8866669"><ele>374.6666666666667</ele><time>2026-05-02T16:40:39.049Z</time></trkpt><trkpt lat="44.0553359" lon="7.8867983"><ele>377.33333333333337</ele><time>2026-05-02T16:40:40.049Z</time></trkpt><trkpt lat="44.0553321" lon="7.8868961"><ele>380.0</ele><time>2026-05-02T16:40:41.049Z</time></trkpt><trkpt lat="44.0553021" lon="7.886983"><ele>382.6666666666667</ele><time>2026-05-02T16:40:42.049Z</time></trkpt><trkpt lat="44.0552319" lon="7.8870499"><ele>385.33333333333337</ele><time>2026-05-02T16:40:43.049Z</time></trkpt><trkpt lat="44.0551283" lon="7.8870673"><ele>388.0</ele><time>2026-05-02T16:40:44.05Z</time></trkpt><trkpt lat="44.0550047" lon="7.8870378"><ele>385.5</ele><time>2026-05-02T16:40:45.05Z</time></trkpt><trkpt lat="44.0548733" lon="7.8869965"><ele>383.0</ele><time>2026-05-02T16:40:46.049Z</time></trkpt><trkpt lat="44.0547462" lon="7.886996"><ele>380.5</ele><time>2026-05-02T16:40:47.049Z</time></trkpt><trkpt lat="44.0546218" lon="7.8870526"><ele>378.0</ele><time>2026-05-02T16:40:48.05Z</time></trkpt><trkpt lat="44.054502" lon="7.8871633"><ele>378.0</ele><time>2026-05-02T16:40:49.05Z</time></trkpt><trkpt lat="44.0543986" lon="7.8873282"><ele>378.0</ele><time>2026-05-02T16:40:50.049Z</time></trkpt><trkpt lat="44.0543069" lon="7.8874956"><ele>378.0</ele><time>2026-05-02T16:40:51.051Z</time></trkpt><trkpt lat="44.05421" lon="7.8876199"><ele>378.0</ele><time>2026-05-02T16:40:52.05Z</time></trkpt><trkpt lat="44.0541087" lon="7.887703"><ele>374.25</ele><time>2026-05-02T16:40:53.05Z</time></trkpt><trkpt lat="44.0540283" lon="7.8877942"><ele>370.5</ele><time>2026-05-02T16:40:54.049Z</time></trkpt><trkpt lat="44.0539776" lon="7.8879074"><ele>366.75</ele><time>2026-05-02T16:40:55.051Z</time></trkpt><trkpt lat="44.0539367" lon="7.8880494"><ele>363.0</ele><time>2026-05-02T16:40:56.049Z</time></trkpt><trkpt lat="44.0539717" lon="7.8882733"><ele>364.3333333333333</ele><time>2026-05-02T16:40:57.049Z</time></trkpt><trkpt lat="44.0540077" lon="7.8885108"><ele>365.66666666666663</ele><time>2026-05-02T16:40:58.05Z</time></trkpt><trkpt lat="44.0540363" lon="7.8887573"><ele>367.0</ele><time>2026-05-02T16:40:59.05Z</time></trkpt><trkpt lat="44.0540476" lon="7.8890099"><ele>367.0</ele><time>2026-05-02T16:41:00.049Z</time></trkpt><trkpt lat="44.0540253" lon="7.8892573"><ele>367.0</ele><time>2026-05-02T16:41:01.049Z</time></trkpt><trkpt lat="44.0539962" lon="7.8894978"><ele>367.0</ele><time>2026-05-02T16:41:02.049Z</time></trkpt><trkpt lat="44.0539569" lon="7.8897277"><ele>370.3333333333333</ele><time>2026-05-02T16:41:03.049Z</time></trkpt><trkpt lat="44.0538976" lon="7.88993"><ele>373.6666666666667</ele><time>2026-05-02T16:41:04.049Z</time></trkpt><trkpt lat="44.0538181" lon="7.8901065"><ele>377.0</ele><time>2026-05-02T16:41:05.049Z</time></trkpt><trkpt lat="44.0537224" lon="7.8902683"><ele>380.33333333333337</ele><time>2026-05-02T16:41:06.05Z</time></trkpt><trkpt lat="44.0536103" lon="7.8904277"><ele>383.6666666666667</ele><time>2026-05-02T16:41:07.049Z</time></trkpt><trkpt lat="44.0535034" lon="7.890601"><ele>387.0</ele><time>2026-05-02T16:41:08.05Z</time></trkpt><trkpt lat="44.0534019" lon="7.8907673"><ele>387.0</ele><time>2026-05-02T16:41:09.049Z</time></trkpt><trkpt lat="44.0533137" lon="7.8909211"><ele>387.0</ele><time>2026-05-02T16:41:10.049Z</time></trkpt><trkpt lat="44.0532505" lon="7.8910896"><ele>387.0</ele><time>2026-05-02T16:41:11.049Z</time></trkpt><trkpt lat="44.0532203" lon="7.8912412"><ele>387.0</ele><time>2026-05-02T16:41:12.049Z</time></trkpt><trkpt lat="44.053203" lon="7.8913564"><ele>384.1666666666667</ele><time>2026-05-02T16:41:13.049Z</time></trkpt><trkpt lat="44.0531886" lon="7.8914434"><ele>381.3333333333333</ele><time>2026-05-02T16:41:14.049Z</time></trkpt><trkpt lat="44.0531689" lon="7.8915685"><ele>378.5</ele><time>2026-05-02T16:41:16.049Z</time></trkpt><trkpt lat="44.0531375" lon="7.8916724"><ele>375.66666666666663</ele><time>2026-05-02T16:41:17.05Z</time></trkpt><trkpt lat="44.0531038" lon="7.8917872"><ele>372.8333333333333</ele><time>2026-05-02T16:41:18.049Z</time></trkpt><trkpt lat="44.0530741" lon="7.8919277"><ele>370.0</ele><time>2026-05-02T16:41:19.049Z</time></trkpt><trkpt lat="44.0530679" lon="7.8920731"><ele>369.25</ele><time>2026-05-02T16:41:20.049Z</time></trkpt><trkpt lat="44.053131" lon="7.8922483"><ele>368.5</ele><time>2026-05-02T16:41:21.049Z</time></trkpt><trkpt lat="44.0532016" lon="7.8923765"><ele>367.75</ele><time>2026-05-02T16:41:22.05Z</time></trkpt><trkpt lat="44.0532452" lon="7.8925329"><ele>367.0</ele><time>2026-05-02T16:41:23.049Z</time></trkpt><trkpt lat="44.0532427" lon="7.8926857"><ele>363.6</ele><time>2026-05-02T16:41:24.049Z</time></trkpt><trkpt lat="44.053183" lon="7.8928242"><ele>360.20000000000005</ele><time>2026-05-02T16:41:25.049Z</time></trkpt><trkpt lat="44.053098" lon="7.8929215"><ele>356.8</ele><time>2026-05-02T16:41:26.05Z</time></trkpt><trkpt lat="44.0530271" lon="7.8930335"><ele>353.4</ele><time>2026-05-02T16:41:27.049Z</time></trkpt><trkpt lat="44.0529971" lon="7.8931607"><ele>350.0</ele><time>2026-05-02T16:41:28.049Z</time></trkpt><trkpt lat="44.0530431" lon="7.8933398"><ele>347.25</ele><time>2026-05-02T16:41:29.049Z</time></trkpt><trkpt lat="44.053093" lon="7.8935092"><ele>344.5</ele><time>2026-05-02T16:41:30.049Z</time></trkpt><trkpt lat="44.0531673" lon="7.8937009"><ele>341.75</ele><time>2026-05-02T16:41:31.049Z</time></trkpt><trkpt lat="44.0532329" lon="7.8938939"><ele>339.0</ele><time>2026-05-02T16:41:32.05Z</time></trkpt><trkpt lat="44.0532943" lon="7.8940902"><ele>344.5</ele><time>2026-05-02T16:41:33.05Z</time></trkpt><trkpt lat="44.0533493" lon="7.8942824"><ele>350.0</ele><time>2026-05-02T16:41:34.049Z</time></trkpt><trkpt lat="44.053405" lon="7.8944741"><ele>355.5</ele><time>2026-05-02T16:41:35.049Z</time></trkpt><trkpt lat="44.0534435" lon="7.8946667"><ele>361.0</ele><time>2026-05-02T16:41:36.05Z</time></trkpt><trkpt lat="44.0534487" lon="7.8948624"><ele>361.0</ele><time>2026-05-02T16:41:37.049Z</time></trkpt><trkpt lat="44.0534103" lon="7.8950494"><ele>361.0</ele><time>2026-05-02T16:41:38.049Z</time></trkpt><trkpt lat="44.0533282" lon="7.8951978"><ele>361.0</ele><time>2026-05-02T16:41:39.049Z</time></trkpt><trkpt lat="44.0532138" lon="7.8953006"><ele>361.0</ele><time>2026-05-02T16:41:40.049Z</time></trkpt><trkpt lat="44.0530987" lon="7.8953762"><ele>354.0</ele><time>2026-05-02T16:41:41.05Z</time></trkpt><trkpt lat="44.0529768" lon="7.8954453"><ele>347.0</ele><time>2026-05-02T16:41:42.049Z</time></trkpt><trkpt lat="44.0528939" lon="7.895594"><ele>340.0</ele><time>2026-05-02T16:41:43.049Z</time></trkpt><trkpt lat="44.0527979" lon="7.8957117"><ele>333.0</ele><time>2026-05-02T16:41:44.049Z</time></trkpt><trkpt lat="44.0528044" lon="7.896011"><ele>333.0</ele><time>2026-05-02T16:41:45.049Z</time></trkpt><trkpt lat="44.0527754" lon="7.8962576"><ele>333.0</ele><time>2026-05-02T16:41:46.049Z</time></trkpt><trkpt lat="44.0527497" lon="7.8965168"><ele>333.0</ele><time>2026-05-02T16:41:47.049Z</time></trkpt><trkpt lat="44.0527194" lon="7.8967736"><ele>337.0</ele><time>2026-05-02T16:41:48.049Z</time></trkpt><trkpt lat="44.0526691" lon="7.8970206"><ele>341.0</ele><time>2026-05-02T16:41:49.049Z</time></trkpt><trkpt lat="44.0525977" lon="7.8972684"><ele>345.0</ele><time>2026-05-02T16:41:50.049Z</time></trkpt><trkpt lat="44.0525035" lon="7.8975149"><ele>336.0</ele><time>2026-05-02T16:41:51.049Z</time></trkpt><trkpt lat="44.0523967" lon="7.8977488"><ele>327.0</ele><time>2026-05-02T16:41:52.05Z</time></trkpt><trkpt lat="44.0522856" lon="7.8979864"><ele>318.0</ele><time>2026-05-02T16:41:53.05Z</time></trkpt><trkpt lat="44.0521745" lon="7.898226"><ele>319.6666666666667</ele><time>2026-05-02T16:41:54.049Z</time></trkpt><trkpt lat="44.0520605" lon="7.8984586"><ele>321.33333333333337</ele><time>2026-05-02T16:41:55.05Z</time></trkpt><trkpt lat="44.0519547" lon="7.898684"><ele>323.0</ele><time>2026-05-02T16:41:56.049Z</time></trkpt><trkpt lat="44.0518561" lon="7.8989121"><ele>323.0</ele><time>2026-05-02T16:41:57.05Z</time></trkpt><trkpt lat="44.051799" lon="7.8991577"><ele>323.0</ele><time>2026-05-02T16:41:58.049Z</time></trkpt><trkpt lat="44.0517525" lon="7.8994113"><ele>323.0</ele><time>2026-05-02T16:41:59.049Z</time></trkpt><trkpt lat="44.0517126" lon="7.8996678"><ele>324.6666666666667</ele><time>2026-05-02T16:42:00.049Z</time></trkpt><trkpt lat="44.0516769" lon="7.8999386"><ele>326.3333333333333</ele><time>2026-05-02T16:42:01.05Z</time></trkpt><trkpt lat="44.0516282" lon="7.9002016"><ele>328.0</ele><time>2026-05-02T16:42:02.049Z</time></trkpt><trkpt lat="44.0515637" lon="7.900465"><ele>320.3333333333333</ele><time>2026-05-02T16:42:03.049Z</time></trkpt><trkpt lat="44.0514841" lon="7.9007222"><ele>312.6666666666667</ele><time>2026-05-02T16:42:04.049Z</time></trkpt><trkpt lat="44.0513951" lon="7.9009773"><ele>305.0</ele><time>2026-05-02T16:42:05.049Z</time></trkpt><trkpt lat="44.0512952" lon="7.9012313"><ele>305.0</ele><time>2026-05-02T16:42:06.05Z</time></trkpt><trkpt lat="44.0511854" lon="7.9014796"><ele>305.0</ele><time>2026-05-02T16:42:07.049Z</time></trkpt><trkpt lat="44.0510705" lon="7.9017275"><ele>305.0</ele><time>2026-05-02T16:42:08.049Z</time></trkpt><trkpt lat="44.0509569" lon="7.9019749"><ele>308.33333333333337</ele><time>2026-05-02T16:42:09.049Z</time></trkpt><trkpt lat="44.0508497" lon="7.902227"><ele>311.6666666666667</ele><time>2026-05-02T16:42:10.049Z</time></trkpt><trkpt lat="44.0507425" lon="7.9024812"><ele>315.0</ele><time>2026-05-02T16:42:11.05Z</time></trkpt><trkpt lat="44.0506327" lon="7.9027324"><ele>304.6666666666667</ele><time>2026-05-02T16:42:12.049Z</time></trkpt><trkpt lat="44.0505093" lon="7.9029687"><ele>294.33333333333337</ele><time>2026-05-02T16:42:13.05Z</time></trkpt><trkpt lat="44.0503704" lon="7.9031832"><ele>284.0</ele><time>2026-05-02T16:42:14.049Z</time></trkpt><trkpt lat="44.050224" lon="7.9033861"><ele>286.5</ele><time>2026-05-02T16:42:15.05Z</time></trkpt><trkpt lat="44.0500498" lon="7.9036145"><ele>289.0</ele><time>2026-05-02T16:42:16.049Z</time></trkpt><trkpt lat="44.0498642" lon="7.9038428"><ele>280.5</ele><time>2026-05-02T16:42:17.05Z</time></trkpt><trkpt lat="44.0496631" lon="7.9040494"><ele>272.0</ele><time>2026-05-02T16:42:18.049Z</time></trkpt><trkpt lat="44.04942" lon="7.9042323"><ele>269.5</ele><time>2026-05-02T16:42:19.049Z</time></trkpt><trkpt lat="44.0491737" lon="7.90439"><ele>267.0</ele><time>2026-05-02T16:42:20.049Z</time></trkpt><trkpt lat="44.0489163" lon="7.904541"><ele>283.5</ele><time>2026-05-02T16:42:21.049Z</time></trkpt><trkpt lat="44.0486571" lon="7.9046852"><ele>300.0</ele><time>2026-05-02T16:42:22.049Z</time></trkpt><trkpt lat="44.0483947" lon="7.9048349"><ele>318.0</ele><time>2026-05-02T16:42:23.049Z</time></trkpt><trkpt lat="44.048132" lon="7.9049872"><ele>336.0</ele><time>2026-05-02T16:42:24.05Z</time></trkpt><trkpt lat="44.0478685" lon="7.9051407"><ele>336.0</ele><time>2026-05-02T16:42:25.049Z</time></trkpt><trkpt lat="44.0476049" lon="7.9052935"><ele>336.0</ele><time>2026-05-02T16:42:26.049Z</time></trkpt><trkpt lat="44.0494031" lon="7.9022772"><ele>246.0</ele><time>2026-05-02T16:42:36.326Z</time></trkpt><trkpt lat="44.0387991" lon="7.9237228"><ele>246.0</ele><time>2026-05-02T16:43:40.049Z</time></trkpt><trkpt lat="44.0387267" lon="7.9237764"><ele>246.0</ele><time>2026-05-02T16:43:41.049Z</time></trkpt><trkpt lat="44.0386317" lon="7.923833"><ele>246.0</ele><time>2026-05-02T16:43:42.049Z</time></trkpt><trkpt lat="44.0385613" lon="7.9238733"><ele>246.0</ele><time>2026-05-02T16:43:43.049Z</time></trkpt><trkpt lat="44.038499" lon="7.9239338"><ele>246.0</ele><time>2026-05-02T16:43:44.049Z</time></trkpt><trkpt lat="44.0384482" lon="7.9240093"><ele>246.0</ele><time>2026-05-02T16:43:45.049Z</time></trkpt><trkpt lat="44.0384073" lon="7.924094"><ele>246.0</ele><time>2026-05-02T16:43:46.049Z</time></trkpt><trkpt lat="44.0383646" lon="7.9242045"><ele>246.00000000000003</ele><time>2026-05-02T16:43:47.05Z</time></trkpt><trkpt lat="44.0383175" lon="7.9243291"><ele>246.00000000000003</ele><time>2026-05-02T16:43:48.049Z</time></trkpt><trkpt lat="44.0382608" lon="7.9244725"><ele>246.0</ele><time>2026-05-02T16:43:49.049Z</time></trkpt><trkpt lat="44.0381976" lon="7.9246235"><ele>246.0</ele><time>2026-05-02T16:43:50.05Z</time></trkpt><trkpt lat="44.0381239" lon="7.9247756"><ele>248.0</ele><time>2026-05-02T16:43:51.049Z</time></trkpt><trkpt lat="44.0380473" lon="7.9249405"><ele>250.0</ele><time>2026-05-02T16:43:52.049Z</time></trkpt><trkpt lat="44.0379606" lon="7.9251325"><ele>252.0</ele><time>2026-05-02T16:43:53.049Z</time></trkpt><trkpt lat="44.0378737" lon="7.925342"><ele>248.0</ele><time>2026-05-02T16:43:54.05Z</time></trkpt><trkpt lat="44.0377788" lon="7.9255738"><ele>244.0</ele><time>2026-05-02T16:43:55.049Z</time></trkpt><trkpt lat="44.0376766" lon="7.9258231"><ele>240.0</ele><time>2026-05-02T16:43:56.049Z</time></trkpt><trkpt lat="44.037567" lon="7.9260824"><ele>238.0</ele><time>2026-05-02T16:43:57.049Z</time></trkpt><trkpt lat="44.0374619" lon="7.9263353"><ele>236.0</ele><time>2026-05-02T16:43:58.049Z</time></trkpt><trkpt lat="44.0373504" lon="7.9265939"><ele>234.0</ele><time>2026-05-02T16:43:59.05Z</time></trkpt><trkpt lat="44.037231" lon="7.9268657"><ele>230.0</ele><time>2026-05-02T16:44:00.049Z</time></trkpt><trkpt lat="44.037108" lon="7.9271479"><ele>226.0</ele><time>2026-05-02T16:44:01.049Z</time></trkpt><trkpt lat="44.0369823" lon="7.9274426"><ele>226.0</ele><time>2026-05-02T16:44:02.05Z</time></trkpt><trkpt lat="44.0368529" lon="7.9277415"><ele>226.0</ele><time>2026-05-02T16:44:03.049Z</time></trkpt><trkpt lat="44.0367222" lon="7.9280375"><ele>232.0</ele><time>2026-05-02T16:44:04.05Z</time></trkpt><trkpt lat="44.0366011" lon="7.9283151"><ele>238.0</ele><time>2026-05-02T16:44:05.049Z</time></trkpt><trkpt lat="44.0364981" lon="7.9285746"><ele>244.0</ele><time>2026-05-02T16:44:06.049Z</time></trkpt><trkpt lat="44.0364253" lon="7.9288273"><ele>252.66666666666666</ele><time>2026-05-02T16:44:07.049Z</time></trkpt><trkpt lat="44.0363927" lon="7.9290835"><ele>261.3333333333333</ele><time>2026-05-02T16:44:08.05Z</time></trkpt><trkpt lat="44.0363946" lon="7.9293353"><ele>270.0</ele><time>2026-05-02T16:44:09.049Z</time></trkpt><trkpt lat="44.0363983" lon="7.9295923"><ele>275.0</ele><time>2026-05-02T16:44:10.049Z</time></trkpt><trkpt lat="44.0364021" lon="7.9298582"><ele>280.0</ele><time>2026-05-02T16:44:11.05Z</time></trkpt><trkpt lat="44.0364266" lon="7.9301478"><ele>285.0</ele><time>2026-05-02T16:44:12.049Z</time></trkpt><trkpt lat="44.0366494" lon="7.9303007"><ele>285.0</ele><time>2026-05-02T16:44:13.049Z</time></trkpt><trkpt lat="44.0367855" lon="7.9305184"><ele>285.0</ele><time>2026-05-02T16:44:14.05Z</time></trkpt><trkpt lat="44.036907" lon="7.9307358"><ele>285.0</ele><time>2026-05-02T16:44:15.049Z</time></trkpt><trkpt lat="44.037028" lon="7.9309612"><ele>292.3333333333333</ele><time>2026-05-02T16:44:16.049Z</time></trkpt><trkpt lat="44.0371666" lon="7.9311762"><ele>299.66666666666663</ele><time>2026-05-02T16:44:17.05Z</time></trkpt><trkpt lat="44.0372966" lon="7.9313927"><ele>307.0</ele><time>2026-05-02T16:44:18.049Z</time></trkpt><trkpt lat="44.0374025" lon="7.9316309"><ele>297.66666666666663</ele><time>2026-05-02T16:44:19.05Z</time></trkpt><trkpt lat="44.0374938" lon="7.9318835"><ele>288.3333333333333</ele><time>2026-05-02T16:44:20.049Z</time></trkpt><trkpt lat="44.0375647" lon="7.9321414"><ele>279.0</ele><time>2026-05-02T16:44:21.05Z</time></trkpt><trkpt lat="44.037621" lon="7.9323855"><ele>278.6666666666667</ele><time>2026-05-02T16:44:22.049Z</time></trkpt><trkpt lat="44.0376498" lon="7.9326151"><ele>278.33333333333337</ele><time>2026-05-02T16:44:23.049Z</time></trkpt><trkpt lat="44.0376415" lon="7.9328462"><ele>278.0</ele><time>2026-05-02T16:44:24.05Z</time></trkpt><trkpt lat="44.0375975" lon="7.9330802"><ele>278.0</ele><time>2026-05-02T16:44:25.049Z</time></trkpt><trkpt lat="44.0375306" lon="7.9333176"><ele>278.0</ele><time>2026-05-02T16:44:26.049Z</time></trkpt><trkpt lat="44.0374618" lon="7.9335605"><ele>278.0</ele><time>2026-05-02T16:44:27.05Z</time></trkpt><trkpt lat="44.0373898" lon="7.933814"><ele>284.0</ele><time>2026-05-02T16:44:28.049Z</time></trkpt><trkpt lat="44.03731" lon="7.9340664"><ele>290.0</ele><time>2026-05-02T16:44:29.049Z</time></trkpt><trkpt lat="44.0372092" lon="7.9343103"><ele>296.0</ele><time>2026-05-02T16:44:30.049Z</time></trkpt><trkpt lat="44.0370875" lon="7.9345524"><ele>296.0</ele><time>2026-05-02T16:44:31.049Z</time></trkpt><trkpt lat="44.0369624" lon="7.9347986"><ele>296.0</ele><time>2026-05-02T16:44:32.05Z</time></trkpt><trkpt lat="44.0368391" lon="7.9350556"><ele>296.0</ele><time>2026-05-02T16:44:33.049Z</time></trkpt><trkpt lat="44.0367209" lon="7.9353223"><ele>302.5</ele><time>2026-05-02T16:44:34.049Z</time></trkpt><trkpt lat="44.0366084" lon="7.9356051"><ele>309.0</ele><time>2026-05-02T16:44:35.049Z</time></trkpt><trkpt lat="44.0365084" lon="7.9359067"><ele>309.0</ele><time>2026-05-02T16:44:36.05Z</time></trkpt><trkpt lat="44.0364189" lon="7.9362247"><ele>309.0</ele><time>2026-05-02T16:44:37.049Z</time></trkpt><trkpt lat="44.0363324" lon="7.9365482"><ele>308.5</ele><time>2026-05-02T16:44:38.049Z</time></trkpt><trkpt lat="44.0362471" lon="7.9368718"><ele>308.0</ele><time>2026-05-02T16:44:39.05Z</time></trkpt><trkpt lat="44.0361585" lon="7.9371889"><ele>308.0</ele><time>2026-05-02T16:44:40.049Z</time></trkpt><trkpt lat="44.0360774" lon="7.9374965"><ele>308.0</ele><time>2026-05-02T16:44:41.049Z</time></trkpt><trkpt lat="44.0359908" lon="7.9378085"><ele>303.0</ele><time>2026-05-02T16:44:42.049Z</time></trkpt><trkpt lat="44.0358958" lon="7.9381149"><ele>298.0</ele><time>2026-05-02T16:44:43.05Z</time></trkpt><trkpt lat="44.0357823" lon="7.9384049"><ele>315.5</ele><time>2026-05-02T16:44:44.05Z</time></trkpt><trkpt lat="44.0356439" lon="7.9386708"><ele>333.0</ele><time>2026-05-02T16:44:45.049Z</time></trkpt><trkpt lat="44.0354772" lon="7.9389108"><ele>333.0</ele><time>2026-05-02T16:44:46.05Z</time></trkpt><trkpt lat="44.0352813" lon="7.9391181"><ele>333.0</ele><time>2026-05-02T16:44:47.049Z</time></trkpt><trkpt lat="44.0350835" lon="7.9393065"><ele>334.5</ele><time>2026-05-02T16:44:48.049Z</time></trkpt><trkpt lat="44.0348933" lon="7.9394846"><ele>336.0</ele><time>2026-05-02T16:44:49.049Z</time></trkpt><trkpt lat="44.0347046" lon="7.9396593"><ele>321.0</ele><time>2026-05-02T16:44:50.049Z</time></trkpt><trkpt lat="44.0321488" lon="7.9395789"><ele>321.0</ele><time>2026-05-02T16:45:01.05Z</time></trkpt><trkpt lat="44.0319466" lon="7.9395646"><ele>321.0</ele><time>2026-05-02T16:45:02.049Z</time></trkpt><trkpt lat="44.0317577" lon="7.9395525"><ele>321.0</ele><time>2026-05-02T16:45:03.049Z</time></trkpt><trkpt lat="44.0315565" lon="7.9395592"><ele>323.0</ele><time>2026-05-02T16:45:04.049Z</time></trkpt><trkpt lat="44.0313562" lon="7.9395579"><ele>325.0</ele><time>2026-05-02T16:45:05.049Z</time></trkpt><trkpt lat="44.0311529" lon="7.9395582"><ele>327.0</ele><time>2026-05-02T16:45:06.049Z</time></trkpt><trkpt lat="44.0309876" lon="7.9395517"><ele>327.0</ele><time>2026-05-02T16:45:07.049Z</time></trkpt><trkpt lat="44.0308515" lon="7.9395525"><ele>327.0</ele><time>2026-05-02T16:45:08.049Z</time></trkpt><trkpt lat="44.0307448" lon="7.939525"><ele>327.0</ele><time>2026-05-02T16:45:09.049Z</time></trkpt><trkpt lat="44.0306717" lon="7.9395011"><ele>327.0</ele><time>2026-05-02T16:45:10.049Z</time></trkpt><trkpt lat="44.0305849" lon="7.9394973"><ele>327.0</ele><time>2026-05-02T16:46:01.049Z</time></trkpt><trkpt lat="44.030505" lon="7.9395131"><ele>326.0</ele><time>2026-05-02T16:46:02.049Z</time></trkpt><trkpt lat="44.0304357" lon="7.939529"><ele>325.0</ele><time>2026-05-02T16:46:03.05Z</time></trkpt><trkpt lat="44.0303327" lon="7.9395465"><ele>324.0</ele><time>2026-05-02T16:46:04.049Z</time></trkpt><trkpt lat="44.0302025" lon="7.9395653"><ele>323.0</ele><time>2026-05-02T16:46:05.049Z</time></trkpt><trkpt lat="44.0300695" lon="7.9395765"><ele>322.0</ele><time>2026-05-02T16:46:06.049Z</time></trkpt><trkpt lat="44.0299103" lon="7.9395899"><ele>322.0</ele><time>2026-05-02T16:46:07.049Z</time></trkpt><trkpt lat="44.0297534" lon="7.9396073"><ele>322.0</ele><time>2026-05-02T16:46:08.049Z</time></trkpt><trkpt lat="44.0295905" lon="7.9396286"><ele>322.0</ele><time>2026-05-02T16:46:09.049Z</time></trkpt><trkpt lat="44.0294143" lon="7.9396579"><ele>322.0</ele><time>2026-05-02T16:46:10.049Z</time></trkpt><trkpt lat="44.0292245" lon="7.939689"><ele>322.0</ele><time>2026-05-02T16:46:11.049Z</time></trkpt><trkpt lat="44.0290254" lon="7.9397349"><ele>322.0</ele><time>2026-05-02T16:46:12.049Z</time></trkpt><trkpt lat="44.028835" lon="7.9397852"><ele>329.66666666666663</ele><time>2026-05-02T16:46:13.049Z</time></trkpt><trkpt lat="44.0286413" lon="7.939843"><ele>337.3333333333333</ele><time>2026-05-02T16:46:14.05Z</time></trkpt><trkpt lat="44.0284492" lon="7.9399076"><ele>345.0</ele><time>2026-05-02T16:46:15.049Z</time></trkpt><trkpt lat="44.0282608" lon="7.939977"><ele>335.0</ele><time>2026-05-02T16:46:16.049Z</time></trkpt><trkpt lat="44.0280798" lon="7.9400503"><ele>325.0</ele><time>2026-05-02T16:46:17.049Z</time></trkpt><trkpt lat="44.0278945" lon="7.9401388"><ele>315.0</ele><time>2026-05-02T16:46:18.049Z</time></trkpt><trkpt lat="44.0277046" lon="7.9402361"><ele>315.0</ele><time>2026-05-02T16:46:19.049Z</time></trkpt><trkpt lat="44.0275167" lon="7.9403442"><ele>315.0</ele><time>2026-05-02T16:46:20.05Z</time></trkpt><trkpt lat="44.0273292" lon="7.9404666"><ele>315.0</ele><time>2026-05-02T16:46:21.049Z</time></trkpt><trkpt lat="44.0271423" lon="7.9405918"><ele>315.6666666666667</ele><time>2026-05-02T16:46:22.049Z</time></trkpt><trkpt lat="44.0269532" lon="7.9407348"><ele>316.33333333333337</ele><time>2026-05-02T16:46:23.049Z</time></trkpt><trkpt lat="44.0267599" lon="7.9408983"><ele>317.0</ele><time>2026-05-02T16:46:24.049Z</time></trkpt><trkpt lat="44.0265647" lon="7.9410704"><ele>315.33333333333337</ele><time>2026-05-02T16:46:25.05Z</time></trkpt><trkpt lat="44.0263757" lon="7.9412402"><ele>313.6666666666667</ele><time>2026-05-02T16:46:26.049Z</time></trkpt><trkpt lat="44.0261932" lon="7.9414111"><ele>312.0</ele><time>2026-05-02T16:46:27.049Z</time></trkpt><trkpt lat="44.0260267" lon="7.9415817"><ele>305.6666666666667</ele><time>2026-05-02T16:46:28.05Z</time></trkpt><trkpt lat="44.0258688" lon="7.9417537"><ele>299.33333333333337</ele><time>2026-05-02T16:46:29.049Z</time></trkpt><trkpt lat="44.0257226" lon="7.9419191"><ele>293.0</ele><time>2026-05-02T16:46:30.049Z</time></trkpt><trkpt lat="44.0255859" lon="7.9420847"><ele>293.0</ele><time>2026-05-02T16:46:31.049Z</time></trkpt><trkpt lat="44.0254558" lon="7.9422576"><ele>293.0</ele><time>2026-05-02T16:46:32.049Z</time></trkpt><trkpt lat="44.0253401" lon="7.9424287"><ele>293.0</ele><time>2026-05-02T16:46:33.049Z</time></trkpt><trkpt lat="44.0252285" lon="7.9425911"><ele>292.6666666666667</ele><time>2026-05-02T16:46:34.049Z</time></trkpt><trkpt lat="44.0251258" lon="7.9427471"><ele>292.3333333333333</ele><time>2026-05-02T16:46:35.049Z</time></trkpt><trkpt lat="44.0250273" lon="7.9429009"><ele>292.0</ele><time>2026-05-02T16:46:36.049Z</time></trkpt><trkpt lat="44.024925" lon="7.9430601"><ele>292.0</ele><time>2026-05-02T16:46:37.049Z</time></trkpt><trkpt lat="44.0248264" lon="7.9432245"><ele>292.0</ele><time>2026-05-02T16:46:38.049Z</time></trkpt><trkpt lat="44.0247308" lon="7.9433916"><ele>292.0</ele><time>2026-05-02T16:46:39.05Z</time></trkpt><trkpt lat="44.0246355" lon="7.9435641"><ele>292.0</ele><time>2026-05-02T16:46:40.049Z</time></trkpt><trkpt lat="44.0245421" lon="7.9437363"><ele>292.0</ele><time>2026-05-02T16:46:41.049Z</time></trkpt><trkpt lat="44.024453" lon="7.9439128"><ele>292.0</ele><time>2026-05-02T16:46:42.049Z</time></trkpt><trkpt lat="44.0243655" lon="7.9440958"><ele>296.66666666666663</ele><time>2026-05-02T16:46:43.05Z</time></trkpt><trkpt lat="44.0242818" lon="7.9442782"><ele>301.3333333333333</ele><time>2026-05-02T16:46:44.049Z</time></trkpt><trkpt lat="44.0241981" lon="7.944462"><ele>306.0</ele><time>2026-05-02T16:46:45.049Z</time></trkpt><trkpt lat="44.0241094" lon="7.9446527"><ele>307.0</ele><time>2026-05-02T16:46:46.05Z</time></trkpt><trkpt lat="44.0240253" lon="7.9448439"><ele>308.0</ele><time>2026-05-02T16:46:47.049Z</time></trkpt><trkpt lat="44.0239406" lon="7.9450344"><ele>309.0</ele><time>2026-05-02T16:46:48.049Z</time></trkpt><trkpt lat="44.023855" lon="7.9452256"><ele>309.0</ele><time>2026-05-02T16:46:49.049Z</time></trkpt><trkpt lat="44.0237731" lon="7.9454151"><ele>309.0</ele><time>2026-05-02T16:46:50.049Z</time></trkpt><trkpt lat="44.0236891" lon="7.9456081"><ele>309.0</ele><time>2026-05-02T16:46:51.05Z</time></trkpt><trkpt lat="44.0235997" lon="7.9458073"><ele>309.3333333333333</ele><time>2026-05-02T16:46:52.049Z</time></trkpt><trkpt lat="44.0235136" lon="7.9460049"><ele>309.66666666666663</ele><time>2026-05-02T16:46:53.049Z</time></trkpt><trkpt lat="44.0234278" lon="7.9462023"><ele>310.0</ele><time>2026-05-02T16:46:54.049Z</time></trkpt><trkpt lat="44.0233422" lon="7.9463985"><ele>314.66666666666663</ele><time>2026-05-02T16:46:55.049Z</time></trkpt><trkpt lat="44.0232581" lon="7.9465938"><ele>319.3333333333333</ele><time>2026-05-02T16:46:56.049Z</time></trkpt><trkpt lat="44.0231762" lon="7.9467892"><ele>324.0</ele><time>2026-05-02T16:46:57.049Z</time></trkpt><trkpt lat="44.0230928" lon="7.9469858"><ele>324.0</ele><time>2026-05-02T16:46:58.049Z</time></trkpt><trkpt lat="44.0230072" lon="7.947181"><ele>324.0</ele><time>2026-05-02T16:46:59.05Z</time></trkpt><trkpt lat="44.0229222" lon="7.9473713"><ele>324.0</ele><time>2026-05-02T16:47:00.049Z</time></trkpt><trkpt lat="44.022839" lon="7.9475597"><ele>321.6666666666667</ele><time>2026-05-02T16:47:01.049Z</time></trkpt><trkpt lat="44.0227572" lon="7.9477467"><ele>319.33333333333337</ele><time>2026-05-02T16:47:02.049Z</time></trkpt><trkpt lat="44.0226706" lon="7.9479328"><ele>317.0</ele><time>2026-05-02T16:47:03.049Z</time></trkpt><trkpt lat="44.0225838" lon="7.9481179"><ele>317.0</ele><time>2026-05-02T16:47:04.049Z</time></trkpt><trkpt lat="44.0224985" lon="7.9483004"><ele>317.0</ele><time>2026-05-02T16:47:05.049Z</time></trkpt><trkpt lat="44.0224164" lon="7.9484818"><ele>317.0</ele><time>2026-05-02T16:47:06.05Z</time></trkpt><trkpt lat="44.0223354" lon="7.9486711"><ele>321.0</ele><time>2026-05-02T16:47:07.05Z</time></trkpt><trkpt lat="44.022252" lon="7.9488595"><ele>325.0</ele><time>2026-05-02T16:47:08.049Z</time></trkpt><trkpt lat="44.0221735" lon="7.9490468"><ele>329.0</ele><time>2026-05-02T16:47:09.049Z</time></trkpt><trkpt lat="44.0220949" lon="7.9492371"><ele>329.6666666666667</ele><time>2026-05-02T16:47:10.049Z</time></trkpt><trkpt lat="44.0220121" lon="7.9494385"><ele>330.3333333333333</ele><time>2026-05-02T16:47:11.05Z</time></trkpt><trkpt lat="44.0219175" lon="7.9496516"><ele>331.0</ele><time>2026-05-02T16:47:12.049Z</time></trkpt><trkpt lat="44.0218139" lon="7.9498732"><ele>334.0</ele><time>2026-05-02T16:47:13.049Z</time></trkpt><trkpt lat="44.0217027" lon="7.9501064"><ele>337.0</ele><time>2026-05-02T16:47:14.05Z</time></trkpt><trkpt lat="44.0215906" lon="7.9503527"><ele>340.0</ele><time>2026-05-02T16:47:15.049Z</time></trkpt><trkpt lat="44.0214766" lon="7.9506096"><ele>350.0</ele><time>2026-05-02T16:47:16.049Z</time></trkpt><trkpt lat="44.0213611" lon="7.950877"><ele>360.0</ele><time>2026-05-02T16:47:17.049Z</time></trkpt><trkpt lat="44.0212438" lon="7.951155"><ele>360.0</ele><time>2026-05-02T16:47:18.05Z</time></trkpt><trkpt lat="44.0211242" lon="7.951435"><ele>360.0</ele><time>2026-05-02T16:47:19.05Z</time></trkpt><trkpt lat="44.021003" lon="7.9517115"><ele>365.0</ele><time>2026-05-02T16:47:20.049Z</time></trkpt><trkpt lat="44.0208839" lon="7.9519836"><ele>370.0</ele><time>2026-05-02T16:47:21.051Z</time></trkpt><trkpt lat="44.0207639" lon="7.9522585"><ele>352.0</ele><time>2026-05-02T16:47:22.05Z</time></trkpt><trkpt lat="44.0086075" lon="7.9685351"><ele>352.0</ele><time>2026-05-02T16:48:35.049Z</time></trkpt><trkpt lat="44.008369" lon="7.9686774"><ele>352.0</ele><time>2026-05-02T16:48:36.049Z</time></trkpt><trkpt lat="44.0081586" lon="7.9688515"><ele>348.0</ele><time>2026-05-02T16:48:37.049Z</time></trkpt><trkpt lat="44.0079455" lon="7.9689992"><ele>344.0</ele><time>2026-05-02T16:48:38.049Z</time></trkpt><trkpt lat="44.0077414" lon="7.9691594"><ele>353.0</ele><time>2026-05-02T16:48:39.049Z</time></trkpt><trkpt lat="44.0075384" lon="7.969313"><ele>362.0</ele><time>2026-05-02T16:48:40.049Z</time></trkpt><trkpt lat="44.007335" lon="7.9694655"><ele>280.0</ele><time>2026-05-02T16:48:41.049Z</time></trkpt><trkpt lat="44.0024325" lon="7.9730624"><ele>280.0</ele><time>2026-05-02T16:49:04.049Z</time></trkpt><trkpt lat="44.0022504" lon="7.973203"><ele>280.0</ele><time>2026-05-02T16:49:05.049Z</time></trkpt><trkpt lat="44.0020567" lon="7.9733628"><ele>280.0</ele><time>2026-05-02T16:49:06.05Z</time></trkpt><trkpt lat="44.0018526" lon="7.9735225"><ele>299.0</ele><time>2026-05-02T16:49:07.049Z</time></trkpt><trkpt lat="44.0016413" lon="7.9736777"><ele>318.0</ele><time>2026-05-02T16:49:08.049Z</time></trkpt><trkpt lat="44.0014362" lon="7.9738328"><ele>318.0</ele><time>2026-05-02T16:49:09.05Z</time></trkpt><trkpt lat="44.0012282" lon="7.9739901"><ele>318.0</ele><time>2026-05-02T16:49:10.05Z</time></trkpt><trkpt lat="44.0010174" lon="7.9741467"><ele>334.5</ele><time>2026-05-02T16:49:11.049Z</time></trkpt><trkpt lat="44.0008083" lon="7.9743014"><ele>351.0</ele><time>2026-05-02T16:49:12.05Z</time></trkpt><trkpt lat="44.0006013" lon="7.9744544"><ele>351.0</ele><time>2026-05-02T16:49:13.049Z</time></trkpt><trkpt lat="44.0003931" lon="7.9746058"><ele>351.0</ele><time>2026-05-02T16:49:14.05Z</time></trkpt><trkpt lat="44.0001852" lon="7.9747573"><ele>311.0</ele><time>2026-05-02T16:49:15.049Z</time></trkpt><trkpt lat="43.9952794" lon="7.9747057"><ele>311.0</ele><time>2026-05-02T16:49:40.049Z</time></trkpt><trkpt lat="43.9950869" lon="7.9745277"><ele>311.0</ele><time>2026-05-02T16:49:41.05Z</time></trkpt><trkpt lat="43.9948864" lon="7.9743049"><ele>312.0</ele><time>2026-05-02T16:49:42.049Z</time></trkpt><trkpt lat="43.9946811" lon="7.9740993"><ele>313.0</ele><time>2026-05-02T16:49:43.049Z</time></trkpt><trkpt lat="43.9944702" lon="7.9739058"><ele>313.0</ele><time>2026-05-02T16:49:44.049Z</time></trkpt><trkpt lat="43.9942534" lon="7.9737137"><ele>313.0</ele><time>2026-05-02T16:49:45.049Z</time></trkpt><trkpt lat="43.994041" lon="7.9735241"><ele>310.5</ele><time>2026-05-02T16:49:46.049Z</time></trkpt><trkpt lat="43.9938375" lon="7.9733337"><ele>308.0</ele><time>2026-05-02T16:49:47.049Z</time></trkpt><trkpt lat="43.9936328" lon="7.973149"><ele>308.0</ele><time>2026-05-02T16:49:48.049Z</time></trkpt><trkpt lat="43.9934259" lon="7.972966"><ele>308.0</ele><time>2026-05-02T16:49:49.049Z</time></trkpt><trkpt lat="43.9932262" lon="7.9727795"><ele>312.5</ele><time>2026-05-02T16:49:50.05Z</time></trkpt><trkpt lat="43.9930299" lon="7.972596"><ele>317.0</ele><time>2026-05-02T16:49:51.049Z</time></trkpt><trkpt lat="43.992838" lon="7.9724015"><ele>311.0</ele><time>2026-05-02T16:49:52.05Z</time></trkpt><trkpt lat="43.9926553" lon="7.9721939"><ele>305.0</ele><time>2026-05-02T16:49:53.049Z</time></trkpt><trkpt lat="43.9924888" lon="7.9719663"><ele>305.0</ele><time>2026-05-02T16:49:54.049Z</time></trkpt><trkpt lat="43.9923406" lon="7.9717186"><ele>305.0</ele><time>2026-05-02T16:49:55.05Z</time></trkpt><trkpt lat="43.9921945" lon="7.9714732"><ele>299.5</ele><time>2026-05-02T16:49:56.05Z</time></trkpt><trkpt lat="43.9920303" lon="7.9712554"><ele>294.0</ele><time>2026-05-02T16:49:57.049Z</time></trkpt><trkpt lat="43.991849" lon="7.9710745"><ele>296.0</ele><time>2026-05-02T16:49:58.049Z</time></trkpt><trkpt lat="43.9916482" lon="7.9709299"><ele>298.0</ele><time>2026-05-02T16:49:59.049Z</time></trkpt><trkpt lat="43.9914356" lon="7.9708261"><ele>291.5</ele><time>2026-05-02T16:50:00.049Z</time></trkpt><trkpt lat="43.9912154" lon="7.9707582"><ele>285.0</ele><time>2026-05-02T16:50:01.049Z</time></trkpt><trkpt lat="43.9909868" lon="7.9707266"><ele>287.5</ele><time>2026-05-02T16:50:02.05Z</time></trkpt><trkpt lat="43.9907578" lon="7.9707293"><ele>290.0</ele><time>2026-05-02T16:50:03.051Z</time></trkpt><trkpt lat="43.9905299" lon="7.9707655"><ele>290.0</ele><time>2026-05-02T16:50:04.049Z</time></trkpt><trkpt lat="43.9903138" lon="7.9708242"><ele>290.0</ele><time>2026-05-02T16:50:05.05Z</time></trkpt><trkpt lat="43.9901077" lon="7.9708901"><ele>290.0</ele><time>2026-05-02T16:50:06.049Z</time></trkpt><trkpt lat="43.9899025" lon="7.9709445"><ele>292.33333333333337</ele><time>2026-05-02T16:50:07.05Z</time></trkpt><trkpt lat="43.9897005" lon="7.9709925"><ele>294.6666666666667</ele><time>2026-05-02T16:50:08.05Z</time></trkpt><trkpt lat="43.9894968" lon="7.971024"><ele>297.0</ele><time>2026-05-02T16:50:09.049Z</time></trkpt><trkpt lat="43.9892909" lon="7.9710279"><ele>296.6666666666667</ele><time>2026-05-02T16:50:10.049Z</time></trkpt><trkpt lat="43.9890889" lon="7.9709988"><ele>296.33333333333337</ele><time>2026-05-02T16:50:11.05Z</time></trkpt><trkpt lat="43.9888966" lon="7.9709501"><ele>296.0</ele><time>2026-05-02T16:50:12.049Z</time></trkpt><trkpt lat="43.9887012" lon="7.9708729"><ele>290.33333333333337</ele><time>2026-05-02T16:50:13.05Z</time></trkpt><trkpt lat="43.9885008" lon="7.9707599"><ele>284.6666666666667</ele><time>2026-05-02T16:50:14.049Z</time></trkpt><trkpt lat="43.9882952" lon="7.9706258"><ele>279.0</ele><time>2026-05-02T16:50:15.049Z</time></trkpt><trkpt lat="43.9880878" lon="7.9704843"><ele>279.0</ele><time>2026-05-02T16:50:16.049Z</time></trkpt><trkpt lat="43.9878825" lon="7.9703437"><ele>279.0</ele><time>2026-05-02T16:50:17.049Z</time></trkpt><trkpt lat="43.9876828" lon="7.9702142"><ele>279.0</ele><time>2026-05-02T16:50:18.05Z</time></trkpt><trkpt lat="43.9874804" lon="7.9701166"><ele>281.0</ele><time>2026-05-02T16:50:19.049Z</time></trkpt><trkpt lat="43.9872715" lon="7.9700579"><ele>283.0</ele><time>2026-05-02T16:50:20.049Z</time></trkpt><trkpt lat="43.987062" lon="7.9700109"><ele>285.0</ele><time>2026-05-02T16:50:21.049Z</time></trkpt><trkpt lat="43.9868344" lon="7.9700413"><ele>286.5</ele><time>2026-05-02T16:50:22.05Z</time></trkpt><trkpt lat="43.9866044" lon="7.9700846"><ele>288.0</ele><time>2026-05-02T16:50:23.05Z</time></trkpt><trkpt lat="43.9863717" lon="7.9701342"><ele>288.0</ele><time>2026-05-02T16:50:24.05Z</time></trkpt><trkpt lat="43.9861324" lon="7.9701755"><ele>288.0</ele><time>2026-05-02T16:50:25.05Z</time></trkpt><trkpt lat="43.9858918" lon="7.9702139"><ele>284.0</ele><time>2026-05-02T16:50:26.049Z</time></trkpt><trkpt lat="43.9856555" lon="7.9702428"><ele>280.0</ele><time>2026-05-02T16:50:27.049Z</time></trkpt><trkpt lat="43.9854282" lon="7.9702699"><ele>280.0</ele><time>2026-05-02T16:50:28.049Z</time></trkpt><trkpt lat="43.9852097" lon="7.9703151"><ele>280.0</ele><time>2026-05-02T16:50:29.05Z</time></trkpt><trkpt lat="43.9850007" lon="7.9703908"><ele>280.0</ele><time>2026-05-02T16:50:30.049Z</time></trkpt><trkpt lat="43.9848003" lon="7.9705059"><ele>276.0</ele><time>2026-05-02T16:50:31.049Z</time></trkpt><trkpt lat="43.9846108" lon="7.9706556"><ele>272.0</ele><time>2026-05-02T16:50:32.049Z</time></trkpt><trkpt lat="43.9844385" lon="7.9708334"><ele>268.0</ele><time>2026-05-02T16:50:33.049Z</time></trkpt><trkpt lat="43.9842815" lon="7.9710473"><ele>257.5</ele><time>2026-05-02T16:50:34.05Z</time></trkpt><trkpt lat="43.9841394" lon="7.9712995"><ele>247.0</ele><time>2026-05-02T16:50:35.05Z</time></trkpt><trkpt lat="43.9839941" lon="7.9715638"><ele>249.5</ele><time>2026-05-02T16:50:36.049Z</time></trkpt><trkpt lat="43.9838459" lon="7.9718139"><ele>252.0</ele><time>2026-05-02T16:50:37.05Z</time></trkpt><trkpt lat="43.9836976" lon="7.97205"><ele>252.0</ele><time>2026-05-02T16:50:38.049Z</time></trkpt><trkpt lat="43.9835396" lon="7.97226"><ele>252.0</ele><time>2026-05-02T16:50:39.05Z</time></trkpt><trkpt lat="43.9833749" lon="7.9724508"><ele>252.0</ele><time>2026-05-02T16:50:40.049Z</time></trkpt><trkpt lat="43.9831962" lon="7.972608"><ele>249.0</ele><time>2026-05-02T16:50:41.05Z</time></trkpt><trkpt lat="43.9830017" lon="7.9727349"><ele>246.0</ele><time>2026-05-02T16:50:42.049Z</time></trkpt><trkpt lat="43.9827904" lon="7.972815"><ele>243.0</ele><time>2026-05-02T16:50:43.049Z</time></trkpt><trkpt lat="43.9825653" lon="7.9728568"><ele>240.5</ele><time>2026-05-02T16:50:44.049Z</time></trkpt><trkpt lat="43.9823328" lon="7.972864"><ele>238.0</ele><time>2026-05-02T16:50:45.049Z</time></trkpt><trkpt lat="43.9820976" lon="7.9728324"><ele>238.0</ele><time>2026-05-02T16:50:46.049Z</time></trkpt><trkpt lat="43.9818634" lon="7.9727582"><ele>238.0</ele><time>2026-05-02T16:50:47.049Z</time></trkpt><trkpt lat="43.9816309" lon="7.9726476"><ele>230.0</ele><time>2026-05-02T16:50:48.049Z</time></trkpt><trkpt lat="43.9814003" lon="7.9725105"><ele>222.0</ele><time>2026-05-02T16:50:49.049Z</time></trkpt><trkpt lat="43.9811689" lon="7.9723642"><ele>222.0</ele><time>2026-05-02T16:50:50.05Z</time></trkpt><trkpt lat="43.9809282" lon="7.9722163"><ele>222.0</ele><time>2026-05-02T16:50:51.049Z</time></trkpt><trkpt lat="43.9806763" lon="7.9720672"><ele>224.5</ele><time>2026-05-02T16:50:52.049Z</time></trkpt><trkpt lat="43.9804211" lon="7.971912"><ele>227.0</ele><time>2026-05-02T16:50:53.05Z</time></trkpt><trkpt lat="43.9801632" lon="7.9717526"><ele>216.5</ele><time>2026-05-02T16:50:54.049Z</time></trkpt><trkpt lat="43.9799144" lon="7.9716052"><ele>206.0</ele><time>2026-05-02T16:50:55.049Z</time></trkpt><trkpt lat="43.9796835" lon="7.9714651"><ele>206.0</ele><time>2026-05-02T16:50:56.049Z</time></trkpt><trkpt lat="43.9794535" lon="7.9713268"><ele>206.0</ele><time>2026-05-02T16:50:57.05Z</time></trkpt><trkpt lat="43.9792262" lon="7.9711889"><ele>217.0</ele><time>2026-05-02T16:50:58.049Z</time></trkpt><trkpt lat="43.9789992" lon="7.9710574"><ele>228.0</ele><time>2026-05-02T16:50:59.049Z</time></trkpt><trkpt lat="43.9787758" lon="7.9709365"><ele>206.0</ele><time>2026-05-02T16:51:00.05Z</time></trkpt><trkpt lat="43.9785554" lon="7.9708221"><ele>184.0</ele><time>2026-05-02T16:51:01.049Z</time></trkpt><trkpt lat="43.9783411" lon="7.9707265"><ele>184.0</ele><time>2026-05-02T16:51:02.049Z</time></trkpt><trkpt lat="43.9781233" lon="7.9706547"><ele>184.0</ele><time>2026-05-02T16:51:03.05Z</time></trkpt><trkpt lat="43.977909" lon="7.9705937"><ele>184.0</ele><time>2026-05-02T16:51:04.049Z</time></trkpt><trkpt lat="43.9776946" lon="7.970545"><ele>175.0</ele><time>2026-05-02T16:51:05.05Z</time></trkpt><trkpt lat="43.9774793" lon="7.9705095"><ele>166.0</ele><time>2026-05-02T16:51:06.049Z</time></trkpt><trkpt lat="43.9772093" lon="7.9705728"><ele>166.0</ele><time>2026-05-02T16:51:07.049Z</time></trkpt><trkpt lat="43.9769425" lon="7.9706232"><ele>166.0</ele><time>2026-05-02T16:51:08.049Z</time></trkpt><trkpt lat="43.976676" lon="7.9706671"><ele>166.0</ele><time>2026-05-02T16:51:09.049Z</time></trkpt><trkpt lat="43.9764045" lon="7.9709418"><ele>166.0</ele><time>2026-05-02T16:51:10.05Z</time></trkpt><trkpt lat="43.9761331" lon="7.9713798"><ele>185.0</ele><time>2026-05-02T16:51:11.05Z</time></trkpt><trkpt lat="43.975906" lon="7.9717246"><ele>204.0</ele><time>2026-05-02T16:51:12.049Z</time></trkpt><trkpt lat="43.9759026" lon="7.9724199"><ele>194.0</ele><time>2026-05-02T16:51:13.05Z</time></trkpt><trkpt lat="43.9758264" lon="7.9728624"><ele>184.0</ele><time>2026-05-02T16:51:14.049Z</time></trkpt><trkpt lat="43.9757208" lon="7.9731954"><ele>188.5</ele><time>2026-05-02T16:51:15.049Z</time></trkpt><trkpt lat="43.9756126" lon="7.9734895"><ele>193.0</ele><time>2026-05-02T16:51:16.049Z</time></trkpt><trkpt lat="43.9755056" lon="7.9737629"><ele>193.0</ele><time>2026-05-02T16:51:17.05Z</time></trkpt><trkpt lat="43.9754204" lon="7.9740378"><ele>193.0</ele><time>2026-05-02T16:51:18.049Z</time></trkpt><trkpt lat="43.9753638" lon="7.9743257"><ele>193.0</ele><time>2026-05-02T16:51:19.049Z</time></trkpt><trkpt lat="43.9753271" lon="7.9746169"><ele>200.33333333333331</ele><time>2026-05-02T16:51:20.049Z</time></trkpt><trkpt lat="43.9753063" lon="7.9749139"><ele>207.66666666666669</ele><time>2026-05-02T16:51:21.049Z</time></trkpt><trkpt lat="43.9753023" lon="7.9752145"><ele>215.0</ele><time>2026-05-02T16:51:22.049Z</time></trkpt><trkpt lat="43.9753039" lon="7.9755193"><ele>211.66666666666669</ele><time>2026-05-02T16:51:23.05Z</time></trkpt><trkpt lat="43.975297" lon="7.9758217"><ele>208.33333333333331</ele><time>2026-05-02T16:51:24.049Z</time></trkpt><trkpt lat="43.9752889" lon="7.9761228"><ele>205.0</ele><time>2026-05-02T16:51:25.05Z</time></trkpt><trkpt lat="43.9739385" lon="7.9817101"><ele>205.0</ele><time>2026-05-02T16:51:43.051Z</time></trkpt><trkpt lat="43.9737686" lon="7.9819501"><ele>205.0</ele><time>2026-05-02T16:51:44.051Z</time></trkpt><trkpt lat="43.9735988" lon="7.9821909"><ele>153.0</ele><time>2026-05-02T16:51:45.051Z</time></trkpt><trkpt lat="43.9623325" lon="7.9908594"><ele>153.0</ele><time>2026-05-02T16:52:37.05Z</time></trkpt><trkpt lat="43.9621006" lon="7.9908806"><ele>153.0</ele><time>2026-05-02T16:52:38.05Z</time></trkpt><trkpt lat="43.9618535" lon="7.9909089"><ele>148.5</ele><time>2026-05-02T16:52:39.051Z</time></trkpt><trkpt lat="43.961628" lon="7.9909282"><ele>144.0</ele><time>2026-05-02T16:52:40.051Z</time></trkpt><trkpt lat="43.9614081" lon="7.9909951"><ele>144.0</ele><time>2026-05-02T16:52:41.05Z</time></trkpt><trkpt lat="43.9612026" lon="7.991052"><ele>144.0</ele><time>2026-05-02T16:52:42.05Z</time></trkpt><trkpt lat="43.9610115" lon="7.9911457"><ele>144.0</ele><time>2026-05-02T16:52:43.051Z</time></trkpt><trkpt lat="43.9608178" lon="7.9912546"><ele>143.33333333333334</ele><time>2026-05-02T16:52:44.05Z</time></trkpt><trkpt lat="43.9606228" lon="7.9913783"><ele>142.66666666666669</ele><time>2026-05-02T16:52:45.05Z</time></trkpt><trkpt lat="43.9604327" lon="7.9915266"><ele>142.0</ele><time>2026-05-02T16:52:46.05Z</time></trkpt><trkpt lat="43.9602487" lon="7.9917025"><ele>142.0</ele><time>2026-05-02T16:52:47.05Z</time></trkpt><trkpt lat="43.9600712" lon="7.9918911"><ele>142.0</ele><time>2026-05-02T16:52:48.05Z</time></trkpt><trkpt lat="43.959887" lon="7.9920911"><ele>131.0</ele><time>2026-05-02T16:52:49.05Z</time></trkpt><trkpt lat="43.9596956" lon="7.9922966"><ele>120.0</ele><time>2026-05-02T16:52:50.05Z</time></trkpt><trkpt lat="43.9595118" lon="7.9925018"><ele>122.5</ele><time>2026-05-02T16:52:51.05Z</time></trkpt><trkpt lat="43.9593236" lon="7.9927085"><ele>125.0</ele><time>2026-05-02T16:52:52.05Z</time></trkpt><trkpt lat="43.9591248" lon="7.9929137"><ele>125.0</ele><time>2026-05-02T16:52:53.051Z</time></trkpt><trkpt lat="43.9589266" lon="7.9931226"><ele>125.0</ele><time>2026-05-02T16:52:54.05Z</time></trkpt><trkpt lat="43.9587253" lon="7.9933268"><ele>133.0</ele><time>2026-05-02T16:52:55.05Z</time></trkpt><trkpt lat="43.9585357" lon="7.9935306"><ele>141.0</ele><time>2026-05-02T16:52:56.05Z</time></trkpt><trkpt lat="43.9583693" lon="7.9937512"><ele>131.0</ele><time>2026-05-02T16:52:57.05Z</time></trkpt><trkpt lat="43.9582151" lon="7.9940098"><ele>121.0</ele><time>2026-05-02T16:52:58.05Z</time></trkpt><trkpt lat="43.9580907" lon="7.9942912"><ele>121.0</ele><time>2026-05-02T16:52:59.05Z</time></trkpt><trkpt lat="43.9579873" lon="7.9945933"><ele>121.0</ele><time>2026-05-02T16:53:00.05Z</time></trkpt><trkpt lat="43.9579039" lon="7.994908"><ele>125.0</ele><time>2026-05-02T16:53:01.051Z</time></trkpt><trkpt lat="43.957829" lon="7.9952272"><ele>129.0</ele><time>2026-05-02T16:53:02.05Z</time></trkpt><trkpt lat="43.9577549" lon="7.9955489"><ele>133.0</ele><time>2026-05-02T16:53:03.051Z</time></trkpt><trkpt lat="43.9576792" lon="7.9958761"><ele>137.0</ele><time>2026-05-02T16:53:04.05Z</time></trkpt><trkpt lat="43.9576052" lon="7.9962002"><ele>130.5</ele><time>2026-05-02T16:53:05.051Z</time></trkpt><trkpt lat="43.9575254" lon="7.9965231"><ele>124.0</ele><time>2026-05-02T16:53:06.051Z</time></trkpt><trkpt lat="43.9574404" lon="7.9968434"><ele>124.0</ele><time>2026-05-02T16:53:07.05Z</time></trkpt><trkpt lat="43.9573401" lon="7.9971566"><ele>124.0</ele><time>2026-05-02T16:53:08.05Z</time></trkpt><trkpt lat="43.9572156" lon="7.9974497"><ele>146.5</ele><time>2026-05-02T16:53:09.051Z</time></trkpt><trkpt lat="43.9570638" lon="7.9977252"><ele>169.0</ele><time>2026-05-02T16:53:10.05Z</time></trkpt><trkpt lat="43.9569141" lon="7.9980045"><ele>169.0</ele><time>2026-05-02T16:53:11.051Z</time></trkpt><trkpt lat="43.9567638" lon="7.9982798"><ele>169.0</ele><time>2026-05-02T16:53:12.05Z</time></trkpt><trkpt lat="43.9510166" lon="8.0016885"><ele>128.5</ele><time>2026-05-02T16:53:39.05Z</time></trkpt><trkpt lat="43.9507705" lon="8.0016457"><ele>88.0</ele><time>2026-05-02T16:53:40.05Z</time></trkpt><trkpt lat="43.9505362" lon="8.001563"><ele>88.0</ele><time>2026-05-02T16:53:41.05Z</time></trkpt><trkpt lat="43.9502835" lon="8.0014903"><ele>88.0</ele><time>2026-05-02T16:53:42.05Z</time></trkpt><trkpt lat="43.9500362" lon="8.0014347"><ele>90.0</ele><time>2026-05-02T16:53:43.05Z</time></trkpt><trkpt lat="43.9497881" lon="8.001378"><ele>92.0</ele><time>2026-05-02T16:53:44.05Z</time></trkpt><trkpt lat="43.9495395" lon="8.0013207"><ele>92.0</ele><time>2026-05-02T16:53:45.05Z</time></trkpt><trkpt lat="43.949285" lon="8.0012573"><ele>92.0</ele><time>2026-05-02T16:53:46.05Z</time></trkpt><trkpt lat="43.9490317" lon="8.0011957"><ele>98.0</ele><time>2026-05-02T16:53:47.051Z</time></trkpt><trkpt lat="43.9487763" lon="8.0011324"><ele>104.0</ele><time>2026-05-02T16:53:48.05Z</time></trkpt><trkpt lat="43.9485261" lon="8.0010632"><ele>101.0</ele><time>2026-05-02T16:53:49.051Z</time></trkpt><trkpt lat="43.9482764" lon="8.0010006"><ele>98.0</ele><time>2026-05-02T16:53:50.051Z</time></trkpt><trkpt lat="43.9480252" lon="8.0009326"><ele>98.0</ele><time>2026-05-02T16:53:51.05Z</time></trkpt><trkpt lat="43.9477747" lon="8.0008637"><ele>98.0</ele><time>2026-05-02T16:53:52.051Z</time></trkpt><trkpt lat="43.9475237" lon="8.0007816"><ele>103.0</ele><time>2026-05-02T16:53:53.05Z</time></trkpt><trkpt lat="43.9472792" lon="8.0006828"><ele>108.0</ele><time>2026-05-02T16:53:54.05Z</time></trkpt><trkpt lat="43.9470362" lon="8.0005731"><ele>108.0</ele><time>2026-05-02T16:53:55.051Z</time></trkpt><trkpt lat="43.9467961" lon="8.0004609"><ele>108.0</ele><time>2026-05-02T16:53:56.051Z</time></trkpt><trkpt lat="43.9465523" lon="8.0003514"><ele>107.5</ele><time>2026-05-02T16:53:57.051Z</time></trkpt><trkpt lat="43.9463091" lon="8.0002428"><ele>107.0</ele><time>2026-05-02T16:53:58.051Z</time></trkpt><trkpt lat="43.9348354" lon="8.0138257"><ele>98.66666666666666</ele><time>2026-05-02T16:55:10.05Z</time></trkpt><trkpt lat="43.9347539" lon="8.0140288"><ele>90.33333333333333</ele><time>2026-05-02T16:55:11.051Z</time></trkpt><trkpt lat="43.9346466" lon="8.0142483"><ele>82.0</ele><time>2026-05-02T16:55:12.051Z</time></trkpt><trkpt lat="43.9345468" lon="8.0144623"><ele>72.66666666666666</ele><time>2026-05-02T16:55:13.05Z</time></trkpt><trkpt lat="43.9344392" lon="8.0146855"><ele>63.33333333333333</ele><time>2026-05-02T16:55:14.05Z</time></trkpt><trkpt lat="43.9343024" lon="8.0149092"><ele>54.0</ele><time>2026-05-02T16:55:15.05Z</time></trkpt><trkpt lat="43.9341623" lon="8.0151474"><ele>54.0</ele><time>2026-05-02T16:55:16.05Z</time></trkpt><trkpt lat="43.9340204" lon="8.0153969"><ele>54.0</ele><time>2026-05-02T16:55:17.051Z</time></trkpt><trkpt lat="43.9338809" lon="8.0156487"><ele>54.5</ele><time>2026-05-02T16:55:18.05Z</time></trkpt><trkpt lat="43.9337375" lon="8.0158991"><ele>55.0</ele><time>2026-05-02T16:55:19.05Z</time></trkpt><trkpt lat="43.9335849" lon="8.0161447"><ele>55.0</ele><time>2026-05-02T16:55:20.05Z</time></trkpt><trkpt lat="43.9334286" lon="8.0163862"><ele>55.0</ele><time>2026-05-02T16:55:21.051Z</time></trkpt><trkpt lat="43.9332775" lon="8.0166356"><ele>54.0</ele><time>2026-05-02T16:55:22.051Z</time></trkpt><trkpt lat="43.9331398" lon="8.01689"><ele>53.0</ele><time>2026-05-02T16:55:23.051Z</time></trkpt><trkpt lat="43.9330172" lon="8.0171621"><ele>53.0</ele><time>2026-05-02T16:55:24.05Z</time></trkpt><trkpt lat="43.93291" lon="8.0174469"><ele>53.0</ele><time>2026-05-02T16:55:25.05Z</time></trkpt><trkpt lat="43.9328185" lon="8.0177475"><ele>57.5</ele><time>2026-05-02T16:55:26.05Z</time></trkpt><trkpt lat="43.9327471" lon="8.0180574"><ele>62.0</ele><time>2026-05-02T16:55:27.05Z</time></trkpt><trkpt lat="43.932699" lon="8.0183722"><ele>66.0</ele><time>2026-05-02T16:55:28.051Z</time></trkpt><trkpt lat="43.9326567" lon="8.0186974"><ele>70.0</ele><time>2026-05-02T16:55:29.05Z</time></trkpt><trkpt lat="43.9326537" lon="8.0190097"><ele>74.0</ele><time>2026-05-02T16:55:30.052Z</time></trkpt><trkpt lat="43.9326473" lon="8.0193088"><ele>78.0</ele><time>2026-05-02T16:55:31.05Z</time></trkpt><trkpt lat="43.9326201" lon="8.0195828"><ele>82.0</ele><time>2026-05-02T16:55:32.05Z</time></trkpt><trkpt lat="43.9325718" lon="8.0198445"><ele>74.0</ele><time>2026-05-02T16:55:33.051Z</time></trkpt><trkpt lat="43.9325027" lon="8.0200977"><ele>66.0</ele><time>2026-05-02T16:55:34.05Z</time></trkpt><trkpt lat="43.9324099" lon="8.0203108"><ele>58.0</ele><time>2026-05-02T16:55:35.05Z</time></trkpt><trkpt lat="43.9323039" lon="8.0204967"><ele>58.0</ele><time>2026-05-02T16:55:36.05Z</time></trkpt><trkpt lat="43.9322032" lon="8.0206663"><ele>58.0</ele><time>2026-05-02T16:55:37.051Z</time></trkpt><trkpt lat="43.9321029" lon="8.0208253"><ele>58.0</ele><time>2026-05-02T16:55:38.05Z</time></trkpt><trkpt lat="43.9320025" lon="8.0209696"><ele>57.0</ele><time>2026-05-02T16:55:39.05Z</time></trkpt><trkpt lat="43.9318944" lon="8.0210988"><ele>56.0</ele><time>2026-05-02T16:55:40.05Z</time></trkpt><trkpt lat="43.9317571" lon="8.021205"><ele>55.0</ele><time>2026-05-02T16:55:41.05Z</time></trkpt><trkpt lat="43.931608" lon="8.0212969"><ele>55.0</ele><time>2026-05-02T16:55:42.051Z</time></trkpt><trkpt lat="43.9314492" lon="8.0213718"><ele>55.0</ele><time>2026-05-02T16:55:43.05Z</time></trkpt><trkpt lat="43.9312815" lon="8.0213976"><ele>55.0</ele><time>2026-05-02T16:55:44.05Z</time></trkpt><trkpt lat="43.9311079" lon="8.021383"><ele>55.0</ele><time>2026-05-02T16:55:45.051Z</time></trkpt><trkpt lat="43.930927" lon="8.0213481"><ele>55.0</ele><time>2026-05-02T16:55:46.051Z</time></trkpt><trkpt lat="43.9307418" lon="8.0212851"><ele>55.0</ele><time>2026-05-02T16:55:47.051Z</time></trkpt><trkpt lat="43.9305574" lon="8.0212064"><ele>54.666666666666664</ele><time>2026-05-02T16:55:48.051Z</time></trkpt><trkpt lat="43.9303669" lon="8.0211231"><ele>54.33333333333333</ele><time>2026-05-02T16:55:49.05Z</time></trkpt><trkpt lat="43.9301686" lon="8.0210423"><ele>54.0</ele><time>2026-05-02T16:55:50.05Z</time></trkpt><trkpt lat="43.9299682" lon="8.0209636"><ele>53.33333333333333</ele><time>2026-05-02T16:55:51.05Z</time></trkpt><trkpt lat="43.9297658" lon="8.020886"><ele>52.666666666666664</ele><time>2026-05-02T16:55:52.051Z</time></trkpt><trkpt lat="43.929566" lon="8.0208052"><ele>52.0</ele><time>2026-05-02T16:55:53.05Z</time></trkpt><trkpt lat="43.9293688" lon="8.0207241"><ele>50.666666666666664</ele><time>2026-05-02T16:55:54.051Z</time></trkpt><trkpt lat="43.9291774" lon="8.0206422"><ele>49.33333333333333</ele><time>2026-05-02T16:55:55.05Z</time></trkpt><trkpt lat="43.9289914" lon="8.0205518"><ele>48.0</ele><time>2026-05-02T16:55:56.051Z</time></trkpt><trkpt lat="43.9288126" lon="8.02044"><ele>48.0</ele><time>2026-05-02T16:55:57.051Z</time></trkpt><trkpt lat="43.9286407" lon="8.0203051"><ele>48.0</ele><time>2026-05-02T16:55:58.051Z</time></trkpt><trkpt lat="43.9284786" lon="8.0201445"><ele>48.0</ele><time>2026-05-02T16:55:59.05Z</time></trkpt><trkpt lat="43.9283195" lon="8.019972"><ele>47.0</ele><time>2026-05-02T16:56:00.051Z</time></trkpt><trkpt lat="43.9281572" lon="8.0198051"><ele>46.0</ele><time>2026-05-02T16:56:01.05Z</time></trkpt><trkpt lat="43.9279855" lon="8.0196662"><ele>45.0</ele><time>2026-05-02T16:56:02.051Z</time></trkpt><trkpt lat="43.927792" lon="8.0195821"><ele>45.0</ele><time>2026-05-02T16:56:03.05Z</time></trkpt><trkpt lat="43.9275894" lon="8.019526"><ele>45.0</ele><time>2026-05-02T16:56:04.05Z</time></trkpt><trkpt lat="43.9273784" lon="8.0195254"><ele>45.0</ele><time>2026-05-02T16:56:05.051Z</time></trkpt><trkpt lat="43.9271809" lon="8.0195771"><ele>45.666666666666664</ele><time>2026-05-02T16:56:06.05Z</time></trkpt><trkpt lat="43.9269836" lon="8.0196915"><ele>46.33333333333333</ele><time>2026-05-02T16:56:07.05Z</time></trkpt><trkpt lat="43.9268015" lon="8.0198379"><ele>47.0</ele><time>2026-05-02T16:56:08.05Z</time></trkpt><trkpt lat="43.9266287" lon="8.0199903"><ele>48.0</ele><time>2026-05-02T16:56:09.05Z</time></trkpt><trkpt lat="43.9265231" lon="8.0202902"><ele>49.0</ele><time>2026-05-02T16:56:10.051Z</time></trkpt><trkpt lat="43.9263933" lon="8.0205388"><ele>49.0</ele><time>2026-05-02T16:56:11.05Z</time></trkpt><trkpt lat="43.9262485" lon="8.0207951"><ele>49.0</ele><time>2026-05-02T16:56:12.05Z</time></trkpt><trkpt lat="43.9260922" lon="8.021029"><ele>47.5</ele><time>2026-05-02T16:56:13.05Z</time></trkpt><trkpt lat="43.9259222" lon="8.0212643"><ele>46.0</ele><time>2026-05-02T16:56:14.051Z</time></trkpt><trkpt lat="43.9257548" lon="8.0214811"><ele>48.0</ele><time>2026-05-02T16:56:15.05Z</time></trkpt><trkpt lat="43.9255819" lon="8.0217068"><ele>50.0</ele><time>2026-05-02T16:56:16.05Z</time></trkpt><trkpt lat="43.9254086" lon="8.0219328"><ele>50.0</ele><time>2026-05-02T16:56:17.051Z</time></trkpt><trkpt lat="43.9252372" lon="8.0221617"><ele>50.0</ele><time>2026-05-02T16:56:18.051Z</time></trkpt><trkpt lat="43.9250661" lon="8.0223904"><ele>48.5</ele><time>2026-05-02T16:56:19.05Z</time></trkpt><trkpt lat="43.9248951" lon="8.022617"><ele>47.0</ele><time>2026-05-02T16:56:20.05Z</time></trkpt><trkpt lat="43.9247149" lon="8.022829"><ele>47.0</ele><time>2026-05-02T16:56:21.05Z</time></trkpt><trkpt lat="43.9245353" lon="8.0230372"><ele>47.0</ele><time>2026-05-02T16:56:22.05Z</time></trkpt><trkpt lat="43.9243471" lon="8.0232414"><ele>45.0</ele><time>2026-05-02T16:56:23.05Z</time></trkpt><trkpt lat="43.9241561" lon="8.0234344"><ele>43.0</ele><time>2026-05-02T16:56:24.05Z</time></trkpt><trkpt lat="43.9239786" lon="8.0236179"><ele>43.0</ele><time>2026-05-02T16:56:25.05Z</time></trkpt><trkpt lat="43.9238131" lon="8.0238108"><ele>43.0</ele><time>2026-05-02T16:56:26.05Z</time></trkpt><trkpt lat="43.9236568" lon="8.0239966"><ele>43.0</ele><time>2026-05-02T16:56:27.052Z</time></trkpt><trkpt lat="43.9235293" lon="8.0241719"><ele>43.25</ele><time>2026-05-02T16:56:28.05Z</time></trkpt><trkpt lat="43.9234076" lon="8.0243337"><ele>43.5</ele><time>2026-05-02T16:56:29.05Z</time></trkpt><trkpt lat="43.9233039" lon="8.02447"><ele>43.75</ele><time>2026-05-02T16:56:30.05Z</time></trkpt><trkpt lat="43.9232148" lon="8.0245895"><ele>44.0</ele><time>2026-05-02T16:56:31.051Z</time></trkpt><trkpt lat="43.9231119" lon="8.0247073"><ele>44.0</ele><time>2026-05-02T16:56:32.05Z</time></trkpt><trkpt lat="43.9230035" lon="8.0248086"><ele>44.0</ele><time>2026-05-02T16:56:33.05Z</time></trkpt><trkpt lat="43.9228792" lon="8.0248881"><ele>44.0</ele><time>2026-05-02T16:56:34.05Z</time></trkpt><trkpt lat="43.9227413" lon="8.0249511"><ele>44.0</ele><time>2026-05-02T16:56:35.05Z</time></trkpt><trkpt lat="43.9225929" lon="8.0249976"><ele>45.0</ele><time>2026-05-02T16:56:36.05Z</time></trkpt><trkpt lat="43.9224219" lon="8.0250294"><ele>46.0</ele><time>2026-05-02T16:56:37.05Z</time></trkpt><trkpt lat="43.9222418" lon="8.02504"><ele>47.0</ele><time>2026-05-02T16:56:38.05Z</time></trkpt><trkpt lat="43.9220485" lon="8.0250477"><ele>47.0</ele><time>2026-05-02T16:56:39.05Z</time></trkpt><trkpt lat="43.9218446" lon="8.0250587"><ele>47.0</ele><time>2026-05-02T16:56:40.05Z</time></trkpt><trkpt lat="43.9216505" lon="8.0250786"><ele>47.0</ele><time>2026-05-02T16:56:41.05Z</time></trkpt><trkpt lat="43.9214416" lon="8.0251029"><ele>46.33333333333333</ele><time>2026-05-02T16:56:42.05Z</time></trkpt><trkpt lat="43.921233" lon="8.0251263"><ele>45.666666666666664</ele><time>2026-05-02T16:56:43.05Z</time></trkpt><trkpt lat="43.9210233" lon="8.025142"><ele>45.0</ele><time>2026-05-02T16:56:44.05Z</time></trkpt><trkpt lat="43.9208076" lon="8.0251643"><ele>45.0</ele><time>2026-05-02T16:56:45.05Z</time></trkpt><trkpt lat="43.920583" lon="8.0251868"><ele>45.0</ele><time>2026-05-02T16:56:46.05Z</time></trkpt><trkpt lat="43.9203594" lon="8.0252126"><ele>45.0</ele><time>2026-05-02T16:56:47.05Z</time></trkpt><trkpt lat="43.9201349" lon="8.0252437"><ele>45.0</ele><time>2026-05-02T16:56:48.051Z</time></trkpt><trkpt lat="43.919913" lon="8.0252746"><ele>45.0</ele><time>2026-05-02T16:56:49.05Z</time></trkpt><trkpt lat="43.9196919" lon="8.0253107"><ele>44.666666666666664</ele><time>2026-05-02T16:56:50.05Z</time></trkpt><trkpt lat="43.919473" lon="8.025359"><ele>44.33333333333333</ele><time>2026-05-02T16:56:51.05Z</time></trkpt><trkpt lat="43.9192489" lon="8.0254121"><ele>44.0</ele><time>2026-05-02T16:56:52.05Z</time></trkpt><trkpt lat="43.9190292" lon="8.0254656"><ele>41.666666666666664</ele><time>2026-05-02T16:56:53.05Z</time></trkpt><trkpt lat="43.9188073" lon="8.0255273"><ele>39.333333333333336</ele><time>2026-05-02T16:56:54.051Z</time></trkpt><trkpt lat="43.9185923" lon="8.0256043"><ele>37.0</ele><time>2026-05-02T16:56:55.05Z</time></trkpt><trkpt lat="43.9183744" lon="8.0256928"><ele>38.0</ele><time>2026-05-02T16:56:56.05Z</time></trkpt><trkpt lat="43.918164" lon="8.0257986"><ele>39.0</ele><time>2026-05-02T16:56:57.051Z</time></trkpt><trkpt lat="43.9179566" lon="8.025899"><ele>40.0</ele><time>2026-05-02T16:56:58.051Z</time></trkpt><trkpt lat="43.9177431" lon="8.0259948"><ele>39.66666666666667</ele><time>2026-05-02T16:56:59.051Z</time></trkpt><trkpt lat="43.917535" lon="8.026097"><ele>39.333333333333336</ele><time>2026-05-02T16:57:00.051Z</time></trkpt><trkpt lat="43.917341" lon="8.026125"><ele>39.0</ele><time>2026-05-02T16:57:01.051Z</time></trkpt><trkpt lat="43.9171281" lon="8.0260692"><ele>39.0</ele><time>2026-05-02T16:57:02.051Z</time></trkpt><trkpt lat="43.9169024" lon="8.0259713"><ele>39.0</ele><time>2026-05-02T16:57:03.051Z</time></trkpt><trkpt lat="43.9167518" lon="8.0258658"><ele>39.0</ele><time>2026-05-02T16:57:04.05Z</time></trkpt><trkpt lat="43.9165754" lon="8.0257911"><ele>35.666666666666664</ele><time>2026-05-02T16:57:05.05Z</time></trkpt><trkpt lat="43.916396" lon="8.0257547"><ele>32.33333333333333</ele><time>2026-05-02T16:57:06.05Z</time></trkpt><trkpt lat="43.9162337" lon="8.0257636"><ele>29.0</ele><time>2026-05-02T16:57:07.051Z</time></trkpt><trkpt lat="43.9160843" lon="8.0258082"><ele>31.0</ele><time>2026-05-02T16:57:08.051Z</time></trkpt><trkpt lat="43.9159319" lon="8.0258383"><ele>33.0</ele><time>2026-05-02T16:57:09.05Z</time></trkpt><trkpt lat="43.9158117" lon="8.0260131"><ele>35.0</ele><time>2026-05-02T16:57:10.05Z</time></trkpt><trkpt lat="43.915656" lon="8.0261254"><ele>35.0</ele><time>2026-05-02T16:57:11.051Z</time></trkpt><trkpt lat="43.9154931" lon="8.0262156"><ele>35.0</ele><time>2026-05-02T16:57:12.051Z</time></trkpt><trkpt lat="43.9153439" lon="8.0262973"><ele>35.0</ele><time>2026-05-02T16:57:13.05Z</time></trkpt><trkpt lat="43.9151569" lon="8.0263952"><ele>34.33333333333333</ele><time>2026-05-02T16:57:14.05Z</time></trkpt><trkpt lat="43.9149854" lon="8.0265108"><ele>33.666666666666664</ele><time>2026-05-02T16:57:15.05Z</time></trkpt><trkpt lat="43.9148147" lon="8.0266682"><ele>33.0</ele><time>2026-05-02T16:57:16.05Z</time></trkpt><trkpt lat="43.9146401" lon="8.0268109"><ele>34.333333333333336</ele><time>2026-05-02T16:57:17.05Z</time></trkpt><trkpt lat="43.9144733" lon="8.0269473"><ele>35.66666666666667</ele><time>2026-05-02T16:57:18.05Z</time></trkpt><trkpt lat="43.9143219" lon="8.0270684"><ele>37.0</ele><time>2026-05-02T16:57:19.05Z</time></trkpt><trkpt lat="43.9141783" lon="8.0271288"><ele>37.0</ele><time>2026-05-02T16:57:20.05Z</time></trkpt><trkpt lat="43.9140422" lon="8.0270992"><ele>37.0</ele><time>2026-05-02T16:57:21.051Z</time></trkpt><trkpt lat="43.9139285" lon="8.0270167"><ele>37.0</ele><time>2026-05-02T16:57:22.051Z</time></trkpt><trkpt lat="43.9138322" lon="8.0269031"><ele>37.0</ele><time>2026-05-02T16:57:23.051Z</time></trkpt><trkpt lat="43.9137204" lon="8.0268116"><ele>37.0</ele><time>2026-05-02T16:57:24.051Z</time></trkpt><trkpt lat="43.9135958" lon="8.0267157"><ele>37.0</ele><time>2026-05-02T16:57:25.051Z</time></trkpt><trkpt lat="43.9134187" lon="8.0267436"><ele>37.0</ele><time>2026-05-02T16:57:26.05Z</time></trkpt><trkpt lat="43.9132677" lon="8.0267398"><ele>36.333333333333336</ele><time>2026-05-02T16:57:27.05Z</time></trkpt><trkpt lat="43.9131139" lon="8.026782"><ele>35.666666666666664</ele><time>2026-05-02T16:57:28.05Z</time></trkpt><trkpt lat="43.9129679" lon="8.0268516"><ele>35.0</ele><time>2026-05-02T16:57:29.05Z</time></trkpt><trkpt lat="43.9128212" lon="8.0269296"><ele>35.0</ele><time>2026-05-02T16:57:30.05Z</time></trkpt><trkpt lat="43.9126841" lon="8.0270014"><ele>35.0</ele><time>2026-05-02T16:57:31.05Z</time></trkpt><trkpt lat="43.9125524" lon="8.0270557"><ele>35.0</ele><time>2026-05-02T16:57:32.05Z</time></trkpt><trkpt lat="43.9124202" lon="8.0271054"><ele>35.0</ele><time>2026-05-02T16:57:33.05Z</time></trkpt><trkpt lat="43.9122959" lon="8.0271547"><ele>34.2</ele><time>2026-05-02T16:57:34.05Z</time></trkpt><trkpt lat="43.9121816" lon="8.0272165"><ele>33.4</ele><time>2026-05-02T16:57:35.05Z</time></trkpt><trkpt lat="43.9120869" lon="8.0272916"><ele>32.6</ele><time>2026-05-02T16:57:36.05Z</time></trkpt><trkpt lat="43.9119982" lon="8.0273741"><ele>31.8</ele><time>2026-05-02T16:57:37.05Z</time></trkpt><trkpt lat="43.9119085" lon="8.0274577"><ele>31.0</ele><time>2026-05-02T16:57:38.05Z</time></trkpt><trkpt lat="43.9118073" lon="8.0275334"><ele>33.25</ele><time>2026-05-02T16:57:39.05Z</time></trkpt><trkpt lat="43.9116892" lon="8.0275859"><ele>35.5</ele><time>2026-05-02T16:57:40.05Z</time></trkpt><trkpt lat="43.9115504" lon="8.0276224"><ele>37.75</ele><time>2026-05-02T16:57:41.051Z</time></trkpt><trkpt lat="43.9113984" lon="8.0276494"><ele>40.0</ele><time>2026-05-02T16:57:42.05Z</time></trkpt><trkpt lat="43.9112332" lon="8.0276794"><ele>40.0</ele><time>2026-05-02T16:57:43.05Z</time></trkpt><trkpt lat="43.91107" lon="8.0276954"><ele>40.0</ele><time>2026-05-02T16:57:44.05Z</time></trkpt><trkpt lat="43.9108895" lon="8.0277094"><ele>40.0</ele><time>2026-05-02T16:57:45.05Z</time></trkpt><trkpt lat="43.9107267" lon="8.0276939"><ele>38.75</ele><time>2026-05-02T16:57:46.05Z</time></trkpt><trkpt lat="43.9105706" lon="8.0276608"><ele>37.5</ele><time>2026-05-02T16:57:47.051Z</time></trkpt><trkpt lat="43.9104302" lon="8.0276234"><ele>36.25</ele><time>2026-05-02T16:57:48.05Z</time></trkpt><trkpt lat="43.9102956" lon="8.0275774"><ele>35.0</ele><time>2026-05-02T16:57:49.05Z</time></trkpt><trkpt lat="43.9101682" lon="8.0275258"><ele>33.0</ele><time>2026-05-02T16:57:50.051Z</time></trkpt><trkpt lat="43.9100492" lon="8.027473"><ele>31.0</ele><time>2026-05-02T16:57:51.05Z</time></trkpt><trkpt lat="43.9099432" lon="8.0274171"><ele>29.0</ele><time>2026-05-02T16:57:52.05Z</time></trkpt><trkpt lat="43.909861" lon="8.0273529"><ele>27.0</ele><time>2026-05-02T16:57:53.051Z</time></trkpt><trkpt lat="43.9097867" lon="8.0272637"><ele>25.0</ele><time>2026-05-02T16:57:54.051Z</time></trkpt><trkpt lat="43.9097179" lon="8.0271668"><ele>25.0</ele><time>2026-05-02T16:57:55.05Z</time></trkpt><trkpt lat="43.9096538" lon="8.0270651"><ele>25.0</ele><time>2026-05-02T16:57:56.05Z</time></trkpt><trkpt lat="43.9095825" lon="8.0269852"><ele>25.0</ele><time>2026-05-02T16:57:57.05Z</time></trkpt><trkpt lat="43.9094956" lon="8.0269253"><ele>25.0</ele><time>2026-05-02T16:57:58.05Z</time></trkpt><trkpt lat="43.9093818" lon="8.0268878"><ele>25.0</ele><time>2026-05-02T16:57:59.05Z</time></trkpt><trkpt lat="43.9092543" lon="8.0268764"><ele>28.333333333333336</ele><time>2026-05-02T16:58:00.05Z</time></trkpt><trkpt lat="43.9091076" lon="8.0268614"><ele>31.666666666666664</ele><time>2026-05-02T16:58:01.05Z</time></trkpt><trkpt lat="43.9089492" lon="8.0268442"><ele>35.0</ele><time>2026-05-02T16:58:02.05Z</time></trkpt><trkpt lat="43.9087653" lon="8.0267957"><ele>35.0</ele><time>2026-05-02T16:58:03.05Z</time></trkpt><trkpt lat="43.9085924" lon="8.0267472"><ele>35.0</ele><time>2026-05-02T16:58:04.05Z</time></trkpt><trkpt lat="43.9084074" lon="8.0266881"><ele>35.0</ele><time>2026-05-02T16:58:05.05Z</time></trkpt><trkpt lat="43.908208" lon="8.0266287"><ele>30.333333333333332</ele><time>2026-05-02T16:58:06.05Z</time></trkpt><trkpt lat="43.90802" lon="8.0265804"><ele>25.666666666666664</ele><time>2026-05-02T16:58:07.05Z</time></trkpt><trkpt lat="43.9078367" lon="8.0265528"><ele>21.0</ele><time>2026-05-02T16:58:08.05Z</time></trkpt><trkpt lat="43.9076308" lon="8.0265863"><ele>20.666666666666668</ele><time>2026-05-02T16:58:09.05Z</time></trkpt><trkpt lat="43.9074375" lon="8.0266364"><ele>20.333333333333336</ele><time>2026-05-02T16:58:10.05Z</time></trkpt><trkpt lat="43.9072453" lon="8.0267029"><ele>20.0</ele><time>2026-05-02T16:58:11.05Z</time></trkpt><trkpt lat="43.9070554" lon="8.0267897"><ele>22.333333333333336</ele><time>2026-05-02T16:58:12.05Z</time></trkpt><trkpt lat="43.9068626" lon="8.0268877"><ele>24.666666666666668</ele><time>2026-05-02T16:58:13.051Z</time></trkpt><trkpt lat="43.9066726" lon="8.0269849"><ele>27.0</ele><time>2026-05-02T16:58:14.05Z</time></trkpt><trkpt lat="43.9064825" lon="8.0270589"><ele>27.0</ele><time>2026-05-02T16:58:15.051Z</time></trkpt><trkpt lat="43.9062865" lon="8.0270842"><ele>27.0</ele><time>2026-05-02T16:58:16.05Z</time></trkpt><trkpt lat="43.9060984" lon="8.0270732"><ele>27.0</ele><time>2026-05-02T16:58:17.05Z</time></trkpt><trkpt lat="43.9059025" lon="8.0270559"><ele>26.333333333333336</ele><time>2026-05-02T16:58:18.05Z</time></trkpt><trkpt lat="43.9057124" lon="8.0270716"><ele>25.666666666666668</ele><time>2026-05-02T16:58:19.05Z</time></trkpt><trkpt lat="43.9055172" lon="8.0271274"><ele>25.0</ele><time>2026-05-02T16:58:20.05Z</time></trkpt><trkpt lat="43.9053331" lon="8.0271758"><ele>25.0</ele><time>2026-05-02T16:58:21.051Z</time></trkpt><trkpt lat="43.9051499" lon="8.0272074"><ele>25.0</ele><time>2026-05-02T16:58:22.051Z</time></trkpt><trkpt lat="43.9049646" lon="8.0272394"><ele>25.0</ele><time>2026-05-02T16:58:23.051Z</time></trkpt><trkpt lat="43.9047717" lon="8.0272613"><ele>24.0</ele><time>2026-05-02T16:58:24.051Z</time></trkpt><trkpt lat="43.9045813" lon="8.0272597"><ele>23.0</ele><time>2026-05-02T16:58:25.05Z</time></trkpt><trkpt lat="43.9043961" lon="8.027227"><ele>22.0</ele><time>2026-05-02T16:58:26.05Z</time></trkpt><trkpt lat="43.9042155" lon="8.0271931"><ele>20.666666666666664</ele><time>2026-05-02T16:58:27.05Z</time></trkpt><trkpt lat="43.904037" lon="8.0271921"><ele>19.333333333333332</ele><time>2026-05-02T16:58:28.05Z</time></trkpt><trkpt lat="43.9038597" lon="8.0271909"><ele>18.0</ele><time>2026-05-02T16:58:29.051Z</time></trkpt><trkpt lat="43.903708" lon="8.0272278"><ele>18.0</ele><time>2026-05-02T16:58:30.05Z</time></trkpt><trkpt lat="43.9035606" lon="8.0272555"><ele>18.0</ele><time>2026-05-02T16:58:31.05Z</time></trkpt><trkpt lat="43.90341" lon="8.0272753"><ele>18.0</ele><time>2026-05-02T16:58:32.05Z</time></trkpt><trkpt lat="43.9032696" lon="8.0273226"><ele>18.0</ele><time>2026-05-02T16:58:33.05Z</time></trkpt><trkpt lat="43.9032148" lon="8.0274928"><ele>22.75</ele><time>2026-05-02T16:58:34.05Z</time></trkpt><trkpt lat="43.9031124" lon="8.0275871"><ele>27.5</ele><time>2026-05-02T16:58:35.05Z</time></trkpt><trkpt lat="43.9030387" lon="8.0277508"><ele>32.25</ele><time>2026-05-02T16:58:36.05Z</time></trkpt><trkpt lat="43.9030176" lon="8.027912"><ele>37.0</ele><time>2026-05-02T16:58:37.05Z</time></trkpt><trkpt lat="43.9029689" lon="8.0280596"><ele>37.0</ele><time>2026-05-02T16:58:38.05Z</time></trkpt><trkpt lat="43.9029151" lon="8.0282103"><ele>37.0</ele><time>2026-05-02T16:58:39.05Z</time></trkpt><trkpt lat="43.9028736" lon="8.0283685"><ele>37.0</ele><time>2026-05-02T16:58:40.051Z</time></trkpt><trkpt lat="43.9028365" lon="8.028526"><ele>37.0</ele><time>2026-05-02T16:58:41.05Z</time></trkpt><trkpt lat="43.9028117" lon="8.0286898"><ele>41.0</ele><time>2026-05-02T16:58:42.051Z</time></trkpt><trkpt lat="43.9027861" lon="8.0288514"><ele>45.0</ele><time>2026-05-02T16:58:43.05Z</time></trkpt><trkpt lat="43.9027564" lon="8.0290171"><ele>49.0</ele><time>2026-05-02T16:58:44.05Z</time></trkpt><trkpt lat="43.9027384" lon="8.0291799"><ele>53.0</ele><time>2026-05-02T16:58:45.05Z</time></trkpt><trkpt lat="43.9027154" lon="8.0293484"><ele>53.5</ele><time>2026-05-02T16:58:46.05Z</time></trkpt><trkpt lat="43.9026968" lon="8.0295109"><ele>54.0</ele><time>2026-05-02T16:58:47.05Z</time></trkpt><trkpt lat="43.9026794" lon="8.0296782"><ele>54.5</ele><time>2026-05-02T16:58:48.05Z</time></trkpt><trkpt lat="43.9026601" lon="8.0298474"><ele>55.0</ele><time>2026-05-02T16:58:49.05Z</time></trkpt><trkpt lat="43.9026378" lon="8.0300167"><ele>55.0</ele><time>2026-05-02T16:58:50.05Z</time></trkpt><trkpt lat="43.9026209" lon="8.0301853"><ele>55.0</ele><time>2026-05-02T16:58:51.05Z</time></trkpt><trkpt lat="43.9026058" lon="8.0303602"><ele>55.0</ele><time>2026-05-02T16:58:52.05Z</time></trkpt><trkpt lat="43.9025938" lon="8.0305349"><ele>55.0</ele><time>2026-05-02T16:58:53.051Z</time></trkpt><trkpt lat="43.9025838" lon="8.0307093"><ele>47.5</ele><time>2026-05-02T16:58:54.051Z</time></trkpt><trkpt lat="43.9025692" lon="8.0308836"><ele>40.0</ele><time>2026-05-02T16:58:55.05Z</time></trkpt><trkpt lat="43.9025597" lon="8.0310523"><ele>32.5</ele><time>2026-05-02T16:58:56.05Z</time></trkpt><trkpt lat="43.9025587" lon="8.0312179"><ele>25.0</ele><time>2026-05-02T16:58:57.05Z</time></trkpt><trkpt lat="43.9025322" lon="8.0313802"><ele>25.0</ele><time>2026-05-02T16:58:58.05Z</time></trkpt><trkpt lat="43.9024794" lon="8.0315317"><ele>25.0</ele><time>2026-05-02T16:58:59.05Z</time></trkpt><trkpt lat="43.9024102" lon="8.0316644"><ele>25.0</ele><time>2026-05-02T16:59:00.05Z</time></trkpt><trkpt lat="43.9023225" lon="8.031774"><ele>25.0</ele><time>2026-05-02T16:59:01.05Z</time></trkpt><trkpt lat="43.9022265" lon="8.0318867"><ele>25.5</ele><time>2026-05-02T16:59:02.05Z</time></trkpt><trkpt lat="43.902127" lon="8.0319863"><ele>26.0</ele><time>2026-05-02T16:59:03.051Z</time></trkpt><trkpt lat="43.9020215" lon="8.0320851"><ele>26.5</ele><time>2026-05-02T16:59:04.05Z</time></trkpt><trkpt lat="43.9019122" lon="8.0321825"><ele>27.0</ele><time>2026-05-02T16:59:05.051Z</time></trkpt><trkpt lat="43.9018067" lon="8.0322893"><ele>26.5</ele><time>2026-05-02T16:59:06.051Z</time></trkpt><trkpt lat="43.9017102" lon="8.0324102"><ele>26.0</ele><time>2026-05-02T16:59:07.051Z</time></trkpt><trkpt lat="43.9016268" lon="8.0325517"><ele>25.5</ele><time>2026-05-02T16:59:08.05Z</time></trkpt><trkpt lat="43.9015646" lon="8.0326965"><ele>25.0</ele><time>2026-05-02T16:59:09.05Z</time></trkpt><trkpt lat="43.9015104" lon="8.0328396"><ele>25.0</ele><time>2026-05-02T16:59:10.051Z</time></trkpt><trkpt lat="43.9014572" lon="8.0329792"><ele>25.0</ele><time>2026-05-02T16:59:11.05Z</time></trkpt><trkpt lat="43.9013967" lon="8.0331165"><ele>25.0</ele><time>2026-05-02T16:59:12.05Z</time></trkpt><trkpt lat="43.9013246" lon="8.0332498"><ele>25.0</ele><time>2026-05-02T16:59:13.05Z</time></trkpt><trkpt lat="43.9012392" lon="8.0333826"><ele>24.25</ele><time>2026-05-02T16:59:14.05Z</time></trkpt><trkpt lat="43.9011375" lon="8.0335054"><ele>23.5</ele><time>2026-05-02T16:59:15.05Z</time></trkpt><trkpt lat="43.9010269" lon="8.033622"><ele>22.75</ele><time>2026-05-02T16:59:16.05Z</time></trkpt><trkpt lat="43.9009231" lon="8.0337334"><ele>22.0</ele><time>2026-05-02T16:59:17.05Z</time></trkpt><trkpt lat="43.9008217" lon="8.0338436"><ele>22.0</ele><time>2026-05-02T16:59:18.05Z</time></trkpt><trkpt lat="43.9007194" lon="8.0339589"><ele>22.0</ele><time>2026-05-02T16:59:19.05Z</time></trkpt><trkpt lat="43.9006176" lon="8.0340678"><ele>22.0</ele><time>2026-05-02T16:59:20.05Z</time></trkpt><trkpt lat="43.9005181" lon="8.034182"><ele>22.0</ele><time>2026-05-02T16:59:21.05Z</time></trkpt><trkpt lat="43.9004194" lon="8.0342956"><ele>20.5</ele><time>2026-05-02T16:59:22.05Z</time></trkpt><trkpt lat="43.9003214" lon="8.0344116"><ele>19.0</ele><time>2026-05-02T16:59:23.05Z</time></trkpt><trkpt lat="43.90022" lon="8.0345236"><ele>17.5</ele><time>2026-05-02T16:59:24.05Z</time></trkpt><trkpt lat="43.9001227" lon="8.0346377"><ele>16.0</ele><time>2026-05-02T16:59:25.05Z</time></trkpt><trkpt lat="43.9000257" lon="8.0347545"><ele>16.0</ele><time>2026-05-02T16:59:26.05Z</time></trkpt><trkpt lat="43.8999293" lon="8.034867"><ele>16.0</ele><time>2026-05-02T16:59:27.05Z</time></trkpt><trkpt lat="43.8998321" lon="8.0349792"><ele>16.0</ele><time>2026-05-02T16:59:28.05Z</time></trkpt><trkpt lat="43.899733" lon="8.0350882"><ele>16.0</ele><time>2026-05-02T16:59:29.05Z</time></trkpt><trkpt lat="43.8996343" lon="8.0351964"><ele>16.0</ele><time>2026-05-02T16:59:30.05Z</time></trkpt><trkpt lat="43.8995364" lon="8.0353037"><ele>16.0</ele><time>2026-05-02T16:59:31.05Z</time></trkpt><trkpt lat="43.8994346" lon="8.0354008"><ele>16.0</ele><time>2026-05-02T16:59:32.05Z</time></trkpt><trkpt lat="43.8993357" lon="8.0354858"><ele>16.0</ele><time>2026-05-02T16:59:33.05Z</time></trkpt><trkpt lat="43.8992412" lon="8.0355624"><ele>16.0</ele><time>2026-05-02T16:59:34.05Z</time></trkpt><trkpt lat="43.8991497" lon="8.0356349"><ele>16.0</ele><time>2026-05-02T16:59:35.05Z</time></trkpt><trkpt lat="43.8990616" lon="8.0357073"><ele>16.0</ele><time>2026-05-02T16:59:36.05Z</time></trkpt><trkpt lat="43.8989776" lon="8.035781"><ele>16.0</ele><time>2026-05-02T16:59:37.051Z</time></trkpt><trkpt lat="43.8989006" lon="8.0358539"><ele>16.0</ele><time>2026-05-02T16:59:38.05Z</time></trkpt><trkpt lat="43.8988269" lon="8.0359231"><ele>16.833333333333332</ele><time>2026-05-02T16:59:39.051Z</time></trkpt><trkpt lat="43.898759" lon="8.0359915"><ele>17.666666666666664</ele><time>2026-05-02T16:59:40.051Z</time></trkpt><trkpt lat="43.8986967" lon="8.0360577"><ele>18.5</ele><time>2026-05-02T16:59:41.051Z</time></trkpt><trkpt lat="43.8986479" lon="8.036118"><ele>19.333333333333332</ele><time>2026-05-02T16:59:42.05Z</time></trkpt><trkpt lat="43.8985918" lon="8.0362259"><ele>20.166666666666668</ele><time>2026-05-02T16:59:44.05Z</time></trkpt><trkpt lat="43.8985292" lon="8.0363063"><ele>21.0</ele><time>2026-05-02T16:59:46.05Z</time></trkpt><trkpt lat="43.8984284" lon="8.0363614"><ele>20.2</ele><time>2026-05-02T16:59:48.05Z</time></trkpt><trkpt lat="43.8983161" lon="8.0364244"><ele>19.400000000000002</ele><time>2026-05-02T16:59:50.05Z</time></trkpt><trkpt lat="43.8982206" lon="8.0365364"><ele>18.6</ele><time>2026-05-02T16:59:52.05Z</time></trkpt><trkpt lat="43.8982043" lon="8.0366242"><ele>17.8</ele><time>2026-05-02T16:59:53.05Z</time></trkpt><trkpt lat="43.8982163" lon="8.0367299"><ele>17.0</ele><time>2026-05-02T16:59:54.051Z</time></trkpt><trkpt lat="43.8982337" lon="8.0368384"><ele>17.0</ele><time>2026-05-02T16:59:55.05Z</time></trkpt><trkpt lat="43.8982558" lon="8.036935"><ele>17.0</ele><time>2026-05-02T16:59:56.051Z</time></trkpt><trkpt lat="43.8983095" lon="8.0369935"><ele>17.0</ele><time>2026-05-02T16:59:57.05Z</time></trkpt><trkpt lat="43.8983777" lon="8.0370258"><ele>17.0</ele><time>2026-05-02T16:59:58.05Z</time></trkpt><trkpt lat="43.8984429" lon="8.0370518"><ele>17.0</ele><time>2026-05-02T16:59:59.05Z</time></trkpt><trkpt lat="43.898511" lon="8.0370643"><ele>17.0</ele><time>2026-05-02T17:00:00.05Z</time></trkpt><trkpt lat="43.8986215" lon="8.0369803"><ele>17.75</ele><time>2026-05-02T17:00:02.05Z</time></trkpt><trkpt lat="43.898704" lon="8.0369441"><ele>18.5</ele><time>2026-05-02T17:00:03.05Z</time></trkpt><trkpt lat="43.8988145" lon="8.0369587"><ele>19.25</ele><time>2026-05-02T17:00:04.05Z</time></trkpt><trkpt lat="43.8989395" lon="8.0370323"><ele>20.0</ele><time>2026-05-02T17:00:05.05Z</time></trkpt><trkpt lat="43.8990837" lon="8.0371486"><ele>20.0</ele><time>2026-05-02T17:00:06.05Z</time></trkpt><trkpt lat="43.8992434" lon="8.0372912"><ele>20.0</ele><time>2026-05-02T17:00:07.05Z</time></trkpt><trkpt lat="43.8994065" lon="8.0374191"><ele>20.0</ele><time>2026-05-02T17:00:08.05Z</time></trkpt><trkpt lat="43.8995978" lon="8.0375579"><ele>20.5</ele><time>2026-05-02T17:00:09.051Z</time></trkpt><trkpt lat="43.899792" lon="8.0377122"><ele>21.0</ele><time>2026-05-02T17:00:10.051Z</time></trkpt><trkpt lat="43.8999959" lon="8.0378784"><ele>25.0</ele><time>2026-05-02T17:00:11.051Z</time></trkpt><trkpt lat="43.9002068" lon="8.0380567"><ele>29.0</ele><time>2026-05-02T17:00:12.051Z</time></trkpt><trkpt lat="43.9004208" lon="8.0382442"><ele>27.0</ele><time>2026-05-02T17:00:13.051Z</time></trkpt><trkpt lat="43.9006285" lon="8.0384316"><ele>25.0</ele><time>2026-05-02T17:00:14.05Z</time></trkpt><trkpt lat="43.9008301" lon="8.0386017"><ele>25.666666666666668</ele><time>2026-05-02T17:00:15.051Z</time></trkpt><trkpt lat="43.9010149" lon="8.0387381"><ele>26.333333333333336</ele><time>2026-05-02T17:00:16.05Z</time></trkpt><trkpt lat="43.9012095" lon="8.0388629"><ele>27.0</ele><time>2026-05-02T17:00:17.05Z</time></trkpt><trkpt lat="43.9013697" lon="8.0388451"><ele>27.0</ele><time>2026-05-02T17:00:18.05Z</time></trkpt><trkpt lat="43.901539" lon="8.0388202"><ele>27.0</ele><time>2026-05-02T17:00:19.05Z</time></trkpt><trkpt lat="43.9016859" lon="8.0387612"><ele>27.0</ele><time>2026-05-02T17:00:20.051Z</time></trkpt><trkpt lat="43.9018191" lon="8.0386991"><ele>27.75</ele><time>2026-05-02T17:00:21.051Z</time></trkpt><trkpt lat="43.9019627" lon="8.0386653"><ele>28.5</ele><time>2026-05-02T17:00:22.051Z</time></trkpt><trkpt lat="43.9020916" lon="8.0386936"><ele>29.25</ele><time>2026-05-02T17:00:23.05Z</time></trkpt><trkpt lat="43.9022036" lon="8.0387801"><ele>30.0</ele><time>2026-05-02T17:00:24.05Z</time></trkpt><trkpt lat="43.902279" lon="8.0389056"><ele>30.0</ele><time>2026-05-02T17:00:25.05Z</time></trkpt><trkpt lat="43.9023124" lon="8.0390655"><ele>30.0</ele><time>2026-05-02T17:00:26.05Z</time></trkpt><trkpt lat="43.9022957" lon="8.0392381"><ele>30.0</ele><time>2026-05-02T17:00:27.05Z</time></trkpt><trkpt lat="43.9022429" lon="8.0393908"><ele>30.0</ele><time>2026-05-02T17:00:28.05Z</time></trkpt><trkpt lat="43.90217" lon="8.0395374"><ele>31.25</ele><time>2026-05-02T17:00:29.05Z</time></trkpt><trkpt lat="43.9020313" lon="8.0395608"><ele>32.5</ele><time>2026-05-02T17:00:30.05Z</time></trkpt><trkpt lat="43.9018849" lon="8.03955"><ele>33.75</ele><time>2026-05-02T17:00:31.05Z</time></trkpt><trkpt lat="43.9017397" lon="8.0395002"><ele>35.0</ele><time>2026-05-02T17:00:32.05Z</time></trkpt><trkpt lat="43.9015844" lon="8.0394448"><ele>35.0</ele><time>2026-05-02T17:00:33.051Z</time></trkpt><trkpt lat="43.9014308" lon="8.0394054"><ele>35.0</ele><time>2026-05-02T17:00:34.051Z</time></trkpt><trkpt lat="43.9012857" lon="8.0394208"><ele>35.0</ele><time>2026-05-02T17:00:35.05Z</time></trkpt><trkpt lat="43.9011653" lon="8.0395076"><ele>35.0</ele><time>2026-05-02T17:00:36.051Z</time></trkpt><trkpt lat="43.9010435" lon="8.0395811"><ele>35.0</ele><time>2026-05-02T17:00:37.05Z</time></trkpt><trkpt lat="43.9009429" lon="8.0397378"><ele>35.0</ele><time>2026-05-02T17:00:38.05Z</time></trkpt><trkpt lat="43.9009489" lon="8.0399204"><ele>35.0</ele><time>2026-05-02T17:00:39.05Z</time></trkpt><trkpt lat="43.9009723" lon="8.0401687"><ele>38.33333333333333</ele><time>2026-05-02T17:00:40.05Z</time></trkpt><trkpt lat="43.9010259" lon="8.0403988"><ele>41.666666666666664</ele><time>2026-05-02T17:00:41.05Z</time></trkpt><trkpt lat="43.9012259" lon="8.0404823"><ele>45.0</ele><time>2026-05-02T17:00:42.05Z</time></trkpt><trkpt lat="43.9014323" lon="8.040485"><ele>45.0</ele><time>2026-05-02T17:00:43.051Z</time></trkpt><trkpt lat="43.9016041" lon="8.0404293"><ele>45.0</ele><time>2026-05-02T17:00:44.05Z</time></trkpt><trkpt lat="43.9018794" lon="8.040116"><ele>47.33333333333333</ele><time>2026-05-02T17:00:45.05Z</time></trkpt><trkpt lat="43.9020748" lon="8.0400075"><ele>49.666666666666664</ele><time>2026-05-02T17:00:46.051Z</time></trkpt><trkpt lat="43.9022646" lon="8.0399313"><ele>52.0</ele><time>2026-05-02T17:00:47.051Z</time></trkpt><trkpt lat="43.9024435" lon="8.0398993"><ele>51.33333333333333</ele><time>2026-05-02T17:00:48.051Z</time></trkpt><trkpt lat="43.9026074" lon="8.0399122"><ele>50.66666666666667</ele><time>2026-05-02T17:00:49.05Z</time></trkpt><trkpt lat="43.902772" lon="8.0399468"><ele>50.0</ele><time>2026-05-02T17:00:50.05Z</time></trkpt><trkpt lat="43.9027861" lon="8.0401677"><ele>50.5</ele><time>2026-05-02T17:00:51.05Z</time></trkpt><trkpt lat="43.9028114" lon="8.0403372"><ele>51.0</ele><time>2026-05-02T17:00:52.05Z</time></trkpt><trkpt lat="43.9027771" lon="8.0405157"><ele>51.5</ele><time>2026-05-02T17:00:53.05Z</time></trkpt><trkpt lat="43.9026922" lon="8.0406582"><ele>52.0</ele><time>2026-05-02T17:00:54.05Z</time></trkpt><trkpt lat="43.9025721" lon="8.0407361"><ele>52.0</ele><time>2026-05-02T17:00:55.05Z</time></trkpt><trkpt lat="43.9024265" lon="8.0407412"><ele>52.0</ele><time>2026-05-02T17:00:56.05Z</time></trkpt><trkpt lat="43.9022713" lon="8.0406977"><ele>52.0</ele><time>2026-05-02T17:00:57.051Z</time></trkpt><trkpt lat="43.9021061" lon="8.040655"><ele>52.0</ele><time>2026-05-02T17:00:58.05Z</time></trkpt><trkpt lat="43.9019215" lon="8.0406293"><ele>52.0</ele><time>2026-05-02T17:00:59.05Z</time></trkpt><trkpt lat="43.9017346" lon="8.0406224"><ele>52.0</ele><time>2026-05-02T17:01:00.05Z</time></trkpt><trkpt lat="43.9015618" lon="8.0407623"><ele>55.33333333333333</ele><time>2026-05-02T17:01:01.05Z</time></trkpt><trkpt lat="43.9014072" lon="8.040909"><ele>58.66666666666667</ele><time>2026-05-02T17:01:02.05Z</time></trkpt><trkpt lat="43.9012715" lon="8.0411111"><ele>62.0</ele><time>2026-05-02T17:01:03.05Z</time></trkpt><trkpt lat="43.9011326" lon="8.0413171"><ele>62.0</ele><time>2026-05-02T17:01:04.05Z</time></trkpt><trkpt lat="43.9009639" lon="8.0414959"><ele>62.0</ele><time>2026-05-02T17:01:05.05Z</time></trkpt><trkpt lat="43.9007977" lon="8.0416217"><ele>62.0</ele><time>2026-05-02T17:01:06.05Z</time></trkpt><trkpt lat="43.9006364" lon="8.0417056"><ele>65.0</ele><time>2026-05-02T17:01:07.05Z</time></trkpt><trkpt lat="43.900478" lon="8.0417637"><ele>68.0</ele><time>2026-05-02T17:01:08.05Z</time></trkpt><trkpt lat="43.9003273" lon="8.0418037"><ele>71.0</ele><time>2026-05-02T17:01:09.05Z</time></trkpt><trkpt lat="43.9001881" lon="8.0418425"><ele>70.66666666666667</ele><time>2026-05-02T17:01:10.05Z</time></trkpt><trkpt lat="43.9000445" lon="8.0418859"><ele>70.33333333333333</ele><time>2026-05-02T17:01:11.051Z</time></trkpt><trkpt lat="43.8998931" lon="8.0419281"><ele>70.0</ele><time>2026-05-02T17:01:12.05Z</time></trkpt><trkpt lat="43.8997315" lon="8.0419734"><ele>70.0</ele><time>2026-05-02T17:01:13.05Z</time></trkpt><trkpt lat="43.8995462" lon="8.0420077"><ele>70.0</ele><time>2026-05-02T17:01:14.05Z</time></trkpt><trkpt lat="43.8993534" lon="8.0420271"><ele>70.0</ele><time>2026-05-02T17:01:15.05Z</time></trkpt><trkpt lat="43.899154" lon="8.0420611"><ele>69.0</ele><time>2026-05-02T17:01:16.05Z</time></trkpt><trkpt lat="43.8989799" lon="8.0420981"><ele>68.0</ele><time>2026-05-02T17:01:17.05Z</time></trkpt><trkpt lat="43.8988257" lon="8.0421713"><ele>67.0</ele><time>2026-05-02T17:01:18.05Z</time></trkpt><trkpt lat="43.8987037" lon="8.0422818"><ele>67.0</ele><time>2026-05-02T17:01:19.05Z</time></trkpt><trkpt lat="43.8985924" lon="8.0424023"><ele>67.0</ele><time>2026-05-02T17:01:20.05Z</time></trkpt><trkpt lat="43.898525" lon="8.0425459"><ele>67.0</ele><time>2026-05-02T17:01:21.05Z</time></trkpt><trkpt lat="43.8984836" lon="8.0427122"><ele>67.0</ele><time>2026-05-02T17:01:22.051Z</time></trkpt><trkpt lat="43.8985505" lon="8.0429004"><ele>72.33333333333333</ele><time>2026-05-02T17:01:23.05Z</time></trkpt><trkpt lat="43.898788" lon="8.0429989"><ele>77.66666666666667</ele><time>2026-05-02T17:01:24.05Z</time></trkpt><trkpt lat="43.8988745" lon="8.0431183"><ele>83.0</ele><time>2026-05-02T17:01:25.051Z</time></trkpt><trkpt lat="43.899017" lon="8.043025"><ele>83.0</ele><time>2026-05-02T17:01:26.051Z</time></trkpt><trkpt lat="43.899163" lon="8.0430054"><ele>83.0</ele><time>2026-05-02T17:01:27.05Z</time></trkpt><trkpt lat="43.8993218" lon="8.0428524"><ele>83.0</ele><time>2026-05-02T17:01:28.05Z</time></trkpt><trkpt lat="43.8994278" lon="8.0426701"><ele>83.66666666666667</ele><time>2026-05-02T17:01:29.05Z</time></trkpt><trkpt lat="43.8995755" lon="8.0426128"><ele>84.33333333333333</ele><time>2026-05-02T17:01:30.05Z</time></trkpt><trkpt lat="43.899738" lon="8.0426179"><ele>85.0</ele><time>2026-05-02T17:01:31.051Z</time></trkpt><trkpt lat="43.8998906" lon="8.0426167"><ele>85.0</ele><time>2026-05-02T17:01:32.051Z</time></trkpt><trkpt lat="43.9000598" lon="8.0427908"><ele>85.0</ele><time>2026-05-02T17:01:33.051Z</time></trkpt><trkpt lat="43.9002012" lon="8.0428757"><ele>85.0</ele><time>2026-05-02T17:01:34.05Z</time></trkpt><trkpt lat="43.9003399" lon="8.0429673"><ele>86.0</ele><time>2026-05-02T17:01:35.05Z</time></trkpt><trkpt lat="43.9004786" lon="8.0430371"><ele>87.0</ele><time>2026-05-02T17:01:36.05Z</time></trkpt><trkpt lat="43.9006049" lon="8.0430661"><ele>88.0</ele><time>2026-05-02T17:01:37.05Z</time></trkpt><trkpt lat="43.9007228" lon="8.0430808"><ele>89.0</ele><time>2026-05-02T17:01:38.05Z</time></trkpt><trkpt lat="43.9008215" lon="8.0430595"><ele>89.0</ele><time>2026-05-02T17:01:39.05Z</time></trkpt><trkpt lat="43.9009088" lon="8.0430196"><ele>89.0</ele><time>2026-05-02T17:01:40.05Z</time></trkpt><trkpt lat="43.9009896" lon="8.0429485"><ele>89.0</ele><time>2026-05-02T17:01:41.05Z</time></trkpt><trkpt lat="43.9010611" lon="8.0428703"><ele>89.0</ele><time>2026-05-02T17:01:42.05Z</time></trkpt><trkpt lat="43.9011252" lon="8.0428012"><ele>89.0</ele><time>2026-05-02T17:01:43.05Z</time></trkpt><trkpt lat="43.9012207" lon="8.0427098"><ele>91.25</ele><time>2026-05-02T17:01:45.05Z</time></trkpt><trkpt lat="43.9013633" lon="8.0429453"><ele>93.5</ele><time>2026-05-02T17:01:57.05Z</time></trkpt><trkpt lat="43.9014376" lon="8.0430229"><ele>95.75</ele><time>2026-05-02T17:01:59.051Z</time></trkpt><trkpt lat="43.9015114" lon="8.0431069"><ele>98.0</ele><time>2026-05-02T17:02:01.05Z</time></trkpt><trkpt lat="43.9014291" lon="8.0430126"><ele>98.0</ele><time>2026-05-02T17:02:04.05Z</time></trkpt><trkpt lat="43.9013332" lon="8.0428935"><ele>98.0</ele><time>2026-05-02T17:02:06.051Z</time></trkpt><trkpt lat="43.9013119" lon="8.0427126"><ele>98.0</ele><time>2026-05-02T17:02:09.05Z</time></trkpt><trkpt lat="43.9013995" lon="8.0425579"><ele>98.0</ele><time>2026-05-02T17:02:10.05Z</time></trkpt><trkpt lat="43.901492" lon="8.0424858"><ele>94.0</ele><time>2026-05-02T17:02:11.05Z</time></trkpt><trkpt lat="43.9016037" lon="8.0424436"><ele>90.0</ele><time>2026-05-02T17:02:12.051Z</time></trkpt><trkpt lat="43.9017452" lon="8.0423457"><ele>86.0</ele><time>2026-05-02T17:02:13.05Z</time></trkpt><trkpt lat="43.9018832" lon="8.0422359"><ele>82.0</ele><time>2026-05-02T17:02:14.051Z</time></trkpt><trkpt lat="43.9020231" lon="8.0421352"><ele>82.0</ele><time>2026-05-02T17:02:15.05Z</time></trkpt><trkpt lat="43.9021753" lon="8.0421375"><ele>82.0</ele><time>2026-05-02T17:02:16.05Z</time></trkpt><trkpt lat="43.9023306" lon="8.042173"><ele>82.0</ele><time>2026-05-02T17:02:17.051Z</time></trkpt><trkpt lat="43.9024693" lon="8.0422663"><ele>84.33333333333333</ele><time>2026-05-02T17:02:18.051Z</time></trkpt><trkpt lat="43.9026191" lon="8.0423792"><ele>86.66666666666667</ele><time>2026-05-02T17:02:19.051Z</time></trkpt><trkpt lat="43.9027592" lon="8.0426365"><ele>89.0</ele><time>2026-05-02T17:02:20.05Z</time></trkpt><trkpt lat="43.9029037" lon="8.042791"><ele>91.66666666666667</ele><time>2026-05-02T17:02:21.05Z</time></trkpt><trkpt lat="43.9030464" lon="8.0429517"><ele>94.33333333333334</ele><time>2026-05-02T17:02:22.05Z</time></trkpt><trkpt lat="43.9032024" lon="8.0429998"><ele>97.0</ele><time>2026-05-02T17:02:23.051Z</time></trkpt><trkpt lat="43.9033393" lon="8.043015"><ele>105.66666666666667</ele><time>2026-05-02T17:02:24.051Z</time></trkpt><trkpt lat="43.9034962" lon="8.043003"><ele>114.33333333333334</ele><time>2026-05-02T17:02:25.05Z</time></trkpt><trkpt lat="43.9036567" lon="8.0428546"><ele>123.0</ele><time>2026-05-02T17:02:26.051Z</time></trkpt><trkpt lat="43.9038053" lon="8.0428401"><ele>123.0</ele><time>2026-05-02T17:02:27.051Z</time></trkpt><trkpt lat="43.9039376" lon="8.0428705"><ele>123.0</ele><time>2026-05-02T17:02:28.05Z</time></trkpt><trkpt lat="43.9040521" lon="8.0429542"><ele>123.0</ele><time>2026-05-02T17:02:29.05Z</time></trkpt><trkpt lat="43.9041348" lon="8.0431"><ele>123.0</ele><time>2026-05-02T17:02:30.051Z</time></trkpt><trkpt lat="43.9041635" lon="8.0432634"><ele>121.5</ele><time>2026-05-02T17:02:31.05Z</time></trkpt><trkpt lat="43.9041406" lon="8.0434329"><ele>120.0</ele><time>2026-05-02T17:02:32.05Z</time></trkpt><trkpt lat="43.9040722" lon="8.043581"><ele>118.5</ele><time>2026-05-02T17:02:33.05Z</time></trkpt><trkpt lat="43.90397" lon="8.0437006"><ele>117.0</ele><time>2026-05-02T17:02:34.05Z</time></trkpt><trkpt lat="43.9038495" lon="8.0437621"><ele>117.0</ele><time>2026-05-02T17:02:35.05Z</time></trkpt><trkpt lat="43.9037102" lon="8.0437772"><ele>117.0</ele><time>2026-05-02T17:02:36.05Z</time></trkpt><trkpt lat="43.9035731" lon="8.0437214"><ele>117.0</ele><time>2026-05-02T17:02:37.05Z</time></trkpt><trkpt lat="43.9034517" lon="8.0435982"><ele>117.0</ele><time>2026-05-02T17:02:38.051Z</time></trkpt><trkpt lat="43.9033257" lon="8.0434265"><ele>110.33333333333334</ele><time>2026-05-02T17:02:39.05Z</time></trkpt><trkpt lat="43.9031773" lon="8.0432297"><ele>103.66666666666667</ele><time>2026-05-02T17:02:40.051Z</time></trkpt><trkpt lat="43.9030163" lon="8.0430246"><ele>97.0</ele><time>2026-05-02T17:02:41.051Z</time></trkpt><trkpt lat="43.9028607" lon="8.0428217"><ele>97.0</ele><time>2026-05-02T17:02:42.05Z</time></trkpt><trkpt lat="43.9027101" lon="8.0426357"><ele>97.0</ele><time>2026-05-02T17:02:43.05Z</time></trkpt><trkpt lat="43.9025672" lon="8.0424697"><ele>97.0</ele><time>2026-05-02T17:02:44.05Z</time></trkpt><trkpt lat="43.9024318" lon="8.0423377"><ele>92.0</ele><time>2026-05-02T17:02:45.05Z</time></trkpt><trkpt lat="43.9023007" lon="8.0422164"><ele>87.0</ele><time>2026-05-02T17:02:46.05Z</time></trkpt><trkpt lat="43.9021507" lon="8.0422532"><ele>82.0</ele><time>2026-05-02T17:02:47.05Z</time></trkpt><trkpt lat="43.9018647" lon="8.042453"><ele>87.33333333333333</ele><time>2026-05-02T17:02:49.05Z</time></trkpt><trkpt lat="43.9017878" lon="8.0426684"><ele>92.66666666666666</ele><time>2026-05-02T17:02:50.05Z</time></trkpt><trkpt lat="43.9016687" lon="8.0428481"><ele>98.0</ele><time>2026-05-02T17:02:51.05Z</time></trkpt><trkpt lat="43.9015373" lon="8.0430271"><ele>98.0</ele><time>2026-05-02T17:02:52.05Z</time></trkpt><trkpt lat="43.9013825" lon="8.0432025"><ele>98.0</ele><time>2026-05-02T17:02:53.05Z</time></trkpt><trkpt lat="43.9012101" lon="8.0433854"><ele>98.0</ele><time>2026-05-02T17:02:54.05Z</time></trkpt><trkpt lat="43.9010224" lon="8.0435827"><ele>99.5</ele><time>2026-05-02T17:02:55.05Z</time></trkpt><trkpt lat="43.9008357" lon="8.0437917"><ele>101.0</ele><time>2026-05-02T17:02:56.05Z</time></trkpt><trkpt lat="43.9006482" lon="8.0440055"><ele>109.0</ele><time>2026-05-02T17:02:57.05Z</time></trkpt><trkpt lat="43.9004599" lon="8.0442501"><ele>117.0</ele><time>2026-05-02T17:02:58.05Z</time></trkpt><trkpt lat="43.900262" lon="8.0444898"><ele>118.5</ele><time>2026-05-02T17:02:59.05Z</time></trkpt><trkpt lat="43.9000672" lon="8.0447301"><ele>120.0</ele><time>2026-05-02T17:03:00.051Z</time></trkpt><trkpt lat="43.8990229" lon="8.0482859"><ele>112.5</ele><time>2026-05-02T17:03:10.05Z</time></trkpt><trkpt lat="43.8989565" lon="8.0486953"><ele>105.0</ele><time>2026-05-02T17:03:11.05Z</time></trkpt><trkpt lat="43.8989317" lon="8.0490502"><ele>102.5</ele><time>2026-05-02T17:03:12.05Z</time></trkpt><trkpt lat="43.8989407" lon="8.049403"><ele>100.0</ele><time>2026-05-02T17:03:13.05Z</time></trkpt><trkpt lat="43.8989569" lon="8.049749"><ele>103.0</ele><time>2026-05-02T17:03:14.051Z</time></trkpt><trkpt lat="43.8989899" lon="8.0500884"><ele>106.0</ele><time>2026-05-02T17:03:15.051Z</time></trkpt><trkpt lat="43.8990329" lon="8.0504233"><ele>106.0</ele><time>2026-05-02T17:03:16.05Z</time></trkpt><trkpt lat="43.8990748" lon="8.0507639"><ele>106.0</ele><time>2026-05-02T17:03:17.05Z</time></trkpt><trkpt lat="43.8991156" lon="8.0511051"><ele>97.0</ele><time>2026-05-02T17:03:18.051Z</time></trkpt><trkpt lat="43.9051438" lon="8.0624669"><ele>93.0</ele><time>2026-05-02T17:03:48.048Z</time></trkpt><trkpt lat="43.9046685" lon="8.061968"><ele>93.0</ele><time>2026-05-02T17:03:52.05Z</time></trkpt><trkpt lat="43.9048165" lon="8.0622243"><ele>93.0</ele><time>2026-05-02T17:03:53.05Z</time></trkpt><trkpt lat="43.9049605" lon="8.0624889"><ele>95.0</ele><time>2026-05-02T17:03:54.05Z</time></trkpt><trkpt lat="43.905089" lon="8.0627594"><ele>97.0</ele><time>2026-05-02T17:03:55.05Z</time></trkpt><trkpt lat="43.9052241" lon="8.0630342"><ele>92.5</ele><time>2026-05-02T17:03:56.05Z</time></trkpt><trkpt lat="43.9053662" lon="8.0633051"><ele>88.0</ele><time>2026-05-02T17:03:57.051Z</time></trkpt><trkpt lat="43.9055202" lon="8.0635871"><ele>88.0</ele><time>2026-05-02T17:03:58.05Z</time></trkpt><trkpt lat="43.9056793" lon="8.0638784"><ele>88.0</ele><time>2026-05-02T17:03:59.05Z</time></trkpt><trkpt lat="43.9058414" lon="8.064154"><ele>90.0</ele><time>2026-05-02T17:04:00.05Z</time></trkpt><trkpt lat="43.9059938" lon="8.0644116"><ele>92.0</ele><time>2026-05-02T17:04:01.05Z</time></trkpt><trkpt lat="43.9061564" lon="8.0646613"><ele>92.0</ele><time>2026-05-02T17:04:02.05Z</time></trkpt><trkpt lat="43.9063233" lon="8.0649061"><ele>92.0</ele><time>2026-05-02T17:04:03.05Z</time></trkpt><trkpt lat="43.9064966" lon="8.0651388"><ele>85.0</ele><time>2026-05-02T17:04:04.05Z</time></trkpt><trkpt lat="43.9066726" lon="8.0653665"><ele>78.0</ele><time>2026-05-02T17:04:05.05Z</time></trkpt><trkpt lat="43.9068524" lon="8.0655902"><ele>72.5</ele><time>2026-05-02T17:04:06.05Z</time></trkpt><trkpt lat="43.9070327" lon="8.0658097"><ele>67.0</ele><time>2026-05-02T17:04:07.05Z</time></trkpt><trkpt lat="43.9072221" lon="8.0660214"><ele>67.0</ele><time>2026-05-02T17:04:08.05Z</time></trkpt><trkpt lat="43.907417" lon="8.066228"><ele>67.0</ele><time>2026-05-02T17:04:09.05Z</time></trkpt><trkpt lat="43.9076176" lon="8.0664269"><ele>57.5</ele><time>2026-05-02T17:04:10.05Z</time></trkpt><trkpt lat="43.9078222" lon="8.0666194"><ele>48.0</ele><time>2026-05-02T17:04:11.05Z</time></trkpt><trkpt lat="43.9080304" lon="8.0668015"><ele>48.0</ele><time>2026-05-02T17:04:12.05Z</time></trkpt><trkpt lat="43.9082419" lon="8.0669737"><ele>48.0</ele><time>2026-05-02T17:04:13.05Z</time></trkpt><trkpt lat="43.9084555" lon="8.0671406"><ele>42.0</ele><time>2026-05-02T17:04:14.05Z</time></trkpt><trkpt lat="43.9086696" lon="8.0672965"><ele>36.0</ele><time>2026-05-02T17:04:15.05Z</time></trkpt><trkpt lat="43.9088863" lon="8.0674432"><ele>36.5</ele><time>2026-05-02T17:04:16.05Z</time></trkpt><trkpt lat="43.9091037" lon="8.0675849"><ele>37.0</ele><time>2026-05-02T17:04:17.05Z</time></trkpt><trkpt lat="43.9093264" lon="8.0677232"><ele>42.5</ele><time>2026-05-02T17:04:18.051Z</time></trkpt><trkpt lat="43.9095518" lon="8.0678501"><ele>48.0</ele><time>2026-05-02T17:04:19.05Z</time></trkpt><trkpt lat="43.9097799" lon="8.0679646"><ele>48.0</ele><time>2026-05-02T17:04:20.051Z</time></trkpt><trkpt lat="43.9100115" lon="8.0680691"><ele>48.0</ele><time>2026-05-02T17:04:21.05Z</time></trkpt><trkpt lat="43.9102454" lon="8.0681654"><ele>54.5</ele><time>2026-05-02T17:04:22.05Z</time></trkpt><trkpt lat="43.910482" lon="8.06826"><ele>61.0</ele><time>2026-05-02T17:04:23.051Z</time></trkpt><trkpt lat="43.9107174" lon="8.0683566"><ele>60.0</ele><time>2026-05-02T17:04:24.05Z</time></trkpt><trkpt lat="43.9109522" lon="8.0684531"><ele>59.0</ele><time>2026-05-02T17:04:25.051Z</time></trkpt><trkpt lat="43.9130965" lon="8.0689563"><ele>55.0</ele><time>2026-05-02T17:04:33.05Z</time></trkpt><trkpt lat="43.9134075" lon="8.0689664"><ele>51.0</ele><time>2026-05-02T17:04:34.05Z</time></trkpt><trkpt lat="43.9136575" lon="8.0690266"><ele>51.0</ele><time>2026-05-02T17:04:35.05Z</time></trkpt><trkpt lat="43.913904" lon="8.0690873"><ele>51.0</ele><time>2026-05-02T17:04:36.05Z</time></trkpt><trkpt lat="43.9141474" lon="8.0691533"><ele>35.0</ele><time>2026-05-02T17:04:37.05Z</time></trkpt><trkpt lat="43.9143917" lon="8.0692149"><ele>19.0</ele><time>2026-05-02T17:04:38.051Z</time></trkpt><trkpt lat="43.9146397" lon="8.0692776"><ele>19.0</ele><time>2026-05-02T17:04:39.05Z</time></trkpt><trkpt lat="43.9148871" lon="8.069339"><ele>19.0</ele><time>2026-05-02T17:04:40.05Z</time></trkpt><trkpt lat="43.9151322" lon="8.0693994"><ele>19.5</ele><time>2026-05-02T17:04:41.051Z</time></trkpt><trkpt lat="43.9153783" lon="8.0694548"><ele>20.0</ele><time>2026-05-02T17:04:42.05Z</time></trkpt><trkpt lat="43.9156202" lon="8.069512"><ele>20.0</ele><time>2026-05-02T17:04:43.05Z</time></trkpt><trkpt lat="43.9158644" lon="8.0695703"><ele>20.0</ele><time>2026-05-02T17:04:44.05Z</time></trkpt><trkpt lat="43.9161093" lon="8.0696287"><ele>20.5</ele><time>2026-05-02T17:04:45.05Z</time></trkpt><trkpt lat="43.9163509" lon="8.0696851"><ele>21.0</ele><time>2026-05-02T17:04:46.05Z</time></trkpt><trkpt lat="43.9165926" lon="8.0697371"><ele>24.5</ele><time>2026-05-02T17:04:47.05Z</time></trkpt><trkpt lat="43.9168308" lon="8.06979"><ele>28.0</ele><time>2026-05-02T17:04:48.051Z</time></trkpt><trkpt lat="43.9170617" lon="8.0698417"><ele>28.0</ele><time>2026-05-02T17:04:49.05Z</time></trkpt><trkpt lat="43.917286" lon="8.0698901"><ele>28.0</ele><time>2026-05-02T17:04:50.05Z</time></trkpt><trkpt lat="43.9175065" lon="8.0699385"><ele>35.0</ele><time>2026-05-02T17:04:51.05Z</time></trkpt><trkpt lat="43.9177295" lon="8.0699856"><ele>42.0</ele><time>2026-05-02T17:04:52.05Z</time></trkpt><trkpt lat="43.9179519" lon="8.0700329"><ele>39.0</ele><time>2026-05-02T17:04:53.05Z</time></trkpt><trkpt lat="43.921018" lon="8.0723376"><ele>36.0</ele><time>2026-05-02T17:05:08.05Z</time></trkpt><trkpt lat="43.9211435" lon="8.072612"><ele>33.0</ele><time>2026-05-02T17:05:09.051Z</time></trkpt><trkpt lat="43.9212857" lon="8.0728836"><ele>33.0</ele><time>2026-05-02T17:05:10.051Z</time></trkpt><trkpt lat="43.9214322" lon="8.0731751"><ele>33.0</ele><time>2026-05-02T17:05:11.05Z</time></trkpt><trkpt lat="43.9215702" lon="8.0734792"><ele>31.0</ele><time>2026-05-02T17:05:12.05Z</time></trkpt><trkpt lat="43.9217007" lon="8.0737906"><ele>29.0</ele><time>2026-05-02T17:05:13.05Z</time></trkpt><trkpt lat="43.9218161" lon="8.0741234"><ele>27.0</ele><time>2026-05-02T17:05:14.051Z</time></trkpt><trkpt lat="43.9219213" lon="8.0744696"><ele>25.0</ele><time>2026-05-02T17:05:15.05Z</time></trkpt><trkpt lat="43.9220113" lon="8.0748291"><ele>24.0</ele><time>2026-05-02T17:05:16.051Z</time></trkpt><trkpt lat="43.9220983" lon="8.0751957"><ele>23.0</ele><time>2026-05-02T17:05:17.05Z</time></trkpt><trkpt lat="43.9221741" lon="8.0755739"><ele>24.5</ele><time>2026-05-02T17:05:18.05Z</time></trkpt><trkpt lat="43.9222379" lon="8.0759525"><ele>26.0</ele><time>2026-05-02T17:05:19.05Z</time></trkpt><trkpt lat="43.9222849" lon="8.0763491"><ele>29.5</ele><time>2026-05-02T17:05:20.05Z</time></trkpt><trkpt lat="43.922313" lon="8.0767526"><ele>33.0</ele><time>2026-05-02T17:05:21.05Z</time></trkpt><trkpt lat="43.9223328" lon="8.0771565"><ele>35.5</ele><time>2026-05-02T17:05:22.051Z</time></trkpt><trkpt lat="43.9223452" lon="8.0775622"><ele>38.0</ele><time>2026-05-02T17:05:23.05Z</time></trkpt><trkpt lat="43.9223572" lon="8.0779704"><ele>41.5</ele><time>2026-05-02T17:05:24.051Z</time></trkpt><trkpt lat="43.9223701" lon="8.0783828"><ele>45.0</ele><time>2026-05-02T17:05:25.051Z</time></trkpt><trkpt lat="43.9223857" lon="8.0787987"><ele>50.0</ele><time>2026-05-02T17:05:26.05Z</time></trkpt><trkpt lat="43.9224083" lon="8.0792147"><ele>55.0</ele><time>2026-05-02T17:05:27.05Z</time></trkpt><trkpt lat="43.9224312" lon="8.0796302"><ele>50.0</ele><time>2026-05-02T17:05:28.05Z</time></trkpt><trkpt lat="43.9224526" lon="8.0800456"><ele>45.0</ele><time>2026-05-02T17:05:29.05Z</time></trkpt><trkpt lat="43.9226282" lon="8.0846374"><ele>40.5</ele><time>2026-05-02T17:05:40.05Z</time></trkpt><trkpt lat="43.9226441" lon="8.0850142"><ele>36.0</ele><time>2026-05-02T17:05:41.051Z</time></trkpt><trkpt lat="43.9226558" lon="8.0853763"><ele>36.0</ele><time>2026-05-02T17:05:42.051Z</time></trkpt><trkpt lat="43.9226745" lon="8.0857396"><ele>36.0</ele><time>2026-05-02T17:05:43.052Z</time></trkpt><trkpt lat="43.9227014" lon="8.0860975"><ele>38.0</ele><time>2026-05-02T17:05:44.05Z</time></trkpt><trkpt lat="43.9227243" lon="8.0864591"><ele>40.0</ele><time>2026-05-02T17:05:45.05Z</time></trkpt><trkpt lat="43.9227437" lon="8.0868124"><ele>46.5</ele><time>2026-05-02T17:05:46.05Z</time></trkpt><trkpt lat="43.9227561" lon="8.0871677"><ele>53.0</ele><time>2026-05-02T17:05:47.05Z</time></trkpt><trkpt lat="43.9227628" lon="8.0875285"><ele>62.5</ele><time>2026-05-02T17:05:48.051Z</time></trkpt><trkpt lat="43.9227632" lon="8.0878864"><ele>72.0</ele><time>2026-05-02T17:05:49.05Z</time></trkpt><trkpt lat="43.9227668" lon="8.0882466"><ele>77.5</ele><time>2026-05-02T17:05:50.05Z</time></trkpt><trkpt lat="43.9227797" lon="8.0886073"><ele>83.0</ele><time>2026-05-02T17:05:51.05Z</time></trkpt><trkpt lat="43.9227978" lon="8.0889648"><ele>84.5</ele><time>2026-05-02T17:05:52.051Z</time></trkpt><trkpt lat="43.9228221" lon="8.08932"><ele>86.0</ele><time>2026-05-02T17:05:53.051Z</time></trkpt><trkpt lat="43.9228588" lon="8.0896696"><ele>85.5</ele><time>2026-05-02T17:05:54.05Z</time></trkpt><trkpt lat="43.9229102" lon="8.0900166"><ele>85.0</ele><time>2026-05-02T17:05:55.051Z</time></trkpt><trkpt lat="43.922971" lon="8.0903564"><ele>85.0</ele><time>2026-05-02T17:05:56.05Z</time></trkpt><trkpt lat="43.9230403" lon="8.0906946"><ele>85.0</ele><time>2026-05-02T17:05:57.05Z</time></trkpt><trkpt lat="43.92312" lon="8.0910332"><ele>82.0</ele><time>2026-05-02T17:05:58.05Z</time></trkpt><trkpt lat="43.9232116" lon="8.0913663"><ele>79.0</ele><time>2026-05-02T17:05:59.05Z</time></trkpt><trkpt lat="43.9233098" lon="8.0916951"><ele>87.0</ele><time>2026-05-02T17:06:00.05Z</time></trkpt><trkpt lat="43.9234211" lon="8.092018"><ele>95.0</ele><time>2026-05-02T17:06:01.05Z</time></trkpt><trkpt lat="43.9235411" lon="8.0923358"><ele>94.0</ele><time>2026-05-02T17:06:02.05Z</time></trkpt><trkpt lat="43.9236814" lon="8.0926448"><ele>93.0</ele><time>2026-05-02T17:06:03.05Z</time></trkpt><trkpt lat="43.9238336" lon="8.0929465"><ele>93.0</ele><time>2026-05-02T17:06:04.05Z</time></trkpt><trkpt lat="43.9239931" lon="8.0932373"><ele>93.0</ele><time>2026-05-02T17:06:05.05Z</time></trkpt><trkpt lat="43.9241621" lon="8.0935148"><ele>77.5</ele><time>2026-05-02T17:06:06.05Z</time></trkpt><trkpt lat="43.9243421" lon="8.0937797"><ele>62.0</ele><time>2026-05-02T17:06:07.051Z</time></trkpt><trkpt lat="43.9245243" lon="8.0940355"><ele>58.0</ele><time>2026-05-02T17:06:08.05Z</time></trkpt><trkpt lat="43.9247169" lon="8.0942812"><ele>54.0</ele><time>2026-05-02T17:06:09.05Z</time></trkpt><trkpt lat="43.9249212" lon="8.0945082"><ele>59.5</ele><time>2026-05-02T17:06:10.05Z</time></trkpt><trkpt lat="43.9251249" lon="8.0947272"><ele>65.0</ele><time>2026-05-02T17:06:11.051Z</time></trkpt><trkpt lat="43.9253324" lon="8.0949339"><ele>73.5</ele><time>2026-05-02T17:06:12.05Z</time></trkpt><trkpt lat="43.925548" lon="8.0951333"><ele>82.0</ele><time>2026-05-02T17:06:13.05Z</time></trkpt><trkpt lat="43.9257632" lon="8.0953346"><ele>88.0</ele><time>2026-05-02T17:06:14.05Z</time></trkpt><trkpt lat="43.9259753" lon="8.0955373"><ele>94.0</ele><time>2026-05-02T17:06:15.05Z</time></trkpt><trkpt lat="43.9261828" lon="8.0957385"><ele>90.5</ele><time>2026-05-02T17:06:16.051Z</time></trkpt><trkpt lat="43.9263853" lon="8.09594"><ele>87.0</ele><time>2026-05-02T17:06:17.05Z</time></trkpt><trkpt lat="43.9265868" lon="8.0961433"><ele>87.5</ele><time>2026-05-02T17:06:18.05Z</time></trkpt><trkpt lat="43.9267838" lon="8.0963337"><ele>88.0</ele><time>2026-05-02T17:06:19.05Z</time></trkpt><trkpt lat="43.9269735" lon="8.0965122"><ele>84.0</ele><time>2026-05-02T17:06:20.05Z</time></trkpt><trkpt lat="43.9271514" lon="8.0966824"><ele>80.0</ele><time>2026-05-02T17:06:21.05Z</time></trkpt><trkpt lat="43.9273243" lon="8.0968474"><ele>76.0</ele><time>2026-05-02T17:06:22.05Z</time></trkpt><trkpt lat="43.9274869" lon="8.0970134"><ele>76.66666666666666</ele><time>2026-05-02T17:06:23.05Z</time></trkpt><trkpt lat="43.9276329" lon="8.0971792"><ele>77.33333333333333</ele><time>2026-05-02T17:06:24.05Z</time></trkpt><trkpt lat="43.9277673" lon="8.097342"><ele>78.0</ele><time>2026-05-02T17:06:25.05Z</time></trkpt><trkpt lat="43.9278869" lon="8.0975209"><ele>78.0</ele><time>2026-05-02T17:06:26.05Z</time></trkpt><trkpt lat="43.9279957" lon="8.0976825"><ele>78.0</ele><time>2026-05-02T17:06:27.05Z</time></trkpt><trkpt lat="43.9281007" lon="8.0978382"><ele>78.0</ele><time>2026-05-02T17:06:28.05Z</time></trkpt><trkpt lat="43.9282112" lon="8.0979827"><ele>78.0</ele><time>2026-05-02T17:06:29.051Z</time></trkpt><trkpt lat="43.9283382" lon="8.0980843"><ele>78.0</ele><time>2026-05-02T17:06:30.05Z</time></trkpt><trkpt lat="43.9284795" lon="8.0981319"><ele>78.0</ele><time>2026-05-02T17:06:31.05Z</time></trkpt><trkpt lat="43.9286304" lon="8.0981267"><ele>78.0</ele><time>2026-05-02T17:06:32.051Z</time></trkpt><trkpt lat="43.9287913" lon="8.0980685"><ele>78.75</ele><time>2026-05-02T17:06:33.05Z</time></trkpt><trkpt lat="43.9289442" lon="8.0980138"><ele>79.5</ele><time>2026-05-02T17:06:34.05Z</time></trkpt><trkpt lat="43.9290909" lon="8.0979702"><ele>80.25</ele><time>2026-05-02T17:06:35.05Z</time></trkpt><trkpt lat="43.929224" lon="8.0979135"><ele>81.0</ele><time>2026-05-02T17:06:36.051Z</time></trkpt><trkpt lat="43.9293503" lon="8.097855"><ele>81.0</ele><time>2026-05-02T17:06:37.051Z</time></trkpt><trkpt lat="43.9294593" lon="8.0977823"><ele>81.0</ele><time>2026-05-02T17:06:38.051Z</time></trkpt><trkpt lat="43.9295568" lon="8.0977208"><ele>81.0</ele><time>2026-05-02T17:06:39.051Z</time></trkpt><trkpt lat="43.9296564" lon="8.0976759"><ele>81.0</ele><time>2026-05-02T17:06:40.051Z</time></trkpt><trkpt lat="43.9297449" lon="8.0976362"><ele>81.0</ele><time>2026-05-02T17:06:41.05Z</time></trkpt><trkpt lat="43.9298153" lon="8.0976043"><ele>81.0</ele><time>2026-05-02T17:06:42.05Z</time></trkpt><trkpt lat="43.9299197" lon="8.0975662"><ele>81.0</ele><time>2026-05-02T17:06:44.05Z</time></trkpt><trkpt lat="43.930038" lon="8.0975447"><ele>81.0</ele><time>2026-05-02T17:07:39.05Z</time></trkpt><trkpt lat="43.9301616" lon="8.0975287"><ele>81.0</ele><time>2026-05-02T17:07:40.05Z</time></trkpt><trkpt lat="43.9302859" lon="8.0974946"><ele>79.25</ele><time>2026-05-02T17:07:41.05Z</time></trkpt><trkpt lat="43.9304159" lon="8.0974618"><ele>77.5</ele><time>2026-05-02T17:07:42.051Z</time></trkpt><trkpt lat="43.9305305" lon="8.097435"><ele>75.75</ele><time>2026-05-02T17:07:43.05Z</time></trkpt><trkpt lat="43.9306557" lon="8.0974087"><ele>74.0</ele><time>2026-05-02T17:07:44.05Z</time></trkpt><trkpt lat="43.9307808" lon="8.0973713"><ele>74.66666666666667</ele><time>2026-05-02T17:07:45.05Z</time></trkpt><trkpt lat="43.9309042" lon="8.097315"><ele>75.33333333333333</ele><time>2026-05-02T17:07:46.05Z</time></trkpt><trkpt lat="43.931037" lon="8.0972217"><ele>76.0</ele><time>2026-05-02T17:07:47.05Z</time></trkpt><trkpt lat="43.9311951" lon="8.0971065"><ele>76.0</ele><time>2026-05-02T17:07:48.05Z</time></trkpt><trkpt lat="43.9313573" lon="8.0969908"><ele>76.0</ele><time>2026-05-02T17:07:49.05Z</time></trkpt><trkpt lat="43.9315642" lon="8.0968307"><ele>76.0</ele><time>2026-05-02T17:07:50.05Z</time></trkpt><trkpt lat="43.9317771" lon="8.096675"><ele>75.0</ele><time>2026-05-02T17:07:51.05Z</time></trkpt><trkpt lat="43.9320137" lon="8.09653"><ele>74.0</ele><time>2026-05-02T17:07:52.051Z</time></trkpt><trkpt lat="43.9322542" lon="8.0963882"><ele>74.0</ele><time>2026-05-02T17:07:53.05Z</time></trkpt><trkpt lat="43.9325044" lon="8.096258"><ele>74.0</ele><time>2026-05-02T17:07:54.05Z</time></trkpt><trkpt lat="43.9327408" lon="8.0961672"><ele>70.0</ele><time>2026-05-02T17:07:55.05Z</time></trkpt><trkpt lat="43.9329608" lon="8.0961034"><ele>66.0</ele><time>2026-05-02T17:07:56.051Z</time></trkpt><trkpt lat="43.9331613" lon="8.0960603"><ele>62.0</ele><time>2026-05-02T17:07:57.05Z</time></trkpt><trkpt lat="43.9333488" lon="8.0959751"><ele>62.66666666666667</ele><time>2026-05-02T17:07:58.05Z</time></trkpt><trkpt lat="43.9335179" lon="8.0958549"><ele>63.33333333333333</ele><time>2026-05-02T17:07:59.05Z</time></trkpt><trkpt lat="43.9336638" lon="8.0957066"><ele>64.0</ele><time>2026-05-02T17:08:00.051Z</time></trkpt><trkpt lat="43.9337877" lon="8.0955258"><ele>64.0</ele><time>2026-05-02T17:08:01.05Z</time></trkpt><trkpt lat="43.9338898" lon="8.0953667"><ele>64.0</ele><time>2026-05-02T17:08:02.05Z</time></trkpt><trkpt lat="43.9339955" lon="8.0952171"><ele>64.0</ele><time>2026-05-02T17:08:03.05Z</time></trkpt><trkpt lat="43.9341192" lon="8.0951307"><ele>64.0</ele><time>2026-05-02T17:08:04.05Z</time></trkpt><trkpt lat="43.9342584" lon="8.0952076"><ele>65.25</ele><time>2026-05-02T17:08:05.051Z</time></trkpt><trkpt lat="43.9343658" lon="8.0952716"><ele>66.5</ele><time>2026-05-02T17:08:06.051Z</time></trkpt><trkpt lat="43.9344388" lon="8.0954019"><ele>67.75</ele><time>2026-05-02T17:08:07.051Z</time></trkpt><trkpt lat="43.9344776" lon="8.0955651"><ele>69.0</ele><time>2026-05-02T17:08:08.05Z</time></trkpt><trkpt lat="43.9344618" lon="8.0957572"><ele>69.0</ele><time>2026-05-02T17:08:09.051Z</time></trkpt><trkpt lat="43.9344106" lon="8.0959556"><ele>69.0</ele><time>2026-05-02T17:08:10.051Z</time></trkpt><trkpt lat="43.9343412" lon="8.0961587"><ele>69.0</ele><time>2026-05-02T17:08:11.051Z</time></trkpt><trkpt lat="43.9342569" lon="8.0963622"><ele>64.66666666666667</ele><time>2026-05-02T17:08:12.05Z</time></trkpt><trkpt lat="43.9341459" lon="8.0965398"><ele>60.333333333333336</ele><time>2026-05-02T17:08:13.05Z</time></trkpt><trkpt lat="43.9340057" lon="8.0967041"><ele>56.0</ele><time>2026-05-02T17:08:14.05Z</time></trkpt><trkpt lat="43.9338636" lon="8.0968382"><ele>53.66666666666667</ele><time>2026-05-02T17:08:15.051Z</time></trkpt><trkpt lat="43.9337256" lon="8.0969772"><ele>51.33333333333333</ele><time>2026-05-02T17:08:16.05Z</time></trkpt><trkpt lat="43.9336013" lon="8.0971386"><ele>49.0</ele><time>2026-05-02T17:08:17.05Z</time></trkpt><trkpt lat="43.9334971" lon="8.0973273"><ele>48.0</ele><time>2026-05-02T17:08:18.05Z</time></trkpt><trkpt lat="43.9334156" lon="8.0975259"><ele>47.0</ele><time>2026-05-02T17:08:19.051Z</time></trkpt><trkpt lat="43.9333343" lon="8.0977089"><ele>46.0</ele><time>2026-05-02T17:08:20.051Z</time></trkpt><trkpt lat="43.9332438" lon="8.0978789"><ele>46.0</ele><time>2026-05-02T17:08:21.051Z</time></trkpt><trkpt lat="43.9331505" lon="8.098039"><ele>46.0</ele><time>2026-05-02T17:08:22.05Z</time></trkpt><trkpt lat="43.9330362" lon="8.0981628"><ele>46.0</ele><time>2026-05-02T17:08:23.051Z</time></trkpt><trkpt lat="43.9328908" lon="8.098195"><ele>46.0</ele><time>2026-05-02T17:08:24.05Z</time></trkpt><trkpt lat="43.9327537" lon="8.0982677"><ele>45.25</ele><time>2026-05-02T17:08:25.05Z</time></trkpt><trkpt lat="43.9326197" lon="8.0983579"><ele>44.5</ele><time>2026-05-02T17:08:26.051Z</time></trkpt><trkpt lat="43.9324808" lon="8.0984373"><ele>43.75</ele><time>2026-05-02T17:08:27.05Z</time></trkpt><trkpt lat="43.9323448" lon="8.0984996"><ele>43.0</ele><time>2026-05-02T17:08:28.05Z</time></trkpt><trkpt lat="43.9322059" lon="8.0985357"><ele>41.0</ele><time>2026-05-02T17:08:29.05Z</time></trkpt><trkpt lat="43.9320673" lon="8.0985407"><ele>41.0</ele><time>2026-05-02T17:08:30.05Z</time></trkpt><trkpt lat="43.9319293" lon="8.0985453"><ele>41.0</ele><time>2026-05-02T17:08:31.05Z</time></trkpt><trkpt lat="43.9317888" lon="8.0985556"><ele>41.0</ele><time>2026-05-02T17:08:32.05Z</time></trkpt></trkseg></trk></gpx>